<?xml version="1.0" encoding="UTF-8" standalone="no" ?>
<gpx xmlns="http://www.topografix.com/GPX/1/1" xmlns:xsi="http://www.w3.org/2001/XMLSchema-instance" xsi:schemaLocation="http://www.topografix.com/GPX/1/1 http://www.topografix.com/GPX/1/1/gpx.xsd" version="1.1" creator="VisuGPX - https://www.visugpx.com">
  <metadata>
    <name>Caillante au Rocher Blanc</name>
  </metadata>
  <trk>
    <name><![CDATA[Caillante au Rocher Blanc]]></name>
    <trkseg>
      <trkpt lat="45.28223" lon="6.07431">
        <ele>1065</ele>
        <time>2021-12-23T08:17:27Z</time>
      </trkpt>
      <trkpt lat="45.28223" lon="6.07431">
        <ele>1065</ele>
        <time>2021-12-23T08:17:28Z</time>
      </trkpt>
      <trkpt lat="45.28223" lon="6.07431">
        <ele>1065</ele>
        <time>2021-12-23T08:17:29Z</time>
      </trkpt>
      <trkpt lat="45.28223" lon="6.07431">
        <ele>1064</ele>
        <time>2021-12-23T08:17:30Z</time>
      </trkpt>
      <trkpt lat="45.28223" lon="6.07431">
        <ele>1064</ele>
        <time>2021-12-23T08:17:31Z</time>
      </trkpt>
      <trkpt lat="45.28224" lon="6.07432">
        <ele>1065</ele>
        <time>2021-12-23T08:17:33Z</time>
      </trkpt>
      <trkpt lat="45.28224" lon="6.07432">
        <ele>1065</ele>
        <time>2021-12-23T08:17:34Z</time>
      </trkpt>
      <trkpt lat="45.28224" lon="6.07432">
        <ele>1065</ele>
        <time>2021-12-23T08:17:35Z</time>
      </trkpt>
      <trkpt lat="45.28224" lon="6.07432">
        <ele>1065</ele>
        <time>2021-12-23T08:17:36Z</time>
      </trkpt>
      <trkpt lat="45.28224" lon="6.07432">
        <ele>1065</ele>
        <time>2021-12-23T08:17:37Z</time>
      </trkpt>
      <trkpt lat="45.28224" lon="6.07432">
        <ele>1065</ele>
        <time>2021-12-23T08:17:38Z</time>
      </trkpt>
      <trkpt lat="45.28224" lon="6.07432">
        <ele>1064</ele>
        <time>2021-12-23T08:17:39Z</time>
      </trkpt>
      <trkpt lat="45.28224" lon="6.07432">
        <ele>1064</ele>
        <time>2021-12-23T08:17:40Z</time>
      </trkpt>
      <trkpt lat="45.28224" lon="6.07432">
        <ele>1064</ele>
        <time>2021-12-23T08:17:41Z</time>
      </trkpt>
      <trkpt lat="45.28224" lon="6.07432">
        <ele>1064</ele>
        <time>2021-12-23T08:17:42Z</time>
      </trkpt>
      <trkpt lat="45.28224" lon="6.07432">
        <ele>1064</ele>
        <time>2021-12-23T08:17:43Z</time>
      </trkpt>
      <trkpt lat="45.28224" lon="6.07432">
        <ele>1064</ele>
        <time>2021-12-23T08:17:44Z</time>
      </trkpt>
      <trkpt lat="45.28224" lon="6.07432">
        <ele>1064</ele>
        <time>2021-12-23T08:17:45Z</time>
      </trkpt>
      <trkpt lat="45.28224" lon="6.07432">
        <ele>1064</ele>
        <time>2021-12-23T08:17:46Z</time>
      </trkpt>
      <trkpt lat="45.28224" lon="6.07432">
        <ele>1064</ele>
        <time>2021-12-23T08:17:47Z</time>
      </trkpt>
      <trkpt lat="45.28224" lon="6.07432">
        <ele>1064</ele>
        <time>2021-12-23T08:17:48Z</time>
      </trkpt>
      <trkpt lat="45.28224" lon="6.07432">
        <ele>1064</ele>
        <time>2021-12-23T08:17:49Z</time>
      </trkpt>
      <trkpt lat="45.28224" lon="6.07432">
        <ele>1064</ele>
        <time>2021-12-23T08:17:50Z</time>
      </trkpt>
      <trkpt lat="45.28224" lon="6.07432">
        <ele>1064</ele>
        <time>2021-12-23T08:17:51Z</time>
      </trkpt>
      <trkpt lat="45.28224" lon="6.07432">
        <ele>1064</ele>
        <time>2021-12-23T08:17:53Z</time>
      </trkpt>
      <trkpt lat="45.28224" lon="6.07432">
        <ele>1064</ele>
        <time>2021-12-23T08:17:54Z</time>
      </trkpt>
      <trkpt lat="45.28224" lon="6.07432">
        <ele>1064</ele>
        <time>2021-12-23T08:17:55Z</time>
      </trkpt>
      <trkpt lat="45.28224" lon="6.07432">
        <ele>1064</ele>
        <time>2021-12-23T08:17:56Z</time>
      </trkpt>
      <trkpt lat="45.28224" lon="6.07432">
        <ele>1064</ele>
        <time>2021-12-23T08:17:57Z</time>
      </trkpt>
      <trkpt lat="45.28224" lon="6.07432">
        <ele>1064</ele>
        <time>2021-12-23T08:17:58Z</time>
      </trkpt>
      <trkpt lat="45.28224" lon="6.07432">
        <ele>1064</ele>
        <time>2021-12-23T08:17:59Z</time>
      </trkpt>
      <trkpt lat="45.28224" lon="6.07432">
        <ele>1064</ele>
        <time>2021-12-23T08:18:00Z</time>
      </trkpt>
      <trkpt lat="45.28224" lon="6.07432">
        <ele>1064</ele>
        <time>2021-12-23T08:18:01Z</time>
      </trkpt>
      <trkpt lat="45.28224" lon="6.07432">
        <ele>1064</ele>
        <time>2021-12-23T08:18:02Z</time>
      </trkpt>
      <trkpt lat="45.28224" lon="6.07432">
        <ele>1064</ele>
        <time>2021-12-23T08:18:03Z</time>
      </trkpt>
      <trkpt lat="45.28224" lon="6.07432">
        <ele>1064</ele>
        <time>2021-12-23T08:18:04Z</time>
      </trkpt>
      <trkpt lat="45.28224" lon="6.07432">
        <ele>1064</ele>
        <time>2021-12-23T08:18:05Z</time>
      </trkpt>
      <trkpt lat="45.28224" lon="6.07432">
        <ele>1064</ele>
        <time>2021-12-23T08:18:06Z</time>
      </trkpt>
      <trkpt lat="45.28224" lon="6.07432">
        <ele>1064</ele>
        <time>2021-12-23T08:18:07Z</time>
      </trkpt>
      <trkpt lat="45.28224" lon="6.07432">
        <ele>1064</ele>
        <time>2021-12-23T08:18:08Z</time>
      </trkpt>
      <trkpt lat="45.28224" lon="6.07432">
        <ele>1064</ele>
        <time>2021-12-23T08:18:09Z</time>
      </trkpt>
      <trkpt lat="45.28224" lon="6.07432">
        <ele>1064</ele>
        <time>2021-12-23T08:18:10Z</time>
      </trkpt>
      <trkpt lat="45.2822" lon="6.07433">
        <ele>1064</ele>
        <time>2021-12-23T08:18:11Z</time>
      </trkpt>
      <trkpt lat="45.2822" lon="6.07433">
        <ele>1064</ele>
        <time>2021-12-23T08:18:12Z</time>
      </trkpt>
      <trkpt lat="45.28219" lon="6.07434">
        <ele>1064</ele>
        <time>2021-12-23T08:18:13Z</time>
      </trkpt>
      <trkpt lat="45.28217" lon="6.07435">
        <ele>1064</ele>
        <time>2021-12-23T08:18:14Z</time>
      </trkpt>
      <trkpt lat="45.28216" lon="6.07436">
        <ele>1064</ele>
        <time>2021-12-23T08:18:15Z</time>
      </trkpt>
      <trkpt lat="45.28216" lon="6.07436">
        <ele>1064</ele>
        <time>2021-12-23T08:18:16Z</time>
      </trkpt>
      <trkpt lat="45.28215" lon="6.07437">
        <ele>1064</ele>
        <time>2021-12-23T08:18:17Z</time>
      </trkpt>
      <trkpt lat="45.28214" lon="6.07438">
        <ele>1064</ele>
        <time>2021-12-23T08:18:18Z</time>
      </trkpt>
      <trkpt lat="45.28213" lon="6.07438">
        <ele>1064</ele>
        <time>2021-12-23T08:18:19Z</time>
      </trkpt>
      <trkpt lat="45.28213" lon="6.07439">
        <ele>1064</ele>
        <time>2021-12-23T08:18:20Z</time>
      </trkpt>
      <trkpt lat="45.28213" lon="6.07439">
        <ele>1064</ele>
        <time>2021-12-23T08:18:21Z</time>
      </trkpt>
      <trkpt lat="45.28213" lon="6.07439">
        <ele>1064</ele>
        <time>2021-12-23T08:18:22Z</time>
      </trkpt>
      <trkpt lat="45.28209" lon="6.07442">
        <ele>1064</ele>
        <time>2021-12-23T08:18:23Z</time>
      </trkpt>
      <trkpt lat="45.28209" lon="6.07442">
        <ele>1064</ele>
        <time>2021-12-23T08:18:24Z</time>
      </trkpt>
      <trkpt lat="45.28209" lon="6.07442">
        <ele>1064</ele>
        <time>2021-12-23T08:18:25Z</time>
      </trkpt>
      <trkpt lat="45.28207" lon="6.07446">
        <ele>1064</ele>
        <time>2021-12-23T08:18:26Z</time>
      </trkpt>
      <trkpt lat="45.28206" lon="6.07447">
        <ele>1064</ele>
        <time>2021-12-23T08:18:27Z</time>
      </trkpt>
      <trkpt lat="45.28206" lon="6.07448">
        <ele>1064</ele>
        <time>2021-12-23T08:18:28Z</time>
      </trkpt>
      <trkpt lat="45.28206" lon="6.07449">
        <ele>1064</ele>
        <time>2021-12-23T08:18:29Z</time>
      </trkpt>
      <trkpt lat="45.28206" lon="6.0745">
        <ele>1064</ele>
        <time>2021-12-23T08:18:30Z</time>
      </trkpt>
      <trkpt lat="45.28206" lon="6.07452">
        <ele>1064</ele>
        <time>2021-12-23T08:18:31Z</time>
      </trkpt>
      <trkpt lat="45.28206" lon="6.07452">
        <ele>1064</ele>
        <time>2021-12-23T08:18:32Z</time>
      </trkpt>
      <trkpt lat="45.28205" lon="6.07457">
        <ele>1064</ele>
        <time>2021-12-23T08:18:33Z</time>
      </trkpt>
      <trkpt lat="45.28204" lon="6.07458">
        <ele>1064</ele>
        <time>2021-12-23T08:18:34Z</time>
      </trkpt>
      <trkpt lat="45.28204" lon="6.07459">
        <ele>1064</ele>
        <time>2021-12-23T08:18:35Z</time>
      </trkpt>
      <trkpt lat="45.28203" lon="6.07461">
        <ele>1064</ele>
        <time>2021-12-23T08:18:36Z</time>
      </trkpt>
      <trkpt lat="45.28203" lon="6.07462">
        <ele>1064</ele>
        <time>2021-12-23T08:18:37Z</time>
      </trkpt>
      <trkpt lat="45.28202" lon="6.07464">
        <ele>1064</ele>
        <time>2021-12-23T08:18:38Z</time>
      </trkpt>
      <trkpt lat="45.28202" lon="6.07465">
        <ele>1064</ele>
        <time>2021-12-23T08:18:39Z</time>
      </trkpt>
      <trkpt lat="45.28202" lon="6.07467">
        <ele>1064</ele>
        <time>2021-12-23T08:18:40Z</time>
      </trkpt>
      <trkpt lat="45.28201" lon="6.07468">
        <ele>1064</ele>
        <time>2021-12-23T08:18:41Z</time>
      </trkpt>
      <trkpt lat="45.28201" lon="6.0747">
        <ele>1064</ele>
        <time>2021-12-23T08:18:42Z</time>
      </trkpt>
      <trkpt lat="45.28201" lon="6.07472">
        <ele>1064</ele>
        <time>2021-12-23T08:18:43Z</time>
      </trkpt>
      <trkpt lat="45.282" lon="6.07474">
        <ele>1064</ele>
        <time>2021-12-23T08:18:44Z</time>
      </trkpt>
      <trkpt lat="45.282" lon="6.07474">
        <ele>1064</ele>
        <time>2021-12-23T08:18:45Z</time>
      </trkpt>
      <trkpt lat="45.282" lon="6.07474">
        <ele>1064</ele>
        <time>2021-12-23T08:18:46Z</time>
      </trkpt>
      <trkpt lat="45.282" lon="6.07474">
        <ele>1064</ele>
        <time>2021-12-23T08:18:47Z</time>
      </trkpt>
      <trkpt lat="45.28199" lon="6.07479">
        <ele>1064</ele>
        <time>2021-12-23T08:18:48Z</time>
      </trkpt>
      <trkpt lat="45.28198" lon="6.07481">
        <ele>1064</ele>
        <time>2021-12-23T08:18:50Z</time>
      </trkpt>
      <trkpt lat="45.28198" lon="6.07483">
        <ele>1064</ele>
        <time>2021-12-23T08:18:51Z</time>
      </trkpt>
      <trkpt lat="45.28197" lon="6.07484">
        <ele>1064</ele>
        <time>2021-12-23T08:18:52Z</time>
      </trkpt>
      <trkpt lat="45.28197" lon="6.07484">
        <ele>1064</ele>
        <time>2021-12-23T08:18:53Z</time>
      </trkpt>
      <trkpt lat="45.28197" lon="6.07484">
        <ele>1064</ele>
        <time>2021-12-23T08:18:54Z</time>
      </trkpt>
      <trkpt lat="45.28195" lon="6.0749">
        <ele>1064</ele>
        <time>2021-12-23T08:18:55Z</time>
      </trkpt>
      <trkpt lat="45.28195" lon="6.0749">
        <ele>1064</ele>
        <time>2021-12-23T08:18:57Z</time>
      </trkpt>
      <trkpt lat="45.28195" lon="6.07492">
        <ele>1064</ele>
        <time>2021-12-23T08:18:58Z</time>
      </trkpt>
      <trkpt lat="45.28194" lon="6.07493">
        <ele>1064</ele>
        <time>2021-12-23T08:18:59Z</time>
      </trkpt>
      <trkpt lat="45.28194" lon="6.07495">
        <ele>1064</ele>
        <time>2021-12-23T08:19:00Z</time>
      </trkpt>
      <trkpt lat="45.28194" lon="6.07495">
        <ele>1065</ele>
        <time>2021-12-23T08:19:01Z</time>
      </trkpt>
      <trkpt lat="45.28192" lon="6.075">
        <ele>1065</ele>
        <time>2021-12-23T08:19:02Z</time>
      </trkpt>
      <trkpt lat="45.28192" lon="6.075">
        <ele>1065</ele>
        <time>2021-12-23T08:19:03Z</time>
      </trkpt>
      <trkpt lat="45.28192" lon="6.07501">
        <ele>1065</ele>
        <time>2021-12-23T08:19:04Z</time>
      </trkpt>
      <trkpt lat="45.28191" lon="6.07503">
        <ele>1065</ele>
        <time>2021-12-23T08:19:05Z</time>
      </trkpt>
      <trkpt lat="45.2819" lon="6.07505">
        <ele>1065</ele>
        <time>2021-12-23T08:19:06Z</time>
      </trkpt>
      <trkpt lat="45.2819" lon="6.07506">
        <ele>1065</ele>
        <time>2021-12-23T08:19:07Z</time>
      </trkpt>
      <trkpt lat="45.28188" lon="6.07511">
        <ele>1065</ele>
        <time>2021-12-23T08:19:09Z</time>
      </trkpt>
      <trkpt lat="45.28187" lon="6.07513">
        <ele>1066</ele>
        <time>2021-12-23T08:19:10Z</time>
      </trkpt>
      <trkpt lat="45.28187" lon="6.07514">
        <ele>1066</ele>
        <time>2021-12-23T08:19:11Z</time>
      </trkpt>
      <trkpt lat="45.28186" lon="6.07515">
        <ele>1066</ele>
        <time>2021-12-23T08:19:12Z</time>
      </trkpt>
      <trkpt lat="45.28185" lon="6.07517">
        <ele>1066</ele>
        <time>2021-12-23T08:19:13Z</time>
      </trkpt>
      <trkpt lat="45.28185" lon="6.07519">
        <ele>1066</ele>
        <time>2021-12-23T08:19:14Z</time>
      </trkpt>
      <trkpt lat="45.28184" lon="6.0752">
        <ele>1066</ele>
        <time>2021-12-23T08:19:15Z</time>
      </trkpt>
      <trkpt lat="45.28183" lon="6.07522">
        <ele>1067</ele>
        <time>2021-12-23T08:19:16Z</time>
      </trkpt>
      <trkpt lat="45.28183" lon="6.07523">
        <ele>1067</ele>
        <time>2021-12-23T08:19:17Z</time>
      </trkpt>
      <trkpt lat="45.28182" lon="6.07524">
        <ele>1067</ele>
        <time>2021-12-23T08:19:18Z</time>
      </trkpt>
      <trkpt lat="45.28182" lon="6.07526">
        <ele>1067</ele>
        <time>2021-12-23T08:19:19Z</time>
      </trkpt>
      <trkpt lat="45.28181" lon="6.07527">
        <ele>1067</ele>
        <time>2021-12-23T08:19:20Z</time>
      </trkpt>
      <trkpt lat="45.28181" lon="6.07527">
        <ele>1067</ele>
        <time>2021-12-23T08:19:21Z</time>
      </trkpt>
      <trkpt lat="45.28181" lon="6.07527">
        <ele>1067</ele>
        <time>2021-12-23T08:19:22Z</time>
      </trkpt>
      <trkpt lat="45.2818" lon="6.07532">
        <ele>1067</ele>
        <time>2021-12-23T08:19:23Z</time>
      </trkpt>
      <trkpt lat="45.2818" lon="6.07532">
        <ele>1067</ele>
        <time>2021-12-23T08:19:24Z</time>
      </trkpt>
      <trkpt lat="45.2818" lon="6.07532">
        <ele>1067</ele>
        <time>2021-12-23T08:19:25Z</time>
      </trkpt>
      <trkpt lat="45.28178" lon="6.07537">
        <ele>1067</ele>
        <time>2021-12-23T08:19:26Z</time>
      </trkpt>
      <trkpt lat="45.28178" lon="6.07538">
        <ele>1068</ele>
        <time>2021-12-23T08:19:28Z</time>
      </trkpt>
      <trkpt lat="45.28177" lon="6.07539">
        <ele>1068</ele>
        <time>2021-12-23T08:19:29Z</time>
      </trkpt>
      <trkpt lat="45.28177" lon="6.07541">
        <ele>1068</ele>
        <time>2021-12-23T08:19:30Z</time>
      </trkpt>
      <trkpt lat="45.28176" lon="6.07542">
        <ele>1068</ele>
        <time>2021-12-23T08:19:31Z</time>
      </trkpt>
      <trkpt lat="45.28176" lon="6.07542">
        <ele>1068</ele>
        <time>2021-12-23T08:19:32Z</time>
      </trkpt>
      <trkpt lat="45.28176" lon="6.07542">
        <ele>1068</ele>
        <time>2021-12-23T08:19:33Z</time>
      </trkpt>
      <trkpt lat="45.28176" lon="6.07542">
        <ele>1068</ele>
        <time>2021-12-23T08:19:34Z</time>
      </trkpt>
      <trkpt lat="45.28176" lon="6.07542">
        <ele>1068</ele>
        <time>2021-12-23T08:19:35Z</time>
      </trkpt>
      <trkpt lat="45.28175" lon="6.07547">
        <ele>1068</ele>
        <time>2021-12-23T08:19:36Z</time>
      </trkpt>
      <trkpt lat="45.28175" lon="6.07547">
        <ele>1068</ele>
        <time>2021-12-23T08:19:37Z</time>
      </trkpt>
      <trkpt lat="45.28175" lon="6.07547">
        <ele>1068</ele>
        <time>2021-12-23T08:19:38Z</time>
      </trkpt>
      <trkpt lat="45.28175" lon="6.07547">
        <ele>1068</ele>
        <time>2021-12-23T08:19:39Z</time>
      </trkpt>
      <trkpt lat="45.28173" lon="6.07554">
        <ele>1068</ele>
        <time>2021-12-23T08:19:40Z</time>
      </trkpt>
      <trkpt lat="45.28173" lon="6.07554">
        <ele>1068</ele>
        <time>2021-12-23T08:19:42Z</time>
      </trkpt>
      <trkpt lat="45.28172" lon="6.07558">
        <ele>1068</ele>
        <time>2021-12-23T08:19:43Z</time>
      </trkpt>
      <trkpt lat="45.28171" lon="6.07559">
        <ele>1068</ele>
        <time>2021-12-23T08:19:44Z</time>
      </trkpt>
      <trkpt lat="45.28171" lon="6.0756">
        <ele>1068</ele>
        <time>2021-12-23T08:19:45Z</time>
      </trkpt>
      <trkpt lat="45.2817" lon="6.07561">
        <ele>1069</ele>
        <time>2021-12-23T08:19:47Z</time>
      </trkpt>
      <trkpt lat="45.2817" lon="6.07562">
        <ele>1069</ele>
        <time>2021-12-23T08:19:48Z</time>
      </trkpt>
      <trkpt lat="45.2817" lon="6.07562">
        <ele>1069</ele>
        <time>2021-12-23T08:19:49Z</time>
      </trkpt>
      <trkpt lat="45.28167" lon="6.07567">
        <ele>1069</ele>
        <time>2021-12-23T08:19:50Z</time>
      </trkpt>
      <trkpt lat="45.28167" lon="6.07567">
        <ele>1069</ele>
        <time>2021-12-23T08:19:51Z</time>
      </trkpt>
      <trkpt lat="45.28167" lon="6.07568">
        <ele>1069</ele>
        <time>2021-12-23T08:19:52Z</time>
      </trkpt>
      <trkpt lat="45.28166" lon="6.0757">
        <ele>1069</ele>
        <time>2021-12-23T08:19:53Z</time>
      </trkpt>
      <trkpt lat="45.28166" lon="6.07571">
        <ele>1069</ele>
        <time>2021-12-23T08:19:54Z</time>
      </trkpt>
      <trkpt lat="45.28165" lon="6.07572">
        <ele>1069</ele>
        <time>2021-12-23T08:19:55Z</time>
      </trkpt>
      <trkpt lat="45.28165" lon="6.07572">
        <ele>1069</ele>
        <time>2021-12-23T08:19:56Z</time>
      </trkpt>
      <trkpt lat="45.28165" lon="6.07572">
        <ele>1069</ele>
        <time>2021-12-23T08:19:57Z</time>
      </trkpt>
      <trkpt lat="45.28164" lon="6.07577">
        <ele>1069</ele>
        <time>2021-12-23T08:19:58Z</time>
      </trkpt>
      <trkpt lat="45.28164" lon="6.07577">
        <ele>1070</ele>
        <time>2021-12-23T08:19:59Z</time>
      </trkpt>
      <trkpt lat="45.28164" lon="6.07577">
        <ele>1070</ele>
        <time>2021-12-23T08:20:00Z</time>
      </trkpt>
      <trkpt lat="45.28162" lon="6.07582">
        <ele>1070</ele>
        <time>2021-12-23T08:20:01Z</time>
      </trkpt>
      <trkpt lat="45.28162" lon="6.07582">
        <ele>1070</ele>
        <time>2021-12-23T08:20:02Z</time>
      </trkpt>
      <trkpt lat="45.28162" lon="6.07582">
        <ele>1070</ele>
        <time>2021-12-23T08:20:03Z</time>
      </trkpt>
      <trkpt lat="45.2816" lon="6.07587">
        <ele>1070</ele>
        <time>2021-12-23T08:20:04Z</time>
      </trkpt>
      <trkpt lat="45.2816" lon="6.07587">
        <ele>1070</ele>
        <time>2021-12-23T08:20:06Z</time>
      </trkpt>
      <trkpt lat="45.28158" lon="6.07592">
        <ele>1070</ele>
        <time>2021-12-23T08:20:07Z</time>
      </trkpt>
      <trkpt lat="45.28158" lon="6.07592">
        <ele>1070</ele>
        <time>2021-12-23T08:20:08Z</time>
      </trkpt>
      <trkpt lat="45.28158" lon="6.07593">
        <ele>1070</ele>
        <time>2021-12-23T08:20:09Z</time>
      </trkpt>
      <trkpt lat="45.28157" lon="6.07594">
        <ele>1070</ele>
        <time>2021-12-23T08:20:10Z</time>
      </trkpt>
      <trkpt lat="45.28157" lon="6.07596">
        <ele>1071</ele>
        <time>2021-12-23T08:20:11Z</time>
      </trkpt>
      <trkpt lat="45.28157" lon="6.07597">
        <ele>1071</ele>
        <time>2021-12-23T08:20:12Z</time>
      </trkpt>
      <trkpt lat="45.28157" lon="6.07597">
        <ele>1071</ele>
        <time>2021-12-23T08:20:13Z</time>
      </trkpt>
      <trkpt lat="45.28157" lon="6.07597">
        <ele>1071</ele>
        <time>2021-12-23T08:20:14Z</time>
      </trkpt>
      <trkpt lat="45.28155" lon="6.07603">
        <ele>1071</ele>
        <time>2021-12-23T08:20:15Z</time>
      </trkpt>
      <trkpt lat="45.28155" lon="6.07603">
        <ele>1071</ele>
        <time>2021-12-23T08:20:16Z</time>
      </trkpt>
      <trkpt lat="45.28155" lon="6.07604">
        <ele>1071</ele>
        <time>2021-12-23T08:20:17Z</time>
      </trkpt>
      <trkpt lat="45.28155" lon="6.07605">
        <ele>1071</ele>
        <time>2021-12-23T08:20:18Z</time>
      </trkpt>
      <trkpt lat="45.28154" lon="6.07606">
        <ele>1071</ele>
        <time>2021-12-23T08:20:19Z</time>
      </trkpt>
      <trkpt lat="45.28154" lon="6.07608">
        <ele>1071</ele>
        <time>2021-12-23T08:20:20Z</time>
      </trkpt>
      <trkpt lat="45.28153" lon="6.07609">
        <ele>1072</ele>
        <time>2021-12-23T08:20:21Z</time>
      </trkpt>
      <trkpt lat="45.28153" lon="6.07611">
        <ele>1072</ele>
        <time>2021-12-23T08:20:22Z</time>
      </trkpt>
      <trkpt lat="45.28152" lon="6.07612">
        <ele>1072</ele>
        <time>2021-12-23T08:20:23Z</time>
      </trkpt>
      <trkpt lat="45.28152" lon="6.07613">
        <ele>1072</ele>
        <time>2021-12-23T08:20:25Z</time>
      </trkpt>
      <trkpt lat="45.28152" lon="6.07615">
        <ele>1072</ele>
        <time>2021-12-23T08:20:26Z</time>
      </trkpt>
      <trkpt lat="45.28151" lon="6.07616">
        <ele>1072</ele>
        <time>2021-12-23T08:20:27Z</time>
      </trkpt>
      <trkpt lat="45.28151" lon="6.07618">
        <ele>1072</ele>
        <time>2021-12-23T08:20:28Z</time>
      </trkpt>
      <trkpt lat="45.2815" lon="6.07619">
        <ele>1072</ele>
        <time>2021-12-23T08:20:29Z</time>
      </trkpt>
      <trkpt lat="45.2815" lon="6.0762">
        <ele>1072</ele>
        <time>2021-12-23T08:20:30Z</time>
      </trkpt>
      <trkpt lat="45.28149" lon="6.07622">
        <ele>1072</ele>
        <time>2021-12-23T08:20:31Z</time>
      </trkpt>
      <trkpt lat="45.28149" lon="6.07624">
        <ele>1072</ele>
        <time>2021-12-23T08:20:32Z</time>
      </trkpt>
      <trkpt lat="45.28149" lon="6.07626">
        <ele>1072</ele>
        <time>2021-12-23T08:20:33Z</time>
      </trkpt>
      <trkpt lat="45.28148" lon="6.07628">
        <ele>1072</ele>
        <time>2021-12-23T08:20:34Z</time>
      </trkpt>
      <trkpt lat="45.28148" lon="6.07629">
        <ele>1072</ele>
        <time>2021-12-23T08:20:35Z</time>
      </trkpt>
      <trkpt lat="45.28147" lon="6.07631">
        <ele>1073</ele>
        <time>2021-12-23T08:20:36Z</time>
      </trkpt>
      <trkpt lat="45.28147" lon="6.07633">
        <ele>1073</ele>
        <time>2021-12-23T08:20:37Z</time>
      </trkpt>
      <trkpt lat="45.28146" lon="6.07634">
        <ele>1073</ele>
        <time>2021-12-23T08:20:38Z</time>
      </trkpt>
      <trkpt lat="45.28146" lon="6.07635">
        <ele>1073</ele>
        <time>2021-12-23T08:20:39Z</time>
      </trkpt>
      <trkpt lat="45.28146" lon="6.07636">
        <ele>1073</ele>
        <time>2021-12-23T08:20:40Z</time>
      </trkpt>
      <trkpt lat="45.28145" lon="6.07637">
        <ele>1073</ele>
        <time>2021-12-23T08:20:41Z</time>
      </trkpt>
      <trkpt lat="45.28145" lon="6.07638">
        <ele>1073</ele>
        <time>2021-12-23T08:20:42Z</time>
      </trkpt>
      <trkpt lat="45.28144" lon="6.07639">
        <ele>1073</ele>
        <time>2021-12-23T08:20:44Z</time>
      </trkpt>
      <trkpt lat="45.28144" lon="6.0764">
        <ele>1073</ele>
        <time>2021-12-23T08:20:45Z</time>
      </trkpt>
      <trkpt lat="45.2814" lon="6.07648">
        <ele>1073</ele>
        <time>2021-12-23T08:20:46Z</time>
      </trkpt>
      <trkpt lat="45.2814" lon="6.07649">
        <ele>1074</ele>
        <time>2021-12-23T08:20:47Z</time>
      </trkpt>
      <trkpt lat="45.28139" lon="6.07651">
        <ele>1074</ele>
        <time>2021-12-23T08:20:48Z</time>
      </trkpt>
      <trkpt lat="45.28139" lon="6.07652">
        <ele>1075</ele>
        <time>2021-12-23T08:20:49Z</time>
      </trkpt>
      <trkpt lat="45.28139" lon="6.07653">
        <ele>1075</ele>
        <time>2021-12-23T08:20:50Z</time>
      </trkpt>
      <trkpt lat="45.28138" lon="6.07655">
        <ele>1075</ele>
        <time>2021-12-23T08:20:51Z</time>
      </trkpt>
      <trkpt lat="45.28138" lon="6.07656">
        <ele>1075</ele>
        <time>2021-12-23T08:20:52Z</time>
      </trkpt>
      <trkpt lat="45.28138" lon="6.07657">
        <ele>1075</ele>
        <time>2021-12-23T08:20:53Z</time>
      </trkpt>
      <trkpt lat="45.28137" lon="6.07659">
        <ele>1075</ele>
        <time>2021-12-23T08:20:54Z</time>
      </trkpt>
      <trkpt lat="45.28137" lon="6.0766">
        <ele>1075</ele>
        <time>2021-12-23T08:20:55Z</time>
      </trkpt>
      <trkpt lat="45.28136" lon="6.07662">
        <ele>1075</ele>
        <time>2021-12-23T08:20:56Z</time>
      </trkpt>
      <trkpt lat="45.28135" lon="6.07665">
        <ele>1075</ele>
        <time>2021-12-23T08:20:57Z</time>
      </trkpt>
      <trkpt lat="45.28134" lon="6.07667">
        <ele>1074</ele>
        <time>2021-12-23T08:20:58Z</time>
      </trkpt>
      <trkpt lat="45.28133" lon="6.07669">
        <ele>1074</ele>
        <time>2021-12-23T08:20:59Z</time>
      </trkpt>
      <trkpt lat="45.28132" lon="6.07671">
        <ele>1074</ele>
        <time>2021-12-23T08:21:00Z</time>
      </trkpt>
      <trkpt lat="45.28131" lon="6.07673">
        <ele>1074</ele>
        <time>2021-12-23T08:21:01Z</time>
      </trkpt>
      <trkpt lat="45.28131" lon="6.07674">
        <ele>1074</ele>
        <time>2021-12-23T08:21:03Z</time>
      </trkpt>
      <trkpt lat="45.2813" lon="6.07675">
        <ele>1075</ele>
        <time>2021-12-23T08:21:04Z</time>
      </trkpt>
      <trkpt lat="45.2813" lon="6.07676">
        <ele>1075</ele>
        <time>2021-12-23T08:21:05Z</time>
      </trkpt>
      <trkpt lat="45.28129" lon="6.07677">
        <ele>1075</ele>
        <time>2021-12-23T08:21:06Z</time>
      </trkpt>
      <trkpt lat="45.28129" lon="6.07678">
        <ele>1076</ele>
        <time>2021-12-23T08:21:07Z</time>
      </trkpt>
      <trkpt lat="45.28128" lon="6.07679">
        <ele>1076</ele>
        <time>2021-12-23T08:21:08Z</time>
      </trkpt>
      <trkpt lat="45.28128" lon="6.0768">
        <ele>1076</ele>
        <time>2021-12-23T08:21:09Z</time>
      </trkpt>
      <trkpt lat="45.28127" lon="6.07682">
        <ele>1076</ele>
        <time>2021-12-23T08:21:10Z</time>
      </trkpt>
      <trkpt lat="45.28127" lon="6.07683">
        <ele>1076</ele>
        <time>2021-12-23T08:21:11Z</time>
      </trkpt>
      <trkpt lat="45.28127" lon="6.07684">
        <ele>1076</ele>
        <time>2021-12-23T08:21:12Z</time>
      </trkpt>
      <trkpt lat="45.28126" lon="6.07685">
        <ele>1076</ele>
        <time>2021-12-23T08:21:13Z</time>
      </trkpt>
      <trkpt lat="45.28125" lon="6.07687">
        <ele>1077</ele>
        <time>2021-12-23T08:21:14Z</time>
      </trkpt>
      <trkpt lat="45.28125" lon="6.07688">
        <ele>1077</ele>
        <time>2021-12-23T08:21:15Z</time>
      </trkpt>
      <trkpt lat="45.28124" lon="6.0769">
        <ele>1077</ele>
        <time>2021-12-23T08:21:16Z</time>
      </trkpt>
      <trkpt lat="45.28123" lon="6.07691">
        <ele>1077</ele>
        <time>2021-12-23T08:21:17Z</time>
      </trkpt>
      <trkpt lat="45.28123" lon="6.07693">
        <ele>1077</ele>
        <time>2021-12-23T08:21:18Z</time>
      </trkpt>
      <trkpt lat="45.28122" lon="6.07694">
        <ele>1077</ele>
        <time>2021-12-23T08:21:19Z</time>
      </trkpt>
      <trkpt lat="45.28121" lon="6.07696">
        <ele>1077</ele>
        <time>2021-12-23T08:21:20Z</time>
      </trkpt>
      <trkpt lat="45.28121" lon="6.07697">
        <ele>1077</ele>
        <time>2021-12-23T08:21:22Z</time>
      </trkpt>
      <trkpt lat="45.2812" lon="6.07699">
        <ele>1077</ele>
        <time>2021-12-23T08:21:23Z</time>
      </trkpt>
      <trkpt lat="45.2812" lon="6.077">
        <ele>1077</ele>
        <time>2021-12-23T08:21:24Z</time>
      </trkpt>
      <trkpt lat="45.28119" lon="6.07702">
        <ele>1077</ele>
        <time>2021-12-23T08:21:25Z</time>
      </trkpt>
      <trkpt lat="45.28119" lon="6.07703">
        <ele>1078</ele>
        <time>2021-12-23T08:21:26Z</time>
      </trkpt>
      <trkpt lat="45.28118" lon="6.07705">
        <ele>1078</ele>
        <time>2021-12-23T08:21:27Z</time>
      </trkpt>
      <trkpt lat="45.28118" lon="6.07706">
        <ele>1078</ele>
        <time>2021-12-23T08:21:28Z</time>
      </trkpt>
      <trkpt lat="45.28117" lon="6.07708">
        <ele>1078</ele>
        <time>2021-12-23T08:21:29Z</time>
      </trkpt>
      <trkpt lat="45.28117" lon="6.07709">
        <ele>1079</ele>
        <time>2021-12-23T08:21:30Z</time>
      </trkpt>
      <trkpt lat="45.28116" lon="6.07711">
        <ele>1079</ele>
        <time>2021-12-23T08:21:31Z</time>
      </trkpt>
      <trkpt lat="45.28116" lon="6.07712">
        <ele>1079</ele>
        <time>2021-12-23T08:21:32Z</time>
      </trkpt>
      <trkpt lat="45.28116" lon="6.07714">
        <ele>1079</ele>
        <time>2021-12-23T08:21:33Z</time>
      </trkpt>
      <trkpt lat="45.28115" lon="6.07715">
        <ele>1079</ele>
        <time>2021-12-23T08:21:34Z</time>
      </trkpt>
      <trkpt lat="45.28115" lon="6.07716">
        <ele>1079</ele>
        <time>2021-12-23T08:21:35Z</time>
      </trkpt>
      <trkpt lat="45.28115" lon="6.07718">
        <ele>1079</ele>
        <time>2021-12-23T08:21:36Z</time>
      </trkpt>
      <trkpt lat="45.28114" lon="6.07719">
        <ele>1079</ele>
        <time>2021-12-23T08:21:37Z</time>
      </trkpt>
      <trkpt lat="45.28114" lon="6.07721">
        <ele>1080</ele>
        <time>2021-12-23T08:21:38Z</time>
      </trkpt>
      <trkpt lat="45.28113" lon="6.07723">
        <ele>1080</ele>
        <time>2021-12-23T08:21:39Z</time>
      </trkpt>
      <trkpt lat="45.28112" lon="6.07725">
        <ele>1080</ele>
        <time>2021-12-23T08:21:41Z</time>
      </trkpt>
      <trkpt lat="45.28111" lon="6.07727">
        <ele>1080</ele>
        <time>2021-12-23T08:21:42Z</time>
      </trkpt>
      <trkpt lat="45.2811" lon="6.07729">
        <ele>1080</ele>
        <time>2021-12-23T08:21:43Z</time>
      </trkpt>
      <trkpt lat="45.28109" lon="6.07731">
        <ele>1080</ele>
        <time>2021-12-23T08:21:44Z</time>
      </trkpt>
      <trkpt lat="45.28109" lon="6.07733">
        <ele>1080</ele>
        <time>2021-12-23T08:21:45Z</time>
      </trkpt>
      <trkpt lat="45.28108" lon="6.07734">
        <ele>1080</ele>
        <time>2021-12-23T08:21:46Z</time>
      </trkpt>
      <trkpt lat="45.28107" lon="6.07736">
        <ele>1080</ele>
        <time>2021-12-23T08:21:47Z</time>
      </trkpt>
      <trkpt lat="45.28106" lon="6.07737">
        <ele>1080</ele>
        <time>2021-12-23T08:21:48Z</time>
      </trkpt>
      <trkpt lat="45.28105" lon="6.07739">
        <ele>1080</ele>
        <time>2021-12-23T08:21:49Z</time>
      </trkpt>
      <trkpt lat="45.28104" lon="6.07741">
        <ele>1080</ele>
        <time>2021-12-23T08:21:50Z</time>
      </trkpt>
      <trkpt lat="45.28103" lon="6.07742">
        <ele>1080</ele>
        <time>2021-12-23T08:21:51Z</time>
      </trkpt>
      <trkpt lat="45.28102" lon="6.07744">
        <ele>1080</ele>
        <time>2021-12-23T08:21:52Z</time>
      </trkpt>
      <trkpt lat="45.28102" lon="6.07745">
        <ele>1080</ele>
        <time>2021-12-23T08:21:53Z</time>
      </trkpt>
      <trkpt lat="45.28101" lon="6.07746">
        <ele>1079</ele>
        <time>2021-12-23T08:21:54Z</time>
      </trkpt>
      <trkpt lat="45.281" lon="6.07747">
        <ele>1079</ele>
        <time>2021-12-23T08:21:55Z</time>
      </trkpt>
      <trkpt lat="45.281" lon="6.07749">
        <ele>1079</ele>
        <time>2021-12-23T08:21:56Z</time>
      </trkpt>
      <trkpt lat="45.28099" lon="6.0775">
        <ele>1080</ele>
        <time>2021-12-23T08:21:57Z</time>
      </trkpt>
      <trkpt lat="45.28098" lon="6.07751">
        <ele>1080</ele>
        <time>2021-12-23T08:21:58Z</time>
      </trkpt>
      <trkpt lat="45.28097" lon="6.07752">
        <ele>1080</ele>
        <time>2021-12-23T08:22:00Z</time>
      </trkpt>
      <trkpt lat="45.28097" lon="6.07753">
        <ele>1080</ele>
        <time>2021-12-23T08:22:01Z</time>
      </trkpt>
      <trkpt lat="45.28096" lon="6.07754">
        <ele>1080</ele>
        <time>2021-12-23T08:22:02Z</time>
      </trkpt>
      <trkpt lat="45.28095" lon="6.07756">
        <ele>1080</ele>
        <time>2021-12-23T08:22:03Z</time>
      </trkpt>
      <trkpt lat="45.28094" lon="6.07757">
        <ele>1080</ele>
        <time>2021-12-23T08:22:04Z</time>
      </trkpt>
      <trkpt lat="45.28094" lon="6.07759">
        <ele>1080</ele>
        <time>2021-12-23T08:22:05Z</time>
      </trkpt>
      <trkpt lat="45.28093" lon="6.0776">
        <ele>1080</ele>
        <time>2021-12-23T08:22:06Z</time>
      </trkpt>
      <trkpt lat="45.28092" lon="6.07762">
        <ele>1080</ele>
        <time>2021-12-23T08:22:07Z</time>
      </trkpt>
      <trkpt lat="45.28091" lon="6.07763">
        <ele>1081</ele>
        <time>2021-12-23T08:22:08Z</time>
      </trkpt>
      <trkpt lat="45.2809" lon="6.07765">
        <ele>1081</ele>
        <time>2021-12-23T08:22:09Z</time>
      </trkpt>
      <trkpt lat="45.28089" lon="6.07766">
        <ele>1081</ele>
        <time>2021-12-23T08:22:10Z</time>
      </trkpt>
      <trkpt lat="45.28089" lon="6.07768">
        <ele>1081</ele>
        <time>2021-12-23T08:22:11Z</time>
      </trkpt>
      <trkpt lat="45.28088" lon="6.07769">
        <ele>1081</ele>
        <time>2021-12-23T08:22:12Z</time>
      </trkpt>
      <trkpt lat="45.28087" lon="6.07771">
        <ele>1081</ele>
        <time>2021-12-23T08:22:13Z</time>
      </trkpt>
      <trkpt lat="45.28086" lon="6.07772">
        <ele>1081</ele>
        <time>2021-12-23T08:22:14Z</time>
      </trkpt>
      <trkpt lat="45.28086" lon="6.07773">
        <ele>1081</ele>
        <time>2021-12-23T08:22:15Z</time>
      </trkpt>
      <trkpt lat="45.28085" lon="6.07774">
        <ele>1081</ele>
        <time>2021-12-23T08:22:16Z</time>
      </trkpt>
      <trkpt lat="45.28085" lon="6.07775">
        <ele>1082</ele>
        <time>2021-12-23T08:22:17Z</time>
      </trkpt>
      <trkpt lat="45.28084" lon="6.07776">
        <ele>1082</ele>
        <time>2021-12-23T08:22:19Z</time>
      </trkpt>
      <trkpt lat="45.28084" lon="6.07777">
        <ele>1082</ele>
        <time>2021-12-23T08:22:20Z</time>
      </trkpt>
      <trkpt lat="45.28083" lon="6.07777">
        <ele>1082</ele>
        <time>2021-12-23T08:22:21Z</time>
      </trkpt>
      <trkpt lat="45.28083" lon="6.07778">
        <ele>1082</ele>
        <time>2021-12-23T08:22:22Z</time>
      </trkpt>
      <trkpt lat="45.28083" lon="6.07779">
        <ele>1082</ele>
        <time>2021-12-23T08:22:23Z</time>
      </trkpt>
      <trkpt lat="45.28082" lon="6.0778">
        <ele>1082</ele>
        <time>2021-12-23T08:22:24Z</time>
      </trkpt>
      <trkpt lat="45.28082" lon="6.07781">
        <ele>1083</ele>
        <time>2021-12-23T08:22:25Z</time>
      </trkpt>
      <trkpt lat="45.28081" lon="6.07782">
        <ele>1083</ele>
        <time>2021-12-23T08:22:26Z</time>
      </trkpt>
      <trkpt lat="45.2808" lon="6.07784">
        <ele>1083</ele>
        <time>2021-12-23T08:22:27Z</time>
      </trkpt>
      <trkpt lat="45.2808" lon="6.07785">
        <ele>1083</ele>
        <time>2021-12-23T08:22:28Z</time>
      </trkpt>
      <trkpt lat="45.28079" lon="6.07787">
        <ele>1083</ele>
        <time>2021-12-23T08:22:29Z</time>
      </trkpt>
      <trkpt lat="45.28078" lon="6.07788">
        <ele>1083</ele>
        <time>2021-12-23T08:22:30Z</time>
      </trkpt>
      <trkpt lat="45.28077" lon="6.0779">
        <ele>1083</ele>
        <time>2021-12-23T08:22:31Z</time>
      </trkpt>
      <trkpt lat="45.28076" lon="6.07792">
        <ele>1083</ele>
        <time>2021-12-23T08:22:32Z</time>
      </trkpt>
      <trkpt lat="45.28076" lon="6.07793">
        <ele>1084</ele>
        <time>2021-12-23T08:22:33Z</time>
      </trkpt>
      <trkpt lat="45.28075" lon="6.07795">
        <ele>1084</ele>
        <time>2021-12-23T08:22:34Z</time>
      </trkpt>
      <trkpt lat="45.28074" lon="6.07796">
        <ele>1084</ele>
        <time>2021-12-23T08:22:35Z</time>
      </trkpt>
      <trkpt lat="45.28073" lon="6.07798">
        <ele>1085</ele>
        <time>2021-12-23T08:22:36Z</time>
      </trkpt>
      <trkpt lat="45.28072" lon="6.078">
        <ele>1086</ele>
        <time>2021-12-23T08:22:38Z</time>
      </trkpt>
      <trkpt lat="45.28071" lon="6.07801">
        <ele>1086</ele>
        <time>2021-12-23T08:22:39Z</time>
      </trkpt>
      <trkpt lat="45.2807" lon="6.07803">
        <ele>1086</ele>
        <time>2021-12-23T08:22:40Z</time>
      </trkpt>
      <trkpt lat="45.28069" lon="6.07804">
        <ele>1086</ele>
        <time>2021-12-23T08:22:41Z</time>
      </trkpt>
      <trkpt lat="45.28068" lon="6.07804">
        <ele>1086</ele>
        <time>2021-12-23T08:22:42Z</time>
      </trkpt>
      <trkpt lat="45.28067" lon="6.07805">
        <ele>1086</ele>
        <time>2021-12-23T08:22:43Z</time>
      </trkpt>
      <trkpt lat="45.28066" lon="6.07805">
        <ele>1086</ele>
        <time>2021-12-23T08:22:44Z</time>
      </trkpt>
      <trkpt lat="45.28065" lon="6.07806">
        <ele>1086</ele>
        <time>2021-12-23T08:22:45Z</time>
      </trkpt>
      <trkpt lat="45.28064" lon="6.07806">
        <ele>1086</ele>
        <time>2021-12-23T08:22:46Z</time>
      </trkpt>
      <trkpt lat="45.28063" lon="6.07807">
        <ele>1087</ele>
        <time>2021-12-23T08:22:47Z</time>
      </trkpt>
      <trkpt lat="45.28062" lon="6.07807">
        <ele>1087</ele>
        <time>2021-12-23T08:22:48Z</time>
      </trkpt>
      <trkpt lat="45.28061" lon="6.07808">
        <ele>1087</ele>
        <time>2021-12-23T08:22:49Z</time>
      </trkpt>
      <trkpt lat="45.2806" lon="6.07808">
        <ele>1087</ele>
        <time>2021-12-23T08:22:50Z</time>
      </trkpt>
      <trkpt lat="45.28059" lon="6.07808">
        <ele>1087</ele>
        <time>2021-12-23T08:22:51Z</time>
      </trkpt>
      <trkpt lat="45.28058" lon="6.07808">
        <ele>1088</ele>
        <time>2021-12-23T08:22:52Z</time>
      </trkpt>
      <trkpt lat="45.28057" lon="6.07808">
        <ele>1088</ele>
        <time>2021-12-23T08:22:53Z</time>
      </trkpt>
      <trkpt lat="45.28056" lon="6.07808">
        <ele>1089</ele>
        <time>2021-12-23T08:22:54Z</time>
      </trkpt>
      <trkpt lat="45.28055" lon="6.07808">
        <ele>1089</ele>
        <time>2021-12-23T08:22:55Z</time>
      </trkpt>
      <trkpt lat="45.28053" lon="6.07808">
        <ele>1089</ele>
        <time>2021-12-23T08:22:56Z</time>
      </trkpt>
      <trkpt lat="45.28052" lon="6.07808">
        <ele>1089</ele>
        <time>2021-12-23T08:22:57Z</time>
      </trkpt>
      <trkpt lat="45.28051" lon="6.07809">
        <ele>1089</ele>
        <time>2021-12-23T08:22:58Z</time>
      </trkpt>
      <trkpt lat="45.28051" lon="6.0781">
        <ele>1089</ele>
        <time>2021-12-23T08:22:59Z</time>
      </trkpt>
      <trkpt lat="45.2805" lon="6.0781">
        <ele>1089</ele>
        <time>2021-12-23T08:23:01Z</time>
      </trkpt>
      <trkpt lat="45.28049" lon="6.07811">
        <ele>1089</ele>
        <time>2021-12-23T08:23:02Z</time>
      </trkpt>
      <trkpt lat="45.28048" lon="6.07812">
        <ele>1089</ele>
        <time>2021-12-23T08:23:03Z</time>
      </trkpt>
      <trkpt lat="45.28047" lon="6.07812">
        <ele>1089</ele>
        <time>2021-12-23T08:23:04Z</time>
      </trkpt>
      <trkpt lat="45.28047" lon="6.07813">
        <ele>1089</ele>
        <time>2021-12-23T08:23:05Z</time>
      </trkpt>
      <trkpt lat="45.28046" lon="6.07814">
        <ele>1090</ele>
        <time>2021-12-23T08:23:06Z</time>
      </trkpt>
      <trkpt lat="45.28045" lon="6.07814">
        <ele>1090</ele>
        <time>2021-12-23T08:23:07Z</time>
      </trkpt>
      <trkpt lat="45.28044" lon="6.07815">
        <ele>1090</ele>
        <time>2021-12-23T08:23:08Z</time>
      </trkpt>
      <trkpt lat="45.28043" lon="6.07815">
        <ele>1090</ele>
        <time>2021-12-23T08:23:09Z</time>
      </trkpt>
      <trkpt lat="45.28042" lon="6.07816">
        <ele>1091</ele>
        <time>2021-12-23T08:23:10Z</time>
      </trkpt>
      <trkpt lat="45.2804" lon="6.07816">
        <ele>1091</ele>
        <time>2021-12-23T08:23:11Z</time>
      </trkpt>
      <trkpt lat="45.28039" lon="6.07817">
        <ele>1091</ele>
        <time>2021-12-23T08:23:12Z</time>
      </trkpt>
      <trkpt lat="45.28038" lon="6.07817">
        <ele>1091</ele>
        <time>2021-12-23T08:23:14Z</time>
      </trkpt>
      <trkpt lat="45.28037" lon="6.07818">
        <ele>1091</ele>
        <time>2021-12-23T08:23:16Z</time>
      </trkpt>
      <trkpt lat="45.28035" lon="6.07818">
        <ele>1092</ele>
        <time>2021-12-23T08:23:17Z</time>
      </trkpt>
      <trkpt lat="45.28034" lon="6.07819">
        <ele>1092</ele>
        <time>2021-12-23T08:23:18Z</time>
      </trkpt>
      <trkpt lat="45.28033" lon="6.07819">
        <ele>1092</ele>
        <time>2021-12-23T08:23:19Z</time>
      </trkpt>
      <trkpt lat="45.28032" lon="6.0782">
        <ele>1092</ele>
        <time>2021-12-23T08:23:20Z</time>
      </trkpt>
      <trkpt lat="45.28031" lon="6.07821">
        <ele>1092</ele>
        <time>2021-12-23T08:23:21Z</time>
      </trkpt>
      <trkpt lat="45.2803" lon="6.07821">
        <ele>1092</ele>
        <time>2021-12-23T08:23:22Z</time>
      </trkpt>
      <trkpt lat="45.28029" lon="6.07822">
        <ele>1092</ele>
        <time>2021-12-23T08:23:23Z</time>
      </trkpt>
      <trkpt lat="45.28028" lon="6.07822">
        <ele>1092</ele>
        <time>2021-12-23T08:23:24Z</time>
      </trkpt>
      <trkpt lat="45.28027" lon="6.07823">
        <ele>1092</ele>
        <time>2021-12-23T08:23:25Z</time>
      </trkpt>
      <trkpt lat="45.28026" lon="6.07824">
        <ele>1092</ele>
        <time>2021-12-23T08:23:26Z</time>
      </trkpt>
      <trkpt lat="45.28026" lon="6.07824">
        <ele>1093</ele>
        <time>2021-12-23T08:23:27Z</time>
      </trkpt>
      <trkpt lat="45.28026" lon="6.07824">
        <ele>1093</ele>
        <time>2021-12-23T08:23:28Z</time>
      </trkpt>
      <trkpt lat="45.28026" lon="6.07824">
        <ele>1093</ele>
        <time>2021-12-23T08:23:29Z</time>
      </trkpt>
      <trkpt lat="45.28026" lon="6.07824">
        <ele>1093</ele>
        <time>2021-12-23T08:23:30Z</time>
      </trkpt>
      <trkpt lat="45.28026" lon="6.07824">
        <ele>1093</ele>
        <time>2021-12-23T08:23:31Z</time>
      </trkpt>
      <trkpt lat="45.28026" lon="6.07824">
        <ele>1093</ele>
        <time>2021-12-23T08:23:32Z</time>
      </trkpt>
      <trkpt lat="45.28026" lon="6.07824">
        <ele>1093</ele>
        <time>2021-12-23T08:23:33Z</time>
      </trkpt>
      <trkpt lat="45.28016" lon="6.07827">
        <ele>1093</ele>
        <time>2021-12-23T08:23:35Z</time>
      </trkpt>
      <trkpt lat="45.28015" lon="6.07828">
        <ele>1094</ele>
        <time>2021-12-23T08:23:36Z</time>
      </trkpt>
      <trkpt lat="45.28014" lon="6.07829">
        <ele>1094</ele>
        <time>2021-12-23T08:23:37Z</time>
      </trkpt>
      <trkpt lat="45.28013" lon="6.07829">
        <ele>1094</ele>
        <time>2021-12-23T08:23:38Z</time>
      </trkpt>
      <trkpt lat="45.28012" lon="6.0783">
        <ele>1094</ele>
        <time>2021-12-23T08:23:39Z</time>
      </trkpt>
      <trkpt lat="45.28011" lon="6.07831">
        <ele>1094</ele>
        <time>2021-12-23T08:23:40Z</time>
      </trkpt>
      <trkpt lat="45.2801" lon="6.07831">
        <ele>1094</ele>
        <time>2021-12-23T08:23:41Z</time>
      </trkpt>
      <trkpt lat="45.28009" lon="6.07832">
        <ele>1094</ele>
        <time>2021-12-23T08:23:42Z</time>
      </trkpt>
      <trkpt lat="45.28008" lon="6.07832">
        <ele>1094</ele>
        <time>2021-12-23T08:23:43Z</time>
      </trkpt>
      <trkpt lat="45.28007" lon="6.07833">
        <ele>1094</ele>
        <time>2021-12-23T08:23:44Z</time>
      </trkpt>
      <trkpt lat="45.28006" lon="6.07833">
        <ele>1094</ele>
        <time>2021-12-23T08:23:45Z</time>
      </trkpt>
      <trkpt lat="45.28006" lon="6.07833">
        <ele>1094</ele>
        <time>2021-12-23T08:23:46Z</time>
      </trkpt>
      <trkpt lat="45.28005" lon="6.07833">
        <ele>1095</ele>
        <time>2021-12-23T08:23:47Z</time>
      </trkpt>
      <trkpt lat="45.28004" lon="6.07834">
        <ele>1095</ele>
        <time>2021-12-23T08:23:48Z</time>
      </trkpt>
      <trkpt lat="45.28003" lon="6.07834">
        <ele>1095</ele>
        <time>2021-12-23T08:23:49Z</time>
      </trkpt>
      <trkpt lat="45.28003" lon="6.07834">
        <ele>1095</ele>
        <time>2021-12-23T08:23:50Z</time>
      </trkpt>
      <trkpt lat="45.28002" lon="6.07834">
        <ele>1095</ele>
        <time>2021-12-23T08:23:51Z</time>
      </trkpt>
      <trkpt lat="45.28001" lon="6.07834">
        <ele>1096</ele>
        <time>2021-12-23T08:23:52Z</time>
      </trkpt>
      <trkpt lat="45.28" lon="6.07834">
        <ele>1096</ele>
        <time>2021-12-23T08:23:54Z</time>
      </trkpt>
      <trkpt lat="45.28" lon="6.07834">
        <ele>1096</ele>
        <time>2021-12-23T08:23:55Z</time>
      </trkpt>
      <trkpt lat="45.27999" lon="6.07834">
        <ele>1097</ele>
        <time>2021-12-23T08:23:57Z</time>
      </trkpt>
      <trkpt lat="45.27998" lon="6.07834">
        <ele>1097</ele>
        <time>2021-12-23T08:23:58Z</time>
      </trkpt>
      <trkpt lat="45.27998" lon="6.07834">
        <ele>1097</ele>
        <time>2021-12-23T08:23:59Z</time>
      </trkpt>
      <trkpt lat="45.27998" lon="6.07835">
        <ele>1097</ele>
        <time>2021-12-23T08:24:00Z</time>
      </trkpt>
      <trkpt lat="45.27998" lon="6.07835">
        <ele>1098</ele>
        <time>2021-12-23T08:24:01Z</time>
      </trkpt>
      <trkpt lat="45.27998" lon="6.07835">
        <ele>1098</ele>
        <time>2021-12-23T08:24:02Z</time>
      </trkpt>
      <trkpt lat="45.27998" lon="6.07835">
        <ele>1098</ele>
        <time>2021-12-23T08:24:03Z</time>
      </trkpt>
      <trkpt lat="45.27998" lon="6.07835">
        <ele>1098</ele>
        <time>2021-12-23T08:24:04Z</time>
      </trkpt>
      <trkpt lat="45.27997" lon="6.07835">
        <ele>1098</ele>
        <time>2021-12-23T08:24:05Z</time>
      </trkpt>
      <trkpt lat="45.27997" lon="6.07836">
        <ele>1098</ele>
        <time>2021-12-23T08:24:06Z</time>
      </trkpt>
      <trkpt lat="45.27997" lon="6.07836">
        <ele>1098</ele>
        <time>2021-12-23T08:24:07Z</time>
      </trkpt>
      <trkpt lat="45.27997" lon="6.07836">
        <ele>1098</ele>
        <time>2021-12-23T08:24:08Z</time>
      </trkpt>
      <trkpt lat="45.27997" lon="6.07836">
        <ele>1098</ele>
        <time>2021-12-23T08:24:09Z</time>
      </trkpt>
      <trkpt lat="45.27997" lon="6.07836">
        <ele>1099</ele>
        <time>2021-12-23T08:24:10Z</time>
      </trkpt>
      <trkpt lat="45.27997" lon="6.07837">
        <ele>1099</ele>
        <time>2021-12-23T08:24:11Z</time>
      </trkpt>
      <trkpt lat="45.27997" lon="6.07837">
        <ele>1098</ele>
        <time>2021-12-23T08:24:13Z</time>
      </trkpt>
      <trkpt lat="45.27997" lon="6.07837">
        <ele>1098</ele>
        <time>2021-12-23T08:24:14Z</time>
      </trkpt>
      <trkpt lat="45.27997" lon="6.07837">
        <ele>1098</ele>
        <time>2021-12-23T08:24:15Z</time>
      </trkpt>
      <trkpt lat="45.27996" lon="6.07837">
        <ele>1098</ele>
        <time>2021-12-23T08:24:16Z</time>
      </trkpt>
      <trkpt lat="45.27996" lon="6.07837">
        <ele>1097</ele>
        <time>2021-12-23T08:24:17Z</time>
      </trkpt>
      <trkpt lat="45.27996" lon="6.07838">
        <ele>1097</ele>
        <time>2021-12-23T08:24:18Z</time>
      </trkpt>
      <trkpt lat="45.27996" lon="6.07838">
        <ele>1097</ele>
        <time>2021-12-23T08:24:19Z</time>
      </trkpt>
      <trkpt lat="45.27996" lon="6.07838">
        <ele>1097</ele>
        <time>2021-12-23T08:24:20Z</time>
      </trkpt>
      <trkpt lat="45.27996" lon="6.07838">
        <ele>1097</ele>
        <time>2021-12-23T08:24:21Z</time>
      </trkpt>
      <trkpt lat="45.27996" lon="6.07838">
        <ele>1097</ele>
        <time>2021-12-23T08:24:22Z</time>
      </trkpt>
      <trkpt lat="45.27996" lon="6.07838">
        <ele>1098</ele>
        <time>2021-12-23T08:24:23Z</time>
      </trkpt>
      <trkpt lat="45.27996" lon="6.07839">
        <ele>1098</ele>
        <time>2021-12-23T08:24:24Z</time>
      </trkpt>
      <trkpt lat="45.27996" lon="6.07839">
        <ele>1098</ele>
        <time>2021-12-23T08:24:25Z</time>
      </trkpt>
      <trkpt lat="45.27996" lon="6.07839">
        <ele>1098</ele>
        <time>2021-12-23T08:24:26Z</time>
      </trkpt>
      <trkpt lat="45.27995" lon="6.07839">
        <ele>1098</ele>
        <time>2021-12-23T08:24:27Z</time>
      </trkpt>
      <trkpt lat="45.27995" lon="6.07839">
        <ele>1098</ele>
        <time>2021-12-23T08:24:28Z</time>
      </trkpt>
      <trkpt lat="45.27995" lon="6.07839">
        <ele>1098</ele>
        <time>2021-12-23T08:24:29Z</time>
      </trkpt>
      <trkpt lat="45.27995" lon="6.0784">
        <ele>1098</ele>
        <time>2021-12-23T08:24:30Z</time>
      </trkpt>
      <trkpt lat="45.27995" lon="6.0784">
        <ele>1098</ele>
        <time>2021-12-23T08:24:32Z</time>
      </trkpt>
      <trkpt lat="45.27995" lon="6.0784">
        <ele>1098</ele>
        <time>2021-12-23T08:24:33Z</time>
      </trkpt>
      <trkpt lat="45.27995" lon="6.0784">
        <ele>1098</ele>
        <time>2021-12-23T08:24:34Z</time>
      </trkpt>
      <trkpt lat="45.27995" lon="6.0784">
        <ele>1098</ele>
        <time>2021-12-23T08:24:35Z</time>
      </trkpt>
      <trkpt lat="45.27995" lon="6.0784">
        <ele>1098</ele>
        <time>2021-12-23T08:24:36Z</time>
      </trkpt>
      <trkpt lat="45.27995" lon="6.07841">
        <ele>1098</ele>
        <time>2021-12-23T08:24:37Z</time>
      </trkpt>
      <trkpt lat="45.27994" lon="6.07841">
        <ele>1098</ele>
        <time>2021-12-23T08:24:38Z</time>
      </trkpt>
      <trkpt lat="45.27994" lon="6.07841">
        <ele>1098</ele>
        <time>2021-12-23T08:24:39Z</time>
      </trkpt>
      <trkpt lat="45.27994" lon="6.07841">
        <ele>1098</ele>
        <time>2021-12-23T08:24:40Z</time>
      </trkpt>
      <trkpt lat="45.27994" lon="6.07841">
        <ele>1098</ele>
        <time>2021-12-23T08:24:41Z</time>
      </trkpt>
      <trkpt lat="45.27994" lon="6.07841">
        <ele>1098</ele>
        <time>2021-12-23T08:24:42Z</time>
      </trkpt>
      <trkpt lat="45.27994" lon="6.07842">
        <ele>1097</ele>
        <time>2021-12-23T08:24:43Z</time>
      </trkpt>
      <trkpt lat="45.27994" lon="6.07842">
        <ele>1097</ele>
        <time>2021-12-23T08:24:44Z</time>
      </trkpt>
      <trkpt lat="45.27994" lon="6.07842">
        <ele>1097</ele>
        <time>2021-12-23T08:24:45Z</time>
      </trkpt>
      <trkpt lat="45.27994" lon="6.07842">
        <ele>1097</ele>
        <time>2021-12-23T08:24:46Z</time>
      </trkpt>
      <trkpt lat="45.27994" lon="6.07842">
        <ele>1097</ele>
        <time>2021-12-23T08:24:47Z</time>
      </trkpt>
      <trkpt lat="45.27993" lon="6.07843">
        <ele>1097</ele>
        <time>2021-12-23T08:24:48Z</time>
      </trkpt>
      <trkpt lat="45.27993" lon="6.07843">
        <ele>1097</ele>
        <time>2021-12-23T08:24:49Z</time>
      </trkpt>
      <trkpt lat="45.27993" lon="6.07843">
        <ele>1098</ele>
        <time>2021-12-23T08:24:51Z</time>
      </trkpt>
      <trkpt lat="45.27993" lon="6.07843">
        <ele>1098</ele>
        <time>2021-12-23T08:24:52Z</time>
      </trkpt>
      <trkpt lat="45.27993" lon="6.07843">
        <ele>1098</ele>
        <time>2021-12-23T08:24:53Z</time>
      </trkpt>
      <trkpt lat="45.27993" lon="6.07843">
        <ele>1098</ele>
        <time>2021-12-23T08:24:54Z</time>
      </trkpt>
      <trkpt lat="45.27993" lon="6.07844">
        <ele>1098</ele>
        <time>2021-12-23T08:24:55Z</time>
      </trkpt>
      <trkpt lat="45.27993" lon="6.07844">
        <ele>1098</ele>
        <time>2021-12-23T08:24:56Z</time>
      </trkpt>
      <trkpt lat="45.27993" lon="6.07844">
        <ele>1097</ele>
        <time>2021-12-23T08:24:57Z</time>
      </trkpt>
      <trkpt lat="45.27993" lon="6.07844">
        <ele>1097</ele>
        <time>2021-12-23T08:24:58Z</time>
      </trkpt>
      <trkpt lat="45.27993" lon="6.07844">
        <ele>1097</ele>
        <time>2021-12-23T08:24:59Z</time>
      </trkpt>
      <trkpt lat="45.27992" lon="6.07844">
        <ele>1097</ele>
        <time>2021-12-23T08:25:00Z</time>
      </trkpt>
      <trkpt lat="45.27993" lon="6.07844">
        <ele>1097</ele>
        <time>2021-12-23T08:25:01Z</time>
      </trkpt>
      <trkpt lat="45.27994" lon="6.07843">
        <ele>1098</ele>
        <time>2021-12-23T08:25:03Z</time>
      </trkpt>
      <trkpt lat="45.27994" lon="6.07843">
        <ele>1098</ele>
        <time>2021-12-23T08:25:04Z</time>
      </trkpt>
      <trkpt lat="45.27995" lon="6.07842">
        <ele>1097</ele>
        <time>2021-12-23T08:25:05Z</time>
      </trkpt>
      <trkpt lat="45.27996" lon="6.07842">
        <ele>1098</ele>
        <time>2021-12-23T08:25:07Z</time>
      </trkpt>
      <trkpt lat="45.27996" lon="6.07841">
        <ele>1098</ele>
        <time>2021-12-23T08:25:08Z</time>
      </trkpt>
      <trkpt lat="45.27997" lon="6.0784">
        <ele>1096</ele>
        <time>2021-12-23T08:25:10Z</time>
      </trkpt>
      <trkpt lat="45.27998" lon="6.0784">
        <ele>1096</ele>
        <time>2021-12-23T08:25:11Z</time>
      </trkpt>
      <trkpt lat="45.27998" lon="6.07839">
        <ele>1097</ele>
        <time>2021-12-23T08:25:12Z</time>
      </trkpt>
      <trkpt lat="45.27999" lon="6.07839">
        <ele>1098</ele>
        <time>2021-12-23T08:25:13Z</time>
      </trkpt>
      <trkpt lat="45.28" lon="6.07838">
        <ele>1098</ele>
        <time>2021-12-23T08:25:14Z</time>
      </trkpt>
      <trkpt lat="45.28" lon="6.07838">
        <ele>1097</ele>
        <time>2021-12-23T08:25:16Z</time>
      </trkpt>
      <trkpt lat="45.28001" lon="6.07837">
        <ele>1097</ele>
        <time>2021-12-23T08:25:17Z</time>
      </trkpt>
      <trkpt lat="45.28002" lon="6.07836">
        <ele>1097</ele>
        <time>2021-12-23T08:25:18Z</time>
      </trkpt>
      <trkpt lat="45.28002" lon="6.07836">
        <ele>1098</ele>
        <time>2021-12-23T08:25:19Z</time>
      </trkpt>
      <trkpt lat="45.28002" lon="6.07838">
        <ele>1097</ele>
        <time>2021-12-23T08:25:20Z</time>
      </trkpt>
      <trkpt lat="45.28002" lon="6.07841">
        <ele>1097</ele>
        <time>2021-12-23T08:25:21Z</time>
      </trkpt>
      <trkpt lat="45.28002" lon="6.07844">
        <ele>1097</ele>
        <time>2021-12-23T08:25:22Z</time>
      </trkpt>
      <trkpt lat="45.28001" lon="6.07846">
        <ele>1097</ele>
        <time>2021-12-23T08:25:23Z</time>
      </trkpt>
      <trkpt lat="45.28001" lon="6.07849">
        <ele>1097</ele>
        <time>2021-12-23T08:25:24Z</time>
      </trkpt>
      <trkpt lat="45.28001" lon="6.07848">
        <ele>1097</ele>
        <time>2021-12-23T08:25:25Z</time>
      </trkpt>
      <trkpt lat="45.28" lon="6.07848">
        <ele>1097</ele>
        <time>2021-12-23T08:25:26Z</time>
      </trkpt>
      <trkpt lat="45.27999" lon="6.07847">
        <ele>1097</ele>
        <time>2021-12-23T08:25:27Z</time>
      </trkpt>
      <trkpt lat="45.27999" lon="6.07846">
        <ele>1097</ele>
        <time>2021-12-23T08:25:29Z</time>
      </trkpt>
      <trkpt lat="45.27998" lon="6.07846">
        <ele>1097</ele>
        <time>2021-12-23T08:25:30Z</time>
      </trkpt>
      <trkpt lat="45.27997" lon="6.07845">
        <ele>1097</ele>
        <time>2021-12-23T08:25:31Z</time>
      </trkpt>
      <trkpt lat="45.27997" lon="6.07845">
        <ele>1097</ele>
        <time>2021-12-23T08:25:32Z</time>
      </trkpt>
      <trkpt lat="45.27996" lon="6.07844">
        <ele>1097</ele>
        <time>2021-12-23T08:25:33Z</time>
      </trkpt>
      <trkpt lat="45.27995" lon="6.07844">
        <ele>1097</ele>
        <time>2021-12-23T08:25:35Z</time>
      </trkpt>
      <trkpt lat="45.27995" lon="6.07843">
        <ele>1098</ele>
        <time>2021-12-23T08:25:36Z</time>
      </trkpt>
      <trkpt lat="45.27994" lon="6.07843">
        <ele>1098</ele>
        <time>2021-12-23T08:25:37Z</time>
      </trkpt>
      <trkpt lat="45.27993" lon="6.07842">
        <ele>1098</ele>
        <time>2021-12-23T08:25:39Z</time>
      </trkpt>
      <trkpt lat="45.27993" lon="6.07842">
        <ele>1098</ele>
        <time>2021-12-23T08:25:40Z</time>
      </trkpt>
      <trkpt lat="45.27994" lon="6.0784">
        <ele>1098</ele>
        <time>2021-12-23T08:25:42Z</time>
      </trkpt>
      <trkpt lat="45.27995" lon="6.07839">
        <ele>1098</ele>
        <time>2021-12-23T08:25:43Z</time>
      </trkpt>
      <trkpt lat="45.27996" lon="6.07838">
        <ele>1098</ele>
        <time>2021-12-23T08:25:44Z</time>
      </trkpt>
      <trkpt lat="45.27997" lon="6.07837">
        <ele>1097</ele>
        <time>2021-12-23T08:25:45Z</time>
      </trkpt>
      <trkpt lat="45.28002" lon="6.07833">
        <ele>1097</ele>
        <time>2021-12-23T08:25:46Z</time>
      </trkpt>
      <trkpt lat="45.28002" lon="6.07833">
        <ele>1097</ele>
        <time>2021-12-23T08:25:48Z</time>
      </trkpt>
      <trkpt lat="45.28002" lon="6.07833">
        <ele>1097</ele>
        <time>2021-12-23T08:25:50Z</time>
      </trkpt>
      <trkpt lat="45.28002" lon="6.07833">
        <ele>1097</ele>
        <time>2021-12-23T08:25:51Z</time>
      </trkpt>
      <trkpt lat="45.28002" lon="6.07833">
        <ele>1098</ele>
        <time>2021-12-23T08:25:52Z</time>
      </trkpt>
      <trkpt lat="45.28002" lon="6.07833">
        <ele>1098</ele>
        <time>2021-12-23T08:25:53Z</time>
      </trkpt>
      <trkpt lat="45.28002" lon="6.07833">
        <ele>1098</ele>
        <time>2021-12-23T08:25:55Z</time>
      </trkpt>
      <trkpt lat="45.28002" lon="6.07833">
        <ele>1097</ele>
        <time>2021-12-23T08:25:56Z</time>
      </trkpt>
      <trkpt lat="45.28002" lon="6.07833">
        <ele>1097</ele>
        <time>2021-12-23T08:25:58Z</time>
      </trkpt>
      <trkpt lat="45.28002" lon="6.07833">
        <ele>1097</ele>
        <time>2021-12-23T08:25:59Z</time>
      </trkpt>
      <trkpt lat="45.28002" lon="6.07833">
        <ele>1097</ele>
        <time>2021-12-23T08:26:01Z</time>
      </trkpt>
      <trkpt lat="45.28002" lon="6.07833">
        <ele>1097</ele>
        <time>2021-12-23T08:26:02Z</time>
      </trkpt>
      <trkpt lat="45.28002" lon="6.07833">
        <ele>1097</ele>
        <time>2021-12-23T08:26:03Z</time>
      </trkpt>
      <trkpt lat="45.28002" lon="6.07833">
        <ele>1097</ele>
        <time>2021-12-23T08:26:05Z</time>
      </trkpt>
      <trkpt lat="45.28002" lon="6.07833">
        <ele>1097</ele>
        <time>2021-12-23T08:26:07Z</time>
      </trkpt>
      <trkpt lat="45.28002" lon="6.07833">
        <ele>1097</ele>
        <time>2021-12-23T08:26:08Z</time>
      </trkpt>
      <trkpt lat="45.28002" lon="6.07833">
        <ele>1097</ele>
        <time>2021-12-23T08:26:10Z</time>
      </trkpt>
      <trkpt lat="45.28002" lon="6.07833">
        <ele>1098</ele>
        <time>2021-12-23T08:26:11Z</time>
      </trkpt>
      <trkpt lat="45.28002" lon="6.07833">
        <ele>1098</ele>
        <time>2021-12-23T08:26:12Z</time>
      </trkpt>
      <trkpt lat="45.28002" lon="6.07833">
        <ele>1097</ele>
        <time>2021-12-23T08:26:13Z</time>
      </trkpt>
      <trkpt lat="45.28002" lon="6.07833">
        <ele>1097</ele>
        <time>2021-12-23T08:26:14Z</time>
      </trkpt>
      <trkpt lat="45.28002" lon="6.07833">
        <ele>1097</ele>
        <time>2021-12-23T08:26:15Z</time>
      </trkpt>
      <trkpt lat="45.28004" lon="6.07852">
        <ele>1097</ele>
        <time>2021-12-23T08:26:16Z</time>
      </trkpt>
      <trkpt lat="45.28004" lon="6.07852">
        <ele>1097</ele>
        <time>2021-12-23T08:26:18Z</time>
      </trkpt>
      <trkpt lat="45.28003" lon="6.07852">
        <ele>1097</ele>
        <time>2021-12-23T08:26:19Z</time>
      </trkpt>
      <trkpt lat="45.28002" lon="6.07852">
        <ele>1097</ele>
        <time>2021-12-23T08:26:20Z</time>
      </trkpt>
      <trkpt lat="45.28001" lon="6.07852">
        <ele>1097</ele>
        <time>2021-12-23T08:26:21Z</time>
      </trkpt>
      <trkpt lat="45.28" lon="6.07852">
        <ele>1098</ele>
        <time>2021-12-23T08:26:22Z</time>
      </trkpt>
      <trkpt lat="45.28" lon="6.07853">
        <ele>1098</ele>
        <time>2021-12-23T08:26:23Z</time>
      </trkpt>
      <trkpt lat="45.27999" lon="6.07853">
        <ele>1098</ele>
        <time>2021-12-23T08:26:24Z</time>
      </trkpt>
      <trkpt lat="45.27998" lon="6.07853">
        <ele>1098</ele>
        <time>2021-12-23T08:26:26Z</time>
      </trkpt>
      <trkpt lat="45.27997" lon="6.07853">
        <ele>1098</ele>
        <time>2021-12-23T08:26:27Z</time>
      </trkpt>
      <trkpt lat="45.27996" lon="6.07853">
        <ele>1099</ele>
        <time>2021-12-23T08:26:28Z</time>
      </trkpt>
      <trkpt lat="45.27995" lon="6.07853">
        <ele>1100</ele>
        <time>2021-12-23T08:26:29Z</time>
      </trkpt>
      <trkpt lat="45.27994" lon="6.07853">
        <ele>1100</ele>
        <time>2021-12-23T08:26:30Z</time>
      </trkpt>
      <trkpt lat="45.27994" lon="6.07854">
        <ele>1100</ele>
        <time>2021-12-23T08:26:31Z</time>
      </trkpt>
      <trkpt lat="45.27993" lon="6.07855">
        <ele>1100</ele>
        <time>2021-12-23T08:26:32Z</time>
      </trkpt>
      <trkpt lat="45.27992" lon="6.07855">
        <ele>1101</ele>
        <time>2021-12-23T08:26:33Z</time>
      </trkpt>
      <trkpt lat="45.27992" lon="6.07856">
        <ele>1101</ele>
        <time>2021-12-23T08:26:34Z</time>
      </trkpt>
      <trkpt lat="45.27991" lon="6.07857">
        <ele>1101</ele>
        <time>2021-12-23T08:26:35Z</time>
      </trkpt>
      <trkpt lat="45.2799" lon="6.07858">
        <ele>1101</ele>
        <time>2021-12-23T08:26:36Z</time>
      </trkpt>
      <trkpt lat="45.2799" lon="6.07858">
        <ele>1101</ele>
        <time>2021-12-23T08:26:37Z</time>
      </trkpt>
      <trkpt lat="45.27989" lon="6.07859">
        <ele>1101</ele>
        <time>2021-12-23T08:26:38Z</time>
      </trkpt>
      <trkpt lat="45.27988" lon="6.0786">
        <ele>1101</ele>
        <time>2021-12-23T08:26:39Z</time>
      </trkpt>
      <trkpt lat="45.27988" lon="6.07861">
        <ele>1102</ele>
        <time>2021-12-23T08:26:41Z</time>
      </trkpt>
      <trkpt lat="45.27987" lon="6.07862">
        <ele>1102</ele>
        <time>2021-12-23T08:26:42Z</time>
      </trkpt>
      <trkpt lat="45.27986" lon="6.07863">
        <ele>1102</ele>
        <time>2021-12-23T08:26:43Z</time>
      </trkpt>
      <trkpt lat="45.27985" lon="6.07864">
        <ele>1103</ele>
        <time>2021-12-23T08:26:45Z</time>
      </trkpt>
      <trkpt lat="45.27983" lon="6.07865">
        <ele>1103</ele>
        <time>2021-12-23T08:26:46Z</time>
      </trkpt>
      <trkpt lat="45.27982" lon="6.07867">
        <ele>1103</ele>
        <time>2021-12-23T08:26:47Z</time>
      </trkpt>
      <trkpt lat="45.27981" lon="6.07868">
        <ele>1104</ele>
        <time>2021-12-23T08:26:48Z</time>
      </trkpt>
      <trkpt lat="45.2798" lon="6.07869">
        <ele>1104</ele>
        <time>2021-12-23T08:26:49Z</time>
      </trkpt>
      <trkpt lat="45.27979" lon="6.0787">
        <ele>1104</ele>
        <time>2021-12-23T08:26:50Z</time>
      </trkpt>
      <trkpt lat="45.27977" lon="6.07871">
        <ele>1104</ele>
        <time>2021-12-23T08:26:51Z</time>
      </trkpt>
      <trkpt lat="45.27976" lon="6.07872">
        <ele>1104</ele>
        <time>2021-12-23T08:26:52Z</time>
      </trkpt>
      <trkpt lat="45.27975" lon="6.07872">
        <ele>1104</ele>
        <time>2021-12-23T08:26:53Z</time>
      </trkpt>
      <trkpt lat="45.27974" lon="6.07873">
        <ele>1105</ele>
        <time>2021-12-23T08:26:54Z</time>
      </trkpt>
      <trkpt lat="45.27972" lon="6.07874">
        <ele>1105</ele>
        <time>2021-12-23T08:26:55Z</time>
      </trkpt>
      <trkpt lat="45.27971" lon="6.07875">
        <ele>1105</ele>
        <time>2021-12-23T08:26:56Z</time>
      </trkpt>
      <trkpt lat="45.2797" lon="6.07876">
        <ele>1106</ele>
        <time>2021-12-23T08:26:57Z</time>
      </trkpt>
      <trkpt lat="45.27969" lon="6.07876">
        <ele>1106</ele>
        <time>2021-12-23T08:26:58Z</time>
      </trkpt>
      <trkpt lat="45.27968" lon="6.07877">
        <ele>1106</ele>
        <time>2021-12-23T08:26:59Z</time>
      </trkpt>
      <trkpt lat="45.27968" lon="6.07878">
        <ele>1106</ele>
        <time>2021-12-23T08:27:00Z</time>
      </trkpt>
      <trkpt lat="45.27967" lon="6.07879">
        <ele>1106</ele>
        <time>2021-12-23T08:27:01Z</time>
      </trkpt>
      <trkpt lat="45.27966" lon="6.0788">
        <ele>1106</ele>
        <time>2021-12-23T08:27:02Z</time>
      </trkpt>
      <trkpt lat="45.27965" lon="6.0788">
        <ele>1106</ele>
        <time>2021-12-23T08:27:04Z</time>
      </trkpt>
      <trkpt lat="45.27964" lon="6.07881">
        <ele>1106</ele>
        <time>2021-12-23T08:27:05Z</time>
      </trkpt>
      <trkpt lat="45.27963" lon="6.07882">
        <ele>1106</ele>
        <time>2021-12-23T08:27:06Z</time>
      </trkpt>
      <trkpt lat="45.27962" lon="6.07883">
        <ele>1106</ele>
        <time>2021-12-23T08:27:07Z</time>
      </trkpt>
      <trkpt lat="45.27961" lon="6.07883">
        <ele>1106</ele>
        <time>2021-12-23T08:27:08Z</time>
      </trkpt>
      <trkpt lat="45.2796" lon="6.07884">
        <ele>1106</ele>
        <time>2021-12-23T08:27:09Z</time>
      </trkpt>
      <trkpt lat="45.2796" lon="6.07885">
        <ele>1106</ele>
        <time>2021-12-23T08:27:10Z</time>
      </trkpt>
      <trkpt lat="45.27959" lon="6.07888">
        <ele>1106</ele>
        <time>2021-12-23T08:27:11Z</time>
      </trkpt>
      <trkpt lat="45.27957" lon="6.07891">
        <ele>1106</ele>
        <time>2021-12-23T08:27:12Z</time>
      </trkpt>
      <trkpt lat="45.27956" lon="6.07894">
        <ele>1107</ele>
        <time>2021-12-23T08:27:13Z</time>
      </trkpt>
      <trkpt lat="45.27955" lon="6.07896">
        <ele>1107</ele>
        <time>2021-12-23T08:27:14Z</time>
      </trkpt>
      <trkpt lat="45.27955" lon="6.07897">
        <ele>1107</ele>
        <time>2021-12-23T08:27:15Z</time>
      </trkpt>
      <trkpt lat="45.27954" lon="6.07898">
        <ele>1107</ele>
        <time>2021-12-23T08:27:16Z</time>
      </trkpt>
      <trkpt lat="45.27953" lon="6.079">
        <ele>1107</ele>
        <time>2021-12-23T08:27:17Z</time>
      </trkpt>
      <trkpt lat="45.27953" lon="6.07901">
        <ele>1108</ele>
        <time>2021-12-23T08:27:18Z</time>
      </trkpt>
      <trkpt lat="45.27952" lon="6.07902">
        <ele>1108</ele>
        <time>2021-12-23T08:27:19Z</time>
      </trkpt>
      <trkpt lat="45.27951" lon="6.07903">
        <ele>1108</ele>
        <time>2021-12-23T08:27:20Z</time>
      </trkpt>
      <trkpt lat="45.27951" lon="6.07904">
        <ele>1108</ele>
        <time>2021-12-23T08:27:21Z</time>
      </trkpt>
      <trkpt lat="45.2795" lon="6.07905">
        <ele>1108</ele>
        <time>2021-12-23T08:27:23Z</time>
      </trkpt>
      <trkpt lat="45.27949" lon="6.07906">
        <ele>1109</ele>
        <time>2021-12-23T08:27:24Z</time>
      </trkpt>
      <trkpt lat="45.27949" lon="6.07907">
        <ele>1109</ele>
        <time>2021-12-23T08:27:25Z</time>
      </trkpt>
      <trkpt lat="45.27948" lon="6.07908">
        <ele>1110</ele>
        <time>2021-12-23T08:27:26Z</time>
      </trkpt>
      <trkpt lat="45.27947" lon="6.07909">
        <ele>1110</ele>
        <time>2021-12-23T08:27:27Z</time>
      </trkpt>
      <trkpt lat="45.27946" lon="6.0791">
        <ele>1110</ele>
        <time>2021-12-23T08:27:28Z</time>
      </trkpt>
      <trkpt lat="45.27945" lon="6.07911">
        <ele>1110</ele>
        <time>2021-12-23T08:27:29Z</time>
      </trkpt>
      <trkpt lat="45.27945" lon="6.07912">
        <ele>1110</ele>
        <time>2021-12-23T08:27:30Z</time>
      </trkpt>
      <trkpt lat="45.27944" lon="6.07913">
        <ele>1111</ele>
        <time>2021-12-23T08:27:31Z</time>
      </trkpt>
      <trkpt lat="45.27943" lon="6.07914">
        <ele>1111</ele>
        <time>2021-12-23T08:27:32Z</time>
      </trkpt>
      <trkpt lat="45.27942" lon="6.07915">
        <ele>1111</ele>
        <time>2021-12-23T08:27:33Z</time>
      </trkpt>
      <trkpt lat="45.27941" lon="6.07915">
        <ele>1111</ele>
        <time>2021-12-23T08:27:34Z</time>
      </trkpt>
      <trkpt lat="45.2794" lon="6.07916">
        <ele>1111</ele>
        <time>2021-12-23T08:27:35Z</time>
      </trkpt>
      <trkpt lat="45.27939" lon="6.07916">
        <ele>1112</ele>
        <time>2021-12-23T08:27:36Z</time>
      </trkpt>
      <trkpt lat="45.27938" lon="6.07917">
        <ele>1112</ele>
        <time>2021-12-23T08:27:38Z</time>
      </trkpt>
      <trkpt lat="45.27937" lon="6.07917">
        <ele>1112</ele>
        <time>2021-12-23T08:27:39Z</time>
      </trkpt>
      <trkpt lat="45.27936" lon="6.07918">
        <ele>1112</ele>
        <time>2021-12-23T08:27:40Z</time>
      </trkpt>
      <trkpt lat="45.27936" lon="6.07919">
        <ele>1113</ele>
        <time>2021-12-23T08:27:42Z</time>
      </trkpt>
      <trkpt lat="45.27935" lon="6.07919">
        <ele>1113</ele>
        <time>2021-12-23T08:27:43Z</time>
      </trkpt>
      <trkpt lat="45.27934" lon="6.0792">
        <ele>1113</ele>
        <time>2021-12-23T08:27:44Z</time>
      </trkpt>
      <trkpt lat="45.27933" lon="6.0792">
        <ele>1114</ele>
        <time>2021-12-23T08:27:45Z</time>
      </trkpt>
      <trkpt lat="45.27927" lon="6.07931">
        <ele>1114</ele>
        <time>2021-12-23T08:27:46Z</time>
      </trkpt>
      <trkpt lat="45.27927" lon="6.07931">
        <ele>1115</ele>
        <time>2021-12-23T08:27:47Z</time>
      </trkpt>
      <trkpt lat="45.27927" lon="6.07932">
        <ele>1115</ele>
        <time>2021-12-23T08:27:48Z</time>
      </trkpt>
      <trkpt lat="45.27926" lon="6.07933">
        <ele>1115</ele>
        <time>2021-12-23T08:27:49Z</time>
      </trkpt>
      <trkpt lat="45.27926" lon="6.07934">
        <ele>1115</ele>
        <time>2021-12-23T08:27:50Z</time>
      </trkpt>
      <trkpt lat="45.27926" lon="6.07935">
        <ele>1115</ele>
        <time>2021-12-23T08:27:51Z</time>
      </trkpt>
      <trkpt lat="45.27925" lon="6.07936">
        <ele>1115</ele>
        <time>2021-12-23T08:27:52Z</time>
      </trkpt>
      <trkpt lat="45.27925" lon="6.07937">
        <ele>1115</ele>
        <time>2021-12-23T08:27:53Z</time>
      </trkpt>
      <trkpt lat="45.27924" lon="6.07938">
        <ele>1115</ele>
        <time>2021-12-23T08:27:54Z</time>
      </trkpt>
      <trkpt lat="45.27924" lon="6.07939">
        <ele>1115</ele>
        <time>2021-12-23T08:27:55Z</time>
      </trkpt>
      <trkpt lat="45.27923" lon="6.0794">
        <ele>1115</ele>
        <time>2021-12-23T08:27:56Z</time>
      </trkpt>
      <trkpt lat="45.27923" lon="6.07941">
        <ele>1115</ele>
        <time>2021-12-23T08:27:57Z</time>
      </trkpt>
      <trkpt lat="45.27923" lon="6.07942">
        <ele>1115</ele>
        <time>2021-12-23T08:27:58Z</time>
      </trkpt>
      <trkpt lat="45.27922" lon="6.07943">
        <ele>1115</ele>
        <time>2021-12-23T08:27:59Z</time>
      </trkpt>
      <trkpt lat="45.27922" lon="6.07944">
        <ele>1115</ele>
        <time>2021-12-23T08:28:00Z</time>
      </trkpt>
      <trkpt lat="45.2792" lon="6.07946">
        <ele>1116</ele>
        <time>2021-12-23T08:28:01Z</time>
      </trkpt>
      <trkpt lat="45.27919" lon="6.07948">
        <ele>1116</ele>
        <time>2021-12-23T08:28:02Z</time>
      </trkpt>
      <trkpt lat="45.27918" lon="6.0795">
        <ele>1116</ele>
        <time>2021-12-23T08:28:04Z</time>
      </trkpt>
      <trkpt lat="45.27917" lon="6.07952">
        <ele>1117</ele>
        <time>2021-12-23T08:28:05Z</time>
      </trkpt>
      <trkpt lat="45.27916" lon="6.07954">
        <ele>1117</ele>
        <time>2021-12-23T08:28:06Z</time>
      </trkpt>
      <trkpt lat="45.27915" lon="6.07955">
        <ele>1118</ele>
        <time>2021-12-23T08:28:07Z</time>
      </trkpt>
      <trkpt lat="45.27915" lon="6.07955">
        <ele>1118</ele>
        <time>2021-12-23T08:28:08Z</time>
      </trkpt>
      <trkpt lat="45.27915" lon="6.07955">
        <ele>1118</ele>
        <time>2021-12-23T08:28:09Z</time>
      </trkpt>
      <trkpt lat="45.27915" lon="6.07956">
        <ele>1118</ele>
        <time>2021-12-23T08:28:10Z</time>
      </trkpt>
      <trkpt lat="45.27914" lon="6.07956">
        <ele>1119</ele>
        <time>2021-12-23T08:28:11Z</time>
      </trkpt>
      <trkpt lat="45.27914" lon="6.07956">
        <ele>1119</ele>
        <time>2021-12-23T08:28:12Z</time>
      </trkpt>
      <trkpt lat="45.27914" lon="6.07957">
        <ele>1119</ele>
        <time>2021-12-23T08:28:13Z</time>
      </trkpt>
      <trkpt lat="45.27914" lon="6.07957">
        <ele>1119</ele>
        <time>2021-12-23T08:28:14Z</time>
      </trkpt>
      <trkpt lat="45.27913" lon="6.07957">
        <ele>1119</ele>
        <time>2021-12-23T08:28:16Z</time>
      </trkpt>
      <trkpt lat="45.27913" lon="6.07958">
        <ele>1120</ele>
        <time>2021-12-23T08:28:18Z</time>
      </trkpt>
      <trkpt lat="45.27913" lon="6.07958">
        <ele>1120</ele>
        <time>2021-12-23T08:28:20Z</time>
      </trkpt>
      <trkpt lat="45.27912" lon="6.07958">
        <ele>1120</ele>
        <time>2021-12-23T08:28:21Z</time>
      </trkpt>
      <trkpt lat="45.27912" lon="6.07959">
        <ele>1120</ele>
        <time>2021-12-23T08:28:22Z</time>
      </trkpt>
      <trkpt lat="45.27912" lon="6.07959">
        <ele>1120</ele>
        <time>2021-12-23T08:28:23Z</time>
      </trkpt>
      <trkpt lat="45.27907" lon="6.07965">
        <ele>1120</ele>
        <time>2021-12-23T08:28:24Z</time>
      </trkpt>
      <trkpt lat="45.27907" lon="6.07966">
        <ele>1121</ele>
        <time>2021-12-23T08:28:25Z</time>
      </trkpt>
      <trkpt lat="45.27906" lon="6.07967">
        <ele>1121</ele>
        <time>2021-12-23T08:28:26Z</time>
      </trkpt>
      <trkpt lat="45.27905" lon="6.07968">
        <ele>1121</ele>
        <time>2021-12-23T08:28:28Z</time>
      </trkpt>
      <trkpt lat="45.27904" lon="6.07969">
        <ele>1121</ele>
        <time>2021-12-23T08:28:29Z</time>
      </trkpt>
      <trkpt lat="45.27904" lon="6.0797">
        <ele>1121</ele>
        <time>2021-12-23T08:28:30Z</time>
      </trkpt>
      <trkpt lat="45.27903" lon="6.07971">
        <ele>1121</ele>
        <time>2021-12-23T08:28:31Z</time>
      </trkpt>
      <trkpt lat="45.27902" lon="6.07972">
        <ele>1122</ele>
        <time>2021-12-23T08:28:33Z</time>
      </trkpt>
      <trkpt lat="45.27902" lon="6.07974">
        <ele>1122</ele>
        <time>2021-12-23T08:28:34Z</time>
      </trkpt>
      <trkpt lat="45.279" lon="6.07974">
        <ele>1123</ele>
        <time>2021-12-23T08:28:35Z</time>
      </trkpt>
      <trkpt lat="45.27899" lon="6.07975">
        <ele>1123</ele>
        <time>2021-12-23T08:28:36Z</time>
      </trkpt>
      <trkpt lat="45.27898" lon="6.07976">
        <ele>1123</ele>
        <time>2021-12-23T08:28:37Z</time>
      </trkpt>
      <trkpt lat="45.27896" lon="6.07977">
        <ele>1123</ele>
        <time>2021-12-23T08:28:39Z</time>
      </trkpt>
      <trkpt lat="45.27895" lon="6.07978">
        <ele>1124</ele>
        <time>2021-12-23T08:28:40Z</time>
      </trkpt>
      <trkpt lat="45.27894" lon="6.07978">
        <ele>1124</ele>
        <time>2021-12-23T08:28:41Z</time>
      </trkpt>
      <trkpt lat="45.27892" lon="6.07979">
        <ele>1124</ele>
        <time>2021-12-23T08:28:42Z</time>
      </trkpt>
      <trkpt lat="45.27891" lon="6.0798">
        <ele>1124</ele>
        <time>2021-12-23T08:28:43Z</time>
      </trkpt>
      <trkpt lat="45.2789" lon="6.07981">
        <ele>1125</ele>
        <time>2021-12-23T08:28:44Z</time>
      </trkpt>
      <trkpt lat="45.27888" lon="6.07982">
        <ele>1125</ele>
        <time>2021-12-23T08:28:45Z</time>
      </trkpt>
      <trkpt lat="45.27887" lon="6.07983">
        <ele>1125</ele>
        <time>2021-12-23T08:28:46Z</time>
      </trkpt>
      <trkpt lat="45.27886" lon="6.07983">
        <ele>1125</ele>
        <time>2021-12-23T08:28:47Z</time>
      </trkpt>
      <trkpt lat="45.27884" lon="6.07984">
        <ele>1125</ele>
        <time>2021-12-23T08:28:48Z</time>
      </trkpt>
      <trkpt lat="45.27883" lon="6.07985">
        <ele>1126</ele>
        <time>2021-12-23T08:28:50Z</time>
      </trkpt>
      <trkpt lat="45.27882" lon="6.07986">
        <ele>1126</ele>
        <time>2021-12-23T08:28:51Z</time>
      </trkpt>
      <trkpt lat="45.27881" lon="6.07987">
        <ele>1126</ele>
        <time>2021-12-23T08:28:52Z</time>
      </trkpt>
      <trkpt lat="45.2788" lon="6.07988">
        <ele>1127</ele>
        <time>2021-12-23T08:28:54Z</time>
      </trkpt>
      <trkpt lat="45.27879" lon="6.07988">
        <ele>1127</ele>
        <time>2021-12-23T08:28:55Z</time>
      </trkpt>
      <trkpt lat="45.27878" lon="6.07989">
        <ele>1127</ele>
        <time>2021-12-23T08:28:56Z</time>
      </trkpt>
      <trkpt lat="45.27878" lon="6.0799">
        <ele>1128</ele>
        <time>2021-12-23T08:28:58Z</time>
      </trkpt>
      <trkpt lat="45.27877" lon="6.07991">
        <ele>1128</ele>
        <time>2021-12-23T08:29:00Z</time>
      </trkpt>
      <trkpt lat="45.27876" lon="6.07992">
        <ele>1128</ele>
        <time>2021-12-23T08:29:01Z</time>
      </trkpt>
      <trkpt lat="45.27875" lon="6.07993">
        <ele>1128</ele>
        <time>2021-12-23T08:29:02Z</time>
      </trkpt>
      <trkpt lat="45.27874" lon="6.07993">
        <ele>1128</ele>
        <time>2021-12-23T08:29:03Z</time>
      </trkpt>
      <trkpt lat="45.27873" lon="6.07994">
        <ele>1128</ele>
        <time>2021-12-23T08:29:04Z</time>
      </trkpt>
      <trkpt lat="45.27872" lon="6.07993">
        <ele>1129</ele>
        <time>2021-12-23T08:29:05Z</time>
      </trkpt>
      <trkpt lat="45.27872" lon="6.07993">
        <ele>1129</ele>
        <time>2021-12-23T08:29:07Z</time>
      </trkpt>
      <trkpt lat="45.27871" lon="6.07992">
        <ele>1129</ele>
        <time>2021-12-23T08:29:08Z</time>
      </trkpt>
      <trkpt lat="45.2787" lon="6.07991">
        <ele>1129</ele>
        <time>2021-12-23T08:29:09Z</time>
      </trkpt>
      <trkpt lat="45.2787" lon="6.0799">
        <ele>1129</ele>
        <time>2021-12-23T08:29:10Z</time>
      </trkpt>
      <trkpt lat="45.27869" lon="6.0799">
        <ele>1130</ele>
        <time>2021-12-23T08:29:11Z</time>
      </trkpt>
      <trkpt lat="45.27865" lon="6.07985">
        <ele>1130</ele>
        <time>2021-12-23T08:29:12Z</time>
      </trkpt>
      <trkpt lat="45.27865" lon="6.07985">
        <ele>1130</ele>
        <time>2021-12-23T08:29:13Z</time>
      </trkpt>
      <trkpt lat="45.27865" lon="6.07985">
        <ele>1130</ele>
        <time>2021-12-23T08:29:14Z</time>
      </trkpt>
      <trkpt lat="45.27865" lon="6.07985">
        <ele>1130</ele>
        <time>2021-12-23T08:29:15Z</time>
      </trkpt>
      <trkpt lat="45.27854" lon="6.07989">
        <ele>1131</ele>
        <time>2021-12-23T08:29:17Z</time>
      </trkpt>
      <trkpt lat="45.27854" lon="6.07989">
        <ele>1131</ele>
        <time>2021-12-23T08:29:18Z</time>
      </trkpt>
      <trkpt lat="45.27854" lon="6.07989">
        <ele>1131</ele>
        <time>2021-12-23T08:29:19Z</time>
      </trkpt>
      <trkpt lat="45.27854" lon="6.07989">
        <ele>1132</ele>
        <time>2021-12-23T08:29:20Z</time>
      </trkpt>
      <trkpt lat="45.27854" lon="6.07989">
        <ele>1132</ele>
        <time>2021-12-23T08:29:21Z</time>
      </trkpt>
      <trkpt lat="45.27854" lon="6.07989">
        <ele>1131</ele>
        <time>2021-12-23T08:29:23Z</time>
      </trkpt>
      <trkpt lat="45.27854" lon="6.07989">
        <ele>1131</ele>
        <time>2021-12-23T08:29:24Z</time>
      </trkpt>
      <trkpt lat="45.27854" lon="6.07989">
        <ele>1131</ele>
        <time>2021-12-23T08:29:25Z</time>
      </trkpt>
      <trkpt lat="45.27854" lon="6.07989">
        <ele>1131</ele>
        <time>2021-12-23T08:29:26Z</time>
      </trkpt>
      <trkpt lat="45.27854" lon="6.07989">
        <ele>1132</ele>
        <time>2021-12-23T08:29:27Z</time>
      </trkpt>
      <trkpt lat="45.27854" lon="6.07989">
        <ele>1132</ele>
        <time>2021-12-23T08:29:28Z</time>
      </trkpt>
      <trkpt lat="45.27854" lon="6.07989">
        <ele>1132</ele>
        <time>2021-12-23T08:29:29Z</time>
      </trkpt>
      <trkpt lat="45.27854" lon="6.07989">
        <ele>1132</ele>
        <time>2021-12-23T08:29:30Z</time>
      </trkpt>
      <trkpt lat="45.27854" lon="6.07989">
        <ele>1132</ele>
        <time>2021-12-23T08:29:31Z</time>
      </trkpt>
      <trkpt lat="45.27846" lon="6.0798">
        <ele>1133</ele>
        <time>2021-12-23T08:29:32Z</time>
      </trkpt>
      <trkpt lat="45.27846" lon="6.0798">
        <ele>1133</ele>
        <time>2021-12-23T08:29:34Z</time>
      </trkpt>
      <trkpt lat="45.27846" lon="6.0798">
        <ele>1133</ele>
        <time>2021-12-23T08:29:36Z</time>
      </trkpt>
      <trkpt lat="45.27846" lon="6.0798">
        <ele>1134</ele>
        <time>2021-12-23T08:29:37Z</time>
      </trkpt>
      <trkpt lat="45.27846" lon="6.0798">
        <ele>1134</ele>
        <time>2021-12-23T08:29:38Z</time>
      </trkpt>
      <trkpt lat="45.27846" lon="6.0798">
        <ele>1134</ele>
        <time>2021-12-23T08:29:39Z</time>
      </trkpt>
      <trkpt lat="45.27846" lon="6.0798">
        <ele>1134</ele>
        <time>2021-12-23T08:29:40Z</time>
      </trkpt>
      <trkpt lat="45.27846" lon="6.0798">
        <ele>1134</ele>
        <time>2021-12-23T08:29:41Z</time>
      </trkpt>
      <trkpt lat="45.27837" lon="6.07979">
        <ele>1134</ele>
        <time>2021-12-23T08:29:42Z</time>
      </trkpt>
      <trkpt lat="45.27837" lon="6.07979">
        <ele>1135</ele>
        <time>2021-12-23T08:29:44Z</time>
      </trkpt>
      <trkpt lat="45.27837" lon="6.07979">
        <ele>1135</ele>
        <time>2021-12-23T08:29:45Z</time>
      </trkpt>
      <trkpt lat="45.27837" lon="6.07979">
        <ele>1136</ele>
        <time>2021-12-23T08:29:46Z</time>
      </trkpt>
      <trkpt lat="45.27837" lon="6.07979">
        <ele>1136</ele>
        <time>2021-12-23T08:29:47Z</time>
      </trkpt>
      <trkpt lat="45.27837" lon="6.07979">
        <ele>1136</ele>
        <time>2021-12-23T08:29:48Z</time>
      </trkpt>
      <trkpt lat="45.27837" lon="6.07979">
        <ele>1136</ele>
        <time>2021-12-23T08:29:49Z</time>
      </trkpt>
      <trkpt lat="45.27837" lon="6.07979">
        <ele>1136</ele>
        <time>2021-12-23T08:29:51Z</time>
      </trkpt>
      <trkpt lat="45.27826" lon="6.07974">
        <ele>1137</ele>
        <time>2021-12-23T08:29:53Z</time>
      </trkpt>
      <trkpt lat="45.27825" lon="6.07974">
        <ele>1137</ele>
        <time>2021-12-23T08:29:55Z</time>
      </trkpt>
      <trkpt lat="45.27824" lon="6.07973">
        <ele>1137</ele>
        <time>2021-12-23T08:29:56Z</time>
      </trkpt>
      <trkpt lat="45.27823" lon="6.07973">
        <ele>1137</ele>
        <time>2021-12-23T08:29:57Z</time>
      </trkpt>
      <trkpt lat="45.27822" lon="6.07973">
        <ele>1137</ele>
        <time>2021-12-23T08:29:58Z</time>
      </trkpt>
      <trkpt lat="45.27821" lon="6.07972">
        <ele>1137</ele>
        <time>2021-12-23T08:29:59Z</time>
      </trkpt>
      <trkpt lat="45.2782" lon="6.07972">
        <ele>1137</ele>
        <time>2021-12-23T08:30:01Z</time>
      </trkpt>
      <trkpt lat="45.27819" lon="6.07971">
        <ele>1137</ele>
        <time>2021-12-23T08:30:02Z</time>
      </trkpt>
      <trkpt lat="45.27818" lon="6.07971">
        <ele>1137</ele>
        <time>2021-12-23T08:30:03Z</time>
      </trkpt>
      <trkpt lat="45.27817" lon="6.0797">
        <ele>1137</ele>
        <time>2021-12-23T08:30:04Z</time>
      </trkpt>
      <trkpt lat="45.27816" lon="6.0797">
        <ele>1137</ele>
        <time>2021-12-23T08:30:05Z</time>
      </trkpt>
      <trkpt lat="45.27814" lon="6.07969">
        <ele>1137</ele>
        <time>2021-12-23T08:30:06Z</time>
      </trkpt>
      <trkpt lat="45.27813" lon="6.07969">
        <ele>1137</ele>
        <time>2021-12-23T08:30:07Z</time>
      </trkpt>
      <trkpt lat="45.27812" lon="6.07968">
        <ele>1137</ele>
        <time>2021-12-23T08:30:08Z</time>
      </trkpt>
      <trkpt lat="45.27811" lon="6.07967">
        <ele>1137</ele>
        <time>2021-12-23T08:30:09Z</time>
      </trkpt>
      <trkpt lat="45.2781" lon="6.07966">
        <ele>1137</ele>
        <time>2021-12-23T08:30:10Z</time>
      </trkpt>
      <trkpt lat="45.27809" lon="6.07965">
        <ele>1137</ele>
        <time>2021-12-23T08:30:11Z</time>
      </trkpt>
      <trkpt lat="45.27808" lon="6.07965">
        <ele>1137</ele>
        <time>2021-12-23T08:30:12Z</time>
      </trkpt>
      <trkpt lat="45.27807" lon="6.07964">
        <ele>1137</ele>
        <time>2021-12-23T08:30:13Z</time>
      </trkpt>
      <trkpt lat="45.27806" lon="6.07963">
        <ele>1137</ele>
        <time>2021-12-23T08:30:14Z</time>
      </trkpt>
      <trkpt lat="45.27805" lon="6.07962">
        <ele>1137</ele>
        <time>2021-12-23T08:30:15Z</time>
      </trkpt>
      <trkpt lat="45.27804" lon="6.07961">
        <ele>1137</ele>
        <time>2021-12-23T08:30:16Z</time>
      </trkpt>
      <trkpt lat="45.27803" lon="6.07961">
        <ele>1137</ele>
        <time>2021-12-23T08:30:17Z</time>
      </trkpt>
      <trkpt lat="45.27802" lon="6.0796">
        <ele>1137</ele>
        <time>2021-12-23T08:30:18Z</time>
      </trkpt>
      <trkpt lat="45.27801" lon="6.07959">
        <ele>1137</ele>
        <time>2021-12-23T08:30:19Z</time>
      </trkpt>
      <trkpt lat="45.27801" lon="6.07958">
        <ele>1137</ele>
        <time>2021-12-23T08:30:20Z</time>
      </trkpt>
      <trkpt lat="45.278" lon="6.07958">
        <ele>1138</ele>
        <time>2021-12-23T08:30:21Z</time>
      </trkpt>
      <trkpt lat="45.27799" lon="6.07957">
        <ele>1138</ele>
        <time>2021-12-23T08:30:22Z</time>
      </trkpt>
      <trkpt lat="45.27798" lon="6.07956">
        <ele>1138</ele>
        <time>2021-12-23T08:30:23Z</time>
      </trkpt>
      <trkpt lat="45.27797" lon="6.07956">
        <ele>1138</ele>
        <time>2021-12-23T08:30:24Z</time>
      </trkpt>
      <trkpt lat="45.27796" lon="6.07956">
        <ele>1138</ele>
        <time>2021-12-23T08:30:25Z</time>
      </trkpt>
      <trkpt lat="45.27794" lon="6.07957">
        <ele>1138</ele>
        <time>2021-12-23T08:30:27Z</time>
      </trkpt>
      <trkpt lat="45.27793" lon="6.07957">
        <ele>1139</ele>
        <time>2021-12-23T08:30:28Z</time>
      </trkpt>
      <trkpt lat="45.27792" lon="6.07957">
        <ele>1139</ele>
        <time>2021-12-23T08:30:29Z</time>
      </trkpt>
      <trkpt lat="45.27791" lon="6.07957">
        <ele>1139</ele>
        <time>2021-12-23T08:30:30Z</time>
      </trkpt>
      <trkpt lat="45.2779" lon="6.07957">
        <ele>1139</ele>
        <time>2021-12-23T08:30:31Z</time>
      </trkpt>
      <trkpt lat="45.27789" lon="6.07957">
        <ele>1139</ele>
        <time>2021-12-23T08:30:32Z</time>
      </trkpt>
      <trkpt lat="45.27787" lon="6.07957">
        <ele>1139</ele>
        <time>2021-12-23T08:30:33Z</time>
      </trkpt>
      <trkpt lat="45.27786" lon="6.07957">
        <ele>1139</ele>
        <time>2021-12-23T08:30:34Z</time>
      </trkpt>
      <trkpt lat="45.27784" lon="6.07957">
        <ele>1139</ele>
        <time>2021-12-23T08:30:35Z</time>
      </trkpt>
      <trkpt lat="45.27783" lon="6.07957">
        <ele>1139</ele>
        <time>2021-12-23T08:30:36Z</time>
      </trkpt>
      <trkpt lat="45.27781" lon="6.07957">
        <ele>1139</ele>
        <time>2021-12-23T08:30:37Z</time>
      </trkpt>
      <trkpt lat="45.2778" lon="6.07957">
        <ele>1140</ele>
        <time>2021-12-23T08:30:39Z</time>
      </trkpt>
      <trkpt lat="45.27779" lon="6.07957">
        <ele>1141</ele>
        <time>2021-12-23T08:30:40Z</time>
      </trkpt>
      <trkpt lat="45.27778" lon="6.07956">
        <ele>1141</ele>
        <time>2021-12-23T08:30:41Z</time>
      </trkpt>
      <trkpt lat="45.27777" lon="6.07956">
        <ele>1141</ele>
        <time>2021-12-23T08:30:42Z</time>
      </trkpt>
      <trkpt lat="45.27776" lon="6.07955">
        <ele>1141</ele>
        <time>2021-12-23T08:30:44Z</time>
      </trkpt>
      <trkpt lat="45.27776" lon="6.07955">
        <ele>1142</ele>
        <time>2021-12-23T08:30:45Z</time>
      </trkpt>
      <trkpt lat="45.27775" lon="6.07954">
        <ele>1142</ele>
        <time>2021-12-23T08:30:46Z</time>
      </trkpt>
      <trkpt lat="45.27774" lon="6.07954">
        <ele>1142</ele>
        <time>2021-12-23T08:30:47Z</time>
      </trkpt>
      <trkpt lat="45.27773" lon="6.07953">
        <ele>1142</ele>
        <time>2021-12-23T08:30:49Z</time>
      </trkpt>
      <trkpt lat="45.27773" lon="6.07953">
        <ele>1142</ele>
        <time>2021-12-23T08:30:50Z</time>
      </trkpt>
      <trkpt lat="45.27772" lon="6.07952">
        <ele>1142</ele>
        <time>2021-12-23T08:30:52Z</time>
      </trkpt>
      <trkpt lat="45.27771" lon="6.07952">
        <ele>1142</ele>
        <time>2021-12-23T08:30:53Z</time>
      </trkpt>
      <trkpt lat="45.2777" lon="6.07951">
        <ele>1143</ele>
        <time>2021-12-23T08:30:54Z</time>
      </trkpt>
      <trkpt lat="45.2777" lon="6.07951">
        <ele>1143</ele>
        <time>2021-12-23T08:30:55Z</time>
      </trkpt>
      <trkpt lat="45.27769" lon="6.07951">
        <ele>1143</ele>
        <time>2021-12-23T08:30:56Z</time>
      </trkpt>
      <trkpt lat="45.27768" lon="6.07951">
        <ele>1143</ele>
        <time>2021-12-23T08:30:57Z</time>
      </trkpt>
      <trkpt lat="45.27767" lon="6.07951">
        <ele>1143</ele>
        <time>2021-12-23T08:30:58Z</time>
      </trkpt>
      <trkpt lat="45.27766" lon="6.07951">
        <ele>1144</ele>
        <time>2021-12-23T08:30:59Z</time>
      </trkpt>
      <trkpt lat="45.27765" lon="6.07951">
        <ele>1144</ele>
        <time>2021-12-23T08:31:00Z</time>
      </trkpt>
      <trkpt lat="45.27764" lon="6.07951">
        <ele>1144</ele>
        <time>2021-12-23T08:31:01Z</time>
      </trkpt>
      <trkpt lat="45.27763" lon="6.07951">
        <ele>1144</ele>
        <time>2021-12-23T08:31:02Z</time>
      </trkpt>
      <trkpt lat="45.27763" lon="6.07951">
        <ele>1144</ele>
        <time>2021-12-23T08:31:03Z</time>
      </trkpt>
      <trkpt lat="45.27762" lon="6.07951">
        <ele>1144</ele>
        <time>2021-12-23T08:31:04Z</time>
      </trkpt>
      <trkpt lat="45.27761" lon="6.07951">
        <ele>1144</ele>
        <time>2021-12-23T08:31:05Z</time>
      </trkpt>
      <trkpt lat="45.2776" lon="6.07951">
        <ele>1144</ele>
        <time>2021-12-23T08:31:06Z</time>
      </trkpt>
      <trkpt lat="45.27759" lon="6.07951">
        <ele>1144</ele>
        <time>2021-12-23T08:31:07Z</time>
      </trkpt>
      <trkpt lat="45.27758" lon="6.07952">
        <ele>1144</ele>
        <time>2021-12-23T08:31:08Z</time>
      </trkpt>
      <trkpt lat="45.27756" lon="6.07953">
        <ele>1144</ele>
        <time>2021-12-23T08:31:09Z</time>
      </trkpt>
      <trkpt lat="45.27755" lon="6.07954">
        <ele>1144</ele>
        <time>2021-12-23T08:31:11Z</time>
      </trkpt>
      <trkpt lat="45.27754" lon="6.07955">
        <ele>1145</ele>
        <time>2021-12-23T08:31:12Z</time>
      </trkpt>
      <trkpt lat="45.27752" lon="6.07956">
        <ele>1145</ele>
        <time>2021-12-23T08:31:13Z</time>
      </trkpt>
      <trkpt lat="45.27751" lon="6.07957">
        <ele>1145</ele>
        <time>2021-12-23T08:31:14Z</time>
      </trkpt>
      <trkpt lat="45.27749" lon="6.07957">
        <ele>1145</ele>
        <time>2021-12-23T08:31:15Z</time>
      </trkpt>
      <trkpt lat="45.27748" lon="6.07956">
        <ele>1145</ele>
        <time>2021-12-23T08:31:16Z</time>
      </trkpt>
      <trkpt lat="45.27747" lon="6.07956">
        <ele>1145</ele>
        <time>2021-12-23T08:31:17Z</time>
      </trkpt>
      <trkpt lat="45.27746" lon="6.07956">
        <ele>1145</ele>
        <time>2021-12-23T08:31:18Z</time>
      </trkpt>
      <trkpt lat="45.27745" lon="6.07956">
        <ele>1145</ele>
        <time>2021-12-23T08:31:19Z</time>
      </trkpt>
      <trkpt lat="45.27743" lon="6.07956">
        <ele>1145</ele>
        <time>2021-12-23T08:31:20Z</time>
      </trkpt>
      <trkpt lat="45.27742" lon="6.07955">
        <ele>1145</ele>
        <time>2021-12-23T08:31:21Z</time>
      </trkpt>
      <trkpt lat="45.27741" lon="6.07955">
        <ele>1145</ele>
        <time>2021-12-23T08:31:22Z</time>
      </trkpt>
      <trkpt lat="45.2774" lon="6.07956">
        <ele>1145</ele>
        <time>2021-12-23T08:31:23Z</time>
      </trkpt>
      <trkpt lat="45.27739" lon="6.07956">
        <ele>1145</ele>
        <time>2021-12-23T08:31:24Z</time>
      </trkpt>
      <trkpt lat="45.27738" lon="6.07956">
        <ele>1146</ele>
        <time>2021-12-23T08:31:25Z</time>
      </trkpt>
      <trkpt lat="45.27738" lon="6.07957">
        <ele>1146</ele>
        <time>2021-12-23T08:31:26Z</time>
      </trkpt>
      <trkpt lat="45.27737" lon="6.07957">
        <ele>1146</ele>
        <time>2021-12-23T08:31:27Z</time>
      </trkpt>
      <trkpt lat="45.27736" lon="6.07958">
        <ele>1146</ele>
        <time>2021-12-23T08:31:28Z</time>
      </trkpt>
      <trkpt lat="45.27735" lon="6.07958">
        <ele>1147</ele>
        <time>2021-12-23T08:31:30Z</time>
      </trkpt>
      <trkpt lat="45.27735" lon="6.07958">
        <ele>1147</ele>
        <time>2021-12-23T08:31:31Z</time>
      </trkpt>
      <trkpt lat="45.27734" lon="6.07959">
        <ele>1147</ele>
        <time>2021-12-23T08:31:32Z</time>
      </trkpt>
      <trkpt lat="45.27733" lon="6.07959">
        <ele>1147</ele>
        <time>2021-12-23T08:31:33Z</time>
      </trkpt>
      <trkpt lat="45.27732" lon="6.0796">
        <ele>1147</ele>
        <time>2021-12-23T08:31:34Z</time>
      </trkpt>
      <trkpt lat="45.27731" lon="6.07959">
        <ele>1147</ele>
        <time>2021-12-23T08:31:35Z</time>
      </trkpt>
      <trkpt lat="45.2773" lon="6.07958">
        <ele>1147</ele>
        <time>2021-12-23T08:31:36Z</time>
      </trkpt>
      <trkpt lat="45.27728" lon="6.07958">
        <ele>1147</ele>
        <time>2021-12-23T08:31:37Z</time>
      </trkpt>
      <trkpt lat="45.27727" lon="6.07957">
        <ele>1147</ele>
        <time>2021-12-23T08:31:38Z</time>
      </trkpt>
      <trkpt lat="45.27726" lon="6.07957">
        <ele>1148</ele>
        <time>2021-12-23T08:31:39Z</time>
      </trkpt>
      <trkpt lat="45.27725" lon="6.07956">
        <ele>1148</ele>
        <time>2021-12-23T08:31:40Z</time>
      </trkpt>
      <trkpt lat="45.27723" lon="6.07955">
        <ele>1148</ele>
        <time>2021-12-23T08:31:41Z</time>
      </trkpt>
      <trkpt lat="45.27722" lon="6.07955">
        <ele>1148</ele>
        <time>2021-12-23T08:31:42Z</time>
      </trkpt>
      <trkpt lat="45.27721" lon="6.07954">
        <ele>1148</ele>
        <time>2021-12-23T08:31:43Z</time>
      </trkpt>
      <trkpt lat="45.27719" lon="6.07953">
        <ele>1148</ele>
        <time>2021-12-23T08:31:44Z</time>
      </trkpt>
      <trkpt lat="45.27718" lon="6.07952">
        <ele>1148</ele>
        <time>2021-12-23T08:31:45Z</time>
      </trkpt>
      <trkpt lat="45.27716" lon="6.07951">
        <ele>1148</ele>
        <time>2021-12-23T08:31:46Z</time>
      </trkpt>
      <trkpt lat="45.27715" lon="6.0795">
        <ele>1148</ele>
        <time>2021-12-23T08:31:47Z</time>
      </trkpt>
      <trkpt lat="45.27715" lon="6.0795">
        <ele>1148</ele>
        <time>2021-12-23T08:31:49Z</time>
      </trkpt>
      <trkpt lat="45.27715" lon="6.0795">
        <ele>1148</ele>
        <time>2021-12-23T08:31:50Z</time>
      </trkpt>
      <trkpt lat="45.27715" lon="6.0795">
        <ele>1148</ele>
        <time>2021-12-23T08:31:51Z</time>
      </trkpt>
      <trkpt lat="45.27715" lon="6.0795">
        <ele>1148</ele>
        <time>2021-12-23T08:31:52Z</time>
      </trkpt>
      <trkpt lat="45.27715" lon="6.0795">
        <ele>1148</ele>
        <time>2021-12-23T08:31:53Z</time>
      </trkpt>
      <trkpt lat="45.27715" lon="6.0795">
        <ele>1149</ele>
        <time>2021-12-23T08:31:54Z</time>
      </trkpt>
      <trkpt lat="45.27715" lon="6.0795">
        <ele>1150</ele>
        <time>2021-12-23T08:31:55Z</time>
      </trkpt>
      <trkpt lat="45.27715" lon="6.0795">
        <ele>1150</ele>
        <time>2021-12-23T08:31:56Z</time>
      </trkpt>
      <trkpt lat="45.27715" lon="6.0795">
        <ele>1150</ele>
        <time>2021-12-23T08:31:57Z</time>
      </trkpt>
      <trkpt lat="45.27715" lon="6.0795">
        <ele>1150</ele>
        <time>2021-12-23T08:31:58Z</time>
      </trkpt>
      <trkpt lat="45.27706" lon="6.0795">
        <ele>1150</ele>
        <time>2021-12-23T08:31:59Z</time>
      </trkpt>
      <trkpt lat="45.27706" lon="6.0795">
        <ele>1151</ele>
        <time>2021-12-23T08:32:01Z</time>
      </trkpt>
      <trkpt lat="45.27705" lon="6.07949">
        <ele>1151</ele>
        <time>2021-12-23T08:32:02Z</time>
      </trkpt>
      <trkpt lat="45.27704" lon="6.07949">
        <ele>1151</ele>
        <time>2021-12-23T08:32:03Z</time>
      </trkpt>
      <trkpt lat="45.27703" lon="6.07949">
        <ele>1151</ele>
        <time>2021-12-23T08:32:04Z</time>
      </trkpt>
      <trkpt lat="45.27703" lon="6.07949">
        <ele>1151</ele>
        <time>2021-12-23T08:32:05Z</time>
      </trkpt>
      <trkpt lat="45.27702" lon="6.07949">
        <ele>1152</ele>
        <time>2021-12-23T08:32:06Z</time>
      </trkpt>
      <trkpt lat="45.27701" lon="6.07949">
        <ele>1152</ele>
        <time>2021-12-23T08:32:08Z</time>
      </trkpt>
      <trkpt lat="45.277" lon="6.07949">
        <ele>1152</ele>
        <time>2021-12-23T08:32:09Z</time>
      </trkpt>
      <trkpt lat="45.277" lon="6.07949">
        <ele>1152</ele>
        <time>2021-12-23T08:32:10Z</time>
      </trkpt>
      <trkpt lat="45.27699" lon="6.07949">
        <ele>1152</ele>
        <time>2021-12-23T08:32:11Z</time>
      </trkpt>
      <trkpt lat="45.27698" lon="6.07948">
        <ele>1152</ele>
        <time>2021-12-23T08:32:12Z</time>
      </trkpt>
      <trkpt lat="45.27697" lon="6.07948">
        <ele>1152</ele>
        <time>2021-12-23T08:32:13Z</time>
      </trkpt>
      <trkpt lat="45.27697" lon="6.07948">
        <ele>1152</ele>
        <time>2021-12-23T08:32:14Z</time>
      </trkpt>
      <trkpt lat="45.27695" lon="6.07948">
        <ele>1153</ele>
        <time>2021-12-23T08:32:15Z</time>
      </trkpt>
      <trkpt lat="45.27693" lon="6.07947">
        <ele>1153</ele>
        <time>2021-12-23T08:32:16Z</time>
      </trkpt>
      <trkpt lat="45.27691" lon="6.07946">
        <ele>1153</ele>
        <time>2021-12-23T08:32:17Z</time>
      </trkpt>
      <trkpt lat="45.27689" lon="6.07945">
        <ele>1153</ele>
        <time>2021-12-23T08:32:18Z</time>
      </trkpt>
      <trkpt lat="45.27687" lon="6.07945">
        <ele>1153</ele>
        <time>2021-12-23T08:32:19Z</time>
      </trkpt>
      <trkpt lat="45.27685" lon="6.07945">
        <ele>1153</ele>
        <time>2021-12-23T08:32:20Z</time>
      </trkpt>
      <trkpt lat="45.27683" lon="6.07945">
        <ele>1153</ele>
        <time>2021-12-23T08:32:21Z</time>
      </trkpt>
      <trkpt lat="45.27681" lon="6.07945">
        <ele>1153</ele>
        <time>2021-12-23T08:32:22Z</time>
      </trkpt>
      <trkpt lat="45.2768" lon="6.07946">
        <ele>1153</ele>
        <time>2021-12-23T08:32:23Z</time>
      </trkpt>
      <trkpt lat="45.27678" lon="6.07946">
        <ele>1153</ele>
        <time>2021-12-23T08:32:24Z</time>
      </trkpt>
      <trkpt lat="45.27676" lon="6.07946">
        <ele>1153</ele>
        <time>2021-12-23T08:32:25Z</time>
      </trkpt>
      <trkpt lat="45.27674" lon="6.07947">
        <ele>1153</ele>
        <time>2021-12-23T08:32:27Z</time>
      </trkpt>
      <trkpt lat="45.27673" lon="6.07947">
        <ele>1153</ele>
        <time>2021-12-23T08:32:28Z</time>
      </trkpt>
      <trkpt lat="45.27671" lon="6.07948">
        <ele>1153</ele>
        <time>2021-12-23T08:32:29Z</time>
      </trkpt>
      <trkpt lat="45.2767" lon="6.07949">
        <ele>1153</ele>
        <time>2021-12-23T08:32:30Z</time>
      </trkpt>
      <trkpt lat="45.27668" lon="6.07949">
        <ele>1153</ele>
        <time>2021-12-23T08:32:31Z</time>
      </trkpt>
      <trkpt lat="45.27666" lon="6.0795">
        <ele>1153</ele>
        <time>2021-12-23T08:32:32Z</time>
      </trkpt>
      <trkpt lat="45.27666" lon="6.0795">
        <ele>1154</ele>
        <time>2021-12-23T08:32:33Z</time>
      </trkpt>
      <trkpt lat="45.27666" lon="6.0795">
        <ele>1155</ele>
        <time>2021-12-23T08:32:34Z</time>
      </trkpt>
      <trkpt lat="45.27666" lon="6.0795">
        <ele>1155</ele>
        <time>2021-12-23T08:32:35Z</time>
      </trkpt>
      <trkpt lat="45.27666" lon="6.0795">
        <ele>1155</ele>
        <time>2021-12-23T08:32:36Z</time>
      </trkpt>
      <trkpt lat="45.27666" lon="6.0795">
        <ele>1155</ele>
        <time>2021-12-23T08:32:37Z</time>
      </trkpt>
      <trkpt lat="45.27666" lon="6.0795">
        <ele>1155</ele>
        <time>2021-12-23T08:32:38Z</time>
      </trkpt>
      <trkpt lat="45.27666" lon="6.0795">
        <ele>1155</ele>
        <time>2021-12-23T08:32:39Z</time>
      </trkpt>
      <trkpt lat="45.27666" lon="6.0795">
        <ele>1156</ele>
        <time>2021-12-23T08:32:40Z</time>
      </trkpt>
      <trkpt lat="45.27666" lon="6.0795">
        <ele>1156</ele>
        <time>2021-12-23T08:32:41Z</time>
      </trkpt>
      <trkpt lat="45.27666" lon="6.0795">
        <ele>1156</ele>
        <time>2021-12-23T08:32:43Z</time>
      </trkpt>
      <trkpt lat="45.27662" lon="6.0796">
        <ele>1156</ele>
        <time>2021-12-23T08:32:44Z</time>
      </trkpt>
      <trkpt lat="45.27662" lon="6.0796">
        <ele>1157</ele>
        <time>2021-12-23T08:32:46Z</time>
      </trkpt>
      <trkpt lat="45.27661" lon="6.07961">
        <ele>1157</ele>
        <time>2021-12-23T08:32:47Z</time>
      </trkpt>
      <trkpt lat="45.2766" lon="6.07961">
        <ele>1157</ele>
        <time>2021-12-23T08:32:48Z</time>
      </trkpt>
      <trkpt lat="45.27659" lon="6.07961">
        <ele>1157</ele>
        <time>2021-12-23T08:32:49Z</time>
      </trkpt>
      <trkpt lat="45.27658" lon="6.07962">
        <ele>1157</ele>
        <time>2021-12-23T08:32:50Z</time>
      </trkpt>
      <trkpt lat="45.27657" lon="6.07962">
        <ele>1157</ele>
        <time>2021-12-23T08:32:51Z</time>
      </trkpt>
      <trkpt lat="45.27656" lon="6.07962">
        <ele>1157</ele>
        <time>2021-12-23T08:32:52Z</time>
      </trkpt>
      <trkpt lat="45.27656" lon="6.07963">
        <ele>1157</ele>
        <time>2021-12-23T08:32:53Z</time>
      </trkpt>
      <trkpt lat="45.27655" lon="6.07963">
        <ele>1157</ele>
        <time>2021-12-23T08:32:54Z</time>
      </trkpt>
      <trkpt lat="45.27654" lon="6.07963">
        <ele>1158</ele>
        <time>2021-12-23T08:32:55Z</time>
      </trkpt>
      <trkpt lat="45.27653" lon="6.07964">
        <ele>1158</ele>
        <time>2021-12-23T08:32:56Z</time>
      </trkpt>
      <trkpt lat="45.27652" lon="6.07964">
        <ele>1158</ele>
        <time>2021-12-23T08:32:57Z</time>
      </trkpt>
      <trkpt lat="45.27652" lon="6.07964">
        <ele>1158</ele>
        <time>2021-12-23T08:32:58Z</time>
      </trkpt>
      <trkpt lat="45.27652" lon="6.07965">
        <ele>1158</ele>
        <time>2021-12-23T08:32:59Z</time>
      </trkpt>
      <trkpt lat="45.27651" lon="6.07965">
        <ele>1158</ele>
        <time>2021-12-23T08:33:00Z</time>
      </trkpt>
      <trkpt lat="45.27651" lon="6.07965">
        <ele>1158</ele>
        <time>2021-12-23T08:33:01Z</time>
      </trkpt>
      <trkpt lat="45.2765" lon="6.07965">
        <ele>1158</ele>
        <time>2021-12-23T08:33:02Z</time>
      </trkpt>
      <trkpt lat="45.2765" lon="6.07966">
        <ele>1159</ele>
        <time>2021-12-23T08:33:03Z</time>
      </trkpt>
      <trkpt lat="45.27649" lon="6.07966">
        <ele>1159</ele>
        <time>2021-12-23T08:33:05Z</time>
      </trkpt>
      <trkpt lat="45.27649" lon="6.07966">
        <ele>1159</ele>
        <time>2021-12-23T08:33:06Z</time>
      </trkpt>
      <trkpt lat="45.27648" lon="6.07967">
        <ele>1160</ele>
        <time>2021-12-23T08:33:07Z</time>
      </trkpt>
      <trkpt lat="45.27648" lon="6.07967">
        <ele>1160</ele>
        <time>2021-12-23T08:33:08Z</time>
      </trkpt>
      <trkpt lat="45.27643" lon="6.0797">
        <ele>1160</ele>
        <time>2021-12-23T08:33:09Z</time>
      </trkpt>
      <trkpt lat="45.27643" lon="6.07971">
        <ele>1160</ele>
        <time>2021-12-23T08:33:10Z</time>
      </trkpt>
      <trkpt lat="45.27642" lon="6.07971">
        <ele>1160</ele>
        <time>2021-12-23T08:33:11Z</time>
      </trkpt>
      <trkpt lat="45.27642" lon="6.07971">
        <ele>1160</ele>
        <time>2021-12-23T08:33:12Z</time>
      </trkpt>
      <trkpt lat="45.27642" lon="6.07971">
        <ele>1160</ele>
        <time>2021-12-23T08:33:13Z</time>
      </trkpt>
      <trkpt lat="45.27641" lon="6.07971">
        <ele>1160</ele>
        <time>2021-12-23T08:33:14Z</time>
      </trkpt>
      <trkpt lat="45.27641" lon="6.07972">
        <ele>1161</ele>
        <time>2021-12-23T08:33:15Z</time>
      </trkpt>
      <trkpt lat="45.27641" lon="6.07972">
        <ele>1161</ele>
        <time>2021-12-23T08:33:16Z</time>
      </trkpt>
      <trkpt lat="45.27641" lon="6.07972">
        <ele>1161</ele>
        <time>2021-12-23T08:33:17Z</time>
      </trkpt>
      <trkpt lat="45.2764" lon="6.07972">
        <ele>1161</ele>
        <time>2021-12-23T08:33:18Z</time>
      </trkpt>
      <trkpt lat="45.2764" lon="6.07973">
        <ele>1161</ele>
        <time>2021-12-23T08:33:20Z</time>
      </trkpt>
      <trkpt lat="45.2764" lon="6.07973">
        <ele>1162</ele>
        <time>2021-12-23T08:33:21Z</time>
      </trkpt>
      <trkpt lat="45.27639" lon="6.07973">
        <ele>1162</ele>
        <time>2021-12-23T08:33:22Z</time>
      </trkpt>
      <trkpt lat="45.27639" lon="6.07973">
        <ele>1162</ele>
        <time>2021-12-23T08:33:24Z</time>
      </trkpt>
      <trkpt lat="45.27639" lon="6.07973">
        <ele>1162</ele>
        <time>2021-12-23T08:33:25Z</time>
      </trkpt>
      <trkpt lat="45.27634" lon="6.07978">
        <ele>1162</ele>
        <time>2021-12-23T08:33:26Z</time>
      </trkpt>
      <trkpt lat="45.27634" lon="6.07979">
        <ele>1162</ele>
        <time>2021-12-23T08:33:27Z</time>
      </trkpt>
      <trkpt lat="45.27634" lon="6.0798">
        <ele>1162</ele>
        <time>2021-12-23T08:33:28Z</time>
      </trkpt>
      <trkpt lat="45.27634" lon="6.07981">
        <ele>1162</ele>
        <time>2021-12-23T08:33:29Z</time>
      </trkpt>
      <trkpt lat="45.27634" lon="6.07981">
        <ele>1163</ele>
        <time>2021-12-23T08:33:31Z</time>
      </trkpt>
      <trkpt lat="45.27634" lon="6.07982">
        <ele>1163</ele>
        <time>2021-12-23T08:33:32Z</time>
      </trkpt>
      <trkpt lat="45.27634" lon="6.07983">
        <ele>1164</ele>
        <time>2021-12-23T08:33:33Z</time>
      </trkpt>
      <trkpt lat="45.27633" lon="6.07984">
        <ele>1164</ele>
        <time>2021-12-23T08:33:34Z</time>
      </trkpt>
      <trkpt lat="45.27632" lon="6.07992">
        <ele>1164</ele>
        <time>2021-12-23T08:33:35Z</time>
      </trkpt>
      <trkpt lat="45.27631" lon="6.07992">
        <ele>1164</ele>
        <time>2021-12-23T08:33:36Z</time>
      </trkpt>
      <trkpt lat="45.2763" lon="6.07992">
        <ele>1164</ele>
        <time>2021-12-23T08:33:37Z</time>
      </trkpt>
      <trkpt lat="45.27629" lon="6.07992">
        <ele>1164</ele>
        <time>2021-12-23T08:33:38Z</time>
      </trkpt>
      <trkpt lat="45.27629" lon="6.07992">
        <ele>1164</ele>
        <time>2021-12-23T08:33:39Z</time>
      </trkpt>
      <trkpt lat="45.27628" lon="6.07992">
        <ele>1164</ele>
        <time>2021-12-23T08:33:40Z</time>
      </trkpt>
      <trkpt lat="45.27627" lon="6.07992">
        <ele>1164</ele>
        <time>2021-12-23T08:33:41Z</time>
      </trkpt>
      <trkpt lat="45.27626" lon="6.07992">
        <ele>1164</ele>
        <time>2021-12-23T08:33:43Z</time>
      </trkpt>
      <trkpt lat="45.27626" lon="6.07992">
        <ele>1165</ele>
        <time>2021-12-23T08:33:44Z</time>
      </trkpt>
      <trkpt lat="45.27625" lon="6.07992">
        <ele>1165</ele>
        <time>2021-12-23T08:33:46Z</time>
      </trkpt>
      <trkpt lat="45.27624" lon="6.07992">
        <ele>1166</ele>
        <time>2021-12-23T08:33:48Z</time>
      </trkpt>
      <trkpt lat="45.27623" lon="6.07991">
        <ele>1166</ele>
        <time>2021-12-23T08:33:49Z</time>
      </trkpt>
      <trkpt lat="45.27623" lon="6.07995">
        <ele>1166</ele>
        <time>2021-12-23T08:33:50Z</time>
      </trkpt>
      <trkpt lat="45.27623" lon="6.07998">
        <ele>1167</ele>
        <time>2021-12-23T08:33:51Z</time>
      </trkpt>
      <trkpt lat="45.27623" lon="6.08002">
        <ele>1167</ele>
        <time>2021-12-23T08:33:53Z</time>
      </trkpt>
      <trkpt lat="45.27624" lon="6.08005">
        <ele>1167</ele>
        <time>2021-12-23T08:33:54Z</time>
      </trkpt>
      <trkpt lat="45.27623" lon="6.08007">
        <ele>1167</ele>
        <time>2021-12-23T08:33:55Z</time>
      </trkpt>
      <trkpt lat="45.27622" lon="6.08009">
        <ele>1167</ele>
        <time>2021-12-23T08:33:56Z</time>
      </trkpt>
      <trkpt lat="45.27621" lon="6.0801">
        <ele>1167</ele>
        <time>2021-12-23T08:33:57Z</time>
      </trkpt>
      <trkpt lat="45.2762" lon="6.08012">
        <ele>1167</ele>
        <time>2021-12-23T08:33:58Z</time>
      </trkpt>
      <trkpt lat="45.27619" lon="6.08014">
        <ele>1167</ele>
        <time>2021-12-23T08:33:59Z</time>
      </trkpt>
      <trkpt lat="45.27618" lon="6.08016">
        <ele>1168</ele>
        <time>2021-12-23T08:34:00Z</time>
      </trkpt>
      <trkpt lat="45.27616" lon="6.08017">
        <ele>1168</ele>
        <time>2021-12-23T08:34:02Z</time>
      </trkpt>
      <trkpt lat="45.27615" lon="6.08018">
        <ele>1168</ele>
        <time>2021-12-23T08:34:03Z</time>
      </trkpt>
      <trkpt lat="45.27613" lon="6.0802">
        <ele>1168</ele>
        <time>2021-12-23T08:34:04Z</time>
      </trkpt>
      <trkpt lat="45.27611" lon="6.08021">
        <ele>1168</ele>
        <time>2021-12-23T08:34:05Z</time>
      </trkpt>
      <trkpt lat="45.2761" lon="6.08023">
        <ele>1168</ele>
        <time>2021-12-23T08:34:06Z</time>
      </trkpt>
      <trkpt lat="45.27609" lon="6.08023">
        <ele>1168</ele>
        <time>2021-12-23T08:34:07Z</time>
      </trkpt>
      <trkpt lat="45.27609" lon="6.08023">
        <ele>1168</ele>
        <time>2021-12-23T08:34:08Z</time>
      </trkpt>
      <trkpt lat="45.27608" lon="6.08023">
        <ele>1168</ele>
        <time>2021-12-23T08:34:09Z</time>
      </trkpt>
      <trkpt lat="45.27607" lon="6.08024">
        <ele>1168</ele>
        <time>2021-12-23T08:34:10Z</time>
      </trkpt>
      <trkpt lat="45.27607" lon="6.08024">
        <ele>1168</ele>
        <time>2021-12-23T08:34:11Z</time>
      </trkpt>
      <trkpt lat="45.27606" lon="6.08024">
        <ele>1168</ele>
        <time>2021-12-23T08:34:12Z</time>
      </trkpt>
      <trkpt lat="45.27605" lon="6.08024">
        <ele>1168</ele>
        <time>2021-12-23T08:34:13Z</time>
      </trkpt>
      <trkpt lat="45.27605" lon="6.08025">
        <ele>1169</ele>
        <time>2021-12-23T08:34:14Z</time>
      </trkpt>
      <trkpt lat="45.27604" lon="6.08025">
        <ele>1169</ele>
        <time>2021-12-23T08:34:15Z</time>
      </trkpt>
      <trkpt lat="45.27603" lon="6.08025">
        <ele>1169</ele>
        <time>2021-12-23T08:34:16Z</time>
      </trkpt>
      <trkpt lat="45.27603" lon="6.08025">
        <ele>1169</ele>
        <time>2021-12-23T08:34:17Z</time>
      </trkpt>
      <trkpt lat="45.27602" lon="6.08026">
        <ele>1169</ele>
        <time>2021-12-23T08:34:18Z</time>
      </trkpt>
      <trkpt lat="45.27601" lon="6.08026">
        <ele>1170</ele>
        <time>2021-12-23T08:34:19Z</time>
      </trkpt>
      <trkpt lat="45.27601" lon="6.08025">
        <ele>1169</ele>
        <time>2021-12-23T08:34:21Z</time>
      </trkpt>
      <trkpt lat="45.27601" lon="6.08025">
        <ele>1169</ele>
        <time>2021-12-23T08:34:22Z</time>
      </trkpt>
      <trkpt lat="45.27601" lon="6.08024">
        <ele>1169</ele>
        <time>2021-12-23T08:34:23Z</time>
      </trkpt>
      <trkpt lat="45.27601" lon="6.08024">
        <ele>1169</ele>
        <time>2021-12-23T08:34:24Z</time>
      </trkpt>
      <trkpt lat="45.27601" lon="6.08024">
        <ele>1169</ele>
        <time>2021-12-23T08:34:25Z</time>
      </trkpt>
      <trkpt lat="45.27601" lon="6.08023">
        <ele>1169</ele>
        <time>2021-12-23T08:34:26Z</time>
      </trkpt>
      <trkpt lat="45.27601" lon="6.08023">
        <ele>1170</ele>
        <time>2021-12-23T08:34:27Z</time>
      </trkpt>
      <trkpt lat="45.27601" lon="6.08022">
        <ele>1170</ele>
        <time>2021-12-23T08:34:28Z</time>
      </trkpt>
      <trkpt lat="45.27602" lon="6.08022">
        <ele>1170</ele>
        <time>2021-12-23T08:34:29Z</time>
      </trkpt>
      <trkpt lat="45.27602" lon="6.08021">
        <ele>1170</ele>
        <time>2021-12-23T08:34:30Z</time>
      </trkpt>
      <trkpt lat="45.27602" lon="6.08021">
        <ele>1170</ele>
        <time>2021-12-23T08:34:31Z</time>
      </trkpt>
      <trkpt lat="45.27602" lon="6.08021">
        <ele>1169</ele>
        <time>2021-12-23T08:34:33Z</time>
      </trkpt>
      <trkpt lat="45.27602" lon="6.0802">
        <ele>1169</ele>
        <time>2021-12-23T08:34:34Z</time>
      </trkpt>
      <trkpt lat="45.27602" lon="6.0802">
        <ele>1169</ele>
        <time>2021-12-23T08:34:35Z</time>
      </trkpt>
      <trkpt lat="45.27602" lon="6.08019">
        <ele>1169</ele>
        <time>2021-12-23T08:34:36Z</time>
      </trkpt>
      <trkpt lat="45.27602" lon="6.08019">
        <ele>1169</ele>
        <time>2021-12-23T08:34:37Z</time>
      </trkpt>
      <trkpt lat="45.27602" lon="6.08018">
        <ele>1169</ele>
        <time>2021-12-23T08:34:38Z</time>
      </trkpt>
      <trkpt lat="45.27602" lon="6.08018">
        <ele>1170</ele>
        <time>2021-12-23T08:34:40Z</time>
      </trkpt>
      <trkpt lat="45.27602" lon="6.08018">
        <ele>1170</ele>
        <time>2021-12-23T08:34:41Z</time>
      </trkpt>
      <trkpt lat="45.27602" lon="6.08017">
        <ele>1170</ele>
        <time>2021-12-23T08:34:43Z</time>
      </trkpt>
      <trkpt lat="45.27602" lon="6.08017">
        <ele>1170</ele>
        <time>2021-12-23T08:34:44Z</time>
      </trkpt>
      <trkpt lat="45.27602" lon="6.08016">
        <ele>1170</ele>
        <time>2021-12-23T08:34:45Z</time>
      </trkpt>
      <trkpt lat="45.27602" lon="6.08016">
        <ele>1171</ele>
        <time>2021-12-23T08:34:46Z</time>
      </trkpt>
      <trkpt lat="45.27602" lon="6.08015">
        <ele>1171</ele>
        <time>2021-12-23T08:34:48Z</time>
      </trkpt>
      <trkpt lat="45.27602" lon="6.08015">
        <ele>1171</ele>
        <time>2021-12-23T08:34:49Z</time>
      </trkpt>
      <trkpt lat="45.27602" lon="6.08015">
        <ele>1171</ele>
        <time>2021-12-23T08:34:50Z</time>
      </trkpt>
      <trkpt lat="45.27602" lon="6.08014">
        <ele>1170</ele>
        <time>2021-12-23T08:34:52Z</time>
      </trkpt>
      <trkpt lat="45.27602" lon="6.08014">
        <ele>1170</ele>
        <time>2021-12-23T08:34:53Z</time>
      </trkpt>
      <trkpt lat="45.27602" lon="6.08013">
        <ele>1169</ele>
        <time>2021-12-23T08:34:54Z</time>
      </trkpt>
      <trkpt lat="45.27602" lon="6.08013">
        <ele>1169</ele>
        <time>2021-12-23T08:34:55Z</time>
      </trkpt>
      <trkpt lat="45.27602" lon="6.08012">
        <ele>1168</ele>
        <time>2021-12-23T08:34:56Z</time>
      </trkpt>
      <trkpt lat="45.27602" lon="6.08013">
        <ele>1169</ele>
        <time>2021-12-23T08:34:57Z</time>
      </trkpt>
      <trkpt lat="45.27602" lon="6.08013">
        <ele>1169</ele>
        <time>2021-12-23T08:34:59Z</time>
      </trkpt>
      <trkpt lat="45.27602" lon="6.08013">
        <ele>1169</ele>
        <time>2021-12-23T08:35:00Z</time>
      </trkpt>
      <trkpt lat="45.27602" lon="6.08013">
        <ele>1169</ele>
        <time>2021-12-23T08:35:01Z</time>
      </trkpt>
      <trkpt lat="45.27602" lon="6.08014">
        <ele>1169</ele>
        <time>2021-12-23T08:35:03Z</time>
      </trkpt>
      <trkpt lat="45.27602" lon="6.08014">
        <ele>1169</ele>
        <time>2021-12-23T08:35:04Z</time>
      </trkpt>
      <trkpt lat="45.27602" lon="6.08014">
        <ele>1169</ele>
        <time>2021-12-23T08:35:05Z</time>
      </trkpt>
      <trkpt lat="45.27601" lon="6.08014">
        <ele>1169</ele>
        <time>2021-12-23T08:35:06Z</time>
      </trkpt>
      <trkpt lat="45.27601" lon="6.08015">
        <ele>1169</ele>
        <time>2021-12-23T08:35:07Z</time>
      </trkpt>
      <trkpt lat="45.27601" lon="6.08015">
        <ele>1169</ele>
        <time>2021-12-23T08:35:08Z</time>
      </trkpt>
      <trkpt lat="45.27601" lon="6.08015">
        <ele>1169</ele>
        <time>2021-12-23T08:35:09Z</time>
      </trkpt>
      <trkpt lat="45.27601" lon="6.08015">
        <ele>1169</ele>
        <time>2021-12-23T08:35:10Z</time>
      </trkpt>
      <trkpt lat="45.27601" lon="6.08016">
        <ele>1169</ele>
        <time>2021-12-23T08:35:11Z</time>
      </trkpt>
      <trkpt lat="45.27601" lon="6.08016">
        <ele>1169</ele>
        <time>2021-12-23T08:35:13Z</time>
      </trkpt>
      <trkpt lat="45.27601" lon="6.08016">
        <ele>1168</ele>
        <time>2021-12-23T08:35:14Z</time>
      </trkpt>
      <trkpt lat="45.27601" lon="6.08016">
        <ele>1169</ele>
        <time>2021-12-23T08:35:15Z</time>
      </trkpt>
      <trkpt lat="45.27601" lon="6.08017">
        <ele>1170</ele>
        <time>2021-12-23T08:35:16Z</time>
      </trkpt>
      <trkpt lat="45.27601" lon="6.08017">
        <ele>1170</ele>
        <time>2021-12-23T08:35:18Z</time>
      </trkpt>
      <trkpt lat="45.27601" lon="6.08017">
        <ele>1170</ele>
        <time>2021-12-23T08:35:20Z</time>
      </trkpt>
      <trkpt lat="45.276" lon="6.08017">
        <ele>1170</ele>
        <time>2021-12-23T08:35:21Z</time>
      </trkpt>
      <trkpt lat="45.276" lon="6.08018">
        <ele>1170</ele>
        <time>2021-12-23T08:35:22Z</time>
      </trkpt>
      <trkpt lat="45.276" lon="6.08018">
        <ele>1170</ele>
        <time>2021-12-23T08:35:23Z</time>
      </trkpt>
      <trkpt lat="45.276" lon="6.08018">
        <ele>1170</ele>
        <time>2021-12-23T08:35:24Z</time>
      </trkpt>
      <trkpt lat="45.276" lon="6.08018">
        <ele>1169</ele>
        <time>2021-12-23T08:35:25Z</time>
      </trkpt>
      <trkpt lat="45.276" lon="6.08019">
        <ele>1169</ele>
        <time>2021-12-23T08:35:26Z</time>
      </trkpt>
      <trkpt lat="45.276" lon="6.08019">
        <ele>1169</ele>
        <time>2021-12-23T08:35:27Z</time>
      </trkpt>
      <trkpt lat="45.276" lon="6.08019">
        <ele>1169</ele>
        <time>2021-12-23T08:35:28Z</time>
      </trkpt>
      <trkpt lat="45.276" lon="6.08019">
        <ele>1169</ele>
        <time>2021-12-23T08:35:29Z</time>
      </trkpt>
      <trkpt lat="45.276" lon="6.08019">
        <ele>1169</ele>
        <time>2021-12-23T08:35:30Z</time>
      </trkpt>
      <trkpt lat="45.276" lon="6.0802">
        <ele>1169</ele>
        <time>2021-12-23T08:35:31Z</time>
      </trkpt>
      <trkpt lat="45.27599" lon="6.0802">
        <ele>1169</ele>
        <time>2021-12-23T08:35:33Z</time>
      </trkpt>
      <trkpt lat="45.27599" lon="6.0802">
        <ele>1169</ele>
        <time>2021-12-23T08:35:34Z</time>
      </trkpt>
      <trkpt lat="45.27599" lon="6.0802">
        <ele>1169</ele>
        <time>2021-12-23T08:35:35Z</time>
      </trkpt>
      <trkpt lat="45.27599" lon="6.08021">
        <ele>1169</ele>
        <time>2021-12-23T08:35:37Z</time>
      </trkpt>
      <trkpt lat="45.27599" lon="6.08021">
        <ele>1169</ele>
        <time>2021-12-23T08:35:38Z</time>
      </trkpt>
      <trkpt lat="45.27596" lon="6.0803">
        <ele>1169</ele>
        <time>2021-12-23T08:35:39Z</time>
      </trkpt>
      <trkpt lat="45.27596" lon="6.0803">
        <ele>1169</ele>
        <time>2021-12-23T08:35:40Z</time>
      </trkpt>
      <trkpt lat="45.27596" lon="6.0803">
        <ele>1169</ele>
        <time>2021-12-23T08:35:41Z</time>
      </trkpt>
      <trkpt lat="45.27596" lon="6.0803">
        <ele>1169</ele>
        <time>2021-12-23T08:35:43Z</time>
      </trkpt>
      <trkpt lat="45.27596" lon="6.0803">
        <ele>1169</ele>
        <time>2021-12-23T08:35:44Z</time>
      </trkpt>
      <trkpt lat="45.27596" lon="6.08031">
        <ele>1169</ele>
        <time>2021-12-23T08:35:45Z</time>
      </trkpt>
      <trkpt lat="45.27596" lon="6.08031">
        <ele>1169</ele>
        <time>2021-12-23T08:35:46Z</time>
      </trkpt>
      <trkpt lat="45.27596" lon="6.08031">
        <ele>1169</ele>
        <time>2021-12-23T08:35:47Z</time>
      </trkpt>
      <trkpt lat="45.27596" lon="6.08031">
        <ele>1169</ele>
        <time>2021-12-23T08:35:48Z</time>
      </trkpt>
      <trkpt lat="45.27596" lon="6.08031">
        <ele>1169</ele>
        <time>2021-12-23T08:35:50Z</time>
      </trkpt>
      <trkpt lat="45.27596" lon="6.08032">
        <ele>1169</ele>
        <time>2021-12-23T08:35:52Z</time>
      </trkpt>
      <trkpt lat="45.27596" lon="6.08032">
        <ele>1169</ele>
        <time>2021-12-23T08:35:53Z</time>
      </trkpt>
      <trkpt lat="45.27596" lon="6.08032">
        <ele>1169</ele>
        <time>2021-12-23T08:35:54Z</time>
      </trkpt>
      <trkpt lat="45.27596" lon="6.08032">
        <ele>1169</ele>
        <time>2021-12-23T08:35:56Z</time>
      </trkpt>
      <trkpt lat="45.27596" lon="6.08033">
        <ele>1169</ele>
        <time>2021-12-23T08:35:57Z</time>
      </trkpt>
      <trkpt lat="45.27596" lon="6.08033">
        <ele>1169</ele>
        <time>2021-12-23T08:35:58Z</time>
      </trkpt>
      <trkpt lat="45.27596" lon="6.08033">
        <ele>1169</ele>
        <time>2021-12-23T08:36:00Z</time>
      </trkpt>
      <trkpt lat="45.27596" lon="6.08033">
        <ele>1169</ele>
        <time>2021-12-23T08:36:01Z</time>
      </trkpt>
      <trkpt lat="45.27596" lon="6.08033">
        <ele>1169</ele>
        <time>2021-12-23T08:36:02Z</time>
      </trkpt>
      <trkpt lat="45.27596" lon="6.08034">
        <ele>1169</ele>
        <time>2021-12-23T08:36:03Z</time>
      </trkpt>
      <trkpt lat="45.27596" lon="6.08034">
        <ele>1169</ele>
        <time>2021-12-23T08:36:04Z</time>
      </trkpt>
      <trkpt lat="45.27596" lon="6.08034">
        <ele>1169</ele>
        <time>2021-12-23T08:36:05Z</time>
      </trkpt>
      <trkpt lat="45.27596" lon="6.08034">
        <ele>1169</ele>
        <time>2021-12-23T08:36:06Z</time>
      </trkpt>
      <trkpt lat="45.27596" lon="6.08034">
        <ele>1169</ele>
        <time>2021-12-23T08:36:07Z</time>
      </trkpt>
      <trkpt lat="45.27596" lon="6.08035">
        <ele>1169</ele>
        <time>2021-12-23T08:36:08Z</time>
      </trkpt>
      <trkpt lat="45.27596" lon="6.08035">
        <ele>1169</ele>
        <time>2021-12-23T08:36:09Z</time>
      </trkpt>
      <trkpt lat="45.27596" lon="6.08035">
        <ele>1169</ele>
        <time>2021-12-23T08:36:10Z</time>
      </trkpt>
      <trkpt lat="45.27596" lon="6.08035">
        <ele>1170</ele>
        <time>2021-12-23T08:36:12Z</time>
      </trkpt>
      <trkpt lat="45.27596" lon="6.08035">
        <ele>1170</ele>
        <time>2021-12-23T08:36:13Z</time>
      </trkpt>
      <trkpt lat="45.27596" lon="6.08036">
        <ele>1170</ele>
        <time>2021-12-23T08:36:15Z</time>
      </trkpt>
      <trkpt lat="45.27596" lon="6.08036">
        <ele>1170</ele>
        <time>2021-12-23T08:36:16Z</time>
      </trkpt>
      <trkpt lat="45.27596" lon="6.08036">
        <ele>1170</ele>
        <time>2021-12-23T08:36:17Z</time>
      </trkpt>
      <trkpt lat="45.27596" lon="6.08036">
        <ele>1170</ele>
        <time>2021-12-23T08:36:18Z</time>
      </trkpt>
      <trkpt lat="45.27596" lon="6.08036">
        <ele>1170</ele>
        <time>2021-12-23T08:36:19Z</time>
      </trkpt>
      <trkpt lat="45.27596" lon="6.08037">
        <ele>1170</ele>
        <time>2021-12-23T08:36:20Z</time>
      </trkpt>
      <trkpt lat="45.27596" lon="6.08037">
        <ele>1171</ele>
        <time>2021-12-23T08:36:21Z</time>
      </trkpt>
      <trkpt lat="45.27596" lon="6.08037">
        <ele>1171</ele>
        <time>2021-12-23T08:36:22Z</time>
      </trkpt>
      <trkpt lat="45.27596" lon="6.08037">
        <ele>1171</ele>
        <time>2021-12-23T08:36:23Z</time>
      </trkpt>
      <trkpt lat="45.27596" lon="6.08038">
        <ele>1171</ele>
        <time>2021-12-23T08:36:24Z</time>
      </trkpt>
      <trkpt lat="45.27596" lon="6.08038">
        <ele>1171</ele>
        <time>2021-12-23T08:36:25Z</time>
      </trkpt>
      <trkpt lat="45.27596" lon="6.08038">
        <ele>1171</ele>
        <time>2021-12-23T08:36:26Z</time>
      </trkpt>
      <trkpt lat="45.27596" lon="6.08038">
        <ele>1172</ele>
        <time>2021-12-23T08:36:27Z</time>
      </trkpt>
      <trkpt lat="45.27596" lon="6.08038">
        <ele>1172</ele>
        <time>2021-12-23T08:36:28Z</time>
      </trkpt>
      <trkpt lat="45.27596" lon="6.08039">
        <ele>1172</ele>
        <time>2021-12-23T08:36:29Z</time>
      </trkpt>
      <trkpt lat="45.27596" lon="6.08039">
        <ele>1172</ele>
        <time>2021-12-23T08:36:30Z</time>
      </trkpt>
      <trkpt lat="45.27596" lon="6.08039">
        <ele>1172</ele>
        <time>2021-12-23T08:36:31Z</time>
      </trkpt>
      <trkpt lat="45.27596" lon="6.08039">
        <ele>1172</ele>
        <time>2021-12-23T08:36:32Z</time>
      </trkpt>
      <trkpt lat="45.27596" lon="6.08039">
        <ele>1173</ele>
        <time>2021-12-23T08:36:34Z</time>
      </trkpt>
      <trkpt lat="45.27596" lon="6.0804">
        <ele>1173</ele>
        <time>2021-12-23T08:36:35Z</time>
      </trkpt>
      <trkpt lat="45.27596" lon="6.0804">
        <ele>1174</ele>
        <time>2021-12-23T08:36:36Z</time>
      </trkpt>
      <trkpt lat="45.27596" lon="6.0804">
        <ele>1174</ele>
        <time>2021-12-23T08:36:37Z</time>
      </trkpt>
      <trkpt lat="45.27596" lon="6.0804">
        <ele>1174</ele>
        <time>2021-12-23T08:36:38Z</time>
      </trkpt>
      <trkpt lat="45.27596" lon="6.0804">
        <ele>1174</ele>
        <time>2021-12-23T08:36:39Z</time>
      </trkpt>
      <trkpt lat="45.27596" lon="6.08041">
        <ele>1174</ele>
        <time>2021-12-23T08:36:40Z</time>
      </trkpt>
      <trkpt lat="45.27596" lon="6.08041">
        <ele>1174</ele>
        <time>2021-12-23T08:36:41Z</time>
      </trkpt>
      <trkpt lat="45.27596" lon="6.08041">
        <ele>1174</ele>
        <time>2021-12-23T08:36:42Z</time>
      </trkpt>
      <trkpt lat="45.27597" lon="6.08042">
        <ele>1175</ele>
        <time>2021-12-23T08:36:43Z</time>
      </trkpt>
      <trkpt lat="45.27597" lon="6.08042">
        <ele>1175</ele>
        <time>2021-12-23T08:36:44Z</time>
      </trkpt>
      <trkpt lat="45.27598" lon="6.08043">
        <ele>1175</ele>
        <time>2021-12-23T08:36:45Z</time>
      </trkpt>
      <trkpt lat="45.27598" lon="6.08044">
        <ele>1175</ele>
        <time>2021-12-23T08:36:47Z</time>
      </trkpt>
      <trkpt lat="45.27598" lon="6.08044">
        <ele>1176</ele>
        <time>2021-12-23T08:36:48Z</time>
      </trkpt>
      <trkpt lat="45.27599" lon="6.08045">
        <ele>1176</ele>
        <time>2021-12-23T08:36:49Z</time>
      </trkpt>
      <trkpt lat="45.27599" lon="6.08045">
        <ele>1176</ele>
        <time>2021-12-23T08:36:50Z</time>
      </trkpt>
      <trkpt lat="45.276" lon="6.08046">
        <ele>1176</ele>
        <time>2021-12-23T08:36:51Z</time>
      </trkpt>
      <trkpt lat="45.276" lon="6.08047">
        <ele>1177</ele>
        <time>2021-12-23T08:36:53Z</time>
      </trkpt>
      <trkpt lat="45.276" lon="6.08047">
        <ele>1177</ele>
        <time>2021-12-23T08:36:54Z</time>
      </trkpt>
      <trkpt lat="45.27601" lon="6.08048">
        <ele>1177</ele>
        <time>2021-12-23T08:36:56Z</time>
      </trkpt>
      <trkpt lat="45.27601" lon="6.08049">
        <ele>1178</ele>
        <time>2021-12-23T08:36:57Z</time>
      </trkpt>
      <trkpt lat="45.27602" lon="6.08049">
        <ele>1178</ele>
        <time>2021-12-23T08:36:58Z</time>
      </trkpt>
      <trkpt lat="45.27602" lon="6.0805">
        <ele>1178</ele>
        <time>2021-12-23T08:36:59Z</time>
      </trkpt>
      <trkpt lat="45.27602" lon="6.08051">
        <ele>1178</ele>
        <time>2021-12-23T08:37:00Z</time>
      </trkpt>
      <trkpt lat="45.27603" lon="6.08051">
        <ele>1178</ele>
        <time>2021-12-23T08:37:01Z</time>
      </trkpt>
      <trkpt lat="45.27603" lon="6.08052">
        <ele>1178</ele>
        <time>2021-12-23T08:37:02Z</time>
      </trkpt>
      <trkpt lat="45.27603" lon="6.08054">
        <ele>1178</ele>
        <time>2021-12-23T08:37:03Z</time>
      </trkpt>
      <trkpt lat="45.27603" lon="6.08056">
        <ele>1178</ele>
        <time>2021-12-23T08:37:04Z</time>
      </trkpt>
      <trkpt lat="45.27603" lon="6.08058">
        <ele>1179</ele>
        <time>2021-12-23T08:37:05Z</time>
      </trkpt>
      <trkpt lat="45.27603" lon="6.08061">
        <ele>1179</ele>
        <time>2021-12-23T08:37:06Z</time>
      </trkpt>
      <trkpt lat="45.27604" lon="6.08063">
        <ele>1180</ele>
        <time>2021-12-23T08:37:07Z</time>
      </trkpt>
      <trkpt lat="45.27604" lon="6.08065">
        <ele>1180</ele>
        <time>2021-12-23T08:37:08Z</time>
      </trkpt>
      <trkpt lat="45.27603" lon="6.08067">
        <ele>1180</ele>
        <time>2021-12-23T08:37:09Z</time>
      </trkpt>
      <trkpt lat="45.27602" lon="6.08068">
        <ele>1180</ele>
        <time>2021-12-23T08:37:10Z</time>
      </trkpt>
      <trkpt lat="45.27601" lon="6.0807">
        <ele>1180</ele>
        <time>2021-12-23T08:37:12Z</time>
      </trkpt>
      <trkpt lat="45.276" lon="6.08071">
        <ele>1180</ele>
        <time>2021-12-23T08:37:13Z</time>
      </trkpt>
      <trkpt lat="45.27599" lon="6.08072">
        <ele>1181</ele>
        <time>2021-12-23T08:37:14Z</time>
      </trkpt>
      <trkpt lat="45.27599" lon="6.08074">
        <ele>1181</ele>
        <time>2021-12-23T08:37:15Z</time>
      </trkpt>
      <trkpt lat="45.27598" lon="6.08075">
        <ele>1181</ele>
        <time>2021-12-23T08:37:16Z</time>
      </trkpt>
      <trkpt lat="45.27598" lon="6.08077">
        <ele>1181</ele>
        <time>2021-12-23T08:37:17Z</time>
      </trkpt>
      <trkpt lat="45.27597" lon="6.08078">
        <ele>1182</ele>
        <time>2021-12-23T08:37:18Z</time>
      </trkpt>
      <trkpt lat="45.27597" lon="6.0808">
        <ele>1182</ele>
        <time>2021-12-23T08:37:19Z</time>
      </trkpt>
      <trkpt lat="45.27597" lon="6.08081">
        <ele>1182</ele>
        <time>2021-12-23T08:37:21Z</time>
      </trkpt>
      <trkpt lat="45.27597" lon="6.08083">
        <ele>1182</ele>
        <time>2021-12-23T08:37:22Z</time>
      </trkpt>
      <trkpt lat="45.27597" lon="6.08084">
        <ele>1183</ele>
        <time>2021-12-23T08:37:23Z</time>
      </trkpt>
      <trkpt lat="45.27596" lon="6.08086">
        <ele>1183</ele>
        <time>2021-12-23T08:37:24Z</time>
      </trkpt>
      <trkpt lat="45.27596" lon="6.08087">
        <ele>1183</ele>
        <time>2021-12-23T08:37:25Z</time>
      </trkpt>
      <trkpt lat="45.27596" lon="6.08089">
        <ele>1183</ele>
        <time>2021-12-23T08:37:26Z</time>
      </trkpt>
      <trkpt lat="45.27595" lon="6.0809">
        <ele>1183</ele>
        <time>2021-12-23T08:37:27Z</time>
      </trkpt>
      <trkpt lat="45.27594" lon="6.08092">
        <ele>1184</ele>
        <time>2021-12-23T08:37:28Z</time>
      </trkpt>
      <trkpt lat="45.27593" lon="6.08093">
        <ele>1184</ele>
        <time>2021-12-23T08:37:29Z</time>
      </trkpt>
      <trkpt lat="45.27592" lon="6.08094">
        <ele>1184</ele>
        <time>2021-12-23T08:37:31Z</time>
      </trkpt>
      <trkpt lat="45.2759" lon="6.08096">
        <ele>1184</ele>
        <time>2021-12-23T08:37:32Z</time>
      </trkpt>
      <trkpt lat="45.27589" lon="6.08097">
        <ele>1184</ele>
        <time>2021-12-23T08:37:33Z</time>
      </trkpt>
      <trkpt lat="45.27589" lon="6.08098">
        <ele>1184</ele>
        <time>2021-12-23T08:37:34Z</time>
      </trkpt>
      <trkpt lat="45.27589" lon="6.08098">
        <ele>1184</ele>
        <time>2021-12-23T08:37:35Z</time>
      </trkpt>
      <trkpt lat="45.27589" lon="6.08099">
        <ele>1184</ele>
        <time>2021-12-23T08:37:36Z</time>
      </trkpt>
      <trkpt lat="45.27589" lon="6.081">
        <ele>1185</ele>
        <time>2021-12-23T08:37:37Z</time>
      </trkpt>
      <trkpt lat="45.27589" lon="6.081">
        <ele>1185</ele>
        <time>2021-12-23T08:37:38Z</time>
      </trkpt>
      <trkpt lat="45.27589" lon="6.08101">
        <ele>1185</ele>
        <time>2021-12-23T08:37:39Z</time>
      </trkpt>
      <trkpt lat="45.27589" lon="6.08101">
        <ele>1185</ele>
        <time>2021-12-23T08:37:40Z</time>
      </trkpt>
      <trkpt lat="45.27589" lon="6.08102">
        <ele>1185</ele>
        <time>2021-12-23T08:37:41Z</time>
      </trkpt>
      <trkpt lat="45.27589" lon="6.08102">
        <ele>1185</ele>
        <time>2021-12-23T08:37:42Z</time>
      </trkpt>
      <trkpt lat="45.27589" lon="6.08103">
        <ele>1185</ele>
        <time>2021-12-23T08:37:43Z</time>
      </trkpt>
      <trkpt lat="45.27589" lon="6.08103">
        <ele>1185</ele>
        <time>2021-12-23T08:37:44Z</time>
      </trkpt>
      <trkpt lat="45.27589" lon="6.08104">
        <ele>1186</ele>
        <time>2021-12-23T08:37:45Z</time>
      </trkpt>
      <trkpt lat="45.27589" lon="6.08104">
        <ele>1187</ele>
        <time>2021-12-23T08:37:46Z</time>
      </trkpt>
      <trkpt lat="45.27589" lon="6.08105">
        <ele>1187</ele>
        <time>2021-12-23T08:37:47Z</time>
      </trkpt>
      <trkpt lat="45.27589" lon="6.08106">
        <ele>1188</ele>
        <time>2021-12-23T08:37:48Z</time>
      </trkpt>
      <trkpt lat="45.27589" lon="6.08106">
        <ele>1188</ele>
        <time>2021-12-23T08:37:50Z</time>
      </trkpt>
      <trkpt lat="45.27589" lon="6.08107">
        <ele>1188</ele>
        <time>2021-12-23T08:37:51Z</time>
      </trkpt>
      <trkpt lat="45.27589" lon="6.08107">
        <ele>1188</ele>
        <time>2021-12-23T08:37:52Z</time>
      </trkpt>
      <trkpt lat="45.27589" lon="6.08108">
        <ele>1188</ele>
        <time>2021-12-23T08:37:53Z</time>
      </trkpt>
      <trkpt lat="45.27589" lon="6.08108">
        <ele>1189</ele>
        <time>2021-12-23T08:37:54Z</time>
      </trkpt>
      <trkpt lat="45.27589" lon="6.08109">
        <ele>1189</ele>
        <time>2021-12-23T08:37:55Z</time>
      </trkpt>
      <trkpt lat="45.27589" lon="6.08109">
        <ele>1189</ele>
        <time>2021-12-23T08:37:56Z</time>
      </trkpt>
      <trkpt lat="45.27589" lon="6.08109">
        <ele>1189</ele>
        <time>2021-12-23T08:37:57Z</time>
      </trkpt>
      <trkpt lat="45.27589" lon="6.08109">
        <ele>1189</ele>
        <time>2021-12-23T08:37:58Z</time>
      </trkpt>
      <trkpt lat="45.27589" lon="6.08109">
        <ele>1189</ele>
        <time>2021-12-23T08:37:59Z</time>
      </trkpt>
      <trkpt lat="45.27589" lon="6.08109">
        <ele>1190</ele>
        <time>2021-12-23T08:38:00Z</time>
      </trkpt>
      <trkpt lat="45.27589" lon="6.08109">
        <ele>1190</ele>
        <time>2021-12-23T08:38:01Z</time>
      </trkpt>
      <trkpt lat="45.27589" lon="6.08109">
        <ele>1190</ele>
        <time>2021-12-23T08:38:02Z</time>
      </trkpt>
      <trkpt lat="45.27589" lon="6.08109">
        <ele>1190</ele>
        <time>2021-12-23T08:38:03Z</time>
      </trkpt>
      <trkpt lat="45.27589" lon="6.08109">
        <ele>1190</ele>
        <time>2021-12-23T08:38:04Z</time>
      </trkpt>
      <trkpt lat="45.27589" lon="6.08109">
        <ele>1190</ele>
        <time>2021-12-23T08:38:05Z</time>
      </trkpt>
      <trkpt lat="45.27589" lon="6.08109">
        <ele>1190</ele>
        <time>2021-12-23T08:38:06Z</time>
      </trkpt>
      <trkpt lat="45.27589" lon="6.08109">
        <ele>1190</ele>
        <time>2021-12-23T08:38:07Z</time>
      </trkpt>
      <trkpt lat="45.27588" lon="6.08122">
        <ele>1192</ele>
        <time>2021-12-23T08:38:09Z</time>
      </trkpt>
      <trkpt lat="45.27588" lon="6.08122">
        <ele>1192</ele>
        <time>2021-12-23T08:38:10Z</time>
      </trkpt>
      <trkpt lat="45.27588" lon="6.08122">
        <ele>1192</ele>
        <time>2021-12-23T08:38:11Z</time>
      </trkpt>
      <trkpt lat="45.27588" lon="6.08122">
        <ele>1192</ele>
        <time>2021-12-23T08:38:12Z</time>
      </trkpt>
      <trkpt lat="45.27588" lon="6.08122">
        <ele>1192</ele>
        <time>2021-12-23T08:38:13Z</time>
      </trkpt>
      <trkpt lat="45.27588" lon="6.08122">
        <ele>1192</ele>
        <time>2021-12-23T08:38:14Z</time>
      </trkpt>
      <trkpt lat="45.27588" lon="6.08122">
        <ele>1193</ele>
        <time>2021-12-23T08:38:15Z</time>
      </trkpt>
      <trkpt lat="45.27588" lon="6.08122">
        <ele>1193</ele>
        <time>2021-12-23T08:38:16Z</time>
      </trkpt>
      <trkpt lat="45.27588" lon="6.08122">
        <ele>1193</ele>
        <time>2021-12-23T08:38:17Z</time>
      </trkpt>
      <trkpt lat="45.27588" lon="6.08122">
        <ele>1194</ele>
        <time>2021-12-23T08:38:18Z</time>
      </trkpt>
      <trkpt lat="45.27588" lon="6.08122">
        <ele>1195</ele>
        <time>2021-12-23T08:38:20Z</time>
      </trkpt>
      <trkpt lat="45.27588" lon="6.08122">
        <ele>1195</ele>
        <time>2021-12-23T08:38:22Z</time>
      </trkpt>
      <trkpt lat="45.27588" lon="6.08122">
        <ele>1195</ele>
        <time>2021-12-23T08:38:24Z</time>
      </trkpt>
      <trkpt lat="45.27588" lon="6.08122">
        <ele>1195</ele>
        <time>2021-12-23T08:38:25Z</time>
      </trkpt>
      <trkpt lat="45.27588" lon="6.08122">
        <ele>1195</ele>
        <time>2021-12-23T08:38:26Z</time>
      </trkpt>
      <trkpt lat="45.27588" lon="6.08122">
        <ele>1195</ele>
        <time>2021-12-23T08:38:28Z</time>
      </trkpt>
      <trkpt lat="45.27588" lon="6.08122">
        <ele>1195</ele>
        <time>2021-12-23T08:38:29Z</time>
      </trkpt>
      <trkpt lat="45.27588" lon="6.08122">
        <ele>1195</ele>
        <time>2021-12-23T08:38:30Z</time>
      </trkpt>
      <trkpt lat="45.27588" lon="6.08122">
        <ele>1195</ele>
        <time>2021-12-23T08:38:31Z</time>
      </trkpt>
      <trkpt lat="45.27588" lon="6.08122">
        <ele>1196</ele>
        <time>2021-12-23T08:38:33Z</time>
      </trkpt>
      <trkpt lat="45.27588" lon="6.08122">
        <ele>1196</ele>
        <time>2021-12-23T08:38:34Z</time>
      </trkpt>
      <trkpt lat="45.27588" lon="6.08122">
        <ele>1196</ele>
        <time>2021-12-23T08:38:35Z</time>
      </trkpt>
      <trkpt lat="45.27588" lon="6.08122">
        <ele>1196</ele>
        <time>2021-12-23T08:38:36Z</time>
      </trkpt>
      <trkpt lat="45.27597" lon="6.08119">
        <ele>1196</ele>
        <time>2021-12-23T08:38:37Z</time>
      </trkpt>
      <trkpt lat="45.27597" lon="6.08119">
        <ele>1196</ele>
        <time>2021-12-23T08:38:39Z</time>
      </trkpt>
      <trkpt lat="45.27598" lon="6.08118">
        <ele>1196</ele>
        <time>2021-12-23T08:38:40Z</time>
      </trkpt>
      <trkpt lat="45.27599" lon="6.08117">
        <ele>1196</ele>
        <time>2021-12-23T08:38:41Z</time>
      </trkpt>
      <trkpt lat="45.276" lon="6.08116">
        <ele>1197</ele>
        <time>2021-12-23T08:38:42Z</time>
      </trkpt>
      <trkpt lat="45.27601" lon="6.08115">
        <ele>1197</ele>
        <time>2021-12-23T08:38:43Z</time>
      </trkpt>
      <trkpt lat="45.27602" lon="6.08114">
        <ele>1197</ele>
        <time>2021-12-23T08:38:44Z</time>
      </trkpt>
      <trkpt lat="45.27602" lon="6.08113">
        <ele>1197</ele>
        <time>2021-12-23T08:38:45Z</time>
      </trkpt>
      <trkpt lat="45.27603" lon="6.08112">
        <ele>1197</ele>
        <time>2021-12-23T08:38:46Z</time>
      </trkpt>
      <trkpt lat="45.27604" lon="6.08111">
        <ele>1197</ele>
        <time>2021-12-23T08:38:47Z</time>
      </trkpt>
      <trkpt lat="45.27606" lon="6.08112">
        <ele>1197</ele>
        <time>2021-12-23T08:38:48Z</time>
      </trkpt>
      <trkpt lat="45.27608" lon="6.08112">
        <ele>1197</ele>
        <time>2021-12-23T08:38:49Z</time>
      </trkpt>
      <trkpt lat="45.27609" lon="6.08112">
        <ele>1197</ele>
        <time>2021-12-23T08:38:51Z</time>
      </trkpt>
      <trkpt lat="45.27611" lon="6.08113">
        <ele>1197</ele>
        <time>2021-12-23T08:38:52Z</time>
      </trkpt>
      <trkpt lat="45.27612" lon="6.08113">
        <ele>1197</ele>
        <time>2021-12-23T08:38:54Z</time>
      </trkpt>
      <trkpt lat="45.27614" lon="6.08113">
        <ele>1197</ele>
        <time>2021-12-23T08:38:55Z</time>
      </trkpt>
      <trkpt lat="45.27615" lon="6.08117">
        <ele>1197</ele>
        <time>2021-12-23T08:38:56Z</time>
      </trkpt>
      <trkpt lat="45.27616" lon="6.08121">
        <ele>1197</ele>
        <time>2021-12-23T08:38:57Z</time>
      </trkpt>
      <trkpt lat="45.27617" lon="6.08124">
        <ele>1197</ele>
        <time>2021-12-23T08:38:58Z</time>
      </trkpt>
      <trkpt lat="45.27618" lon="6.08128">
        <ele>1197</ele>
        <time>2021-12-23T08:38:59Z</time>
      </trkpt>
      <trkpt lat="45.27618" lon="6.08132">
        <ele>1198</ele>
        <time>2021-12-23T08:39:00Z</time>
      </trkpt>
      <trkpt lat="45.27618" lon="6.08135">
        <ele>1198</ele>
        <time>2021-12-23T08:39:01Z</time>
      </trkpt>
      <trkpt lat="45.27618" lon="6.08138">
        <ele>1198</ele>
        <time>2021-12-23T08:39:02Z</time>
      </trkpt>
      <trkpt lat="45.27618" lon="6.08142">
        <ele>1198</ele>
        <time>2021-12-23T08:39:03Z</time>
      </trkpt>
      <trkpt lat="45.27618" lon="6.08142">
        <ele>1199</ele>
        <time>2021-12-23T08:39:04Z</time>
      </trkpt>
      <trkpt lat="45.27618" lon="6.08142">
        <ele>1199</ele>
        <time>2021-12-23T08:39:06Z</time>
      </trkpt>
      <trkpt lat="45.27618" lon="6.08142">
        <ele>1199</ele>
        <time>2021-12-23T08:39:07Z</time>
      </trkpt>
      <trkpt lat="45.27618" lon="6.08142">
        <ele>1199</ele>
        <time>2021-12-23T08:39:08Z</time>
      </trkpt>
      <trkpt lat="45.27618" lon="6.08142">
        <ele>1200</ele>
        <time>2021-12-23T08:39:09Z</time>
      </trkpt>
      <trkpt lat="45.27618" lon="6.08142">
        <ele>1200</ele>
        <time>2021-12-23T08:39:10Z</time>
      </trkpt>
      <trkpt lat="45.27611" lon="6.08149">
        <ele>1200</ele>
        <time>2021-12-23T08:39:11Z</time>
      </trkpt>
      <trkpt lat="45.27611" lon="6.08149">
        <ele>1200</ele>
        <time>2021-12-23T08:39:13Z</time>
      </trkpt>
      <trkpt lat="45.27611" lon="6.0815">
        <ele>1200</ele>
        <time>2021-12-23T08:39:14Z</time>
      </trkpt>
      <trkpt lat="45.2761" lon="6.0815">
        <ele>1200</ele>
        <time>2021-12-23T08:39:15Z</time>
      </trkpt>
      <trkpt lat="45.2761" lon="6.08151">
        <ele>1200</ele>
        <time>2021-12-23T08:39:16Z</time>
      </trkpt>
      <trkpt lat="45.2761" lon="6.08151">
        <ele>1200</ele>
        <time>2021-12-23T08:39:17Z</time>
      </trkpt>
      <trkpt lat="45.2761" lon="6.08152">
        <ele>1200</ele>
        <time>2021-12-23T08:39:18Z</time>
      </trkpt>
      <trkpt lat="45.27609" lon="6.08152">
        <ele>1200</ele>
        <time>2021-12-23T08:39:19Z</time>
      </trkpt>
      <trkpt lat="45.27609" lon="6.08153">
        <ele>1200</ele>
        <time>2021-12-23T08:39:20Z</time>
      </trkpt>
      <trkpt lat="45.27609" lon="6.08153">
        <ele>1201</ele>
        <time>2021-12-23T08:39:21Z</time>
      </trkpt>
      <trkpt lat="45.27609" lon="6.08154">
        <ele>1201</ele>
        <time>2021-12-23T08:39:22Z</time>
      </trkpt>
      <trkpt lat="45.27608" lon="6.08154">
        <ele>1201</ele>
        <time>2021-12-23T08:39:23Z</time>
      </trkpt>
      <trkpt lat="45.27608" lon="6.08155">
        <ele>1202</ele>
        <time>2021-12-23T08:39:25Z</time>
      </trkpt>
      <trkpt lat="45.27608" lon="6.08156">
        <ele>1202</ele>
        <time>2021-12-23T08:39:26Z</time>
      </trkpt>
      <trkpt lat="45.27608" lon="6.08156">
        <ele>1202</ele>
        <time>2021-12-23T08:39:27Z</time>
      </trkpt>
      <trkpt lat="45.27607" lon="6.08157">
        <ele>1202</ele>
        <time>2021-12-23T08:39:28Z</time>
      </trkpt>
      <trkpt lat="45.27607" lon="6.08157">
        <ele>1202</ele>
        <time>2021-12-23T08:39:29Z</time>
      </trkpt>
      <trkpt lat="45.27607" lon="6.08158">
        <ele>1202</ele>
        <time>2021-12-23T08:39:30Z</time>
      </trkpt>
      <trkpt lat="45.27607" lon="6.08158">
        <ele>1203</ele>
        <time>2021-12-23T08:39:31Z</time>
      </trkpt>
      <trkpt lat="45.27606" lon="6.08159">
        <ele>1203</ele>
        <time>2021-12-23T08:39:32Z</time>
      </trkpt>
      <trkpt lat="45.27606" lon="6.08159">
        <ele>1203</ele>
        <time>2021-12-23T08:39:33Z</time>
      </trkpt>
      <trkpt lat="45.27606" lon="6.0816">
        <ele>1203</ele>
        <time>2021-12-23T08:39:34Z</time>
      </trkpt>
      <trkpt lat="45.27605" lon="6.08161">
        <ele>1204</ele>
        <time>2021-12-23T08:39:35Z</time>
      </trkpt>
      <trkpt lat="45.27604" lon="6.08163">
        <ele>1204</ele>
        <time>2021-12-23T08:39:36Z</time>
      </trkpt>
      <trkpt lat="45.27603" lon="6.08164">
        <ele>1204</ele>
        <time>2021-12-23T08:39:37Z</time>
      </trkpt>
      <trkpt lat="45.27603" lon="6.08166">
        <ele>1204</ele>
        <time>2021-12-23T08:39:38Z</time>
      </trkpt>
      <trkpt lat="45.27602" lon="6.08167">
        <ele>1205</ele>
        <time>2021-12-23T08:39:39Z</time>
      </trkpt>
      <trkpt lat="45.27601" lon="6.08169">
        <ele>1205</ele>
        <time>2021-12-23T08:39:40Z</time>
      </trkpt>
      <trkpt lat="45.276" lon="6.0817">
        <ele>1205</ele>
        <time>2021-12-23T08:39:41Z</time>
      </trkpt>
      <trkpt lat="45.27599" lon="6.08171">
        <ele>1205</ele>
        <time>2021-12-23T08:39:42Z</time>
      </trkpt>
      <trkpt lat="45.27598" lon="6.08172">
        <ele>1205</ele>
        <time>2021-12-23T08:39:44Z</time>
      </trkpt>
      <trkpt lat="45.27597" lon="6.08172">
        <ele>1205</ele>
        <time>2021-12-23T08:39:45Z</time>
      </trkpt>
      <trkpt lat="45.27596" lon="6.08173">
        <ele>1205</ele>
        <time>2021-12-23T08:39:46Z</time>
      </trkpt>
      <trkpt lat="45.27595" lon="6.08173">
        <ele>1206</ele>
        <time>2021-12-23T08:39:47Z</time>
      </trkpt>
      <trkpt lat="45.27594" lon="6.08174">
        <ele>1206</ele>
        <time>2021-12-23T08:39:48Z</time>
      </trkpt>
      <trkpt lat="45.27593" lon="6.08175">
        <ele>1206</ele>
        <time>2021-12-23T08:39:49Z</time>
      </trkpt>
      <trkpt lat="45.27592" lon="6.08175">
        <ele>1206</ele>
        <time>2021-12-23T08:39:50Z</time>
      </trkpt>
      <trkpt lat="45.27591" lon="6.08176">
        <ele>1207</ele>
        <time>2021-12-23T08:39:51Z</time>
      </trkpt>
      <trkpt lat="45.27591" lon="6.08176">
        <ele>1207</ele>
        <time>2021-12-23T08:39:52Z</time>
      </trkpt>
      <trkpt lat="45.27591" lon="6.08176">
        <ele>1207</ele>
        <time>2021-12-23T08:39:53Z</time>
      </trkpt>
      <trkpt lat="45.27591" lon="6.08176">
        <ele>1207</ele>
        <time>2021-12-23T08:39:54Z</time>
      </trkpt>
      <trkpt lat="45.27591" lon="6.08176">
        <ele>1207</ele>
        <time>2021-12-23T08:39:55Z</time>
      </trkpt>
      <trkpt lat="45.27591" lon="6.08176">
        <ele>1208</ele>
        <time>2021-12-23T08:39:56Z</time>
      </trkpt>
      <trkpt lat="45.27591" lon="6.08176">
        <ele>1208</ele>
        <time>2021-12-23T08:39:58Z</time>
      </trkpt>
      <trkpt lat="45.27591" lon="6.08176">
        <ele>1209</ele>
        <time>2021-12-23T08:39:59Z</time>
      </trkpt>
      <trkpt lat="45.27591" lon="6.08176">
        <ele>1209</ele>
        <time>2021-12-23T08:40:00Z</time>
      </trkpt>
      <trkpt lat="45.27591" lon="6.08176">
        <ele>1209</ele>
        <time>2021-12-23T08:40:01Z</time>
      </trkpt>
      <trkpt lat="45.27584" lon="6.08183">
        <ele>1209</ele>
        <time>2021-12-23T08:40:03Z</time>
      </trkpt>
      <trkpt lat="45.27583" lon="6.08184">
        <ele>1209</ele>
        <time>2021-12-23T08:40:04Z</time>
      </trkpt>
      <trkpt lat="45.27583" lon="6.08184">
        <ele>1209</ele>
        <time>2021-12-23T08:40:05Z</time>
      </trkpt>
      <trkpt lat="45.27583" lon="6.08185">
        <ele>1209</ele>
        <time>2021-12-23T08:40:06Z</time>
      </trkpt>
      <trkpt lat="45.27582" lon="6.08185">
        <ele>1210</ele>
        <time>2021-12-23T08:40:07Z</time>
      </trkpt>
      <trkpt lat="45.27582" lon="6.08186">
        <ele>1210</ele>
        <time>2021-12-23T08:40:08Z</time>
      </trkpt>
      <trkpt lat="45.27582" lon="6.08187">
        <ele>1210</ele>
        <time>2021-12-23T08:40:09Z</time>
      </trkpt>
      <trkpt lat="45.27581" lon="6.08187">
        <ele>1210</ele>
        <time>2021-12-23T08:40:10Z</time>
      </trkpt>
      <trkpt lat="45.27581" lon="6.08188">
        <ele>1210</ele>
        <time>2021-12-23T08:40:11Z</time>
      </trkpt>
      <trkpt lat="45.27581" lon="6.08188">
        <ele>1211</ele>
        <time>2021-12-23T08:40:12Z</time>
      </trkpt>
      <trkpt lat="45.2758" lon="6.08189">
        <ele>1211</ele>
        <time>2021-12-23T08:40:13Z</time>
      </trkpt>
      <trkpt lat="45.2758" lon="6.0819">
        <ele>1211</ele>
        <time>2021-12-23T08:40:14Z</time>
      </trkpt>
      <trkpt lat="45.2758" lon="6.0819">
        <ele>1211</ele>
        <time>2021-12-23T08:40:15Z</time>
      </trkpt>
      <trkpt lat="45.27579" lon="6.08191">
        <ele>1211</ele>
        <time>2021-12-23T08:40:16Z</time>
      </trkpt>
      <trkpt lat="45.27579" lon="6.08191">
        <ele>1211</ele>
        <time>2021-12-23T08:40:17Z</time>
      </trkpt>
      <trkpt lat="45.27579" lon="6.08192">
        <ele>1211</ele>
        <time>2021-12-23T08:40:18Z</time>
      </trkpt>
      <trkpt lat="45.27578" lon="6.08193">
        <ele>1212</ele>
        <time>2021-12-23T08:40:19Z</time>
      </trkpt>
      <trkpt lat="45.27578" lon="6.08193">
        <ele>1212</ele>
        <time>2021-12-23T08:40:20Z</time>
      </trkpt>
      <trkpt lat="45.27578" lon="6.08193">
        <ele>1212</ele>
        <time>2021-12-23T08:40:22Z</time>
      </trkpt>
      <trkpt lat="45.27578" lon="6.08193">
        <ele>1212</ele>
        <time>2021-12-23T08:40:23Z</time>
      </trkpt>
      <trkpt lat="45.27578" lon="6.08193">
        <ele>1213</ele>
        <time>2021-12-23T08:40:24Z</time>
      </trkpt>
      <trkpt lat="45.27578" lon="6.08193">
        <ele>1213</ele>
        <time>2021-12-23T08:40:25Z</time>
      </trkpt>
      <trkpt lat="45.27578" lon="6.08193">
        <ele>1213</ele>
        <time>2021-12-23T08:40:26Z</time>
      </trkpt>
      <trkpt lat="45.27578" lon="6.08193">
        <ele>1213</ele>
        <time>2021-12-23T08:40:27Z</time>
      </trkpt>
      <trkpt lat="45.27578" lon="6.08193">
        <ele>1213</ele>
        <time>2021-12-23T08:40:28Z</time>
      </trkpt>
      <trkpt lat="45.27578" lon="6.08193">
        <ele>1214</ele>
        <time>2021-12-23T08:40:29Z</time>
      </trkpt>
      <trkpt lat="45.27578" lon="6.08193">
        <ele>1214</ele>
        <time>2021-12-23T08:40:30Z</time>
      </trkpt>
      <trkpt lat="45.27578" lon="6.08193">
        <ele>1214</ele>
        <time>2021-12-23T08:40:31Z</time>
      </trkpt>
      <trkpt lat="45.27578" lon="6.08193">
        <ele>1214</ele>
        <time>2021-12-23T08:40:32Z</time>
      </trkpt>
      <trkpt lat="45.27578" lon="6.08193">
        <ele>1214</ele>
        <time>2021-12-23T08:40:33Z</time>
      </trkpt>
      <trkpt lat="45.27578" lon="6.08193">
        <ele>1215</ele>
        <time>2021-12-23T08:40:34Z</time>
      </trkpt>
      <trkpt lat="45.27578" lon="6.08193">
        <ele>1215</ele>
        <time>2021-12-23T08:40:35Z</time>
      </trkpt>
      <trkpt lat="45.27578" lon="6.08206">
        <ele>1215</ele>
        <time>2021-12-23T08:40:36Z</time>
      </trkpt>
      <trkpt lat="45.27578" lon="6.08206">
        <ele>1215</ele>
        <time>2021-12-23T08:40:38Z</time>
      </trkpt>
      <trkpt lat="45.27578" lon="6.08208">
        <ele>1215</ele>
        <time>2021-12-23T08:40:39Z</time>
      </trkpt>
      <trkpt lat="45.27577" lon="6.0821">
        <ele>1215</ele>
        <time>2021-12-23T08:40:41Z</time>
      </trkpt>
      <trkpt lat="45.27577" lon="6.08213">
        <ele>1215</ele>
        <time>2021-12-23T08:40:42Z</time>
      </trkpt>
      <trkpt lat="45.27577" lon="6.08215">
        <ele>1215</ele>
        <time>2021-12-23T08:40:43Z</time>
      </trkpt>
      <trkpt lat="45.27577" lon="6.08217">
        <ele>1215</ele>
        <time>2021-12-23T08:40:44Z</time>
      </trkpt>
      <trkpt lat="45.27576" lon="6.0822">
        <ele>1215</ele>
        <time>2021-12-23T08:40:45Z</time>
      </trkpt>
      <trkpt lat="45.27576" lon="6.08221">
        <ele>1216</ele>
        <time>2021-12-23T08:40:46Z</time>
      </trkpt>
      <trkpt lat="45.27576" lon="6.08223">
        <ele>1216</ele>
        <time>2021-12-23T08:40:47Z</time>
      </trkpt>
      <trkpt lat="45.27576" lon="6.08224">
        <ele>1216</ele>
        <time>2021-12-23T08:40:48Z</time>
      </trkpt>
      <trkpt lat="45.27577" lon="6.08225">
        <ele>1218</ele>
        <time>2021-12-23T08:40:50Z</time>
      </trkpt>
      <trkpt lat="45.27577" lon="6.08227">
        <ele>1218</ele>
        <time>2021-12-23T08:40:51Z</time>
      </trkpt>
      <trkpt lat="45.27577" lon="6.08228">
        <ele>1218</ele>
        <time>2021-12-23T08:40:52Z</time>
      </trkpt>
      <trkpt lat="45.27577" lon="6.0823">
        <ele>1218</ele>
        <time>2021-12-23T08:40:53Z</time>
      </trkpt>
      <trkpt lat="45.27577" lon="6.08231">
        <ele>1218</ele>
        <time>2021-12-23T08:40:54Z</time>
      </trkpt>
      <trkpt lat="45.27577" lon="6.08232">
        <ele>1218</ele>
        <time>2021-12-23T08:40:55Z</time>
      </trkpt>
      <trkpt lat="45.27576" lon="6.08234">
        <ele>1218</ele>
        <time>2021-12-23T08:40:56Z</time>
      </trkpt>
      <trkpt lat="45.27576" lon="6.08235">
        <ele>1218</ele>
        <time>2021-12-23T08:40:57Z</time>
      </trkpt>
      <trkpt lat="45.27576" lon="6.08236">
        <ele>1218</ele>
        <time>2021-12-23T08:40:58Z</time>
      </trkpt>
      <trkpt lat="45.27575" lon="6.08237">
        <ele>1219</ele>
        <time>2021-12-23T08:41:00Z</time>
      </trkpt>
      <trkpt lat="45.27575" lon="6.08239">
        <ele>1219</ele>
        <time>2021-12-23T08:41:01Z</time>
      </trkpt>
      <trkpt lat="45.27575" lon="6.0824">
        <ele>1219</ele>
        <time>2021-12-23T08:41:02Z</time>
      </trkpt>
      <trkpt lat="45.27574" lon="6.08241">
        <ele>1219</ele>
        <time>2021-12-23T08:41:03Z</time>
      </trkpt>
      <trkpt lat="45.27574" lon="6.08242">
        <ele>1219</ele>
        <time>2021-12-23T08:41:04Z</time>
      </trkpt>
      <trkpt lat="45.27574" lon="6.08244">
        <ele>1219</ele>
        <time>2021-12-23T08:41:05Z</time>
      </trkpt>
      <trkpt lat="45.27573" lon="6.08245">
        <ele>1219</ele>
        <time>2021-12-23T08:41:06Z</time>
      </trkpt>
      <trkpt lat="45.27573" lon="6.08246">
        <ele>1220</ele>
        <time>2021-12-23T08:41:07Z</time>
      </trkpt>
      <trkpt lat="45.27572" lon="6.08247">
        <ele>1220</ele>
        <time>2021-12-23T08:41:08Z</time>
      </trkpt>
      <trkpt lat="45.27572" lon="6.08247">
        <ele>1220</ele>
        <time>2021-12-23T08:41:09Z</time>
      </trkpt>
      <trkpt lat="45.27572" lon="6.08248">
        <ele>1220</ele>
        <time>2021-12-23T08:41:10Z</time>
      </trkpt>
      <trkpt lat="45.27571" lon="6.08249">
        <ele>1221</ele>
        <time>2021-12-23T08:41:11Z</time>
      </trkpt>
      <trkpt lat="45.27571" lon="6.0825">
        <ele>1221</ele>
        <time>2021-12-23T08:41:12Z</time>
      </trkpt>
      <trkpt lat="45.27571" lon="6.08251">
        <ele>1220</ele>
        <time>2021-12-23T08:41:13Z</time>
      </trkpt>
      <trkpt lat="45.2757" lon="6.08252">
        <ele>1220</ele>
        <time>2021-12-23T08:41:14Z</time>
      </trkpt>
      <trkpt lat="45.2757" lon="6.08253">
        <ele>1220</ele>
        <time>2021-12-23T08:41:15Z</time>
      </trkpt>
      <trkpt lat="45.27569" lon="6.08253">
        <ele>1220</ele>
        <time>2021-12-23T08:41:16Z</time>
      </trkpt>
      <trkpt lat="45.27569" lon="6.08254">
        <ele>1220</ele>
        <time>2021-12-23T08:41:17Z</time>
      </trkpt>
      <trkpt lat="45.27569" lon="6.08255">
        <ele>1220</ele>
        <time>2021-12-23T08:41:19Z</time>
      </trkpt>
      <trkpt lat="45.27568" lon="6.08256">
        <ele>1220</ele>
        <time>2021-12-23T08:41:20Z</time>
      </trkpt>
      <trkpt lat="45.27568" lon="6.08256">
        <ele>1221</ele>
        <time>2021-12-23T08:41:21Z</time>
      </trkpt>
      <trkpt lat="45.27568" lon="6.08256">
        <ele>1221</ele>
        <time>2021-12-23T08:41:22Z</time>
      </trkpt>
      <trkpt lat="45.27568" lon="6.08256">
        <ele>1221</ele>
        <time>2021-12-23T08:41:23Z</time>
      </trkpt>
      <trkpt lat="45.27568" lon="6.08256">
        <ele>1221</ele>
        <time>2021-12-23T08:41:24Z</time>
      </trkpt>
      <trkpt lat="45.27568" lon="6.08256">
        <ele>1221</ele>
        <time>2021-12-23T08:41:25Z</time>
      </trkpt>
      <trkpt lat="45.27568" lon="6.08256">
        <ele>1222</ele>
        <time>2021-12-23T08:41:27Z</time>
      </trkpt>
      <trkpt lat="45.27568" lon="6.08256">
        <ele>1222</ele>
        <time>2021-12-23T08:41:28Z</time>
      </trkpt>
      <trkpt lat="45.27568" lon="6.08256">
        <ele>1222</ele>
        <time>2021-12-23T08:41:29Z</time>
      </trkpt>
      <trkpt lat="45.27559" lon="6.08261">
        <ele>1222</ele>
        <time>2021-12-23T08:41:30Z</time>
      </trkpt>
      <trkpt lat="45.27559" lon="6.08261">
        <ele>1222</ele>
        <time>2021-12-23T08:41:32Z</time>
      </trkpt>
      <trkpt lat="45.27559" lon="6.08261">
        <ele>1222</ele>
        <time>2021-12-23T08:41:33Z</time>
      </trkpt>
      <trkpt lat="45.27559" lon="6.08261">
        <ele>1222</ele>
        <time>2021-12-23T08:41:34Z</time>
      </trkpt>
      <trkpt lat="45.27559" lon="6.08261">
        <ele>1222</ele>
        <time>2021-12-23T08:41:35Z</time>
      </trkpt>
      <trkpt lat="45.27559" lon="6.08261">
        <ele>1222</ele>
        <time>2021-12-23T08:41:36Z</time>
      </trkpt>
      <trkpt lat="45.27551" lon="6.08268">
        <ele>1222</ele>
        <time>2021-12-23T08:41:38Z</time>
      </trkpt>
      <trkpt lat="45.27551" lon="6.08268">
        <ele>1222</ele>
        <time>2021-12-23T08:41:39Z</time>
      </trkpt>
      <trkpt lat="45.27551" lon="6.08268">
        <ele>1222</ele>
        <time>2021-12-23T08:41:40Z</time>
      </trkpt>
      <trkpt lat="45.27551" lon="6.08268">
        <ele>1222</ele>
        <time>2021-12-23T08:41:41Z</time>
      </trkpt>
      <trkpt lat="45.27551" lon="6.08268">
        <ele>1222</ele>
        <time>2021-12-23T08:41:42Z</time>
      </trkpt>
      <trkpt lat="45.27551" lon="6.08268">
        <ele>1222</ele>
        <time>2021-12-23T08:41:43Z</time>
      </trkpt>
      <trkpt lat="45.27551" lon="6.08268">
        <ele>1222</ele>
        <time>2021-12-23T08:41:44Z</time>
      </trkpt>
      <trkpt lat="45.27551" lon="6.08268">
        <ele>1222</ele>
        <time>2021-12-23T08:41:45Z</time>
      </trkpt>
      <trkpt lat="45.27551" lon="6.08268">
        <ele>1222</ele>
        <time>2021-12-23T08:41:46Z</time>
      </trkpt>
      <trkpt lat="45.27551" lon="6.08268">
        <ele>1221</ele>
        <time>2021-12-23T08:41:47Z</time>
      </trkpt>
      <trkpt lat="45.27551" lon="6.08268">
        <ele>1221</ele>
        <time>2021-12-23T08:41:48Z</time>
      </trkpt>
      <trkpt lat="45.27551" lon="6.08268">
        <ele>1221</ele>
        <time>2021-12-23T08:41:49Z</time>
      </trkpt>
      <trkpt lat="45.27551" lon="6.08268">
        <ele>1221</ele>
        <time>2021-12-23T08:41:50Z</time>
      </trkpt>
      <trkpt lat="45.27551" lon="6.08268">
        <ele>1221</ele>
        <time>2021-12-23T08:41:51Z</time>
      </trkpt>
      <trkpt lat="45.27551" lon="6.08268">
        <ele>1221</ele>
        <time>2021-12-23T08:41:52Z</time>
      </trkpt>
      <trkpt lat="45.27551" lon="6.08268">
        <ele>1221</ele>
        <time>2021-12-23T08:41:53Z</time>
      </trkpt>
      <trkpt lat="45.27551" lon="6.08268">
        <ele>1221</ele>
        <time>2021-12-23T08:41:54Z</time>
      </trkpt>
      <trkpt lat="45.27551" lon="6.08268">
        <ele>1221</ele>
        <time>2021-12-23T08:41:55Z</time>
      </trkpt>
      <trkpt lat="45.27551" lon="6.08268">
        <ele>1221</ele>
        <time>2021-12-23T08:41:57Z</time>
      </trkpt>
      <trkpt lat="45.27551" lon="6.08268">
        <ele>1220</ele>
        <time>2021-12-23T08:41:58Z</time>
      </trkpt>
      <trkpt lat="45.27551" lon="6.08268">
        <ele>1220</ele>
        <time>2021-12-23T08:41:59Z</time>
      </trkpt>
      <trkpt lat="45.27551" lon="6.08268">
        <ele>1221</ele>
        <time>2021-12-23T08:42:00Z</time>
      </trkpt>
      <trkpt lat="45.27551" lon="6.08268">
        <ele>1222</ele>
        <time>2021-12-23T08:42:01Z</time>
      </trkpt>
      <trkpt lat="45.27551" lon="6.08268">
        <ele>1222</ele>
        <time>2021-12-23T08:42:02Z</time>
      </trkpt>
      <trkpt lat="45.27551" lon="6.08268">
        <ele>1222</ele>
        <time>2021-12-23T08:42:03Z</time>
      </trkpt>
      <trkpt lat="45.27551" lon="6.08268">
        <ele>1221</ele>
        <time>2021-12-23T08:42:05Z</time>
      </trkpt>
      <trkpt lat="45.27542" lon="6.08259">
        <ele>1221</ele>
        <time>2021-12-23T08:42:07Z</time>
      </trkpt>
      <trkpt lat="45.27543" lon="6.0826">
        <ele>1221</ele>
        <time>2021-12-23T08:42:08Z</time>
      </trkpt>
      <trkpt lat="45.27543" lon="6.08261">
        <ele>1221</ele>
        <time>2021-12-23T08:42:10Z</time>
      </trkpt>
      <trkpt lat="45.27544" lon="6.08262">
        <ele>1221</ele>
        <time>2021-12-23T08:42:11Z</time>
      </trkpt>
      <trkpt lat="45.27544" lon="6.08263">
        <ele>1221</ele>
        <time>2021-12-23T08:42:12Z</time>
      </trkpt>
      <trkpt lat="45.27545" lon="6.08264">
        <ele>1221</ele>
        <time>2021-12-23T08:42:13Z</time>
      </trkpt>
      <trkpt lat="45.27545" lon="6.08265">
        <ele>1221</ele>
        <time>2021-12-23T08:42:14Z</time>
      </trkpt>
      <trkpt lat="45.27546" lon="6.08265">
        <ele>1221</ele>
        <time>2021-12-23T08:42:16Z</time>
      </trkpt>
      <trkpt lat="45.27546" lon="6.08266">
        <ele>1221</ele>
        <time>2021-12-23T08:42:17Z</time>
      </trkpt>
      <trkpt lat="45.27547" lon="6.08267">
        <ele>1221</ele>
        <time>2021-12-23T08:42:18Z</time>
      </trkpt>
      <trkpt lat="45.27547" lon="6.08268">
        <ele>1221</ele>
        <time>2021-12-23T08:42:19Z</time>
      </trkpt>
      <trkpt lat="45.27548" lon="6.08269">
        <ele>1221</ele>
        <time>2021-12-23T08:42:20Z</time>
      </trkpt>
      <trkpt lat="45.27548" lon="6.0827">
        <ele>1221</ele>
        <time>2021-12-23T08:42:21Z</time>
      </trkpt>
      <trkpt lat="45.27549" lon="6.08271">
        <ele>1221</ele>
        <time>2021-12-23T08:42:22Z</time>
      </trkpt>
      <trkpt lat="45.27549" lon="6.08272">
        <ele>1221</ele>
        <time>2021-12-23T08:42:23Z</time>
      </trkpt>
      <trkpt lat="45.27548" lon="6.08274">
        <ele>1221</ele>
        <time>2021-12-23T08:42:24Z</time>
      </trkpt>
      <trkpt lat="45.27548" lon="6.08275">
        <ele>1221</ele>
        <time>2021-12-23T08:42:25Z</time>
      </trkpt>
      <trkpt lat="45.27548" lon="6.08277">
        <ele>1221</ele>
        <time>2021-12-23T08:42:26Z</time>
      </trkpt>
      <trkpt lat="45.27548" lon="6.08278">
        <ele>1221</ele>
        <time>2021-12-23T08:42:27Z</time>
      </trkpt>
      <trkpt lat="45.27548" lon="6.0828">
        <ele>1221</ele>
        <time>2021-12-23T08:42:28Z</time>
      </trkpt>
      <trkpt lat="45.27548" lon="6.08281">
        <ele>1221</ele>
        <time>2021-12-23T08:42:29Z</time>
      </trkpt>
      <trkpt lat="45.27548" lon="6.08282">
        <ele>1221</ele>
        <time>2021-12-23T08:42:30Z</time>
      </trkpt>
      <trkpt lat="45.27548" lon="6.08284">
        <ele>1221</ele>
        <time>2021-12-23T08:42:31Z</time>
      </trkpt>
      <trkpt lat="45.27547" lon="6.08285">
        <ele>1222</ele>
        <time>2021-12-23T08:42:32Z</time>
      </trkpt>
      <trkpt lat="45.27546" lon="6.08286">
        <ele>1222</ele>
        <time>2021-12-23T08:42:33Z</time>
      </trkpt>
      <trkpt lat="45.27545" lon="6.08287">
        <ele>1222</ele>
        <time>2021-12-23T08:42:35Z</time>
      </trkpt>
      <trkpt lat="45.27544" lon="6.08288">
        <ele>1222</ele>
        <time>2021-12-23T08:42:36Z</time>
      </trkpt>
      <trkpt lat="45.27543" lon="6.08289">
        <ele>1222</ele>
        <time>2021-12-23T08:42:37Z</time>
      </trkpt>
      <trkpt lat="45.27542" lon="6.0829">
        <ele>1222</ele>
        <time>2021-12-23T08:42:39Z</time>
      </trkpt>
      <trkpt lat="45.27541" lon="6.08291">
        <ele>1222</ele>
        <time>2021-12-23T08:42:40Z</time>
      </trkpt>
      <trkpt lat="45.27541" lon="6.08292">
        <ele>1222</ele>
        <time>2021-12-23T08:42:41Z</time>
      </trkpt>
      <trkpt lat="45.2754" lon="6.08293">
        <ele>1222</ele>
        <time>2021-12-23T08:42:42Z</time>
      </trkpt>
      <trkpt lat="45.27539" lon="6.08293">
        <ele>1223</ele>
        <time>2021-12-23T08:42:43Z</time>
      </trkpt>
      <trkpt lat="45.27537" lon="6.08293">
        <ele>1223</ele>
        <time>2021-12-23T08:42:44Z</time>
      </trkpt>
      <trkpt lat="45.27536" lon="6.08294">
        <ele>1224</ele>
        <time>2021-12-23T08:42:45Z</time>
      </trkpt>
      <trkpt lat="45.27535" lon="6.08294">
        <ele>1224</ele>
        <time>2021-12-23T08:42:46Z</time>
      </trkpt>
      <trkpt lat="45.27534" lon="6.08294">
        <ele>1224</ele>
        <time>2021-12-23T08:42:47Z</time>
      </trkpt>
      <trkpt lat="45.27532" lon="6.08295">
        <ele>1224</ele>
        <time>2021-12-23T08:42:48Z</time>
      </trkpt>
      <trkpt lat="45.27531" lon="6.08295">
        <ele>1224</ele>
        <time>2021-12-23T08:42:49Z</time>
      </trkpt>
      <trkpt lat="45.2753" lon="6.08295">
        <ele>1224</ele>
        <time>2021-12-23T08:42:50Z</time>
      </trkpt>
      <trkpt lat="45.27529" lon="6.08296">
        <ele>1224</ele>
        <time>2021-12-23T08:42:51Z</time>
      </trkpt>
      <trkpt lat="45.27528" lon="6.08297">
        <ele>1224</ele>
        <time>2021-12-23T08:42:52Z</time>
      </trkpt>
      <trkpt lat="45.27527" lon="6.08298">
        <ele>1224</ele>
        <time>2021-12-23T08:42:54Z</time>
      </trkpt>
      <trkpt lat="45.27526" lon="6.08299">
        <ele>1224</ele>
        <time>2021-12-23T08:42:55Z</time>
      </trkpt>
      <trkpt lat="45.27525" lon="6.083">
        <ele>1224</ele>
        <time>2021-12-23T08:42:56Z</time>
      </trkpt>
      <trkpt lat="45.27524" lon="6.08301">
        <ele>1225</ele>
        <time>2021-12-23T08:42:57Z</time>
      </trkpt>
      <trkpt lat="45.27523" lon="6.08302">
        <ele>1225</ele>
        <time>2021-12-23T08:42:58Z</time>
      </trkpt>
      <trkpt lat="45.27522" lon="6.08303">
        <ele>1225</ele>
        <time>2021-12-23T08:42:59Z</time>
      </trkpt>
      <trkpt lat="45.27522" lon="6.08303">
        <ele>1227</ele>
        <time>2021-12-23T08:43:01Z</time>
      </trkpt>
      <trkpt lat="45.27522" lon="6.08303">
        <ele>1227</ele>
        <time>2021-12-23T08:43:02Z</time>
      </trkpt>
      <trkpt lat="45.27522" lon="6.08303">
        <ele>1226</ele>
        <time>2021-12-23T08:43:03Z</time>
      </trkpt>
      <trkpt lat="45.27522" lon="6.08303">
        <ele>1226</ele>
        <time>2021-12-23T08:43:04Z</time>
      </trkpt>
      <trkpt lat="45.27522" lon="6.08303">
        <ele>1226</ele>
        <time>2021-12-23T08:43:05Z</time>
      </trkpt>
      <trkpt lat="45.27522" lon="6.08303">
        <ele>1226</ele>
        <time>2021-12-23T08:43:06Z</time>
      </trkpt>
      <trkpt lat="45.27522" lon="6.08303">
        <ele>1226</ele>
        <time>2021-12-23T08:43:07Z</time>
      </trkpt>
      <trkpt lat="45.27522" lon="6.08303">
        <ele>1226</ele>
        <time>2021-12-23T08:43:08Z</time>
      </trkpt>
      <trkpt lat="45.27522" lon="6.08303">
        <ele>1227</ele>
        <time>2021-12-23T08:43:09Z</time>
      </trkpt>
      <trkpt lat="45.27522" lon="6.08303">
        <ele>1227</ele>
        <time>2021-12-23T08:43:11Z</time>
      </trkpt>
      <trkpt lat="45.27512" lon="6.08311">
        <ele>1228</ele>
        <time>2021-12-23T08:43:13Z</time>
      </trkpt>
      <trkpt lat="45.27512" lon="6.08312">
        <ele>1228</ele>
        <time>2021-12-23T08:43:14Z</time>
      </trkpt>
      <trkpt lat="45.27511" lon="6.08313">
        <ele>1228</ele>
        <time>2021-12-23T08:43:15Z</time>
      </trkpt>
      <trkpt lat="45.27511" lon="6.08314">
        <ele>1228</ele>
        <time>2021-12-23T08:43:16Z</time>
      </trkpt>
      <trkpt lat="45.2751" lon="6.08315">
        <ele>1228</ele>
        <time>2021-12-23T08:43:17Z</time>
      </trkpt>
      <trkpt lat="45.27509" lon="6.08316">
        <ele>1228</ele>
        <time>2021-12-23T08:43:18Z</time>
      </trkpt>
      <trkpt lat="45.27509" lon="6.08318">
        <ele>1229</ele>
        <time>2021-12-23T08:43:20Z</time>
      </trkpt>
      <trkpt lat="45.27508" lon="6.08319">
        <ele>1229</ele>
        <time>2021-12-23T08:43:21Z</time>
      </trkpt>
      <trkpt lat="45.27508" lon="6.0832">
        <ele>1229</ele>
        <time>2021-12-23T08:43:22Z</time>
      </trkpt>
      <trkpt lat="45.27507" lon="6.08321">
        <ele>1229</ele>
        <time>2021-12-23T08:43:23Z</time>
      </trkpt>
      <trkpt lat="45.27507" lon="6.08322">
        <ele>1229</ele>
        <time>2021-12-23T08:43:24Z</time>
      </trkpt>
      <trkpt lat="45.27507" lon="6.08322">
        <ele>1229</ele>
        <time>2021-12-23T08:43:25Z</time>
      </trkpt>
      <trkpt lat="45.27507" lon="6.08322">
        <ele>1229</ele>
        <time>2021-12-23T08:43:26Z</time>
      </trkpt>
      <trkpt lat="45.27507" lon="6.08322">
        <ele>1229</ele>
        <time>2021-12-23T08:43:27Z</time>
      </trkpt>
      <trkpt lat="45.27507" lon="6.08322">
        <ele>1229</ele>
        <time>2021-12-23T08:43:28Z</time>
      </trkpt>
      <trkpt lat="45.27507" lon="6.08322">
        <ele>1229</ele>
        <time>2021-12-23T08:43:29Z</time>
      </trkpt>
      <trkpt lat="45.27507" lon="6.08322">
        <ele>1230</ele>
        <time>2021-12-23T08:43:30Z</time>
      </trkpt>
      <trkpt lat="45.27498" lon="6.08327">
        <ele>1230</ele>
        <time>2021-12-23T08:43:32Z</time>
      </trkpt>
      <trkpt lat="45.27498" lon="6.08327">
        <ele>1230</ele>
        <time>2021-12-23T08:43:34Z</time>
      </trkpt>
      <trkpt lat="45.27496" lon="6.08328">
        <ele>1231</ele>
        <time>2021-12-23T08:43:35Z</time>
      </trkpt>
      <trkpt lat="45.27495" lon="6.08329">
        <ele>1231</ele>
        <time>2021-12-23T08:43:36Z</time>
      </trkpt>
      <trkpt lat="45.27493" lon="6.0833">
        <ele>1231</ele>
        <time>2021-12-23T08:43:37Z</time>
      </trkpt>
      <trkpt lat="45.27491" lon="6.0833">
        <ele>1231</ele>
        <time>2021-12-23T08:43:38Z</time>
      </trkpt>
      <trkpt lat="45.2749" lon="6.08331">
        <ele>1231</ele>
        <time>2021-12-23T08:43:39Z</time>
      </trkpt>
      <trkpt lat="45.27488" lon="6.08332">
        <ele>1231</ele>
        <time>2021-12-23T08:43:40Z</time>
      </trkpt>
      <trkpt lat="45.27488" lon="6.08333">
        <ele>1231</ele>
        <time>2021-12-23T08:43:42Z</time>
      </trkpt>
      <trkpt lat="45.27488" lon="6.08334">
        <ele>1231</ele>
        <time>2021-12-23T08:43:43Z</time>
      </trkpt>
      <trkpt lat="45.27488" lon="6.08335">
        <ele>1231</ele>
        <time>2021-12-23T08:43:44Z</time>
      </trkpt>
      <trkpt lat="45.27488" lon="6.08336">
        <ele>1231</ele>
        <time>2021-12-23T08:43:45Z</time>
      </trkpt>
      <trkpt lat="45.27488" lon="6.08337">
        <ele>1231</ele>
        <time>2021-12-23T08:43:46Z</time>
      </trkpt>
      <trkpt lat="45.27488" lon="6.08338">
        <ele>1231</ele>
        <time>2021-12-23T08:43:47Z</time>
      </trkpt>
      <trkpt lat="45.27488" lon="6.08338">
        <ele>1232</ele>
        <time>2021-12-23T08:43:49Z</time>
      </trkpt>
      <trkpt lat="45.27488" lon="6.08339">
        <ele>1233</ele>
        <time>2021-12-23T08:43:51Z</time>
      </trkpt>
      <trkpt lat="45.27487" lon="6.0834">
        <ele>1233</ele>
        <time>2021-12-23T08:43:52Z</time>
      </trkpt>
      <trkpt lat="45.27487" lon="6.08341">
        <ele>1233</ele>
        <time>2021-12-23T08:43:53Z</time>
      </trkpt>
      <trkpt lat="45.27487" lon="6.08342">
        <ele>1233</ele>
        <time>2021-12-23T08:43:54Z</time>
      </trkpt>
      <trkpt lat="45.27487" lon="6.08343">
        <ele>1233</ele>
        <time>2021-12-23T08:43:55Z</time>
      </trkpt>
      <trkpt lat="45.27487" lon="6.08344">
        <ele>1233</ele>
        <time>2021-12-23T08:43:56Z</time>
      </trkpt>
      <trkpt lat="45.27486" lon="6.08345">
        <ele>1233</ele>
        <time>2021-12-23T08:43:57Z</time>
      </trkpt>
      <trkpt lat="45.27485" lon="6.08346">
        <ele>1233</ele>
        <time>2021-12-23T08:43:58Z</time>
      </trkpt>
      <trkpt lat="45.27484" lon="6.08347">
        <ele>1234</ele>
        <time>2021-12-23T08:43:59Z</time>
      </trkpt>
      <trkpt lat="45.27482" lon="6.08349">
        <ele>1234</ele>
        <time>2021-12-23T08:44:00Z</time>
      </trkpt>
      <trkpt lat="45.27481" lon="6.0835">
        <ele>1234</ele>
        <time>2021-12-23T08:44:01Z</time>
      </trkpt>
      <trkpt lat="45.2748" lon="6.08351">
        <ele>1234</ele>
        <time>2021-12-23T08:44:02Z</time>
      </trkpt>
      <trkpt lat="45.27479" lon="6.08352">
        <ele>1234</ele>
        <time>2021-12-23T08:44:03Z</time>
      </trkpt>
      <trkpt lat="45.27479" lon="6.08353">
        <ele>1234</ele>
        <time>2021-12-23T08:44:04Z</time>
      </trkpt>
      <trkpt lat="45.27478" lon="6.08353">
        <ele>1235</ele>
        <time>2021-12-23T08:44:05Z</time>
      </trkpt>
      <trkpt lat="45.27478" lon="6.08354">
        <ele>1235</ele>
        <time>2021-12-23T08:44:06Z</time>
      </trkpt>
      <trkpt lat="45.27477" lon="6.08355">
        <ele>1235</ele>
        <time>2021-12-23T08:44:07Z</time>
      </trkpt>
      <trkpt lat="45.27477" lon="6.08355">
        <ele>1236</ele>
        <time>2021-12-23T08:44:08Z</time>
      </trkpt>
      <trkpt lat="45.27477" lon="6.08356">
        <ele>1236</ele>
        <time>2021-12-23T08:44:10Z</time>
      </trkpt>
      <trkpt lat="45.27476" lon="6.08357">
        <ele>1236</ele>
        <time>2021-12-23T08:44:11Z</time>
      </trkpt>
      <trkpt lat="45.27476" lon="6.08357">
        <ele>1236</ele>
        <time>2021-12-23T08:44:12Z</time>
      </trkpt>
      <trkpt lat="45.27475" lon="6.08358">
        <ele>1237</ele>
        <time>2021-12-23T08:44:13Z</time>
      </trkpt>
      <trkpt lat="45.27475" lon="6.08359">
        <ele>1237</ele>
        <time>2021-12-23T08:44:14Z</time>
      </trkpt>
      <trkpt lat="45.27475" lon="6.08359">
        <ele>1237</ele>
        <time>2021-12-23T08:44:15Z</time>
      </trkpt>
      <trkpt lat="45.27474" lon="6.0836">
        <ele>1237</ele>
        <time>2021-12-23T08:44:16Z</time>
      </trkpt>
      <trkpt lat="45.27474" lon="6.08361">
        <ele>1237</ele>
        <time>2021-12-23T08:44:17Z</time>
      </trkpt>
      <trkpt lat="45.27474" lon="6.08361">
        <ele>1237</ele>
        <time>2021-12-23T08:44:18Z</time>
      </trkpt>
      <trkpt lat="45.27473" lon="6.08362">
        <ele>1238</ele>
        <time>2021-12-23T08:44:19Z</time>
      </trkpt>
      <trkpt lat="45.27472" lon="6.08362">
        <ele>1238</ele>
        <time>2021-12-23T08:44:20Z</time>
      </trkpt>
      <trkpt lat="45.27471" lon="6.08362">
        <ele>1238</ele>
        <time>2021-12-23T08:44:21Z</time>
      </trkpt>
      <trkpt lat="45.2747" lon="6.08363">
        <ele>1238</ele>
        <time>2021-12-23T08:44:22Z</time>
      </trkpt>
      <trkpt lat="45.27469" lon="6.08363">
        <ele>1239</ele>
        <time>2021-12-23T08:44:23Z</time>
      </trkpt>
      <trkpt lat="45.27468" lon="6.08363">
        <ele>1239</ele>
        <time>2021-12-23T08:44:24Z</time>
      </trkpt>
      <trkpt lat="45.27467" lon="6.08364">
        <ele>1240</ele>
        <time>2021-12-23T08:44:25Z</time>
      </trkpt>
      <trkpt lat="45.27466" lon="6.08364">
        <ele>1240</ele>
        <time>2021-12-23T08:44:26Z</time>
      </trkpt>
      <trkpt lat="45.27464" lon="6.08364">
        <ele>1240</ele>
        <time>2021-12-23T08:44:27Z</time>
      </trkpt>
      <trkpt lat="45.27464" lon="6.08365">
        <ele>1240</ele>
        <time>2021-12-23T08:44:29Z</time>
      </trkpt>
      <trkpt lat="45.27463" lon="6.08366">
        <ele>1240</ele>
        <time>2021-12-23T08:44:30Z</time>
      </trkpt>
      <trkpt lat="45.27462" lon="6.08367">
        <ele>1240</ele>
        <time>2021-12-23T08:44:31Z</time>
      </trkpt>
      <trkpt lat="45.27461" lon="6.08368">
        <ele>1241</ele>
        <time>2021-12-23T08:44:32Z</time>
      </trkpt>
      <trkpt lat="45.2746" lon="6.08369">
        <ele>1241</ele>
        <time>2021-12-23T08:44:33Z</time>
      </trkpt>
      <trkpt lat="45.27459" lon="6.0837">
        <ele>1242</ele>
        <time>2021-12-23T08:44:34Z</time>
      </trkpt>
      <trkpt lat="45.27458" lon="6.08371">
        <ele>1242</ele>
        <time>2021-12-23T08:44:35Z</time>
      </trkpt>
      <trkpt lat="45.27457" lon="6.08371">
        <ele>1242</ele>
        <time>2021-12-23T08:44:37Z</time>
      </trkpt>
      <trkpt lat="45.27456" lon="6.08372">
        <ele>1242</ele>
        <time>2021-12-23T08:44:38Z</time>
      </trkpt>
      <trkpt lat="45.27455" lon="6.08373">
        <ele>1242</ele>
        <time>2021-12-23T08:44:39Z</time>
      </trkpt>
      <trkpt lat="45.27454" lon="6.08374">
        <ele>1243</ele>
        <time>2021-12-23T08:44:40Z</time>
      </trkpt>
      <trkpt lat="45.27454" lon="6.08375">
        <ele>1243</ele>
        <time>2021-12-23T08:44:41Z</time>
      </trkpt>
      <trkpt lat="45.27454" lon="6.08375">
        <ele>1243</ele>
        <time>2021-12-23T08:44:42Z</time>
      </trkpt>
      <trkpt lat="45.27454" lon="6.08376">
        <ele>1243</ele>
        <time>2021-12-23T08:44:43Z</time>
      </trkpt>
      <trkpt lat="45.27454" lon="6.08377">
        <ele>1243</ele>
        <time>2021-12-23T08:44:44Z</time>
      </trkpt>
      <trkpt lat="45.27454" lon="6.08377">
        <ele>1243</ele>
        <time>2021-12-23T08:44:46Z</time>
      </trkpt>
      <trkpt lat="45.27454" lon="6.08378">
        <ele>1243</ele>
        <time>2021-12-23T08:44:47Z</time>
      </trkpt>
      <trkpt lat="45.27454" lon="6.08379">
        <ele>1244</ele>
        <time>2021-12-23T08:44:48Z</time>
      </trkpt>
      <trkpt lat="45.27454" lon="6.08379">
        <ele>1244</ele>
        <time>2021-12-23T08:44:50Z</time>
      </trkpt>
      <trkpt lat="45.27453" lon="6.0838">
        <ele>1244</ele>
        <time>2021-12-23T08:44:51Z</time>
      </trkpt>
      <trkpt lat="45.27453" lon="6.0838">
        <ele>1244</ele>
        <time>2021-12-23T08:44:52Z</time>
      </trkpt>
      <trkpt lat="45.27453" lon="6.08381">
        <ele>1244</ele>
        <time>2021-12-23T08:44:53Z</time>
      </trkpt>
      <trkpt lat="45.27453" lon="6.08382">
        <ele>1244</ele>
        <time>2021-12-23T08:44:54Z</time>
      </trkpt>
      <trkpt lat="45.27453" lon="6.08382">
        <ele>1245</ele>
        <time>2021-12-23T08:44:56Z</time>
      </trkpt>
      <trkpt lat="45.27453" lon="6.08383">
        <ele>1246</ele>
        <time>2021-12-23T08:44:57Z</time>
      </trkpt>
      <trkpt lat="45.27453" lon="6.08383">
        <ele>1246</ele>
        <time>2021-12-23T08:44:58Z</time>
      </trkpt>
      <trkpt lat="45.27453" lon="6.08384">
        <ele>1246</ele>
        <time>2021-12-23T08:44:59Z</time>
      </trkpt>
      <trkpt lat="45.27453" lon="6.08385">
        <ele>1246</ele>
        <time>2021-12-23T08:45:00Z</time>
      </trkpt>
      <trkpt lat="45.27453" lon="6.08385">
        <ele>1246</ele>
        <time>2021-12-23T08:45:01Z</time>
      </trkpt>
      <trkpt lat="45.27452" lon="6.08386">
        <ele>1246</ele>
        <time>2021-12-23T08:45:02Z</time>
      </trkpt>
      <trkpt lat="45.27452" lon="6.08386">
        <ele>1246</ele>
        <time>2021-12-23T08:45:03Z</time>
      </trkpt>
      <trkpt lat="45.27452" lon="6.08387">
        <ele>1247</ele>
        <time>2021-12-23T08:45:04Z</time>
      </trkpt>
      <trkpt lat="45.27452" lon="6.08388">
        <ele>1247</ele>
        <time>2021-12-23T08:45:05Z</time>
      </trkpt>
      <trkpt lat="45.27452" lon="6.08388">
        <ele>1247</ele>
        <time>2021-12-23T08:45:07Z</time>
      </trkpt>
      <trkpt lat="45.27451" lon="6.08389">
        <ele>1247</ele>
        <time>2021-12-23T08:45:08Z</time>
      </trkpt>
      <trkpt lat="45.27451" lon="6.0839">
        <ele>1247</ele>
        <time>2021-12-23T08:45:09Z</time>
      </trkpt>
      <trkpt lat="45.27451" lon="6.0839">
        <ele>1247</ele>
        <time>2021-12-23T08:45:10Z</time>
      </trkpt>
      <trkpt lat="45.2745" lon="6.08391">
        <ele>1247</ele>
        <time>2021-12-23T08:45:11Z</time>
      </trkpt>
      <trkpt lat="45.2745" lon="6.08391">
        <ele>1247</ele>
        <time>2021-12-23T08:45:12Z</time>
      </trkpt>
      <trkpt lat="45.2745" lon="6.08392">
        <ele>1247</ele>
        <time>2021-12-23T08:45:13Z</time>
      </trkpt>
      <trkpt lat="45.27449" lon="6.08393">
        <ele>1247</ele>
        <time>2021-12-23T08:45:14Z</time>
      </trkpt>
      <trkpt lat="45.27449" lon="6.08393">
        <ele>1248</ele>
        <time>2021-12-23T08:45:15Z</time>
      </trkpt>
      <trkpt lat="45.27449" lon="6.08394">
        <ele>1248</ele>
        <time>2021-12-23T08:45:16Z</time>
      </trkpt>
      <trkpt lat="45.27448" lon="6.08395">
        <ele>1248</ele>
        <time>2021-12-23T08:45:17Z</time>
      </trkpt>
      <trkpt lat="45.27448" lon="6.08395">
        <ele>1249</ele>
        <time>2021-12-23T08:45:18Z</time>
      </trkpt>
      <trkpt lat="45.27448" lon="6.08396">
        <ele>1249</ele>
        <time>2021-12-23T08:45:19Z</time>
      </trkpt>
      <trkpt lat="45.27447" lon="6.08397">
        <ele>1249</ele>
        <time>2021-12-23T08:45:20Z</time>
      </trkpt>
      <trkpt lat="45.27447" lon="6.08397">
        <ele>1250</ele>
        <time>2021-12-23T08:45:21Z</time>
      </trkpt>
      <trkpt lat="45.27447" lon="6.08398">
        <ele>1251</ele>
        <time>2021-12-23T08:45:22Z</time>
      </trkpt>
      <trkpt lat="45.27446" lon="6.08398">
        <ele>1251</ele>
        <time>2021-12-23T08:45:23Z</time>
      </trkpt>
      <trkpt lat="45.27446" lon="6.08399">
        <ele>1250</ele>
        <time>2021-12-23T08:45:24Z</time>
      </trkpt>
      <trkpt lat="45.27445" lon="6.084">
        <ele>1250</ele>
        <time>2021-12-23T08:45:26Z</time>
      </trkpt>
      <trkpt lat="45.27445" lon="6.084">
        <ele>1251</ele>
        <time>2021-12-23T08:45:27Z</time>
      </trkpt>
      <trkpt lat="45.27444" lon="6.08401">
        <ele>1251</ele>
        <time>2021-12-23T08:45:28Z</time>
      </trkpt>
      <trkpt lat="45.27444" lon="6.08402">
        <ele>1251</ele>
        <time>2021-12-23T08:45:29Z</time>
      </trkpt>
      <trkpt lat="45.27443" lon="6.08402">
        <ele>1251</ele>
        <time>2021-12-23T08:45:30Z</time>
      </trkpt>
      <trkpt lat="45.27443" lon="6.08403">
        <ele>1251</ele>
        <time>2021-12-23T08:45:31Z</time>
      </trkpt>
      <trkpt lat="45.27443" lon="6.08404">
        <ele>1251</ele>
        <time>2021-12-23T08:45:32Z</time>
      </trkpt>
      <trkpt lat="45.27442" lon="6.08404">
        <ele>1252</ele>
        <time>2021-12-23T08:45:33Z</time>
      </trkpt>
      <trkpt lat="45.27442" lon="6.08405">
        <ele>1252</ele>
        <time>2021-12-23T08:45:34Z</time>
      </trkpt>
      <trkpt lat="45.27441" lon="6.08406">
        <ele>1253</ele>
        <time>2021-12-23T08:45:35Z</time>
      </trkpt>
      <trkpt lat="45.27441" lon="6.08406">
        <ele>1253</ele>
        <time>2021-12-23T08:45:36Z</time>
      </trkpt>
      <trkpt lat="45.2744" lon="6.08407">
        <ele>1253</ele>
        <time>2021-12-23T08:45:37Z</time>
      </trkpt>
      <trkpt lat="45.2744" lon="6.08407">
        <ele>1253</ele>
        <time>2021-12-23T08:45:38Z</time>
      </trkpt>
      <trkpt lat="45.2744" lon="6.08407">
        <ele>1253</ele>
        <time>2021-12-23T08:45:39Z</time>
      </trkpt>
      <trkpt lat="45.2744" lon="6.08407">
        <ele>1253</ele>
        <time>2021-12-23T08:45:40Z</time>
      </trkpt>
      <trkpt lat="45.2744" lon="6.08407">
        <ele>1254</ele>
        <time>2021-12-23T08:45:41Z</time>
      </trkpt>
      <trkpt lat="45.2744" lon="6.08407">
        <ele>1254</ele>
        <time>2021-12-23T08:45:42Z</time>
      </trkpt>
      <trkpt lat="45.27434" lon="6.08416">
        <ele>1254</ele>
        <time>2021-12-23T08:45:43Z</time>
      </trkpt>
      <trkpt lat="45.27434" lon="6.08416">
        <ele>1255</ele>
        <time>2021-12-23T08:45:45Z</time>
      </trkpt>
      <trkpt lat="45.27433" lon="6.08417">
        <ele>1255</ele>
        <time>2021-12-23T08:45:46Z</time>
      </trkpt>
      <trkpt lat="45.27432" lon="6.08417">
        <ele>1256</ele>
        <time>2021-12-23T08:45:47Z</time>
      </trkpt>
      <trkpt lat="45.27431" lon="6.08418">
        <ele>1256</ele>
        <time>2021-12-23T08:45:48Z</time>
      </trkpt>
      <trkpt lat="45.2743" lon="6.08418">
        <ele>1257</ele>
        <time>2021-12-23T08:45:49Z</time>
      </trkpt>
      <trkpt lat="45.27429" lon="6.08419">
        <ele>1257</ele>
        <time>2021-12-23T08:45:50Z</time>
      </trkpt>
      <trkpt lat="45.27428" lon="6.0842">
        <ele>1257</ele>
        <time>2021-12-23T08:45:51Z</time>
      </trkpt>
      <trkpt lat="45.27427" lon="6.0842">
        <ele>1257</ele>
        <time>2021-12-23T08:45:52Z</time>
      </trkpt>
      <trkpt lat="45.27426" lon="6.08421">
        <ele>1257</ele>
        <time>2021-12-23T08:45:53Z</time>
      </trkpt>
      <trkpt lat="45.27426" lon="6.08421">
        <ele>1257</ele>
        <time>2021-12-23T08:45:54Z</time>
      </trkpt>
      <trkpt lat="45.27425" lon="6.08422">
        <ele>1257</ele>
        <time>2021-12-23T08:45:55Z</time>
      </trkpt>
      <trkpt lat="45.27425" lon="6.08423">
        <ele>1257</ele>
        <time>2021-12-23T08:45:56Z</time>
      </trkpt>
      <trkpt lat="45.27424" lon="6.08424">
        <ele>1257</ele>
        <time>2021-12-23T08:45:57Z</time>
      </trkpt>
      <trkpt lat="45.27424" lon="6.08425">
        <ele>1257</ele>
        <time>2021-12-23T08:45:58Z</time>
      </trkpt>
      <trkpt lat="45.27423" lon="6.08426">
        <ele>1257</ele>
        <time>2021-12-23T08:45:59Z</time>
      </trkpt>
      <trkpt lat="45.27423" lon="6.08427">
        <ele>1257</ele>
        <time>2021-12-23T08:46:00Z</time>
      </trkpt>
      <trkpt lat="45.27422" lon="6.08428">
        <ele>1257</ele>
        <time>2021-12-23T08:46:01Z</time>
      </trkpt>
      <trkpt lat="45.27422" lon="6.08429">
        <ele>1257</ele>
        <time>2021-12-23T08:46:02Z</time>
      </trkpt>
      <trkpt lat="45.27421" lon="6.0843">
        <ele>1258</ele>
        <time>2021-12-23T08:46:04Z</time>
      </trkpt>
      <trkpt lat="45.27421" lon="6.08431">
        <ele>1258</ele>
        <time>2021-12-23T08:46:05Z</time>
      </trkpt>
      <trkpt lat="45.2742" lon="6.08432">
        <ele>1258</ele>
        <time>2021-12-23T08:46:06Z</time>
      </trkpt>
      <trkpt lat="45.2742" lon="6.08433">
        <ele>1258</ele>
        <time>2021-12-23T08:46:07Z</time>
      </trkpt>
      <trkpt lat="45.27419" lon="6.08434">
        <ele>1259</ele>
        <time>2021-12-23T08:46:08Z</time>
      </trkpt>
      <trkpt lat="45.27419" lon="6.08435">
        <ele>1259</ele>
        <time>2021-12-23T08:46:09Z</time>
      </trkpt>
      <trkpt lat="45.27418" lon="6.08435">
        <ele>1260</ele>
        <time>2021-12-23T08:46:10Z</time>
      </trkpt>
      <trkpt lat="45.27418" lon="6.08436">
        <ele>1260</ele>
        <time>2021-12-23T08:46:11Z</time>
      </trkpt>
      <trkpt lat="45.27417" lon="6.08437">
        <ele>1260</ele>
        <time>2021-12-23T08:46:12Z</time>
      </trkpt>
      <trkpt lat="45.27417" lon="6.08438">
        <ele>1260</ele>
        <time>2021-12-23T08:46:13Z</time>
      </trkpt>
      <trkpt lat="45.27416" lon="6.08438">
        <ele>1260</ele>
        <time>2021-12-23T08:46:14Z</time>
      </trkpt>
      <trkpt lat="45.27415" lon="6.08439">
        <ele>1260</ele>
        <time>2021-12-23T08:46:15Z</time>
      </trkpt>
      <trkpt lat="45.27415" lon="6.0844">
        <ele>1261</ele>
        <time>2021-12-23T08:46:16Z</time>
      </trkpt>
      <trkpt lat="45.27414" lon="6.08441">
        <ele>1261</ele>
        <time>2021-12-23T08:46:17Z</time>
      </trkpt>
      <trkpt lat="45.27414" lon="6.08441">
        <ele>1261</ele>
        <time>2021-12-23T08:46:18Z</time>
      </trkpt>
      <trkpt lat="45.27414" lon="6.08442">
        <ele>1261</ele>
        <time>2021-12-23T08:46:19Z</time>
      </trkpt>
      <trkpt lat="45.27413" lon="6.08443">
        <ele>1261</ele>
        <time>2021-12-23T08:46:20Z</time>
      </trkpt>
      <trkpt lat="45.27413" lon="6.08444">
        <ele>1262</ele>
        <time>2021-12-23T08:46:21Z</time>
      </trkpt>
      <trkpt lat="45.27413" lon="6.08444">
        <ele>1262</ele>
        <time>2021-12-23T08:46:23Z</time>
      </trkpt>
      <trkpt lat="45.27413" lon="6.08445">
        <ele>1262</ele>
        <time>2021-12-23T08:46:24Z</time>
      </trkpt>
      <trkpt lat="45.27413" lon="6.08446">
        <ele>1262</ele>
        <time>2021-12-23T08:46:25Z</time>
      </trkpt>
      <trkpt lat="45.27413" lon="6.08446">
        <ele>1262</ele>
        <time>2021-12-23T08:46:26Z</time>
      </trkpt>
      <trkpt lat="45.27412" lon="6.08447">
        <ele>1262</ele>
        <time>2021-12-23T08:46:27Z</time>
      </trkpt>
      <trkpt lat="45.27412" lon="6.08448">
        <ele>1262</ele>
        <time>2021-12-23T08:46:28Z</time>
      </trkpt>
      <trkpt lat="45.27412" lon="6.08449">
        <ele>1262</ele>
        <time>2021-12-23T08:46:29Z</time>
      </trkpt>
      <trkpt lat="45.27412" lon="6.08449">
        <ele>1262</ele>
        <time>2021-12-23T08:46:30Z</time>
      </trkpt>
      <trkpt lat="45.27412" lon="6.0845">
        <ele>1262</ele>
        <time>2021-12-23T08:46:31Z</time>
      </trkpt>
      <trkpt lat="45.27411" lon="6.08451">
        <ele>1263</ele>
        <time>2021-12-23T08:46:32Z</time>
      </trkpt>
      <trkpt lat="45.27411" lon="6.08451">
        <ele>1263</ele>
        <time>2021-12-23T08:46:33Z</time>
      </trkpt>
      <trkpt lat="45.27411" lon="6.08452">
        <ele>1264</ele>
        <time>2021-12-23T08:46:34Z</time>
      </trkpt>
      <trkpt lat="45.27411" lon="6.08453">
        <ele>1264</ele>
        <time>2021-12-23T08:46:35Z</time>
      </trkpt>
      <trkpt lat="45.27411" lon="6.08453">
        <ele>1264</ele>
        <time>2021-12-23T08:46:36Z</time>
      </trkpt>
      <trkpt lat="45.27411" lon="6.08453">
        <ele>1264</ele>
        <time>2021-12-23T08:46:37Z</time>
      </trkpt>
      <trkpt lat="45.2741" lon="6.08453">
        <ele>1264</ele>
        <time>2021-12-23T08:46:38Z</time>
      </trkpt>
      <trkpt lat="45.2741" lon="6.08454">
        <ele>1264</ele>
        <time>2021-12-23T08:46:39Z</time>
      </trkpt>
      <trkpt lat="45.2741" lon="6.08454">
        <ele>1264</ele>
        <time>2021-12-23T08:46:40Z</time>
      </trkpt>
      <trkpt lat="45.2741" lon="6.08454">
        <ele>1264</ele>
        <time>2021-12-23T08:46:42Z</time>
      </trkpt>
      <trkpt lat="45.2741" lon="6.08454">
        <ele>1264</ele>
        <time>2021-12-23T08:46:43Z</time>
      </trkpt>
      <trkpt lat="45.2741" lon="6.08454">
        <ele>1264</ele>
        <time>2021-12-23T08:46:44Z</time>
      </trkpt>
      <trkpt lat="45.27409" lon="6.08454">
        <ele>1264</ele>
        <time>2021-12-23T08:46:45Z</time>
      </trkpt>
      <trkpt lat="45.27409" lon="6.08455">
        <ele>1264</ele>
        <time>2021-12-23T08:46:46Z</time>
      </trkpt>
      <trkpt lat="45.27409" lon="6.08455">
        <ele>1264</ele>
        <time>2021-12-23T08:46:47Z</time>
      </trkpt>
      <trkpt lat="45.27409" lon="6.08455">
        <ele>1264</ele>
        <time>2021-12-23T08:46:48Z</time>
      </trkpt>
      <trkpt lat="45.27409" lon="6.08455">
        <ele>1264</ele>
        <time>2021-12-23T08:46:49Z</time>
      </trkpt>
      <trkpt lat="45.27409" lon="6.08455">
        <ele>1264</ele>
        <time>2021-12-23T08:46:50Z</time>
      </trkpt>
      <trkpt lat="45.27408" lon="6.08455">
        <ele>1264</ele>
        <time>2021-12-23T08:46:51Z</time>
      </trkpt>
      <trkpt lat="45.27408" lon="6.08456">
        <ele>1264</ele>
        <time>2021-12-23T08:46:52Z</time>
      </trkpt>
      <trkpt lat="45.27408" lon="6.08456">
        <ele>1264</ele>
        <time>2021-12-23T08:46:53Z</time>
      </trkpt>
      <trkpt lat="45.27408" lon="6.08456">
        <ele>1265</ele>
        <time>2021-12-23T08:46:54Z</time>
      </trkpt>
      <trkpt lat="45.27408" lon="6.08456">
        <ele>1265</ele>
        <time>2021-12-23T08:46:55Z</time>
      </trkpt>
      <trkpt lat="45.27408" lon="6.08456">
        <ele>1265</ele>
        <time>2021-12-23T08:46:56Z</time>
      </trkpt>
      <trkpt lat="45.27407" lon="6.08456">
        <ele>1265</ele>
        <time>2021-12-23T08:46:57Z</time>
      </trkpt>
      <trkpt lat="45.27407" lon="6.08457">
        <ele>1265</ele>
        <time>2021-12-23T08:46:58Z</time>
      </trkpt>
      <trkpt lat="45.27407" lon="6.08457">
        <ele>1265</ele>
        <time>2021-12-23T08:46:59Z</time>
      </trkpt>
      <trkpt lat="45.27407" lon="6.08457">
        <ele>1265</ele>
        <time>2021-12-23T08:47:01Z</time>
      </trkpt>
      <trkpt lat="45.27407" lon="6.08457">
        <ele>1265</ele>
        <time>2021-12-23T08:47:02Z</time>
      </trkpt>
      <trkpt lat="45.27407" lon="6.08457">
        <ele>1265</ele>
        <time>2021-12-23T08:47:03Z</time>
      </trkpt>
      <trkpt lat="45.27406" lon="6.08458">
        <ele>1265</ele>
        <time>2021-12-23T08:47:04Z</time>
      </trkpt>
      <trkpt lat="45.27406" lon="6.08458">
        <ele>1265</ele>
        <time>2021-12-23T08:47:05Z</time>
      </trkpt>
      <trkpt lat="45.27406" lon="6.08458">
        <ele>1265</ele>
        <time>2021-12-23T08:47:06Z</time>
      </trkpt>
      <trkpt lat="45.27406" lon="6.08458">
        <ele>1265</ele>
        <time>2021-12-23T08:47:07Z</time>
      </trkpt>
      <trkpt lat="45.27406" lon="6.08458">
        <ele>1265</ele>
        <time>2021-12-23T08:47:08Z</time>
      </trkpt>
      <trkpt lat="45.27406" lon="6.08458">
        <ele>1265</ele>
        <time>2021-12-23T08:47:09Z</time>
      </trkpt>
      <trkpt lat="45.27405" lon="6.08459">
        <ele>1266</ele>
        <time>2021-12-23T08:47:10Z</time>
      </trkpt>
      <trkpt lat="45.27405" lon="6.08459">
        <ele>1266</ele>
        <time>2021-12-23T08:47:11Z</time>
      </trkpt>
      <trkpt lat="45.27405" lon="6.08459">
        <ele>1266</ele>
        <time>2021-12-23T08:47:12Z</time>
      </trkpt>
      <trkpt lat="45.27405" lon="6.08459">
        <ele>1266</ele>
        <time>2021-12-23T08:47:13Z</time>
      </trkpt>
      <trkpt lat="45.27405" lon="6.08459">
        <ele>1266</ele>
        <time>2021-12-23T08:47:14Z</time>
      </trkpt>
      <trkpt lat="45.27405" lon="6.08459">
        <ele>1266</ele>
        <time>2021-12-23T08:47:15Z</time>
      </trkpt>
      <trkpt lat="45.27404" lon="6.0846">
        <ele>1266</ele>
        <time>2021-12-23T08:47:16Z</time>
      </trkpt>
      <trkpt lat="45.27404" lon="6.0846">
        <ele>1266</ele>
        <time>2021-12-23T08:47:17Z</time>
      </trkpt>
      <trkpt lat="45.27404" lon="6.0846">
        <ele>1266</ele>
        <time>2021-12-23T08:47:18Z</time>
      </trkpt>
      <trkpt lat="45.27404" lon="6.0846">
        <ele>1266</ele>
        <time>2021-12-23T08:47:20Z</time>
      </trkpt>
      <trkpt lat="45.27404" lon="6.0846">
        <ele>1266</ele>
        <time>2021-12-23T08:47:21Z</time>
      </trkpt>
      <trkpt lat="45.27404" lon="6.0846">
        <ele>1267</ele>
        <time>2021-12-23T08:47:22Z</time>
      </trkpt>
      <trkpt lat="45.27403" lon="6.0846">
        <ele>1267</ele>
        <time>2021-12-23T08:47:23Z</time>
      </trkpt>
      <trkpt lat="45.27403" lon="6.0846">
        <ele>1267</ele>
        <time>2021-12-23T08:47:24Z</time>
      </trkpt>
      <trkpt lat="45.27403" lon="6.0846">
        <ele>1267</ele>
        <time>2021-12-23T08:47:25Z</time>
      </trkpt>
      <trkpt lat="45.27403" lon="6.0846">
        <ele>1266</ele>
        <time>2021-12-23T08:47:26Z</time>
      </trkpt>
      <trkpt lat="45.27403" lon="6.0846">
        <ele>1266</ele>
        <time>2021-12-23T08:47:27Z</time>
      </trkpt>
      <trkpt lat="45.27402" lon="6.0846">
        <ele>1266</ele>
        <time>2021-12-23T08:47:28Z</time>
      </trkpt>
      <trkpt lat="45.27402" lon="6.0846">
        <ele>1266</ele>
        <time>2021-12-23T08:47:29Z</time>
      </trkpt>
      <trkpt lat="45.27402" lon="6.0846">
        <ele>1266</ele>
        <time>2021-12-23T08:47:30Z</time>
      </trkpt>
      <trkpt lat="45.27402" lon="6.0846">
        <ele>1266</ele>
        <time>2021-12-23T08:47:31Z</time>
      </trkpt>
      <trkpt lat="45.27402" lon="6.0846">
        <ele>1266</ele>
        <time>2021-12-23T08:47:32Z</time>
      </trkpt>
      <trkpt lat="45.27401" lon="6.0846">
        <ele>1266</ele>
        <time>2021-12-23T08:47:33Z</time>
      </trkpt>
      <trkpt lat="45.27401" lon="6.0846">
        <ele>1266</ele>
        <time>2021-12-23T08:47:34Z</time>
      </trkpt>
      <trkpt lat="45.27401" lon="6.0846">
        <ele>1266</ele>
        <time>2021-12-23T08:47:35Z</time>
      </trkpt>
      <trkpt lat="45.27401" lon="6.0846">
        <ele>1266</ele>
        <time>2021-12-23T08:47:36Z</time>
      </trkpt>
      <trkpt lat="45.27401" lon="6.0846">
        <ele>1266</ele>
        <time>2021-12-23T08:47:37Z</time>
      </trkpt>
      <trkpt lat="45.274" lon="6.0846">
        <ele>1266</ele>
        <time>2021-12-23T08:47:39Z</time>
      </trkpt>
      <trkpt lat="45.274" lon="6.0846">
        <ele>1266</ele>
        <time>2021-12-23T08:47:40Z</time>
      </trkpt>
      <trkpt lat="45.274" lon="6.0846">
        <ele>1266</ele>
        <time>2021-12-23T08:47:41Z</time>
      </trkpt>
      <trkpt lat="45.274" lon="6.0846">
        <ele>1266</ele>
        <time>2021-12-23T08:47:42Z</time>
      </trkpt>
      <trkpt lat="45.274" lon="6.0846">
        <ele>1266</ele>
        <time>2021-12-23T08:47:43Z</time>
      </trkpt>
      <trkpt lat="45.27399" lon="6.0846">
        <ele>1266</ele>
        <time>2021-12-23T08:47:44Z</time>
      </trkpt>
      <trkpt lat="45.27399" lon="6.0846">
        <ele>1266</ele>
        <time>2021-12-23T08:47:45Z</time>
      </trkpt>
      <trkpt lat="45.27399" lon="6.0846">
        <ele>1266</ele>
        <time>2021-12-23T08:47:46Z</time>
      </trkpt>
      <trkpt lat="45.27399" lon="6.0846">
        <ele>1266</ele>
        <time>2021-12-23T08:47:47Z</time>
      </trkpt>
      <trkpt lat="45.27399" lon="6.0846">
        <ele>1266</ele>
        <time>2021-12-23T08:47:48Z</time>
      </trkpt>
      <trkpt lat="45.27398" lon="6.0846">
        <ele>1266</ele>
        <time>2021-12-23T08:47:49Z</time>
      </trkpt>
      <trkpt lat="45.27398" lon="6.0846">
        <ele>1266</ele>
        <time>2021-12-23T08:47:50Z</time>
      </trkpt>
      <trkpt lat="45.27398" lon="6.0846">
        <ele>1266</ele>
        <time>2021-12-23T08:47:51Z</time>
      </trkpt>
      <trkpt lat="45.27398" lon="6.0846">
        <ele>1266</ele>
        <time>2021-12-23T08:47:52Z</time>
      </trkpt>
      <trkpt lat="45.27398" lon="6.0846">
        <ele>1266</ele>
        <time>2021-12-23T08:47:53Z</time>
      </trkpt>
      <trkpt lat="45.27397" lon="6.0846">
        <ele>1266</ele>
        <time>2021-12-23T08:47:54Z</time>
      </trkpt>
      <trkpt lat="45.27397" lon="6.0846">
        <ele>1266</ele>
        <time>2021-12-23T08:47:55Z</time>
      </trkpt>
      <trkpt lat="45.27397" lon="6.0846">
        <ele>1266</ele>
        <time>2021-12-23T08:47:56Z</time>
      </trkpt>
      <trkpt lat="45.27397" lon="6.0846">
        <ele>1266</ele>
        <time>2021-12-23T08:47:58Z</time>
      </trkpt>
      <trkpt lat="45.27397" lon="6.0846">
        <ele>1266</ele>
        <time>2021-12-23T08:47:59Z</time>
      </trkpt>
      <trkpt lat="45.27396" lon="6.0846">
        <ele>1266</ele>
        <time>2021-12-23T08:48:00Z</time>
      </trkpt>
      <trkpt lat="45.27396" lon="6.0846">
        <ele>1267</ele>
        <time>2021-12-23T08:48:01Z</time>
      </trkpt>
      <trkpt lat="45.27396" lon="6.0846">
        <ele>1267</ele>
        <time>2021-12-23T08:48:02Z</time>
      </trkpt>
      <trkpt lat="45.27396" lon="6.0846">
        <ele>1267</ele>
        <time>2021-12-23T08:48:03Z</time>
      </trkpt>
      <trkpt lat="45.27396" lon="6.0846">
        <ele>1267</ele>
        <time>2021-12-23T08:48:04Z</time>
      </trkpt>
      <trkpt lat="45.27395" lon="6.0846">
        <ele>1267</ele>
        <time>2021-12-23T08:48:05Z</time>
      </trkpt>
      <trkpt lat="45.27395" lon="6.0846">
        <ele>1267</ele>
        <time>2021-12-23T08:48:06Z</time>
      </trkpt>
      <trkpt lat="45.27395" lon="6.0846">
        <ele>1267</ele>
        <time>2021-12-23T08:48:07Z</time>
      </trkpt>
      <trkpt lat="45.27395" lon="6.0846">
        <ele>1267</ele>
        <time>2021-12-23T08:48:08Z</time>
      </trkpt>
      <trkpt lat="45.27395" lon="6.0846">
        <ele>1267</ele>
        <time>2021-12-23T08:48:09Z</time>
      </trkpt>
      <trkpt lat="45.27394" lon="6.0846">
        <ele>1267</ele>
        <time>2021-12-23T08:48:10Z</time>
      </trkpt>
      <trkpt lat="45.27394" lon="6.08462">
        <ele>1267</ele>
        <time>2021-12-23T08:48:11Z</time>
      </trkpt>
      <trkpt lat="45.27393" lon="6.08463">
        <ele>1267</ele>
        <time>2021-12-23T08:48:12Z</time>
      </trkpt>
      <trkpt lat="45.27393" lon="6.08464">
        <ele>1267</ele>
        <time>2021-12-23T08:48:13Z</time>
      </trkpt>
      <trkpt lat="45.27392" lon="6.08465">
        <ele>1268</ele>
        <time>2021-12-23T08:48:14Z</time>
      </trkpt>
      <trkpt lat="45.27392" lon="6.08467">
        <ele>1269</ele>
        <time>2021-12-23T08:48:15Z</time>
      </trkpt>
      <trkpt lat="45.27391" lon="6.08468">
        <ele>1269</ele>
        <time>2021-12-23T08:48:17Z</time>
      </trkpt>
      <trkpt lat="45.27391" lon="6.08469">
        <ele>1269</ele>
        <time>2021-12-23T08:48:18Z</time>
      </trkpt>
      <trkpt lat="45.2739" lon="6.0847">
        <ele>1269</ele>
        <time>2021-12-23T08:48:20Z</time>
      </trkpt>
      <trkpt lat="45.2739" lon="6.08472">
        <ele>1270</ele>
        <time>2021-12-23T08:48:21Z</time>
      </trkpt>
      <trkpt lat="45.2739" lon="6.08471">
        <ele>1270</ele>
        <time>2021-12-23T08:48:22Z</time>
      </trkpt>
      <trkpt lat="45.2739" lon="6.08471">
        <ele>1270</ele>
        <time>2021-12-23T08:48:23Z</time>
      </trkpt>
      <trkpt lat="45.27391" lon="6.08471">
        <ele>1270</ele>
        <time>2021-12-23T08:48:24Z</time>
      </trkpt>
      <trkpt lat="45.27391" lon="6.08471">
        <ele>1271</ele>
        <time>2021-12-23T08:48:25Z</time>
      </trkpt>
      <trkpt lat="45.27391" lon="6.08471">
        <ele>1271</ele>
        <time>2021-12-23T08:48:26Z</time>
      </trkpt>
      <trkpt lat="45.27391" lon="6.08471">
        <ele>1271</ele>
        <time>2021-12-23T08:48:27Z</time>
      </trkpt>
      <trkpt lat="45.27392" lon="6.08471">
        <ele>1271</ele>
        <time>2021-12-23T08:48:28Z</time>
      </trkpt>
      <trkpt lat="45.27392" lon="6.08471">
        <ele>1271</ele>
        <time>2021-12-23T08:48:29Z</time>
      </trkpt>
      <trkpt lat="45.27392" lon="6.08471">
        <ele>1271</ele>
        <time>2021-12-23T08:48:30Z</time>
      </trkpt>
      <trkpt lat="45.27393" lon="6.08471">
        <ele>1271</ele>
        <time>2021-12-23T08:48:31Z</time>
      </trkpt>
      <trkpt lat="45.27393" lon="6.0847">
        <ele>1271</ele>
        <time>2021-12-23T08:48:32Z</time>
      </trkpt>
      <trkpt lat="45.27393" lon="6.0847">
        <ele>1272</ele>
        <time>2021-12-23T08:48:33Z</time>
      </trkpt>
      <trkpt lat="45.27394" lon="6.0847">
        <ele>1272</ele>
        <time>2021-12-23T08:48:34Z</time>
      </trkpt>
      <trkpt lat="45.27394" lon="6.0847">
        <ele>1273</ele>
        <time>2021-12-23T08:48:36Z</time>
      </trkpt>
      <trkpt lat="45.27394" lon="6.0847">
        <ele>1273</ele>
        <time>2021-12-23T08:48:37Z</time>
      </trkpt>
      <trkpt lat="45.27394" lon="6.0847">
        <ele>1273</ele>
        <time>2021-12-23T08:48:38Z</time>
      </trkpt>
      <trkpt lat="45.27395" lon="6.0847">
        <ele>1273</ele>
        <time>2021-12-23T08:48:39Z</time>
      </trkpt>
      <trkpt lat="45.27395" lon="6.0847">
        <ele>1274</ele>
        <time>2021-12-23T08:48:40Z</time>
      </trkpt>
      <trkpt lat="45.27395" lon="6.0847">
        <ele>1274</ele>
        <time>2021-12-23T08:48:41Z</time>
      </trkpt>
      <trkpt lat="45.27396" lon="6.08469">
        <ele>1274</ele>
        <time>2021-12-23T08:48:42Z</time>
      </trkpt>
      <trkpt lat="45.27396" lon="6.08469">
        <ele>1274</ele>
        <time>2021-12-23T08:48:43Z</time>
      </trkpt>
      <trkpt lat="45.27396" lon="6.08469">
        <ele>1274</ele>
        <time>2021-12-23T08:48:44Z</time>
      </trkpt>
      <trkpt lat="45.27396" lon="6.08469">
        <ele>1275</ele>
        <time>2021-12-23T08:48:46Z</time>
      </trkpt>
      <trkpt lat="45.27397" lon="6.08469">
        <ele>1275</ele>
        <time>2021-12-23T08:48:47Z</time>
      </trkpt>
      <trkpt lat="45.27397" lon="6.08469">
        <ele>1274</ele>
        <time>2021-12-23T08:48:48Z</time>
      </trkpt>
      <trkpt lat="45.27397" lon="6.08469">
        <ele>1274</ele>
        <time>2021-12-23T08:48:49Z</time>
      </trkpt>
      <trkpt lat="45.27397" lon="6.0847">
        <ele>1275</ele>
        <time>2021-12-23T08:48:50Z</time>
      </trkpt>
      <trkpt lat="45.27397" lon="6.0847">
        <ele>1275</ele>
        <time>2021-12-23T08:48:51Z</time>
      </trkpt>
      <trkpt lat="45.27397" lon="6.08471">
        <ele>1275</ele>
        <time>2021-12-23T08:48:52Z</time>
      </trkpt>
      <trkpt lat="45.27397" lon="6.08471">
        <ele>1275</ele>
        <time>2021-12-23T08:48:53Z</time>
      </trkpt>
      <trkpt lat="45.27397" lon="6.08471">
        <ele>1275</ele>
        <time>2021-12-23T08:48:55Z</time>
      </trkpt>
      <trkpt lat="45.27397" lon="6.08472">
        <ele>1275</ele>
        <time>2021-12-23T08:48:56Z</time>
      </trkpt>
      <trkpt lat="45.27397" lon="6.08472">
        <ele>1275</ele>
        <time>2021-12-23T08:48:57Z</time>
      </trkpt>
      <trkpt lat="45.27397" lon="6.08472">
        <ele>1275</ele>
        <time>2021-12-23T08:48:58Z</time>
      </trkpt>
      <trkpt lat="45.27397" lon="6.08473">
        <ele>1275</ele>
        <time>2021-12-23T08:48:59Z</time>
      </trkpt>
      <trkpt lat="45.27397" lon="6.08473">
        <ele>1275</ele>
        <time>2021-12-23T08:49:00Z</time>
      </trkpt>
      <trkpt lat="45.27397" lon="6.08474">
        <ele>1274</ele>
        <time>2021-12-23T08:49:01Z</time>
      </trkpt>
      <trkpt lat="45.27397" lon="6.08474">
        <ele>1275</ele>
        <time>2021-12-23T08:49:02Z</time>
      </trkpt>
      <trkpt lat="45.27397" lon="6.08474">
        <ele>1275</ele>
        <time>2021-12-23T08:49:03Z</time>
      </trkpt>
      <trkpt lat="45.27397" lon="6.08475">
        <ele>1275</ele>
        <time>2021-12-23T08:49:04Z</time>
      </trkpt>
      <trkpt lat="45.27397" lon="6.08475">
        <ele>1275</ele>
        <time>2021-12-23T08:49:05Z</time>
      </trkpt>
      <trkpt lat="45.27397" lon="6.08475">
        <ele>1276</ele>
        <time>2021-12-23T08:49:06Z</time>
      </trkpt>
      <trkpt lat="45.27397" lon="6.08476">
        <ele>1276</ele>
        <time>2021-12-23T08:49:07Z</time>
      </trkpt>
      <trkpt lat="45.27397" lon="6.08476">
        <ele>1276</ele>
        <time>2021-12-23T08:49:08Z</time>
      </trkpt>
      <trkpt lat="45.27397" lon="6.08477">
        <ele>1276</ele>
        <time>2021-12-23T08:49:09Z</time>
      </trkpt>
      <trkpt lat="45.27397" lon="6.08477">
        <ele>1276</ele>
        <time>2021-12-23T08:49:10Z</time>
      </trkpt>
      <trkpt lat="45.27397" lon="6.08477">
        <ele>1277</ele>
        <time>2021-12-23T08:49:11Z</time>
      </trkpt>
      <trkpt lat="45.27397" lon="6.08478">
        <ele>1277</ele>
        <time>2021-12-23T08:49:12Z</time>
      </trkpt>
      <trkpt lat="45.27397" lon="6.08478">
        <ele>1278</ele>
        <time>2021-12-23T08:49:14Z</time>
      </trkpt>
      <trkpt lat="45.27397" lon="6.08478">
        <ele>1278</ele>
        <time>2021-12-23T08:49:15Z</time>
      </trkpt>
      <trkpt lat="45.27397" lon="6.08479">
        <ele>1278</ele>
        <time>2021-12-23T08:49:16Z</time>
      </trkpt>
      <trkpt lat="45.27398" lon="6.08479">
        <ele>1278</ele>
        <time>2021-12-23T08:49:17Z</time>
      </trkpt>
      <trkpt lat="45.27398" lon="6.0848">
        <ele>1278</ele>
        <time>2021-12-23T08:49:18Z</time>
      </trkpt>
      <trkpt lat="45.27398" lon="6.0848">
        <ele>1278</ele>
        <time>2021-12-23T08:49:19Z</time>
      </trkpt>
      <trkpt lat="45.27398" lon="6.0848">
        <ele>1278</ele>
        <time>2021-12-23T08:49:20Z</time>
      </trkpt>
      <trkpt lat="45.27398" lon="6.08481">
        <ele>1278</ele>
        <time>2021-12-23T08:49:21Z</time>
      </trkpt>
      <trkpt lat="45.27398" lon="6.08481">
        <ele>1278</ele>
        <time>2021-12-23T08:49:22Z</time>
      </trkpt>
      <trkpt lat="45.27398" lon="6.08482">
        <ele>1278</ele>
        <time>2021-12-23T08:49:23Z</time>
      </trkpt>
      <trkpt lat="45.27397" lon="6.08482">
        <ele>1278</ele>
        <time>2021-12-23T08:49:24Z</time>
      </trkpt>
      <trkpt lat="45.27397" lon="6.08482">
        <ele>1278</ele>
        <time>2021-12-23T08:49:25Z</time>
      </trkpt>
      <trkpt lat="45.27397" lon="6.08483">
        <ele>1278</ele>
        <time>2021-12-23T08:49:26Z</time>
      </trkpt>
      <trkpt lat="45.27396" lon="6.08483">
        <ele>1278</ele>
        <time>2021-12-23T08:49:27Z</time>
      </trkpt>
      <trkpt lat="45.27396" lon="6.08484">
        <ele>1278</ele>
        <time>2021-12-23T08:49:28Z</time>
      </trkpt>
      <trkpt lat="45.27396" lon="6.08484">
        <ele>1278</ele>
        <time>2021-12-23T08:49:29Z</time>
      </trkpt>
      <trkpt lat="45.27395" lon="6.08485">
        <ele>1278</ele>
        <time>2021-12-23T08:49:30Z</time>
      </trkpt>
      <trkpt lat="45.27395" lon="6.08485">
        <ele>1278</ele>
        <time>2021-12-23T08:49:31Z</time>
      </trkpt>
      <trkpt lat="45.27395" lon="6.08486">
        <ele>1278</ele>
        <time>2021-12-23T08:49:33Z</time>
      </trkpt>
      <trkpt lat="45.27394" lon="6.08486">
        <ele>1279</ele>
        <time>2021-12-23T08:49:34Z</time>
      </trkpt>
      <trkpt lat="45.27394" lon="6.08487">
        <ele>1279</ele>
        <time>2021-12-23T08:49:35Z</time>
      </trkpt>
      <trkpt lat="45.27394" lon="6.08487">
        <ele>1279</ele>
        <time>2021-12-23T08:49:36Z</time>
      </trkpt>
      <trkpt lat="45.27394" lon="6.08488">
        <ele>1279</ele>
        <time>2021-12-23T08:49:37Z</time>
      </trkpt>
      <trkpt lat="45.27393" lon="6.08488">
        <ele>1279</ele>
        <time>2021-12-23T08:49:38Z</time>
      </trkpt>
      <trkpt lat="45.27393" lon="6.08489">
        <ele>1279</ele>
        <time>2021-12-23T08:49:39Z</time>
      </trkpt>
      <trkpt lat="45.27393" lon="6.08489">
        <ele>1279</ele>
        <time>2021-12-23T08:49:40Z</time>
      </trkpt>
      <trkpt lat="45.27392" lon="6.0849">
        <ele>1279</ele>
        <time>2021-12-23T08:49:41Z</time>
      </trkpt>
      <trkpt lat="45.27392" lon="6.0849">
        <ele>1280</ele>
        <time>2021-12-23T08:49:42Z</time>
      </trkpt>
      <trkpt lat="45.27392" lon="6.08491">
        <ele>1280</ele>
        <time>2021-12-23T08:49:43Z</time>
      </trkpt>
      <trkpt lat="45.27392" lon="6.08491">
        <ele>1280</ele>
        <time>2021-12-23T08:49:44Z</time>
      </trkpt>
      <trkpt lat="45.27392" lon="6.08491">
        <ele>1280</ele>
        <time>2021-12-23T08:49:45Z</time>
      </trkpt>
      <trkpt lat="45.27392" lon="6.08491">
        <ele>1280</ele>
        <time>2021-12-23T08:49:46Z</time>
      </trkpt>
      <trkpt lat="45.27392" lon="6.08491">
        <ele>1281</ele>
        <time>2021-12-23T08:49:47Z</time>
      </trkpt>
      <trkpt lat="45.27392" lon="6.08491">
        <ele>1281</ele>
        <time>2021-12-23T08:49:48Z</time>
      </trkpt>
      <trkpt lat="45.27382" lon="6.08495">
        <ele>1281</ele>
        <time>2021-12-23T08:49:49Z</time>
      </trkpt>
      <trkpt lat="45.27382" lon="6.08495">
        <ele>1281</ele>
        <time>2021-12-23T08:49:51Z</time>
      </trkpt>
      <trkpt lat="45.27381" lon="6.08496">
        <ele>1282</ele>
        <time>2021-12-23T08:49:52Z</time>
      </trkpt>
      <trkpt lat="45.27381" lon="6.08497">
        <ele>1282</ele>
        <time>2021-12-23T08:49:53Z</time>
      </trkpt>
      <trkpt lat="45.2738" lon="6.08498">
        <ele>1282</ele>
        <time>2021-12-23T08:49:54Z</time>
      </trkpt>
      <trkpt lat="45.2738" lon="6.08499">
        <ele>1283</ele>
        <time>2021-12-23T08:49:55Z</time>
      </trkpt>
      <trkpt lat="45.27379" lon="6.085">
        <ele>1283</ele>
        <time>2021-12-23T08:49:56Z</time>
      </trkpt>
      <trkpt lat="45.27379" lon="6.08501">
        <ele>1283</ele>
        <time>2021-12-23T08:49:57Z</time>
      </trkpt>
      <trkpt lat="45.27378" lon="6.08502">
        <ele>1283</ele>
        <time>2021-12-23T08:49:58Z</time>
      </trkpt>
      <trkpt lat="45.27378" lon="6.08503">
        <ele>1283</ele>
        <time>2021-12-23T08:49:59Z</time>
      </trkpt>
      <trkpt lat="45.27377" lon="6.08504">
        <ele>1283</ele>
        <time>2021-12-23T08:50:00Z</time>
      </trkpt>
      <trkpt lat="45.27377" lon="6.08505">
        <ele>1284</ele>
        <time>2021-12-23T08:50:01Z</time>
      </trkpt>
      <trkpt lat="45.27376" lon="6.08506">
        <ele>1284</ele>
        <time>2021-12-23T08:50:02Z</time>
      </trkpt>
      <trkpt lat="45.27376" lon="6.08507">
        <ele>1284</ele>
        <time>2021-12-23T08:50:03Z</time>
      </trkpt>
      <trkpt lat="45.27375" lon="6.08508">
        <ele>1285</ele>
        <time>2021-12-23T08:50:04Z</time>
      </trkpt>
      <trkpt lat="45.27375" lon="6.08509">
        <ele>1285</ele>
        <time>2021-12-23T08:50:05Z</time>
      </trkpt>
      <trkpt lat="45.27375" lon="6.08509">
        <ele>1285</ele>
        <time>2021-12-23T08:50:06Z</time>
      </trkpt>
      <trkpt lat="45.27375" lon="6.08509">
        <ele>1285</ele>
        <time>2021-12-23T08:50:07Z</time>
      </trkpt>
      <trkpt lat="45.27374" lon="6.08509">
        <ele>1285</ele>
        <time>2021-12-23T08:50:08Z</time>
      </trkpt>
      <trkpt lat="45.27374" lon="6.0851">
        <ele>1285</ele>
        <time>2021-12-23T08:50:09Z</time>
      </trkpt>
      <trkpt lat="45.27374" lon="6.0851">
        <ele>1285</ele>
        <time>2021-12-23T08:50:11Z</time>
      </trkpt>
      <trkpt lat="45.27374" lon="6.0851">
        <ele>1286</ele>
        <time>2021-12-23T08:50:12Z</time>
      </trkpt>
      <trkpt lat="45.27374" lon="6.0851">
        <ele>1286</ele>
        <time>2021-12-23T08:50:13Z</time>
      </trkpt>
      <trkpt lat="45.27374" lon="6.0851">
        <ele>1286</ele>
        <time>2021-12-23T08:50:14Z</time>
      </trkpt>
      <trkpt lat="45.27374" lon="6.0851">
        <ele>1287</ele>
        <time>2021-12-23T08:50:15Z</time>
      </trkpt>
      <trkpt lat="45.27373" lon="6.0851">
        <ele>1287</ele>
        <time>2021-12-23T08:50:16Z</time>
      </trkpt>
      <trkpt lat="45.27373" lon="6.08511">
        <ele>1287</ele>
        <time>2021-12-23T08:50:17Z</time>
      </trkpt>
      <trkpt lat="45.27373" lon="6.08511">
        <ele>1287</ele>
        <time>2021-12-23T08:50:18Z</time>
      </trkpt>
      <trkpt lat="45.27373" lon="6.08511">
        <ele>1287</ele>
        <time>2021-12-23T08:50:19Z</time>
      </trkpt>
      <trkpt lat="45.27373" lon="6.08511">
        <ele>1287</ele>
        <time>2021-12-23T08:50:21Z</time>
      </trkpt>
      <trkpt lat="45.27373" lon="6.08511">
        <ele>1287</ele>
        <time>2021-12-23T08:50:22Z</time>
      </trkpt>
      <trkpt lat="45.27373" lon="6.08511">
        <ele>1287</ele>
        <time>2021-12-23T08:50:23Z</time>
      </trkpt>
      <trkpt lat="45.27372" lon="6.08511">
        <ele>1287</ele>
        <time>2021-12-23T08:50:24Z</time>
      </trkpt>
      <trkpt lat="45.27372" lon="6.08511">
        <ele>1286</ele>
        <time>2021-12-23T08:50:25Z</time>
      </trkpt>
      <trkpt lat="45.27372" lon="6.08512">
        <ele>1287</ele>
        <time>2021-12-23T08:50:26Z</time>
      </trkpt>
      <trkpt lat="45.27372" lon="6.08512">
        <ele>1287</ele>
        <time>2021-12-23T08:50:27Z</time>
      </trkpt>
      <trkpt lat="45.27372" lon="6.08512">
        <ele>1288</ele>
        <time>2021-12-23T08:50:28Z</time>
      </trkpt>
      <trkpt lat="45.27372" lon="6.08512">
        <ele>1288</ele>
        <time>2021-12-23T08:50:30Z</time>
      </trkpt>
      <trkpt lat="45.27372" lon="6.08512">
        <ele>1288</ele>
        <time>2021-12-23T08:50:31Z</time>
      </trkpt>
      <trkpt lat="45.27371" lon="6.08512">
        <ele>1288</ele>
        <time>2021-12-23T08:50:32Z</time>
      </trkpt>
      <trkpt lat="45.27371" lon="6.08512">
        <ele>1288</ele>
        <time>2021-12-23T08:50:33Z</time>
      </trkpt>
      <trkpt lat="45.27371" lon="6.08512">
        <ele>1288</ele>
        <time>2021-12-23T08:50:34Z</time>
      </trkpt>
      <trkpt lat="45.27371" lon="6.08513">
        <ele>1288</ele>
        <time>2021-12-23T08:50:35Z</time>
      </trkpt>
      <trkpt lat="45.27371" lon="6.08513">
        <ele>1288</ele>
        <time>2021-12-23T08:50:36Z</time>
      </trkpt>
      <trkpt lat="45.27371" lon="6.08513">
        <ele>1288</ele>
        <time>2021-12-23T08:50:37Z</time>
      </trkpt>
      <trkpt lat="45.27371" lon="6.08513">
        <ele>1288</ele>
        <time>2021-12-23T08:50:38Z</time>
      </trkpt>
      <trkpt lat="45.2737" lon="6.08513">
        <ele>1288</ele>
        <time>2021-12-23T08:50:39Z</time>
      </trkpt>
      <trkpt lat="45.2737" lon="6.08513">
        <ele>1288</ele>
        <time>2021-12-23T08:50:40Z</time>
      </trkpt>
      <trkpt lat="45.2737" lon="6.08513">
        <ele>1289</ele>
        <time>2021-12-23T08:50:41Z</time>
      </trkpt>
      <trkpt lat="45.2737" lon="6.08514">
        <ele>1289</ele>
        <time>2021-12-23T08:50:42Z</time>
      </trkpt>
      <trkpt lat="45.2737" lon="6.08514">
        <ele>1289</ele>
        <time>2021-12-23T08:50:43Z</time>
      </trkpt>
      <trkpt lat="45.2737" lon="6.08514">
        <ele>1289</ele>
        <time>2021-12-23T08:50:44Z</time>
      </trkpt>
      <trkpt lat="45.2737" lon="6.08514">
        <ele>1289</ele>
        <time>2021-12-23T08:50:45Z</time>
      </trkpt>
      <trkpt lat="45.27369" lon="6.08514">
        <ele>1289</ele>
        <time>2021-12-23T08:50:46Z</time>
      </trkpt>
      <trkpt lat="45.27369" lon="6.08514">
        <ele>1290</ele>
        <time>2021-12-23T08:50:47Z</time>
      </trkpt>
      <trkpt lat="45.27369" lon="6.08514">
        <ele>1290</ele>
        <time>2021-12-23T08:50:49Z</time>
      </trkpt>
      <trkpt lat="45.27369" lon="6.08514">
        <ele>1290</ele>
        <time>2021-12-23T08:50:50Z</time>
      </trkpt>
      <trkpt lat="45.27369" lon="6.08515">
        <ele>1290</ele>
        <time>2021-12-23T08:50:51Z</time>
      </trkpt>
      <trkpt lat="45.27369" lon="6.08515">
        <ele>1290</ele>
        <time>2021-12-23T08:50:52Z</time>
      </trkpt>
      <trkpt lat="45.27369" lon="6.08515">
        <ele>1290</ele>
        <time>2021-12-23T08:50:53Z</time>
      </trkpt>
      <trkpt lat="45.27369" lon="6.08515">
        <ele>1290</ele>
        <time>2021-12-23T08:50:54Z</time>
      </trkpt>
      <trkpt lat="45.27368" lon="6.08515">
        <ele>1290</ele>
        <time>2021-12-23T08:50:55Z</time>
      </trkpt>
      <trkpt lat="45.27368" lon="6.08515">
        <ele>1290</ele>
        <time>2021-12-23T08:50:56Z</time>
      </trkpt>
      <trkpt lat="45.27368" lon="6.08515">
        <ele>1291</ele>
        <time>2021-12-23T08:50:57Z</time>
      </trkpt>
      <trkpt lat="45.27368" lon="6.08515">
        <ele>1291</ele>
        <time>2021-12-23T08:50:58Z</time>
      </trkpt>
      <trkpt lat="45.27369" lon="6.08515">
        <ele>1291</ele>
        <time>2021-12-23T08:50:59Z</time>
      </trkpt>
      <trkpt lat="45.27369" lon="6.08515">
        <ele>1291</ele>
        <time>2021-12-23T08:51:00Z</time>
      </trkpt>
      <trkpt lat="45.27369" lon="6.08515">
        <ele>1292</ele>
        <time>2021-12-23T08:51:01Z</time>
      </trkpt>
      <trkpt lat="45.27369" lon="6.08514">
        <ele>1293</ele>
        <time>2021-12-23T08:51:02Z</time>
      </trkpt>
      <trkpt lat="45.2737" lon="6.08514">
        <ele>1293</ele>
        <time>2021-12-23T08:51:03Z</time>
      </trkpt>
      <trkpt lat="45.2737" lon="6.08514">
        <ele>1293</ele>
        <time>2021-12-23T08:51:04Z</time>
      </trkpt>
      <trkpt lat="45.2737" lon="6.08514">
        <ele>1293</ele>
        <time>2021-12-23T08:51:05Z</time>
      </trkpt>
      <trkpt lat="45.2737" lon="6.08514">
        <ele>1294</ele>
        <time>2021-12-23T08:51:06Z</time>
      </trkpt>
      <trkpt lat="45.27371" lon="6.08514">
        <ele>1294</ele>
        <time>2021-12-23T08:51:08Z</time>
      </trkpt>
      <trkpt lat="45.27371" lon="6.08513">
        <ele>1294</ele>
        <time>2021-12-23T08:51:09Z</time>
      </trkpt>
      <trkpt lat="45.27371" lon="6.08513">
        <ele>1294</ele>
        <time>2021-12-23T08:51:10Z</time>
      </trkpt>
      <trkpt lat="45.27371" lon="6.08513">
        <ele>1294</ele>
        <time>2021-12-23T08:51:11Z</time>
      </trkpt>
      <trkpt lat="45.27372" lon="6.08513">
        <ele>1294</ele>
        <time>2021-12-23T08:51:12Z</time>
      </trkpt>
      <trkpt lat="45.27372" lon="6.08513">
        <ele>1294</ele>
        <time>2021-12-23T08:51:13Z</time>
      </trkpt>
      <trkpt lat="45.27372" lon="6.08512">
        <ele>1295</ele>
        <time>2021-12-23T08:51:14Z</time>
      </trkpt>
      <trkpt lat="45.27372" lon="6.08512">
        <ele>1295</ele>
        <time>2021-12-23T08:51:15Z</time>
      </trkpt>
      <trkpt lat="45.27373" lon="6.08512">
        <ele>1295</ele>
        <time>2021-12-23T08:51:16Z</time>
      </trkpt>
      <trkpt lat="45.27373" lon="6.08512">
        <ele>1295</ele>
        <time>2021-12-23T08:51:18Z</time>
      </trkpt>
      <trkpt lat="45.27373" lon="6.08512">
        <ele>1295</ele>
        <time>2021-12-23T08:51:19Z</time>
      </trkpt>
      <trkpt lat="45.27373" lon="6.08512">
        <ele>1295</ele>
        <time>2021-12-23T08:51:20Z</time>
      </trkpt>
      <trkpt lat="45.27374" lon="6.08511">
        <ele>1296</ele>
        <time>2021-12-23T08:51:21Z</time>
      </trkpt>
      <trkpt lat="45.27374" lon="6.08511">
        <ele>1296</ele>
        <time>2021-12-23T08:51:22Z</time>
      </trkpt>
      <trkpt lat="45.27374" lon="6.08511">
        <ele>1296</ele>
        <time>2021-12-23T08:51:23Z</time>
      </trkpt>
      <trkpt lat="45.27376" lon="6.08511">
        <ele>1296</ele>
        <time>2021-12-23T08:51:24Z</time>
      </trkpt>
      <trkpt lat="45.27377" lon="6.08511">
        <ele>1296</ele>
        <time>2021-12-23T08:51:25Z</time>
      </trkpt>
      <trkpt lat="45.27379" lon="6.08511">
        <ele>1296</ele>
        <time>2021-12-23T08:51:27Z</time>
      </trkpt>
      <trkpt lat="45.2738" lon="6.08511">
        <ele>1297</ele>
        <time>2021-12-23T08:51:28Z</time>
      </trkpt>
      <trkpt lat="45.27382" lon="6.08511">
        <ele>1297</ele>
        <time>2021-12-23T08:51:29Z</time>
      </trkpt>
      <trkpt lat="45.27383" lon="6.08511">
        <ele>1297</ele>
        <time>2021-12-23T08:51:30Z</time>
      </trkpt>
      <trkpt lat="45.27384" lon="6.08512">
        <ele>1297</ele>
        <time>2021-12-23T08:51:31Z</time>
      </trkpt>
      <trkpt lat="45.27385" lon="6.08512">
        <ele>1298</ele>
        <time>2021-12-23T08:51:32Z</time>
      </trkpt>
      <trkpt lat="45.27385" lon="6.08513">
        <ele>1298</ele>
        <time>2021-12-23T08:51:33Z</time>
      </trkpt>
      <trkpt lat="45.27386" lon="6.08514">
        <ele>1298</ele>
        <time>2021-12-23T08:51:34Z</time>
      </trkpt>
      <trkpt lat="45.27386" lon="6.08514">
        <ele>1298</ele>
        <time>2021-12-23T08:51:35Z</time>
      </trkpt>
      <trkpt lat="45.27387" lon="6.08515">
        <ele>1299</ele>
        <time>2021-12-23T08:51:37Z</time>
      </trkpt>
      <trkpt lat="45.27388" lon="6.08516">
        <ele>1299</ele>
        <time>2021-12-23T08:51:39Z</time>
      </trkpt>
      <trkpt lat="45.27388" lon="6.08516">
        <ele>1299</ele>
        <time>2021-12-23T08:51:40Z</time>
      </trkpt>
      <trkpt lat="45.27389" lon="6.08517">
        <ele>1299</ele>
        <time>2021-12-23T08:51:41Z</time>
      </trkpt>
      <trkpt lat="45.2739" lon="6.08518">
        <ele>1300</ele>
        <time>2021-12-23T08:51:43Z</time>
      </trkpt>
      <trkpt lat="45.2739" lon="6.08518">
        <ele>1300</ele>
        <time>2021-12-23T08:51:44Z</time>
      </trkpt>
      <trkpt lat="45.27391" lon="6.08519">
        <ele>1299</ele>
        <time>2021-12-23T08:51:46Z</time>
      </trkpt>
      <trkpt lat="45.27392" lon="6.08519">
        <ele>1299</ele>
        <time>2021-12-23T08:51:47Z</time>
      </trkpt>
      <trkpt lat="45.27393" lon="6.0852">
        <ele>1299</ele>
        <time>2021-12-23T08:51:48Z</time>
      </trkpt>
      <trkpt lat="45.27395" lon="6.08521">
        <ele>1299</ele>
        <time>2021-12-23T08:51:50Z</time>
      </trkpt>
      <trkpt lat="45.27396" lon="6.08522">
        <ele>1299</ele>
        <time>2021-12-23T08:51:51Z</time>
      </trkpt>
      <trkpt lat="45.27398" lon="6.08522">
        <ele>1299</ele>
        <time>2021-12-23T08:51:52Z</time>
      </trkpt>
      <trkpt lat="45.27399" lon="6.08523">
        <ele>1299</ele>
        <time>2021-12-23T08:51:53Z</time>
      </trkpt>
      <trkpt lat="45.27401" lon="6.08524">
        <ele>1299</ele>
        <time>2021-12-23T08:51:54Z</time>
      </trkpt>
      <trkpt lat="45.27401" lon="6.08524">
        <ele>1299</ele>
        <time>2021-12-23T08:51:55Z</time>
      </trkpt>
      <trkpt lat="45.27401" lon="6.08524">
        <ele>1299</ele>
        <time>2021-12-23T08:51:56Z</time>
      </trkpt>
      <trkpt lat="45.27401" lon="6.08524">
        <ele>1299</ele>
        <time>2021-12-23T08:51:57Z</time>
      </trkpt>
      <trkpt lat="45.27401" lon="6.08524">
        <ele>1299</ele>
        <time>2021-12-23T08:51:58Z</time>
      </trkpt>
      <trkpt lat="45.27401" lon="6.08525">
        <ele>1299</ele>
        <time>2021-12-23T08:51:59Z</time>
      </trkpt>
      <trkpt lat="45.27401" lon="6.08525">
        <ele>1299</ele>
        <time>2021-12-23T08:52:00Z</time>
      </trkpt>
      <trkpt lat="45.27401" lon="6.08525">
        <ele>1299</ele>
        <time>2021-12-23T08:52:01Z</time>
      </trkpt>
      <trkpt lat="45.27401" lon="6.08525">
        <ele>1299</ele>
        <time>2021-12-23T08:52:02Z</time>
      </trkpt>
      <trkpt lat="45.27401" lon="6.08525">
        <ele>1299</ele>
        <time>2021-12-23T08:52:03Z</time>
      </trkpt>
      <trkpt lat="45.27401" lon="6.08525">
        <ele>1299</ele>
        <time>2021-12-23T08:52:05Z</time>
      </trkpt>
      <trkpt lat="45.27401" lon="6.08526">
        <ele>1299</ele>
        <time>2021-12-23T08:52:06Z</time>
      </trkpt>
      <trkpt lat="45.27401" lon="6.08526">
        <ele>1299</ele>
        <time>2021-12-23T08:52:07Z</time>
      </trkpt>
      <trkpt lat="45.27401" lon="6.08526">
        <ele>1298</ele>
        <time>2021-12-23T08:52:08Z</time>
      </trkpt>
      <trkpt lat="45.27401" lon="6.08526">
        <ele>1298</ele>
        <time>2021-12-23T08:52:09Z</time>
      </trkpt>
      <trkpt lat="45.27401" lon="6.08526">
        <ele>1298</ele>
        <time>2021-12-23T08:52:10Z</time>
      </trkpt>
      <trkpt lat="45.27401" lon="6.08527">
        <ele>1299</ele>
        <time>2021-12-23T08:52:11Z</time>
      </trkpt>
      <trkpt lat="45.27402" lon="6.08527">
        <ele>1299</ele>
        <time>2021-12-23T08:52:12Z</time>
      </trkpt>
      <trkpt lat="45.27402" lon="6.08527">
        <ele>1299</ele>
        <time>2021-12-23T08:52:14Z</time>
      </trkpt>
      <trkpt lat="45.27402" lon="6.08527">
        <ele>1299</ele>
        <time>2021-12-23T08:52:15Z</time>
      </trkpt>
      <trkpt lat="45.27402" lon="6.08527">
        <ele>1299</ele>
        <time>2021-12-23T08:52:16Z</time>
      </trkpt>
      <trkpt lat="45.27402" lon="6.08527">
        <ele>1299</ele>
        <time>2021-12-23T08:52:17Z</time>
      </trkpt>
      <trkpt lat="45.27402" lon="6.08528">
        <ele>1299</ele>
        <time>2021-12-23T08:52:18Z</time>
      </trkpt>
      <trkpt lat="45.27402" lon="6.08528">
        <ele>1299</ele>
        <time>2021-12-23T08:52:19Z</time>
      </trkpt>
      <trkpt lat="45.27402" lon="6.08528">
        <ele>1299</ele>
        <time>2021-12-23T08:52:20Z</time>
      </trkpt>
      <trkpt lat="45.27402" lon="6.08528">
        <ele>1299</ele>
        <time>2021-12-23T08:52:21Z</time>
      </trkpt>
      <trkpt lat="45.27402" lon="6.08528">
        <ele>1299</ele>
        <time>2021-12-23T08:52:22Z</time>
      </trkpt>
      <trkpt lat="45.27402" lon="6.08528">
        <ele>1299</ele>
        <time>2021-12-23T08:52:24Z</time>
      </trkpt>
      <trkpt lat="45.27402" lon="6.08529">
        <ele>1299</ele>
        <time>2021-12-23T08:52:25Z</time>
      </trkpt>
      <trkpt lat="45.27402" lon="6.08529">
        <ele>1299</ele>
        <time>2021-12-23T08:52:27Z</time>
      </trkpt>
      <trkpt lat="45.27402" lon="6.08529">
        <ele>1299</ele>
        <time>2021-12-23T08:52:28Z</time>
      </trkpt>
      <trkpt lat="45.27402" lon="6.08529">
        <ele>1299</ele>
        <time>2021-12-23T08:52:29Z</time>
      </trkpt>
      <trkpt lat="45.27402" lon="6.08529">
        <ele>1299</ele>
        <time>2021-12-23T08:52:30Z</time>
      </trkpt>
      <trkpt lat="45.27402" lon="6.08529">
        <ele>1299</ele>
        <time>2021-12-23T08:52:31Z</time>
      </trkpt>
      <trkpt lat="45.27402" lon="6.0853">
        <ele>1299</ele>
        <time>2021-12-23T08:52:32Z</time>
      </trkpt>
      <trkpt lat="45.27402" lon="6.0853">
        <ele>1299</ele>
        <time>2021-12-23T08:52:33Z</time>
      </trkpt>
      <trkpt lat="45.27402" lon="6.0853">
        <ele>1299</ele>
        <time>2021-12-23T08:52:34Z</time>
      </trkpt>
      <trkpt lat="45.27402" lon="6.0853">
        <ele>1299</ele>
        <time>2021-12-23T08:52:35Z</time>
      </trkpt>
      <trkpt lat="45.27402" lon="6.0853">
        <ele>1299</ele>
        <time>2021-12-23T08:52:36Z</time>
      </trkpt>
      <trkpt lat="45.27402" lon="6.08531">
        <ele>1299</ele>
        <time>2021-12-23T08:52:37Z</time>
      </trkpt>
      <trkpt lat="45.27402" lon="6.08531">
        <ele>1299</ele>
        <time>2021-12-23T08:52:38Z</time>
      </trkpt>
      <trkpt lat="45.27402" lon="6.08531">
        <ele>1299</ele>
        <time>2021-12-23T08:52:40Z</time>
      </trkpt>
      <trkpt lat="45.27402" lon="6.08531">
        <ele>1299</ele>
        <time>2021-12-23T08:52:41Z</time>
      </trkpt>
      <trkpt lat="45.27402" lon="6.08531">
        <ele>1299</ele>
        <time>2021-12-23T08:52:43Z</time>
      </trkpt>
      <trkpt lat="45.27402" lon="6.08531">
        <ele>1299</ele>
        <time>2021-12-23T08:52:44Z</time>
      </trkpt>
      <trkpt lat="45.27402" lon="6.08532">
        <ele>1298</ele>
        <time>2021-12-23T08:52:45Z</time>
      </trkpt>
      <trkpt lat="45.27403" lon="6.08538">
        <ele>1298</ele>
        <time>2021-12-23T08:52:46Z</time>
      </trkpt>
      <trkpt lat="45.27402" lon="6.08537">
        <ele>1298</ele>
        <time>2021-12-23T08:52:47Z</time>
      </trkpt>
      <trkpt lat="45.27401" lon="6.08536">
        <ele>1298</ele>
        <time>2021-12-23T08:52:48Z</time>
      </trkpt>
      <trkpt lat="45.274" lon="6.08536">
        <ele>1298</ele>
        <time>2021-12-23T08:52:49Z</time>
      </trkpt>
      <trkpt lat="45.27395" lon="6.0853">
        <ele>1298</ele>
        <time>2021-12-23T08:52:50Z</time>
      </trkpt>
      <trkpt lat="45.27395" lon="6.08528">
        <ele>1298</ele>
        <time>2021-12-23T08:52:51Z</time>
      </trkpt>
      <trkpt lat="45.27394" lon="6.08527">
        <ele>1298</ele>
        <time>2021-12-23T08:52:52Z</time>
      </trkpt>
      <trkpt lat="45.27394" lon="6.08525">
        <ele>1298</ele>
        <time>2021-12-23T08:52:53Z</time>
      </trkpt>
      <trkpt lat="45.27394" lon="6.08524">
        <ele>1298</ele>
        <time>2021-12-23T08:52:54Z</time>
      </trkpt>
      <trkpt lat="45.27394" lon="6.08522">
        <ele>1298</ele>
        <time>2021-12-23T08:52:55Z</time>
      </trkpt>
      <trkpt lat="45.27394" lon="6.0852">
        <ele>1298</ele>
        <time>2021-12-23T08:52:56Z</time>
      </trkpt>
      <trkpt lat="45.27394" lon="6.08519">
        <ele>1298</ele>
        <time>2021-12-23T08:52:57Z</time>
      </trkpt>
      <trkpt lat="45.27393" lon="6.08517">
        <ele>1298</ele>
        <time>2021-12-23T08:52:58Z</time>
      </trkpt>
      <trkpt lat="45.27393" lon="6.08517">
        <ele>1298</ele>
        <time>2021-12-23T08:52:59Z</time>
      </trkpt>
      <trkpt lat="45.27393" lon="6.08517">
        <ele>1299</ele>
        <time>2021-12-23T08:53:00Z</time>
      </trkpt>
      <trkpt lat="45.27393" lon="6.08518">
        <ele>1300</ele>
        <time>2021-12-23T08:53:02Z</time>
      </trkpt>
      <trkpt lat="45.27393" lon="6.08518">
        <ele>1300</ele>
        <time>2021-12-23T08:53:04Z</time>
      </trkpt>
      <trkpt lat="45.27393" lon="6.08518">
        <ele>1300</ele>
        <time>2021-12-23T08:53:05Z</time>
      </trkpt>
      <trkpt lat="45.27393" lon="6.08518">
        <ele>1300</ele>
        <time>2021-12-23T08:53:06Z</time>
      </trkpt>
      <trkpt lat="45.27393" lon="6.08518">
        <ele>1300</ele>
        <time>2021-12-23T08:53:07Z</time>
      </trkpt>
      <trkpt lat="45.27393" lon="6.08518">
        <ele>1300</ele>
        <time>2021-12-23T08:53:08Z</time>
      </trkpt>
      <trkpt lat="45.27392" lon="6.08518">
        <ele>1299</ele>
        <time>2021-12-23T08:53:09Z</time>
      </trkpt>
      <trkpt lat="45.27392" lon="6.08518">
        <ele>1299</ele>
        <time>2021-12-23T08:53:10Z</time>
      </trkpt>
      <trkpt lat="45.27392" lon="6.08518">
        <ele>1299</ele>
        <time>2021-12-23T08:53:11Z</time>
      </trkpt>
      <trkpt lat="45.27392" lon="6.08519">
        <ele>1299</ele>
        <time>2021-12-23T08:53:12Z</time>
      </trkpt>
      <trkpt lat="45.27392" lon="6.08519">
        <ele>1299</ele>
        <time>2021-12-23T08:53:13Z</time>
      </trkpt>
      <trkpt lat="45.27392" lon="6.08519">
        <ele>1299</ele>
        <time>2021-12-23T08:53:14Z</time>
      </trkpt>
      <trkpt lat="45.27392" lon="6.08519">
        <ele>1298</ele>
        <time>2021-12-23T08:53:15Z</time>
      </trkpt>
      <trkpt lat="45.27392" lon="6.08519">
        <ele>1298</ele>
        <time>2021-12-23T08:53:16Z</time>
      </trkpt>
      <trkpt lat="45.27392" lon="6.08519">
        <ele>1298</ele>
        <time>2021-12-23T08:53:18Z</time>
      </trkpt>
      <trkpt lat="45.27391" lon="6.08519">
        <ele>1299</ele>
        <time>2021-12-23T08:53:20Z</time>
      </trkpt>
      <trkpt lat="45.27391" lon="6.08519">
        <ele>1299</ele>
        <time>2021-12-23T08:53:21Z</time>
      </trkpt>
      <trkpt lat="45.27391" lon="6.0852">
        <ele>1299</ele>
        <time>2021-12-23T08:53:22Z</time>
      </trkpt>
      <trkpt lat="45.27391" lon="6.0852">
        <ele>1299</ele>
        <time>2021-12-23T08:53:23Z</time>
      </trkpt>
      <trkpt lat="45.27391" lon="6.0852">
        <ele>1299</ele>
        <time>2021-12-23T08:53:24Z</time>
      </trkpt>
      <trkpt lat="45.27391" lon="6.0852">
        <ele>1299</ele>
        <time>2021-12-23T08:53:25Z</time>
      </trkpt>
      <trkpt lat="45.27391" lon="6.0852">
        <ele>1299</ele>
        <time>2021-12-23T08:53:26Z</time>
      </trkpt>
      <trkpt lat="45.27391" lon="6.0852">
        <ele>1299</ele>
        <time>2021-12-23T08:53:27Z</time>
      </trkpt>
      <trkpt lat="45.27391" lon="6.0852">
        <ele>1299</ele>
        <time>2021-12-23T08:53:28Z</time>
      </trkpt>
      <trkpt lat="45.2739" lon="6.0852">
        <ele>1299</ele>
        <time>2021-12-23T08:53:29Z</time>
      </trkpt>
      <trkpt lat="45.2739" lon="6.0852">
        <ele>1299</ele>
        <time>2021-12-23T08:53:30Z</time>
      </trkpt>
      <trkpt lat="45.2739" lon="6.08521">
        <ele>1299</ele>
        <time>2021-12-23T08:53:31Z</time>
      </trkpt>
      <trkpt lat="45.2739" lon="6.08521">
        <ele>1300</ele>
        <time>2021-12-23T08:53:32Z</time>
      </trkpt>
      <trkpt lat="45.2739" lon="6.08521">
        <ele>1300</ele>
        <time>2021-12-23T08:53:33Z</time>
      </trkpt>
      <trkpt lat="45.2739" lon="6.08521">
        <ele>1300</ele>
        <time>2021-12-23T08:53:34Z</time>
      </trkpt>
      <trkpt lat="45.2739" lon="6.08521">
        <ele>1300</ele>
        <time>2021-12-23T08:53:35Z</time>
      </trkpt>
      <trkpt lat="45.2739" lon="6.08521">
        <ele>1300</ele>
        <time>2021-12-23T08:53:36Z</time>
      </trkpt>
      <trkpt lat="45.2739" lon="6.08521">
        <ele>1300</ele>
        <time>2021-12-23T08:53:37Z</time>
      </trkpt>
      <trkpt lat="45.2739" lon="6.08521">
        <ele>1300</ele>
        <time>2021-12-23T08:53:38Z</time>
      </trkpt>
      <trkpt lat="45.27389" lon="6.08522">
        <ele>1300</ele>
        <time>2021-12-23T08:53:40Z</time>
      </trkpt>
      <trkpt lat="45.27389" lon="6.08522">
        <ele>1300</ele>
        <time>2021-12-23T08:53:41Z</time>
      </trkpt>
      <trkpt lat="45.27389" lon="6.08522">
        <ele>1299</ele>
        <time>2021-12-23T08:53:42Z</time>
      </trkpt>
      <trkpt lat="45.27389" lon="6.08522">
        <ele>1299</ele>
        <time>2021-12-23T08:53:43Z</time>
      </trkpt>
      <trkpt lat="45.27389" lon="6.08522">
        <ele>1299</ele>
        <time>2021-12-23T08:53:45Z</time>
      </trkpt>
      <trkpt lat="45.27389" lon="6.08522">
        <ele>1299</ele>
        <time>2021-12-23T08:53:46Z</time>
      </trkpt>
      <trkpt lat="45.27389" lon="6.08522">
        <ele>1299</ele>
        <time>2021-12-23T08:53:47Z</time>
      </trkpt>
      <trkpt lat="45.27389" lon="6.08522">
        <ele>1299</ele>
        <time>2021-12-23T08:53:48Z</time>
      </trkpt>
      <trkpt lat="45.27389" lon="6.08522">
        <ele>1299</ele>
        <time>2021-12-23T08:53:49Z</time>
      </trkpt>
      <trkpt lat="45.27388" lon="6.08523">
        <ele>1299</ele>
        <time>2021-12-23T08:53:50Z</time>
      </trkpt>
      <trkpt lat="45.27388" lon="6.08523">
        <ele>1299</ele>
        <time>2021-12-23T08:53:51Z</time>
      </trkpt>
      <trkpt lat="45.27388" lon="6.08523">
        <ele>1299</ele>
        <time>2021-12-23T08:53:52Z</time>
      </trkpt>
      <trkpt lat="45.27388" lon="6.08523">
        <ele>1299</ele>
        <time>2021-12-23T08:53:53Z</time>
      </trkpt>
      <trkpt lat="45.27388" lon="6.08523">
        <ele>1299</ele>
        <time>2021-12-23T08:53:54Z</time>
      </trkpt>
      <trkpt lat="45.27388" lon="6.08523">
        <ele>1299</ele>
        <time>2021-12-23T08:53:55Z</time>
      </trkpt>
      <trkpt lat="45.27388" lon="6.08523">
        <ele>1299</ele>
        <time>2021-12-23T08:53:56Z</time>
      </trkpt>
      <trkpt lat="45.27388" lon="6.08523">
        <ele>1299</ele>
        <time>2021-12-23T08:53:57Z</time>
      </trkpt>
      <trkpt lat="45.27388" lon="6.08523">
        <ele>1299</ele>
        <time>2021-12-23T08:53:59Z</time>
      </trkpt>
      <trkpt lat="45.27387" lon="6.08524">
        <ele>1299</ele>
        <time>2021-12-23T08:54:00Z</time>
      </trkpt>
      <trkpt lat="45.27387" lon="6.08524">
        <ele>1299</ele>
        <time>2021-12-23T08:54:01Z</time>
      </trkpt>
      <trkpt lat="45.27387" lon="6.08524">
        <ele>1299</ele>
        <time>2021-12-23T08:54:02Z</time>
      </trkpt>
      <trkpt lat="45.27387" lon="6.08524">
        <ele>1299</ele>
        <time>2021-12-23T08:54:03Z</time>
      </trkpt>
      <trkpt lat="45.27387" lon="6.08524">
        <ele>1298</ele>
        <time>2021-12-23T08:54:04Z</time>
      </trkpt>
      <trkpt lat="45.27387" lon="6.08524">
        <ele>1298</ele>
        <time>2021-12-23T08:54:05Z</time>
      </trkpt>
      <trkpt lat="45.27387" lon="6.08524">
        <ele>1298</ele>
        <time>2021-12-23T08:54:06Z</time>
      </trkpt>
      <trkpt lat="45.27387" lon="6.08524">
        <ele>1298</ele>
        <time>2021-12-23T08:54:07Z</time>
      </trkpt>
      <trkpt lat="45.27387" lon="6.08525">
        <ele>1298</ele>
        <time>2021-12-23T08:54:08Z</time>
      </trkpt>
      <trkpt lat="45.27386" lon="6.08525">
        <ele>1298</ele>
        <time>2021-12-23T08:54:09Z</time>
      </trkpt>
      <trkpt lat="45.27386" lon="6.08525">
        <ele>1299</ele>
        <time>2021-12-23T08:54:10Z</time>
      </trkpt>
      <trkpt lat="45.27386" lon="6.08525">
        <ele>1300</ele>
        <time>2021-12-23T08:54:12Z</time>
      </trkpt>
      <trkpt lat="45.27386" lon="6.08525">
        <ele>1300</ele>
        <time>2021-12-23T08:54:13Z</time>
      </trkpt>
      <trkpt lat="45.27386" lon="6.08525">
        <ele>1300</ele>
        <time>2021-12-23T08:54:14Z</time>
      </trkpt>
      <trkpt lat="45.27386" lon="6.08525">
        <ele>1299</ele>
        <time>2021-12-23T08:54:15Z</time>
      </trkpt>
      <trkpt lat="45.27386" lon="6.08525">
        <ele>1299</ele>
        <time>2021-12-23T08:54:16Z</time>
      </trkpt>
      <trkpt lat="45.27386" lon="6.08525">
        <ele>1299</ele>
        <time>2021-12-23T08:54:17Z</time>
      </trkpt>
      <trkpt lat="45.27386" lon="6.08526">
        <ele>1300</ele>
        <time>2021-12-23T08:54:18Z</time>
      </trkpt>
      <trkpt lat="45.27385" lon="6.08527">
        <ele>1300</ele>
        <time>2021-12-23T08:54:19Z</time>
      </trkpt>
      <trkpt lat="45.27385" lon="6.08528">
        <ele>1300</ele>
        <time>2021-12-23T08:54:20Z</time>
      </trkpt>
      <trkpt lat="45.27385" lon="6.0853">
        <ele>1300</ele>
        <time>2021-12-23T08:54:21Z</time>
      </trkpt>
      <trkpt lat="45.27385" lon="6.08531">
        <ele>1300</ele>
        <time>2021-12-23T08:54:22Z</time>
      </trkpt>
      <trkpt lat="45.27384" lon="6.08532">
        <ele>1300</ele>
        <time>2021-12-23T08:54:23Z</time>
      </trkpt>
      <trkpt lat="45.27384" lon="6.08533">
        <ele>1300</ele>
        <time>2021-12-23T08:54:24Z</time>
      </trkpt>
      <trkpt lat="45.27384" lon="6.08535">
        <ele>1301</ele>
        <time>2021-12-23T08:54:25Z</time>
      </trkpt>
      <trkpt lat="45.27384" lon="6.08536">
        <ele>1301</ele>
        <time>2021-12-23T08:54:26Z</time>
      </trkpt>
      <trkpt lat="45.27383" lon="6.08537">
        <ele>1301</ele>
        <time>2021-12-23T08:54:27Z</time>
      </trkpt>
      <trkpt lat="45.27383" lon="6.08539">
        <ele>1301</ele>
        <time>2021-12-23T08:54:28Z</time>
      </trkpt>
      <trkpt lat="45.27383" lon="6.0854">
        <ele>1302</ele>
        <time>2021-12-23T08:54:29Z</time>
      </trkpt>
      <trkpt lat="45.27382" lon="6.0854">
        <ele>1302</ele>
        <time>2021-12-23T08:54:30Z</time>
      </trkpt>
      <trkpt lat="45.27382" lon="6.08541">
        <ele>1302</ele>
        <time>2021-12-23T08:54:31Z</time>
      </trkpt>
      <trkpt lat="45.27381" lon="6.08542">
        <ele>1302</ele>
        <time>2021-12-23T08:54:32Z</time>
      </trkpt>
      <trkpt lat="45.27381" lon="6.08543">
        <ele>1303</ele>
        <time>2021-12-23T08:54:33Z</time>
      </trkpt>
      <trkpt lat="45.27381" lon="6.08544">
        <ele>1303</ele>
        <time>2021-12-23T08:54:34Z</time>
      </trkpt>
      <trkpt lat="45.2738" lon="6.08544">
        <ele>1303</ele>
        <time>2021-12-23T08:54:35Z</time>
      </trkpt>
      <trkpt lat="45.2738" lon="6.08545">
        <ele>1304</ele>
        <time>2021-12-23T08:54:37Z</time>
      </trkpt>
      <trkpt lat="45.27379" lon="6.08546">
        <ele>1304</ele>
        <time>2021-12-23T08:54:38Z</time>
      </trkpt>
      <trkpt lat="45.27379" lon="6.08547">
        <ele>1305</ele>
        <time>2021-12-23T08:54:39Z</time>
      </trkpt>
      <trkpt lat="45.27378" lon="6.08548">
        <ele>1305</ele>
        <time>2021-12-23T08:54:40Z</time>
      </trkpt>
      <trkpt lat="45.27378" lon="6.08549">
        <ele>1305</ele>
        <time>2021-12-23T08:54:41Z</time>
      </trkpt>
      <trkpt lat="45.27378" lon="6.08549">
        <ele>1305</ele>
        <time>2021-12-23T08:54:42Z</time>
      </trkpt>
      <trkpt lat="45.27377" lon="6.0855">
        <ele>1306</ele>
        <time>2021-12-23T08:54:43Z</time>
      </trkpt>
      <trkpt lat="45.27376" lon="6.08551">
        <ele>1306</ele>
        <time>2021-12-23T08:54:44Z</time>
      </trkpt>
      <trkpt lat="45.27375" lon="6.08552">
        <ele>1306</ele>
        <time>2021-12-23T08:54:45Z</time>
      </trkpt>
      <trkpt lat="45.27374" lon="6.08553">
        <ele>1306</ele>
        <time>2021-12-23T08:54:46Z</time>
      </trkpt>
      <trkpt lat="45.27373" lon="6.08554">
        <ele>1306</ele>
        <time>2021-12-23T08:54:47Z</time>
      </trkpt>
      <trkpt lat="45.27372" lon="6.08555">
        <ele>1306</ele>
        <time>2021-12-23T08:54:48Z</time>
      </trkpt>
      <trkpt lat="45.27371" lon="6.08556">
        <ele>1306</ele>
        <time>2021-12-23T08:54:49Z</time>
      </trkpt>
      <trkpt lat="45.2737" lon="6.08557">
        <ele>1306</ele>
        <time>2021-12-23T08:54:50Z</time>
      </trkpt>
      <trkpt lat="45.2737" lon="6.08557">
        <ele>1306</ele>
        <time>2021-12-23T08:54:51Z</time>
      </trkpt>
      <trkpt lat="45.2737" lon="6.08557">
        <ele>1307</ele>
        <time>2021-12-23T08:54:53Z</time>
      </trkpt>
      <trkpt lat="45.2737" lon="6.08557">
        <ele>1308</ele>
        <time>2021-12-23T08:54:54Z</time>
      </trkpt>
      <trkpt lat="45.2737" lon="6.08557">
        <ele>1308</ele>
        <time>2021-12-23T08:54:56Z</time>
      </trkpt>
      <trkpt lat="45.2737" lon="6.08557">
        <ele>1308</ele>
        <time>2021-12-23T08:54:57Z</time>
      </trkpt>
      <trkpt lat="45.2737" lon="6.08557">
        <ele>1308</ele>
        <time>2021-12-23T08:54:58Z</time>
      </trkpt>
      <trkpt lat="45.27368" lon="6.0857">
        <ele>1307</ele>
        <time>2021-12-23T08:54:59Z</time>
      </trkpt>
      <trkpt lat="45.27368" lon="6.0857">
        <ele>1308</ele>
        <time>2021-12-23T08:55:01Z</time>
      </trkpt>
      <trkpt lat="45.27366" lon="6.08571">
        <ele>1308</ele>
        <time>2021-12-23T08:55:02Z</time>
      </trkpt>
      <trkpt lat="45.27364" lon="6.08572">
        <ele>1308</ele>
        <time>2021-12-23T08:55:03Z</time>
      </trkpt>
      <trkpt lat="45.27362" lon="6.08572">
        <ele>1308</ele>
        <time>2021-12-23T08:55:04Z</time>
      </trkpt>
      <trkpt lat="45.2736" lon="6.08573">
        <ele>1308</ele>
        <time>2021-12-23T08:55:05Z</time>
      </trkpt>
      <trkpt lat="45.27358" lon="6.08574">
        <ele>1308</ele>
        <time>2021-12-23T08:55:06Z</time>
      </trkpt>
      <trkpt lat="45.27358" lon="6.08575">
        <ele>1308</ele>
        <time>2021-12-23T08:55:07Z</time>
      </trkpt>
      <trkpt lat="45.27358" lon="6.08576">
        <ele>1308</ele>
        <time>2021-12-23T08:55:08Z</time>
      </trkpt>
      <trkpt lat="45.27358" lon="6.08577">
        <ele>1308</ele>
        <time>2021-12-23T08:55:09Z</time>
      </trkpt>
      <trkpt lat="45.27358" lon="6.08578">
        <ele>1308</ele>
        <time>2021-12-23T08:55:10Z</time>
      </trkpt>
      <trkpt lat="45.27358" lon="6.08579">
        <ele>1308</ele>
        <time>2021-12-23T08:55:11Z</time>
      </trkpt>
      <trkpt lat="45.27358" lon="6.0858">
        <ele>1308</ele>
        <time>2021-12-23T08:55:12Z</time>
      </trkpt>
      <trkpt lat="45.27358" lon="6.0858">
        <ele>1309</ele>
        <time>2021-12-23T08:55:13Z</time>
      </trkpt>
      <trkpt lat="45.27358" lon="6.08581">
        <ele>1309</ele>
        <time>2021-12-23T08:55:15Z</time>
      </trkpt>
      <trkpt lat="45.27358" lon="6.08582">
        <ele>1309</ele>
        <time>2021-12-23T08:55:16Z</time>
      </trkpt>
      <trkpt lat="45.27358" lon="6.08583">
        <ele>1309</ele>
        <time>2021-12-23T08:55:17Z</time>
      </trkpt>
      <trkpt lat="45.27357" lon="6.08584">
        <ele>1309</ele>
        <time>2021-12-23T08:55:18Z</time>
      </trkpt>
      <trkpt lat="45.27357" lon="6.08585">
        <ele>1309</ele>
        <time>2021-12-23T08:55:19Z</time>
      </trkpt>
      <trkpt lat="45.27357" lon="6.08586">
        <ele>1309</ele>
        <time>2021-12-23T08:55:20Z</time>
      </trkpt>
      <trkpt lat="45.27357" lon="6.08587">
        <ele>1309</ele>
        <time>2021-12-23T08:55:21Z</time>
      </trkpt>
      <trkpt lat="45.27358" lon="6.08589">
        <ele>1309</ele>
        <time>2021-12-23T08:55:22Z</time>
      </trkpt>
      <trkpt lat="45.27358" lon="6.08591">
        <ele>1309</ele>
        <time>2021-12-23T08:55:23Z</time>
      </trkpt>
      <trkpt lat="45.27358" lon="6.08593">
        <ele>1309</ele>
        <time>2021-12-23T08:55:24Z</time>
      </trkpt>
      <trkpt lat="45.27358" lon="6.08594">
        <ele>1309</ele>
        <time>2021-12-23T08:55:25Z</time>
      </trkpt>
      <trkpt lat="45.27358" lon="6.08596">
        <ele>1309</ele>
        <time>2021-12-23T08:55:26Z</time>
      </trkpt>
      <trkpt lat="45.27359" lon="6.08598">
        <ele>1309</ele>
        <time>2021-12-23T08:55:27Z</time>
      </trkpt>
      <trkpt lat="45.27359" lon="6.086">
        <ele>1309</ele>
        <time>2021-12-23T08:55:28Z</time>
      </trkpt>
      <trkpt lat="45.27359" lon="6.08602">
        <ele>1309</ele>
        <time>2021-12-23T08:55:29Z</time>
      </trkpt>
      <trkpt lat="45.27359" lon="6.08604">
        <ele>1309</ele>
        <time>2021-12-23T08:55:30Z</time>
      </trkpt>
      <trkpt lat="45.27358" lon="6.08607">
        <ele>1310</ele>
        <time>2021-12-23T08:55:31Z</time>
      </trkpt>
      <trkpt lat="45.27358" lon="6.0861">
        <ele>1310</ele>
        <time>2021-12-23T08:55:32Z</time>
      </trkpt>
      <trkpt lat="45.27357" lon="6.08612">
        <ele>1310</ele>
        <time>2021-12-23T08:55:34Z</time>
      </trkpt>
      <trkpt lat="45.27357" lon="6.08615">
        <ele>1311</ele>
        <time>2021-12-23T08:55:35Z</time>
      </trkpt>
      <trkpt lat="45.27357" lon="6.08616">
        <ele>1311</ele>
        <time>2021-12-23T08:55:36Z</time>
      </trkpt>
      <trkpt lat="45.27357" lon="6.08618">
        <ele>1311</ele>
        <time>2021-12-23T08:55:37Z</time>
      </trkpt>
      <trkpt lat="45.27357" lon="6.08619">
        <ele>1312</ele>
        <time>2021-12-23T08:55:38Z</time>
      </trkpt>
      <trkpt lat="45.27357" lon="6.08621">
        <ele>1312</ele>
        <time>2021-12-23T08:55:39Z</time>
      </trkpt>
      <trkpt lat="45.27357" lon="6.08622">
        <ele>1312</ele>
        <time>2021-12-23T08:55:40Z</time>
      </trkpt>
      <trkpt lat="45.27357" lon="6.08624">
        <ele>1312</ele>
        <time>2021-12-23T08:55:41Z</time>
      </trkpt>
      <trkpt lat="45.27357" lon="6.08625">
        <ele>1312</ele>
        <time>2021-12-23T08:55:42Z</time>
      </trkpt>
      <trkpt lat="45.27357" lon="6.08627">
        <ele>1313</ele>
        <time>2021-12-23T08:55:43Z</time>
      </trkpt>
      <trkpt lat="45.27358" lon="6.08628">
        <ele>1313</ele>
        <time>2021-12-23T08:55:44Z</time>
      </trkpt>
      <trkpt lat="45.27358" lon="6.08628">
        <ele>1313</ele>
        <time>2021-12-23T08:55:45Z</time>
      </trkpt>
      <trkpt lat="45.27358" lon="6.08628">
        <ele>1313</ele>
        <time>2021-12-23T08:55:46Z</time>
      </trkpt>
      <trkpt lat="45.27358" lon="6.08628">
        <ele>1313</ele>
        <time>2021-12-23T08:55:47Z</time>
      </trkpt>
      <trkpt lat="45.27358" lon="6.08628">
        <ele>1313</ele>
        <time>2021-12-23T08:55:48Z</time>
      </trkpt>
      <trkpt lat="45.27358" lon="6.08628">
        <ele>1312</ele>
        <time>2021-12-23T08:55:50Z</time>
      </trkpt>
      <trkpt lat="45.27358" lon="6.08628">
        <ele>1312</ele>
        <time>2021-12-23T08:55:52Z</time>
      </trkpt>
      <trkpt lat="45.27358" lon="6.08628">
        <ele>1313</ele>
        <time>2021-12-23T08:55:53Z</time>
      </trkpt>
      <trkpt lat="45.27354" lon="6.08641">
        <ele>1313</ele>
        <time>2021-12-23T08:55:54Z</time>
      </trkpt>
      <trkpt lat="45.27354" lon="6.08641">
        <ele>1313</ele>
        <time>2021-12-23T08:55:56Z</time>
      </trkpt>
      <trkpt lat="45.27354" lon="6.08643">
        <ele>1313</ele>
        <time>2021-12-23T08:55:57Z</time>
      </trkpt>
      <trkpt lat="45.27354" lon="6.08645">
        <ele>1314</ele>
        <time>2021-12-23T08:55:58Z</time>
      </trkpt>
      <trkpt lat="45.27354" lon="6.08646">
        <ele>1314</ele>
        <time>2021-12-23T08:55:59Z</time>
      </trkpt>
      <trkpt lat="45.27355" lon="6.08648">
        <ele>1314</ele>
        <time>2021-12-23T08:56:00Z</time>
      </trkpt>
      <trkpt lat="45.27355" lon="6.0865">
        <ele>1315</ele>
        <time>2021-12-23T08:56:01Z</time>
      </trkpt>
      <trkpt lat="45.27355" lon="6.08652">
        <ele>1315</ele>
        <time>2021-12-23T08:56:02Z</time>
      </trkpt>
      <trkpt lat="45.27355" lon="6.08653">
        <ele>1315</ele>
        <time>2021-12-23T08:56:03Z</time>
      </trkpt>
      <trkpt lat="45.27355" lon="6.08655">
        <ele>1315</ele>
        <time>2021-12-23T08:56:04Z</time>
      </trkpt>
      <trkpt lat="45.27356" lon="6.08657">
        <ele>1315</ele>
        <time>2021-12-23T08:56:05Z</time>
      </trkpt>
      <trkpt lat="45.27355" lon="6.08657">
        <ele>1315</ele>
        <time>2021-12-23T08:56:06Z</time>
      </trkpt>
      <trkpt lat="45.27355" lon="6.08658">
        <ele>1316</ele>
        <time>2021-12-23T08:56:08Z</time>
      </trkpt>
      <trkpt lat="45.27355" lon="6.08658">
        <ele>1317</ele>
        <time>2021-12-23T08:56:09Z</time>
      </trkpt>
      <trkpt lat="45.27355" lon="6.08659">
        <ele>1317</ele>
        <time>2021-12-23T08:56:10Z</time>
      </trkpt>
      <trkpt lat="45.27355" lon="6.08659">
        <ele>1317</ele>
        <time>2021-12-23T08:56:12Z</time>
      </trkpt>
      <trkpt lat="45.27355" lon="6.08659">
        <ele>1317</ele>
        <time>2021-12-23T08:56:13Z</time>
      </trkpt>
      <trkpt lat="45.27354" lon="6.0866">
        <ele>1318</ele>
        <time>2021-12-23T08:56:15Z</time>
      </trkpt>
      <trkpt lat="45.27354" lon="6.0866">
        <ele>1318</ele>
        <time>2021-12-23T08:56:16Z</time>
      </trkpt>
      <trkpt lat="45.27354" lon="6.08661">
        <ele>1318</ele>
        <time>2021-12-23T08:56:17Z</time>
      </trkpt>
      <trkpt lat="45.27354" lon="6.08661">
        <ele>1318</ele>
        <time>2021-12-23T08:56:18Z</time>
      </trkpt>
      <trkpt lat="45.27354" lon="6.08662">
        <ele>1318</ele>
        <time>2021-12-23T08:56:19Z</time>
      </trkpt>
      <trkpt lat="45.27353" lon="6.08662">
        <ele>1318</ele>
        <time>2021-12-23T08:56:20Z</time>
      </trkpt>
      <trkpt lat="45.27353" lon="6.08662">
        <ele>1318</ele>
        <time>2021-12-23T08:56:21Z</time>
      </trkpt>
      <trkpt lat="45.27353" lon="6.08663">
        <ele>1318</ele>
        <time>2021-12-23T08:56:22Z</time>
      </trkpt>
      <trkpt lat="45.27353" lon="6.08663">
        <ele>1318</ele>
        <time>2021-12-23T08:56:23Z</time>
      </trkpt>
      <trkpt lat="45.2735" lon="6.08671">
        <ele>1319</ele>
        <time>2021-12-23T08:56:24Z</time>
      </trkpt>
      <trkpt lat="45.2735" lon="6.08672">
        <ele>1320</ele>
        <time>2021-12-23T08:56:25Z</time>
      </trkpt>
      <trkpt lat="45.2735" lon="6.08673">
        <ele>1320</ele>
        <time>2021-12-23T08:56:26Z</time>
      </trkpt>
      <trkpt lat="45.2735" lon="6.08674">
        <ele>1321</ele>
        <time>2021-12-23T08:56:27Z</time>
      </trkpt>
      <trkpt lat="45.2735" lon="6.08676">
        <ele>1321</ele>
        <time>2021-12-23T08:56:28Z</time>
      </trkpt>
      <trkpt lat="45.2735" lon="6.08677">
        <ele>1321</ele>
        <time>2021-12-23T08:56:29Z</time>
      </trkpt>
      <trkpt lat="45.27351" lon="6.08678">
        <ele>1321</ele>
        <time>2021-12-23T08:56:31Z</time>
      </trkpt>
      <trkpt lat="45.27351" lon="6.08679">
        <ele>1321</ele>
        <time>2021-12-23T08:56:32Z</time>
      </trkpt>
      <trkpt lat="45.27351" lon="6.0868">
        <ele>1322</ele>
        <time>2021-12-23T08:56:33Z</time>
      </trkpt>
      <trkpt lat="45.27351" lon="6.08681">
        <ele>1322</ele>
        <time>2021-12-23T08:56:34Z</time>
      </trkpt>
      <trkpt lat="45.27351" lon="6.08682">
        <ele>1322</ele>
        <time>2021-12-23T08:56:35Z</time>
      </trkpt>
      <trkpt lat="45.27351" lon="6.08684">
        <ele>1322</ele>
        <time>2021-12-23T08:56:36Z</time>
      </trkpt>
      <trkpt lat="45.27351" lon="6.08684">
        <ele>1322</ele>
        <time>2021-12-23T08:56:37Z</time>
      </trkpt>
      <trkpt lat="45.27351" lon="6.08684">
        <ele>1323</ele>
        <time>2021-12-23T08:56:38Z</time>
      </trkpt>
      <trkpt lat="45.27351" lon="6.08684">
        <ele>1323</ele>
        <time>2021-12-23T08:56:39Z</time>
      </trkpt>
      <trkpt lat="45.27351" lon="6.08684">
        <ele>1323</ele>
        <time>2021-12-23T08:56:40Z</time>
      </trkpt>
      <trkpt lat="45.27351" lon="6.08684">
        <ele>1323</ele>
        <time>2021-12-23T08:56:41Z</time>
      </trkpt>
      <trkpt lat="45.27351" lon="6.08684">
        <ele>1323</ele>
        <time>2021-12-23T08:56:42Z</time>
      </trkpt>
      <trkpt lat="45.27351" lon="6.08684">
        <ele>1323</ele>
        <time>2021-12-23T08:56:43Z</time>
      </trkpt>
      <trkpt lat="45.27351" lon="6.08684">
        <ele>1323</ele>
        <time>2021-12-23T08:56:44Z</time>
      </trkpt>
      <trkpt lat="45.27351" lon="6.08684">
        <ele>1323</ele>
        <time>2021-12-23T08:56:45Z</time>
      </trkpt>
      <trkpt lat="45.27349" lon="6.08697">
        <ele>1324</ele>
        <time>2021-12-23T08:56:46Z</time>
      </trkpt>
      <trkpt lat="45.27349" lon="6.08697">
        <ele>1324</ele>
        <time>2021-12-23T08:56:48Z</time>
      </trkpt>
      <trkpt lat="45.27348" lon="6.08699">
        <ele>1325</ele>
        <time>2021-12-23T08:56:50Z</time>
      </trkpt>
      <trkpt lat="45.27348" lon="6.087">
        <ele>1325</ele>
        <time>2021-12-23T08:56:51Z</time>
      </trkpt>
      <trkpt lat="45.27348" lon="6.08702">
        <ele>1325</ele>
        <time>2021-12-23T08:56:52Z</time>
      </trkpt>
      <trkpt lat="45.27347" lon="6.08703">
        <ele>1325</ele>
        <time>2021-12-23T08:56:53Z</time>
      </trkpt>
      <trkpt lat="45.27347" lon="6.08705">
        <ele>1325</ele>
        <time>2021-12-23T08:56:54Z</time>
      </trkpt>
      <trkpt lat="45.27346" lon="6.08707">
        <ele>1325</ele>
        <time>2021-12-23T08:56:55Z</time>
      </trkpt>
      <trkpt lat="45.27346" lon="6.08708">
        <ele>1325</ele>
        <time>2021-12-23T08:56:56Z</time>
      </trkpt>
      <trkpt lat="45.27345" lon="6.0871">
        <ele>1325</ele>
        <time>2021-12-23T08:56:57Z</time>
      </trkpt>
      <trkpt lat="45.27345" lon="6.08712">
        <ele>1325</ele>
        <time>2021-12-23T08:56:58Z</time>
      </trkpt>
      <trkpt lat="45.27345" lon="6.08713">
        <ele>1325</ele>
        <time>2021-12-23T08:56:59Z</time>
      </trkpt>
      <trkpt lat="45.27344" lon="6.08715">
        <ele>1325</ele>
        <time>2021-12-23T08:57:00Z</time>
      </trkpt>
      <trkpt lat="45.27344" lon="6.08716">
        <ele>1325</ele>
        <time>2021-12-23T08:57:01Z</time>
      </trkpt>
      <trkpt lat="45.27344" lon="6.08717">
        <ele>1325</ele>
        <time>2021-12-23T08:57:02Z</time>
      </trkpt>
      <trkpt lat="45.27344" lon="6.08718">
        <ele>1326</ele>
        <time>2021-12-23T08:57:03Z</time>
      </trkpt>
      <trkpt lat="45.27344" lon="6.0872">
        <ele>1326</ele>
        <time>2021-12-23T08:57:05Z</time>
      </trkpt>
      <trkpt lat="45.27344" lon="6.08721">
        <ele>1326</ele>
        <time>2021-12-23T08:57:06Z</time>
      </trkpt>
      <trkpt lat="45.27344" lon="6.08722">
        <ele>1326</ele>
        <time>2021-12-23T08:57:07Z</time>
      </trkpt>
      <trkpt lat="45.27343" lon="6.08723">
        <ele>1327</ele>
        <time>2021-12-23T08:57:09Z</time>
      </trkpt>
      <trkpt lat="45.27343" lon="6.08725">
        <ele>1327</ele>
        <time>2021-12-23T08:57:10Z</time>
      </trkpt>
      <trkpt lat="45.27343" lon="6.08726">
        <ele>1327</ele>
        <time>2021-12-23T08:57:11Z</time>
      </trkpt>
      <trkpt lat="45.27343" lon="6.08727">
        <ele>1327</ele>
        <time>2021-12-23T08:57:12Z</time>
      </trkpt>
      <trkpt lat="45.27343" lon="6.08728">
        <ele>1327</ele>
        <time>2021-12-23T08:57:13Z</time>
      </trkpt>
      <trkpt lat="45.27343" lon="6.08729">
        <ele>1327</ele>
        <time>2021-12-23T08:57:14Z</time>
      </trkpt>
      <trkpt lat="45.27343" lon="6.08729">
        <ele>1327</ele>
        <time>2021-12-23T08:57:15Z</time>
      </trkpt>
      <trkpt lat="45.27342" lon="6.08729">
        <ele>1327</ele>
        <time>2021-12-23T08:57:16Z</time>
      </trkpt>
      <trkpt lat="45.27342" lon="6.08729">
        <ele>1327</ele>
        <time>2021-12-23T08:57:17Z</time>
      </trkpt>
      <trkpt lat="45.27342" lon="6.0873">
        <ele>1327</ele>
        <time>2021-12-23T08:57:18Z</time>
      </trkpt>
      <trkpt lat="45.27342" lon="6.0873">
        <ele>1327</ele>
        <time>2021-12-23T08:57:19Z</time>
      </trkpt>
      <trkpt lat="45.27342" lon="6.0873">
        <ele>1327</ele>
        <time>2021-12-23T08:57:20Z</time>
      </trkpt>
      <trkpt lat="45.27341" lon="6.0873">
        <ele>1327</ele>
        <time>2021-12-23T08:57:21Z</time>
      </trkpt>
      <trkpt lat="45.27341" lon="6.08731">
        <ele>1327</ele>
        <time>2021-12-23T08:57:22Z</time>
      </trkpt>
      <trkpt lat="45.27341" lon="6.08731">
        <ele>1327</ele>
        <time>2021-12-23T08:57:23Z</time>
      </trkpt>
      <trkpt lat="45.27341" lon="6.08731">
        <ele>1328</ele>
        <time>2021-12-23T08:57:24Z</time>
      </trkpt>
      <trkpt lat="45.27341" lon="6.08731">
        <ele>1328</ele>
        <time>2021-12-23T08:57:25Z</time>
      </trkpt>
      <trkpt lat="45.2734" lon="6.08732">
        <ele>1328</ele>
        <time>2021-12-23T08:57:26Z</time>
      </trkpt>
      <trkpt lat="45.27334" lon="6.08742">
        <ele>1328</ele>
        <time>2021-12-23T08:57:28Z</time>
      </trkpt>
      <trkpt lat="45.27334" lon="6.08745">
        <ele>1328</ele>
        <time>2021-12-23T08:57:29Z</time>
      </trkpt>
      <trkpt lat="45.27333" lon="6.08749">
        <ele>1328</ele>
        <time>2021-12-23T08:57:30Z</time>
      </trkpt>
      <trkpt lat="45.27333" lon="6.08752">
        <ele>1328</ele>
        <time>2021-12-23T08:57:31Z</time>
      </trkpt>
      <trkpt lat="45.27333" lon="6.08754">
        <ele>1327</ele>
        <time>2021-12-23T08:57:32Z</time>
      </trkpt>
      <trkpt lat="45.27333" lon="6.08756">
        <ele>1327</ele>
        <time>2021-12-23T08:57:33Z</time>
      </trkpt>
      <trkpt lat="45.27334" lon="6.08759">
        <ele>1327</ele>
        <time>2021-12-23T08:57:34Z</time>
      </trkpt>
      <trkpt lat="45.27334" lon="6.08761">
        <ele>1327</ele>
        <time>2021-12-23T08:57:35Z</time>
      </trkpt>
      <trkpt lat="45.27334" lon="6.08763">
        <ele>1327</ele>
        <time>2021-12-23T08:57:36Z</time>
      </trkpt>
      <trkpt lat="45.27334" lon="6.08766">
        <ele>1327</ele>
        <time>2021-12-23T08:57:37Z</time>
      </trkpt>
      <trkpt lat="45.27334" lon="6.08767">
        <ele>1327</ele>
        <time>2021-12-23T08:57:38Z</time>
      </trkpt>
      <trkpt lat="45.27333" lon="6.08768">
        <ele>1327</ele>
        <time>2021-12-23T08:57:39Z</time>
      </trkpt>
      <trkpt lat="45.27332" lon="6.08769">
        <ele>1327</ele>
        <time>2021-12-23T08:57:40Z</time>
      </trkpt>
      <trkpt lat="45.27331" lon="6.0877">
        <ele>1327</ele>
        <time>2021-12-23T08:57:41Z</time>
      </trkpt>
      <trkpt lat="45.27331" lon="6.08771">
        <ele>1327</ele>
        <time>2021-12-23T08:57:42Z</time>
      </trkpt>
      <trkpt lat="45.2733" lon="6.08772">
        <ele>1327</ele>
        <time>2021-12-23T08:57:43Z</time>
      </trkpt>
      <trkpt lat="45.27329" lon="6.08773">
        <ele>1327</ele>
        <time>2021-12-23T08:57:44Z</time>
      </trkpt>
      <trkpt lat="45.27329" lon="6.08774">
        <ele>1327</ele>
        <time>2021-12-23T08:57:45Z</time>
      </trkpt>
      <trkpt lat="45.27328" lon="6.08775">
        <ele>1327</ele>
        <time>2021-12-23T08:57:47Z</time>
      </trkpt>
      <trkpt lat="45.27327" lon="6.08776">
        <ele>1327</ele>
        <time>2021-12-23T08:57:48Z</time>
      </trkpt>
      <trkpt lat="45.27327" lon="6.08777">
        <ele>1327</ele>
        <time>2021-12-23T08:57:49Z</time>
      </trkpt>
      <trkpt lat="45.27327" lon="6.08778">
        <ele>1327</ele>
        <time>2021-12-23T08:57:50Z</time>
      </trkpt>
      <trkpt lat="45.27326" lon="6.0878">
        <ele>1327</ele>
        <time>2021-12-23T08:57:51Z</time>
      </trkpt>
      <trkpt lat="45.27326" lon="6.08781">
        <ele>1328</ele>
        <time>2021-12-23T08:57:52Z</time>
      </trkpt>
      <trkpt lat="45.27326" lon="6.08782">
        <ele>1328</ele>
        <time>2021-12-23T08:57:53Z</time>
      </trkpt>
      <trkpt lat="45.27325" lon="6.08784">
        <ele>1328</ele>
        <time>2021-12-23T08:57:54Z</time>
      </trkpt>
      <trkpt lat="45.27325" lon="6.08785">
        <ele>1328</ele>
        <time>2021-12-23T08:57:55Z</time>
      </trkpt>
      <trkpt lat="45.27325" lon="6.08786">
        <ele>1328</ele>
        <time>2021-12-23T08:57:56Z</time>
      </trkpt>
      <trkpt lat="45.27324" lon="6.08788">
        <ele>1328</ele>
        <time>2021-12-23T08:57:57Z</time>
      </trkpt>
      <trkpt lat="45.27323" lon="6.08789">
        <ele>1328</ele>
        <time>2021-12-23T08:57:58Z</time>
      </trkpt>
      <trkpt lat="45.27323" lon="6.08789">
        <ele>1328</ele>
        <time>2021-12-23T08:57:59Z</time>
      </trkpt>
      <trkpt lat="45.27322" lon="6.0879">
        <ele>1328</ele>
        <time>2021-12-23T08:58:00Z</time>
      </trkpt>
      <trkpt lat="45.27321" lon="6.08791">
        <ele>1329</ele>
        <time>2021-12-23T08:58:01Z</time>
      </trkpt>
      <trkpt lat="45.2732" lon="6.08792">
        <ele>1329</ele>
        <time>2021-12-23T08:58:02Z</time>
      </trkpt>
      <trkpt lat="45.27319" lon="6.08793">
        <ele>1329</ele>
        <time>2021-12-23T08:58:03Z</time>
      </trkpt>
      <trkpt lat="45.27318" lon="6.08794">
        <ele>1330</ele>
        <time>2021-12-23T08:58:04Z</time>
      </trkpt>
      <trkpt lat="45.27317" lon="6.08795">
        <ele>1330</ele>
        <time>2021-12-23T08:58:06Z</time>
      </trkpt>
      <trkpt lat="45.27316" lon="6.08796">
        <ele>1330</ele>
        <time>2021-12-23T08:58:07Z</time>
      </trkpt>
      <trkpt lat="45.27316" lon="6.08797">
        <ele>1330</ele>
        <time>2021-12-23T08:58:08Z</time>
      </trkpt>
      <trkpt lat="45.27315" lon="6.08798">
        <ele>1330</ele>
        <time>2021-12-23T08:58:09Z</time>
      </trkpt>
      <trkpt lat="45.27315" lon="6.08799">
        <ele>1330</ele>
        <time>2021-12-23T08:58:10Z</time>
      </trkpt>
      <trkpt lat="45.27314" lon="6.088">
        <ele>1330</ele>
        <time>2021-12-23T08:58:12Z</time>
      </trkpt>
      <trkpt lat="45.27314" lon="6.08801">
        <ele>1330</ele>
        <time>2021-12-23T08:58:13Z</time>
      </trkpt>
      <trkpt lat="45.27313" lon="6.08802">
        <ele>1330</ele>
        <time>2021-12-23T08:58:14Z</time>
      </trkpt>
      <trkpt lat="45.27313" lon="6.08803">
        <ele>1330</ele>
        <time>2021-12-23T08:58:15Z</time>
      </trkpt>
      <trkpt lat="45.27312" lon="6.08804">
        <ele>1329</ele>
        <time>2021-12-23T08:58:16Z</time>
      </trkpt>
      <trkpt lat="45.27312" lon="6.08805">
        <ele>1329</ele>
        <time>2021-12-23T08:58:17Z</time>
      </trkpt>
      <trkpt lat="45.27308" lon="6.08814">
        <ele>1329</ele>
        <time>2021-12-23T08:58:18Z</time>
      </trkpt>
      <trkpt lat="45.27308" lon="6.08814">
        <ele>1329</ele>
        <time>2021-12-23T08:58:19Z</time>
      </trkpt>
      <trkpt lat="45.27308" lon="6.08814">
        <ele>1329</ele>
        <time>2021-12-23T08:58:20Z</time>
      </trkpt>
      <trkpt lat="45.27308" lon="6.08814">
        <ele>1329</ele>
        <time>2021-12-23T08:58:21Z</time>
      </trkpt>
      <trkpt lat="45.27308" lon="6.08814">
        <ele>1328</ele>
        <time>2021-12-23T08:58:22Z</time>
      </trkpt>
      <trkpt lat="45.27306" lon="6.08828">
        <ele>1328</ele>
        <time>2021-12-23T08:58:23Z</time>
      </trkpt>
      <trkpt lat="45.27306" lon="6.08828">
        <ele>1328</ele>
        <time>2021-12-23T08:58:25Z</time>
      </trkpt>
      <trkpt lat="45.27305" lon="6.08829">
        <ele>1328</ele>
        <time>2021-12-23T08:58:26Z</time>
      </trkpt>
      <trkpt lat="45.27305" lon="6.0883">
        <ele>1329</ele>
        <time>2021-12-23T08:58:27Z</time>
      </trkpt>
      <trkpt lat="45.27305" lon="6.08832">
        <ele>1329</ele>
        <time>2021-12-23T08:58:28Z</time>
      </trkpt>
      <trkpt lat="45.27305" lon="6.08833">
        <ele>1329</ele>
        <time>2021-12-23T08:58:29Z</time>
      </trkpt>
      <trkpt lat="45.27304" lon="6.08835">
        <ele>1329</ele>
        <time>2021-12-23T08:58:31Z</time>
      </trkpt>
      <trkpt lat="45.27304" lon="6.08836">
        <ele>1329</ele>
        <time>2021-12-23T08:58:32Z</time>
      </trkpt>
      <trkpt lat="45.27304" lon="6.08838">
        <ele>1330</ele>
        <time>2021-12-23T08:58:33Z</time>
      </trkpt>
      <trkpt lat="45.27303" lon="6.08839">
        <ele>1330</ele>
        <time>2021-12-23T08:58:34Z</time>
      </trkpt>
      <trkpt lat="45.27303" lon="6.08841">
        <ele>1330</ele>
        <time>2021-12-23T08:58:35Z</time>
      </trkpt>
      <trkpt lat="45.27303" lon="6.08842">
        <ele>1330</ele>
        <time>2021-12-23T08:58:36Z</time>
      </trkpt>
      <trkpt lat="45.27302" lon="6.08843">
        <ele>1330</ele>
        <time>2021-12-23T08:58:37Z</time>
      </trkpt>
      <trkpt lat="45.27302" lon="6.08844">
        <ele>1331</ele>
        <time>2021-12-23T08:58:38Z</time>
      </trkpt>
      <trkpt lat="45.27301" lon="6.08845">
        <ele>1331</ele>
        <time>2021-12-23T08:58:39Z</time>
      </trkpt>
      <trkpt lat="45.27301" lon="6.08846">
        <ele>1331</ele>
        <time>2021-12-23T08:58:40Z</time>
      </trkpt>
      <trkpt lat="45.273" lon="6.08847">
        <ele>1331</ele>
        <time>2021-12-23T08:58:41Z</time>
      </trkpt>
      <trkpt lat="45.273" lon="6.08848">
        <ele>1331</ele>
        <time>2021-12-23T08:58:42Z</time>
      </trkpt>
      <trkpt lat="45.27299" lon="6.08849">
        <ele>1332</ele>
        <time>2021-12-23T08:58:44Z</time>
      </trkpt>
      <trkpt lat="45.27299" lon="6.0885">
        <ele>1332</ele>
        <time>2021-12-23T08:58:45Z</time>
      </trkpt>
      <trkpt lat="45.27298" lon="6.08851">
        <ele>1333</ele>
        <time>2021-12-23T08:58:46Z</time>
      </trkpt>
      <trkpt lat="45.27298" lon="6.08852">
        <ele>1333</ele>
        <time>2021-12-23T08:58:47Z</time>
      </trkpt>
      <trkpt lat="45.27298" lon="6.08853">
        <ele>1333</ele>
        <time>2021-12-23T08:58:48Z</time>
      </trkpt>
      <trkpt lat="45.27297" lon="6.08853">
        <ele>1333</ele>
        <time>2021-12-23T08:58:49Z</time>
      </trkpt>
      <trkpt lat="45.27297" lon="6.08854">
        <ele>1333</ele>
        <time>2021-12-23T08:58:51Z</time>
      </trkpt>
      <trkpt lat="45.27297" lon="6.08855">
        <ele>1333</ele>
        <time>2021-12-23T08:58:52Z</time>
      </trkpt>
      <trkpt lat="45.27297" lon="6.08855">
        <ele>1334</ele>
        <time>2021-12-23T08:58:53Z</time>
      </trkpt>
      <trkpt lat="45.27296" lon="6.08856">
        <ele>1334</ele>
        <time>2021-12-23T08:58:54Z</time>
      </trkpt>
      <trkpt lat="45.27296" lon="6.08857">
        <ele>1335</ele>
        <time>2021-12-23T08:58:55Z</time>
      </trkpt>
      <trkpt lat="45.27296" lon="6.08857">
        <ele>1335</ele>
        <time>2021-12-23T08:58:56Z</time>
      </trkpt>
      <trkpt lat="45.27296" lon="6.08858">
        <ele>1335</ele>
        <time>2021-12-23T08:58:57Z</time>
      </trkpt>
      <trkpt lat="45.27296" lon="6.08859">
        <ele>1335</ele>
        <time>2021-12-23T08:58:58Z</time>
      </trkpt>
      <trkpt lat="45.27295" lon="6.0886">
        <ele>1335</ele>
        <time>2021-12-23T08:58:59Z</time>
      </trkpt>
      <trkpt lat="45.27295" lon="6.0886">
        <ele>1336</ele>
        <time>2021-12-23T08:59:00Z</time>
      </trkpt>
      <trkpt lat="45.27295" lon="6.08861">
        <ele>1336</ele>
        <time>2021-12-23T08:59:01Z</time>
      </trkpt>
      <trkpt lat="45.27295" lon="6.08862">
        <ele>1336</ele>
        <time>2021-12-23T08:59:03Z</time>
      </trkpt>
      <trkpt lat="45.27294" lon="6.08862">
        <ele>1336</ele>
        <time>2021-12-23T08:59:04Z</time>
      </trkpt>
      <trkpt lat="45.27294" lon="6.08863">
        <ele>1336</ele>
        <time>2021-12-23T08:59:05Z</time>
      </trkpt>
      <trkpt lat="45.27294" lon="6.08864">
        <ele>1337</ele>
        <time>2021-12-23T08:59:06Z</time>
      </trkpt>
      <trkpt lat="45.27294" lon="6.08864">
        <ele>1337</ele>
        <time>2021-12-23T08:59:07Z</time>
      </trkpt>
      <trkpt lat="45.27293" lon="6.08865">
        <ele>1337</ele>
        <time>2021-12-23T08:59:08Z</time>
      </trkpt>
      <trkpt lat="45.27293" lon="6.08867">
        <ele>1338</ele>
        <time>2021-12-23T08:59:09Z</time>
      </trkpt>
      <trkpt lat="45.27293" lon="6.08869">
        <ele>1338</ele>
        <time>2021-12-23T08:59:10Z</time>
      </trkpt>
      <trkpt lat="45.27293" lon="6.08871">
        <ele>1338</ele>
        <time>2021-12-23T08:59:11Z</time>
      </trkpt>
      <trkpt lat="45.27293" lon="6.08873">
        <ele>1338</ele>
        <time>2021-12-23T08:59:12Z</time>
      </trkpt>
      <trkpt lat="45.27292" lon="6.08875">
        <ele>1338</ele>
        <time>2021-12-23T08:59:13Z</time>
      </trkpt>
      <trkpt lat="45.27292" lon="6.08877">
        <ele>1338</ele>
        <time>2021-12-23T08:59:14Z</time>
      </trkpt>
      <trkpt lat="45.27292" lon="6.08879">
        <ele>1339</ele>
        <time>2021-12-23T08:59:15Z</time>
      </trkpt>
      <trkpt lat="45.27291" lon="6.0888">
        <ele>1339</ele>
        <time>2021-12-23T08:59:16Z</time>
      </trkpt>
      <trkpt lat="45.27291" lon="6.08881">
        <ele>1339</ele>
        <time>2021-12-23T08:59:17Z</time>
      </trkpt>
      <trkpt lat="45.2729" lon="6.08882">
        <ele>1339</ele>
        <time>2021-12-23T08:59:18Z</time>
      </trkpt>
      <trkpt lat="45.2729" lon="6.08884">
        <ele>1340</ele>
        <time>2021-12-23T08:59:19Z</time>
      </trkpt>
      <trkpt lat="45.27289" lon="6.08885">
        <ele>1340</ele>
        <time>2021-12-23T08:59:20Z</time>
      </trkpt>
      <trkpt lat="45.27288" lon="6.08886">
        <ele>1340</ele>
        <time>2021-12-23T08:59:22Z</time>
      </trkpt>
      <trkpt lat="45.27288" lon="6.08888">
        <ele>1340</ele>
        <time>2021-12-23T08:59:23Z</time>
      </trkpt>
      <trkpt lat="45.27287" lon="6.08889">
        <ele>1340</ele>
        <time>2021-12-23T08:59:24Z</time>
      </trkpt>
      <trkpt lat="45.27287" lon="6.0889">
        <ele>1340</ele>
        <time>2021-12-23T08:59:25Z</time>
      </trkpt>
      <trkpt lat="45.27286" lon="6.08892">
        <ele>1340</ele>
        <time>2021-12-23T08:59:26Z</time>
      </trkpt>
      <trkpt lat="45.27286" lon="6.08894">
        <ele>1340</ele>
        <time>2021-12-23T08:59:27Z</time>
      </trkpt>
      <trkpt lat="45.27285" lon="6.08896">
        <ele>1341</ele>
        <time>2021-12-23T08:59:28Z</time>
      </trkpt>
      <trkpt lat="45.27284" lon="6.08898">
        <ele>1341</ele>
        <time>2021-12-23T08:59:29Z</time>
      </trkpt>
      <trkpt lat="45.27284" lon="6.089">
        <ele>1341</ele>
        <time>2021-12-23T08:59:30Z</time>
      </trkpt>
      <trkpt lat="45.27283" lon="6.08901">
        <ele>1341</ele>
        <time>2021-12-23T08:59:31Z</time>
      </trkpt>
      <trkpt lat="45.27283" lon="6.08903">
        <ele>1341</ele>
        <time>2021-12-23T08:59:32Z</time>
      </trkpt>
      <trkpt lat="45.27283" lon="6.08903">
        <ele>1340</ele>
        <time>2021-12-23T08:59:33Z</time>
      </trkpt>
      <trkpt lat="45.27283" lon="6.08903">
        <ele>1340</ele>
        <time>2021-12-23T08:59:34Z</time>
      </trkpt>
      <trkpt lat="45.27283" lon="6.08903">
        <ele>1340</ele>
        <time>2021-12-23T08:59:35Z</time>
      </trkpt>
      <trkpt lat="45.27283" lon="6.08903">
        <ele>1340</ele>
        <time>2021-12-23T08:59:36Z</time>
      </trkpt>
      <trkpt lat="45.27283" lon="6.08903">
        <ele>1340</ele>
        <time>2021-12-23T08:59:37Z</time>
      </trkpt>
      <trkpt lat="45.27283" lon="6.08903">
        <ele>1340</ele>
        <time>2021-12-23T08:59:38Z</time>
      </trkpt>
      <trkpt lat="45.27277" lon="6.08913">
        <ele>1340</ele>
        <time>2021-12-23T08:59:39Z</time>
      </trkpt>
      <trkpt lat="45.27277" lon="6.08913">
        <ele>1340</ele>
        <time>2021-12-23T08:59:41Z</time>
      </trkpt>
      <trkpt lat="45.27276" lon="6.08914">
        <ele>1340</ele>
        <time>2021-12-23T08:59:42Z</time>
      </trkpt>
      <trkpt lat="45.27275" lon="6.08915">
        <ele>1341</ele>
        <time>2021-12-23T08:59:43Z</time>
      </trkpt>
      <trkpt lat="45.27274" lon="6.08916">
        <ele>1341</ele>
        <time>2021-12-23T08:59:44Z</time>
      </trkpt>
      <trkpt lat="45.27273" lon="6.08917">
        <ele>1341</ele>
        <time>2021-12-23T08:59:45Z</time>
      </trkpt>
      <trkpt lat="45.27272" lon="6.08918">
        <ele>1341</ele>
        <time>2021-12-23T08:59:46Z</time>
      </trkpt>
      <trkpt lat="45.27271" lon="6.08919">
        <ele>1341</ele>
        <time>2021-12-23T08:59:47Z</time>
      </trkpt>
      <trkpt lat="45.2727" lon="6.0892">
        <ele>1341</ele>
        <time>2021-12-23T08:59:48Z</time>
      </trkpt>
      <trkpt lat="45.27269" lon="6.08921">
        <ele>1341</ele>
        <time>2021-12-23T08:59:49Z</time>
      </trkpt>
      <trkpt lat="45.27269" lon="6.08921">
        <ele>1341</ele>
        <time>2021-12-23T08:59:51Z</time>
      </trkpt>
      <trkpt lat="45.27269" lon="6.08921">
        <ele>1341</ele>
        <time>2021-12-23T08:59:52Z</time>
      </trkpt>
      <trkpt lat="45.27269" lon="6.08921">
        <ele>1341</ele>
        <time>2021-12-23T08:59:53Z</time>
      </trkpt>
      <trkpt lat="45.27269" lon="6.08921">
        <ele>1342</ele>
        <time>2021-12-23T08:59:54Z</time>
      </trkpt>
      <trkpt lat="45.27269" lon="6.08921">
        <ele>1342</ele>
        <time>2021-12-23T08:59:55Z</time>
      </trkpt>
      <trkpt lat="45.27269" lon="6.08921">
        <ele>1342</ele>
        <time>2021-12-23T08:59:56Z</time>
      </trkpt>
      <trkpt lat="45.27269" lon="6.08921">
        <ele>1342</ele>
        <time>2021-12-23T08:59:57Z</time>
      </trkpt>
      <trkpt lat="45.27264" lon="6.08931">
        <ele>1342</ele>
        <time>2021-12-23T08:59:58Z</time>
      </trkpt>
      <trkpt lat="45.27264" lon="6.08931">
        <ele>1342</ele>
        <time>2021-12-23T09:00:00Z</time>
      </trkpt>
      <trkpt lat="45.27264" lon="6.08931">
        <ele>1342</ele>
        <time>2021-12-23T09:00:01Z</time>
      </trkpt>
      <trkpt lat="45.27264" lon="6.08931">
        <ele>1342</ele>
        <time>2021-12-23T09:00:02Z</time>
      </trkpt>
      <trkpt lat="45.27264" lon="6.08931">
        <ele>1342</ele>
        <time>2021-12-23T09:00:03Z</time>
      </trkpt>
      <trkpt lat="45.27264" lon="6.08931">
        <ele>1343</ele>
        <time>2021-12-23T09:00:04Z</time>
      </trkpt>
      <trkpt lat="45.27264" lon="6.08931">
        <ele>1343</ele>
        <time>2021-12-23T09:00:05Z</time>
      </trkpt>
      <trkpt lat="45.27264" lon="6.08931">
        <ele>1343</ele>
        <time>2021-12-23T09:00:06Z</time>
      </trkpt>
      <trkpt lat="45.2726" lon="6.08944">
        <ele>1343</ele>
        <time>2021-12-23T09:00:07Z</time>
      </trkpt>
      <trkpt lat="45.2726" lon="6.08944">
        <ele>1343</ele>
        <time>2021-12-23T09:00:09Z</time>
      </trkpt>
      <trkpt lat="45.27259" lon="6.08946">
        <ele>1343</ele>
        <time>2021-12-23T09:00:10Z</time>
      </trkpt>
      <trkpt lat="45.27259" lon="6.08948">
        <ele>1343</ele>
        <time>2021-12-23T09:00:11Z</time>
      </trkpt>
      <trkpt lat="45.27259" lon="6.0895">
        <ele>1343</ele>
        <time>2021-12-23T09:00:12Z</time>
      </trkpt>
      <trkpt lat="45.27258" lon="6.08952">
        <ele>1343</ele>
        <time>2021-12-23T09:00:13Z</time>
      </trkpt>
      <trkpt lat="45.27258" lon="6.08954">
        <ele>1344</ele>
        <time>2021-12-23T09:00:14Z</time>
      </trkpt>
      <trkpt lat="45.27258" lon="6.08955">
        <ele>1344</ele>
        <time>2021-12-23T09:00:15Z</time>
      </trkpt>
      <trkpt lat="45.27257" lon="6.08957">
        <ele>1344</ele>
        <time>2021-12-23T09:00:16Z</time>
      </trkpt>
      <trkpt lat="45.27257" lon="6.08958">
        <ele>1344</ele>
        <time>2021-12-23T09:00:17Z</time>
      </trkpt>
      <trkpt lat="45.27256" lon="6.08959">
        <ele>1345</ele>
        <time>2021-12-23T09:00:19Z</time>
      </trkpt>
      <trkpt lat="45.27256" lon="6.0896">
        <ele>1345</ele>
        <time>2021-12-23T09:00:20Z</time>
      </trkpt>
      <trkpt lat="45.27255" lon="6.08961">
        <ele>1346</ele>
        <time>2021-12-23T09:00:21Z</time>
      </trkpt>
      <trkpt lat="45.27254" lon="6.08961">
        <ele>1346</ele>
        <time>2021-12-23T09:00:22Z</time>
      </trkpt>
      <trkpt lat="45.27254" lon="6.08962">
        <ele>1346</ele>
        <time>2021-12-23T09:00:23Z</time>
      </trkpt>
      <trkpt lat="45.27253" lon="6.08963">
        <ele>1346</ele>
        <time>2021-12-23T09:00:24Z</time>
      </trkpt>
      <trkpt lat="45.27252" lon="6.08964">
        <ele>1346</ele>
        <time>2021-12-23T09:00:25Z</time>
      </trkpt>
      <trkpt lat="45.27252" lon="6.08965">
        <ele>1346</ele>
        <time>2021-12-23T09:00:26Z</time>
      </trkpt>
      <trkpt lat="45.27251" lon="6.08965">
        <ele>1346</ele>
        <time>2021-12-23T09:00:27Z</time>
      </trkpt>
      <trkpt lat="45.2725" lon="6.08966">
        <ele>1346</ele>
        <time>2021-12-23T09:00:28Z</time>
      </trkpt>
      <trkpt lat="45.2725" lon="6.08966">
        <ele>1346</ele>
        <time>2021-12-23T09:00:29Z</time>
      </trkpt>
      <trkpt lat="45.2725" lon="6.08966">
        <ele>1346</ele>
        <time>2021-12-23T09:00:30Z</time>
      </trkpt>
      <trkpt lat="45.2725" lon="6.08966">
        <ele>1347</ele>
        <time>2021-12-23T09:00:31Z</time>
      </trkpt>
      <trkpt lat="45.2725" lon="6.08966">
        <ele>1347</ele>
        <time>2021-12-23T09:00:32Z</time>
      </trkpt>
      <trkpt lat="45.2725" lon="6.08966">
        <ele>1347</ele>
        <time>2021-12-23T09:00:33Z</time>
      </trkpt>
      <trkpt lat="45.2725" lon="6.08966">
        <ele>1347</ele>
        <time>2021-12-23T09:00:34Z</time>
      </trkpt>
      <trkpt lat="45.2725" lon="6.08966">
        <ele>1347</ele>
        <time>2021-12-23T09:00:35Z</time>
      </trkpt>
      <trkpt lat="45.2725" lon="6.08979">
        <ele>1348</ele>
        <time>2021-12-23T09:00:36Z</time>
      </trkpt>
      <trkpt lat="45.2725" lon="6.08979">
        <ele>1348</ele>
        <time>2021-12-23T09:00:38Z</time>
      </trkpt>
      <trkpt lat="45.2725" lon="6.08981">
        <ele>1348</ele>
        <time>2021-12-23T09:00:39Z</time>
      </trkpt>
      <trkpt lat="45.27249" lon="6.08983">
        <ele>1349</ele>
        <time>2021-12-23T09:00:41Z</time>
      </trkpt>
      <trkpt lat="45.27249" lon="6.08984">
        <ele>1349</ele>
        <time>2021-12-23T09:00:42Z</time>
      </trkpt>
      <trkpt lat="45.27249" lon="6.08986">
        <ele>1350</ele>
        <time>2021-12-23T09:00:43Z</time>
      </trkpt>
      <trkpt lat="45.27249" lon="6.08988">
        <ele>1350</ele>
        <time>2021-12-23T09:00:44Z</time>
      </trkpt>
      <trkpt lat="45.27249" lon="6.0899">
        <ele>1350</ele>
        <time>2021-12-23T09:00:45Z</time>
      </trkpt>
      <trkpt lat="45.27248" lon="6.08991">
        <ele>1350</ele>
        <time>2021-12-23T09:00:46Z</time>
      </trkpt>
      <trkpt lat="45.27248" lon="6.08993">
        <ele>1350</ele>
        <time>2021-12-23T09:00:47Z</time>
      </trkpt>
      <trkpt lat="45.27249" lon="6.08994">
        <ele>1350</ele>
        <time>2021-12-23T09:00:48Z</time>
      </trkpt>
      <trkpt lat="45.27249" lon="6.08996">
        <ele>1350</ele>
        <time>2021-12-23T09:00:49Z</time>
      </trkpt>
      <trkpt lat="45.2725" lon="6.08997">
        <ele>1350</ele>
        <time>2021-12-23T09:00:50Z</time>
      </trkpt>
      <trkpt lat="45.2725" lon="6.08999">
        <ele>1350</ele>
        <time>2021-12-23T09:00:51Z</time>
      </trkpt>
      <trkpt lat="45.27251" lon="6.09">
        <ele>1350</ele>
        <time>2021-12-23T09:00:52Z</time>
      </trkpt>
      <trkpt lat="45.27252" lon="6.09002">
        <ele>1350</ele>
        <time>2021-12-23T09:00:53Z</time>
      </trkpt>
      <trkpt lat="45.27252" lon="6.09003">
        <ele>1350</ele>
        <time>2021-12-23T09:00:54Z</time>
      </trkpt>
      <trkpt lat="45.27253" lon="6.09005">
        <ele>1350</ele>
        <time>2021-12-23T09:00:56Z</time>
      </trkpt>
      <trkpt lat="45.27253" lon="6.09006">
        <ele>1351</ele>
        <time>2021-12-23T09:00:57Z</time>
      </trkpt>
      <trkpt lat="45.27254" lon="6.09008">
        <ele>1351</ele>
        <time>2021-12-23T09:00:58Z</time>
      </trkpt>
      <trkpt lat="45.27254" lon="6.09009">
        <ele>1351</ele>
        <time>2021-12-23T09:00:59Z</time>
      </trkpt>
      <trkpt lat="45.27255" lon="6.09011">
        <ele>1351</ele>
        <time>2021-12-23T09:01:00Z</time>
      </trkpt>
      <trkpt lat="45.27254" lon="6.09012">
        <ele>1351</ele>
        <time>2021-12-23T09:01:01Z</time>
      </trkpt>
      <trkpt lat="45.27254" lon="6.09013">
        <ele>1351</ele>
        <time>2021-12-23T09:01:02Z</time>
      </trkpt>
      <trkpt lat="45.27253" lon="6.09014">
        <ele>1352</ele>
        <time>2021-12-23T09:01:03Z</time>
      </trkpt>
      <trkpt lat="45.27253" lon="6.09015">
        <ele>1352</ele>
        <time>2021-12-23T09:01:04Z</time>
      </trkpt>
      <trkpt lat="45.27252" lon="6.09016">
        <ele>1353</ele>
        <time>2021-12-23T09:01:05Z</time>
      </trkpt>
      <trkpt lat="45.27252" lon="6.09017">
        <ele>1354</ele>
        <time>2021-12-23T09:01:06Z</time>
      </trkpt>
      <trkpt lat="45.27251" lon="6.09018">
        <ele>1354</ele>
        <time>2021-12-23T09:01:07Z</time>
      </trkpt>
      <trkpt lat="45.27251" lon="6.09019">
        <ele>1354</ele>
        <time>2021-12-23T09:01:08Z</time>
      </trkpt>
      <trkpt lat="45.2725" lon="6.0902">
        <ele>1354</ele>
        <time>2021-12-23T09:01:09Z</time>
      </trkpt>
      <trkpt lat="45.27249" lon="6.09021">
        <ele>1354</ele>
        <time>2021-12-23T09:01:10Z</time>
      </trkpt>
      <trkpt lat="45.27249" lon="6.09023">
        <ele>1354</ele>
        <time>2021-12-23T09:01:11Z</time>
      </trkpt>
      <trkpt lat="45.27249" lon="6.09024">
        <ele>1354</ele>
        <time>2021-12-23T09:01:12Z</time>
      </trkpt>
      <trkpt lat="45.27249" lon="6.09026">
        <ele>1354</ele>
        <time>2021-12-23T09:01:13Z</time>
      </trkpt>
      <trkpt lat="45.27248" lon="6.09027">
        <ele>1355</ele>
        <time>2021-12-23T09:01:14Z</time>
      </trkpt>
      <trkpt lat="45.27248" lon="6.09029">
        <ele>1355</ele>
        <time>2021-12-23T09:01:16Z</time>
      </trkpt>
      <trkpt lat="45.27248" lon="6.0903">
        <ele>1355</ele>
        <time>2021-12-23T09:01:17Z</time>
      </trkpt>
      <trkpt lat="45.27247" lon="6.09032">
        <ele>1355</ele>
        <time>2021-12-23T09:01:18Z</time>
      </trkpt>
      <trkpt lat="45.27247" lon="6.09033">
        <ele>1355</ele>
        <time>2021-12-23T09:01:19Z</time>
      </trkpt>
      <trkpt lat="45.27247" lon="6.09034">
        <ele>1355</ele>
        <time>2021-12-23T09:01:20Z</time>
      </trkpt>
      <trkpt lat="45.27246" lon="6.09034">
        <ele>1355</ele>
        <time>2021-12-23T09:01:21Z</time>
      </trkpt>
      <trkpt lat="45.27246" lon="6.09035">
        <ele>1355</ele>
        <time>2021-12-23T09:01:22Z</time>
      </trkpt>
      <trkpt lat="45.27246" lon="6.09036">
        <ele>1355</ele>
        <time>2021-12-23T09:01:23Z</time>
      </trkpt>
      <trkpt lat="45.27245" lon="6.09036">
        <ele>1355</ele>
        <time>2021-12-23T09:01:24Z</time>
      </trkpt>
      <trkpt lat="45.27245" lon="6.09037">
        <ele>1355</ele>
        <time>2021-12-23T09:01:25Z</time>
      </trkpt>
      <trkpt lat="45.27245" lon="6.09037">
        <ele>1355</ele>
        <time>2021-12-23T09:01:26Z</time>
      </trkpt>
      <trkpt lat="45.27244" lon="6.09038">
        <ele>1355</ele>
        <time>2021-12-23T09:01:27Z</time>
      </trkpt>
      <trkpt lat="45.27244" lon="6.09039">
        <ele>1355</ele>
        <time>2021-12-23T09:01:28Z</time>
      </trkpt>
      <trkpt lat="45.27244" lon="6.09039">
        <ele>1355</ele>
        <time>2021-12-23T09:01:29Z</time>
      </trkpt>
      <trkpt lat="45.27239" lon="6.09047">
        <ele>1355</ele>
        <time>2021-12-23T09:01:30Z</time>
      </trkpt>
      <trkpt lat="45.27239" lon="6.0905">
        <ele>1355</ele>
        <time>2021-12-23T09:01:31Z</time>
      </trkpt>
      <trkpt lat="45.27238" lon="6.09052">
        <ele>1355</ele>
        <time>2021-12-23T09:01:32Z</time>
      </trkpt>
      <trkpt lat="45.27237" lon="6.09054">
        <ele>1355</ele>
        <time>2021-12-23T09:01:33Z</time>
      </trkpt>
      <trkpt lat="45.27236" lon="6.09056">
        <ele>1355</ele>
        <time>2021-12-23T09:01:35Z</time>
      </trkpt>
      <trkpt lat="45.27236" lon="6.09058">
        <ele>1355</ele>
        <time>2021-12-23T09:01:36Z</time>
      </trkpt>
      <trkpt lat="45.27236" lon="6.09058">
        <ele>1356</ele>
        <time>2021-12-23T09:01:37Z</time>
      </trkpt>
      <trkpt lat="45.27236" lon="6.09058">
        <ele>1356</ele>
        <time>2021-12-23T09:01:38Z</time>
      </trkpt>
      <trkpt lat="45.27236" lon="6.09058">
        <ele>1356</ele>
        <time>2021-12-23T09:01:39Z</time>
      </trkpt>
      <trkpt lat="45.27236" lon="6.09058">
        <ele>1356</ele>
        <time>2021-12-23T09:01:40Z</time>
      </trkpt>
      <trkpt lat="45.27236" lon="6.09058">
        <ele>1356</ele>
        <time>2021-12-23T09:01:41Z</time>
      </trkpt>
      <trkpt lat="45.27236" lon="6.09058">
        <ele>1356</ele>
        <time>2021-12-23T09:01:42Z</time>
      </trkpt>
      <trkpt lat="45.27236" lon="6.09058">
        <ele>1356</ele>
        <time>2021-12-23T09:01:43Z</time>
      </trkpt>
      <trkpt lat="45.27236" lon="6.09058">
        <ele>1356</ele>
        <time>2021-12-23T09:01:44Z</time>
      </trkpt>
      <trkpt lat="45.27236" lon="6.09058">
        <ele>1356</ele>
        <time>2021-12-23T09:01:45Z</time>
      </trkpt>
      <trkpt lat="45.27236" lon="6.09058">
        <ele>1356</ele>
        <time>2021-12-23T09:01:46Z</time>
      </trkpt>
      <trkpt lat="45.27236" lon="6.09058">
        <ele>1356</ele>
        <time>2021-12-23T09:01:47Z</time>
      </trkpt>
      <trkpt lat="45.27232" lon="6.0907">
        <ele>1357</ele>
        <time>2021-12-23T09:01:48Z</time>
      </trkpt>
      <trkpt lat="45.27232" lon="6.0907">
        <ele>1358</ele>
        <time>2021-12-23T09:01:50Z</time>
      </trkpt>
      <trkpt lat="45.27233" lon="6.09073">
        <ele>1358</ele>
        <time>2021-12-23T09:01:51Z</time>
      </trkpt>
      <trkpt lat="45.27235" lon="6.09075">
        <ele>1358</ele>
        <time>2021-12-23T09:01:52Z</time>
      </trkpt>
      <trkpt lat="45.27237" lon="6.09078">
        <ele>1358</ele>
        <time>2021-12-23T09:01:54Z</time>
      </trkpt>
      <trkpt lat="45.27238" lon="6.0908">
        <ele>1358</ele>
        <time>2021-12-23T09:01:55Z</time>
      </trkpt>
      <trkpt lat="45.27237" lon="6.09082">
        <ele>1358</ele>
        <time>2021-12-23T09:01:56Z</time>
      </trkpt>
      <trkpt lat="45.27235" lon="6.09085">
        <ele>1358</ele>
        <time>2021-12-23T09:01:57Z</time>
      </trkpt>
      <trkpt lat="45.27234" lon="6.09087">
        <ele>1358</ele>
        <time>2021-12-23T09:01:58Z</time>
      </trkpt>
      <trkpt lat="45.27232" lon="6.09089">
        <ele>1358</ele>
        <time>2021-12-23T09:01:59Z</time>
      </trkpt>
      <trkpt lat="45.27231" lon="6.09091">
        <ele>1359</ele>
        <time>2021-12-23T09:02:00Z</time>
      </trkpt>
      <trkpt lat="45.27229" lon="6.09093">
        <ele>1359</ele>
        <time>2021-12-23T09:02:01Z</time>
      </trkpt>
      <trkpt lat="45.27229" lon="6.09093">
        <ele>1359</ele>
        <time>2021-12-23T09:02:02Z</time>
      </trkpt>
      <trkpt lat="45.27229" lon="6.09094">
        <ele>1359</ele>
        <time>2021-12-23T09:02:03Z</time>
      </trkpt>
      <trkpt lat="45.27229" lon="6.09094">
        <ele>1359</ele>
        <time>2021-12-23T09:02:04Z</time>
      </trkpt>
      <trkpt lat="45.27228" lon="6.09095">
        <ele>1359</ele>
        <time>2021-12-23T09:02:05Z</time>
      </trkpt>
      <trkpt lat="45.27228" lon="6.09095">
        <ele>1359</ele>
        <time>2021-12-23T09:02:06Z</time>
      </trkpt>
      <trkpt lat="45.27228" lon="6.09096">
        <ele>1359</ele>
        <time>2021-12-23T09:02:08Z</time>
      </trkpt>
      <trkpt lat="45.27228" lon="6.09096">
        <ele>1359</ele>
        <time>2021-12-23T09:02:09Z</time>
      </trkpt>
      <trkpt lat="45.27227" lon="6.09097">
        <ele>1359</ele>
        <time>2021-12-23T09:02:10Z</time>
      </trkpt>
      <trkpt lat="45.27227" lon="6.09097">
        <ele>1359</ele>
        <time>2021-12-23T09:02:11Z</time>
      </trkpt>
      <trkpt lat="45.27227" lon="6.09097">
        <ele>1359</ele>
        <time>2021-12-23T09:02:13Z</time>
      </trkpt>
      <trkpt lat="45.27227" lon="6.09098">
        <ele>1360</ele>
        <time>2021-12-23T09:02:15Z</time>
      </trkpt>
      <trkpt lat="45.27227" lon="6.09098">
        <ele>1361</ele>
        <time>2021-12-23T09:02:16Z</time>
      </trkpt>
      <trkpt lat="45.27226" lon="6.09099">
        <ele>1361</ele>
        <time>2021-12-23T09:02:17Z</time>
      </trkpt>
      <trkpt lat="45.27224" lon="6.09106">
        <ele>1361</ele>
        <time>2021-12-23T09:02:18Z</time>
      </trkpt>
      <trkpt lat="45.27225" lon="6.09106">
        <ele>1361</ele>
        <time>2021-12-23T09:02:19Z</time>
      </trkpt>
      <trkpt lat="45.27225" lon="6.09107">
        <ele>1361</ele>
        <time>2021-12-23T09:02:20Z</time>
      </trkpt>
      <trkpt lat="45.27226" lon="6.09107">
        <ele>1361</ele>
        <time>2021-12-23T09:02:21Z</time>
      </trkpt>
      <trkpt lat="45.27226" lon="6.09108">
        <ele>1361</ele>
        <time>2021-12-23T09:02:22Z</time>
      </trkpt>
      <trkpt lat="45.27227" lon="6.09109">
        <ele>1362</ele>
        <time>2021-12-23T09:02:23Z</time>
      </trkpt>
      <trkpt lat="45.27227" lon="6.09109">
        <ele>1362</ele>
        <time>2021-12-23T09:02:24Z</time>
      </trkpt>
      <trkpt lat="45.27228" lon="6.0911">
        <ele>1362</ele>
        <time>2021-12-23T09:02:25Z</time>
      </trkpt>
      <trkpt lat="45.27229" lon="6.0911">
        <ele>1363</ele>
        <time>2021-12-23T09:02:27Z</time>
      </trkpt>
      <trkpt lat="45.27229" lon="6.09111">
        <ele>1364</ele>
        <time>2021-12-23T09:02:29Z</time>
      </trkpt>
      <trkpt lat="45.2723" lon="6.09111">
        <ele>1364</ele>
        <time>2021-12-23T09:02:30Z</time>
      </trkpt>
      <trkpt lat="45.2723" lon="6.09112">
        <ele>1364</ele>
        <time>2021-12-23T09:02:31Z</time>
      </trkpt>
      <trkpt lat="45.27231" lon="6.09113">
        <ele>1364</ele>
        <time>2021-12-23T09:02:32Z</time>
      </trkpt>
      <trkpt lat="45.27231" lon="6.09115">
        <ele>1364</ele>
        <time>2021-12-23T09:02:33Z</time>
      </trkpt>
      <trkpt lat="45.2723" lon="6.09117">
        <ele>1364</ele>
        <time>2021-12-23T09:02:34Z</time>
      </trkpt>
      <trkpt lat="45.2723" lon="6.09119">
        <ele>1365</ele>
        <time>2021-12-23T09:02:35Z</time>
      </trkpt>
      <trkpt lat="45.2723" lon="6.0912">
        <ele>1365</ele>
        <time>2021-12-23T09:02:36Z</time>
      </trkpt>
      <trkpt lat="45.2723" lon="6.09122">
        <ele>1365</ele>
        <time>2021-12-23T09:02:37Z</time>
      </trkpt>
      <trkpt lat="45.2723" lon="6.09124">
        <ele>1365</ele>
        <time>2021-12-23T09:02:38Z</time>
      </trkpt>
      <trkpt lat="45.2723" lon="6.09126">
        <ele>1365</ele>
        <time>2021-12-23T09:02:39Z</time>
      </trkpt>
      <trkpt lat="45.27229" lon="6.09128">
        <ele>1365</ele>
        <time>2021-12-23T09:02:40Z</time>
      </trkpt>
      <trkpt lat="45.27229" lon="6.0913">
        <ele>1366</ele>
        <time>2021-12-23T09:02:41Z</time>
      </trkpt>
      <trkpt lat="45.27228" lon="6.09131">
        <ele>1366</ele>
        <time>2021-12-23T09:02:42Z</time>
      </trkpt>
      <trkpt lat="45.27228" lon="6.09133">
        <ele>1366</ele>
        <time>2021-12-23T09:02:43Z</time>
      </trkpt>
      <trkpt lat="45.27227" lon="6.09135">
        <ele>1367</ele>
        <time>2021-12-23T09:02:45Z</time>
      </trkpt>
      <trkpt lat="45.27227" lon="6.09137">
        <ele>1367</ele>
        <time>2021-12-23T09:02:46Z</time>
      </trkpt>
      <trkpt lat="45.27227" lon="6.09138">
        <ele>1367</ele>
        <time>2021-12-23T09:02:47Z</time>
      </trkpt>
      <trkpt lat="45.27226" lon="6.0914">
        <ele>1367</ele>
        <time>2021-12-23T09:02:48Z</time>
      </trkpt>
      <trkpt lat="45.27227" lon="6.09141">
        <ele>1367</ele>
        <time>2021-12-23T09:02:49Z</time>
      </trkpt>
      <trkpt lat="45.27227" lon="6.09143">
        <ele>1367</ele>
        <time>2021-12-23T09:02:51Z</time>
      </trkpt>
      <trkpt lat="45.27228" lon="6.09144">
        <ele>1368</ele>
        <time>2021-12-23T09:02:53Z</time>
      </trkpt>
      <trkpt lat="45.27228" lon="6.09146">
        <ele>1368</ele>
        <time>2021-12-23T09:02:54Z</time>
      </trkpt>
      <trkpt lat="45.27229" lon="6.09147">
        <ele>1368</ele>
        <time>2021-12-23T09:02:55Z</time>
      </trkpt>
      <trkpt lat="45.27229" lon="6.09149">
        <ele>1368</ele>
        <time>2021-12-23T09:02:56Z</time>
      </trkpt>
      <trkpt lat="45.2723" lon="6.0915">
        <ele>1368</ele>
        <time>2021-12-23T09:02:57Z</time>
      </trkpt>
      <trkpt lat="45.2723" lon="6.09152">
        <ele>1368</ele>
        <time>2021-12-23T09:02:58Z</time>
      </trkpt>
      <trkpt lat="45.27231" lon="6.09153">
        <ele>1368</ele>
        <time>2021-12-23T09:02:59Z</time>
      </trkpt>
      <trkpt lat="45.27231" lon="6.09153">
        <ele>1369</ele>
        <time>2021-12-23T09:03:00Z</time>
      </trkpt>
      <trkpt lat="45.27231" lon="6.09153">
        <ele>1369</ele>
        <time>2021-12-23T09:03:01Z</time>
      </trkpt>
      <trkpt lat="45.27231" lon="6.09153">
        <ele>1369</ele>
        <time>2021-12-23T09:03:02Z</time>
      </trkpt>
      <trkpt lat="45.27231" lon="6.09153">
        <ele>1370</ele>
        <time>2021-12-23T09:03:04Z</time>
      </trkpt>
      <trkpt lat="45.27231" lon="6.09153">
        <ele>1370</ele>
        <time>2021-12-23T09:03:05Z</time>
      </trkpt>
      <trkpt lat="45.27231" lon="6.09153">
        <ele>1370</ele>
        <time>2021-12-23T09:03:06Z</time>
      </trkpt>
      <trkpt lat="45.27231" lon="6.09153">
        <ele>1370</ele>
        <time>2021-12-23T09:03:07Z</time>
      </trkpt>
      <trkpt lat="45.27231" lon="6.09153">
        <ele>1370</ele>
        <time>2021-12-23T09:03:08Z</time>
      </trkpt>
      <trkpt lat="45.27231" lon="6.09153">
        <ele>1370</ele>
        <time>2021-12-23T09:03:10Z</time>
      </trkpt>
      <trkpt lat="45.27226" lon="6.09165">
        <ele>1370</ele>
        <time>2021-12-23T09:03:11Z</time>
      </trkpt>
      <trkpt lat="45.27226" lon="6.09165">
        <ele>1372</ele>
        <time>2021-12-23T09:03:13Z</time>
      </trkpt>
      <trkpt lat="45.27225" lon="6.09166">
        <ele>1372</ele>
        <time>2021-12-23T09:03:14Z</time>
      </trkpt>
      <trkpt lat="45.27224" lon="6.09168">
        <ele>1372</ele>
        <time>2021-12-23T09:03:15Z</time>
      </trkpt>
      <trkpt lat="45.27223" lon="6.09169">
        <ele>1372</ele>
        <time>2021-12-23T09:03:16Z</time>
      </trkpt>
      <trkpt lat="45.27222" lon="6.0917">
        <ele>1372</ele>
        <time>2021-12-23T09:03:17Z</time>
      </trkpt>
      <trkpt lat="45.27221" lon="6.09171">
        <ele>1372</ele>
        <time>2021-12-23T09:03:18Z</time>
      </trkpt>
      <trkpt lat="45.2722" lon="6.09172">
        <ele>1372</ele>
        <time>2021-12-23T09:03:20Z</time>
      </trkpt>
      <trkpt lat="45.27219" lon="6.09173">
        <ele>1372</ele>
        <time>2021-12-23T09:03:21Z</time>
      </trkpt>
      <trkpt lat="45.27219" lon="6.09174">
        <ele>1372</ele>
        <time>2021-12-23T09:03:22Z</time>
      </trkpt>
      <trkpt lat="45.27219" lon="6.09175">
        <ele>1372</ele>
        <time>2021-12-23T09:03:23Z</time>
      </trkpt>
      <trkpt lat="45.27219" lon="6.09176">
        <ele>1372</ele>
        <time>2021-12-23T09:03:24Z</time>
      </trkpt>
      <trkpt lat="45.27219" lon="6.09178">
        <ele>1372</ele>
        <time>2021-12-23T09:03:25Z</time>
      </trkpt>
      <trkpt lat="45.27219" lon="6.09179">
        <ele>1372</ele>
        <time>2021-12-23T09:03:26Z</time>
      </trkpt>
      <trkpt lat="45.27219" lon="6.0918">
        <ele>1372</ele>
        <time>2021-12-23T09:03:27Z</time>
      </trkpt>
      <trkpt lat="45.27219" lon="6.09181">
        <ele>1372</ele>
        <time>2021-12-23T09:03:29Z</time>
      </trkpt>
      <trkpt lat="45.27219" lon="6.09182">
        <ele>1373</ele>
        <time>2021-12-23T09:03:30Z</time>
      </trkpt>
      <trkpt lat="45.27219" lon="6.09183">
        <ele>1373</ele>
        <time>2021-12-23T09:03:31Z</time>
      </trkpt>
      <trkpt lat="45.27219" lon="6.09184">
        <ele>1373</ele>
        <time>2021-12-23T09:03:32Z</time>
      </trkpt>
      <trkpt lat="45.27219" lon="6.09185">
        <ele>1373</ele>
        <time>2021-12-23T09:03:33Z</time>
      </trkpt>
      <trkpt lat="45.27219" lon="6.09186">
        <ele>1373</ele>
        <time>2021-12-23T09:03:34Z</time>
      </trkpt>
      <trkpt lat="45.27219" lon="6.09187">
        <ele>1373</ele>
        <time>2021-12-23T09:03:35Z</time>
      </trkpt>
      <trkpt lat="45.27219" lon="6.09187">
        <ele>1373</ele>
        <time>2021-12-23T09:03:36Z</time>
      </trkpt>
      <trkpt lat="45.27218" lon="6.09188">
        <ele>1374</ele>
        <time>2021-12-23T09:03:37Z</time>
      </trkpt>
      <trkpt lat="45.27218" lon="6.09188">
        <ele>1374</ele>
        <time>2021-12-23T09:03:38Z</time>
      </trkpt>
      <trkpt lat="45.27218" lon="6.09189">
        <ele>1374</ele>
        <time>2021-12-23T09:03:39Z</time>
      </trkpt>
      <trkpt lat="45.27218" lon="6.09189">
        <ele>1374</ele>
        <time>2021-12-23T09:03:40Z</time>
      </trkpt>
      <trkpt lat="45.27217" lon="6.0919">
        <ele>1374</ele>
        <time>2021-12-23T09:03:41Z</time>
      </trkpt>
      <trkpt lat="45.27217" lon="6.0919">
        <ele>1374</ele>
        <time>2021-12-23T09:03:42Z</time>
      </trkpt>
      <trkpt lat="45.27217" lon="6.09191">
        <ele>1374</ele>
        <time>2021-12-23T09:03:43Z</time>
      </trkpt>
      <trkpt lat="45.27216" lon="6.09191">
        <ele>1374</ele>
        <time>2021-12-23T09:03:44Z</time>
      </trkpt>
      <trkpt lat="45.27216" lon="6.09192">
        <ele>1374</ele>
        <time>2021-12-23T09:03:46Z</time>
      </trkpt>
      <trkpt lat="45.27216" lon="6.09192">
        <ele>1374</ele>
        <time>2021-12-23T09:03:48Z</time>
      </trkpt>
      <trkpt lat="45.27216" lon="6.09193">
        <ele>1374</ele>
        <time>2021-12-23T09:03:49Z</time>
      </trkpt>
      <trkpt lat="45.27215" lon="6.09193">
        <ele>1374</ele>
        <time>2021-12-23T09:03:50Z</time>
      </trkpt>
      <trkpt lat="45.27215" lon="6.09194">
        <ele>1374</ele>
        <time>2021-12-23T09:03:52Z</time>
      </trkpt>
      <trkpt lat="45.27215" lon="6.09194">
        <ele>1374</ele>
        <time>2021-12-23T09:03:53Z</time>
      </trkpt>
      <trkpt lat="45.27214" lon="6.09195">
        <ele>1374</ele>
        <time>2021-12-23T09:03:54Z</time>
      </trkpt>
      <trkpt lat="45.27214" lon="6.09196">
        <ele>1374</ele>
        <time>2021-12-23T09:03:55Z</time>
      </trkpt>
      <trkpt lat="45.27214" lon="6.09196">
        <ele>1375</ele>
        <time>2021-12-23T09:03:57Z</time>
      </trkpt>
      <trkpt lat="45.27214" lon="6.09197">
        <ele>1375</ele>
        <time>2021-12-23T09:03:58Z</time>
      </trkpt>
      <trkpt lat="45.27213" lon="6.09197">
        <ele>1376</ele>
        <time>2021-12-23T09:03:59Z</time>
      </trkpt>
      <trkpt lat="45.27213" lon="6.09198">
        <ele>1376</ele>
        <time>2021-12-23T09:04:00Z</time>
      </trkpt>
      <trkpt lat="45.27213" lon="6.09198">
        <ele>1376</ele>
        <time>2021-12-23T09:04:01Z</time>
      </trkpt>
      <trkpt lat="45.27213" lon="6.09198">
        <ele>1377</ele>
        <time>2021-12-23T09:04:03Z</time>
      </trkpt>
      <trkpt lat="45.27213" lon="6.09198">
        <ele>1378</ele>
        <time>2021-12-23T09:04:05Z</time>
      </trkpt>
      <trkpt lat="45.27213" lon="6.09198">
        <ele>1378</ele>
        <time>2021-12-23T09:04:07Z</time>
      </trkpt>
      <trkpt lat="45.27213" lon="6.09198">
        <ele>1378</ele>
        <time>2021-12-23T09:04:08Z</time>
      </trkpt>
      <trkpt lat="45.27213" lon="6.09198">
        <ele>1378</ele>
        <time>2021-12-23T09:04:09Z</time>
      </trkpt>
      <trkpt lat="45.27213" lon="6.09198">
        <ele>1378</ele>
        <time>2021-12-23T09:04:10Z</time>
      </trkpt>
      <trkpt lat="45.27213" lon="6.09198">
        <ele>1378</ele>
        <time>2021-12-23T09:04:11Z</time>
      </trkpt>
      <trkpt lat="45.27213" lon="6.09198">
        <ele>1378</ele>
        <time>2021-12-23T09:04:12Z</time>
      </trkpt>
      <trkpt lat="45.27213" lon="6.09198">
        <ele>1379</ele>
        <time>2021-12-23T09:04:13Z</time>
      </trkpt>
      <trkpt lat="45.27213" lon="6.09198">
        <ele>1380</ele>
        <time>2021-12-23T09:04:14Z</time>
      </trkpt>
      <trkpt lat="45.27213" lon="6.09198">
        <ele>1380</ele>
        <time>2021-12-23T09:04:15Z</time>
      </trkpt>
      <trkpt lat="45.27213" lon="6.09198">
        <ele>1380</ele>
        <time>2021-12-23T09:04:16Z</time>
      </trkpt>
      <trkpt lat="45.27219" lon="6.09206">
        <ele>1380</ele>
        <time>2021-12-23T09:04:17Z</time>
      </trkpt>
      <trkpt lat="45.27219" lon="6.09206">
        <ele>1381</ele>
        <time>2021-12-23T09:04:19Z</time>
      </trkpt>
      <trkpt lat="45.27219" lon="6.09206">
        <ele>1381</ele>
        <time>2021-12-23T09:04:20Z</time>
      </trkpt>
      <trkpt lat="45.27219" lon="6.09206">
        <ele>1382</ele>
        <time>2021-12-23T09:04:21Z</time>
      </trkpt>
      <trkpt lat="45.27219" lon="6.09206">
        <ele>1382</ele>
        <time>2021-12-23T09:04:22Z</time>
      </trkpt>
      <trkpt lat="45.27219" lon="6.09206">
        <ele>1382</ele>
        <time>2021-12-23T09:04:23Z</time>
      </trkpt>
      <trkpt lat="45.27215" lon="6.09218">
        <ele>1382</ele>
        <time>2021-12-23T09:04:24Z</time>
      </trkpt>
      <trkpt lat="45.27215" lon="6.09218">
        <ele>1382</ele>
        <time>2021-12-23T09:04:26Z</time>
      </trkpt>
      <trkpt lat="45.27215" lon="6.09219">
        <ele>1382</ele>
        <time>2021-12-23T09:04:27Z</time>
      </trkpt>
      <trkpt lat="45.27214" lon="6.0922">
        <ele>1382</ele>
        <time>2021-12-23T09:04:28Z</time>
      </trkpt>
      <trkpt lat="45.27214" lon="6.09221">
        <ele>1383</ele>
        <time>2021-12-23T09:04:29Z</time>
      </trkpt>
      <trkpt lat="45.27213" lon="6.09222">
        <ele>1383</ele>
        <time>2021-12-23T09:04:31Z</time>
      </trkpt>
      <trkpt lat="45.27213" lon="6.09223">
        <ele>1383</ele>
        <time>2021-12-23T09:04:32Z</time>
      </trkpt>
      <trkpt lat="45.27212" lon="6.09224">
        <ele>1383</ele>
        <time>2021-12-23T09:04:33Z</time>
      </trkpt>
      <trkpt lat="45.27212" lon="6.09226">
        <ele>1383</ele>
        <time>2021-12-23T09:04:34Z</time>
      </trkpt>
      <trkpt lat="45.27211" lon="6.09227">
        <ele>1384</ele>
        <time>2021-12-23T09:04:36Z</time>
      </trkpt>
      <trkpt lat="45.2721" lon="6.09228">
        <ele>1384</ele>
        <time>2021-12-23T09:04:37Z</time>
      </trkpt>
      <trkpt lat="45.2721" lon="6.09229">
        <ele>1384</ele>
        <time>2021-12-23T09:04:38Z</time>
      </trkpt>
      <trkpt lat="45.2721" lon="6.09229">
        <ele>1384</ele>
        <time>2021-12-23T09:04:39Z</time>
      </trkpt>
      <trkpt lat="45.2721" lon="6.09229">
        <ele>1385</ele>
        <time>2021-12-23T09:04:41Z</time>
      </trkpt>
      <trkpt lat="45.2721" lon="6.09229">
        <ele>1385</ele>
        <time>2021-12-23T09:04:42Z</time>
      </trkpt>
      <trkpt lat="45.2721" lon="6.09229">
        <ele>1385</ele>
        <time>2021-12-23T09:04:43Z</time>
      </trkpt>
      <trkpt lat="45.2721" lon="6.09229">
        <ele>1385</ele>
        <time>2021-12-23T09:04:45Z</time>
      </trkpt>
      <trkpt lat="45.2721" lon="6.09229">
        <ele>1385</ele>
        <time>2021-12-23T09:04:47Z</time>
      </trkpt>
      <trkpt lat="45.2721" lon="6.09229">
        <ele>1386</ele>
        <time>2021-12-23T09:04:48Z</time>
      </trkpt>
      <trkpt lat="45.2721" lon="6.09229">
        <ele>1386</ele>
        <time>2021-12-23T09:04:49Z</time>
      </trkpt>
      <trkpt lat="45.2721" lon="6.09229">
        <ele>1387</ele>
        <time>2021-12-23T09:04:50Z</time>
      </trkpt>
      <trkpt lat="45.27211" lon="6.09241">
        <ele>1387</ele>
        <time>2021-12-23T09:04:51Z</time>
      </trkpt>
      <trkpt lat="45.27211" lon="6.09241">
        <ele>1387</ele>
        <time>2021-12-23T09:04:53Z</time>
      </trkpt>
      <trkpt lat="45.27212" lon="6.09245">
        <ele>1387</ele>
        <time>2021-12-23T09:04:54Z</time>
      </trkpt>
      <trkpt lat="45.27213" lon="6.09249">
        <ele>1387</ele>
        <time>2021-12-23T09:04:56Z</time>
      </trkpt>
      <trkpt lat="45.27214" lon="6.09253">
        <ele>1388</ele>
        <time>2021-12-23T09:04:57Z</time>
      </trkpt>
      <trkpt lat="45.27213" lon="6.09254">
        <ele>1388</ele>
        <time>2021-12-23T09:04:58Z</time>
      </trkpt>
      <trkpt lat="45.27213" lon="6.09255">
        <ele>1388</ele>
        <time>2021-12-23T09:04:59Z</time>
      </trkpt>
      <trkpt lat="45.27212" lon="6.09256">
        <ele>1388</ele>
        <time>2021-12-23T09:05:00Z</time>
      </trkpt>
      <trkpt lat="45.27211" lon="6.09257">
        <ele>1388</ele>
        <time>2021-12-23T09:05:01Z</time>
      </trkpt>
      <trkpt lat="45.27211" lon="6.09257">
        <ele>1388</ele>
        <time>2021-12-23T09:05:02Z</time>
      </trkpt>
      <trkpt lat="45.2721" lon="6.09258">
        <ele>1388</ele>
        <time>2021-12-23T09:05:04Z</time>
      </trkpt>
      <trkpt lat="45.2721" lon="6.09259">
        <ele>1388</ele>
        <time>2021-12-23T09:05:05Z</time>
      </trkpt>
      <trkpt lat="45.27209" lon="6.0926">
        <ele>1388</ele>
        <time>2021-12-23T09:05:06Z</time>
      </trkpt>
      <trkpt lat="45.27208" lon="6.0926">
        <ele>1388</ele>
        <time>2021-12-23T09:05:07Z</time>
      </trkpt>
      <trkpt lat="45.27208" lon="6.09261">
        <ele>1388</ele>
        <time>2021-12-23T09:05:08Z</time>
      </trkpt>
      <trkpt lat="45.27207" lon="6.09262">
        <ele>1388</ele>
        <time>2021-12-23T09:05:09Z</time>
      </trkpt>
      <trkpt lat="45.27207" lon="6.09262">
        <ele>1388</ele>
        <time>2021-12-23T09:05:10Z</time>
      </trkpt>
      <trkpt lat="45.27207" lon="6.09263">
        <ele>1389</ele>
        <time>2021-12-23T09:05:11Z</time>
      </trkpt>
      <trkpt lat="45.27206" lon="6.09263">
        <ele>1390</ele>
        <time>2021-12-23T09:05:13Z</time>
      </trkpt>
      <trkpt lat="45.27206" lon="6.09263">
        <ele>1390</ele>
        <time>2021-12-23T09:05:15Z</time>
      </trkpt>
      <trkpt lat="45.27206" lon="6.09263">
        <ele>1391</ele>
        <time>2021-12-23T09:05:16Z</time>
      </trkpt>
      <trkpt lat="45.27205" lon="6.09264">
        <ele>1391</ele>
        <time>2021-12-23T09:05:17Z</time>
      </trkpt>
      <trkpt lat="45.27205" lon="6.09264">
        <ele>1391</ele>
        <time>2021-12-23T09:05:18Z</time>
      </trkpt>
      <trkpt lat="45.27205" lon="6.09264">
        <ele>1392</ele>
        <time>2021-12-23T09:05:19Z</time>
      </trkpt>
      <trkpt lat="45.27204" lon="6.09264">
        <ele>1392</ele>
        <time>2021-12-23T09:05:20Z</time>
      </trkpt>
      <trkpt lat="45.27204" lon="6.09264">
        <ele>1392</ele>
        <time>2021-12-23T09:05:21Z</time>
      </trkpt>
      <trkpt lat="45.27197" lon="6.09271">
        <ele>1392</ele>
        <time>2021-12-23T09:05:23Z</time>
      </trkpt>
      <trkpt lat="45.27197" lon="6.09273">
        <ele>1392</ele>
        <time>2021-12-23T09:05:24Z</time>
      </trkpt>
      <trkpt lat="45.27196" lon="6.09274">
        <ele>1392</ele>
        <time>2021-12-23T09:05:25Z</time>
      </trkpt>
      <trkpt lat="45.27195" lon="6.09276">
        <ele>1393</ele>
        <time>2021-12-23T09:05:27Z</time>
      </trkpt>
      <trkpt lat="45.27195" lon="6.09277">
        <ele>1393</ele>
        <time>2021-12-23T09:05:28Z</time>
      </trkpt>
      <trkpt lat="45.27194" lon="6.09279">
        <ele>1393</ele>
        <time>2021-12-23T09:05:29Z</time>
      </trkpt>
      <trkpt lat="45.27193" lon="6.09281">
        <ele>1393</ele>
        <time>2021-12-23T09:05:30Z</time>
      </trkpt>
      <trkpt lat="45.27194" lon="6.09282">
        <ele>1393</ele>
        <time>2021-12-23T09:05:31Z</time>
      </trkpt>
      <trkpt lat="45.27194" lon="6.09283">
        <ele>1393</ele>
        <time>2021-12-23T09:05:33Z</time>
      </trkpt>
      <trkpt lat="45.27195" lon="6.09283">
        <ele>1394</ele>
        <time>2021-12-23T09:05:34Z</time>
      </trkpt>
      <trkpt lat="45.27196" lon="6.09284">
        <ele>1394</ele>
        <time>2021-12-23T09:05:35Z</time>
      </trkpt>
      <trkpt lat="45.27196" lon="6.09285">
        <ele>1394</ele>
        <time>2021-12-23T09:05:36Z</time>
      </trkpt>
      <trkpt lat="45.27197" lon="6.09286">
        <ele>1395</ele>
        <time>2021-12-23T09:05:37Z</time>
      </trkpt>
      <trkpt lat="45.27197" lon="6.09287">
        <ele>1395</ele>
        <time>2021-12-23T09:05:38Z</time>
      </trkpt>
      <trkpt lat="45.27198" lon="6.09288">
        <ele>1395</ele>
        <time>2021-12-23T09:05:39Z</time>
      </trkpt>
      <trkpt lat="45.27199" lon="6.09289">
        <ele>1395</ele>
        <time>2021-12-23T09:05:41Z</time>
      </trkpt>
      <trkpt lat="45.27199" lon="6.0929">
        <ele>1395</ele>
        <time>2021-12-23T09:05:42Z</time>
      </trkpt>
      <trkpt lat="45.272" lon="6.09291">
        <ele>1395</ele>
        <time>2021-12-23T09:05:43Z</time>
      </trkpt>
      <trkpt lat="45.27201" lon="6.09292">
        <ele>1395</ele>
        <time>2021-12-23T09:05:44Z</time>
      </trkpt>
      <trkpt lat="45.27201" lon="6.09292">
        <ele>1395</ele>
        <time>2021-12-23T09:05:46Z</time>
      </trkpt>
      <trkpt lat="45.27201" lon="6.09291">
        <ele>1395</ele>
        <time>2021-12-23T09:05:47Z</time>
      </trkpt>
      <trkpt lat="45.27201" lon="6.09291">
        <ele>1395</ele>
        <time>2021-12-23T09:05:48Z</time>
      </trkpt>
      <trkpt lat="45.27201" lon="6.09291">
        <ele>1395</ele>
        <time>2021-12-23T09:05:49Z</time>
      </trkpt>
      <trkpt lat="45.27201" lon="6.09291">
        <ele>1395</ele>
        <time>2021-12-23T09:05:50Z</time>
      </trkpt>
      <trkpt lat="45.27202" lon="6.09291">
        <ele>1395</ele>
        <time>2021-12-23T09:05:51Z</time>
      </trkpt>
      <trkpt lat="45.27202" lon="6.09291">
        <ele>1395</ele>
        <time>2021-12-23T09:05:52Z</time>
      </trkpt>
      <trkpt lat="45.27202" lon="6.0929">
        <ele>1395</ele>
        <time>2021-12-23T09:05:53Z</time>
      </trkpt>
      <trkpt lat="45.27202" lon="6.0929">
        <ele>1395</ele>
        <time>2021-12-23T09:05:54Z</time>
      </trkpt>
      <trkpt lat="45.27202" lon="6.0929">
        <ele>1395</ele>
        <time>2021-12-23T09:05:55Z</time>
      </trkpt>
      <trkpt lat="45.27202" lon="6.0929">
        <ele>1395</ele>
        <time>2021-12-23T09:05:56Z</time>
      </trkpt>
      <trkpt lat="45.27203" lon="6.0929">
        <ele>1395</ele>
        <time>2021-12-23T09:05:57Z</time>
      </trkpt>
      <trkpt lat="45.27203" lon="6.09289">
        <ele>1395</ele>
        <time>2021-12-23T09:05:59Z</time>
      </trkpt>
      <trkpt lat="45.27203" lon="6.09289">
        <ele>1395</ele>
        <time>2021-12-23T09:06:01Z</time>
      </trkpt>
      <trkpt lat="45.27203" lon="6.09289">
        <ele>1395</ele>
        <time>2021-12-23T09:06:02Z</time>
      </trkpt>
      <trkpt lat="45.27203" lon="6.09289">
        <ele>1395</ele>
        <time>2021-12-23T09:06:03Z</time>
      </trkpt>
      <trkpt lat="45.27203" lon="6.09289">
        <ele>1395</ele>
        <time>2021-12-23T09:06:04Z</time>
      </trkpt>
      <trkpt lat="45.27204" lon="6.09289">
        <ele>1395</ele>
        <time>2021-12-23T09:06:05Z</time>
      </trkpt>
      <trkpt lat="45.27204" lon="6.09288">
        <ele>1395</ele>
        <time>2021-12-23T09:06:06Z</time>
      </trkpt>
      <trkpt lat="45.27204" lon="6.09288">
        <ele>1395</ele>
        <time>2021-12-23T09:06:07Z</time>
      </trkpt>
      <trkpt lat="45.27204" lon="6.09288">
        <ele>1395</ele>
        <time>2021-12-23T09:06:09Z</time>
      </trkpt>
      <trkpt lat="45.27204" lon="6.09288">
        <ele>1396</ele>
        <time>2021-12-23T09:06:10Z</time>
      </trkpt>
      <trkpt lat="45.27204" lon="6.09288">
        <ele>1396</ele>
        <time>2021-12-23T09:06:11Z</time>
      </trkpt>
      <trkpt lat="45.27205" lon="6.09288">
        <ele>1396</ele>
        <time>2021-12-23T09:06:12Z</time>
      </trkpt>
      <trkpt lat="45.27205" lon="6.09287">
        <ele>1396</ele>
        <time>2021-12-23T09:06:13Z</time>
      </trkpt>
      <trkpt lat="45.27205" lon="6.09287">
        <ele>1397</ele>
        <time>2021-12-23T09:06:14Z</time>
      </trkpt>
      <trkpt lat="45.27205" lon="6.09287">
        <ele>1397</ele>
        <time>2021-12-23T09:06:16Z</time>
      </trkpt>
      <trkpt lat="45.27205" lon="6.09287">
        <ele>1397</ele>
        <time>2021-12-23T09:06:17Z</time>
      </trkpt>
      <trkpt lat="45.27205" lon="6.09287">
        <ele>1397</ele>
        <time>2021-12-23T09:06:18Z</time>
      </trkpt>
      <trkpt lat="45.27206" lon="6.09287">
        <ele>1397</ele>
        <time>2021-12-23T09:06:20Z</time>
      </trkpt>
      <trkpt lat="45.27206" lon="6.09286">
        <ele>1397</ele>
        <time>2021-12-23T09:06:22Z</time>
      </trkpt>
      <trkpt lat="45.27206" lon="6.09286">
        <ele>1398</ele>
        <time>2021-12-23T09:06:23Z</time>
      </trkpt>
      <trkpt lat="45.27206" lon="6.09286">
        <ele>1398</ele>
        <time>2021-12-23T09:06:25Z</time>
      </trkpt>
      <trkpt lat="45.27206" lon="6.09286">
        <ele>1398</ele>
        <time>2021-12-23T09:06:26Z</time>
      </trkpt>
      <trkpt lat="45.27206" lon="6.09286">
        <ele>1398</ele>
        <time>2021-12-23T09:06:27Z</time>
      </trkpt>
      <trkpt lat="45.27207" lon="6.09285">
        <ele>1398</ele>
        <time>2021-12-23T09:06:28Z</time>
      </trkpt>
      <trkpt lat="45.27207" lon="6.09285">
        <ele>1398</ele>
        <time>2021-12-23T09:06:29Z</time>
      </trkpt>
      <trkpt lat="45.27207" lon="6.09285">
        <ele>1398</ele>
        <time>2021-12-23T09:06:30Z</time>
      </trkpt>
      <trkpt lat="45.27207" lon="6.09285">
        <ele>1399</ele>
        <time>2021-12-23T09:06:31Z</time>
      </trkpt>
      <trkpt lat="45.27207" lon="6.09285">
        <ele>1399</ele>
        <time>2021-12-23T09:06:32Z</time>
      </trkpt>
      <trkpt lat="45.27207" lon="6.09285">
        <ele>1399</ele>
        <time>2021-12-23T09:06:33Z</time>
      </trkpt>
      <trkpt lat="45.27208" lon="6.09286">
        <ele>1401</ele>
        <time>2021-12-23T09:06:35Z</time>
      </trkpt>
      <trkpt lat="45.27208" lon="6.09287">
        <ele>1401</ele>
        <time>2021-12-23T09:06:37Z</time>
      </trkpt>
      <trkpt lat="45.27208" lon="6.09288">
        <ele>1401</ele>
        <time>2021-12-23T09:06:39Z</time>
      </trkpt>
      <trkpt lat="45.27209" lon="6.09289">
        <ele>1401</ele>
        <time>2021-12-23T09:06:40Z</time>
      </trkpt>
      <trkpt lat="45.27209" lon="6.0929">
        <ele>1402</ele>
        <time>2021-12-23T09:06:42Z</time>
      </trkpt>
      <trkpt lat="45.27209" lon="6.09291">
        <ele>1402</ele>
        <time>2021-12-23T09:06:43Z</time>
      </trkpt>
      <trkpt lat="45.27209" lon="6.09292">
        <ele>1402</ele>
        <time>2021-12-23T09:06:44Z</time>
      </trkpt>
      <trkpt lat="45.2721" lon="6.09294">
        <ele>1402</ele>
        <time>2021-12-23T09:06:45Z</time>
      </trkpt>
      <trkpt lat="45.2721" lon="6.09295">
        <ele>1402</ele>
        <time>2021-12-23T09:06:46Z</time>
      </trkpt>
      <trkpt lat="45.2721" lon="6.09296">
        <ele>1403</ele>
        <time>2021-12-23T09:06:48Z</time>
      </trkpt>
      <trkpt lat="45.27211" lon="6.09297">
        <ele>1403</ele>
        <time>2021-12-23T09:06:49Z</time>
      </trkpt>
      <trkpt lat="45.27211" lon="6.09298">
        <ele>1403</ele>
        <time>2021-12-23T09:06:50Z</time>
      </trkpt>
      <trkpt lat="45.27211" lon="6.09299">
        <ele>1403</ele>
        <time>2021-12-23T09:06:51Z</time>
      </trkpt>
      <trkpt lat="45.27211" lon="6.09301">
        <ele>1403</ele>
        <time>2021-12-23T09:06:52Z</time>
      </trkpt>
      <trkpt lat="45.2721" lon="6.09303">
        <ele>1403</ele>
        <time>2021-12-23T09:06:53Z</time>
      </trkpt>
      <trkpt lat="45.2721" lon="6.09304">
        <ele>1403</ele>
        <time>2021-12-23T09:06:55Z</time>
      </trkpt>
      <trkpt lat="45.2721" lon="6.09306">
        <ele>1403</ele>
        <time>2021-12-23T09:06:56Z</time>
      </trkpt>
      <trkpt lat="45.27209" lon="6.09308">
        <ele>1404</ele>
        <time>2021-12-23T09:06:58Z</time>
      </trkpt>
      <trkpt lat="45.27209" lon="6.09309">
        <ele>1404</ele>
        <time>2021-12-23T09:06:59Z</time>
      </trkpt>
      <trkpt lat="45.27208" lon="6.09311">
        <ele>1404</ele>
        <time>2021-12-23T09:07:00Z</time>
      </trkpt>
      <trkpt lat="45.27208" lon="6.09313">
        <ele>1405</ele>
        <time>2021-12-23T09:07:01Z</time>
      </trkpt>
      <trkpt lat="45.27208" lon="6.09314">
        <ele>1405</ele>
        <time>2021-12-23T09:07:03Z</time>
      </trkpt>
      <trkpt lat="45.27208" lon="6.09316">
        <ele>1405</ele>
        <time>2021-12-23T09:07:04Z</time>
      </trkpt>
      <trkpt lat="45.27207" lon="6.09317">
        <ele>1406</ele>
        <time>2021-12-23T09:07:05Z</time>
      </trkpt>
      <trkpt lat="45.27207" lon="6.09319">
        <ele>1406</ele>
        <time>2021-12-23T09:07:06Z</time>
      </trkpt>
      <trkpt lat="45.27207" lon="6.0932">
        <ele>1406</ele>
        <time>2021-12-23T09:07:07Z</time>
      </trkpt>
      <trkpt lat="45.27207" lon="6.09322">
        <ele>1406</ele>
        <time>2021-12-23T09:07:08Z</time>
      </trkpt>
      <trkpt lat="45.27206" lon="6.09323">
        <ele>1406</ele>
        <time>2021-12-23T09:07:09Z</time>
      </trkpt>
      <trkpt lat="45.27206" lon="6.09325">
        <ele>1406</ele>
        <time>2021-12-23T09:07:10Z</time>
      </trkpt>
      <trkpt lat="45.27206" lon="6.09326">
        <ele>1406</ele>
        <time>2021-12-23T09:07:11Z</time>
      </trkpt>
      <trkpt lat="45.27206" lon="6.09328">
        <ele>1407</ele>
        <time>2021-12-23T09:07:13Z</time>
      </trkpt>
      <trkpt lat="45.27205" lon="6.09329">
        <ele>1407</ele>
        <time>2021-12-23T09:07:14Z</time>
      </trkpt>
      <trkpt lat="45.27205" lon="6.09331">
        <ele>1407</ele>
        <time>2021-12-23T09:07:15Z</time>
      </trkpt>
      <trkpt lat="45.27205" lon="6.09332">
        <ele>1407</ele>
        <time>2021-12-23T09:07:16Z</time>
      </trkpt>
      <trkpt lat="45.27204" lon="6.09335">
        <ele>1407</ele>
        <time>2021-12-23T09:07:17Z</time>
      </trkpt>
      <trkpt lat="45.27203" lon="6.09338">
        <ele>1407</ele>
        <time>2021-12-23T09:07:18Z</time>
      </trkpt>
      <trkpt lat="45.27202" lon="6.09341">
        <ele>1407</ele>
        <time>2021-12-23T09:07:19Z</time>
      </trkpt>
      <trkpt lat="45.27201" lon="6.09343">
        <ele>1407</ele>
        <time>2021-12-23T09:07:20Z</time>
      </trkpt>
      <trkpt lat="45.272" lon="6.09346">
        <ele>1406</ele>
        <time>2021-12-23T09:07:21Z</time>
      </trkpt>
      <trkpt lat="45.27199" lon="6.09349">
        <ele>1406</ele>
        <time>2021-12-23T09:07:22Z</time>
      </trkpt>
      <trkpt lat="45.27198" lon="6.09351">
        <ele>1406</ele>
        <time>2021-12-23T09:07:23Z</time>
      </trkpt>
      <trkpt lat="45.27198" lon="6.09351">
        <ele>1406</ele>
        <time>2021-12-23T09:07:24Z</time>
      </trkpt>
      <trkpt lat="45.27198" lon="6.09351">
        <ele>1406</ele>
        <time>2021-12-23T09:07:25Z</time>
      </trkpt>
      <trkpt lat="45.27198" lon="6.09351">
        <ele>1406</ele>
        <time>2021-12-23T09:07:26Z</time>
      </trkpt>
      <trkpt lat="45.27198" lon="6.09351">
        <ele>1406</ele>
        <time>2021-12-23T09:07:27Z</time>
      </trkpt>
      <trkpt lat="45.27198" lon="6.09351">
        <ele>1405</ele>
        <time>2021-12-23T09:07:28Z</time>
      </trkpt>
      <trkpt lat="45.27198" lon="6.09351">
        <ele>1405</ele>
        <time>2021-12-23T09:07:29Z</time>
      </trkpt>
      <trkpt lat="45.27198" lon="6.09351">
        <ele>1405</ele>
        <time>2021-12-23T09:07:30Z</time>
      </trkpt>
      <trkpt lat="45.27198" lon="6.09351">
        <ele>1405</ele>
        <time>2021-12-23T09:07:31Z</time>
      </trkpt>
      <trkpt lat="45.27198" lon="6.09351">
        <ele>1405</ele>
        <time>2021-12-23T09:07:32Z</time>
      </trkpt>
      <trkpt lat="45.27198" lon="6.09351">
        <ele>1405</ele>
        <time>2021-12-23T09:07:33Z</time>
      </trkpt>
      <trkpt lat="45.27192" lon="6.09362">
        <ele>1404</ele>
        <time>2021-12-23T09:07:34Z</time>
      </trkpt>
      <trkpt lat="45.27192" lon="6.09362">
        <ele>1404</ele>
        <time>2021-12-23T09:07:36Z</time>
      </trkpt>
      <trkpt lat="45.27192" lon="6.09362">
        <ele>1404</ele>
        <time>2021-12-23T09:07:37Z</time>
      </trkpt>
      <trkpt lat="45.27192" lon="6.09362">
        <ele>1404</ele>
        <time>2021-12-23T09:07:38Z</time>
      </trkpt>
      <trkpt lat="45.27192" lon="6.09362">
        <ele>1404</ele>
        <time>2021-12-23T09:07:39Z</time>
      </trkpt>
      <trkpt lat="45.27192" lon="6.09362">
        <ele>1404</ele>
        <time>2021-12-23T09:07:40Z</time>
      </trkpt>
      <trkpt lat="45.27192" lon="6.09362">
        <ele>1404</ele>
        <time>2021-12-23T09:07:41Z</time>
      </trkpt>
      <trkpt lat="45.27192" lon="6.09362">
        <ele>1404</ele>
        <time>2021-12-23T09:07:42Z</time>
      </trkpt>
      <trkpt lat="45.27192" lon="6.09362">
        <ele>1404</ele>
        <time>2021-12-23T09:07:43Z</time>
      </trkpt>
      <trkpt lat="45.27192" lon="6.09362">
        <ele>1404</ele>
        <time>2021-12-23T09:07:44Z</time>
      </trkpt>
      <trkpt lat="45.27192" lon="6.09362">
        <ele>1405</ele>
        <time>2021-12-23T09:07:45Z</time>
      </trkpt>
      <trkpt lat="45.27193" lon="6.09375">
        <ele>1405</ele>
        <time>2021-12-23T09:07:46Z</time>
      </trkpt>
      <trkpt lat="45.27193" lon="6.09375">
        <ele>1405</ele>
        <time>2021-12-23T09:07:48Z</time>
      </trkpt>
      <trkpt lat="45.27193" lon="6.09375">
        <ele>1406</ele>
        <time>2021-12-23T09:07:49Z</time>
      </trkpt>
      <trkpt lat="45.27193" lon="6.09375">
        <ele>1406</ele>
        <time>2021-12-23T09:07:50Z</time>
      </trkpt>
      <trkpt lat="45.27193" lon="6.09375">
        <ele>1406</ele>
        <time>2021-12-23T09:07:51Z</time>
      </trkpt>
      <trkpt lat="45.27193" lon="6.09375">
        <ele>1406</ele>
        <time>2021-12-23T09:07:52Z</time>
      </trkpt>
      <trkpt lat="45.27193" lon="6.09375">
        <ele>1406</ele>
        <time>2021-12-23T09:07:53Z</time>
      </trkpt>
      <trkpt lat="45.27189" lon="6.09388">
        <ele>1406</ele>
        <time>2021-12-23T09:07:55Z</time>
      </trkpt>
      <trkpt lat="45.27189" lon="6.09388">
        <ele>1406</ele>
        <time>2021-12-23T09:07:56Z</time>
      </trkpt>
      <trkpt lat="45.27189" lon="6.09388">
        <ele>1406</ele>
        <time>2021-12-23T09:07:57Z</time>
      </trkpt>
      <trkpt lat="45.27189" lon="6.09388">
        <ele>1406</ele>
        <time>2021-12-23T09:07:58Z</time>
      </trkpt>
      <trkpt lat="45.27189" lon="6.09388">
        <ele>1406</ele>
        <time>2021-12-23T09:08:00Z</time>
      </trkpt>
      <trkpt lat="45.27189" lon="6.09388">
        <ele>1406</ele>
        <time>2021-12-23T09:08:01Z</time>
      </trkpt>
      <trkpt lat="45.27189" lon="6.09388">
        <ele>1406</ele>
        <time>2021-12-23T09:08:02Z</time>
      </trkpt>
      <trkpt lat="45.27185" lon="6.09403">
        <ele>1406</ele>
        <time>2021-12-23T09:08:03Z</time>
      </trkpt>
      <trkpt lat="45.27185" lon="6.09403">
        <ele>1407</ele>
        <time>2021-12-23T09:08:05Z</time>
      </trkpt>
      <trkpt lat="45.27185" lon="6.09405">
        <ele>1407</ele>
        <time>2021-12-23T09:08:06Z</time>
      </trkpt>
      <trkpt lat="45.27185" lon="6.09407">
        <ele>1407</ele>
        <time>2021-12-23T09:08:07Z</time>
      </trkpt>
      <trkpt lat="45.27185" lon="6.09408">
        <ele>1407</ele>
        <time>2021-12-23T09:08:08Z</time>
      </trkpt>
      <trkpt lat="45.27184" lon="6.0941">
        <ele>1407</ele>
        <time>2021-12-23T09:08:09Z</time>
      </trkpt>
      <trkpt lat="45.27184" lon="6.09412">
        <ele>1407</ele>
        <time>2021-12-23T09:08:10Z</time>
      </trkpt>
      <trkpt lat="45.27184" lon="6.09414">
        <ele>1407</ele>
        <time>2021-12-23T09:08:11Z</time>
      </trkpt>
      <trkpt lat="45.27184" lon="6.09416">
        <ele>1408</ele>
        <time>2021-12-23T09:08:12Z</time>
      </trkpt>
      <trkpt lat="45.27184" lon="6.09416">
        <ele>1409</ele>
        <time>2021-12-23T09:08:14Z</time>
      </trkpt>
      <trkpt lat="45.27183" lon="6.09417">
        <ele>1409</ele>
        <time>2021-12-23T09:08:15Z</time>
      </trkpt>
      <trkpt lat="45.27183" lon="6.09418">
        <ele>1409</ele>
        <time>2021-12-23T09:08:16Z</time>
      </trkpt>
      <trkpt lat="45.27183" lon="6.09419">
        <ele>1409</ele>
        <time>2021-12-23T09:08:17Z</time>
      </trkpt>
      <trkpt lat="45.27183" lon="6.0942">
        <ele>1409</ele>
        <time>2021-12-23T09:08:18Z</time>
      </trkpt>
      <trkpt lat="45.27182" lon="6.09421">
        <ele>1409</ele>
        <time>2021-12-23T09:08:19Z</time>
      </trkpt>
      <trkpt lat="45.27182" lon="6.09422">
        <ele>1409</ele>
        <time>2021-12-23T09:08:20Z</time>
      </trkpt>
      <trkpt lat="45.27182" lon="6.09423">
        <ele>1409</ele>
        <time>2021-12-23T09:08:21Z</time>
      </trkpt>
      <trkpt lat="45.27182" lon="6.09424">
        <ele>1409</ele>
        <time>2021-12-23T09:08:22Z</time>
      </trkpt>
      <trkpt lat="45.27181" lon="6.09425">
        <ele>1410</ele>
        <time>2021-12-23T09:08:23Z</time>
      </trkpt>
      <trkpt lat="45.27181" lon="6.09426">
        <ele>1410</ele>
        <time>2021-12-23T09:08:24Z</time>
      </trkpt>
      <trkpt lat="45.27181" lon="6.09427">
        <ele>1411</ele>
        <time>2021-12-23T09:08:25Z</time>
      </trkpt>
      <trkpt lat="45.2718" lon="6.09429">
        <ele>1411</ele>
        <time>2021-12-23T09:08:26Z</time>
      </trkpt>
      <trkpt lat="45.2718" lon="6.09431">
        <ele>1411</ele>
        <time>2021-12-23T09:08:27Z</time>
      </trkpt>
      <trkpt lat="45.27179" lon="6.09432">
        <ele>1411</ele>
        <time>2021-12-23T09:08:28Z</time>
      </trkpt>
      <trkpt lat="45.27179" lon="6.09434">
        <ele>1411</ele>
        <time>2021-12-23T09:08:29Z</time>
      </trkpt>
      <trkpt lat="45.27178" lon="6.09436">
        <ele>1411</ele>
        <time>2021-12-23T09:08:30Z</time>
      </trkpt>
      <trkpt lat="45.27178" lon="6.09438">
        <ele>1411</ele>
        <time>2021-12-23T09:08:32Z</time>
      </trkpt>
      <trkpt lat="45.27177" lon="6.0944">
        <ele>1412</ele>
        <time>2021-12-23T09:08:33Z</time>
      </trkpt>
      <trkpt lat="45.27177" lon="6.09441">
        <ele>1412</ele>
        <time>2021-12-23T09:08:34Z</time>
      </trkpt>
      <trkpt lat="45.27176" lon="6.09443">
        <ele>1412</ele>
        <time>2021-12-23T09:08:35Z</time>
      </trkpt>
      <trkpt lat="45.27176" lon="6.09445">
        <ele>1412</ele>
        <time>2021-12-23T09:08:36Z</time>
      </trkpt>
      <trkpt lat="45.2717" lon="6.09446">
        <ele>1412</ele>
        <time>2021-12-23T09:08:37Z</time>
      </trkpt>
      <trkpt lat="45.2717" lon="6.09446">
        <ele>1412</ele>
        <time>2021-12-23T09:08:38Z</time>
      </trkpt>
      <trkpt lat="45.2717" lon="6.09446">
        <ele>1412</ele>
        <time>2021-12-23T09:08:39Z</time>
      </trkpt>
      <trkpt lat="45.2717" lon="6.09446">
        <ele>1412</ele>
        <time>2021-12-23T09:08:40Z</time>
      </trkpt>
      <trkpt lat="45.2717" lon="6.09446">
        <ele>1412</ele>
        <time>2021-12-23T09:08:41Z</time>
      </trkpt>
      <trkpt lat="45.2717" lon="6.09446">
        <ele>1412</ele>
        <time>2021-12-23T09:08:42Z</time>
      </trkpt>
      <trkpt lat="45.2717" lon="6.09446">
        <ele>1412</ele>
        <time>2021-12-23T09:08:43Z</time>
      </trkpt>
      <trkpt lat="45.2717" lon="6.09446">
        <ele>1412</ele>
        <time>2021-12-23T09:08:45Z</time>
      </trkpt>
      <trkpt lat="45.2717" lon="6.09446">
        <ele>1412</ele>
        <time>2021-12-23T09:08:46Z</time>
      </trkpt>
      <trkpt lat="45.2717" lon="6.09446">
        <ele>1412</ele>
        <time>2021-12-23T09:08:47Z</time>
      </trkpt>
      <trkpt lat="45.2717" lon="6.09446">
        <ele>1412</ele>
        <time>2021-12-23T09:08:48Z</time>
      </trkpt>
      <trkpt lat="45.2717" lon="6.09446">
        <ele>1413</ele>
        <time>2021-12-23T09:08:49Z</time>
      </trkpt>
      <trkpt lat="45.2717" lon="6.09446">
        <ele>1413</ele>
        <time>2021-12-23T09:08:51Z</time>
      </trkpt>
      <trkpt lat="45.2717" lon="6.09446">
        <ele>1413</ele>
        <time>2021-12-23T09:08:52Z</time>
      </trkpt>
      <trkpt lat="45.2717" lon="6.09446">
        <ele>1413</ele>
        <time>2021-12-23T09:08:53Z</time>
      </trkpt>
      <trkpt lat="45.2717" lon="6.09446">
        <ele>1413</ele>
        <time>2021-12-23T09:08:54Z</time>
      </trkpt>
      <trkpt lat="45.27171" lon="6.09467">
        <ele>1413</ele>
        <time>2021-12-23T09:08:55Z</time>
      </trkpt>
      <trkpt lat="45.27171" lon="6.09467">
        <ele>1414</ele>
        <time>2021-12-23T09:08:57Z</time>
      </trkpt>
      <trkpt lat="45.27171" lon="6.09467">
        <ele>1414</ele>
        <time>2021-12-23T09:08:59Z</time>
      </trkpt>
      <trkpt lat="45.27171" lon="6.09467">
        <ele>1414</ele>
        <time>2021-12-23T09:09:00Z</time>
      </trkpt>
      <trkpt lat="45.27171" lon="6.09467">
        <ele>1415</ele>
        <time>2021-12-23T09:09:01Z</time>
      </trkpt>
      <trkpt lat="45.27171" lon="6.09467">
        <ele>1415</ele>
        <time>2021-12-23T09:09:02Z</time>
      </trkpt>
      <trkpt lat="45.27171" lon="6.09467">
        <ele>1415</ele>
        <time>2021-12-23T09:09:03Z</time>
      </trkpt>
      <trkpt lat="45.27171" lon="6.09467">
        <ele>1415</ele>
        <time>2021-12-23T09:09:04Z</time>
      </trkpt>
      <trkpt lat="45.27168" lon="6.0948">
        <ele>1415</ele>
        <time>2021-12-23T09:09:05Z</time>
      </trkpt>
      <trkpt lat="45.27168" lon="6.0948">
        <ele>1414</ele>
        <time>2021-12-23T09:09:07Z</time>
      </trkpt>
      <trkpt lat="45.27167" lon="6.09482">
        <ele>1415</ele>
        <time>2021-12-23T09:09:08Z</time>
      </trkpt>
      <trkpt lat="45.27167" lon="6.09484">
        <ele>1415</ele>
        <time>2021-12-23T09:09:09Z</time>
      </trkpt>
      <trkpt lat="45.27166" lon="6.09485">
        <ele>1415</ele>
        <time>2021-12-23T09:09:11Z</time>
      </trkpt>
      <trkpt lat="45.27165" lon="6.09487">
        <ele>1415</ele>
        <time>2021-12-23T09:09:13Z</time>
      </trkpt>
      <trkpt lat="45.27164" lon="6.09489">
        <ele>1416</ele>
        <time>2021-12-23T09:09:14Z</time>
      </trkpt>
      <trkpt lat="45.27163" lon="6.0949">
        <ele>1416</ele>
        <time>2021-12-23T09:09:15Z</time>
      </trkpt>
      <trkpt lat="45.27163" lon="6.09492">
        <ele>1417</ele>
        <time>2021-12-23T09:09:16Z</time>
      </trkpt>
      <trkpt lat="45.27162" lon="6.09493">
        <ele>1417</ele>
        <time>2021-12-23T09:09:17Z</time>
      </trkpt>
      <trkpt lat="45.27162" lon="6.09494">
        <ele>1417</ele>
        <time>2021-12-23T09:09:18Z</time>
      </trkpt>
      <trkpt lat="45.27162" lon="6.09494">
        <ele>1417</ele>
        <time>2021-12-23T09:09:19Z</time>
      </trkpt>
      <trkpt lat="45.27162" lon="6.09495">
        <ele>1417</ele>
        <time>2021-12-23T09:09:20Z</time>
      </trkpt>
      <trkpt lat="45.27162" lon="6.09496">
        <ele>1417</ele>
        <time>2021-12-23T09:09:21Z</time>
      </trkpt>
      <trkpt lat="45.27161" lon="6.09497">
        <ele>1417</ele>
        <time>2021-12-23T09:09:22Z</time>
      </trkpt>
      <trkpt lat="45.27161" lon="6.09497">
        <ele>1418</ele>
        <time>2021-12-23T09:09:23Z</time>
      </trkpt>
      <trkpt lat="45.27161" lon="6.09498">
        <ele>1418</ele>
        <time>2021-12-23T09:09:24Z</time>
      </trkpt>
      <trkpt lat="45.27161" lon="6.09499">
        <ele>1418</ele>
        <time>2021-12-23T09:09:25Z</time>
      </trkpt>
      <trkpt lat="45.27159" lon="6.09506">
        <ele>1418</ele>
        <time>2021-12-23T09:09:26Z</time>
      </trkpt>
      <trkpt lat="45.27159" lon="6.09507">
        <ele>1419</ele>
        <time>2021-12-23T09:09:27Z</time>
      </trkpt>
      <trkpt lat="45.27159" lon="6.09508">
        <ele>1419</ele>
        <time>2021-12-23T09:09:28Z</time>
      </trkpt>
      <trkpt lat="45.27159" lon="6.09509">
        <ele>1419</ele>
        <time>2021-12-23T09:09:30Z</time>
      </trkpt>
      <trkpt lat="45.27159" lon="6.09509">
        <ele>1419</ele>
        <time>2021-12-23T09:09:31Z</time>
      </trkpt>
      <trkpt lat="45.27158" lon="6.0951">
        <ele>1419</ele>
        <time>2021-12-23T09:09:32Z</time>
      </trkpt>
      <trkpt lat="45.27158" lon="6.09511">
        <ele>1419</ele>
        <time>2021-12-23T09:09:33Z</time>
      </trkpt>
      <trkpt lat="45.27158" lon="6.09512">
        <ele>1419</ele>
        <time>2021-12-23T09:09:34Z</time>
      </trkpt>
      <trkpt lat="45.27158" lon="6.09513">
        <ele>1419</ele>
        <time>2021-12-23T09:09:35Z</time>
      </trkpt>
      <trkpt lat="45.27158" lon="6.09513">
        <ele>1419</ele>
        <time>2021-12-23T09:09:36Z</time>
      </trkpt>
      <trkpt lat="45.27158" lon="6.09514">
        <ele>1420</ele>
        <time>2021-12-23T09:09:37Z</time>
      </trkpt>
      <trkpt lat="45.27158" lon="6.09515">
        <ele>1420</ele>
        <time>2021-12-23T09:09:38Z</time>
      </trkpt>
      <trkpt lat="45.27158" lon="6.09516">
        <ele>1421</ele>
        <time>2021-12-23T09:09:39Z</time>
      </trkpt>
      <trkpt lat="45.27158" lon="6.09517">
        <ele>1421</ele>
        <time>2021-12-23T09:09:40Z</time>
      </trkpt>
      <trkpt lat="45.27158" lon="6.09517">
        <ele>1421</ele>
        <time>2021-12-23T09:09:41Z</time>
      </trkpt>
      <trkpt lat="45.27157" lon="6.09518">
        <ele>1421</ele>
        <time>2021-12-23T09:09:42Z</time>
      </trkpt>
      <trkpt lat="45.27157" lon="6.09519">
        <ele>1421</ele>
        <time>2021-12-23T09:09:43Z</time>
      </trkpt>
      <trkpt lat="45.27156" lon="6.0952">
        <ele>1421</ele>
        <time>2021-12-23T09:09:44Z</time>
      </trkpt>
      <trkpt lat="45.27156" lon="6.09521">
        <ele>1422</ele>
        <time>2021-12-23T09:09:45Z</time>
      </trkpt>
      <trkpt lat="45.27156" lon="6.09522">
        <ele>1422</ele>
        <time>2021-12-23T09:09:46Z</time>
      </trkpt>
      <trkpt lat="45.27155" lon="6.09523">
        <ele>1422</ele>
        <time>2021-12-23T09:09:47Z</time>
      </trkpt>
      <trkpt lat="45.27155" lon="6.09523">
        <ele>1422</ele>
        <time>2021-12-23T09:09:49Z</time>
      </trkpt>
      <trkpt lat="45.27155" lon="6.09524">
        <ele>1422</ele>
        <time>2021-12-23T09:09:50Z</time>
      </trkpt>
      <trkpt lat="45.27154" lon="6.09525">
        <ele>1422</ele>
        <time>2021-12-23T09:09:51Z</time>
      </trkpt>
      <trkpt lat="45.27154" lon="6.09526">
        <ele>1423</ele>
        <time>2021-12-23T09:09:52Z</time>
      </trkpt>
      <trkpt lat="45.27154" lon="6.09527">
        <ele>1423</ele>
        <time>2021-12-23T09:09:53Z</time>
      </trkpt>
      <trkpt lat="45.27153" lon="6.09528">
        <ele>1423</ele>
        <time>2021-12-23T09:09:54Z</time>
      </trkpt>
      <trkpt lat="45.27153" lon="6.09529">
        <ele>1423</ele>
        <time>2021-12-23T09:09:55Z</time>
      </trkpt>
      <trkpt lat="45.27153" lon="6.0953">
        <ele>1424</ele>
        <time>2021-12-23T09:09:56Z</time>
      </trkpt>
      <trkpt lat="45.27152" lon="6.09531">
        <ele>1424</ele>
        <time>2021-12-23T09:09:57Z</time>
      </trkpt>
      <trkpt lat="45.27152" lon="6.09532">
        <ele>1424</ele>
        <time>2021-12-23T09:09:58Z</time>
      </trkpt>
      <trkpt lat="45.27152" lon="6.09533">
        <ele>1424</ele>
        <time>2021-12-23T09:09:59Z</time>
      </trkpt>
      <trkpt lat="45.27151" lon="6.09533">
        <ele>1424</ele>
        <time>2021-12-23T09:10:00Z</time>
      </trkpt>
      <trkpt lat="45.27151" lon="6.09534">
        <ele>1425</ele>
        <time>2021-12-23T09:10:01Z</time>
      </trkpt>
      <trkpt lat="45.27151" lon="6.09535">
        <ele>1425</ele>
        <time>2021-12-23T09:10:02Z</time>
      </trkpt>
      <trkpt lat="45.27151" lon="6.09536">
        <ele>1425</ele>
        <time>2021-12-23T09:10:03Z</time>
      </trkpt>
      <trkpt lat="45.2715" lon="6.09537">
        <ele>1425</ele>
        <time>2021-12-23T09:10:04Z</time>
      </trkpt>
      <trkpt lat="45.2715" lon="6.09538">
        <ele>1426</ele>
        <time>2021-12-23T09:10:05Z</time>
      </trkpt>
      <trkpt lat="45.2715" lon="6.09539">
        <ele>1426</ele>
        <time>2021-12-23T09:10:06Z</time>
      </trkpt>
      <trkpt lat="45.27149" lon="6.0954">
        <ele>1426</ele>
        <time>2021-12-23T09:10:07Z</time>
      </trkpt>
      <trkpt lat="45.27149" lon="6.09541">
        <ele>1426</ele>
        <time>2021-12-23T09:10:08Z</time>
      </trkpt>
      <trkpt lat="45.27149" lon="6.09542">
        <ele>1426</ele>
        <time>2021-12-23T09:10:09Z</time>
      </trkpt>
      <trkpt lat="45.27149" lon="6.09542">
        <ele>1426</ele>
        <time>2021-12-23T09:10:10Z</time>
      </trkpt>
      <trkpt lat="45.2715" lon="6.09543">
        <ele>1427</ele>
        <time>2021-12-23T09:10:11Z</time>
      </trkpt>
      <trkpt lat="45.2715" lon="6.09544">
        <ele>1427</ele>
        <time>2021-12-23T09:10:12Z</time>
      </trkpt>
      <trkpt lat="45.2715" lon="6.09545">
        <ele>1427</ele>
        <time>2021-12-23T09:10:13Z</time>
      </trkpt>
      <trkpt lat="45.2715" lon="6.09545">
        <ele>1427</ele>
        <time>2021-12-23T09:10:14Z</time>
      </trkpt>
      <trkpt lat="45.2715" lon="6.09546">
        <ele>1427</ele>
        <time>2021-12-23T09:10:15Z</time>
      </trkpt>
      <trkpt lat="45.27151" lon="6.09547">
        <ele>1427</ele>
        <time>2021-12-23T09:10:16Z</time>
      </trkpt>
      <trkpt lat="45.27151" lon="6.09547">
        <ele>1427</ele>
        <time>2021-12-23T09:10:17Z</time>
      </trkpt>
      <trkpt lat="45.27151" lon="6.09548">
        <ele>1427</ele>
        <time>2021-12-23T09:10:18Z</time>
      </trkpt>
      <trkpt lat="45.27151" lon="6.09549">
        <ele>1428</ele>
        <time>2021-12-23T09:10:19Z</time>
      </trkpt>
      <trkpt lat="45.27151" lon="6.09549">
        <ele>1428</ele>
        <time>2021-12-23T09:10:20Z</time>
      </trkpt>
      <trkpt lat="45.27151" lon="6.0955">
        <ele>1428</ele>
        <time>2021-12-23T09:10:21Z</time>
      </trkpt>
      <trkpt lat="45.27152" lon="6.09551">
        <ele>1428</ele>
        <time>2021-12-23T09:10:22Z</time>
      </trkpt>
      <trkpt lat="45.27152" lon="6.09551">
        <ele>1429</ele>
        <time>2021-12-23T09:10:23Z</time>
      </trkpt>
      <trkpt lat="45.27152" lon="6.09552">
        <ele>1429</ele>
        <time>2021-12-23T09:10:24Z</time>
      </trkpt>
      <trkpt lat="45.27152" lon="6.09553">
        <ele>1430</ele>
        <time>2021-12-23T09:10:25Z</time>
      </trkpt>
      <trkpt lat="45.27152" lon="6.09553">
        <ele>1430</ele>
        <time>2021-12-23T09:10:26Z</time>
      </trkpt>
      <trkpt lat="45.27152" lon="6.09554">
        <ele>1430</ele>
        <time>2021-12-23T09:10:27Z</time>
      </trkpt>
      <trkpt lat="45.27153" lon="6.09555">
        <ele>1430</ele>
        <time>2021-12-23T09:10:28Z</time>
      </trkpt>
      <trkpt lat="45.27153" lon="6.09556">
        <ele>1430</ele>
        <time>2021-12-23T09:10:29Z</time>
      </trkpt>
      <trkpt lat="45.27153" lon="6.09557">
        <ele>1431</ele>
        <time>2021-12-23T09:10:30Z</time>
      </trkpt>
      <trkpt lat="45.27153" lon="6.09558">
        <ele>1431</ele>
        <time>2021-12-23T09:10:31Z</time>
      </trkpt>
      <trkpt lat="45.27154" lon="6.09559">
        <ele>1431</ele>
        <time>2021-12-23T09:10:32Z</time>
      </trkpt>
      <trkpt lat="45.27154" lon="6.0956">
        <ele>1431</ele>
        <time>2021-12-23T09:10:33Z</time>
      </trkpt>
      <trkpt lat="45.27154" lon="6.09561">
        <ele>1431</ele>
        <time>2021-12-23T09:10:34Z</time>
      </trkpt>
      <trkpt lat="45.27154" lon="6.09562">
        <ele>1431</ele>
        <time>2021-12-23T09:10:35Z</time>
      </trkpt>
      <trkpt lat="45.27155" lon="6.09562">
        <ele>1431</ele>
        <time>2021-12-23T09:10:36Z</time>
      </trkpt>
      <trkpt lat="45.27155" lon="6.09563">
        <ele>1432</ele>
        <time>2021-12-23T09:10:37Z</time>
      </trkpt>
      <trkpt lat="45.27155" lon="6.09564">
        <ele>1432</ele>
        <time>2021-12-23T09:10:38Z</time>
      </trkpt>
      <trkpt lat="45.27155" lon="6.09565">
        <ele>1432</ele>
        <time>2021-12-23T09:10:39Z</time>
      </trkpt>
      <trkpt lat="45.27155" lon="6.09566">
        <ele>1432</ele>
        <time>2021-12-23T09:10:40Z</time>
      </trkpt>
      <trkpt lat="45.27156" lon="6.09567">
        <ele>1432</ele>
        <time>2021-12-23T09:10:41Z</time>
      </trkpt>
      <trkpt lat="45.27157" lon="6.09568">
        <ele>1432</ele>
        <time>2021-12-23T09:10:42Z</time>
      </trkpt>
      <trkpt lat="45.27158" lon="6.09569">
        <ele>1432</ele>
        <time>2021-12-23T09:10:43Z</time>
      </trkpt>
      <trkpt lat="45.27159" lon="6.0957">
        <ele>1432</ele>
        <time>2021-12-23T09:10:44Z</time>
      </trkpt>
      <trkpt lat="45.27159" lon="6.09571">
        <ele>1433</ele>
        <time>2021-12-23T09:10:46Z</time>
      </trkpt>
      <trkpt lat="45.2716" lon="6.09572">
        <ele>1433</ele>
        <time>2021-12-23T09:10:47Z</time>
      </trkpt>
      <trkpt lat="45.27161" lon="6.09573">
        <ele>1433</ele>
        <time>2021-12-23T09:10:48Z</time>
      </trkpt>
      <trkpt lat="45.27162" lon="6.09574">
        <ele>1434</ele>
        <time>2021-12-23T09:10:50Z</time>
      </trkpt>
      <trkpt lat="45.27163" lon="6.09575">
        <ele>1434</ele>
        <time>2021-12-23T09:10:51Z</time>
      </trkpt>
      <trkpt lat="45.27163" lon="6.09576">
        <ele>1434</ele>
        <time>2021-12-23T09:10:52Z</time>
      </trkpt>
      <trkpt lat="45.27163" lon="6.09576">
        <ele>1434</ele>
        <time>2021-12-23T09:10:53Z</time>
      </trkpt>
      <trkpt lat="45.27162" lon="6.09577">
        <ele>1435</ele>
        <time>2021-12-23T09:10:55Z</time>
      </trkpt>
      <trkpt lat="45.27161" lon="6.09578">
        <ele>1435</ele>
        <time>2021-12-23T09:10:56Z</time>
      </trkpt>
      <trkpt lat="45.27161" lon="6.09578">
        <ele>1435</ele>
        <time>2021-12-23T09:10:57Z</time>
      </trkpt>
      <trkpt lat="45.2716" lon="6.09579">
        <ele>1435</ele>
        <time>2021-12-23T09:10:58Z</time>
      </trkpt>
      <trkpt lat="45.2716" lon="6.0958">
        <ele>1435</ele>
        <time>2021-12-23T09:10:59Z</time>
      </trkpt>
      <trkpt lat="45.27159" lon="6.09581">
        <ele>1436</ele>
        <time>2021-12-23T09:11:00Z</time>
      </trkpt>
      <trkpt lat="45.27158" lon="6.09581">
        <ele>1436</ele>
        <time>2021-12-23T09:11:01Z</time>
      </trkpt>
      <trkpt lat="45.27158" lon="6.09582">
        <ele>1436</ele>
        <time>2021-12-23T09:11:02Z</time>
      </trkpt>
      <trkpt lat="45.27157" lon="6.09583">
        <ele>1436</ele>
        <time>2021-12-23T09:11:03Z</time>
      </trkpt>
      <trkpt lat="45.27156" lon="6.09584">
        <ele>1437</ele>
        <time>2021-12-23T09:11:05Z</time>
      </trkpt>
      <trkpt lat="45.27156" lon="6.09584">
        <ele>1437</ele>
        <time>2021-12-23T09:11:06Z</time>
      </trkpt>
      <trkpt lat="45.27155" lon="6.09585">
        <ele>1437</ele>
        <time>2021-12-23T09:11:07Z</time>
      </trkpt>
      <trkpt lat="45.27154" lon="6.09585">
        <ele>1437</ele>
        <time>2021-12-23T09:11:08Z</time>
      </trkpt>
      <trkpt lat="45.27154" lon="6.09586">
        <ele>1438</ele>
        <time>2021-12-23T09:11:09Z</time>
      </trkpt>
      <trkpt lat="45.27153" lon="6.09586">
        <ele>1438</ele>
        <time>2021-12-23T09:11:10Z</time>
      </trkpt>
      <trkpt lat="45.27152" lon="6.09587">
        <ele>1438</ele>
        <time>2021-12-23T09:11:11Z</time>
      </trkpt>
      <trkpt lat="45.27152" lon="6.09587">
        <ele>1439</ele>
        <time>2021-12-23T09:11:12Z</time>
      </trkpt>
      <trkpt lat="45.27151" lon="6.09588">
        <ele>1439</ele>
        <time>2021-12-23T09:11:13Z</time>
      </trkpt>
      <trkpt lat="45.2715" lon="6.09588">
        <ele>1439</ele>
        <time>2021-12-23T09:11:14Z</time>
      </trkpt>
      <trkpt lat="45.27149" lon="6.09589">
        <ele>1439</ele>
        <time>2021-12-23T09:11:15Z</time>
      </trkpt>
      <trkpt lat="45.27149" lon="6.09589">
        <ele>1439</ele>
        <time>2021-12-23T09:11:16Z</time>
      </trkpt>
      <trkpt lat="45.27148" lon="6.0959">
        <ele>1439</ele>
        <time>2021-12-23T09:11:17Z</time>
      </trkpt>
      <trkpt lat="45.27147" lon="6.0959">
        <ele>1439</ele>
        <time>2021-12-23T09:11:18Z</time>
      </trkpt>
      <trkpt lat="45.27147" lon="6.0959">
        <ele>1439</ele>
        <time>2021-12-23T09:11:19Z</time>
      </trkpt>
      <trkpt lat="45.27146" lon="6.09591">
        <ele>1440</ele>
        <time>2021-12-23T09:11:20Z</time>
      </trkpt>
      <trkpt lat="45.27146" lon="6.09591">
        <ele>1440</ele>
        <time>2021-12-23T09:11:21Z</time>
      </trkpt>
      <trkpt lat="45.27145" lon="6.09591">
        <ele>1440</ele>
        <time>2021-12-23T09:11:22Z</time>
      </trkpt>
      <trkpt lat="45.27145" lon="6.09592">
        <ele>1440</ele>
        <time>2021-12-23T09:11:24Z</time>
      </trkpt>
      <trkpt lat="45.27144" lon="6.09592">
        <ele>1440</ele>
        <time>2021-12-23T09:11:25Z</time>
      </trkpt>
      <trkpt lat="45.27144" lon="6.09592">
        <ele>1440</ele>
        <time>2021-12-23T09:11:26Z</time>
      </trkpt>
      <trkpt lat="45.27143" lon="6.09593">
        <ele>1440</ele>
        <time>2021-12-23T09:11:27Z</time>
      </trkpt>
      <trkpt lat="45.27143" lon="6.09593">
        <ele>1440</ele>
        <time>2021-12-23T09:11:28Z</time>
      </trkpt>
      <trkpt lat="45.27142" lon="6.09593">
        <ele>1440</ele>
        <time>2021-12-23T09:11:29Z</time>
      </trkpt>
      <trkpt lat="45.27141" lon="6.09594">
        <ele>1440</ele>
        <time>2021-12-23T09:11:30Z</time>
      </trkpt>
      <trkpt lat="45.27141" lon="6.09594">
        <ele>1441</ele>
        <time>2021-12-23T09:11:31Z</time>
      </trkpt>
      <trkpt lat="45.2714" lon="6.09594">
        <ele>1441</ele>
        <time>2021-12-23T09:11:32Z</time>
      </trkpt>
      <trkpt lat="45.2714" lon="6.09595">
        <ele>1441</ele>
        <time>2021-12-23T09:11:33Z</time>
      </trkpt>
      <trkpt lat="45.27139" lon="6.09595">
        <ele>1441</ele>
        <time>2021-12-23T09:11:34Z</time>
      </trkpt>
      <trkpt lat="45.27139" lon="6.09595">
        <ele>1441</ele>
        <time>2021-12-23T09:11:35Z</time>
      </trkpt>
      <trkpt lat="45.27139" lon="6.09594">
        <ele>1441</ele>
        <time>2021-12-23T09:11:36Z</time>
      </trkpt>
      <trkpt lat="45.27139" lon="6.09594">
        <ele>1442</ele>
        <time>2021-12-23T09:11:37Z</time>
      </trkpt>
      <trkpt lat="45.27139" lon="6.09594">
        <ele>1442</ele>
        <time>2021-12-23T09:11:38Z</time>
      </trkpt>
      <trkpt lat="45.27139" lon="6.09593">
        <ele>1442</ele>
        <time>2021-12-23T09:11:39Z</time>
      </trkpt>
      <trkpt lat="45.27139" lon="6.09593">
        <ele>1442</ele>
        <time>2021-12-23T09:11:40Z</time>
      </trkpt>
      <trkpt lat="45.27139" lon="6.09593">
        <ele>1442</ele>
        <time>2021-12-23T09:11:41Z</time>
      </trkpt>
      <trkpt lat="45.27139" lon="6.09592">
        <ele>1442</ele>
        <time>2021-12-23T09:11:43Z</time>
      </trkpt>
      <trkpt lat="45.27139" lon="6.09592">
        <ele>1442</ele>
        <time>2021-12-23T09:11:44Z</time>
      </trkpt>
      <trkpt lat="45.27139" lon="6.09591">
        <ele>1442</ele>
        <time>2021-12-23T09:11:45Z</time>
      </trkpt>
      <trkpt lat="45.27139" lon="6.09591">
        <ele>1442</ele>
        <time>2021-12-23T09:11:46Z</time>
      </trkpt>
      <trkpt lat="45.27139" lon="6.09591">
        <ele>1442</ele>
        <time>2021-12-23T09:11:47Z</time>
      </trkpt>
      <trkpt lat="45.27139" lon="6.0959">
        <ele>1442</ele>
        <time>2021-12-23T09:11:48Z</time>
      </trkpt>
      <trkpt lat="45.27139" lon="6.0959">
        <ele>1442</ele>
        <time>2021-12-23T09:11:49Z</time>
      </trkpt>
      <trkpt lat="45.27139" lon="6.0959">
        <ele>1442</ele>
        <time>2021-12-23T09:11:50Z</time>
      </trkpt>
      <trkpt lat="45.27139" lon="6.09589">
        <ele>1442</ele>
        <time>2021-12-23T09:11:51Z</time>
      </trkpt>
      <trkpt lat="45.27139" lon="6.09589">
        <ele>1442</ele>
        <time>2021-12-23T09:11:52Z</time>
      </trkpt>
      <trkpt lat="45.27139" lon="6.09588">
        <ele>1442</ele>
        <time>2021-12-23T09:11:53Z</time>
      </trkpt>
      <trkpt lat="45.27138" lon="6.09588">
        <ele>1442</ele>
        <time>2021-12-23T09:11:54Z</time>
      </trkpt>
      <trkpt lat="45.27138" lon="6.09588">
        <ele>1442</ele>
        <time>2021-12-23T09:11:55Z</time>
      </trkpt>
      <trkpt lat="45.27138" lon="6.09587">
        <ele>1442</ele>
        <time>2021-12-23T09:11:57Z</time>
      </trkpt>
      <trkpt lat="45.27138" lon="6.09587">
        <ele>1442</ele>
        <time>2021-12-23T09:11:59Z</time>
      </trkpt>
      <trkpt lat="45.27138" lon="6.09586">
        <ele>1442</ele>
        <time>2021-12-23T09:12:00Z</time>
      </trkpt>
      <trkpt lat="45.27138" lon="6.09586">
        <ele>1442</ele>
        <time>2021-12-23T09:12:02Z</time>
      </trkpt>
      <trkpt lat="45.27138" lon="6.09586">
        <ele>1442</ele>
        <time>2021-12-23T09:12:03Z</time>
      </trkpt>
      <trkpt lat="45.27138" lon="6.09585">
        <ele>1442</ele>
        <time>2021-12-23T09:12:05Z</time>
      </trkpt>
      <trkpt lat="45.27138" lon="6.09585">
        <ele>1442</ele>
        <time>2021-12-23T09:12:06Z</time>
      </trkpt>
      <trkpt lat="45.27138" lon="6.09585">
        <ele>1441</ele>
        <time>2021-12-23T09:12:07Z</time>
      </trkpt>
      <trkpt lat="45.27138" lon="6.09584">
        <ele>1441</ele>
        <time>2021-12-23T09:12:08Z</time>
      </trkpt>
      <trkpt lat="45.27138" lon="6.09584">
        <ele>1441</ele>
        <time>2021-12-23T09:12:09Z</time>
      </trkpt>
      <trkpt lat="45.27138" lon="6.09583">
        <ele>1441</ele>
        <time>2021-12-23T09:12:10Z</time>
      </trkpt>
      <trkpt lat="45.27138" lon="6.09583">
        <ele>1441</ele>
        <time>2021-12-23T09:12:11Z</time>
      </trkpt>
      <trkpt lat="45.27138" lon="6.09583">
        <ele>1441</ele>
        <time>2021-12-23T09:12:12Z</time>
      </trkpt>
      <trkpt lat="45.27138" lon="6.09582">
        <ele>1441</ele>
        <time>2021-12-23T09:12:13Z</time>
      </trkpt>
      <trkpt lat="45.27138" lon="6.09582">
        <ele>1441</ele>
        <time>2021-12-23T09:12:14Z</time>
      </trkpt>
      <trkpt lat="45.27138" lon="6.09582">
        <ele>1441</ele>
        <time>2021-12-23T09:12:15Z</time>
      </trkpt>
      <trkpt lat="45.27138" lon="6.09581">
        <ele>1441</ele>
        <time>2021-12-23T09:12:16Z</time>
      </trkpt>
      <trkpt lat="45.27138" lon="6.09581">
        <ele>1441</ele>
        <time>2021-12-23T09:12:17Z</time>
      </trkpt>
      <trkpt lat="45.27138" lon="6.0958">
        <ele>1441</ele>
        <time>2021-12-23T09:12:18Z</time>
      </trkpt>
      <trkpt lat="45.27138" lon="6.0958">
        <ele>1441</ele>
        <time>2021-12-23T09:12:19Z</time>
      </trkpt>
      <trkpt lat="45.27138" lon="6.0958">
        <ele>1441</ele>
        <time>2021-12-23T09:12:21Z</time>
      </trkpt>
      <trkpt lat="45.27138" lon="6.0958">
        <ele>1441</ele>
        <time>2021-12-23T09:12:22Z</time>
      </trkpt>
      <trkpt lat="45.27138" lon="6.0958">
        <ele>1441</ele>
        <time>2021-12-23T09:12:23Z</time>
      </trkpt>
      <trkpt lat="45.27138" lon="6.0958">
        <ele>1441</ele>
        <time>2021-12-23T09:12:24Z</time>
      </trkpt>
      <trkpt lat="45.27138" lon="6.0958">
        <ele>1441</ele>
        <time>2021-12-23T09:12:25Z</time>
      </trkpt>
      <trkpt lat="45.27138" lon="6.0958">
        <ele>1441</ele>
        <time>2021-12-23T09:12:26Z</time>
      </trkpt>
      <trkpt lat="45.27138" lon="6.0958">
        <ele>1441</ele>
        <time>2021-12-23T09:12:27Z</time>
      </trkpt>
      <trkpt lat="45.27138" lon="6.0958">
        <ele>1441</ele>
        <time>2021-12-23T09:12:28Z</time>
      </trkpt>
      <trkpt lat="45.27138" lon="6.0958">
        <ele>1441</ele>
        <time>2021-12-23T09:12:29Z</time>
      </trkpt>
      <trkpt lat="45.27138" lon="6.0958">
        <ele>1441</ele>
        <time>2021-12-23T09:12:30Z</time>
      </trkpt>
      <trkpt lat="45.27148" lon="6.09576">
        <ele>1441</ele>
        <time>2021-12-23T09:12:31Z</time>
      </trkpt>
      <trkpt lat="45.27148" lon="6.09576">
        <ele>1441</ele>
        <time>2021-12-23T09:12:33Z</time>
      </trkpt>
      <trkpt lat="45.27149" lon="6.09578">
        <ele>1441</ele>
        <time>2021-12-23T09:12:34Z</time>
      </trkpt>
      <trkpt lat="45.2715" lon="6.09579">
        <ele>1442</ele>
        <time>2021-12-23T09:12:35Z</time>
      </trkpt>
      <trkpt lat="45.2715" lon="6.09581">
        <ele>1442</ele>
        <time>2021-12-23T09:12:36Z</time>
      </trkpt>
      <trkpt lat="45.27151" lon="6.09582">
        <ele>1442</ele>
        <time>2021-12-23T09:12:37Z</time>
      </trkpt>
      <trkpt lat="45.27155" lon="6.0959">
        <ele>1442</ele>
        <time>2021-12-23T09:12:38Z</time>
      </trkpt>
      <trkpt lat="45.27155" lon="6.09591">
        <ele>1442</ele>
        <time>2021-12-23T09:12:40Z</time>
      </trkpt>
      <trkpt lat="45.27156" lon="6.09592">
        <ele>1442</ele>
        <time>2021-12-23T09:12:41Z</time>
      </trkpt>
      <trkpt lat="45.27156" lon="6.09593">
        <ele>1441</ele>
        <time>2021-12-23T09:12:42Z</time>
      </trkpt>
      <trkpt lat="45.27156" lon="6.09595">
        <ele>1441</ele>
        <time>2021-12-23T09:12:43Z</time>
      </trkpt>
      <trkpt lat="45.27157" lon="6.09596">
        <ele>1441</ele>
        <time>2021-12-23T09:12:44Z</time>
      </trkpt>
      <trkpt lat="45.27157" lon="6.09597">
        <ele>1441</ele>
        <time>2021-12-23T09:12:45Z</time>
      </trkpt>
      <trkpt lat="45.27157" lon="6.09598">
        <ele>1442</ele>
        <time>2021-12-23T09:12:46Z</time>
      </trkpt>
      <trkpt lat="45.27158" lon="6.096">
        <ele>1442</ele>
        <time>2021-12-23T09:12:47Z</time>
      </trkpt>
      <trkpt lat="45.27158" lon="6.09601">
        <ele>1442</ele>
        <time>2021-12-23T09:12:48Z</time>
      </trkpt>
      <trkpt lat="45.27158" lon="6.09602">
        <ele>1442</ele>
        <time>2021-12-23T09:12:49Z</time>
      </trkpt>
      <trkpt lat="45.27159" lon="6.09603">
        <ele>1442</ele>
        <time>2021-12-23T09:12:50Z</time>
      </trkpt>
      <trkpt lat="45.27158" lon="6.09604">
        <ele>1442</ele>
        <time>2021-12-23T09:12:51Z</time>
      </trkpt>
      <trkpt lat="45.27158" lon="6.09604">
        <ele>1442</ele>
        <time>2021-12-23T09:12:52Z</time>
      </trkpt>
      <trkpt lat="45.27157" lon="6.09605">
        <ele>1443</ele>
        <time>2021-12-23T09:12:53Z</time>
      </trkpt>
      <trkpt lat="45.27157" lon="6.09606">
        <ele>1443</ele>
        <time>2021-12-23T09:12:54Z</time>
      </trkpt>
      <trkpt lat="45.27156" lon="6.09606">
        <ele>1443</ele>
        <time>2021-12-23T09:12:55Z</time>
      </trkpt>
      <trkpt lat="45.27156" lon="6.09607">
        <ele>1443</ele>
        <time>2021-12-23T09:12:56Z</time>
      </trkpt>
      <trkpt lat="45.27155" lon="6.09607">
        <ele>1443</ele>
        <time>2021-12-23T09:12:57Z</time>
      </trkpt>
      <trkpt lat="45.27154" lon="6.09608">
        <ele>1443</ele>
        <time>2021-12-23T09:12:59Z</time>
      </trkpt>
      <trkpt lat="45.27154" lon="6.09609">
        <ele>1443</ele>
        <time>2021-12-23T09:13:00Z</time>
      </trkpt>
      <trkpt lat="45.27153" lon="6.09609">
        <ele>1443</ele>
        <time>2021-12-23T09:13:01Z</time>
      </trkpt>
      <trkpt lat="45.27153" lon="6.0961">
        <ele>1443</ele>
        <time>2021-12-23T09:13:02Z</time>
      </trkpt>
      <trkpt lat="45.27152" lon="6.0961">
        <ele>1443</ele>
        <time>2021-12-23T09:13:03Z</time>
      </trkpt>
      <trkpt lat="45.27152" lon="6.09611">
        <ele>1443</ele>
        <time>2021-12-23T09:13:04Z</time>
      </trkpt>
      <trkpt lat="45.27151" lon="6.09612">
        <ele>1443</ele>
        <time>2021-12-23T09:13:05Z</time>
      </trkpt>
      <trkpt lat="45.27151" lon="6.09612">
        <ele>1443</ele>
        <time>2021-12-23T09:13:06Z</time>
      </trkpt>
      <trkpt lat="45.2715" lon="6.09613">
        <ele>1443</ele>
        <time>2021-12-23T09:13:07Z</time>
      </trkpt>
      <trkpt lat="45.27149" lon="6.09613">
        <ele>1443</ele>
        <time>2021-12-23T09:13:08Z</time>
      </trkpt>
      <trkpt lat="45.27149" lon="6.09614">
        <ele>1443</ele>
        <time>2021-12-23T09:13:09Z</time>
      </trkpt>
      <trkpt lat="45.27148" lon="6.09615">
        <ele>1443</ele>
        <time>2021-12-23T09:13:10Z</time>
      </trkpt>
      <trkpt lat="45.27148" lon="6.09615">
        <ele>1443</ele>
        <time>2021-12-23T09:13:11Z</time>
      </trkpt>
      <trkpt lat="45.27147" lon="6.09616">
        <ele>1443</ele>
        <time>2021-12-23T09:13:12Z</time>
      </trkpt>
      <trkpt lat="45.27147" lon="6.09617">
        <ele>1443</ele>
        <time>2021-12-23T09:13:13Z</time>
      </trkpt>
      <trkpt lat="45.27146" lon="6.09617">
        <ele>1443</ele>
        <time>2021-12-23T09:13:14Z</time>
      </trkpt>
      <trkpt lat="45.27146" lon="6.09617">
        <ele>1443</ele>
        <time>2021-12-23T09:13:15Z</time>
      </trkpt>
      <trkpt lat="45.27136" lon="6.09614">
        <ele>1443</ele>
        <time>2021-12-23T09:13:16Z</time>
      </trkpt>
      <trkpt lat="45.27125" lon="6.09615">
        <ele>1442</ele>
        <time>2021-12-23T09:13:18Z</time>
      </trkpt>
      <trkpt lat="45.27125" lon="6.09615">
        <ele>1442</ele>
        <time>2021-12-23T09:13:19Z</time>
      </trkpt>
      <trkpt lat="45.27124" lon="6.09616">
        <ele>1441</ele>
        <time>2021-12-23T09:13:20Z</time>
      </trkpt>
      <trkpt lat="45.27122" lon="6.09616">
        <ele>1441</ele>
        <time>2021-12-23T09:13:21Z</time>
      </trkpt>
      <trkpt lat="45.27121" lon="6.09617">
        <ele>1441</ele>
        <time>2021-12-23T09:13:22Z</time>
      </trkpt>
      <trkpt lat="45.27119" lon="6.09617">
        <ele>1441</ele>
        <time>2021-12-23T09:13:23Z</time>
      </trkpt>
      <trkpt lat="45.27118" lon="6.09618">
        <ele>1441</ele>
        <time>2021-12-23T09:13:24Z</time>
      </trkpt>
      <trkpt lat="45.27116" lon="6.09618">
        <ele>1440</ele>
        <time>2021-12-23T09:13:25Z</time>
      </trkpt>
      <trkpt lat="45.27117" lon="6.09618">
        <ele>1440</ele>
        <time>2021-12-23T09:13:26Z</time>
      </trkpt>
      <trkpt lat="45.27119" lon="6.09617">
        <ele>1440</ele>
        <time>2021-12-23T09:13:27Z</time>
      </trkpt>
      <trkpt lat="45.2712" lon="6.09617">
        <ele>1440</ele>
        <time>2021-12-23T09:13:28Z</time>
      </trkpt>
      <trkpt lat="45.27121" lon="6.09617">
        <ele>1440</ele>
        <time>2021-12-23T09:13:29Z</time>
      </trkpt>
      <trkpt lat="45.27123" lon="6.09616">
        <ele>1440</ele>
        <time>2021-12-23T09:13:30Z</time>
      </trkpt>
      <trkpt lat="45.27124" lon="6.09616">
        <ele>1440</ele>
        <time>2021-12-23T09:13:31Z</time>
      </trkpt>
      <trkpt lat="45.27125" lon="6.09616">
        <ele>1440</ele>
        <time>2021-12-23T09:13:32Z</time>
      </trkpt>
      <trkpt lat="45.27127" lon="6.09615">
        <ele>1440</ele>
        <time>2021-12-23T09:13:33Z</time>
      </trkpt>
      <trkpt lat="45.27128" lon="6.09615">
        <ele>1440</ele>
        <time>2021-12-23T09:13:34Z</time>
      </trkpt>
      <trkpt lat="45.27129" lon="6.09615">
        <ele>1440</ele>
        <time>2021-12-23T09:13:35Z</time>
      </trkpt>
      <trkpt lat="45.27131" lon="6.09614">
        <ele>1441</ele>
        <time>2021-12-23T09:13:37Z</time>
      </trkpt>
      <trkpt lat="45.27132" lon="6.09614">
        <ele>1441</ele>
        <time>2021-12-23T09:13:38Z</time>
      </trkpt>
      <trkpt lat="45.27133" lon="6.09613">
        <ele>1441</ele>
        <time>2021-12-23T09:13:39Z</time>
      </trkpt>
      <trkpt lat="45.27135" lon="6.09613">
        <ele>1442</ele>
        <time>2021-12-23T09:13:40Z</time>
      </trkpt>
      <trkpt lat="45.27136" lon="6.09613">
        <ele>1442</ele>
        <time>2021-12-23T09:13:41Z</time>
      </trkpt>
      <trkpt lat="45.27137" lon="6.09612">
        <ele>1442</ele>
        <time>2021-12-23T09:13:42Z</time>
      </trkpt>
      <trkpt lat="45.27139" lon="6.09612">
        <ele>1442</ele>
        <time>2021-12-23T09:13:43Z</time>
      </trkpt>
      <trkpt lat="45.2714" lon="6.09612">
        <ele>1442</ele>
        <time>2021-12-23T09:13:44Z</time>
      </trkpt>
      <trkpt lat="45.2714" lon="6.09612">
        <ele>1441</ele>
        <time>2021-12-23T09:13:45Z</time>
      </trkpt>
      <trkpt lat="45.2714" lon="6.09612">
        <ele>1441</ele>
        <time>2021-12-23T09:13:46Z</time>
      </trkpt>
      <trkpt lat="45.2714" lon="6.09612">
        <ele>1441</ele>
        <time>2021-12-23T09:13:47Z</time>
      </trkpt>
      <trkpt lat="45.2714" lon="6.09612">
        <ele>1441</ele>
        <time>2021-12-23T09:13:48Z</time>
      </trkpt>
      <trkpt lat="45.27135" lon="6.096">
        <ele>1441</ele>
        <time>2021-12-23T09:13:49Z</time>
      </trkpt>
      <trkpt lat="45.27135" lon="6.096">
        <ele>1441</ele>
        <time>2021-12-23T09:13:51Z</time>
      </trkpt>
      <trkpt lat="45.27135" lon="6.096">
        <ele>1441</ele>
        <time>2021-12-23T09:13:52Z</time>
      </trkpt>
      <trkpt lat="45.27135" lon="6.096">
        <ele>1441</ele>
        <time>2021-12-23T09:13:53Z</time>
      </trkpt>
      <trkpt lat="45.27135" lon="6.09601">
        <ele>1441</ele>
        <time>2021-12-23T09:13:54Z</time>
      </trkpt>
      <trkpt lat="45.27134" lon="6.09601">
        <ele>1441</ele>
        <time>2021-12-23T09:13:56Z</time>
      </trkpt>
      <trkpt lat="45.27134" lon="6.09601">
        <ele>1441</ele>
        <time>2021-12-23T09:13:57Z</time>
      </trkpt>
      <trkpt lat="45.27134" lon="6.09601">
        <ele>1441</ele>
        <time>2021-12-23T09:13:58Z</time>
      </trkpt>
      <trkpt lat="45.27134" lon="6.09601">
        <ele>1441</ele>
        <time>2021-12-23T09:13:59Z</time>
      </trkpt>
      <trkpt lat="45.27134" lon="6.09602">
        <ele>1441</ele>
        <time>2021-12-23T09:14:00Z</time>
      </trkpt>
      <trkpt lat="45.27134" lon="6.09602">
        <ele>1441</ele>
        <time>2021-12-23T09:14:01Z</time>
      </trkpt>
      <trkpt lat="45.27134" lon="6.09602">
        <ele>1441</ele>
        <time>2021-12-23T09:14:02Z</time>
      </trkpt>
      <trkpt lat="45.27134" lon="6.09602">
        <ele>1441</ele>
        <time>2021-12-23T09:14:03Z</time>
      </trkpt>
      <trkpt lat="45.27133" lon="6.09602">
        <ele>1441</ele>
        <time>2021-12-23T09:14:04Z</time>
      </trkpt>
      <trkpt lat="45.27133" lon="6.09603">
        <ele>1440</ele>
        <time>2021-12-23T09:14:05Z</time>
      </trkpt>
      <trkpt lat="45.27133" lon="6.09603">
        <ele>1440</ele>
        <time>2021-12-23T09:14:06Z</time>
      </trkpt>
      <trkpt lat="45.27133" lon="6.09603">
        <ele>1440</ele>
        <time>2021-12-23T09:14:07Z</time>
      </trkpt>
      <trkpt lat="45.27133" lon="6.09603">
        <ele>1441</ele>
        <time>2021-12-23T09:14:08Z</time>
      </trkpt>
      <trkpt lat="45.27133" lon="6.09603">
        <ele>1441</ele>
        <time>2021-12-23T09:14:09Z</time>
      </trkpt>
      <trkpt lat="45.27133" lon="6.09604">
        <ele>1441</ele>
        <time>2021-12-23T09:14:11Z</time>
      </trkpt>
      <trkpt lat="45.27133" lon="6.09604">
        <ele>1441</ele>
        <time>2021-12-23T09:14:12Z</time>
      </trkpt>
      <trkpt lat="45.27133" lon="6.09604">
        <ele>1441</ele>
        <time>2021-12-23T09:14:13Z</time>
      </trkpt>
      <trkpt lat="45.27132" lon="6.09604">
        <ele>1442</ele>
        <time>2021-12-23T09:14:15Z</time>
      </trkpt>
      <trkpt lat="45.27132" lon="6.09604">
        <ele>1442</ele>
        <time>2021-12-23T09:14:17Z</time>
      </trkpt>
      <trkpt lat="45.27132" lon="6.09605">
        <ele>1442</ele>
        <time>2021-12-23T09:14:18Z</time>
      </trkpt>
      <trkpt lat="45.27132" lon="6.09605">
        <ele>1442</ele>
        <time>2021-12-23T09:14:19Z</time>
      </trkpt>
      <trkpt lat="45.27132" lon="6.09605">
        <ele>1442</ele>
        <time>2021-12-23T09:14:20Z</time>
      </trkpt>
      <trkpt lat="45.27132" lon="6.09605">
        <ele>1442</ele>
        <time>2021-12-23T09:14:21Z</time>
      </trkpt>
      <trkpt lat="45.27132" lon="6.09605">
        <ele>1442</ele>
        <time>2021-12-23T09:14:22Z</time>
      </trkpt>
      <trkpt lat="45.27132" lon="6.09606">
        <ele>1441</ele>
        <time>2021-12-23T09:14:24Z</time>
      </trkpt>
      <trkpt lat="45.27132" lon="6.09606">
        <ele>1441</ele>
        <time>2021-12-23T09:14:25Z</time>
      </trkpt>
      <trkpt lat="45.27131" lon="6.09606">
        <ele>1441</ele>
        <time>2021-12-23T09:14:26Z</time>
      </trkpt>
      <trkpt lat="45.27131" lon="6.09606">
        <ele>1441</ele>
        <time>2021-12-23T09:14:27Z</time>
      </trkpt>
      <trkpt lat="45.27131" lon="6.09606">
        <ele>1441</ele>
        <time>2021-12-23T09:14:28Z</time>
      </trkpt>
      <trkpt lat="45.27131" lon="6.09607">
        <ele>1441</ele>
        <time>2021-12-23T09:14:29Z</time>
      </trkpt>
      <trkpt lat="45.27131" lon="6.09607">
        <ele>1441</ele>
        <time>2021-12-23T09:14:30Z</time>
      </trkpt>
      <trkpt lat="45.27131" lon="6.09607">
        <ele>1441</ele>
        <time>2021-12-23T09:14:32Z</time>
      </trkpt>
      <trkpt lat="45.27131" lon="6.09607">
        <ele>1441</ele>
        <time>2021-12-23T09:14:34Z</time>
      </trkpt>
      <trkpt lat="45.27131" lon="6.09607">
        <ele>1441</ele>
        <time>2021-12-23T09:14:35Z</time>
      </trkpt>
      <trkpt lat="45.27131" lon="6.09608">
        <ele>1441</ele>
        <time>2021-12-23T09:14:36Z</time>
      </trkpt>
      <trkpt lat="45.2713" lon="6.09608">
        <ele>1441</ele>
        <time>2021-12-23T09:14:37Z</time>
      </trkpt>
      <trkpt lat="45.2713" lon="6.09608">
        <ele>1441</ele>
        <time>2021-12-23T09:14:38Z</time>
      </trkpt>
      <trkpt lat="45.2713" lon="6.09608">
        <ele>1441</ele>
        <time>2021-12-23T09:14:40Z</time>
      </trkpt>
      <trkpt lat="45.2713" lon="6.09608">
        <ele>1441</ele>
        <time>2021-12-23T09:14:41Z</time>
      </trkpt>
      <trkpt lat="45.2713" lon="6.09609">
        <ele>1441</ele>
        <time>2021-12-23T09:14:42Z</time>
      </trkpt>
      <trkpt lat="45.2713" lon="6.09609">
        <ele>1441</ele>
        <time>2021-12-23T09:14:43Z</time>
      </trkpt>
      <trkpt lat="45.2713" lon="6.09609">
        <ele>1441</ele>
        <time>2021-12-23T09:14:44Z</time>
      </trkpt>
      <trkpt lat="45.2713" lon="6.09609">
        <ele>1441</ele>
        <time>2021-12-23T09:14:45Z</time>
      </trkpt>
      <trkpt lat="45.2713" lon="6.09609">
        <ele>1441</ele>
        <time>2021-12-23T09:14:46Z</time>
      </trkpt>
      <trkpt lat="45.27129" lon="6.0961">
        <ele>1441</ele>
        <time>2021-12-23T09:14:47Z</time>
      </trkpt>
      <trkpt lat="45.27129" lon="6.0961">
        <ele>1442</ele>
        <time>2021-12-23T09:14:48Z</time>
      </trkpt>
      <trkpt lat="45.27129" lon="6.0961">
        <ele>1442</ele>
        <time>2021-12-23T09:14:49Z</time>
      </trkpt>
      <trkpt lat="45.27129" lon="6.0961">
        <ele>1442</ele>
        <time>2021-12-23T09:14:50Z</time>
      </trkpt>
      <trkpt lat="45.27129" lon="6.0961">
        <ele>1442</ele>
        <time>2021-12-23T09:14:51Z</time>
      </trkpt>
      <trkpt lat="45.27129" lon="6.09611">
        <ele>1442</ele>
        <time>2021-12-23T09:14:53Z</time>
      </trkpt>
      <trkpt lat="45.27129" lon="6.09611">
        <ele>1442</ele>
        <time>2021-12-23T09:14:54Z</time>
      </trkpt>
      <trkpt lat="45.27129" lon="6.09611">
        <ele>1442</ele>
        <time>2021-12-23T09:14:55Z</time>
      </trkpt>
      <trkpt lat="45.27129" lon="6.09611">
        <ele>1442</ele>
        <time>2021-12-23T09:14:56Z</time>
      </trkpt>
      <trkpt lat="45.27128" lon="6.09611">
        <ele>1442</ele>
        <time>2021-12-23T09:14:57Z</time>
      </trkpt>
      <trkpt lat="45.27127" lon="6.09611">
        <ele>1442</ele>
        <time>2021-12-23T09:14:58Z</time>
      </trkpt>
      <trkpt lat="45.27127" lon="6.09611">
        <ele>1442</ele>
        <time>2021-12-23T09:14:59Z</time>
      </trkpt>
      <trkpt lat="45.27126" lon="6.09611">
        <ele>1442</ele>
        <time>2021-12-23T09:15:00Z</time>
      </trkpt>
      <trkpt lat="45.27125" lon="6.09611">
        <ele>1442</ele>
        <time>2021-12-23T09:15:01Z</time>
      </trkpt>
      <trkpt lat="45.27124" lon="6.09611">
        <ele>1442</ele>
        <time>2021-12-23T09:15:02Z</time>
      </trkpt>
      <trkpt lat="45.27124" lon="6.09611">
        <ele>1442</ele>
        <time>2021-12-23T09:15:03Z</time>
      </trkpt>
      <trkpt lat="45.27123" lon="6.09611">
        <ele>1442</ele>
        <time>2021-12-23T09:15:04Z</time>
      </trkpt>
      <trkpt lat="45.27122" lon="6.0961">
        <ele>1442</ele>
        <time>2021-12-23T09:15:05Z</time>
      </trkpt>
      <trkpt lat="45.27122" lon="6.0961">
        <ele>1441</ele>
        <time>2021-12-23T09:15:06Z</time>
      </trkpt>
      <trkpt lat="45.27121" lon="6.0961">
        <ele>1441</ele>
        <time>2021-12-23T09:15:07Z</time>
      </trkpt>
      <trkpt lat="45.2712" lon="6.0961">
        <ele>1441</ele>
        <time>2021-12-23T09:15:08Z</time>
      </trkpt>
      <trkpt lat="45.2712" lon="6.0961">
        <ele>1440</ele>
        <time>2021-12-23T09:15:09Z</time>
      </trkpt>
      <trkpt lat="45.27119" lon="6.0961">
        <ele>1440</ele>
        <time>2021-12-23T09:15:10Z</time>
      </trkpt>
      <trkpt lat="45.2712" lon="6.0961">
        <ele>1440</ele>
        <time>2021-12-23T09:15:12Z</time>
      </trkpt>
      <trkpt lat="45.27121" lon="6.09609">
        <ele>1440</ele>
        <time>2021-12-23T09:15:13Z</time>
      </trkpt>
      <trkpt lat="45.27122" lon="6.09609">
        <ele>1441</ele>
        <time>2021-12-23T09:15:14Z</time>
      </trkpt>
      <trkpt lat="45.27124" lon="6.09608">
        <ele>1441</ele>
        <time>2021-12-23T09:15:15Z</time>
      </trkpt>
      <trkpt lat="45.27125" lon="6.09608">
        <ele>1441</ele>
        <time>2021-12-23T09:15:16Z</time>
      </trkpt>
      <trkpt lat="45.27126" lon="6.09608">
        <ele>1441</ele>
        <time>2021-12-23T09:15:17Z</time>
      </trkpt>
      <trkpt lat="45.27127" lon="6.09607">
        <ele>1441</ele>
        <time>2021-12-23T09:15:18Z</time>
      </trkpt>
      <trkpt lat="45.27128" lon="6.09607">
        <ele>1441</ele>
        <time>2021-12-23T09:15:19Z</time>
      </trkpt>
      <trkpt lat="45.27127" lon="6.09606">
        <ele>1441</ele>
        <time>2021-12-23T09:15:20Z</time>
      </trkpt>
      <trkpt lat="45.27126" lon="6.09606">
        <ele>1441</ele>
        <time>2021-12-23T09:15:21Z</time>
      </trkpt>
      <trkpt lat="45.27125" lon="6.09605">
        <ele>1441</ele>
        <time>2021-12-23T09:15:22Z</time>
      </trkpt>
      <trkpt lat="45.27124" lon="6.09604">
        <ele>1441</ele>
        <time>2021-12-23T09:15:23Z</time>
      </trkpt>
      <trkpt lat="45.27123" lon="6.09604">
        <ele>1442</ele>
        <time>2021-12-23T09:15:24Z</time>
      </trkpt>
      <trkpt lat="45.27122" lon="6.09603">
        <ele>1442</ele>
        <time>2021-12-23T09:15:25Z</time>
      </trkpt>
      <trkpt lat="45.27121" lon="6.09603">
        <ele>1442</ele>
        <time>2021-12-23T09:15:26Z</time>
      </trkpt>
      <trkpt lat="45.2712" lon="6.09602">
        <ele>1442</ele>
        <time>2021-12-23T09:15:27Z</time>
      </trkpt>
      <trkpt lat="45.27119" lon="6.09602">
        <ele>1443</ele>
        <time>2021-12-23T09:15:28Z</time>
      </trkpt>
      <trkpt lat="45.27119" lon="6.09602">
        <ele>1443</ele>
        <time>2021-12-23T09:15:29Z</time>
      </trkpt>
      <trkpt lat="45.27119" lon="6.09602">
        <ele>1444</ele>
        <time>2021-12-23T09:15:31Z</time>
      </trkpt>
      <trkpt lat="45.27119" lon="6.09602">
        <ele>1444</ele>
        <time>2021-12-23T09:15:32Z</time>
      </trkpt>
      <trkpt lat="45.27119" lon="6.09602">
        <ele>1444</ele>
        <time>2021-12-23T09:15:33Z</time>
      </trkpt>
      <trkpt lat="45.27119" lon="6.09602">
        <ele>1444</ele>
        <time>2021-12-23T09:15:34Z</time>
      </trkpt>
      <trkpt lat="45.27119" lon="6.09602">
        <ele>1444</ele>
        <time>2021-12-23T09:15:35Z</time>
      </trkpt>
      <trkpt lat="45.27119" lon="6.09602">
        <ele>1444</ele>
        <time>2021-12-23T09:15:36Z</time>
      </trkpt>
      <trkpt lat="45.27111" lon="6.09609">
        <ele>1444</ele>
        <time>2021-12-23T09:15:37Z</time>
      </trkpt>
      <trkpt lat="45.27111" lon="6.09609">
        <ele>1444</ele>
        <time>2021-12-23T09:15:39Z</time>
      </trkpt>
      <trkpt lat="45.27109" lon="6.09611">
        <ele>1444</ele>
        <time>2021-12-23T09:15:40Z</time>
      </trkpt>
      <trkpt lat="45.27108" lon="6.09612">
        <ele>1444</ele>
        <time>2021-12-23T09:15:41Z</time>
      </trkpt>
      <trkpt lat="45.27107" lon="6.09614">
        <ele>1444</ele>
        <time>2021-12-23T09:15:42Z</time>
      </trkpt>
      <trkpt lat="45.27105" lon="6.09616">
        <ele>1444</ele>
        <time>2021-12-23T09:15:43Z</time>
      </trkpt>
      <trkpt lat="45.27104" lon="6.09617">
        <ele>1444</ele>
        <time>2021-12-23T09:15:44Z</time>
      </trkpt>
      <trkpt lat="45.27103" lon="6.09619">
        <ele>1444</ele>
        <time>2021-12-23T09:15:45Z</time>
      </trkpt>
      <trkpt lat="45.27101" lon="6.09619">
        <ele>1444</ele>
        <time>2021-12-23T09:15:46Z</time>
      </trkpt>
      <trkpt lat="45.27099" lon="6.0962">
        <ele>1444</ele>
        <time>2021-12-23T09:15:47Z</time>
      </trkpt>
      <trkpt lat="45.27097" lon="6.0962">
        <ele>1444</ele>
        <time>2021-12-23T09:15:48Z</time>
      </trkpt>
      <trkpt lat="45.27095" lon="6.0962">
        <ele>1444</ele>
        <time>2021-12-23T09:15:49Z</time>
      </trkpt>
      <trkpt lat="45.27094" lon="6.0962">
        <ele>1445</ele>
        <time>2021-12-23T09:15:50Z</time>
      </trkpt>
      <trkpt lat="45.27092" lon="6.0962">
        <ele>1445</ele>
        <time>2021-12-23T09:15:51Z</time>
      </trkpt>
      <trkpt lat="45.27091" lon="6.0962">
        <ele>1445</ele>
        <time>2021-12-23T09:15:52Z</time>
      </trkpt>
      <trkpt lat="45.27089" lon="6.0962">
        <ele>1445</ele>
        <time>2021-12-23T09:15:53Z</time>
      </trkpt>
      <trkpt lat="45.27088" lon="6.0962">
        <ele>1445</ele>
        <time>2021-12-23T09:15:54Z</time>
      </trkpt>
      <trkpt lat="45.27086" lon="6.0962">
        <ele>1445</ele>
        <time>2021-12-23T09:15:55Z</time>
      </trkpt>
      <trkpt lat="45.27085" lon="6.09619">
        <ele>1445</ele>
        <time>2021-12-23T09:15:56Z</time>
      </trkpt>
      <trkpt lat="45.27084" lon="6.09619">
        <ele>1444</ele>
        <time>2021-12-23T09:15:57Z</time>
      </trkpt>
      <trkpt lat="45.27084" lon="6.09619">
        <ele>1442</ele>
        <time>2021-12-23T09:15:59Z</time>
      </trkpt>
      <trkpt lat="45.27074" lon="6.09623">
        <ele>1441</ele>
        <time>2021-12-23T09:16:01Z</time>
      </trkpt>
      <trkpt lat="45.27074" lon="6.09623">
        <ele>1441</ele>
        <time>2021-12-23T09:16:02Z</time>
      </trkpt>
      <trkpt lat="45.27074" lon="6.09623">
        <ele>1440</ele>
        <time>2021-12-23T09:16:03Z</time>
      </trkpt>
      <trkpt lat="45.27074" lon="6.09623">
        <ele>1440</ele>
        <time>2021-12-23T09:16:04Z</time>
      </trkpt>
      <trkpt lat="45.27074" lon="6.09623">
        <ele>1440</ele>
        <time>2021-12-23T09:16:05Z</time>
      </trkpt>
      <trkpt lat="45.27074" lon="6.09623">
        <ele>1440</ele>
        <time>2021-12-23T09:16:06Z</time>
      </trkpt>
      <trkpt lat="45.27061" lon="6.09627">
        <ele>1440</ele>
        <time>2021-12-23T09:16:07Z</time>
      </trkpt>
      <trkpt lat="45.27061" lon="6.09627">
        <ele>1440</ele>
        <time>2021-12-23T09:16:09Z</time>
      </trkpt>
      <trkpt lat="45.2706" lon="6.09627">
        <ele>1440</ele>
        <time>2021-12-23T09:16:10Z</time>
      </trkpt>
      <trkpt lat="45.2706" lon="6.09628">
        <ele>1441</ele>
        <time>2021-12-23T09:16:11Z</time>
      </trkpt>
      <trkpt lat="45.27059" lon="6.09629">
        <ele>1441</ele>
        <time>2021-12-23T09:16:12Z</time>
      </trkpt>
      <trkpt lat="45.27059" lon="6.09629">
        <ele>1441</ele>
        <time>2021-12-23T09:16:13Z</time>
      </trkpt>
      <trkpt lat="45.27059" lon="6.0963">
        <ele>1441</ele>
        <time>2021-12-23T09:16:14Z</time>
      </trkpt>
      <trkpt lat="45.27058" lon="6.0963">
        <ele>1441</ele>
        <time>2021-12-23T09:16:15Z</time>
      </trkpt>
      <trkpt lat="45.27058" lon="6.09631">
        <ele>1441</ele>
        <time>2021-12-23T09:16:16Z</time>
      </trkpt>
      <trkpt lat="45.27057" lon="6.09632">
        <ele>1441</ele>
        <time>2021-12-23T09:16:17Z</time>
      </trkpt>
      <trkpt lat="45.27057" lon="6.09632">
        <ele>1441</ele>
        <time>2021-12-23T09:16:18Z</time>
      </trkpt>
      <trkpt lat="45.27056" lon="6.09633">
        <ele>1441</ele>
        <time>2021-12-23T09:16:19Z</time>
      </trkpt>
      <trkpt lat="45.27056" lon="6.09633">
        <ele>1441</ele>
        <time>2021-12-23T09:16:20Z</time>
      </trkpt>
      <trkpt lat="45.27055" lon="6.09634">
        <ele>1440</ele>
        <time>2021-12-23T09:16:21Z</time>
      </trkpt>
      <trkpt lat="45.27055" lon="6.09635">
        <ele>1440</ele>
        <time>2021-12-23T09:16:22Z</time>
      </trkpt>
      <trkpt lat="45.27054" lon="6.09635">
        <ele>1441</ele>
        <time>2021-12-23T09:16:23Z</time>
      </trkpt>
      <trkpt lat="45.27054" lon="6.09636">
        <ele>1441</ele>
        <time>2021-12-23T09:16:24Z</time>
      </trkpt>
      <trkpt lat="45.27054" lon="6.09636">
        <ele>1441</ele>
        <time>2021-12-23T09:16:25Z</time>
      </trkpt>
      <trkpt lat="45.27052" lon="6.09638">
        <ele>1441</ele>
        <time>2021-12-23T09:16:26Z</time>
      </trkpt>
      <trkpt lat="45.27051" lon="6.09639">
        <ele>1441</ele>
        <time>2021-12-23T09:16:28Z</time>
      </trkpt>
      <trkpt lat="45.2705" lon="6.09641">
        <ele>1441</ele>
        <time>2021-12-23T09:16:29Z</time>
      </trkpt>
      <trkpt lat="45.27049" lon="6.09642">
        <ele>1441</ele>
        <time>2021-12-23T09:16:30Z</time>
      </trkpt>
      <trkpt lat="45.27047" lon="6.09643">
        <ele>1441</ele>
        <time>2021-12-23T09:16:31Z</time>
      </trkpt>
      <trkpt lat="45.27046" lon="6.09645">
        <ele>1441</ele>
        <time>2021-12-23T09:16:32Z</time>
      </trkpt>
      <trkpt lat="45.27045" lon="6.09646">
        <ele>1441</ele>
        <time>2021-12-23T09:16:33Z</time>
      </trkpt>
      <trkpt lat="45.27044" lon="6.09648">
        <ele>1442</ele>
        <time>2021-12-23T09:16:34Z</time>
      </trkpt>
      <trkpt lat="45.27042" lon="6.09649">
        <ele>1442</ele>
        <time>2021-12-23T09:16:35Z</time>
      </trkpt>
      <trkpt lat="45.27041" lon="6.09651">
        <ele>1442</ele>
        <time>2021-12-23T09:16:36Z</time>
      </trkpt>
      <trkpt lat="45.2704" lon="6.09652">
        <ele>1442</ele>
        <time>2021-12-23T09:16:37Z</time>
      </trkpt>
      <trkpt lat="45.2704" lon="6.09653">
        <ele>1442</ele>
        <time>2021-12-23T09:16:38Z</time>
      </trkpt>
      <trkpt lat="45.27039" lon="6.09654">
        <ele>1442</ele>
        <time>2021-12-23T09:16:39Z</time>
      </trkpt>
      <trkpt lat="45.27039" lon="6.09655">
        <ele>1442</ele>
        <time>2021-12-23T09:16:40Z</time>
      </trkpt>
      <trkpt lat="45.27039" lon="6.09656">
        <ele>1442</ele>
        <time>2021-12-23T09:16:41Z</time>
      </trkpt>
      <trkpt lat="45.27039" lon="6.09656">
        <ele>1442</ele>
        <time>2021-12-23T09:16:42Z</time>
      </trkpt>
      <trkpt lat="45.27038" lon="6.09657">
        <ele>1442</ele>
        <time>2021-12-23T09:16:43Z</time>
      </trkpt>
      <trkpt lat="45.27038" lon="6.09658">
        <ele>1442</ele>
        <time>2021-12-23T09:16:44Z</time>
      </trkpt>
      <trkpt lat="45.27038" lon="6.09659">
        <ele>1442</ele>
        <time>2021-12-23T09:16:45Z</time>
      </trkpt>
      <trkpt lat="45.27037" lon="6.0966">
        <ele>1442</ele>
        <time>2021-12-23T09:16:47Z</time>
      </trkpt>
      <trkpt lat="45.27037" lon="6.09661">
        <ele>1442</ele>
        <time>2021-12-23T09:16:48Z</time>
      </trkpt>
      <trkpt lat="45.27037" lon="6.09662">
        <ele>1442</ele>
        <time>2021-12-23T09:16:49Z</time>
      </trkpt>
      <trkpt lat="45.27036" lon="6.09662">
        <ele>1442</ele>
        <time>2021-12-23T09:16:50Z</time>
      </trkpt>
      <trkpt lat="45.27036" lon="6.09663">
        <ele>1442</ele>
        <time>2021-12-23T09:16:51Z</time>
      </trkpt>
      <trkpt lat="45.27036" lon="6.09664">
        <ele>1442</ele>
        <time>2021-12-23T09:16:52Z</time>
      </trkpt>
      <trkpt lat="45.27036" lon="6.09665">
        <ele>1442</ele>
        <time>2021-12-23T09:16:54Z</time>
      </trkpt>
      <trkpt lat="45.27035" lon="6.09666">
        <ele>1442</ele>
        <time>2021-12-23T09:16:55Z</time>
      </trkpt>
      <trkpt lat="45.27035" lon="6.09667">
        <ele>1442</ele>
        <time>2021-12-23T09:16:56Z</time>
      </trkpt>
      <trkpt lat="45.27035" lon="6.09668">
        <ele>1442</ele>
        <time>2021-12-23T09:16:57Z</time>
      </trkpt>
      <trkpt lat="45.27034" lon="6.09669">
        <ele>1442</ele>
        <time>2021-12-23T09:16:58Z</time>
      </trkpt>
      <trkpt lat="45.27034" lon="6.0967">
        <ele>1442</ele>
        <time>2021-12-23T09:16:59Z</time>
      </trkpt>
      <trkpt lat="45.27034" lon="6.09672">
        <ele>1442</ele>
        <time>2021-12-23T09:17:00Z</time>
      </trkpt>
      <trkpt lat="45.27034" lon="6.09673">
        <ele>1443</ele>
        <time>2021-12-23T09:17:01Z</time>
      </trkpt>
      <trkpt lat="45.27033" lon="6.09675">
        <ele>1443</ele>
        <time>2021-12-23T09:17:02Z</time>
      </trkpt>
      <trkpt lat="45.27033" lon="6.09676">
        <ele>1443</ele>
        <time>2021-12-23T09:17:03Z</time>
      </trkpt>
      <trkpt lat="45.27033" lon="6.09678">
        <ele>1443</ele>
        <time>2021-12-23T09:17:04Z</time>
      </trkpt>
      <trkpt lat="45.27033" lon="6.09679">
        <ele>1443</ele>
        <time>2021-12-23T09:17:05Z</time>
      </trkpt>
      <trkpt lat="45.27032" lon="6.09681">
        <ele>1443</ele>
        <time>2021-12-23T09:17:06Z</time>
      </trkpt>
      <trkpt lat="45.27032" lon="6.09682">
        <ele>1443</ele>
        <time>2021-12-23T09:17:07Z</time>
      </trkpt>
      <trkpt lat="45.27031" lon="6.09684">
        <ele>1443</ele>
        <time>2021-12-23T09:17:08Z</time>
      </trkpt>
      <trkpt lat="45.2703" lon="6.09685">
        <ele>1443</ele>
        <time>2021-12-23T09:17:09Z</time>
      </trkpt>
      <trkpt lat="45.2703" lon="6.09686">
        <ele>1444</ele>
        <time>2021-12-23T09:17:10Z</time>
      </trkpt>
      <trkpt lat="45.27029" lon="6.09688">
        <ele>1444</ele>
        <time>2021-12-23T09:17:11Z</time>
      </trkpt>
      <trkpt lat="45.27028" lon="6.09689">
        <ele>1444</ele>
        <time>2021-12-23T09:17:12Z</time>
      </trkpt>
      <trkpt lat="45.27028" lon="6.09691">
        <ele>1444</ele>
        <time>2021-12-23T09:17:13Z</time>
      </trkpt>
      <trkpt lat="45.27027" lon="6.09692">
        <ele>1444</ele>
        <time>2021-12-23T09:17:14Z</time>
      </trkpt>
      <trkpt lat="45.27027" lon="6.09694">
        <ele>1444</ele>
        <time>2021-12-23T09:17:15Z</time>
      </trkpt>
      <trkpt lat="45.27027" lon="6.09696">
        <ele>1444</ele>
        <time>2021-12-23T09:17:17Z</time>
      </trkpt>
      <trkpt lat="45.27026" lon="6.09698">
        <ele>1444</ele>
        <time>2021-12-23T09:17:18Z</time>
      </trkpt>
      <trkpt lat="45.27026" lon="6.097">
        <ele>1445</ele>
        <time>2021-12-23T09:17:19Z</time>
      </trkpt>
      <trkpt lat="45.27026" lon="6.09702">
        <ele>1445</ele>
        <time>2021-12-23T09:17:20Z</time>
      </trkpt>
      <trkpt lat="45.27026" lon="6.09703">
        <ele>1445</ele>
        <time>2021-12-23T09:17:21Z</time>
      </trkpt>
      <trkpt lat="45.27026" lon="6.09705">
        <ele>1445</ele>
        <time>2021-12-23T09:17:22Z</time>
      </trkpt>
      <trkpt lat="45.27025" lon="6.09707">
        <ele>1446</ele>
        <time>2021-12-23T09:17:23Z</time>
      </trkpt>
      <trkpt lat="45.27025" lon="6.09709">
        <ele>1447</ele>
        <time>2021-12-23T09:17:25Z</time>
      </trkpt>
      <trkpt lat="45.27025" lon="6.0971">
        <ele>1447</ele>
        <time>2021-12-23T09:17:26Z</time>
      </trkpt>
      <trkpt lat="45.27024" lon="6.09712">
        <ele>1447</ele>
        <time>2021-12-23T09:17:27Z</time>
      </trkpt>
      <trkpt lat="45.27024" lon="6.09713">
        <ele>1447</ele>
        <time>2021-12-23T09:17:28Z</time>
      </trkpt>
      <trkpt lat="45.27023" lon="6.09715">
        <ele>1447</ele>
        <time>2021-12-23T09:17:29Z</time>
      </trkpt>
      <trkpt lat="45.27023" lon="6.09716">
        <ele>1447</ele>
        <time>2021-12-23T09:17:30Z</time>
      </trkpt>
      <trkpt lat="45.27023" lon="6.09718">
        <ele>1447</ele>
        <time>2021-12-23T09:17:31Z</time>
      </trkpt>
      <trkpt lat="45.27022" lon="6.09719">
        <ele>1447</ele>
        <time>2021-12-23T09:17:32Z</time>
      </trkpt>
      <trkpt lat="45.27022" lon="6.0972">
        <ele>1448</ele>
        <time>2021-12-23T09:17:33Z</time>
      </trkpt>
      <trkpt lat="45.27021" lon="6.09721">
        <ele>1448</ele>
        <time>2021-12-23T09:17:34Z</time>
      </trkpt>
      <trkpt lat="45.27021" lon="6.09722">
        <ele>1448</ele>
        <time>2021-12-23T09:17:35Z</time>
      </trkpt>
      <trkpt lat="45.2702" lon="6.09723">
        <ele>1448</ele>
        <time>2021-12-23T09:17:36Z</time>
      </trkpt>
      <trkpt lat="45.2702" lon="6.09724">
        <ele>1448</ele>
        <time>2021-12-23T09:17:37Z</time>
      </trkpt>
      <trkpt lat="45.2702" lon="6.09725">
        <ele>1449</ele>
        <time>2021-12-23T09:17:38Z</time>
      </trkpt>
      <trkpt lat="45.27019" lon="6.09726">
        <ele>1449</ele>
        <time>2021-12-23T09:17:39Z</time>
      </trkpt>
      <trkpt lat="45.27019" lon="6.09727">
        <ele>1449</ele>
        <time>2021-12-23T09:17:40Z</time>
      </trkpt>
      <trkpt lat="45.27018" lon="6.09728">
        <ele>1449</ele>
        <time>2021-12-23T09:17:41Z</time>
      </trkpt>
      <trkpt lat="45.27018" lon="6.09729">
        <ele>1449</ele>
        <time>2021-12-23T09:17:42Z</time>
      </trkpt>
      <trkpt lat="45.27017" lon="6.0973">
        <ele>1450</ele>
        <time>2021-12-23T09:17:44Z</time>
      </trkpt>
      <trkpt lat="45.27017" lon="6.09731">
        <ele>1450</ele>
        <time>2021-12-23T09:17:45Z</time>
      </trkpt>
      <trkpt lat="45.27017" lon="6.09732">
        <ele>1450</ele>
        <time>2021-12-23T09:17:46Z</time>
      </trkpt>
      <trkpt lat="45.27016" lon="6.09733">
        <ele>1450</ele>
        <time>2021-12-23T09:17:47Z</time>
      </trkpt>
      <trkpt lat="45.27015" lon="6.09735">
        <ele>1450</ele>
        <time>2021-12-23T09:17:48Z</time>
      </trkpt>
      <trkpt lat="45.27015" lon="6.09737">
        <ele>1450</ele>
        <time>2021-12-23T09:17:49Z</time>
      </trkpt>
      <trkpt lat="45.27014" lon="6.09739">
        <ele>1450</ele>
        <time>2021-12-23T09:17:50Z</time>
      </trkpt>
      <trkpt lat="45.27013" lon="6.0974">
        <ele>1450</ele>
        <time>2021-12-23T09:17:51Z</time>
      </trkpt>
      <trkpt lat="45.27013" lon="6.09742">
        <ele>1450</ele>
        <time>2021-12-23T09:17:52Z</time>
      </trkpt>
      <trkpt lat="45.27012" lon="6.09744">
        <ele>1450</ele>
        <time>2021-12-23T09:17:53Z</time>
      </trkpt>
      <trkpt lat="45.27011" lon="6.09746">
        <ele>1450</ele>
        <time>2021-12-23T09:17:54Z</time>
      </trkpt>
      <trkpt lat="45.2701" lon="6.09748">
        <ele>1450</ele>
        <time>2021-12-23T09:17:55Z</time>
      </trkpt>
      <trkpt lat="45.27008" lon="6.0975">
        <ele>1450</ele>
        <time>2021-12-23T09:17:56Z</time>
      </trkpt>
      <trkpt lat="45.27007" lon="6.09752">
        <ele>1450</ele>
        <time>2021-12-23T09:17:57Z</time>
      </trkpt>
      <trkpt lat="45.27005" lon="6.09754">
        <ele>1450</ele>
        <time>2021-12-23T09:17:58Z</time>
      </trkpt>
      <trkpt lat="45.27003" lon="6.09756">
        <ele>1449</ele>
        <time>2021-12-23T09:17:59Z</time>
      </trkpt>
      <trkpt lat="45.27002" lon="6.09759">
        <ele>1449</ele>
        <time>2021-12-23T09:18:00Z</time>
      </trkpt>
      <trkpt lat="45.27001" lon="6.09762">
        <ele>1449</ele>
        <time>2021-12-23T09:18:01Z</time>
      </trkpt>
      <trkpt lat="45.27" lon="6.09766">
        <ele>1448</ele>
        <time>2021-12-23T09:18:03Z</time>
      </trkpt>
      <trkpt lat="45.27" lon="6.09769">
        <ele>1448</ele>
        <time>2021-12-23T09:18:04Z</time>
      </trkpt>
      <trkpt lat="45.26999" lon="6.0977">
        <ele>1448</ele>
        <time>2021-12-23T09:18:05Z</time>
      </trkpt>
      <trkpt lat="45.26998" lon="6.09771">
        <ele>1448</ele>
        <time>2021-12-23T09:18:06Z</time>
      </trkpt>
      <trkpt lat="45.26997" lon="6.09772">
        <ele>1448</ele>
        <time>2021-12-23T09:18:07Z</time>
      </trkpt>
      <trkpt lat="45.26996" lon="6.09774">
        <ele>1448</ele>
        <time>2021-12-23T09:18:08Z</time>
      </trkpt>
      <trkpt lat="45.26995" lon="6.09775">
        <ele>1448</ele>
        <time>2021-12-23T09:18:09Z</time>
      </trkpt>
      <trkpt lat="45.26994" lon="6.09776">
        <ele>1448</ele>
        <time>2021-12-23T09:18:10Z</time>
      </trkpt>
      <trkpt lat="45.26994" lon="6.09777">
        <ele>1448</ele>
        <time>2021-12-23T09:18:11Z</time>
      </trkpt>
      <trkpt lat="45.26993" lon="6.09778">
        <ele>1448</ele>
        <time>2021-12-23T09:18:12Z</time>
      </trkpt>
      <trkpt lat="45.26993" lon="6.09778">
        <ele>1448</ele>
        <time>2021-12-23T09:18:13Z</time>
      </trkpt>
      <trkpt lat="45.26993" lon="6.09778">
        <ele>1448</ele>
        <time>2021-12-23T09:18:14Z</time>
      </trkpt>
      <trkpt lat="45.26993" lon="6.09778">
        <ele>1448</ele>
        <time>2021-12-23T09:18:15Z</time>
      </trkpt>
      <trkpt lat="45.26993" lon="6.09778">
        <ele>1449</ele>
        <time>2021-12-23T09:18:16Z</time>
      </trkpt>
      <trkpt lat="45.26993" lon="6.09778">
        <ele>1449</ele>
        <time>2021-12-23T09:18:17Z</time>
      </trkpt>
      <trkpt lat="45.26993" lon="6.09778">
        <ele>1449</ele>
        <time>2021-12-23T09:18:18Z</time>
      </trkpt>
      <trkpt lat="45.26993" lon="6.09778">
        <ele>1450</ele>
        <time>2021-12-23T09:18:20Z</time>
      </trkpt>
      <trkpt lat="45.26985" lon="6.09795">
        <ele>1450</ele>
        <time>2021-12-23T09:18:22Z</time>
      </trkpt>
      <trkpt lat="45.26985" lon="6.09795">
        <ele>1449</ele>
        <time>2021-12-23T09:18:24Z</time>
      </trkpt>
      <trkpt lat="45.26984" lon="6.09796">
        <ele>1449</ele>
        <time>2021-12-23T09:18:25Z</time>
      </trkpt>
      <trkpt lat="45.26983" lon="6.09798">
        <ele>1450</ele>
        <time>2021-12-23T09:18:26Z</time>
      </trkpt>
      <trkpt lat="45.26982" lon="6.098">
        <ele>1450</ele>
        <time>2021-12-23T09:18:27Z</time>
      </trkpt>
      <trkpt lat="45.26982" lon="6.09801">
        <ele>1450</ele>
        <time>2021-12-23T09:18:28Z</time>
      </trkpt>
      <trkpt lat="45.26981" lon="6.09803">
        <ele>1450</ele>
        <time>2021-12-23T09:18:29Z</time>
      </trkpt>
      <trkpt lat="45.2698" lon="6.09804">
        <ele>1450</ele>
        <time>2021-12-23T09:18:30Z</time>
      </trkpt>
      <trkpt lat="45.26979" lon="6.09806">
        <ele>1450</ele>
        <time>2021-12-23T09:18:31Z</time>
      </trkpt>
      <trkpt lat="45.26978" lon="6.09807">
        <ele>1450</ele>
        <time>2021-12-23T09:18:32Z</time>
      </trkpt>
      <trkpt lat="45.26977" lon="6.09808">
        <ele>1451</ele>
        <time>2021-12-23T09:18:33Z</time>
      </trkpt>
      <trkpt lat="45.26977" lon="6.09809">
        <ele>1451</ele>
        <time>2021-12-23T09:18:34Z</time>
      </trkpt>
      <trkpt lat="45.26976" lon="6.09811">
        <ele>1451</ele>
        <time>2021-12-23T09:18:35Z</time>
      </trkpt>
      <trkpt lat="45.26975" lon="6.09812">
        <ele>1451</ele>
        <time>2021-12-23T09:18:36Z</time>
      </trkpt>
      <trkpt lat="45.26974" lon="6.09813">
        <ele>1451</ele>
        <time>2021-12-23T09:18:37Z</time>
      </trkpt>
      <trkpt lat="45.26973" lon="6.09814">
        <ele>1451</ele>
        <time>2021-12-23T09:18:38Z</time>
      </trkpt>
      <trkpt lat="45.26973" lon="6.09815">
        <ele>1451</ele>
        <time>2021-12-23T09:18:39Z</time>
      </trkpt>
      <trkpt lat="45.26973" lon="6.09815">
        <ele>1451</ele>
        <time>2021-12-23T09:18:41Z</time>
      </trkpt>
      <trkpt lat="45.26973" lon="6.09815">
        <ele>1451</ele>
        <time>2021-12-23T09:18:42Z</time>
      </trkpt>
      <trkpt lat="45.26973" lon="6.09815">
        <ele>1451</ele>
        <time>2021-12-23T09:18:43Z</time>
      </trkpt>
      <trkpt lat="45.26973" lon="6.09815">
        <ele>1451</ele>
        <time>2021-12-23T09:18:44Z</time>
      </trkpt>
      <trkpt lat="45.26973" lon="6.09815">
        <ele>1451</ele>
        <time>2021-12-23T09:18:45Z</time>
      </trkpt>
      <trkpt lat="45.26973" lon="6.09815">
        <ele>1451</ele>
        <time>2021-12-23T09:18:46Z</time>
      </trkpt>
      <trkpt lat="45.26973" lon="6.09815">
        <ele>1451</ele>
        <time>2021-12-23T09:18:47Z</time>
      </trkpt>
      <trkpt lat="45.26973" lon="6.09815">
        <ele>1451</ele>
        <time>2021-12-23T09:18:48Z</time>
      </trkpt>
      <trkpt lat="45.26973" lon="6.09815">
        <ele>1452</ele>
        <time>2021-12-23T09:18:49Z</time>
      </trkpt>
      <trkpt lat="45.26973" lon="6.09815">
        <ele>1452</ele>
        <time>2021-12-23T09:18:50Z</time>
      </trkpt>
      <trkpt lat="45.26965" lon="6.09824">
        <ele>1452</ele>
        <time>2021-12-23T09:18:51Z</time>
      </trkpt>
      <trkpt lat="45.26965" lon="6.09824">
        <ele>1452</ele>
        <time>2021-12-23T09:18:53Z</time>
      </trkpt>
      <trkpt lat="45.26964" lon="6.09826">
        <ele>1452</ele>
        <time>2021-12-23T09:18:54Z</time>
      </trkpt>
      <trkpt lat="45.26964" lon="6.09827">
        <ele>1453</ele>
        <time>2021-12-23T09:18:55Z</time>
      </trkpt>
      <trkpt lat="45.26963" lon="6.09829">
        <ele>1453</ele>
        <time>2021-12-23T09:18:56Z</time>
      </trkpt>
      <trkpt lat="45.26962" lon="6.0983">
        <ele>1453</ele>
        <time>2021-12-23T09:18:57Z</time>
      </trkpt>
      <trkpt lat="45.26962" lon="6.09832">
        <ele>1453</ele>
        <time>2021-12-23T09:18:58Z</time>
      </trkpt>
      <trkpt lat="45.26961" lon="6.09834">
        <ele>1453</ele>
        <time>2021-12-23T09:19:00Z</time>
      </trkpt>
      <trkpt lat="45.2696" lon="6.09835">
        <ele>1453</ele>
        <time>2021-12-23T09:19:01Z</time>
      </trkpt>
      <trkpt lat="45.2696" lon="6.09837">
        <ele>1453</ele>
        <time>2021-12-23T09:19:02Z</time>
      </trkpt>
      <trkpt lat="45.26959" lon="6.09839">
        <ele>1454</ele>
        <time>2021-12-23T09:19:03Z</time>
      </trkpt>
      <trkpt lat="45.26959" lon="6.0984">
        <ele>1454</ele>
        <time>2021-12-23T09:19:04Z</time>
      </trkpt>
      <trkpt lat="45.26958" lon="6.09841">
        <ele>1454</ele>
        <time>2021-12-23T09:19:05Z</time>
      </trkpt>
      <trkpt lat="45.26958" lon="6.09842">
        <ele>1454</ele>
        <time>2021-12-23T09:19:06Z</time>
      </trkpt>
      <trkpt lat="45.26958" lon="6.09844">
        <ele>1454</ele>
        <time>2021-12-23T09:19:07Z</time>
      </trkpt>
      <trkpt lat="45.26957" lon="6.09845">
        <ele>1454</ele>
        <time>2021-12-23T09:19:08Z</time>
      </trkpt>
      <trkpt lat="45.26957" lon="6.09846">
        <ele>1454</ele>
        <time>2021-12-23T09:19:09Z</time>
      </trkpt>
      <trkpt lat="45.26957" lon="6.09847">
        <ele>1454</ele>
        <time>2021-12-23T09:19:10Z</time>
      </trkpt>
      <trkpt lat="45.26956" lon="6.09849">
        <ele>1454</ele>
        <time>2021-12-23T09:19:11Z</time>
      </trkpt>
      <trkpt lat="45.26956" lon="6.0985">
        <ele>1454</ele>
        <time>2021-12-23T09:19:12Z</time>
      </trkpt>
      <trkpt lat="45.26956" lon="6.09851">
        <ele>1455</ele>
        <time>2021-12-23T09:19:13Z</time>
      </trkpt>
      <trkpt lat="45.26955" lon="6.09853">
        <ele>1455</ele>
        <time>2021-12-23T09:19:14Z</time>
      </trkpt>
      <trkpt lat="45.26954" lon="6.09854">
        <ele>1455</ele>
        <time>2021-12-23T09:19:15Z</time>
      </trkpt>
      <trkpt lat="45.26953" lon="6.09856">
        <ele>1455</ele>
        <time>2021-12-23T09:19:16Z</time>
      </trkpt>
      <trkpt lat="45.26952" lon="6.09858">
        <ele>1455</ele>
        <time>2021-12-23T09:19:17Z</time>
      </trkpt>
      <trkpt lat="45.26951" lon="6.0986">
        <ele>1455</ele>
        <time>2021-12-23T09:19:19Z</time>
      </trkpt>
      <trkpt lat="45.2695" lon="6.09861">
        <ele>1455</ele>
        <time>2021-12-23T09:19:20Z</time>
      </trkpt>
      <trkpt lat="45.2695" lon="6.09862">
        <ele>1455</ele>
        <time>2021-12-23T09:19:21Z</time>
      </trkpt>
      <trkpt lat="45.2695" lon="6.09864">
        <ele>1455</ele>
        <time>2021-12-23T09:19:22Z</time>
      </trkpt>
      <trkpt lat="45.2695" lon="6.09865">
        <ele>1455</ele>
        <time>2021-12-23T09:19:23Z</time>
      </trkpt>
      <trkpt lat="45.2695" lon="6.09866">
        <ele>1455</ele>
        <time>2021-12-23T09:19:25Z</time>
      </trkpt>
      <trkpt lat="45.2695" lon="6.09867">
        <ele>1456</ele>
        <time>2021-12-23T09:19:26Z</time>
      </trkpt>
      <trkpt lat="45.2695" lon="6.09868">
        <ele>1457</ele>
        <time>2021-12-23T09:19:27Z</time>
      </trkpt>
      <trkpt lat="45.2695" lon="6.09869">
        <ele>1457</ele>
        <time>2021-12-23T09:19:28Z</time>
      </trkpt>
      <trkpt lat="45.26951" lon="6.09871">
        <ele>1457</ele>
        <time>2021-12-23T09:19:29Z</time>
      </trkpt>
      <trkpt lat="45.26951" lon="6.09872">
        <ele>1457</ele>
        <time>2021-12-23T09:19:30Z</time>
      </trkpt>
      <trkpt lat="45.26951" lon="6.09873">
        <ele>1457</ele>
        <time>2021-12-23T09:19:31Z</time>
      </trkpt>
      <trkpt lat="45.26951" lon="6.09874">
        <ele>1458</ele>
        <time>2021-12-23T09:19:32Z</time>
      </trkpt>
      <trkpt lat="45.26951" lon="6.09875">
        <ele>1458</ele>
        <time>2021-12-23T09:19:33Z</time>
      </trkpt>
      <trkpt lat="45.2695" lon="6.09877">
        <ele>1458</ele>
        <time>2021-12-23T09:19:34Z</time>
      </trkpt>
      <trkpt lat="45.26949" lon="6.09878">
        <ele>1458</ele>
        <time>2021-12-23T09:19:35Z</time>
      </trkpt>
      <trkpt lat="45.26947" lon="6.09879">
        <ele>1458</ele>
        <time>2021-12-23T09:19:36Z</time>
      </trkpt>
      <trkpt lat="45.26946" lon="6.09881">
        <ele>1458</ele>
        <time>2021-12-23T09:19:38Z</time>
      </trkpt>
      <trkpt lat="45.26945" lon="6.09882">
        <ele>1458</ele>
        <time>2021-12-23T09:19:39Z</time>
      </trkpt>
      <trkpt lat="45.26944" lon="6.09883">
        <ele>1458</ele>
        <time>2021-12-23T09:19:40Z</time>
      </trkpt>
      <trkpt lat="45.26943" lon="6.09884">
        <ele>1458</ele>
        <time>2021-12-23T09:19:41Z</time>
      </trkpt>
      <trkpt lat="45.26943" lon="6.09885">
        <ele>1458</ele>
        <time>2021-12-23T09:19:42Z</time>
      </trkpt>
      <trkpt lat="45.26942" lon="6.09885">
        <ele>1458</ele>
        <time>2021-12-23T09:19:43Z</time>
      </trkpt>
      <trkpt lat="45.26942" lon="6.09886">
        <ele>1458</ele>
        <time>2021-12-23T09:19:44Z</time>
      </trkpt>
      <trkpt lat="45.26941" lon="6.09886">
        <ele>1458</ele>
        <time>2021-12-23T09:19:45Z</time>
      </trkpt>
      <trkpt lat="45.26941" lon="6.09887">
        <ele>1458</ele>
        <time>2021-12-23T09:19:46Z</time>
      </trkpt>
      <trkpt lat="45.2694" lon="6.09888">
        <ele>1457</ele>
        <time>2021-12-23T09:19:47Z</time>
      </trkpt>
      <trkpt lat="45.2694" lon="6.09888">
        <ele>1458</ele>
        <time>2021-12-23T09:19:48Z</time>
      </trkpt>
      <trkpt lat="45.26939" lon="6.09889">
        <ele>1458</ele>
        <time>2021-12-23T09:19:49Z</time>
      </trkpt>
      <trkpt lat="45.26939" lon="6.09889">
        <ele>1458</ele>
        <time>2021-12-23T09:19:50Z</time>
      </trkpt>
      <trkpt lat="45.26938" lon="6.0989">
        <ele>1459</ele>
        <time>2021-12-23T09:19:51Z</time>
      </trkpt>
      <trkpt lat="45.26938" lon="6.09891">
        <ele>1459</ele>
        <time>2021-12-23T09:19:52Z</time>
      </trkpt>
      <trkpt lat="45.26937" lon="6.09891">
        <ele>1459</ele>
        <time>2021-12-23T09:19:53Z</time>
      </trkpt>
      <trkpt lat="45.26931" lon="6.09901">
        <ele>1459</ele>
        <time>2021-12-23T09:19:54Z</time>
      </trkpt>
      <trkpt lat="45.2693" lon="6.09902">
        <ele>1459</ele>
        <time>2021-12-23T09:19:55Z</time>
      </trkpt>
      <trkpt lat="45.26929" lon="6.09904">
        <ele>1459</ele>
        <time>2021-12-23T09:19:57Z</time>
      </trkpt>
      <trkpt lat="45.26929" lon="6.09905">
        <ele>1459</ele>
        <time>2021-12-23T09:19:58Z</time>
      </trkpt>
      <trkpt lat="45.26928" lon="6.09907">
        <ele>1459</ele>
        <time>2021-12-23T09:19:59Z</time>
      </trkpt>
      <trkpt lat="45.26928" lon="6.09908">
        <ele>1459</ele>
        <time>2021-12-23T09:20:00Z</time>
      </trkpt>
      <trkpt lat="45.26927" lon="6.0991">
        <ele>1459</ele>
        <time>2021-12-23T09:20:01Z</time>
      </trkpt>
      <trkpt lat="45.26926" lon="6.09912">
        <ele>1460</ele>
        <time>2021-12-23T09:20:03Z</time>
      </trkpt>
      <trkpt lat="45.26926" lon="6.09913">
        <ele>1460</ele>
        <time>2021-12-23T09:20:04Z</time>
      </trkpt>
      <trkpt lat="45.26925" lon="6.09915">
        <ele>1461</ele>
        <time>2021-12-23T09:20:05Z</time>
      </trkpt>
      <trkpt lat="45.26925" lon="6.09916">
        <ele>1461</ele>
        <time>2021-12-23T09:20:06Z</time>
      </trkpt>
      <trkpt lat="45.26924" lon="6.09918">
        <ele>1461</ele>
        <time>2021-12-23T09:20:08Z</time>
      </trkpt>
      <trkpt lat="45.26925" lon="6.09919">
        <ele>1462</ele>
        <time>2021-12-23T09:20:09Z</time>
      </trkpt>
      <trkpt lat="45.26926" lon="6.0992">
        <ele>1462</ele>
        <time>2021-12-23T09:20:10Z</time>
      </trkpt>
      <trkpt lat="45.26926" lon="6.09922">
        <ele>1462</ele>
        <time>2021-12-23T09:20:11Z</time>
      </trkpt>
      <trkpt lat="45.26927" lon="6.09923">
        <ele>1463</ele>
        <time>2021-12-23T09:20:12Z</time>
      </trkpt>
      <trkpt lat="45.26928" lon="6.09924">
        <ele>1463</ele>
        <time>2021-12-23T09:20:13Z</time>
      </trkpt>
      <trkpt lat="45.26929" lon="6.09925">
        <ele>1463</ele>
        <time>2021-12-23T09:20:14Z</time>
      </trkpt>
      <trkpt lat="45.2693" lon="6.09926">
        <ele>1463</ele>
        <time>2021-12-23T09:20:16Z</time>
      </trkpt>
      <trkpt lat="45.26931" lon="6.09928">
        <ele>1463</ele>
        <time>2021-12-23T09:20:17Z</time>
      </trkpt>
      <trkpt lat="45.26929" lon="6.09929">
        <ele>1463</ele>
        <time>2021-12-23T09:20:18Z</time>
      </trkpt>
      <trkpt lat="45.26928" lon="6.0993">
        <ele>1463</ele>
        <time>2021-12-23T09:20:19Z</time>
      </trkpt>
      <trkpt lat="45.26926" lon="6.09932">
        <ele>1463</ele>
        <time>2021-12-23T09:20:20Z</time>
      </trkpt>
      <trkpt lat="45.26925" lon="6.09933">
        <ele>1463</ele>
        <time>2021-12-23T09:20:21Z</time>
      </trkpt>
      <trkpt lat="45.26924" lon="6.09935">
        <ele>1463</ele>
        <time>2021-12-23T09:20:22Z</time>
      </trkpt>
      <trkpt lat="45.26922" lon="6.09936">
        <ele>1463</ele>
        <time>2021-12-23T09:20:23Z</time>
      </trkpt>
      <trkpt lat="45.2692" lon="6.09936">
        <ele>1463</ele>
        <time>2021-12-23T09:20:24Z</time>
      </trkpt>
      <trkpt lat="45.26918" lon="6.09937">
        <ele>1463</ele>
        <time>2021-12-23T09:20:25Z</time>
      </trkpt>
      <trkpt lat="45.26916" lon="6.09937">
        <ele>1463</ele>
        <time>2021-12-23T09:20:26Z</time>
      </trkpt>
      <trkpt lat="45.26914" lon="6.09938">
        <ele>1464</ele>
        <time>2021-12-23T09:20:27Z</time>
      </trkpt>
      <trkpt lat="45.26912" lon="6.09939">
        <ele>1464</ele>
        <time>2021-12-23T09:20:28Z</time>
      </trkpt>
      <trkpt lat="45.26911" lon="6.09939">
        <ele>1464</ele>
        <time>2021-12-23T09:20:29Z</time>
      </trkpt>
      <trkpt lat="45.2691" lon="6.09939">
        <ele>1465</ele>
        <time>2021-12-23T09:20:30Z</time>
      </trkpt>
      <trkpt lat="45.26908" lon="6.0994">
        <ele>1465</ele>
        <time>2021-12-23T09:20:31Z</time>
      </trkpt>
      <trkpt lat="45.26907" lon="6.0994">
        <ele>1465</ele>
        <time>2021-12-23T09:20:32Z</time>
      </trkpt>
      <trkpt lat="45.26906" lon="6.0994">
        <ele>1465</ele>
        <time>2021-12-23T09:20:34Z</time>
      </trkpt>
      <trkpt lat="45.26905" lon="6.09941">
        <ele>1465</ele>
        <time>2021-12-23T09:20:35Z</time>
      </trkpt>
      <trkpt lat="45.26904" lon="6.09941">
        <ele>1465</ele>
        <time>2021-12-23T09:20:36Z</time>
      </trkpt>
      <trkpt lat="45.26903" lon="6.09941">
        <ele>1465</ele>
        <time>2021-12-23T09:20:37Z</time>
      </trkpt>
      <trkpt lat="45.26902" lon="6.09942">
        <ele>1465</ele>
        <time>2021-12-23T09:20:38Z</time>
      </trkpt>
      <trkpt lat="45.26902" lon="6.09942">
        <ele>1465</ele>
        <time>2021-12-23T09:20:39Z</time>
      </trkpt>
      <trkpt lat="45.26901" lon="6.09943">
        <ele>1465</ele>
        <time>2021-12-23T09:20:40Z</time>
      </trkpt>
      <trkpt lat="45.26901" lon="6.09943">
        <ele>1465</ele>
        <time>2021-12-23T09:20:41Z</time>
      </trkpt>
      <trkpt lat="45.269" lon="6.09944">
        <ele>1465</ele>
        <time>2021-12-23T09:20:42Z</time>
      </trkpt>
      <trkpt lat="45.269" lon="6.09944">
        <ele>1466</ele>
        <time>2021-12-23T09:20:43Z</time>
      </trkpt>
      <trkpt lat="45.26899" lon="6.09945">
        <ele>1466</ele>
        <time>2021-12-23T09:20:44Z</time>
      </trkpt>
      <trkpt lat="45.26899" lon="6.09945">
        <ele>1466</ele>
        <time>2021-12-23T09:20:45Z</time>
      </trkpt>
      <trkpt lat="45.26899" lon="6.09946">
        <ele>1466</ele>
        <time>2021-12-23T09:20:46Z</time>
      </trkpt>
      <trkpt lat="45.26898" lon="6.09946">
        <ele>1466</ele>
        <time>2021-12-23T09:20:47Z</time>
      </trkpt>
      <trkpt lat="45.26898" lon="6.09947">
        <ele>1466</ele>
        <time>2021-12-23T09:20:48Z</time>
      </trkpt>
      <trkpt lat="45.26897" lon="6.09947">
        <ele>1466</ele>
        <time>2021-12-23T09:20:49Z</time>
      </trkpt>
      <trkpt lat="45.26897" lon="6.09948">
        <ele>1466</ele>
        <time>2021-12-23T09:20:50Z</time>
      </trkpt>
      <trkpt lat="45.26896" lon="6.09949">
        <ele>1466</ele>
        <time>2021-12-23T09:20:51Z</time>
      </trkpt>
      <trkpt lat="45.26896" lon="6.09949">
        <ele>1466</ele>
        <time>2021-12-23T09:20:52Z</time>
      </trkpt>
      <trkpt lat="45.26895" lon="6.0995">
        <ele>1466</ele>
        <time>2021-12-23T09:20:54Z</time>
      </trkpt>
      <trkpt lat="45.26895" lon="6.0995">
        <ele>1466</ele>
        <time>2021-12-23T09:20:55Z</time>
      </trkpt>
      <trkpt lat="45.26894" lon="6.09951">
        <ele>1467</ele>
        <time>2021-12-23T09:20:57Z</time>
      </trkpt>
      <trkpt lat="45.26894" lon="6.09951">
        <ele>1467</ele>
        <time>2021-12-23T09:20:58Z</time>
      </trkpt>
      <trkpt lat="45.26894" lon="6.09952">
        <ele>1467</ele>
        <time>2021-12-23T09:20:59Z</time>
      </trkpt>
      <trkpt lat="45.26893" lon="6.09952">
        <ele>1467</ele>
        <time>2021-12-23T09:21:00Z</time>
      </trkpt>
      <trkpt lat="45.26892" lon="6.09953">
        <ele>1467</ele>
        <time>2021-12-23T09:21:01Z</time>
      </trkpt>
      <trkpt lat="45.26891" lon="6.09954">
        <ele>1467</ele>
        <time>2021-12-23T09:21:02Z</time>
      </trkpt>
      <trkpt lat="45.2689" lon="6.09955">
        <ele>1467</ele>
        <time>2021-12-23T09:21:03Z</time>
      </trkpt>
      <trkpt lat="45.2689" lon="6.09956">
        <ele>1467</ele>
        <time>2021-12-23T09:21:04Z</time>
      </trkpt>
      <trkpt lat="45.26889" lon="6.09957">
        <ele>1468</ele>
        <time>2021-12-23T09:21:05Z</time>
      </trkpt>
      <trkpt lat="45.26888" lon="6.09958">
        <ele>1468</ele>
        <time>2021-12-23T09:21:06Z</time>
      </trkpt>
      <trkpt lat="45.26887" lon="6.09959">
        <ele>1469</ele>
        <time>2021-12-23T09:21:08Z</time>
      </trkpt>
      <trkpt lat="45.26886" lon="6.09959">
        <ele>1469</ele>
        <time>2021-12-23T09:21:09Z</time>
      </trkpt>
      <trkpt lat="45.26886" lon="6.0996">
        <ele>1469</ele>
        <time>2021-12-23T09:21:10Z</time>
      </trkpt>
      <trkpt lat="45.26885" lon="6.09963">
        <ele>1469</ele>
        <time>2021-12-23T09:21:11Z</time>
      </trkpt>
      <trkpt lat="45.26884" lon="6.09965">
        <ele>1469</ele>
        <time>2021-12-23T09:21:13Z</time>
      </trkpt>
      <trkpt lat="45.26884" lon="6.09968">
        <ele>1470</ele>
        <time>2021-12-23T09:21:15Z</time>
      </trkpt>
      <trkpt lat="45.26883" lon="6.0997">
        <ele>1470</ele>
        <time>2021-12-23T09:21:16Z</time>
      </trkpt>
      <trkpt lat="45.26883" lon="6.09973">
        <ele>1470</ele>
        <time>2021-12-23T09:21:17Z</time>
      </trkpt>
      <trkpt lat="45.26883" lon="6.09973">
        <ele>1470</ele>
        <time>2021-12-23T09:21:18Z</time>
      </trkpt>
      <trkpt lat="45.26883" lon="6.09973">
        <ele>1470</ele>
        <time>2021-12-23T09:21:19Z</time>
      </trkpt>
      <trkpt lat="45.26883" lon="6.09973">
        <ele>1471</ele>
        <time>2021-12-23T09:21:20Z</time>
      </trkpt>
      <trkpt lat="45.26883" lon="6.09973">
        <ele>1471</ele>
        <time>2021-12-23T09:21:21Z</time>
      </trkpt>
      <trkpt lat="45.26883" lon="6.09973">
        <ele>1471</ele>
        <time>2021-12-23T09:21:22Z</time>
      </trkpt>
      <trkpt lat="45.26883" lon="6.09973">
        <ele>1471</ele>
        <time>2021-12-23T09:21:23Z</time>
      </trkpt>
      <trkpt lat="45.26874" lon="6.09977">
        <ele>1471</ele>
        <time>2021-12-23T09:21:24Z</time>
      </trkpt>
      <trkpt lat="45.26874" lon="6.09977">
        <ele>1471</ele>
        <time>2021-12-23T09:21:26Z</time>
      </trkpt>
      <trkpt lat="45.26874" lon="6.09979">
        <ele>1472</ele>
        <time>2021-12-23T09:21:28Z</time>
      </trkpt>
      <trkpt lat="45.26873" lon="6.09981">
        <ele>1472</ele>
        <time>2021-12-23T09:21:29Z</time>
      </trkpt>
      <trkpt lat="45.26873" lon="6.09983">
        <ele>1473</ele>
        <time>2021-12-23T09:21:30Z</time>
      </trkpt>
      <trkpt lat="45.26873" lon="6.09985">
        <ele>1473</ele>
        <time>2021-12-23T09:21:32Z</time>
      </trkpt>
      <trkpt lat="45.26873" lon="6.09986">
        <ele>1473</ele>
        <time>2021-12-23T09:21:33Z</time>
      </trkpt>
      <trkpt lat="45.26873" lon="6.09988">
        <ele>1473</ele>
        <time>2021-12-23T09:21:34Z</time>
      </trkpt>
      <trkpt lat="45.26872" lon="6.0999">
        <ele>1473</ele>
        <time>2021-12-23T09:21:35Z</time>
      </trkpt>
      <trkpt lat="45.26872" lon="6.09992">
        <ele>1473</ele>
        <time>2021-12-23T09:21:36Z</time>
      </trkpt>
      <trkpt lat="45.26871" lon="6.09992">
        <ele>1473</ele>
        <time>2021-12-23T09:21:37Z</time>
      </trkpt>
      <trkpt lat="45.26869" lon="6.09992">
        <ele>1473</ele>
        <time>2021-12-23T09:21:38Z</time>
      </trkpt>
      <trkpt lat="45.26867" lon="6.09992">
        <ele>1473</ele>
        <time>2021-12-23T09:21:39Z</time>
      </trkpt>
      <trkpt lat="45.26862" lon="6.09994">
        <ele>1473</ele>
        <time>2021-12-23T09:21:40Z</time>
      </trkpt>
      <trkpt lat="45.26861" lon="6.09995">
        <ele>1473</ele>
        <time>2021-12-23T09:21:41Z</time>
      </trkpt>
      <trkpt lat="45.26861" lon="6.09996">
        <ele>1473</ele>
        <time>2021-12-23T09:21:42Z</time>
      </trkpt>
      <trkpt lat="45.2686" lon="6.09998">
        <ele>1473</ele>
        <time>2021-12-23T09:21:43Z</time>
      </trkpt>
      <trkpt lat="45.2686" lon="6.09999">
        <ele>1474</ele>
        <time>2021-12-23T09:21:44Z</time>
      </trkpt>
      <trkpt lat="45.2686" lon="6.1">
        <ele>1474</ele>
        <time>2021-12-23T09:21:45Z</time>
      </trkpt>
      <trkpt lat="45.26859" lon="6.10001">
        <ele>1474</ele>
        <time>2021-12-23T09:21:46Z</time>
      </trkpt>
      <trkpt lat="45.26859" lon="6.10002">
        <ele>1474</ele>
        <time>2021-12-23T09:21:47Z</time>
      </trkpt>
      <trkpt lat="45.26858" lon="6.10003">
        <ele>1474</ele>
        <time>2021-12-23T09:21:48Z</time>
      </trkpt>
      <trkpt lat="45.26858" lon="6.10005">
        <ele>1474</ele>
        <time>2021-12-23T09:21:49Z</time>
      </trkpt>
      <trkpt lat="45.26857" lon="6.10006">
        <ele>1475</ele>
        <time>2021-12-23T09:21:51Z</time>
      </trkpt>
      <trkpt lat="45.26857" lon="6.10007">
        <ele>1475</ele>
        <time>2021-12-23T09:21:52Z</time>
      </trkpt>
      <trkpt lat="45.26857" lon="6.10008">
        <ele>1475</ele>
        <time>2021-12-23T09:21:53Z</time>
      </trkpt>
      <trkpt lat="45.26856" lon="6.10009">
        <ele>1475</ele>
        <time>2021-12-23T09:21:54Z</time>
      </trkpt>
      <trkpt lat="45.26856" lon="6.10009">
        <ele>1476</ele>
        <time>2021-12-23T09:21:56Z</time>
      </trkpt>
      <trkpt lat="45.26855" lon="6.1001">
        <ele>1476</ele>
        <time>2021-12-23T09:21:57Z</time>
      </trkpt>
      <trkpt lat="45.26855" lon="6.10011">
        <ele>1476</ele>
        <time>2021-12-23T09:21:59Z</time>
      </trkpt>
      <trkpt lat="45.26855" lon="6.10012">
        <ele>1476</ele>
        <time>2021-12-23T09:22:00Z</time>
      </trkpt>
      <trkpt lat="45.26854" lon="6.10012">
        <ele>1476</ele>
        <time>2021-12-23T09:22:01Z</time>
      </trkpt>
      <trkpt lat="45.26854" lon="6.10013">
        <ele>1477</ele>
        <time>2021-12-23T09:22:02Z</time>
      </trkpt>
      <trkpt lat="45.26853" lon="6.10014">
        <ele>1477</ele>
        <time>2021-12-23T09:22:03Z</time>
      </trkpt>
      <trkpt lat="45.2685" lon="6.10021">
        <ele>1477</ele>
        <time>2021-12-23T09:22:04Z</time>
      </trkpt>
      <trkpt lat="45.2685" lon="6.10022">
        <ele>1477</ele>
        <time>2021-12-23T09:22:05Z</time>
      </trkpt>
      <trkpt lat="45.2685" lon="6.10023">
        <ele>1477</ele>
        <time>2021-12-23T09:22:06Z</time>
      </trkpt>
      <trkpt lat="45.2685" lon="6.10024">
        <ele>1477</ele>
        <time>2021-12-23T09:22:07Z</time>
      </trkpt>
      <trkpt lat="45.2685" lon="6.10025">
        <ele>1477</ele>
        <time>2021-12-23T09:22:08Z</time>
      </trkpt>
      <trkpt lat="45.2685" lon="6.10026">
        <ele>1477</ele>
        <time>2021-12-23T09:22:10Z</time>
      </trkpt>
      <trkpt lat="45.2685" lon="6.10027">
        <ele>1477</ele>
        <time>2021-12-23T09:22:11Z</time>
      </trkpt>
      <trkpt lat="45.2685" lon="6.10028">
        <ele>1478</ele>
        <time>2021-12-23T09:22:12Z</time>
      </trkpt>
      <trkpt lat="45.26849" lon="6.10029">
        <ele>1478</ele>
        <time>2021-12-23T09:22:13Z</time>
      </trkpt>
      <trkpt lat="45.26849" lon="6.1003">
        <ele>1478</ele>
        <time>2021-12-23T09:22:14Z</time>
      </trkpt>
      <trkpt lat="45.26849" lon="6.10031">
        <ele>1478</ele>
        <time>2021-12-23T09:22:15Z</time>
      </trkpt>
      <trkpt lat="45.26849" lon="6.10032">
        <ele>1478</ele>
        <time>2021-12-23T09:22:16Z</time>
      </trkpt>
      <trkpt lat="45.26849" lon="6.10033">
        <ele>1479</ele>
        <time>2021-12-23T09:22:17Z</time>
      </trkpt>
      <trkpt lat="45.26849" lon="6.10033">
        <ele>1479</ele>
        <time>2021-12-23T09:22:18Z</time>
      </trkpt>
      <trkpt lat="45.26849" lon="6.10033">
        <ele>1479</ele>
        <time>2021-12-23T09:22:19Z</time>
      </trkpt>
      <trkpt lat="45.26849" lon="6.10033">
        <ele>1479</ele>
        <time>2021-12-23T09:22:20Z</time>
      </trkpt>
      <trkpt lat="45.26849" lon="6.10033">
        <ele>1479</ele>
        <time>2021-12-23T09:22:21Z</time>
      </trkpt>
      <trkpt lat="45.26849" lon="6.10033">
        <ele>1480</ele>
        <time>2021-12-23T09:22:22Z</time>
      </trkpt>
      <trkpt lat="45.26849" lon="6.10033">
        <ele>1480</ele>
        <time>2021-12-23T09:22:23Z</time>
      </trkpt>
      <trkpt lat="45.26849" lon="6.10033">
        <ele>1480</ele>
        <time>2021-12-23T09:22:24Z</time>
      </trkpt>
      <trkpt lat="45.26841" lon="6.1004">
        <ele>1480</ele>
        <time>2021-12-23T09:22:25Z</time>
      </trkpt>
      <trkpt lat="45.26841" lon="6.1004">
        <ele>1480</ele>
        <time>2021-12-23T09:22:27Z</time>
      </trkpt>
      <trkpt lat="45.26841" lon="6.10041">
        <ele>1480</ele>
        <time>2021-12-23T09:22:29Z</time>
      </trkpt>
      <trkpt lat="45.2684" lon="6.10042">
        <ele>1481</ele>
        <time>2021-12-23T09:22:31Z</time>
      </trkpt>
      <trkpt lat="45.26839" lon="6.10043">
        <ele>1481</ele>
        <time>2021-12-23T09:22:32Z</time>
      </trkpt>
      <trkpt lat="45.26838" lon="6.10044">
        <ele>1482</ele>
        <time>2021-12-23T09:22:33Z</time>
      </trkpt>
      <trkpt lat="45.26837" lon="6.10045">
        <ele>1482</ele>
        <time>2021-12-23T09:22:34Z</time>
      </trkpt>
      <trkpt lat="45.26836" lon="6.10046">
        <ele>1482</ele>
        <time>2021-12-23T09:22:35Z</time>
      </trkpt>
      <trkpt lat="45.26835" lon="6.10047">
        <ele>1482</ele>
        <time>2021-12-23T09:22:36Z</time>
      </trkpt>
      <trkpt lat="45.26835" lon="6.10048">
        <ele>1482</ele>
        <time>2021-12-23T09:22:37Z</time>
      </trkpt>
      <trkpt lat="45.26834" lon="6.10048">
        <ele>1482</ele>
        <time>2021-12-23T09:22:38Z</time>
      </trkpt>
      <trkpt lat="45.26833" lon="6.10049">
        <ele>1482</ele>
        <time>2021-12-23T09:22:40Z</time>
      </trkpt>
      <trkpt lat="45.26832" lon="6.1005">
        <ele>1482</ele>
        <time>2021-12-23T09:22:41Z</time>
      </trkpt>
      <trkpt lat="45.26831" lon="6.10051">
        <ele>1482</ele>
        <time>2021-12-23T09:22:42Z</time>
      </trkpt>
      <trkpt lat="45.2683" lon="6.10053">
        <ele>1483</ele>
        <time>2021-12-23T09:22:43Z</time>
      </trkpt>
      <trkpt lat="45.2683" lon="6.10055">
        <ele>1483</ele>
        <time>2021-12-23T09:22:45Z</time>
      </trkpt>
      <trkpt lat="45.26829" lon="6.10056">
        <ele>1483</ele>
        <time>2021-12-23T09:22:46Z</time>
      </trkpt>
      <trkpt lat="45.26829" lon="6.10058">
        <ele>1483</ele>
        <time>2021-12-23T09:22:48Z</time>
      </trkpt>
      <trkpt lat="45.26828" lon="6.1006">
        <ele>1484</ele>
        <time>2021-12-23T09:22:50Z</time>
      </trkpt>
      <trkpt lat="45.26827" lon="6.10061">
        <ele>1484</ele>
        <time>2021-12-23T09:22:51Z</time>
      </trkpt>
      <trkpt lat="45.26827" lon="6.10063">
        <ele>1484</ele>
        <time>2021-12-23T09:22:52Z</time>
      </trkpt>
      <trkpt lat="45.26826" lon="6.10064">
        <ele>1484</ele>
        <time>2021-12-23T09:22:53Z</time>
      </trkpt>
      <trkpt lat="45.26826" lon="6.10065">
        <ele>1484</ele>
        <time>2021-12-23T09:22:54Z</time>
      </trkpt>
      <trkpt lat="45.26825" lon="6.10066">
        <ele>1484</ele>
        <time>2021-12-23T09:22:55Z</time>
      </trkpt>
      <trkpt lat="45.26825" lon="6.10067">
        <ele>1484</ele>
        <time>2021-12-23T09:22:56Z</time>
      </trkpt>
      <trkpt lat="45.26824" lon="6.10067">
        <ele>1485</ele>
        <time>2021-12-23T09:22:57Z</time>
      </trkpt>
      <trkpt lat="45.26824" lon="6.10068">
        <ele>1485</ele>
        <time>2021-12-23T09:22:58Z</time>
      </trkpt>
      <trkpt lat="45.26824" lon="6.10069">
        <ele>1485</ele>
        <time>2021-12-23T09:22:59Z</time>
      </trkpt>
      <trkpt lat="45.26823" lon="6.1007">
        <ele>1485</ele>
        <time>2021-12-23T09:23:00Z</time>
      </trkpt>
      <trkpt lat="45.26823" lon="6.10071">
        <ele>1485</ele>
        <time>2021-12-23T09:23:01Z</time>
      </trkpt>
      <trkpt lat="45.26822" lon="6.10072">
        <ele>1485</ele>
        <time>2021-12-23T09:23:02Z</time>
      </trkpt>
      <trkpt lat="45.26822" lon="6.10073">
        <ele>1486</ele>
        <time>2021-12-23T09:23:03Z</time>
      </trkpt>
      <trkpt lat="45.26821" lon="6.10073">
        <ele>1486</ele>
        <time>2021-12-23T09:23:04Z</time>
      </trkpt>
      <trkpt lat="45.26821" lon="6.10074">
        <ele>1486</ele>
        <time>2021-12-23T09:23:05Z</time>
      </trkpt>
      <trkpt lat="45.2682" lon="6.10075">
        <ele>1487</ele>
        <time>2021-12-23T09:23:07Z</time>
      </trkpt>
      <trkpt lat="45.26819" lon="6.10076">
        <ele>1487</ele>
        <time>2021-12-23T09:23:08Z</time>
      </trkpt>
      <trkpt lat="45.26818" lon="6.10077">
        <ele>1487</ele>
        <time>2021-12-23T09:23:09Z</time>
      </trkpt>
      <trkpt lat="45.26817" lon="6.10078">
        <ele>1487</ele>
        <time>2021-12-23T09:23:10Z</time>
      </trkpt>
      <trkpt lat="45.26817" lon="6.10079">
        <ele>1487</ele>
        <time>2021-12-23T09:23:11Z</time>
      </trkpt>
      <trkpt lat="45.26816" lon="6.1008">
        <ele>1487</ele>
        <time>2021-12-23T09:23:12Z</time>
      </trkpt>
      <trkpt lat="45.26815" lon="6.10081">
        <ele>1488</ele>
        <time>2021-12-23T09:23:13Z</time>
      </trkpt>
      <trkpt lat="45.26814" lon="6.10082">
        <ele>1488</ele>
        <time>2021-12-23T09:23:14Z</time>
      </trkpt>
      <trkpt lat="45.26814" lon="6.10083">
        <ele>1488</ele>
        <time>2021-12-23T09:23:15Z</time>
      </trkpt>
      <trkpt lat="45.26814" lon="6.10084">
        <ele>1488</ele>
        <time>2021-12-23T09:23:16Z</time>
      </trkpt>
      <trkpt lat="45.26814" lon="6.10085">
        <ele>1488</ele>
        <time>2021-12-23T09:23:17Z</time>
      </trkpt>
      <trkpt lat="45.26814" lon="6.10085">
        <ele>1488</ele>
        <time>2021-12-23T09:23:18Z</time>
      </trkpt>
      <trkpt lat="45.26813" lon="6.10086">
        <ele>1488</ele>
        <time>2021-12-23T09:23:19Z</time>
      </trkpt>
      <trkpt lat="45.26813" lon="6.10087">
        <ele>1488</ele>
        <time>2021-12-23T09:23:20Z</time>
      </trkpt>
      <trkpt lat="45.26813" lon="6.10088">
        <ele>1489</ele>
        <time>2021-12-23T09:23:21Z</time>
      </trkpt>
      <trkpt lat="45.26813" lon="6.10089">
        <ele>1489</ele>
        <time>2021-12-23T09:23:23Z</time>
      </trkpt>
      <trkpt lat="45.26812" lon="6.1009">
        <ele>1489</ele>
        <time>2021-12-23T09:23:25Z</time>
      </trkpt>
      <trkpt lat="45.26812" lon="6.10091">
        <ele>1489</ele>
        <time>2021-12-23T09:23:26Z</time>
      </trkpt>
      <trkpt lat="45.26812" lon="6.10092">
        <ele>1489</ele>
        <time>2021-12-23T09:23:27Z</time>
      </trkpt>
      <trkpt lat="45.26812" lon="6.10093">
        <ele>1489</ele>
        <time>2021-12-23T09:23:28Z</time>
      </trkpt>
      <trkpt lat="45.26812" lon="6.10094">
        <ele>1490</ele>
        <time>2021-12-23T09:23:29Z</time>
      </trkpt>
      <trkpt lat="45.26811" lon="6.10095">
        <ele>1490</ele>
        <time>2021-12-23T09:23:30Z</time>
      </trkpt>
      <trkpt lat="45.26811" lon="6.10095">
        <ele>1491</ele>
        <time>2021-12-23T09:23:31Z</time>
      </trkpt>
      <trkpt lat="45.2681" lon="6.10096">
        <ele>1491</ele>
        <time>2021-12-23T09:23:32Z</time>
      </trkpt>
      <trkpt lat="45.2681" lon="6.10097">
        <ele>1491</ele>
        <time>2021-12-23T09:23:33Z</time>
      </trkpt>
      <trkpt lat="45.26809" lon="6.10098">
        <ele>1491</ele>
        <time>2021-12-23T09:23:34Z</time>
      </trkpt>
      <trkpt lat="45.26809" lon="6.10099">
        <ele>1491</ele>
        <time>2021-12-23T09:23:35Z</time>
      </trkpt>
      <trkpt lat="45.26808" lon="6.101">
        <ele>1491</ele>
        <time>2021-12-23T09:23:36Z</time>
      </trkpt>
      <trkpt lat="45.26807" lon="6.101">
        <ele>1491</ele>
        <time>2021-12-23T09:23:37Z</time>
      </trkpt>
      <trkpt lat="45.26807" lon="6.10101">
        <ele>1491</ele>
        <time>2021-12-23T09:23:38Z</time>
      </trkpt>
      <trkpt lat="45.26806" lon="6.10102">
        <ele>1491</ele>
        <time>2021-12-23T09:23:39Z</time>
      </trkpt>
      <trkpt lat="45.26805" lon="6.10103">
        <ele>1492</ele>
        <time>2021-12-23T09:23:40Z</time>
      </trkpt>
      <trkpt lat="45.26805" lon="6.10104">
        <ele>1492</ele>
        <time>2021-12-23T09:23:41Z</time>
      </trkpt>
      <trkpt lat="45.26804" lon="6.10104">
        <ele>1492</ele>
        <time>2021-12-23T09:23:42Z</time>
      </trkpt>
      <trkpt lat="45.26804" lon="6.10105">
        <ele>1492</ele>
        <time>2021-12-23T09:23:43Z</time>
      </trkpt>
      <trkpt lat="45.26804" lon="6.10106">
        <ele>1492</ele>
        <time>2021-12-23T09:23:45Z</time>
      </trkpt>
      <trkpt lat="45.26804" lon="6.10107">
        <ele>1492</ele>
        <time>2021-12-23T09:23:46Z</time>
      </trkpt>
      <trkpt lat="45.26804" lon="6.10108">
        <ele>1492</ele>
        <time>2021-12-23T09:23:47Z</time>
      </trkpt>
      <trkpt lat="45.26804" lon="6.10108">
        <ele>1493</ele>
        <time>2021-12-23T09:23:48Z</time>
      </trkpt>
      <trkpt lat="45.26804" lon="6.10109">
        <ele>1493</ele>
        <time>2021-12-23T09:23:49Z</time>
      </trkpt>
      <trkpt lat="45.26804" lon="6.1011">
        <ele>1493</ele>
        <time>2021-12-23T09:23:51Z</time>
      </trkpt>
      <trkpt lat="45.26803" lon="6.10111">
        <ele>1494</ele>
        <time>2021-12-23T09:23:53Z</time>
      </trkpt>
      <trkpt lat="45.26803" lon="6.10111">
        <ele>1494</ele>
        <time>2021-12-23T09:23:54Z</time>
      </trkpt>
      <trkpt lat="45.26803" lon="6.10112">
        <ele>1495</ele>
        <time>2021-12-23T09:23:55Z</time>
      </trkpt>
      <trkpt lat="45.26803" lon="6.10113">
        <ele>1495</ele>
        <time>2021-12-23T09:23:56Z</time>
      </trkpt>
      <trkpt lat="45.26803" lon="6.10114">
        <ele>1495</ele>
        <time>2021-12-23T09:23:57Z</time>
      </trkpt>
      <trkpt lat="45.26803" lon="6.10114">
        <ele>1495</ele>
        <time>2021-12-23T09:23:58Z</time>
      </trkpt>
      <trkpt lat="45.26803" lon="6.10115">
        <ele>1495</ele>
        <time>2021-12-23T09:23:59Z</time>
      </trkpt>
      <trkpt lat="45.26803" lon="6.10116">
        <ele>1495</ele>
        <time>2021-12-23T09:24:00Z</time>
      </trkpt>
      <trkpt lat="45.26803" lon="6.10117">
        <ele>1496</ele>
        <time>2021-12-23T09:24:01Z</time>
      </trkpt>
      <trkpt lat="45.26803" lon="6.10118">
        <ele>1496</ele>
        <time>2021-12-23T09:24:02Z</time>
      </trkpt>
      <trkpt lat="45.26803" lon="6.10118">
        <ele>1496</ele>
        <time>2021-12-23T09:24:04Z</time>
      </trkpt>
      <trkpt lat="45.26803" lon="6.10118">
        <ele>1496</ele>
        <time>2021-12-23T09:24:05Z</time>
      </trkpt>
      <trkpt lat="45.26802" lon="6.10118">
        <ele>1495</ele>
        <time>2021-12-23T09:24:06Z</time>
      </trkpt>
      <trkpt lat="45.26802" lon="6.10118">
        <ele>1495</ele>
        <time>2021-12-23T09:24:07Z</time>
      </trkpt>
      <trkpt lat="45.26802" lon="6.10119">
        <ele>1495</ele>
        <time>2021-12-23T09:24:08Z</time>
      </trkpt>
      <trkpt lat="45.26802" lon="6.10119">
        <ele>1495</ele>
        <time>2021-12-23T09:24:09Z</time>
      </trkpt>
      <trkpt lat="45.26802" lon="6.10119">
        <ele>1495</ele>
        <time>2021-12-23T09:24:10Z</time>
      </trkpt>
      <trkpt lat="45.26802" lon="6.10119">
        <ele>1495</ele>
        <time>2021-12-23T09:24:11Z</time>
      </trkpt>
      <trkpt lat="45.26802" lon="6.10119">
        <ele>1495</ele>
        <time>2021-12-23T09:24:12Z</time>
      </trkpt>
      <trkpt lat="45.26802" lon="6.1012">
        <ele>1495</ele>
        <time>2021-12-23T09:24:13Z</time>
      </trkpt>
      <trkpt lat="45.26802" lon="6.1012">
        <ele>1495</ele>
        <time>2021-12-23T09:24:14Z</time>
      </trkpt>
      <trkpt lat="45.26801" lon="6.1012">
        <ele>1495</ele>
        <time>2021-12-23T09:24:15Z</time>
      </trkpt>
      <trkpt lat="45.26801" lon="6.1012">
        <ele>1495</ele>
        <time>2021-12-23T09:24:17Z</time>
      </trkpt>
      <trkpt lat="45.26801" lon="6.1012">
        <ele>1495</ele>
        <time>2021-12-23T09:24:18Z</time>
      </trkpt>
      <trkpt lat="45.26801" lon="6.10121">
        <ele>1495</ele>
        <time>2021-12-23T09:24:19Z</time>
      </trkpt>
      <trkpt lat="45.26801" lon="6.10121">
        <ele>1495</ele>
        <time>2021-12-23T09:24:20Z</time>
      </trkpt>
      <trkpt lat="45.26801" lon="6.10121">
        <ele>1495</ele>
        <time>2021-12-23T09:24:21Z</time>
      </trkpt>
      <trkpt lat="45.26801" lon="6.10121">
        <ele>1495</ele>
        <time>2021-12-23T09:24:23Z</time>
      </trkpt>
      <trkpt lat="45.26801" lon="6.10121">
        <ele>1495</ele>
        <time>2021-12-23T09:24:24Z</time>
      </trkpt>
      <trkpt lat="45.26801" lon="6.10122">
        <ele>1495</ele>
        <time>2021-12-23T09:24:25Z</time>
      </trkpt>
      <trkpt lat="45.268" lon="6.10122">
        <ele>1495</ele>
        <time>2021-12-23T09:24:26Z</time>
      </trkpt>
      <trkpt lat="45.268" lon="6.10122">
        <ele>1495</ele>
        <time>2021-12-23T09:24:27Z</time>
      </trkpt>
      <trkpt lat="45.268" lon="6.10122">
        <ele>1495</ele>
        <time>2021-12-23T09:24:28Z</time>
      </trkpt>
      <trkpt lat="45.268" lon="6.10122">
        <ele>1495</ele>
        <time>2021-12-23T09:24:29Z</time>
      </trkpt>
      <trkpt lat="45.268" lon="6.10123">
        <ele>1495</ele>
        <time>2021-12-23T09:24:30Z</time>
      </trkpt>
      <trkpt lat="45.268" lon="6.10123">
        <ele>1494</ele>
        <time>2021-12-23T09:24:31Z</time>
      </trkpt>
      <trkpt lat="45.268" lon="6.10123">
        <ele>1494</ele>
        <time>2021-12-23T09:24:32Z</time>
      </trkpt>
      <trkpt lat="45.268" lon="6.10123">
        <ele>1494</ele>
        <time>2021-12-23T09:24:33Z</time>
      </trkpt>
      <trkpt lat="45.26799" lon="6.10123">
        <ele>1494</ele>
        <time>2021-12-23T09:24:34Z</time>
      </trkpt>
      <trkpt lat="45.26799" lon="6.10124">
        <ele>1494</ele>
        <time>2021-12-23T09:24:35Z</time>
      </trkpt>
      <trkpt lat="45.26799" lon="6.10124">
        <ele>1494</ele>
        <time>2021-12-23T09:24:36Z</time>
      </trkpt>
      <trkpt lat="45.26799" lon="6.10124">
        <ele>1494</ele>
        <time>2021-12-23T09:24:37Z</time>
      </trkpt>
      <trkpt lat="45.26799" lon="6.10124">
        <ele>1494</ele>
        <time>2021-12-23T09:24:38Z</time>
      </trkpt>
      <trkpt lat="45.26799" lon="6.10124">
        <ele>1494</ele>
        <time>2021-12-23T09:24:39Z</time>
      </trkpt>
      <trkpt lat="45.26799" lon="6.10125">
        <ele>1494</ele>
        <time>2021-12-23T09:24:40Z</time>
      </trkpt>
      <trkpt lat="45.26799" lon="6.10125">
        <ele>1494</ele>
        <time>2021-12-23T09:24:42Z</time>
      </trkpt>
      <trkpt lat="45.26799" lon="6.10125">
        <ele>1494</ele>
        <time>2021-12-23T09:24:43Z</time>
      </trkpt>
      <trkpt lat="45.26798" lon="6.10125">
        <ele>1494</ele>
        <time>2021-12-23T09:24:44Z</time>
      </trkpt>
      <trkpt lat="45.26798" lon="6.10125">
        <ele>1494</ele>
        <time>2021-12-23T09:24:45Z</time>
      </trkpt>
      <trkpt lat="45.26798" lon="6.10126">
        <ele>1494</ele>
        <time>2021-12-23T09:24:46Z</time>
      </trkpt>
      <trkpt lat="45.26798" lon="6.10126">
        <ele>1494</ele>
        <time>2021-12-23T09:24:47Z</time>
      </trkpt>
      <trkpt lat="45.26798" lon="6.10126">
        <ele>1495</ele>
        <time>2021-12-23T09:24:48Z</time>
      </trkpt>
      <trkpt lat="45.26798" lon="6.10126">
        <ele>1495</ele>
        <time>2021-12-23T09:24:49Z</time>
      </trkpt>
      <trkpt lat="45.26798" lon="6.10126">
        <ele>1495</ele>
        <time>2021-12-23T09:24:50Z</time>
      </trkpt>
      <trkpt lat="45.26798" lon="6.10127">
        <ele>1496</ele>
        <time>2021-12-23T09:24:51Z</time>
      </trkpt>
      <trkpt lat="45.26798" lon="6.10127">
        <ele>1497</ele>
        <time>2021-12-23T09:24:52Z</time>
      </trkpt>
      <trkpt lat="45.26797" lon="6.10127">
        <ele>1497</ele>
        <time>2021-12-23T09:24:53Z</time>
      </trkpt>
      <trkpt lat="45.26797" lon="6.10127">
        <ele>1497</ele>
        <time>2021-12-23T09:24:54Z</time>
      </trkpt>
      <trkpt lat="45.26797" lon="6.10127">
        <ele>1497</ele>
        <time>2021-12-23T09:24:55Z</time>
      </trkpt>
      <trkpt lat="45.26797" lon="6.10128">
        <ele>1497</ele>
        <time>2021-12-23T09:24:56Z</time>
      </trkpt>
      <trkpt lat="45.26797" lon="6.10128">
        <ele>1497</ele>
        <time>2021-12-23T09:24:57Z</time>
      </trkpt>
      <trkpt lat="45.26797" lon="6.10128">
        <ele>1497</ele>
        <time>2021-12-23T09:24:58Z</time>
      </trkpt>
      <trkpt lat="45.26797" lon="6.10128">
        <ele>1497</ele>
        <time>2021-12-23T09:24:59Z</time>
      </trkpt>
      <trkpt lat="45.26797" lon="6.10129">
        <ele>1497</ele>
        <time>2021-12-23T09:25:01Z</time>
      </trkpt>
      <trkpt lat="45.26796" lon="6.1013">
        <ele>1498</ele>
        <time>2021-12-23T09:25:02Z</time>
      </trkpt>
      <trkpt lat="45.26796" lon="6.10132">
        <ele>1498</ele>
        <time>2021-12-23T09:25:03Z</time>
      </trkpt>
      <trkpt lat="45.26796" lon="6.10133">
        <ele>1499</ele>
        <time>2021-12-23T09:25:05Z</time>
      </trkpt>
      <trkpt lat="45.26796" lon="6.10134">
        <ele>1499</ele>
        <time>2021-12-23T09:25:06Z</time>
      </trkpt>
      <trkpt lat="45.26796" lon="6.10135">
        <ele>1499</ele>
        <time>2021-12-23T09:25:07Z</time>
      </trkpt>
      <trkpt lat="45.26796" lon="6.10136">
        <ele>1499</ele>
        <time>2021-12-23T09:25:08Z</time>
      </trkpt>
      <trkpt lat="45.26795" lon="6.10137">
        <ele>1500</ele>
        <time>2021-12-23T09:25:09Z</time>
      </trkpt>
      <trkpt lat="45.26795" lon="6.10138">
        <ele>1500</ele>
        <time>2021-12-23T09:25:10Z</time>
      </trkpt>
      <trkpt lat="45.26795" lon="6.10139">
        <ele>1500</ele>
        <time>2021-12-23T09:25:11Z</time>
      </trkpt>
      <trkpt lat="45.26795" lon="6.1014">
        <ele>1501</ele>
        <time>2021-12-23T09:25:12Z</time>
      </trkpt>
      <trkpt lat="45.26794" lon="6.10142">
        <ele>1501</ele>
        <time>2021-12-23T09:25:13Z</time>
      </trkpt>
      <trkpt lat="45.26794" lon="6.10143">
        <ele>1501</ele>
        <time>2021-12-23T09:25:14Z</time>
      </trkpt>
      <trkpt lat="45.26793" lon="6.10144">
        <ele>1501</ele>
        <time>2021-12-23T09:25:15Z</time>
      </trkpt>
      <trkpt lat="45.26793" lon="6.10145">
        <ele>1501</ele>
        <time>2021-12-23T09:25:16Z</time>
      </trkpt>
      <trkpt lat="45.26793" lon="6.10146">
        <ele>1501</ele>
        <time>2021-12-23T09:25:17Z</time>
      </trkpt>
      <trkpt lat="45.26792" lon="6.10147">
        <ele>1502</ele>
        <time>2021-12-23T09:25:18Z</time>
      </trkpt>
      <trkpt lat="45.26792" lon="6.10148">
        <ele>1502</ele>
        <time>2021-12-23T09:25:20Z</time>
      </trkpt>
      <trkpt lat="45.26791" lon="6.10149">
        <ele>1502</ele>
        <time>2021-12-23T09:25:21Z</time>
      </trkpt>
      <trkpt lat="45.26791" lon="6.1015">
        <ele>1502</ele>
        <time>2021-12-23T09:25:22Z</time>
      </trkpt>
      <trkpt lat="45.2679" lon="6.10151">
        <ele>1502</ele>
        <time>2021-12-23T09:25:23Z</time>
      </trkpt>
      <trkpt lat="45.2679" lon="6.10153">
        <ele>1502</ele>
        <time>2021-12-23T09:25:24Z</time>
      </trkpt>
      <trkpt lat="45.2679" lon="6.10154">
        <ele>1503</ele>
        <time>2021-12-23T09:25:25Z</time>
      </trkpt>
      <trkpt lat="45.2679" lon="6.10155">
        <ele>1503</ele>
        <time>2021-12-23T09:25:26Z</time>
      </trkpt>
      <trkpt lat="45.26789" lon="6.10156">
        <ele>1503</ele>
        <time>2021-12-23T09:25:27Z</time>
      </trkpt>
      <trkpt lat="45.26789" lon="6.10157">
        <ele>1503</ele>
        <time>2021-12-23T09:25:28Z</time>
      </trkpt>
      <trkpt lat="45.26789" lon="6.10159">
        <ele>1504</ele>
        <time>2021-12-23T09:25:29Z</time>
      </trkpt>
      <trkpt lat="45.26788" lon="6.1016">
        <ele>1504</ele>
        <time>2021-12-23T09:25:30Z</time>
      </trkpt>
      <trkpt lat="45.26788" lon="6.10161">
        <ele>1504</ele>
        <time>2021-12-23T09:25:31Z</time>
      </trkpt>
      <trkpt lat="45.26788" lon="6.10162">
        <ele>1505</ele>
        <time>2021-12-23T09:25:32Z</time>
      </trkpt>
      <trkpt lat="45.26788" lon="6.10164">
        <ele>1505</ele>
        <time>2021-12-23T09:25:33Z</time>
      </trkpt>
      <trkpt lat="45.26788" lon="6.10164">
        <ele>1505</ele>
        <time>2021-12-23T09:25:34Z</time>
      </trkpt>
      <trkpt lat="45.26788" lon="6.10165">
        <ele>1505</ele>
        <time>2021-12-23T09:25:35Z</time>
      </trkpt>
      <trkpt lat="45.26788" lon="6.10166">
        <ele>1505</ele>
        <time>2021-12-23T09:25:36Z</time>
      </trkpt>
      <trkpt lat="45.26787" lon="6.10167">
        <ele>1506</ele>
        <time>2021-12-23T09:25:37Z</time>
      </trkpt>
      <trkpt lat="45.26787" lon="6.10168">
        <ele>1507</ele>
        <time>2021-12-23T09:25:39Z</time>
      </trkpt>
      <trkpt lat="45.26787" lon="6.10168">
        <ele>1507</ele>
        <time>2021-12-23T09:25:40Z</time>
      </trkpt>
      <trkpt lat="45.26787" lon="6.10169">
        <ele>1507</ele>
        <time>2021-12-23T09:25:41Z</time>
      </trkpt>
      <trkpt lat="45.26787" lon="6.1017">
        <ele>1507</ele>
        <time>2021-12-23T09:25:42Z</time>
      </trkpt>
      <trkpt lat="45.26787" lon="6.10171">
        <ele>1507</ele>
        <time>2021-12-23T09:25:43Z</time>
      </trkpt>
      <trkpt lat="45.26787" lon="6.10171">
        <ele>1507</ele>
        <time>2021-12-23T09:25:44Z</time>
      </trkpt>
      <trkpt lat="45.26787" lon="6.10172">
        <ele>1508</ele>
        <time>2021-12-23T09:25:45Z</time>
      </trkpt>
      <trkpt lat="45.26787" lon="6.10173">
        <ele>1508</ele>
        <time>2021-12-23T09:25:46Z</time>
      </trkpt>
      <trkpt lat="45.26787" lon="6.10174">
        <ele>1508</ele>
        <time>2021-12-23T09:25:47Z</time>
      </trkpt>
      <trkpt lat="45.26787" lon="6.10175">
        <ele>1508</ele>
        <time>2021-12-23T09:25:48Z</time>
      </trkpt>
      <trkpt lat="45.26787" lon="6.10175">
        <ele>1508</ele>
        <time>2021-12-23T09:25:50Z</time>
      </trkpt>
      <trkpt lat="45.26787" lon="6.10176">
        <ele>1508</ele>
        <time>2021-12-23T09:25:51Z</time>
      </trkpt>
      <trkpt lat="45.26787" lon="6.10177">
        <ele>1508</ele>
        <time>2021-12-23T09:25:52Z</time>
      </trkpt>
      <trkpt lat="45.26786" lon="6.10179">
        <ele>1509</ele>
        <time>2021-12-23T09:25:53Z</time>
      </trkpt>
      <trkpt lat="45.26786" lon="6.1018">
        <ele>1509</ele>
        <time>2021-12-23T09:25:54Z</time>
      </trkpt>
      <trkpt lat="45.26785" lon="6.10182">
        <ele>1509</ele>
        <time>2021-12-23T09:25:55Z</time>
      </trkpt>
      <trkpt lat="45.26785" lon="6.10183">
        <ele>1509</ele>
        <time>2021-12-23T09:25:56Z</time>
      </trkpt>
      <trkpt lat="45.26784" lon="6.10185">
        <ele>1510</ele>
        <time>2021-12-23T09:25:58Z</time>
      </trkpt>
      <trkpt lat="45.26784" lon="6.10186">
        <ele>1510</ele>
        <time>2021-12-23T09:25:59Z</time>
      </trkpt>
      <trkpt lat="45.26783" lon="6.10188">
        <ele>1510</ele>
        <time>2021-12-23T09:26:00Z</time>
      </trkpt>
      <trkpt lat="45.26783" lon="6.10189">
        <ele>1511</ele>
        <time>2021-12-23T09:26:01Z</time>
      </trkpt>
      <trkpt lat="45.26782" lon="6.1019">
        <ele>1511</ele>
        <time>2021-12-23T09:26:02Z</time>
      </trkpt>
      <trkpt lat="45.26782" lon="6.10191">
        <ele>1512</ele>
        <time>2021-12-23T09:26:03Z</time>
      </trkpt>
      <trkpt lat="45.26781" lon="6.10193">
        <ele>1512</ele>
        <time>2021-12-23T09:26:04Z</time>
      </trkpt>
      <trkpt lat="45.26781" lon="6.10194">
        <ele>1512</ele>
        <time>2021-12-23T09:26:05Z</time>
      </trkpt>
      <trkpt lat="45.2678" lon="6.10195">
        <ele>1512</ele>
        <time>2021-12-23T09:26:06Z</time>
      </trkpt>
      <trkpt lat="45.2678" lon="6.10196">
        <ele>1512</ele>
        <time>2021-12-23T09:26:07Z</time>
      </trkpt>
      <trkpt lat="45.26779" lon="6.10197">
        <ele>1512</ele>
        <time>2021-12-23T09:26:08Z</time>
      </trkpt>
      <trkpt lat="45.26779" lon="6.10198">
        <ele>1512</ele>
        <time>2021-12-23T09:26:09Z</time>
      </trkpt>
      <trkpt lat="45.26778" lon="6.10199">
        <ele>1512</ele>
        <time>2021-12-23T09:26:10Z</time>
      </trkpt>
      <trkpt lat="45.26778" lon="6.102">
        <ele>1512</ele>
        <time>2021-12-23T09:26:11Z</time>
      </trkpt>
      <trkpt lat="45.26778" lon="6.10202">
        <ele>1513</ele>
        <time>2021-12-23T09:26:12Z</time>
      </trkpt>
      <trkpt lat="45.26778" lon="6.10203">
        <ele>1513</ele>
        <time>2021-12-23T09:26:13Z</time>
      </trkpt>
      <trkpt lat="45.26778" lon="6.10205">
        <ele>1514</ele>
        <time>2021-12-23T09:26:14Z</time>
      </trkpt>
      <trkpt lat="45.26778" lon="6.10206">
        <ele>1514</ele>
        <time>2021-12-23T09:26:16Z</time>
      </trkpt>
      <trkpt lat="45.26778" lon="6.10207">
        <ele>1515</ele>
        <time>2021-12-23T09:26:17Z</time>
      </trkpt>
      <trkpt lat="45.26778" lon="6.10209">
        <ele>1515</ele>
        <time>2021-12-23T09:26:18Z</time>
      </trkpt>
      <trkpt lat="45.26777" lon="6.1021">
        <ele>1515</ele>
        <time>2021-12-23T09:26:19Z</time>
      </trkpt>
      <trkpt lat="45.26777" lon="6.10212">
        <ele>1515</ele>
        <time>2021-12-23T09:26:20Z</time>
      </trkpt>
      <trkpt lat="45.26777" lon="6.10213">
        <ele>1515</ele>
        <time>2021-12-23T09:26:21Z</time>
      </trkpt>
      <trkpt lat="45.26777" lon="6.10215">
        <ele>1515</ele>
        <time>2021-12-23T09:26:22Z</time>
      </trkpt>
      <trkpt lat="45.26776" lon="6.10216">
        <ele>1515</ele>
        <time>2021-12-23T09:26:23Z</time>
      </trkpt>
      <trkpt lat="45.26775" lon="6.10218">
        <ele>1516</ele>
        <time>2021-12-23T09:26:24Z</time>
      </trkpt>
      <trkpt lat="45.26775" lon="6.10219">
        <ele>1516</ele>
        <time>2021-12-23T09:26:25Z</time>
      </trkpt>
      <trkpt lat="45.26774" lon="6.10221">
        <ele>1516</ele>
        <time>2021-12-23T09:26:26Z</time>
      </trkpt>
      <trkpt lat="45.26774" lon="6.10222">
        <ele>1516</ele>
        <time>2021-12-23T09:26:27Z</time>
      </trkpt>
      <trkpt lat="45.26773" lon="6.10224">
        <ele>1516</ele>
        <time>2021-12-23T09:26:28Z</time>
      </trkpt>
      <trkpt lat="45.26772" lon="6.10225">
        <ele>1516</ele>
        <time>2021-12-23T09:26:29Z</time>
      </trkpt>
      <trkpt lat="45.26772" lon="6.10226">
        <ele>1516</ele>
        <time>2021-12-23T09:26:30Z</time>
      </trkpt>
      <trkpt lat="45.26772" lon="6.10226">
        <ele>1516</ele>
        <time>2021-12-23T09:26:31Z</time>
      </trkpt>
      <trkpt lat="45.26772" lon="6.10227">
        <ele>1516</ele>
        <time>2021-12-23T09:26:32Z</time>
      </trkpt>
      <trkpt lat="45.26772" lon="6.10227">
        <ele>1516</ele>
        <time>2021-12-23T09:26:33Z</time>
      </trkpt>
      <trkpt lat="45.26771" lon="6.10228">
        <ele>1517</ele>
        <time>2021-12-23T09:26:34Z</time>
      </trkpt>
      <trkpt lat="45.26771" lon="6.10228">
        <ele>1517</ele>
        <time>2021-12-23T09:26:36Z</time>
      </trkpt>
      <trkpt lat="45.26771" lon="6.10229">
        <ele>1517</ele>
        <time>2021-12-23T09:26:37Z</time>
      </trkpt>
      <trkpt lat="45.26771" lon="6.10229">
        <ele>1517</ele>
        <time>2021-12-23T09:26:38Z</time>
      </trkpt>
      <trkpt lat="45.26771" lon="6.10229">
        <ele>1517</ele>
        <time>2021-12-23T09:26:39Z</time>
      </trkpt>
      <trkpt lat="45.26771" lon="6.1023">
        <ele>1517</ele>
        <time>2021-12-23T09:26:40Z</time>
      </trkpt>
      <trkpt lat="45.2677" lon="6.1023">
        <ele>1517</ele>
        <time>2021-12-23T09:26:41Z</time>
      </trkpt>
      <trkpt lat="45.2677" lon="6.10231">
        <ele>1517</ele>
        <time>2021-12-23T09:26:42Z</time>
      </trkpt>
      <trkpt lat="45.2677" lon="6.10231">
        <ele>1517</ele>
        <time>2021-12-23T09:26:43Z</time>
      </trkpt>
      <trkpt lat="45.2677" lon="6.10232">
        <ele>1517</ele>
        <time>2021-12-23T09:26:44Z</time>
      </trkpt>
      <trkpt lat="45.26767" lon="6.10238">
        <ele>1517</ele>
        <time>2021-12-23T09:26:45Z</time>
      </trkpt>
      <trkpt lat="45.26766" lon="6.10239">
        <ele>1518</ele>
        <time>2021-12-23T09:26:46Z</time>
      </trkpt>
      <trkpt lat="45.26766" lon="6.1024">
        <ele>1518</ele>
        <time>2021-12-23T09:26:47Z</time>
      </trkpt>
      <trkpt lat="45.26766" lon="6.10241">
        <ele>1518</ele>
        <time>2021-12-23T09:26:48Z</time>
      </trkpt>
      <trkpt lat="45.26765" lon="6.10242">
        <ele>1518</ele>
        <time>2021-12-23T09:26:49Z</time>
      </trkpt>
      <trkpt lat="45.26765" lon="6.10243">
        <ele>1518</ele>
        <time>2021-12-23T09:26:50Z</time>
      </trkpt>
      <trkpt lat="45.26764" lon="6.10243">
        <ele>1519</ele>
        <time>2021-12-23T09:26:51Z</time>
      </trkpt>
      <trkpt lat="45.26764" lon="6.10244">
        <ele>1519</ele>
        <time>2021-12-23T09:26:52Z</time>
      </trkpt>
      <trkpt lat="45.26763" lon="6.10245">
        <ele>1519</ele>
        <time>2021-12-23T09:26:53Z</time>
      </trkpt>
      <trkpt lat="45.26763" lon="6.10246">
        <ele>1520</ele>
        <time>2021-12-23T09:26:55Z</time>
      </trkpt>
      <trkpt lat="45.26763" lon="6.10247">
        <ele>1520</ele>
        <time>2021-12-23T09:26:56Z</time>
      </trkpt>
      <trkpt lat="45.26762" lon="6.10247">
        <ele>1520</ele>
        <time>2021-12-23T09:26:57Z</time>
      </trkpt>
      <trkpt lat="45.26762" lon="6.10247">
        <ele>1520</ele>
        <time>2021-12-23T09:26:58Z</time>
      </trkpt>
      <trkpt lat="45.26762" lon="6.10247">
        <ele>1521</ele>
        <time>2021-12-23T09:26:59Z</time>
      </trkpt>
      <trkpt lat="45.26762" lon="6.10247">
        <ele>1521</ele>
        <time>2021-12-23T09:27:00Z</time>
      </trkpt>
      <trkpt lat="45.26762" lon="6.10247">
        <ele>1521</ele>
        <time>2021-12-23T09:27:01Z</time>
      </trkpt>
      <trkpt lat="45.26762" lon="6.10247">
        <ele>1521</ele>
        <time>2021-12-23T09:27:02Z</time>
      </trkpt>
      <trkpt lat="45.26762" lon="6.10247">
        <ele>1521</ele>
        <time>2021-12-23T09:27:03Z</time>
      </trkpt>
      <trkpt lat="45.26762" lon="6.10247">
        <ele>1521</ele>
        <time>2021-12-23T09:27:04Z</time>
      </trkpt>
      <trkpt lat="45.26762" lon="6.10247">
        <ele>1521</ele>
        <time>2021-12-23T09:27:05Z</time>
      </trkpt>
      <trkpt lat="45.26762" lon="6.10247">
        <ele>1521</ele>
        <time>2021-12-23T09:27:06Z</time>
      </trkpt>
      <trkpt lat="45.26762" lon="6.10247">
        <ele>1521</ele>
        <time>2021-12-23T09:27:07Z</time>
      </trkpt>
      <trkpt lat="45.26762" lon="6.10247">
        <ele>1521</ele>
        <time>2021-12-23T09:27:08Z</time>
      </trkpt>
      <trkpt lat="45.26762" lon="6.10247">
        <ele>1521</ele>
        <time>2021-12-23T09:27:09Z</time>
      </trkpt>
      <trkpt lat="45.26762" lon="6.10247">
        <ele>1521</ele>
        <time>2021-12-23T09:27:10Z</time>
      </trkpt>
      <trkpt lat="45.26762" lon="6.10247">
        <ele>1523</ele>
        <time>2021-12-23T09:27:12Z</time>
      </trkpt>
      <trkpt lat="45.26766" lon="6.1026">
        <ele>1523</ele>
        <time>2021-12-23T09:27:14Z</time>
      </trkpt>
      <trkpt lat="45.26766" lon="6.1026">
        <ele>1523</ele>
        <time>2021-12-23T09:27:15Z</time>
      </trkpt>
      <trkpt lat="45.26766" lon="6.1026">
        <ele>1523</ele>
        <time>2021-12-23T09:27:16Z</time>
      </trkpt>
      <trkpt lat="45.26756" lon="6.10259">
        <ele>1523</ele>
        <time>2021-12-23T09:27:17Z</time>
      </trkpt>
      <trkpt lat="45.26756" lon="6.10259">
        <ele>1523</ele>
        <time>2021-12-23T09:27:19Z</time>
      </trkpt>
      <trkpt lat="45.26755" lon="6.10259">
        <ele>1524</ele>
        <time>2021-12-23T09:27:20Z</time>
      </trkpt>
      <trkpt lat="45.26755" lon="6.1026">
        <ele>1524</ele>
        <time>2021-12-23T09:27:21Z</time>
      </trkpt>
      <trkpt lat="45.26754" lon="6.10261">
        <ele>1524</ele>
        <time>2021-12-23T09:27:22Z</time>
      </trkpt>
      <trkpt lat="45.26754" lon="6.10261">
        <ele>1524</ele>
        <time>2021-12-23T09:27:23Z</time>
      </trkpt>
      <trkpt lat="45.26753" lon="6.10262">
        <ele>1524</ele>
        <time>2021-12-23T09:27:24Z</time>
      </trkpt>
      <trkpt lat="45.26753" lon="6.10263">
        <ele>1525</ele>
        <time>2021-12-23T09:27:25Z</time>
      </trkpt>
      <trkpt lat="45.26752" lon="6.10263">
        <ele>1525</ele>
        <time>2021-12-23T09:27:26Z</time>
      </trkpt>
      <trkpt lat="45.26752" lon="6.10264">
        <ele>1525</ele>
        <time>2021-12-23T09:27:27Z</time>
      </trkpt>
      <trkpt lat="45.26747" lon="6.10269">
        <ele>1525</ele>
        <time>2021-12-23T09:27:28Z</time>
      </trkpt>
      <trkpt lat="45.26746" lon="6.1027">
        <ele>1526</ele>
        <time>2021-12-23T09:27:29Z</time>
      </trkpt>
      <trkpt lat="45.26745" lon="6.10271">
        <ele>1526</ele>
        <time>2021-12-23T09:27:31Z</time>
      </trkpt>
      <trkpt lat="45.26744" lon="6.10271">
        <ele>1526</ele>
        <time>2021-12-23T09:27:33Z</time>
      </trkpt>
      <trkpt lat="45.26743" lon="6.10272">
        <ele>1526</ele>
        <time>2021-12-23T09:27:34Z</time>
      </trkpt>
      <trkpt lat="45.26741" lon="6.10272">
        <ele>1526</ele>
        <time>2021-12-23T09:27:35Z</time>
      </trkpt>
      <trkpt lat="45.2674" lon="6.10273">
        <ele>1526</ele>
        <time>2021-12-23T09:27:36Z</time>
      </trkpt>
      <trkpt lat="45.26739" lon="6.10274">
        <ele>1526</ele>
        <time>2021-12-23T09:27:37Z</time>
      </trkpt>
      <trkpt lat="45.26738" lon="6.10274">
        <ele>1526</ele>
        <time>2021-12-23T09:27:38Z</time>
      </trkpt>
      <trkpt lat="45.26737" lon="6.10274">
        <ele>1527</ele>
        <time>2021-12-23T09:27:40Z</time>
      </trkpt>
      <trkpt lat="45.26736" lon="6.10274">
        <ele>1527</ele>
        <time>2021-12-23T09:27:41Z</time>
      </trkpt>
      <trkpt lat="45.26735" lon="6.10275">
        <ele>1527</ele>
        <time>2021-12-23T09:27:42Z</time>
      </trkpt>
      <trkpt lat="45.26734" lon="6.10275">
        <ele>1528</ele>
        <time>2021-12-23T09:27:43Z</time>
      </trkpt>
      <trkpt lat="45.26733" lon="6.10275">
        <ele>1528</ele>
        <time>2021-12-23T09:27:44Z</time>
      </trkpt>
      <trkpt lat="45.26732" lon="6.10276">
        <ele>1528</ele>
        <time>2021-12-23T09:27:45Z</time>
      </trkpt>
      <trkpt lat="45.26731" lon="6.10276">
        <ele>1528</ele>
        <time>2021-12-23T09:27:46Z</time>
      </trkpt>
      <trkpt lat="45.2673" lon="6.10276">
        <ele>1528</ele>
        <time>2021-12-23T09:27:48Z</time>
      </trkpt>
      <trkpt lat="45.26729" lon="6.10277">
        <ele>1528</ele>
        <time>2021-12-23T09:27:49Z</time>
      </trkpt>
      <trkpt lat="45.26729" lon="6.10278">
        <ele>1528</ele>
        <time>2021-12-23T09:27:50Z</time>
      </trkpt>
      <trkpt lat="45.26729" lon="6.10279">
        <ele>1528</ele>
        <time>2021-12-23T09:27:52Z</time>
      </trkpt>
      <trkpt lat="45.26729" lon="6.10279">
        <ele>1528</ele>
        <time>2021-12-23T09:27:53Z</time>
      </trkpt>
      <trkpt lat="45.26729" lon="6.1028">
        <ele>1528</ele>
        <time>2021-12-23T09:27:54Z</time>
      </trkpt>
      <trkpt lat="45.26729" lon="6.10281">
        <ele>1529</ele>
        <time>2021-12-23T09:27:55Z</time>
      </trkpt>
      <trkpt lat="45.26728" lon="6.10291">
        <ele>1530</ele>
        <time>2021-12-23T09:27:57Z</time>
      </trkpt>
      <trkpt lat="45.26728" lon="6.10291">
        <ele>1530</ele>
        <time>2021-12-23T09:27:58Z</time>
      </trkpt>
      <trkpt lat="45.26728" lon="6.10291">
        <ele>1530</ele>
        <time>2021-12-23T09:27:59Z</time>
      </trkpt>
      <trkpt lat="45.26728" lon="6.10291">
        <ele>1530</ele>
        <time>2021-12-23T09:28:01Z</time>
      </trkpt>
      <trkpt lat="45.26728" lon="6.10291">
        <ele>1530</ele>
        <time>2021-12-23T09:28:02Z</time>
      </trkpt>
      <trkpt lat="45.26728" lon="6.10291">
        <ele>1530</ele>
        <time>2021-12-23T09:28:03Z</time>
      </trkpt>
      <trkpt lat="45.26728" lon="6.10291">
        <ele>1530</ele>
        <time>2021-12-23T09:28:04Z</time>
      </trkpt>
      <trkpt lat="45.26728" lon="6.10291">
        <ele>1530</ele>
        <time>2021-12-23T09:28:05Z</time>
      </trkpt>
      <trkpt lat="45.26728" lon="6.10291">
        <ele>1530</ele>
        <time>2021-12-23T09:28:06Z</time>
      </trkpt>
      <trkpt lat="45.26728" lon="6.10291">
        <ele>1530</ele>
        <time>2021-12-23T09:28:07Z</time>
      </trkpt>
      <trkpt lat="45.26728" lon="6.10291">
        <ele>1530</ele>
        <time>2021-12-23T09:28:08Z</time>
      </trkpt>
      <trkpt lat="45.26728" lon="6.10291">
        <ele>1530</ele>
        <time>2021-12-23T09:28:09Z</time>
      </trkpt>
      <trkpt lat="45.26728" lon="6.10291">
        <ele>1531</ele>
        <time>2021-12-23T09:28:11Z</time>
      </trkpt>
      <trkpt lat="45.26728" lon="6.10291">
        <ele>1531</ele>
        <time>2021-12-23T09:28:12Z</time>
      </trkpt>
      <trkpt lat="45.26729" lon="6.10304">
        <ele>1531</ele>
        <time>2021-12-23T09:28:13Z</time>
      </trkpt>
      <trkpt lat="45.26729" lon="6.10304">
        <ele>1531</ele>
        <time>2021-12-23T09:28:15Z</time>
      </trkpt>
      <trkpt lat="45.26729" lon="6.10305">
        <ele>1531</ele>
        <time>2021-12-23T09:28:16Z</time>
      </trkpt>
      <trkpt lat="45.26729" lon="6.10305">
        <ele>1531</ele>
        <time>2021-12-23T09:28:17Z</time>
      </trkpt>
      <trkpt lat="45.26729" lon="6.10306">
        <ele>1531</ele>
        <time>2021-12-23T09:28:19Z</time>
      </trkpt>
      <trkpt lat="45.26729" lon="6.10307">
        <ele>1531</ele>
        <time>2021-12-23T09:28:20Z</time>
      </trkpt>
      <trkpt lat="45.26729" lon="6.10308">
        <ele>1531</ele>
        <time>2021-12-23T09:28:21Z</time>
      </trkpt>
      <trkpt lat="45.26729" lon="6.10309">
        <ele>1532</ele>
        <time>2021-12-23T09:28:22Z</time>
      </trkpt>
      <trkpt lat="45.26728" lon="6.10309">
        <ele>1532</ele>
        <time>2021-12-23T09:28:23Z</time>
      </trkpt>
      <trkpt lat="45.26728" lon="6.1031">
        <ele>1532</ele>
        <time>2021-12-23T09:28:24Z</time>
      </trkpt>
      <trkpt lat="45.26728" lon="6.10311">
        <ele>1533</ele>
        <time>2021-12-23T09:28:25Z</time>
      </trkpt>
      <trkpt lat="45.26728" lon="6.10312">
        <ele>1533</ele>
        <time>2021-12-23T09:28:27Z</time>
      </trkpt>
      <trkpt lat="45.26728" lon="6.10313">
        <ele>1533</ele>
        <time>2021-12-23T09:28:28Z</time>
      </trkpt>
      <trkpt lat="45.26728" lon="6.10313">
        <ele>1533</ele>
        <time>2021-12-23T09:28:30Z</time>
      </trkpt>
      <trkpt lat="45.26728" lon="6.10314">
        <ele>1533</ele>
        <time>2021-12-23T09:28:31Z</time>
      </trkpt>
      <trkpt lat="45.26728" lon="6.10315">
        <ele>1533</ele>
        <time>2021-12-23T09:28:32Z</time>
      </trkpt>
      <trkpt lat="45.26728" lon="6.10316">
        <ele>1533</ele>
        <time>2021-12-23T09:28:33Z</time>
      </trkpt>
      <trkpt lat="45.26728" lon="6.10316">
        <ele>1533</ele>
        <time>2021-12-23T09:28:34Z</time>
      </trkpt>
      <trkpt lat="45.26728" lon="6.10317">
        <ele>1534</ele>
        <time>2021-12-23T09:28:35Z</time>
      </trkpt>
      <trkpt lat="45.26728" lon="6.10318">
        <ele>1534</ele>
        <time>2021-12-23T09:28:36Z</time>
      </trkpt>
      <trkpt lat="45.26728" lon="6.10319">
        <ele>1534</ele>
        <time>2021-12-23T09:28:37Z</time>
      </trkpt>
      <trkpt lat="45.26728" lon="6.1032">
        <ele>1533</ele>
        <time>2021-12-23T09:28:38Z</time>
      </trkpt>
      <trkpt lat="45.26728" lon="6.10321">
        <ele>1532</ele>
        <time>2021-12-23T09:28:39Z</time>
      </trkpt>
      <trkpt lat="45.26728" lon="6.10322">
        <ele>1532</ele>
        <time>2021-12-23T09:28:41Z</time>
      </trkpt>
      <trkpt lat="45.26728" lon="6.10323">
        <ele>1532</ele>
        <time>2021-12-23T09:28:42Z</time>
      </trkpt>
      <trkpt lat="45.26728" lon="6.10324">
        <ele>1532</ele>
        <time>2021-12-23T09:28:43Z</time>
      </trkpt>
      <trkpt lat="45.26728" lon="6.10325">
        <ele>1532</ele>
        <time>2021-12-23T09:28:44Z</time>
      </trkpt>
      <trkpt lat="45.26728" lon="6.10326">
        <ele>1532</ele>
        <time>2021-12-23T09:28:45Z</time>
      </trkpt>
      <trkpt lat="45.26728" lon="6.10327">
        <ele>1532</ele>
        <time>2021-12-23T09:28:46Z</time>
      </trkpt>
      <trkpt lat="45.26728" lon="6.10328">
        <ele>1532</ele>
        <time>2021-12-23T09:28:47Z</time>
      </trkpt>
      <trkpt lat="45.26728" lon="6.10329">
        <ele>1532</ele>
        <time>2021-12-23T09:28:48Z</time>
      </trkpt>
      <trkpt lat="45.26728" lon="6.1033">
        <ele>1532</ele>
        <time>2021-12-23T09:28:49Z</time>
      </trkpt>
      <trkpt lat="45.26727" lon="6.10332">
        <ele>1532</ele>
        <time>2021-12-23T09:28:50Z</time>
      </trkpt>
      <trkpt lat="45.26727" lon="6.10333">
        <ele>1532</ele>
        <time>2021-12-23T09:28:51Z</time>
      </trkpt>
      <trkpt lat="45.26727" lon="6.10334">
        <ele>1531</ele>
        <time>2021-12-23T09:28:52Z</time>
      </trkpt>
      <trkpt lat="45.26726" lon="6.10336">
        <ele>1531</ele>
        <time>2021-12-23T09:28:53Z</time>
      </trkpt>
      <trkpt lat="45.26726" lon="6.10337">
        <ele>1531</ele>
        <time>2021-12-23T09:28:54Z</time>
      </trkpt>
      <trkpt lat="45.26726" lon="6.10338">
        <ele>1532</ele>
        <time>2021-12-23T09:28:56Z</time>
      </trkpt>
      <trkpt lat="45.26725" lon="6.1034">
        <ele>1532</ele>
        <time>2021-12-23T09:28:58Z</time>
      </trkpt>
      <trkpt lat="45.26725" lon="6.10341">
        <ele>1532</ele>
        <time>2021-12-23T09:28:59Z</time>
      </trkpt>
      <trkpt lat="45.26724" lon="6.10343">
        <ele>1532</ele>
        <time>2021-12-23T09:29:00Z</time>
      </trkpt>
      <trkpt lat="45.26724" lon="6.10344">
        <ele>1532</ele>
        <time>2021-12-23T09:29:01Z</time>
      </trkpt>
      <trkpt lat="45.26725" lon="6.10345">
        <ele>1532</ele>
        <time>2021-12-23T09:29:02Z</time>
      </trkpt>
      <trkpt lat="45.26726" lon="6.10347">
        <ele>1534</ele>
        <time>2021-12-23T09:29:04Z</time>
      </trkpt>
      <trkpt lat="45.26727" lon="6.10349">
        <ele>1534</ele>
        <time>2021-12-23T09:29:06Z</time>
      </trkpt>
      <trkpt lat="45.26728" lon="6.1035">
        <ele>1534</ele>
        <time>2021-12-23T09:29:08Z</time>
      </trkpt>
      <trkpt lat="45.26729" lon="6.10352">
        <ele>1534</ele>
        <time>2021-12-23T09:29:09Z</time>
      </trkpt>
      <trkpt lat="45.2673" lon="6.10354">
        <ele>1534</ele>
        <time>2021-12-23T09:29:10Z</time>
      </trkpt>
      <trkpt lat="45.2673" lon="6.10354">
        <ele>1534</ele>
        <time>2021-12-23T09:29:11Z</time>
      </trkpt>
      <trkpt lat="45.2673" lon="6.10354">
        <ele>1534</ele>
        <time>2021-12-23T09:29:12Z</time>
      </trkpt>
      <trkpt lat="45.2673" lon="6.10354">
        <ele>1534</ele>
        <time>2021-12-23T09:29:13Z</time>
      </trkpt>
      <trkpt lat="45.2673" lon="6.10354">
        <ele>1534</ele>
        <time>2021-12-23T09:29:14Z</time>
      </trkpt>
      <trkpt lat="45.2673" lon="6.10354">
        <ele>1534</ele>
        <time>2021-12-23T09:29:15Z</time>
      </trkpt>
      <trkpt lat="45.2673" lon="6.10354">
        <ele>1534</ele>
        <time>2021-12-23T09:29:16Z</time>
      </trkpt>
      <trkpt lat="45.2673" lon="6.10354">
        <ele>1535</ele>
        <time>2021-12-23T09:29:17Z</time>
      </trkpt>
      <trkpt lat="45.2673" lon="6.10354">
        <ele>1535</ele>
        <time>2021-12-23T09:29:19Z</time>
      </trkpt>
      <trkpt lat="45.26722" lon="6.10366">
        <ele>1535</ele>
        <time>2021-12-23T09:29:20Z</time>
      </trkpt>
      <trkpt lat="45.26722" lon="6.10366">
        <ele>1535</ele>
        <time>2021-12-23T09:29:22Z</time>
      </trkpt>
      <trkpt lat="45.26722" lon="6.10367">
        <ele>1535</ele>
        <time>2021-12-23T09:29:24Z</time>
      </trkpt>
      <trkpt lat="45.26722" lon="6.10369">
        <ele>1535</ele>
        <time>2021-12-23T09:29:25Z</time>
      </trkpt>
      <trkpt lat="45.26722" lon="6.10371">
        <ele>1536</ele>
        <time>2021-12-23T09:29:27Z</time>
      </trkpt>
      <trkpt lat="45.26722" lon="6.10373">
        <ele>1536</ele>
        <time>2021-12-23T09:29:28Z</time>
      </trkpt>
      <trkpt lat="45.26722" lon="6.10381">
        <ele>1536</ele>
        <time>2021-12-23T09:29:29Z</time>
      </trkpt>
      <trkpt lat="45.26721" lon="6.10382">
        <ele>1536</ele>
        <time>2021-12-23T09:29:30Z</time>
      </trkpt>
      <trkpt lat="45.26721" lon="6.10382">
        <ele>1536</ele>
        <time>2021-12-23T09:29:31Z</time>
      </trkpt>
      <trkpt lat="45.26721" lon="6.10382">
        <ele>1536</ele>
        <time>2021-12-23T09:29:32Z</time>
      </trkpt>
      <trkpt lat="45.26721" lon="6.10382">
        <ele>1536</ele>
        <time>2021-12-23T09:29:33Z</time>
      </trkpt>
      <trkpt lat="45.26721" lon="6.10383">
        <ele>1536</ele>
        <time>2021-12-23T09:29:35Z</time>
      </trkpt>
      <trkpt lat="45.26721" lon="6.10383">
        <ele>1536</ele>
        <time>2021-12-23T09:29:36Z</time>
      </trkpt>
      <trkpt lat="45.26721" lon="6.10383">
        <ele>1536</ele>
        <time>2021-12-23T09:29:37Z</time>
      </trkpt>
      <trkpt lat="45.26721" lon="6.10383">
        <ele>1537</ele>
        <time>2021-12-23T09:29:38Z</time>
      </trkpt>
      <trkpt lat="45.2672" lon="6.10384">
        <ele>1537</ele>
        <time>2021-12-23T09:29:40Z</time>
      </trkpt>
      <trkpt lat="45.2672" lon="6.10384">
        <ele>1537</ele>
        <time>2021-12-23T09:29:41Z</time>
      </trkpt>
      <trkpt lat="45.2672" lon="6.10384">
        <ele>1537</ele>
        <time>2021-12-23T09:29:42Z</time>
      </trkpt>
      <trkpt lat="45.2672" lon="6.10384">
        <ele>1537</ele>
        <time>2021-12-23T09:29:43Z</time>
      </trkpt>
      <trkpt lat="45.2672" lon="6.10385">
        <ele>1537</ele>
        <time>2021-12-23T09:29:44Z</time>
      </trkpt>
      <trkpt lat="45.2672" lon="6.10385">
        <ele>1537</ele>
        <time>2021-12-23T09:29:46Z</time>
      </trkpt>
      <trkpt lat="45.2672" lon="6.10385">
        <ele>1537</ele>
        <time>2021-12-23T09:29:48Z</time>
      </trkpt>
      <trkpt lat="45.2672" lon="6.10385">
        <ele>1538</ele>
        <time>2021-12-23T09:29:50Z</time>
      </trkpt>
      <trkpt lat="45.2672" lon="6.10386">
        <ele>1538</ele>
        <time>2021-12-23T09:29:51Z</time>
      </trkpt>
      <trkpt lat="45.26719" lon="6.10386">
        <ele>1538</ele>
        <time>2021-12-23T09:29:52Z</time>
      </trkpt>
      <trkpt lat="45.26719" lon="6.10386">
        <ele>1538</ele>
        <time>2021-12-23T09:29:53Z</time>
      </trkpt>
      <trkpt lat="45.26719" lon="6.10386">
        <ele>1538</ele>
        <time>2021-12-23T09:29:54Z</time>
      </trkpt>
      <trkpt lat="45.26719" lon="6.10387">
        <ele>1538</ele>
        <time>2021-12-23T09:29:56Z</time>
      </trkpt>
      <trkpt lat="45.26719" lon="6.10387">
        <ele>1539</ele>
        <time>2021-12-23T09:29:57Z</time>
      </trkpt>
      <trkpt lat="45.26719" lon="6.10387">
        <ele>1539</ele>
        <time>2021-12-23T09:29:58Z</time>
      </trkpt>
      <trkpt lat="45.26719" lon="6.10387">
        <ele>1540</ele>
        <time>2021-12-23T09:29:59Z</time>
      </trkpt>
      <trkpt lat="45.26719" lon="6.10388">
        <ele>1540</ele>
        <time>2021-12-23T09:30:00Z</time>
      </trkpt>
      <trkpt lat="45.26718" lon="6.10388">
        <ele>1540</ele>
        <time>2021-12-23T09:30:01Z</time>
      </trkpt>
      <trkpt lat="45.26718" lon="6.10388">
        <ele>1541</ele>
        <time>2021-12-23T09:30:02Z</time>
      </trkpt>
      <trkpt lat="45.26718" lon="6.10388">
        <ele>1541</ele>
        <time>2021-12-23T09:30:03Z</time>
      </trkpt>
      <trkpt lat="45.26718" lon="6.10389">
        <ele>1541</ele>
        <time>2021-12-23T09:30:05Z</time>
      </trkpt>
      <trkpt lat="45.26718" lon="6.10389">
        <ele>1541</ele>
        <time>2021-12-23T09:30:06Z</time>
      </trkpt>
      <trkpt lat="45.26718" lon="6.10389">
        <ele>1541</ele>
        <time>2021-12-23T09:30:07Z</time>
      </trkpt>
      <trkpt lat="45.26718" lon="6.10389">
        <ele>1541</ele>
        <time>2021-12-23T09:30:08Z</time>
      </trkpt>
      <trkpt lat="45.26718" lon="6.1039">
        <ele>1542</ele>
        <time>2021-12-23T09:30:09Z</time>
      </trkpt>
      <trkpt lat="45.26717" lon="6.1039">
        <ele>1542</ele>
        <time>2021-12-23T09:30:11Z</time>
      </trkpt>
      <trkpt lat="45.26717" lon="6.1039">
        <ele>1542</ele>
        <time>2021-12-23T09:30:12Z</time>
      </trkpt>
      <trkpt lat="45.26717" lon="6.1039">
        <ele>1542</ele>
        <time>2021-12-23T09:30:13Z</time>
      </trkpt>
      <trkpt lat="45.26717" lon="6.10391">
        <ele>1542</ele>
        <time>2021-12-23T09:30:14Z</time>
      </trkpt>
      <trkpt lat="45.26718" lon="6.10389">
        <ele>1542</ele>
        <time>2021-12-23T09:30:15Z</time>
      </trkpt>
      <trkpt lat="45.26718" lon="6.10388">
        <ele>1543</ele>
        <time>2021-12-23T09:30:17Z</time>
      </trkpt>
      <trkpt lat="45.26719" lon="6.10386">
        <ele>1544</ele>
        <time>2021-12-23T09:30:19Z</time>
      </trkpt>
      <trkpt lat="45.26719" lon="6.10385">
        <ele>1544</ele>
        <time>2021-12-23T09:30:21Z</time>
      </trkpt>
      <trkpt lat="45.2672" lon="6.10383">
        <ele>1544</ele>
        <time>2021-12-23T09:30:22Z</time>
      </trkpt>
      <trkpt lat="45.2672" lon="6.10382">
        <ele>1544</ele>
        <time>2021-12-23T09:30:23Z</time>
      </trkpt>
      <trkpt lat="45.26721" lon="6.1038">
        <ele>1544</ele>
        <time>2021-12-23T09:30:24Z</time>
      </trkpt>
      <trkpt lat="45.26721" lon="6.10379">
        <ele>1544</ele>
        <time>2021-12-23T09:30:25Z</time>
      </trkpt>
      <trkpt lat="45.26722" lon="6.10377">
        <ele>1544</ele>
        <time>2021-12-23T09:30:26Z</time>
      </trkpt>
      <trkpt lat="45.26722" lon="6.10375">
        <ele>1544</ele>
        <time>2021-12-23T09:30:27Z</time>
      </trkpt>
      <trkpt lat="45.26722" lon="6.10373">
        <ele>1544</ele>
        <time>2021-12-23T09:30:29Z</time>
      </trkpt>
      <trkpt lat="45.26722" lon="6.10372">
        <ele>1544</ele>
        <time>2021-12-23T09:30:30Z</time>
      </trkpt>
      <trkpt lat="45.26722" lon="6.1037">
        <ele>1545</ele>
        <time>2021-12-23T09:30:32Z</time>
      </trkpt>
      <trkpt lat="45.26721" lon="6.10368">
        <ele>1545</ele>
        <time>2021-12-23T09:30:34Z</time>
      </trkpt>
      <trkpt lat="45.26721" lon="6.10366">
        <ele>1545</ele>
        <time>2021-12-23T09:30:35Z</time>
      </trkpt>
      <trkpt lat="45.26721" lon="6.10364">
        <ele>1545</ele>
        <time>2021-12-23T09:30:36Z</time>
      </trkpt>
      <trkpt lat="45.26721" lon="6.10362">
        <ele>1545</ele>
        <time>2021-12-23T09:30:37Z</time>
      </trkpt>
      <trkpt lat="45.26721" lon="6.1036">
        <ele>1545</ele>
        <time>2021-12-23T09:30:38Z</time>
      </trkpt>
      <trkpt lat="45.26723" lon="6.1036">
        <ele>1545</ele>
        <time>2021-12-23T09:30:39Z</time>
      </trkpt>
      <trkpt lat="45.26726" lon="6.10359">
        <ele>1545</ele>
        <time>2021-12-23T09:30:40Z</time>
      </trkpt>
      <trkpt lat="45.26728" lon="6.10359">
        <ele>1545</ele>
        <time>2021-12-23T09:30:42Z</time>
      </trkpt>
      <trkpt lat="45.2673" lon="6.10359">
        <ele>1546</ele>
        <time>2021-12-23T09:30:43Z</time>
      </trkpt>
      <trkpt lat="45.26732" lon="6.10359">
        <ele>1546</ele>
        <time>2021-12-23T09:30:44Z</time>
      </trkpt>
      <trkpt lat="45.26733" lon="6.10359">
        <ele>1546</ele>
        <time>2021-12-23T09:30:45Z</time>
      </trkpt>
      <trkpt lat="45.26734" lon="6.1036">
        <ele>1547</ele>
        <time>2021-12-23T09:30:47Z</time>
      </trkpt>
      <trkpt lat="45.26735" lon="6.10361">
        <ele>1547</ele>
        <time>2021-12-23T09:30:48Z</time>
      </trkpt>
      <trkpt lat="45.26736" lon="6.10362">
        <ele>1547</ele>
        <time>2021-12-23T09:30:49Z</time>
      </trkpt>
      <trkpt lat="45.26737" lon="6.10363">
        <ele>1547</ele>
        <time>2021-12-23T09:30:50Z</time>
      </trkpt>
      <trkpt lat="45.26738" lon="6.10364">
        <ele>1547</ele>
        <time>2021-12-23T09:30:52Z</time>
      </trkpt>
      <trkpt lat="45.26739" lon="6.10364">
        <ele>1547</ele>
        <time>2021-12-23T09:30:53Z</time>
      </trkpt>
      <trkpt lat="45.2674" lon="6.10365">
        <ele>1547</ele>
        <time>2021-12-23T09:30:54Z</time>
      </trkpt>
      <trkpt lat="45.2674" lon="6.10366">
        <ele>1548</ele>
        <time>2021-12-23T09:30:55Z</time>
      </trkpt>
      <trkpt lat="45.26741" lon="6.10367">
        <ele>1548</ele>
        <time>2021-12-23T09:30:56Z</time>
      </trkpt>
      <trkpt lat="45.26741" lon="6.10367">
        <ele>1549</ele>
        <time>2021-12-23T09:30:57Z</time>
      </trkpt>
      <trkpt lat="45.26741" lon="6.10368">
        <ele>1549</ele>
        <time>2021-12-23T09:30:59Z</time>
      </trkpt>
      <trkpt lat="45.26741" lon="6.10368">
        <ele>1549</ele>
        <time>2021-12-23T09:31:00Z</time>
      </trkpt>
      <trkpt lat="45.26742" lon="6.10369">
        <ele>1549</ele>
        <time>2021-12-23T09:31:02Z</time>
      </trkpt>
      <trkpt lat="45.26742" lon="6.10369">
        <ele>1549</ele>
        <time>2021-12-23T09:31:03Z</time>
      </trkpt>
      <trkpt lat="45.26742" lon="6.1037">
        <ele>1549</ele>
        <time>2021-12-23T09:31:04Z</time>
      </trkpt>
      <trkpt lat="45.26742" lon="6.1037">
        <ele>1549</ele>
        <time>2021-12-23T09:31:05Z</time>
      </trkpt>
      <trkpt lat="45.26743" lon="6.10371">
        <ele>1550</ele>
        <time>2021-12-23T09:31:07Z</time>
      </trkpt>
      <trkpt lat="45.26743" lon="6.10371">
        <ele>1550</ele>
        <time>2021-12-23T09:31:08Z</time>
      </trkpt>
      <trkpt lat="45.26743" lon="6.10372">
        <ele>1550</ele>
        <time>2021-12-23T09:31:09Z</time>
      </trkpt>
      <trkpt lat="45.26743" lon="6.10372">
        <ele>1551</ele>
        <time>2021-12-23T09:31:10Z</time>
      </trkpt>
      <trkpt lat="45.26743" lon="6.10373">
        <ele>1551</ele>
        <time>2021-12-23T09:31:11Z</time>
      </trkpt>
      <trkpt lat="45.26744" lon="6.10373">
        <ele>1551</ele>
        <time>2021-12-23T09:31:12Z</time>
      </trkpt>
      <trkpt lat="45.26744" lon="6.10374">
        <ele>1551</ele>
        <time>2021-12-23T09:31:13Z</time>
      </trkpt>
      <trkpt lat="45.26744" lon="6.10374">
        <ele>1551</ele>
        <time>2021-12-23T09:31:14Z</time>
      </trkpt>
      <trkpt lat="45.26744" lon="6.10375">
        <ele>1551</ele>
        <time>2021-12-23T09:31:15Z</time>
      </trkpt>
      <trkpt lat="45.26745" lon="6.10376">
        <ele>1551</ele>
        <time>2021-12-23T09:31:16Z</time>
      </trkpt>
      <trkpt lat="45.26745" lon="6.10376">
        <ele>1551</ele>
        <time>2021-12-23T09:31:17Z</time>
      </trkpt>
      <trkpt lat="45.26745" lon="6.10377">
        <ele>1551</ele>
        <time>2021-12-23T09:31:18Z</time>
      </trkpt>
      <trkpt lat="45.26745" lon="6.10377">
        <ele>1551</ele>
        <time>2021-12-23T09:31:19Z</time>
      </trkpt>
      <trkpt lat="45.26746" lon="6.10378">
        <ele>1552</ele>
        <time>2021-12-23T09:31:21Z</time>
      </trkpt>
      <trkpt lat="45.26746" lon="6.10379">
        <ele>1552</ele>
        <time>2021-12-23T09:31:22Z</time>
      </trkpt>
      <trkpt lat="45.26747" lon="6.1038">
        <ele>1552</ele>
        <time>2021-12-23T09:31:23Z</time>
      </trkpt>
      <trkpt lat="45.26747" lon="6.10381">
        <ele>1552</ele>
        <time>2021-12-23T09:31:24Z</time>
      </trkpt>
      <trkpt lat="45.26747" lon="6.10382">
        <ele>1553</ele>
        <time>2021-12-23T09:31:25Z</time>
      </trkpt>
      <trkpt lat="45.26748" lon="6.10383">
        <ele>1553</ele>
        <time>2021-12-23T09:31:26Z</time>
      </trkpt>
      <trkpt lat="45.26748" lon="6.10384">
        <ele>1553</ele>
        <time>2021-12-23T09:31:27Z</time>
      </trkpt>
      <trkpt lat="45.26748" lon="6.10385">
        <ele>1553</ele>
        <time>2021-12-23T09:31:28Z</time>
      </trkpt>
      <trkpt lat="45.26749" lon="6.10386">
        <ele>1553</ele>
        <time>2021-12-23T09:31:29Z</time>
      </trkpt>
      <trkpt lat="45.26749" lon="6.10387">
        <ele>1554</ele>
        <time>2021-12-23T09:31:30Z</time>
      </trkpt>
      <trkpt lat="45.2675" lon="6.10388">
        <ele>1554</ele>
        <time>2021-12-23T09:31:31Z</time>
      </trkpt>
      <trkpt lat="45.2675" lon="6.10388">
        <ele>1554</ele>
        <time>2021-12-23T09:31:32Z</time>
      </trkpt>
      <trkpt lat="45.2675" lon="6.10388">
        <ele>1554</ele>
        <time>2021-12-23T09:31:33Z</time>
      </trkpt>
      <trkpt lat="45.2675" lon="6.10388">
        <ele>1554</ele>
        <time>2021-12-23T09:31:34Z</time>
      </trkpt>
      <trkpt lat="45.2675" lon="6.10388">
        <ele>1554</ele>
        <time>2021-12-23T09:31:35Z</time>
      </trkpt>
      <trkpt lat="45.2675" lon="6.10388">
        <ele>1554</ele>
        <time>2021-12-23T09:31:36Z</time>
      </trkpt>
      <trkpt lat="45.2675" lon="6.10388">
        <ele>1555</ele>
        <time>2021-12-23T09:31:37Z</time>
      </trkpt>
      <trkpt lat="45.2675" lon="6.10388">
        <ele>1555</ele>
        <time>2021-12-23T09:31:38Z</time>
      </trkpt>
      <trkpt lat="45.2675" lon="6.10388">
        <ele>1555</ele>
        <time>2021-12-23T09:31:40Z</time>
      </trkpt>
      <trkpt lat="45.2675" lon="6.10388">
        <ele>1556</ele>
        <time>2021-12-23T09:31:42Z</time>
      </trkpt>
      <trkpt lat="45.26746" lon="6.10403">
        <ele>1556</ele>
        <time>2021-12-23T09:31:44Z</time>
      </trkpt>
      <trkpt lat="45.26746" lon="6.10403">
        <ele>1556</ele>
        <time>2021-12-23T09:31:45Z</time>
      </trkpt>
      <trkpt lat="45.26746" lon="6.10403">
        <ele>1557</ele>
        <time>2021-12-23T09:31:46Z</time>
      </trkpt>
      <trkpt lat="45.26746" lon="6.10403">
        <ele>1557</ele>
        <time>2021-12-23T09:31:47Z</time>
      </trkpt>
      <trkpt lat="45.26746" lon="6.10403">
        <ele>1557</ele>
        <time>2021-12-23T09:31:48Z</time>
      </trkpt>
      <trkpt lat="45.26746" lon="6.10403">
        <ele>1557</ele>
        <time>2021-12-23T09:31:49Z</time>
      </trkpt>
      <trkpt lat="45.26746" lon="6.10403">
        <ele>1557</ele>
        <time>2021-12-23T09:31:50Z</time>
      </trkpt>
      <trkpt lat="45.26746" lon="6.10403">
        <ele>1557</ele>
        <time>2021-12-23T09:31:51Z</time>
      </trkpt>
      <trkpt lat="45.26746" lon="6.10403">
        <ele>1557</ele>
        <time>2021-12-23T09:31:52Z</time>
      </trkpt>
      <trkpt lat="45.26746" lon="6.10403">
        <ele>1557</ele>
        <time>2021-12-23T09:31:53Z</time>
      </trkpt>
      <trkpt lat="45.26746" lon="6.10403">
        <ele>1557</ele>
        <time>2021-12-23T09:31:54Z</time>
      </trkpt>
      <trkpt lat="45.26746" lon="6.10403">
        <ele>1557</ele>
        <time>2021-12-23T09:31:55Z</time>
      </trkpt>
      <trkpt lat="45.26746" lon="6.10403">
        <ele>1557</ele>
        <time>2021-12-23T09:31:56Z</time>
      </trkpt>
      <trkpt lat="45.26746" lon="6.10403">
        <ele>1557</ele>
        <time>2021-12-23T09:31:57Z</time>
      </trkpt>
      <trkpt lat="45.26746" lon="6.10403">
        <ele>1559</ele>
        <time>2021-12-23T09:31:59Z</time>
      </trkpt>
      <trkpt lat="45.26746" lon="6.10403">
        <ele>1560</ele>
        <time>2021-12-23T09:32:01Z</time>
      </trkpt>
      <trkpt lat="45.26746" lon="6.10403">
        <ele>1560</ele>
        <time>2021-12-23T09:32:02Z</time>
      </trkpt>
      <trkpt lat="45.26746" lon="6.10403">
        <ele>1560</ele>
        <time>2021-12-23T09:32:04Z</time>
      </trkpt>
      <trkpt lat="45.26746" lon="6.10403">
        <ele>1560</ele>
        <time>2021-12-23T09:32:05Z</time>
      </trkpt>
      <trkpt lat="45.26746" lon="6.10403">
        <ele>1560</ele>
        <time>2021-12-23T09:32:06Z</time>
      </trkpt>
      <trkpt lat="45.26746" lon="6.10403">
        <ele>1560</ele>
        <time>2021-12-23T09:32:07Z</time>
      </trkpt>
      <trkpt lat="45.26746" lon="6.10403">
        <ele>1560</ele>
        <time>2021-12-23T09:32:08Z</time>
      </trkpt>
      <trkpt lat="45.26742" lon="6.10415">
        <ele>1560</ele>
        <time>2021-12-23T09:32:09Z</time>
      </trkpt>
      <trkpt lat="45.26742" lon="6.10415">
        <ele>1560</ele>
        <time>2021-12-23T09:32:11Z</time>
      </trkpt>
      <trkpt lat="45.26742" lon="6.10415">
        <ele>1560</ele>
        <time>2021-12-23T09:32:12Z</time>
      </trkpt>
      <trkpt lat="45.26742" lon="6.10415">
        <ele>1560</ele>
        <time>2021-12-23T09:32:13Z</time>
      </trkpt>
      <trkpt lat="45.26742" lon="6.10415">
        <ele>1561</ele>
        <time>2021-12-23T09:32:15Z</time>
      </trkpt>
      <trkpt lat="45.26742" lon="6.10415">
        <ele>1561</ele>
        <time>2021-12-23T09:32:16Z</time>
      </trkpt>
      <trkpt lat="45.26749" lon="6.10426">
        <ele>1562</ele>
        <time>2021-12-23T09:32:18Z</time>
      </trkpt>
      <trkpt lat="45.26749" lon="6.10426">
        <ele>1562</ele>
        <time>2021-12-23T09:32:20Z</time>
      </trkpt>
      <trkpt lat="45.2675" lon="6.10426">
        <ele>1562</ele>
        <time>2021-12-23T09:32:21Z</time>
      </trkpt>
      <trkpt lat="45.2675" lon="6.10426">
        <ele>1562</ele>
        <time>2021-12-23T09:32:22Z</time>
      </trkpt>
      <trkpt lat="45.2675" lon="6.10426">
        <ele>1562</ele>
        <time>2021-12-23T09:32:23Z</time>
      </trkpt>
      <trkpt lat="45.26751" lon="6.10426">
        <ele>1562</ele>
        <time>2021-12-23T09:32:24Z</time>
      </trkpt>
      <trkpt lat="45.26751" lon="6.10426">
        <ele>1562</ele>
        <time>2021-12-23T09:32:25Z</time>
      </trkpt>
      <trkpt lat="45.26752" lon="6.10426">
        <ele>1563</ele>
        <time>2021-12-23T09:32:27Z</time>
      </trkpt>
      <trkpt lat="45.26752" lon="6.10426">
        <ele>1563</ele>
        <time>2021-12-23T09:32:28Z</time>
      </trkpt>
      <trkpt lat="45.26752" lon="6.10426">
        <ele>1564</ele>
        <time>2021-12-23T09:32:29Z</time>
      </trkpt>
      <trkpt lat="45.26753" lon="6.10426">
        <ele>1564</ele>
        <time>2021-12-23T09:32:30Z</time>
      </trkpt>
      <trkpt lat="45.26753" lon="6.10426">
        <ele>1564</ele>
        <time>2021-12-23T09:32:31Z</time>
      </trkpt>
      <trkpt lat="45.26754" lon="6.10426">
        <ele>1564</ele>
        <time>2021-12-23T09:32:32Z</time>
      </trkpt>
      <trkpt lat="45.26754" lon="6.10426">
        <ele>1564</ele>
        <time>2021-12-23T09:32:33Z</time>
      </trkpt>
      <trkpt lat="45.26754" lon="6.10426">
        <ele>1565</ele>
        <time>2021-12-23T09:32:34Z</time>
      </trkpt>
      <trkpt lat="45.26755" lon="6.10426">
        <ele>1565</ele>
        <time>2021-12-23T09:32:35Z</time>
      </trkpt>
      <trkpt lat="45.26755" lon="6.10426">
        <ele>1565</ele>
        <time>2021-12-23T09:32:37Z</time>
      </trkpt>
      <trkpt lat="45.26756" lon="6.10426">
        <ele>1565</ele>
        <time>2021-12-23T09:32:38Z</time>
      </trkpt>
      <trkpt lat="45.26756" lon="6.10426">
        <ele>1565</ele>
        <time>2021-12-23T09:32:39Z</time>
      </trkpt>
      <trkpt lat="45.26756" lon="6.10426">
        <ele>1566</ele>
        <time>2021-12-23T09:32:40Z</time>
      </trkpt>
      <trkpt lat="45.26757" lon="6.10426">
        <ele>1566</ele>
        <time>2021-12-23T09:32:41Z</time>
      </trkpt>
      <trkpt lat="45.26757" lon="6.10427">
        <ele>1567</ele>
        <time>2021-12-23T09:32:42Z</time>
      </trkpt>
      <trkpt lat="45.26756" lon="6.10428">
        <ele>1567</ele>
        <time>2021-12-23T09:32:43Z</time>
      </trkpt>
      <trkpt lat="45.26756" lon="6.10429">
        <ele>1567</ele>
        <time>2021-12-23T09:32:44Z</time>
      </trkpt>
      <trkpt lat="45.26756" lon="6.1043">
        <ele>1567</ele>
        <time>2021-12-23T09:32:45Z</time>
      </trkpt>
      <trkpt lat="45.26756" lon="6.10431">
        <ele>1567</ele>
        <time>2021-12-23T09:32:46Z</time>
      </trkpt>
      <trkpt lat="45.26756" lon="6.10432">
        <ele>1568</ele>
        <time>2021-12-23T09:32:47Z</time>
      </trkpt>
      <trkpt lat="45.26756" lon="6.10433">
        <ele>1568</ele>
        <time>2021-12-23T09:32:48Z</time>
      </trkpt>
      <trkpt lat="45.26756" lon="6.10434">
        <ele>1568</ele>
        <time>2021-12-23T09:32:49Z</time>
      </trkpt>
      <trkpt lat="45.26756" lon="6.10435">
        <ele>1569</ele>
        <time>2021-12-23T09:32:50Z</time>
      </trkpt>
      <trkpt lat="45.26755" lon="6.10436">
        <ele>1569</ele>
        <time>2021-12-23T09:32:51Z</time>
      </trkpt>
      <trkpt lat="45.26755" lon="6.10437">
        <ele>1569</ele>
        <time>2021-12-23T09:32:52Z</time>
      </trkpt>
      <trkpt lat="45.26755" lon="6.10438">
        <ele>1569</ele>
        <time>2021-12-23T09:32:53Z</time>
      </trkpt>
      <trkpt lat="45.26755" lon="6.10439">
        <ele>1569</ele>
        <time>2021-12-23T09:32:54Z</time>
      </trkpt>
      <trkpt lat="45.26755" lon="6.1044">
        <ele>1569</ele>
        <time>2021-12-23T09:32:56Z</time>
      </trkpt>
      <trkpt lat="45.26755" lon="6.10441">
        <ele>1569</ele>
        <time>2021-12-23T09:32:57Z</time>
      </trkpt>
      <trkpt lat="45.26755" lon="6.10442">
        <ele>1569</ele>
        <time>2021-12-23T09:32:58Z</time>
      </trkpt>
      <trkpt lat="45.26755" lon="6.10443">
        <ele>1569</ele>
        <time>2021-12-23T09:32:59Z</time>
      </trkpt>
      <trkpt lat="45.26755" lon="6.10444">
        <ele>1569</ele>
        <time>2021-12-23T09:33:00Z</time>
      </trkpt>
      <trkpt lat="45.26755" lon="6.10445">
        <ele>1569</ele>
        <time>2021-12-23T09:33:01Z</time>
      </trkpt>
      <trkpt lat="45.26755" lon="6.10446">
        <ele>1569</ele>
        <time>2021-12-23T09:33:02Z</time>
      </trkpt>
      <trkpt lat="45.26755" lon="6.10447">
        <ele>1569</ele>
        <time>2021-12-23T09:33:03Z</time>
      </trkpt>
      <trkpt lat="45.26755" lon="6.10448">
        <ele>1570</ele>
        <time>2021-12-23T09:33:05Z</time>
      </trkpt>
      <trkpt lat="45.26754" lon="6.10449">
        <ele>1570</ele>
        <time>2021-12-23T09:33:06Z</time>
      </trkpt>
      <trkpt lat="45.26754" lon="6.1045">
        <ele>1571</ele>
        <time>2021-12-23T09:33:07Z</time>
      </trkpt>
      <trkpt lat="45.26754" lon="6.10451">
        <ele>1571</ele>
        <time>2021-12-23T09:33:08Z</time>
      </trkpt>
      <trkpt lat="45.26754" lon="6.10452">
        <ele>1571</ele>
        <time>2021-12-23T09:33:09Z</time>
      </trkpt>
      <trkpt lat="45.26754" lon="6.10452">
        <ele>1571</ele>
        <time>2021-12-23T09:33:10Z</time>
      </trkpt>
      <trkpt lat="45.26754" lon="6.10453">
        <ele>1571</ele>
        <time>2021-12-23T09:33:11Z</time>
      </trkpt>
      <trkpt lat="45.26754" lon="6.10454">
        <ele>1571</ele>
        <time>2021-12-23T09:33:12Z</time>
      </trkpt>
      <trkpt lat="45.26754" lon="6.10454">
        <ele>1571</ele>
        <time>2021-12-23T09:33:13Z</time>
      </trkpt>
      <trkpt lat="45.26754" lon="6.10455">
        <ele>1571</ele>
        <time>2021-12-23T09:33:15Z</time>
      </trkpt>
      <trkpt lat="45.26753" lon="6.10456">
        <ele>1571</ele>
        <time>2021-12-23T09:33:16Z</time>
      </trkpt>
      <trkpt lat="45.26753" lon="6.10456">
        <ele>1572</ele>
        <time>2021-12-23T09:33:17Z</time>
      </trkpt>
      <trkpt lat="45.26753" lon="6.10457">
        <ele>1572</ele>
        <time>2021-12-23T09:33:18Z</time>
      </trkpt>
      <trkpt lat="45.26753" lon="6.10458">
        <ele>1572</ele>
        <time>2021-12-23T09:33:20Z</time>
      </trkpt>
      <trkpt lat="45.26753" lon="6.10459">
        <ele>1572</ele>
        <time>2021-12-23T09:33:21Z</time>
      </trkpt>
      <trkpt lat="45.26753" lon="6.10459">
        <ele>1572</ele>
        <time>2021-12-23T09:33:22Z</time>
      </trkpt>
      <trkpt lat="45.26753" lon="6.1046">
        <ele>1572</ele>
        <time>2021-12-23T09:33:23Z</time>
      </trkpt>
      <trkpt lat="45.26753" lon="6.10461">
        <ele>1572</ele>
        <time>2021-12-23T09:33:24Z</time>
      </trkpt>
      <trkpt lat="45.26752" lon="6.10461">
        <ele>1572</ele>
        <time>2021-12-23T09:33:25Z</time>
      </trkpt>
      <trkpt lat="45.26752" lon="6.10462">
        <ele>1572</ele>
        <time>2021-12-23T09:33:26Z</time>
      </trkpt>
      <trkpt lat="45.26752" lon="6.10463">
        <ele>1573</ele>
        <time>2021-12-23T09:33:27Z</time>
      </trkpt>
      <trkpt lat="45.26752" lon="6.10464">
        <ele>1573</ele>
        <time>2021-12-23T09:33:28Z</time>
      </trkpt>
      <trkpt lat="45.26752" lon="6.10464">
        <ele>1573</ele>
        <time>2021-12-23T09:33:29Z</time>
      </trkpt>
      <trkpt lat="45.26751" lon="6.10466">
        <ele>1574</ele>
        <time>2021-12-23T09:33:30Z</time>
      </trkpt>
      <trkpt lat="45.2675" lon="6.10467">
        <ele>1574</ele>
        <time>2021-12-23T09:33:31Z</time>
      </trkpt>
      <trkpt lat="45.26748" lon="6.10469">
        <ele>1575</ele>
        <time>2021-12-23T09:33:32Z</time>
      </trkpt>
      <trkpt lat="45.26747" lon="6.1047">
        <ele>1575</ele>
        <time>2021-12-23T09:33:34Z</time>
      </trkpt>
      <trkpt lat="45.26746" lon="6.10471">
        <ele>1575</ele>
        <time>2021-12-23T09:33:35Z</time>
      </trkpt>
      <trkpt lat="45.26745" lon="6.10473">
        <ele>1575</ele>
        <time>2021-12-23T09:33:36Z</time>
      </trkpt>
      <trkpt lat="45.26744" lon="6.10474">
        <ele>1575</ele>
        <time>2021-12-23T09:33:37Z</time>
      </trkpt>
      <trkpt lat="45.26743" lon="6.10476">
        <ele>1575</ele>
        <time>2021-12-23T09:33:38Z</time>
      </trkpt>
      <trkpt lat="45.26741" lon="6.10477">
        <ele>1575</ele>
        <time>2021-12-23T09:33:39Z</time>
      </trkpt>
      <trkpt lat="45.26741" lon="6.10478">
        <ele>1575</ele>
        <time>2021-12-23T09:33:40Z</time>
      </trkpt>
      <trkpt lat="45.26742" lon="6.10479">
        <ele>1576</ele>
        <time>2021-12-23T09:33:42Z</time>
      </trkpt>
      <trkpt lat="45.26742" lon="6.10481">
        <ele>1576</ele>
        <time>2021-12-23T09:33:43Z</time>
      </trkpt>
      <trkpt lat="45.26742" lon="6.10482">
        <ele>1577</ele>
        <time>2021-12-23T09:33:44Z</time>
      </trkpt>
      <trkpt lat="45.26742" lon="6.10483">
        <ele>1577</ele>
        <time>2021-12-23T09:33:45Z</time>
      </trkpt>
      <trkpt lat="45.26742" lon="6.10484">
        <ele>1577</ele>
        <time>2021-12-23T09:33:46Z</time>
      </trkpt>
      <trkpt lat="45.26742" lon="6.10485">
        <ele>1577</ele>
        <time>2021-12-23T09:33:47Z</time>
      </trkpt>
      <trkpt lat="45.26742" lon="6.10486">
        <ele>1577</ele>
        <time>2021-12-23T09:33:48Z</time>
      </trkpt>
      <trkpt lat="45.26742" lon="6.10487">
        <ele>1577</ele>
        <time>2021-12-23T09:33:49Z</time>
      </trkpt>
      <trkpt lat="45.26742" lon="6.10489">
        <ele>1577</ele>
        <time>2021-12-23T09:33:50Z</time>
      </trkpt>
      <trkpt lat="45.26742" lon="6.1049">
        <ele>1577</ele>
        <time>2021-12-23T09:33:51Z</time>
      </trkpt>
      <trkpt lat="45.26742" lon="6.10491">
        <ele>1578</ele>
        <time>2021-12-23T09:33:53Z</time>
      </trkpt>
      <trkpt lat="45.26741" lon="6.10492">
        <ele>1579</ele>
        <time>2021-12-23T09:33:54Z</time>
      </trkpt>
      <trkpt lat="45.2674" lon="6.10493">
        <ele>1579</ele>
        <time>2021-12-23T09:33:55Z</time>
      </trkpt>
      <trkpt lat="45.26739" lon="6.10494">
        <ele>1579</ele>
        <time>2021-12-23T09:33:56Z</time>
      </trkpt>
      <trkpt lat="45.26738" lon="6.10495">
        <ele>1578</ele>
        <time>2021-12-23T09:33:57Z</time>
      </trkpt>
      <trkpt lat="45.26738" lon="6.10496">
        <ele>1579</ele>
        <time>2021-12-23T09:33:59Z</time>
      </trkpt>
      <trkpt lat="45.26737" lon="6.10497">
        <ele>1579</ele>
        <time>2021-12-23T09:34:00Z</time>
      </trkpt>
      <trkpt lat="45.26736" lon="6.10498">
        <ele>1579</ele>
        <time>2021-12-23T09:34:01Z</time>
      </trkpt>
      <trkpt lat="45.26735" lon="6.10499">
        <ele>1579</ele>
        <time>2021-12-23T09:34:02Z</time>
      </trkpt>
      <trkpt lat="45.26735" lon="6.10499">
        <ele>1579</ele>
        <time>2021-12-23T09:34:03Z</time>
      </trkpt>
      <trkpt lat="45.26735" lon="6.105">
        <ele>1579</ele>
        <time>2021-12-23T09:34:04Z</time>
      </trkpt>
      <trkpt lat="45.26735" lon="6.10501">
        <ele>1579</ele>
        <time>2021-12-23T09:34:05Z</time>
      </trkpt>
      <trkpt lat="45.26735" lon="6.10502">
        <ele>1579</ele>
        <time>2021-12-23T09:34:06Z</time>
      </trkpt>
      <trkpt lat="45.26735" lon="6.10503">
        <ele>1579</ele>
        <time>2021-12-23T09:34:07Z</time>
      </trkpt>
      <trkpt lat="45.26735" lon="6.10504">
        <ele>1579</ele>
        <time>2021-12-23T09:34:08Z</time>
      </trkpt>
      <trkpt lat="45.26735" lon="6.10505">
        <ele>1580</ele>
        <time>2021-12-23T09:34:09Z</time>
      </trkpt>
      <trkpt lat="45.26734" lon="6.10506">
        <ele>1580</ele>
        <time>2021-12-23T09:34:10Z</time>
      </trkpt>
      <trkpt lat="45.26734" lon="6.10507">
        <ele>1580</ele>
        <time>2021-12-23T09:34:12Z</time>
      </trkpt>
      <trkpt lat="45.26734" lon="6.10508">
        <ele>1580</ele>
        <time>2021-12-23T09:34:13Z</time>
      </trkpt>
      <trkpt lat="45.26734" lon="6.10509">
        <ele>1580</ele>
        <time>2021-12-23T09:34:14Z</time>
      </trkpt>
      <trkpt lat="45.26734" lon="6.1051">
        <ele>1581</ele>
        <time>2021-12-23T09:34:15Z</time>
      </trkpt>
      <trkpt lat="45.26734" lon="6.1051">
        <ele>1581</ele>
        <time>2021-12-23T09:34:16Z</time>
      </trkpt>
      <trkpt lat="45.26734" lon="6.10511">
        <ele>1582</ele>
        <time>2021-12-23T09:34:17Z</time>
      </trkpt>
      <trkpt lat="45.26734" lon="6.10512">
        <ele>1582</ele>
        <time>2021-12-23T09:34:18Z</time>
      </trkpt>
      <trkpt lat="45.26734" lon="6.10512">
        <ele>1582</ele>
        <time>2021-12-23T09:34:19Z</time>
      </trkpt>
      <trkpt lat="45.26734" lon="6.10512">
        <ele>1582</ele>
        <time>2021-12-23T09:34:20Z</time>
      </trkpt>
      <trkpt lat="45.26734" lon="6.10512">
        <ele>1582</ele>
        <time>2021-12-23T09:34:21Z</time>
      </trkpt>
      <trkpt lat="45.26734" lon="6.10512">
        <ele>1582</ele>
        <time>2021-12-23T09:34:22Z</time>
      </trkpt>
      <trkpt lat="45.26734" lon="6.10512">
        <ele>1582</ele>
        <time>2021-12-23T09:34:23Z</time>
      </trkpt>
      <trkpt lat="45.26734" lon="6.10512">
        <ele>1582</ele>
        <time>2021-12-23T09:34:24Z</time>
      </trkpt>
      <trkpt lat="45.26734" lon="6.10512">
        <ele>1582</ele>
        <time>2021-12-23T09:34:25Z</time>
      </trkpt>
      <trkpt lat="45.26734" lon="6.10512">
        <ele>1582</ele>
        <time>2021-12-23T09:34:26Z</time>
      </trkpt>
      <trkpt lat="45.26734" lon="6.10512">
        <ele>1582</ele>
        <time>2021-12-23T09:34:27Z</time>
      </trkpt>
      <trkpt lat="45.26734" lon="6.10512">
        <ele>1583</ele>
        <time>2021-12-23T09:34:29Z</time>
      </trkpt>
      <trkpt lat="45.26729" lon="6.10525">
        <ele>1583</ele>
        <time>2021-12-23T09:34:31Z</time>
      </trkpt>
      <trkpt lat="45.26729" lon="6.10525">
        <ele>1583</ele>
        <time>2021-12-23T09:34:33Z</time>
      </trkpt>
      <trkpt lat="45.26729" lon="6.10528">
        <ele>1583</ele>
        <time>2021-12-23T09:34:35Z</time>
      </trkpt>
      <trkpt lat="45.2673" lon="6.10532">
        <ele>1583</ele>
        <time>2021-12-23T09:34:36Z</time>
      </trkpt>
      <trkpt lat="45.26731" lon="6.10535">
        <ele>1584</ele>
        <time>2021-12-23T09:34:38Z</time>
      </trkpt>
      <trkpt lat="45.26732" lon="6.10538">
        <ele>1584</ele>
        <time>2021-12-23T09:34:39Z</time>
      </trkpt>
      <trkpt lat="45.26731" lon="6.10539">
        <ele>1584</ele>
        <time>2021-12-23T09:34:40Z</time>
      </trkpt>
      <trkpt lat="45.26731" lon="6.1054">
        <ele>1584</ele>
        <time>2021-12-23T09:34:41Z</time>
      </trkpt>
      <trkpt lat="45.2673" lon="6.1054">
        <ele>1584</ele>
        <time>2021-12-23T09:34:42Z</time>
      </trkpt>
      <trkpt lat="45.2673" lon="6.10541">
        <ele>1584</ele>
        <time>2021-12-23T09:34:43Z</time>
      </trkpt>
      <trkpt lat="45.26729" lon="6.10542">
        <ele>1584</ele>
        <time>2021-12-23T09:34:44Z</time>
      </trkpt>
      <trkpt lat="45.26728" lon="6.10543">
        <ele>1584</ele>
        <time>2021-12-23T09:34:45Z</time>
      </trkpt>
      <trkpt lat="45.26728" lon="6.10543">
        <ele>1585</ele>
        <time>2021-12-23T09:34:46Z</time>
      </trkpt>
      <trkpt lat="45.26727" lon="6.10544">
        <ele>1585</ele>
        <time>2021-12-23T09:34:48Z</time>
      </trkpt>
      <trkpt lat="45.26727" lon="6.10545">
        <ele>1585</ele>
        <time>2021-12-23T09:34:50Z</time>
      </trkpt>
      <trkpt lat="45.26726" lon="6.10545">
        <ele>1585</ele>
        <time>2021-12-23T09:34:51Z</time>
      </trkpt>
      <trkpt lat="45.26726" lon="6.10546">
        <ele>1585</ele>
        <time>2021-12-23T09:34:52Z</time>
      </trkpt>
      <trkpt lat="45.26725" lon="6.10547">
        <ele>1586</ele>
        <time>2021-12-23T09:34:53Z</time>
      </trkpt>
      <trkpt lat="45.26725" lon="6.10548">
        <ele>1586</ele>
        <time>2021-12-23T09:34:54Z</time>
      </trkpt>
      <trkpt lat="45.26726" lon="6.1055">
        <ele>1586</ele>
        <time>2021-12-23T09:34:55Z</time>
      </trkpt>
      <trkpt lat="45.26726" lon="6.10551">
        <ele>1586</ele>
        <time>2021-12-23T09:34:56Z</time>
      </trkpt>
      <trkpt lat="45.26726" lon="6.10552">
        <ele>1586</ele>
        <time>2021-12-23T09:34:57Z</time>
      </trkpt>
      <trkpt lat="45.26726" lon="6.10553">
        <ele>1586</ele>
        <time>2021-12-23T09:34:58Z</time>
      </trkpt>
      <trkpt lat="45.26727" lon="6.10555">
        <ele>1586</ele>
        <time>2021-12-23T09:34:59Z</time>
      </trkpt>
      <trkpt lat="45.26727" lon="6.10556">
        <ele>1586</ele>
        <time>2021-12-23T09:35:00Z</time>
      </trkpt>
      <trkpt lat="45.26727" lon="6.10557">
        <ele>1586</ele>
        <time>2021-12-23T09:35:01Z</time>
      </trkpt>
      <trkpt lat="45.26727" lon="6.10559">
        <ele>1588</ele>
        <time>2021-12-23T09:35:03Z</time>
      </trkpt>
      <trkpt lat="45.26728" lon="6.1056">
        <ele>1588</ele>
        <time>2021-12-23T09:35:04Z</time>
      </trkpt>
      <trkpt lat="45.26727" lon="6.10561">
        <ele>1588</ele>
        <time>2021-12-23T09:35:05Z</time>
      </trkpt>
      <trkpt lat="45.26726" lon="6.10563">
        <ele>1588</ele>
        <time>2021-12-23T09:35:07Z</time>
      </trkpt>
      <trkpt lat="45.26725" lon="6.10564">
        <ele>1588</ele>
        <time>2021-12-23T09:35:09Z</time>
      </trkpt>
      <trkpt lat="45.26724" lon="6.10566">
        <ele>1588</ele>
        <time>2021-12-23T09:35:10Z</time>
      </trkpt>
      <trkpt lat="45.26724" lon="6.10567">
        <ele>1589</ele>
        <time>2021-12-23T09:35:11Z</time>
      </trkpt>
      <trkpt lat="45.26723" lon="6.10568">
        <ele>1590</ele>
        <time>2021-12-23T09:35:12Z</time>
      </trkpt>
      <trkpt lat="45.26722" lon="6.1057">
        <ele>1590</ele>
        <time>2021-12-23T09:35:13Z</time>
      </trkpt>
      <trkpt lat="45.2672" lon="6.1057">
        <ele>1590</ele>
        <time>2021-12-23T09:35:15Z</time>
      </trkpt>
      <trkpt lat="45.26718" lon="6.10571">
        <ele>1590</ele>
        <time>2021-12-23T09:35:16Z</time>
      </trkpt>
      <trkpt lat="45.26716" lon="6.10571">
        <ele>1590</ele>
        <time>2021-12-23T09:35:17Z</time>
      </trkpt>
      <trkpt lat="45.26714" lon="6.10572">
        <ele>1590</ele>
        <time>2021-12-23T09:35:18Z</time>
      </trkpt>
      <trkpt lat="45.26713" lon="6.10572">
        <ele>1590</ele>
        <time>2021-12-23T09:35:19Z</time>
      </trkpt>
      <trkpt lat="45.26713" lon="6.10572">
        <ele>1590</ele>
        <time>2021-12-23T09:35:20Z</time>
      </trkpt>
      <trkpt lat="45.26713" lon="6.10572">
        <ele>1590</ele>
        <time>2021-12-23T09:35:22Z</time>
      </trkpt>
      <trkpt lat="45.26713" lon="6.10572">
        <ele>1590</ele>
        <time>2021-12-23T09:35:23Z</time>
      </trkpt>
      <trkpt lat="45.26713" lon="6.10572">
        <ele>1590</ele>
        <time>2021-12-23T09:35:24Z</time>
      </trkpt>
      <trkpt lat="45.26713" lon="6.10572">
        <ele>1590</ele>
        <time>2021-12-23T09:35:25Z</time>
      </trkpt>
      <trkpt lat="45.26703" lon="6.10573">
        <ele>1590</ele>
        <time>2021-12-23T09:35:26Z</time>
      </trkpt>
      <trkpt lat="45.26703" lon="6.10573">
        <ele>1591</ele>
        <time>2021-12-23T09:35:28Z</time>
      </trkpt>
      <trkpt lat="45.26702" lon="6.10574">
        <ele>1591</ele>
        <time>2021-12-23T09:35:29Z</time>
      </trkpt>
      <trkpt lat="45.26701" lon="6.10575">
        <ele>1592</ele>
        <time>2021-12-23T09:35:30Z</time>
      </trkpt>
      <trkpt lat="45.26701" lon="6.10576">
        <ele>1592</ele>
        <time>2021-12-23T09:35:31Z</time>
      </trkpt>
      <trkpt lat="45.267" lon="6.10576">
        <ele>1592</ele>
        <time>2021-12-23T09:35:32Z</time>
      </trkpt>
      <trkpt lat="45.26699" lon="6.10577">
        <ele>1592</ele>
        <time>2021-12-23T09:35:33Z</time>
      </trkpt>
      <trkpt lat="45.26699" lon="6.10578">
        <ele>1592</ele>
        <time>2021-12-23T09:35:34Z</time>
      </trkpt>
      <trkpt lat="45.26698" lon="6.10579">
        <ele>1592</ele>
        <time>2021-12-23T09:35:35Z</time>
      </trkpt>
      <trkpt lat="45.26697" lon="6.1058">
        <ele>1593</ele>
        <time>2021-12-23T09:35:36Z</time>
      </trkpt>
      <trkpt lat="45.26696" lon="6.10581">
        <ele>1593</ele>
        <time>2021-12-23T09:35:37Z</time>
      </trkpt>
      <trkpt lat="45.26696" lon="6.10582">
        <ele>1593</ele>
        <time>2021-12-23T09:35:38Z</time>
      </trkpt>
      <trkpt lat="45.26696" lon="6.10583">
        <ele>1593</ele>
        <time>2021-12-23T09:35:39Z</time>
      </trkpt>
      <trkpt lat="45.26696" lon="6.10584">
        <ele>1593</ele>
        <time>2021-12-23T09:35:40Z</time>
      </trkpt>
      <trkpt lat="45.26697" lon="6.10586">
        <ele>1593</ele>
        <time>2021-12-23T09:35:41Z</time>
      </trkpt>
      <trkpt lat="45.26697" lon="6.10587">
        <ele>1594</ele>
        <time>2021-12-23T09:35:43Z</time>
      </trkpt>
      <trkpt lat="45.26697" lon="6.10588">
        <ele>1594</ele>
        <time>2021-12-23T09:35:44Z</time>
      </trkpt>
      <trkpt lat="45.26698" lon="6.1059">
        <ele>1594</ele>
        <time>2021-12-23T09:35:45Z</time>
      </trkpt>
      <trkpt lat="45.26698" lon="6.10591">
        <ele>1595</ele>
        <time>2021-12-23T09:35:47Z</time>
      </trkpt>
      <trkpt lat="45.26698" lon="6.10593">
        <ele>1595</ele>
        <time>2021-12-23T09:35:48Z</time>
      </trkpt>
      <trkpt lat="45.26699" lon="6.10594">
        <ele>1595</ele>
        <time>2021-12-23T09:35:50Z</time>
      </trkpt>
      <trkpt lat="45.26699" lon="6.10595">
        <ele>1595</ele>
        <time>2021-12-23T09:35:51Z</time>
      </trkpt>
      <trkpt lat="45.26699" lon="6.10597">
        <ele>1595</ele>
        <time>2021-12-23T09:35:52Z</time>
      </trkpt>
      <trkpt lat="45.26699" lon="6.10597">
        <ele>1595</ele>
        <time>2021-12-23T09:35:53Z</time>
      </trkpt>
      <trkpt lat="45.26698" lon="6.10598">
        <ele>1595</ele>
        <time>2021-12-23T09:35:54Z</time>
      </trkpt>
      <trkpt lat="45.26698" lon="6.10598">
        <ele>1596</ele>
        <time>2021-12-23T09:35:55Z</time>
      </trkpt>
      <trkpt lat="45.26698" lon="6.10599">
        <ele>1596</ele>
        <time>2021-12-23T09:35:57Z</time>
      </trkpt>
      <trkpt lat="45.26697" lon="6.10599">
        <ele>1596</ele>
        <time>2021-12-23T09:35:58Z</time>
      </trkpt>
      <trkpt lat="45.26697" lon="6.106">
        <ele>1596</ele>
        <time>2021-12-23T09:35:59Z</time>
      </trkpt>
      <trkpt lat="45.26697" lon="6.10601">
        <ele>1596</ele>
        <time>2021-12-23T09:36:00Z</time>
      </trkpt>
      <trkpt lat="45.26696" lon="6.10601">
        <ele>1596</ele>
        <time>2021-12-23T09:36:01Z</time>
      </trkpt>
      <trkpt lat="45.26696" lon="6.10602">
        <ele>1597</ele>
        <time>2021-12-23T09:36:03Z</time>
      </trkpt>
      <trkpt lat="45.26696" lon="6.10602">
        <ele>1597</ele>
        <time>2021-12-23T09:36:04Z</time>
      </trkpt>
      <trkpt lat="45.26695" lon="6.10603">
        <ele>1597</ele>
        <time>2021-12-23T09:36:06Z</time>
      </trkpt>
      <trkpt lat="45.26695" lon="6.10603">
        <ele>1598</ele>
        <time>2021-12-23T09:36:07Z</time>
      </trkpt>
      <trkpt lat="45.26695" lon="6.10604">
        <ele>1598</ele>
        <time>2021-12-23T09:36:08Z</time>
      </trkpt>
      <trkpt lat="45.26694" lon="6.10604">
        <ele>1598</ele>
        <time>2021-12-23T09:36:09Z</time>
      </trkpt>
      <trkpt lat="45.26694" lon="6.10605">
        <ele>1598</ele>
        <time>2021-12-23T09:36:10Z</time>
      </trkpt>
      <trkpt lat="45.26694" lon="6.10605">
        <ele>1598</ele>
        <time>2021-12-23T09:36:11Z</time>
      </trkpt>
      <trkpt lat="45.26693" lon="6.10606">
        <ele>1599</ele>
        <time>2021-12-23T09:36:12Z</time>
      </trkpt>
      <trkpt lat="45.26693" lon="6.10607">
        <ele>1599</ele>
        <time>2021-12-23T09:36:13Z</time>
      </trkpt>
      <trkpt lat="45.26693" lon="6.10609">
        <ele>1599</ele>
        <time>2021-12-23T09:36:14Z</time>
      </trkpt>
      <trkpt lat="45.26693" lon="6.1061">
        <ele>1599</ele>
        <time>2021-12-23T09:36:15Z</time>
      </trkpt>
      <trkpt lat="45.26693" lon="6.10612">
        <ele>1600</ele>
        <time>2021-12-23T09:36:16Z</time>
      </trkpt>
      <trkpt lat="45.26693" lon="6.10613">
        <ele>1601</ele>
        <time>2021-12-23T09:36:17Z</time>
      </trkpt>
      <trkpt lat="45.26693" lon="6.10615">
        <ele>1601</ele>
        <time>2021-12-23T09:36:18Z</time>
      </trkpt>
      <trkpt lat="45.26693" lon="6.10616">
        <ele>1601</ele>
        <time>2021-12-23T09:36:19Z</time>
      </trkpt>
      <trkpt lat="45.26692" lon="6.10618">
        <ele>1601</ele>
        <time>2021-12-23T09:36:20Z</time>
      </trkpt>
      <trkpt lat="45.26692" lon="6.10619">
        <ele>1601</ele>
        <time>2021-12-23T09:36:21Z</time>
      </trkpt>
      <trkpt lat="45.26692" lon="6.1062">
        <ele>1601</ele>
        <time>2021-12-23T09:36:22Z</time>
      </trkpt>
      <trkpt lat="45.26692" lon="6.10621">
        <ele>1601</ele>
        <time>2021-12-23T09:36:23Z</time>
      </trkpt>
      <trkpt lat="45.26691" lon="6.10622">
        <ele>1602</ele>
        <time>2021-12-23T09:36:25Z</time>
      </trkpt>
      <trkpt lat="45.26691" lon="6.10623">
        <ele>1602</ele>
        <time>2021-12-23T09:36:26Z</time>
      </trkpt>
      <trkpt lat="45.2669" lon="6.10624">
        <ele>1602</ele>
        <time>2021-12-23T09:36:27Z</time>
      </trkpt>
      <trkpt lat="45.2669" lon="6.10625">
        <ele>1602</ele>
        <time>2021-12-23T09:36:28Z</time>
      </trkpt>
      <trkpt lat="45.2669" lon="6.10626">
        <ele>1603</ele>
        <time>2021-12-23T09:36:29Z</time>
      </trkpt>
      <trkpt lat="45.26689" lon="6.10627">
        <ele>1603</ele>
        <time>2021-12-23T09:36:30Z</time>
      </trkpt>
      <trkpt lat="45.26689" lon="6.10628">
        <ele>1603</ele>
        <time>2021-12-23T09:36:31Z</time>
      </trkpt>
      <trkpt lat="45.26688" lon="6.10629">
        <ele>1603</ele>
        <time>2021-12-23T09:36:32Z</time>
      </trkpt>
      <trkpt lat="45.26688" lon="6.1063">
        <ele>1603</ele>
        <time>2021-12-23T09:36:33Z</time>
      </trkpt>
      <trkpt lat="45.26688" lon="6.10631">
        <ele>1603</ele>
        <time>2021-12-23T09:36:34Z</time>
      </trkpt>
      <trkpt lat="45.26687" lon="6.10632">
        <ele>1603</ele>
        <time>2021-12-23T09:36:35Z</time>
      </trkpt>
      <trkpt lat="45.26686" lon="6.10632">
        <ele>1603</ele>
        <time>2021-12-23T09:36:36Z</time>
      </trkpt>
      <trkpt lat="45.26685" lon="6.10633">
        <ele>1603</ele>
        <time>2021-12-23T09:36:37Z</time>
      </trkpt>
      <trkpt lat="45.26684" lon="6.10633">
        <ele>1603</ele>
        <time>2021-12-23T09:36:38Z</time>
      </trkpt>
      <trkpt lat="45.26683" lon="6.10634">
        <ele>1603</ele>
        <time>2021-12-23T09:36:39Z</time>
      </trkpt>
      <trkpt lat="45.26682" lon="6.10635">
        <ele>1604</ele>
        <time>2021-12-23T09:36:40Z</time>
      </trkpt>
      <trkpt lat="45.26682" lon="6.10635">
        <ele>1604</ele>
        <time>2021-12-23T09:36:41Z</time>
      </trkpt>
      <trkpt lat="45.26681" lon="6.10636">
        <ele>1604</ele>
        <time>2021-12-23T09:36:42Z</time>
      </trkpt>
      <trkpt lat="45.2668" lon="6.10636">
        <ele>1604</ele>
        <time>2021-12-23T09:36:44Z</time>
      </trkpt>
      <trkpt lat="45.26679" lon="6.10637">
        <ele>1604</ele>
        <time>2021-12-23T09:36:45Z</time>
      </trkpt>
      <trkpt lat="45.26679" lon="6.10638">
        <ele>1604</ele>
        <time>2021-12-23T09:36:46Z</time>
      </trkpt>
      <trkpt lat="45.26679" lon="6.10639">
        <ele>1604</ele>
        <time>2021-12-23T09:36:47Z</time>
      </trkpt>
      <trkpt lat="45.26678" lon="6.1064">
        <ele>1605</ele>
        <time>2021-12-23T09:36:48Z</time>
      </trkpt>
      <trkpt lat="45.26678" lon="6.10641">
        <ele>1605</ele>
        <time>2021-12-23T09:36:49Z</time>
      </trkpt>
      <trkpt lat="45.26678" lon="6.10642">
        <ele>1605</ele>
        <time>2021-12-23T09:36:50Z</time>
      </trkpt>
      <trkpt lat="45.26678" lon="6.10643">
        <ele>1605</ele>
        <time>2021-12-23T09:36:51Z</time>
      </trkpt>
      <trkpt lat="45.26677" lon="6.10643">
        <ele>1605</ele>
        <time>2021-12-23T09:36:52Z</time>
      </trkpt>
      <trkpt lat="45.26677" lon="6.10644">
        <ele>1605</ele>
        <time>2021-12-23T09:36:53Z</time>
      </trkpt>
      <trkpt lat="45.26677" lon="6.10645">
        <ele>1606</ele>
        <time>2021-12-23T09:36:54Z</time>
      </trkpt>
      <trkpt lat="45.26677" lon="6.10646">
        <ele>1606</ele>
        <time>2021-12-23T09:36:55Z</time>
      </trkpt>
      <trkpt lat="45.26677" lon="6.10647">
        <ele>1606</ele>
        <time>2021-12-23T09:36:56Z</time>
      </trkpt>
      <trkpt lat="45.26676" lon="6.10648">
        <ele>1607</ele>
        <time>2021-12-23T09:36:57Z</time>
      </trkpt>
      <trkpt lat="45.26676" lon="6.10649">
        <ele>1607</ele>
        <time>2021-12-23T09:36:58Z</time>
      </trkpt>
      <trkpt lat="45.26676" lon="6.1065">
        <ele>1607</ele>
        <time>2021-12-23T09:36:59Z</time>
      </trkpt>
      <trkpt lat="45.26677" lon="6.10651">
        <ele>1607</ele>
        <time>2021-12-23T09:37:00Z</time>
      </trkpt>
      <trkpt lat="45.26677" lon="6.10651">
        <ele>1607</ele>
        <time>2021-12-23T09:37:01Z</time>
      </trkpt>
      <trkpt lat="45.26677" lon="6.10652">
        <ele>1608</ele>
        <time>2021-12-23T09:37:03Z</time>
      </trkpt>
      <trkpt lat="45.26677" lon="6.10653">
        <ele>1608</ele>
        <time>2021-12-23T09:37:04Z</time>
      </trkpt>
      <trkpt lat="45.26678" lon="6.10654">
        <ele>1609</ele>
        <time>2021-12-23T09:37:05Z</time>
      </trkpt>
      <trkpt lat="45.26678" lon="6.10655">
        <ele>1609</ele>
        <time>2021-12-23T09:37:06Z</time>
      </trkpt>
      <trkpt lat="45.26678" lon="6.10656">
        <ele>1609</ele>
        <time>2021-12-23T09:37:07Z</time>
      </trkpt>
      <trkpt lat="45.26678" lon="6.10657">
        <ele>1609</ele>
        <time>2021-12-23T09:37:08Z</time>
      </trkpt>
      <trkpt lat="45.26678" lon="6.10657">
        <ele>1609</ele>
        <time>2021-12-23T09:37:09Z</time>
      </trkpt>
      <trkpt lat="45.26679" lon="6.10658">
        <ele>1609</ele>
        <time>2021-12-23T09:37:10Z</time>
      </trkpt>
      <trkpt lat="45.26679" lon="6.10659">
        <ele>1609</ele>
        <time>2021-12-23T09:37:11Z</time>
      </trkpt>
      <trkpt lat="45.26679" lon="6.1066">
        <ele>1609</ele>
        <time>2021-12-23T09:37:12Z</time>
      </trkpt>
      <trkpt lat="45.26679" lon="6.10661">
        <ele>1610</ele>
        <time>2021-12-23T09:37:13Z</time>
      </trkpt>
      <trkpt lat="45.26679" lon="6.10662">
        <ele>1610</ele>
        <time>2021-12-23T09:37:14Z</time>
      </trkpt>
      <trkpt lat="45.26679" lon="6.10663">
        <ele>1610</ele>
        <time>2021-12-23T09:37:15Z</time>
      </trkpt>
      <trkpt lat="45.26679" lon="6.10664">
        <ele>1610</ele>
        <time>2021-12-23T09:37:16Z</time>
      </trkpt>
      <trkpt lat="45.26678" lon="6.10665">
        <ele>1610</ele>
        <time>2021-12-23T09:37:17Z</time>
      </trkpt>
      <trkpt lat="45.26678" lon="6.10666">
        <ele>1611</ele>
        <time>2021-12-23T09:37:18Z</time>
      </trkpt>
      <trkpt lat="45.26678" lon="6.10667">
        <ele>1611</ele>
        <time>2021-12-23T09:37:19Z</time>
      </trkpt>
      <trkpt lat="45.26678" lon="6.10668">
        <ele>1611</ele>
        <time>2021-12-23T09:37:20Z</time>
      </trkpt>
      <trkpt lat="45.26678" lon="6.10669">
        <ele>1611</ele>
        <time>2021-12-23T09:37:22Z</time>
      </trkpt>
      <trkpt lat="45.26677" lon="6.1067">
        <ele>1611</ele>
        <time>2021-12-23T09:37:23Z</time>
      </trkpt>
      <trkpt lat="45.26677" lon="6.10672">
        <ele>1612</ele>
        <time>2021-12-23T09:37:24Z</time>
      </trkpt>
      <trkpt lat="45.26677" lon="6.10673">
        <ele>1612</ele>
        <time>2021-12-23T09:37:25Z</time>
      </trkpt>
      <trkpt lat="45.26677" lon="6.10674">
        <ele>1612</ele>
        <time>2021-12-23T09:37:26Z</time>
      </trkpt>
      <trkpt lat="45.26677" lon="6.10674">
        <ele>1612</ele>
        <time>2021-12-23T09:37:27Z</time>
      </trkpt>
      <trkpt lat="45.26678" lon="6.10674">
        <ele>1612</ele>
        <time>2021-12-23T09:37:28Z</time>
      </trkpt>
      <trkpt lat="45.26678" lon="6.10674">
        <ele>1613</ele>
        <time>2021-12-23T09:37:29Z</time>
      </trkpt>
      <trkpt lat="45.26678" lon="6.10675">
        <ele>1613</ele>
        <time>2021-12-23T09:37:30Z</time>
      </trkpt>
      <trkpt lat="45.26679" lon="6.10675">
        <ele>1613</ele>
        <time>2021-12-23T09:37:31Z</time>
      </trkpt>
      <trkpt lat="45.26679" lon="6.10675">
        <ele>1614</ele>
        <time>2021-12-23T09:37:32Z</time>
      </trkpt>
      <trkpt lat="45.26679" lon="6.10675">
        <ele>1614</ele>
        <time>2021-12-23T09:37:33Z</time>
      </trkpt>
      <trkpt lat="45.2668" lon="6.10675">
        <ele>1614</ele>
        <time>2021-12-23T09:37:34Z</time>
      </trkpt>
      <trkpt lat="45.2668" lon="6.10676">
        <ele>1614</ele>
        <time>2021-12-23T09:37:35Z</time>
      </trkpt>
      <trkpt lat="45.26681" lon="6.10676">
        <ele>1614</ele>
        <time>2021-12-23T09:37:36Z</time>
      </trkpt>
      <trkpt lat="45.26681" lon="6.10676">
        <ele>1614</ele>
        <time>2021-12-23T09:37:37Z</time>
      </trkpt>
      <trkpt lat="45.26681" lon="6.10676">
        <ele>1614</ele>
        <time>2021-12-23T09:37:38Z</time>
      </trkpt>
      <trkpt lat="45.26682" lon="6.10676">
        <ele>1614</ele>
        <time>2021-12-23T09:37:39Z</time>
      </trkpt>
      <trkpt lat="45.26682" lon="6.10677">
        <ele>1614</ele>
        <time>2021-12-23T09:37:41Z</time>
      </trkpt>
      <trkpt lat="45.26682" lon="6.10677">
        <ele>1614</ele>
        <time>2021-12-23T09:37:42Z</time>
      </trkpt>
      <trkpt lat="45.26683" lon="6.10677">
        <ele>1614</ele>
        <time>2021-12-23T09:37:43Z</time>
      </trkpt>
      <trkpt lat="45.26683" lon="6.10677">
        <ele>1615</ele>
        <time>2021-12-23T09:37:44Z</time>
      </trkpt>
      <trkpt lat="45.26684" lon="6.10677">
        <ele>1615</ele>
        <time>2021-12-23T09:37:45Z</time>
      </trkpt>
      <trkpt lat="45.26684" lon="6.10678">
        <ele>1615</ele>
        <time>2021-12-23T09:37:46Z</time>
      </trkpt>
      <trkpt lat="45.26684" lon="6.10678">
        <ele>1616</ele>
        <time>2021-12-23T09:37:47Z</time>
      </trkpt>
      <trkpt lat="45.26685" lon="6.10678">
        <ele>1617</ele>
        <time>2021-12-23T09:37:48Z</time>
      </trkpt>
      <trkpt lat="45.26685" lon="6.10679">
        <ele>1617</ele>
        <time>2021-12-23T09:37:49Z</time>
      </trkpt>
      <trkpt lat="45.26685" lon="6.1068">
        <ele>1617</ele>
        <time>2021-12-23T09:37:50Z</time>
      </trkpt>
      <trkpt lat="45.26685" lon="6.10681">
        <ele>1617</ele>
        <time>2021-12-23T09:37:51Z</time>
      </trkpt>
      <trkpt lat="45.26685" lon="6.10682">
        <ele>1617</ele>
        <time>2021-12-23T09:37:52Z</time>
      </trkpt>
      <trkpt lat="45.26685" lon="6.10683">
        <ele>1618</ele>
        <time>2021-12-23T09:37:53Z</time>
      </trkpt>
      <trkpt lat="45.26685" lon="6.10684">
        <ele>1618</ele>
        <time>2021-12-23T09:37:54Z</time>
      </trkpt>
      <trkpt lat="45.26685" lon="6.10685">
        <ele>1618</ele>
        <time>2021-12-23T09:37:55Z</time>
      </trkpt>
      <trkpt lat="45.26685" lon="6.10686">
        <ele>1618</ele>
        <time>2021-12-23T09:37:56Z</time>
      </trkpt>
      <trkpt lat="45.26685" lon="6.10687">
        <ele>1619</ele>
        <time>2021-12-23T09:37:57Z</time>
      </trkpt>
      <trkpt lat="45.26685" lon="6.10688">
        <ele>1619</ele>
        <time>2021-12-23T09:37:58Z</time>
      </trkpt>
      <trkpt lat="45.26685" lon="6.10689">
        <ele>1619</ele>
        <time>2021-12-23T09:37:59Z</time>
      </trkpt>
      <trkpt lat="45.26686" lon="6.1069">
        <ele>1619</ele>
        <time>2021-12-23T09:38:00Z</time>
      </trkpt>
      <trkpt lat="45.26686" lon="6.10691">
        <ele>1619</ele>
        <time>2021-12-23T09:38:01Z</time>
      </trkpt>
      <trkpt lat="45.26686" lon="6.10691">
        <ele>1619</ele>
        <time>2021-12-23T09:38:02Z</time>
      </trkpt>
      <trkpt lat="45.26687" lon="6.10691">
        <ele>1619</ele>
        <time>2021-12-23T09:38:03Z</time>
      </trkpt>
      <trkpt lat="45.26687" lon="6.10692">
        <ele>1619</ele>
        <time>2021-12-23T09:38:04Z</time>
      </trkpt>
      <trkpt lat="45.26687" lon="6.10692">
        <ele>1619</ele>
        <time>2021-12-23T09:38:05Z</time>
      </trkpt>
      <trkpt lat="45.26688" lon="6.10692">
        <ele>1619</ele>
        <time>2021-12-23T09:38:06Z</time>
      </trkpt>
      <trkpt lat="45.26688" lon="6.10693">
        <ele>1619</ele>
        <time>2021-12-23T09:38:07Z</time>
      </trkpt>
      <trkpt lat="45.26688" lon="6.10693">
        <ele>1620</ele>
        <time>2021-12-23T09:38:08Z</time>
      </trkpt>
      <trkpt lat="45.26689" lon="6.10693">
        <ele>1620</ele>
        <time>2021-12-23T09:38:09Z</time>
      </trkpt>
      <trkpt lat="45.26689" lon="6.10694">
        <ele>1620</ele>
        <time>2021-12-23T09:38:10Z</time>
      </trkpt>
      <trkpt lat="45.26689" lon="6.10694">
        <ele>1620</ele>
        <time>2021-12-23T09:38:11Z</time>
      </trkpt>
      <trkpt lat="45.2669" lon="6.10694">
        <ele>1621</ele>
        <time>2021-12-23T09:38:12Z</time>
      </trkpt>
      <trkpt lat="45.2669" lon="6.10695">
        <ele>1621</ele>
        <time>2021-12-23T09:38:13Z</time>
      </trkpt>
      <trkpt lat="45.26694" lon="6.10699">
        <ele>1621</ele>
        <time>2021-12-23T09:38:14Z</time>
      </trkpt>
      <trkpt lat="45.26693" lon="6.107">
        <ele>1621</ele>
        <time>2021-12-23T09:38:15Z</time>
      </trkpt>
      <trkpt lat="45.26692" lon="6.107">
        <ele>1621</ele>
        <time>2021-12-23T09:38:16Z</time>
      </trkpt>
      <trkpt lat="45.26691" lon="6.107">
        <ele>1621</ele>
        <time>2021-12-23T09:38:18Z</time>
      </trkpt>
      <trkpt lat="45.26691" lon="6.10701">
        <ele>1621</ele>
        <time>2021-12-23T09:38:19Z</time>
      </trkpt>
      <trkpt lat="45.2669" lon="6.10701">
        <ele>1621</ele>
        <time>2021-12-23T09:38:20Z</time>
      </trkpt>
      <trkpt lat="45.26689" lon="6.10701">
        <ele>1621</ele>
        <time>2021-12-23T09:38:21Z</time>
      </trkpt>
      <trkpt lat="45.26684" lon="6.10705">
        <ele>1622</ele>
        <time>2021-12-23T09:38:22Z</time>
      </trkpt>
      <trkpt lat="45.26684" lon="6.10706">
        <ele>1622</ele>
        <time>2021-12-23T09:38:23Z</time>
      </trkpt>
      <trkpt lat="45.26684" lon="6.10707">
        <ele>1622</ele>
        <time>2021-12-23T09:38:24Z</time>
      </trkpt>
      <trkpt lat="45.26684" lon="6.10707">
        <ele>1623</ele>
        <time>2021-12-23T09:38:25Z</time>
      </trkpt>
      <trkpt lat="45.26684" lon="6.10708">
        <ele>1623</ele>
        <time>2021-12-23T09:38:26Z</time>
      </trkpt>
      <trkpt lat="45.26684" lon="6.10709">
        <ele>1623</ele>
        <time>2021-12-23T09:38:27Z</time>
      </trkpt>
      <trkpt lat="45.26684" lon="6.1071">
        <ele>1623</ele>
        <time>2021-12-23T09:38:28Z</time>
      </trkpt>
      <trkpt lat="45.26684" lon="6.10711">
        <ele>1624</ele>
        <time>2021-12-23T09:38:30Z</time>
      </trkpt>
      <trkpt lat="45.26684" lon="6.10712">
        <ele>1624</ele>
        <time>2021-12-23T09:38:31Z</time>
      </trkpt>
      <trkpt lat="45.26684" lon="6.10713">
        <ele>1624</ele>
        <time>2021-12-23T09:38:32Z</time>
      </trkpt>
      <trkpt lat="45.26684" lon="6.10713">
        <ele>1624</ele>
        <time>2021-12-23T09:38:33Z</time>
      </trkpt>
      <trkpt lat="45.26684" lon="6.10714">
        <ele>1624</ele>
        <time>2021-12-23T09:38:34Z</time>
      </trkpt>
      <trkpt lat="45.26684" lon="6.10715">
        <ele>1624</ele>
        <time>2021-12-23T09:38:35Z</time>
      </trkpt>
      <trkpt lat="45.26684" lon="6.10716">
        <ele>1624</ele>
        <time>2021-12-23T09:38:36Z</time>
      </trkpt>
      <trkpt lat="45.26684" lon="6.10717">
        <ele>1624</ele>
        <time>2021-12-23T09:38:38Z</time>
      </trkpt>
      <trkpt lat="45.26684" lon="6.10718">
        <ele>1624</ele>
        <time>2021-12-23T09:38:39Z</time>
      </trkpt>
      <trkpt lat="45.26683" lon="6.10719">
        <ele>1624</ele>
        <time>2021-12-23T09:38:40Z</time>
      </trkpt>
      <trkpt lat="45.26683" lon="6.10719">
        <ele>1625</ele>
        <time>2021-12-23T09:38:41Z</time>
      </trkpt>
      <trkpt lat="45.26682" lon="6.1072">
        <ele>1626</ele>
        <time>2021-12-23T09:38:42Z</time>
      </trkpt>
      <trkpt lat="45.26682" lon="6.10721">
        <ele>1626</ele>
        <time>2021-12-23T09:38:43Z</time>
      </trkpt>
      <trkpt lat="45.26682" lon="6.10721">
        <ele>1625</ele>
        <time>2021-12-23T09:38:44Z</time>
      </trkpt>
      <trkpt lat="45.26681" lon="6.10722">
        <ele>1625</ele>
        <time>2021-12-23T09:38:45Z</time>
      </trkpt>
      <trkpt lat="45.26681" lon="6.10723">
        <ele>1625</ele>
        <time>2021-12-23T09:38:46Z</time>
      </trkpt>
      <trkpt lat="45.2668" lon="6.10723">
        <ele>1625</ele>
        <time>2021-12-23T09:38:47Z</time>
      </trkpt>
      <trkpt lat="45.2668" lon="6.10724">
        <ele>1626</ele>
        <time>2021-12-23T09:38:48Z</time>
      </trkpt>
      <trkpt lat="45.2668" lon="6.10725">
        <ele>1626</ele>
        <time>2021-12-23T09:38:49Z</time>
      </trkpt>
      <trkpt lat="45.26679" lon="6.10726">
        <ele>1626</ele>
        <time>2021-12-23T09:38:50Z</time>
      </trkpt>
      <trkpt lat="45.26679" lon="6.10726">
        <ele>1627</ele>
        <time>2021-12-23T09:38:52Z</time>
      </trkpt>
      <trkpt lat="45.26678" lon="6.10727">
        <ele>1627</ele>
        <time>2021-12-23T09:38:53Z</time>
      </trkpt>
      <trkpt lat="45.26678" lon="6.10728">
        <ele>1627</ele>
        <time>2021-12-23T09:38:54Z</time>
      </trkpt>
      <trkpt lat="45.26678" lon="6.10728">
        <ele>1628</ele>
        <time>2021-12-23T09:38:55Z</time>
      </trkpt>
      <trkpt lat="45.26678" lon="6.10729">
        <ele>1628</ele>
        <time>2021-12-23T09:38:57Z</time>
      </trkpt>
      <trkpt lat="45.26677" lon="6.10729">
        <ele>1629</ele>
        <time>2021-12-23T09:38:58Z</time>
      </trkpt>
      <trkpt lat="45.26677" lon="6.10729">
        <ele>1629</ele>
        <time>2021-12-23T09:39:00Z</time>
      </trkpt>
      <trkpt lat="45.26677" lon="6.10729">
        <ele>1629</ele>
        <time>2021-12-23T09:39:01Z</time>
      </trkpt>
      <trkpt lat="45.26677" lon="6.10729">
        <ele>1629</ele>
        <time>2021-12-23T09:39:02Z</time>
      </trkpt>
      <trkpt lat="45.26677" lon="6.1073">
        <ele>1629</ele>
        <time>2021-12-23T09:39:03Z</time>
      </trkpt>
      <trkpt lat="45.26676" lon="6.1073">
        <ele>1629</ele>
        <time>2021-12-23T09:39:04Z</time>
      </trkpt>
      <trkpt lat="45.26676" lon="6.1073">
        <ele>1629</ele>
        <time>2021-12-23T09:39:05Z</time>
      </trkpt>
      <trkpt lat="45.26676" lon="6.1073">
        <ele>1630</ele>
        <time>2021-12-23T09:39:06Z</time>
      </trkpt>
      <trkpt lat="45.26676" lon="6.1073">
        <ele>1630</ele>
        <time>2021-12-23T09:39:07Z</time>
      </trkpt>
      <trkpt lat="45.26676" lon="6.10731">
        <ele>1630</ele>
        <time>2021-12-23T09:39:08Z</time>
      </trkpt>
      <trkpt lat="45.26675" lon="6.10731">
        <ele>1630</ele>
        <time>2021-12-23T09:39:09Z</time>
      </trkpt>
      <trkpt lat="45.26675" lon="6.10731">
        <ele>1630</ele>
        <time>2021-12-23T09:39:10Z</time>
      </trkpt>
      <trkpt lat="45.26675" lon="6.10731">
        <ele>1630</ele>
        <time>2021-12-23T09:39:11Z</time>
      </trkpt>
      <trkpt lat="45.26675" lon="6.10731">
        <ele>1630</ele>
        <time>2021-12-23T09:39:12Z</time>
      </trkpt>
      <trkpt lat="45.26675" lon="6.10732">
        <ele>1631</ele>
        <time>2021-12-23T09:39:13Z</time>
      </trkpt>
      <trkpt lat="45.26675" lon="6.10732">
        <ele>1631</ele>
        <time>2021-12-23T09:39:14Z</time>
      </trkpt>
      <trkpt lat="45.26674" lon="6.10732">
        <ele>1632</ele>
        <time>2021-12-23T09:39:16Z</time>
      </trkpt>
      <trkpt lat="45.26674" lon="6.10732">
        <ele>1632</ele>
        <time>2021-12-23T09:39:17Z</time>
      </trkpt>
      <trkpt lat="45.26674" lon="6.10733">
        <ele>1632</ele>
        <time>2021-12-23T09:39:18Z</time>
      </trkpt>
      <trkpt lat="45.2667" lon="6.10737">
        <ele>1632</ele>
        <time>2021-12-23T09:39:19Z</time>
      </trkpt>
      <trkpt lat="45.26669" lon="6.10738">
        <ele>1632</ele>
        <time>2021-12-23T09:39:20Z</time>
      </trkpt>
      <trkpt lat="45.26669" lon="6.10739">
        <ele>1632</ele>
        <time>2021-12-23T09:39:21Z</time>
      </trkpt>
      <trkpt lat="45.26668" lon="6.1074">
        <ele>1632</ele>
        <time>2021-12-23T09:39:22Z</time>
      </trkpt>
      <trkpt lat="45.26667" lon="6.1074">
        <ele>1633</ele>
        <time>2021-12-23T09:39:23Z</time>
      </trkpt>
      <trkpt lat="45.26667" lon="6.10741">
        <ele>1633</ele>
        <time>2021-12-23T09:39:24Z</time>
      </trkpt>
      <trkpt lat="45.26666" lon="6.10742">
        <ele>1633</ele>
        <time>2021-12-23T09:39:25Z</time>
      </trkpt>
      <trkpt lat="45.26666" lon="6.10743">
        <ele>1633</ele>
        <time>2021-12-23T09:39:26Z</time>
      </trkpt>
      <trkpt lat="45.26665" lon="6.10744">
        <ele>1633</ele>
        <time>2021-12-23T09:39:27Z</time>
      </trkpt>
      <trkpt lat="45.26665" lon="6.10744">
        <ele>1633</ele>
        <time>2021-12-23T09:39:28Z</time>
      </trkpt>
      <trkpt lat="45.26664" lon="6.10745">
        <ele>1634</ele>
        <time>2021-12-23T09:39:29Z</time>
      </trkpt>
      <trkpt lat="45.26664" lon="6.10746">
        <ele>1634</ele>
        <time>2021-12-23T09:39:30Z</time>
      </trkpt>
      <trkpt lat="45.26664" lon="6.10746">
        <ele>1634</ele>
        <time>2021-12-23T09:39:31Z</time>
      </trkpt>
      <trkpt lat="45.26664" lon="6.10746">
        <ele>1634</ele>
        <time>2021-12-23T09:39:32Z</time>
      </trkpt>
      <trkpt lat="45.26664" lon="6.10746">
        <ele>1634</ele>
        <time>2021-12-23T09:39:33Z</time>
      </trkpt>
      <trkpt lat="45.26664" lon="6.10746">
        <ele>1634</ele>
        <time>2021-12-23T09:39:35Z</time>
      </trkpt>
      <trkpt lat="45.26664" lon="6.10746">
        <ele>1634</ele>
        <time>2021-12-23T09:39:37Z</time>
      </trkpt>
      <trkpt lat="45.26664" lon="6.10746">
        <ele>1634</ele>
        <time>2021-12-23T09:39:38Z</time>
      </trkpt>
      <trkpt lat="45.26664" lon="6.10746">
        <ele>1634</ele>
        <time>2021-12-23T09:39:39Z</time>
      </trkpt>
      <trkpt lat="45.26664" lon="6.10746">
        <ele>1635</ele>
        <time>2021-12-23T09:39:40Z</time>
      </trkpt>
      <trkpt lat="45.26664" lon="6.10746">
        <ele>1635</ele>
        <time>2021-12-23T09:39:42Z</time>
      </trkpt>
      <trkpt lat="45.26664" lon="6.10746">
        <ele>1635</ele>
        <time>2021-12-23T09:39:43Z</time>
      </trkpt>
      <trkpt lat="45.26664" lon="6.10746">
        <ele>1635</ele>
        <time>2021-12-23T09:39:44Z</time>
      </trkpt>
      <trkpt lat="45.26664" lon="6.10746">
        <ele>1635</ele>
        <time>2021-12-23T09:39:45Z</time>
      </trkpt>
      <trkpt lat="45.26664" lon="6.10746">
        <ele>1636</ele>
        <time>2021-12-23T09:39:46Z</time>
      </trkpt>
      <trkpt lat="45.26664" lon="6.10746">
        <ele>1636</ele>
        <time>2021-12-23T09:39:47Z</time>
      </trkpt>
      <trkpt lat="45.26664" lon="6.10746">
        <ele>1636</ele>
        <time>2021-12-23T09:39:48Z</time>
      </trkpt>
      <trkpt lat="45.26664" lon="6.10746">
        <ele>1637</ele>
        <time>2021-12-23T09:39:49Z</time>
      </trkpt>
      <trkpt lat="45.26664" lon="6.10746">
        <ele>1637</ele>
        <time>2021-12-23T09:39:50Z</time>
      </trkpt>
      <trkpt lat="45.26664" lon="6.10746">
        <ele>1637</ele>
        <time>2021-12-23T09:39:51Z</time>
      </trkpt>
      <trkpt lat="45.2667" lon="6.10755">
        <ele>1637</ele>
        <time>2021-12-23T09:39:52Z</time>
      </trkpt>
      <trkpt lat="45.2667" lon="6.10755">
        <ele>1638</ele>
        <time>2021-12-23T09:39:54Z</time>
      </trkpt>
      <trkpt lat="45.2667" lon="6.10755">
        <ele>1638</ele>
        <time>2021-12-23T09:39:55Z</time>
      </trkpt>
      <trkpt lat="45.2667" lon="6.10755">
        <ele>1638</ele>
        <time>2021-12-23T09:39:56Z</time>
      </trkpt>
      <trkpt lat="45.2667" lon="6.10755">
        <ele>1638</ele>
        <time>2021-12-23T09:39:57Z</time>
      </trkpt>
      <trkpt lat="45.2667" lon="6.10755">
        <ele>1638</ele>
        <time>2021-12-23T09:39:58Z</time>
      </trkpt>
      <trkpt lat="45.2667" lon="6.10755">
        <ele>1638</ele>
        <time>2021-12-23T09:39:59Z</time>
      </trkpt>
      <trkpt lat="45.2667" lon="6.10755">
        <ele>1638</ele>
        <time>2021-12-23T09:40:00Z</time>
      </trkpt>
      <trkpt lat="45.2667" lon="6.10755">
        <ele>1638</ele>
        <time>2021-12-23T09:40:01Z</time>
      </trkpt>
      <trkpt lat="45.2667" lon="6.10755">
        <ele>1639</ele>
        <time>2021-12-23T09:40:02Z</time>
      </trkpt>
      <trkpt lat="45.2667" lon="6.10755">
        <ele>1639</ele>
        <time>2021-12-23T09:40:03Z</time>
      </trkpt>
      <trkpt lat="45.2667" lon="6.10755">
        <ele>1639</ele>
        <time>2021-12-23T09:40:04Z</time>
      </trkpt>
      <trkpt lat="45.2667" lon="6.10755">
        <ele>1639</ele>
        <time>2021-12-23T09:40:05Z</time>
      </trkpt>
      <trkpt lat="45.2667" lon="6.10755">
        <ele>1639</ele>
        <time>2021-12-23T09:40:06Z</time>
      </trkpt>
      <trkpt lat="45.2667" lon="6.10755">
        <ele>1639</ele>
        <time>2021-12-23T09:40:07Z</time>
      </trkpt>
      <trkpt lat="45.2667" lon="6.10755">
        <ele>1639</ele>
        <time>2021-12-23T09:40:08Z</time>
      </trkpt>
      <trkpt lat="45.2667" lon="6.10755">
        <ele>1639</ele>
        <time>2021-12-23T09:40:09Z</time>
      </trkpt>
      <trkpt lat="45.2667" lon="6.10755">
        <ele>1639</ele>
        <time>2021-12-23T09:40:10Z</time>
      </trkpt>
      <trkpt lat="45.2667" lon="6.10755">
        <ele>1640</ele>
        <time>2021-12-23T09:40:11Z</time>
      </trkpt>
      <trkpt lat="45.2667" lon="6.10755">
        <ele>1641</ele>
        <time>2021-12-23T09:40:13Z</time>
      </trkpt>
      <trkpt lat="45.2667" lon="6.10755">
        <ele>1641</ele>
        <time>2021-12-23T09:40:14Z</time>
      </trkpt>
      <trkpt lat="45.2667" lon="6.10755">
        <ele>1641</ele>
        <time>2021-12-23T09:40:16Z</time>
      </trkpt>
      <trkpt lat="45.2667" lon="6.10755">
        <ele>1641</ele>
        <time>2021-12-23T09:40:17Z</time>
      </trkpt>
      <trkpt lat="45.2667" lon="6.1077">
        <ele>1641</ele>
        <time>2021-12-23T09:40:18Z</time>
      </trkpt>
      <trkpt lat="45.2667" lon="6.1077">
        <ele>1641</ele>
        <time>2021-12-23T09:40:20Z</time>
      </trkpt>
      <trkpt lat="45.2667" lon="6.10771">
        <ele>1641</ele>
        <time>2021-12-23T09:40:21Z</time>
      </trkpt>
      <trkpt lat="45.26669" lon="6.10772">
        <ele>1641</ele>
        <time>2021-12-23T09:40:22Z</time>
      </trkpt>
      <trkpt lat="45.26669" lon="6.10773">
        <ele>1642</ele>
        <time>2021-12-23T09:40:23Z</time>
      </trkpt>
      <trkpt lat="45.26668" lon="6.10774">
        <ele>1642</ele>
        <time>2021-12-23T09:40:24Z</time>
      </trkpt>
      <trkpt lat="45.26668" lon="6.10775">
        <ele>1642</ele>
        <time>2021-12-23T09:40:25Z</time>
      </trkpt>
      <trkpt lat="45.26668" lon="6.10775">
        <ele>1642</ele>
        <time>2021-12-23T09:40:26Z</time>
      </trkpt>
      <trkpt lat="45.26667" lon="6.10776">
        <ele>1642</ele>
        <time>2021-12-23T09:40:27Z</time>
      </trkpt>
      <trkpt lat="45.26667" lon="6.10777">
        <ele>1643</ele>
        <time>2021-12-23T09:40:28Z</time>
      </trkpt>
      <trkpt lat="45.26666" lon="6.10778">
        <ele>1643</ele>
        <time>2021-12-23T09:40:29Z</time>
      </trkpt>
      <trkpt lat="45.26666" lon="6.10779">
        <ele>1643</ele>
        <time>2021-12-23T09:40:30Z</time>
      </trkpt>
      <trkpt lat="45.26666" lon="6.1078">
        <ele>1643</ele>
        <time>2021-12-23T09:40:32Z</time>
      </trkpt>
      <trkpt lat="45.26665" lon="6.10781">
        <ele>1643</ele>
        <time>2021-12-23T09:40:33Z</time>
      </trkpt>
      <trkpt lat="45.26665" lon="6.10781">
        <ele>1643</ele>
        <time>2021-12-23T09:40:34Z</time>
      </trkpt>
      <trkpt lat="45.26665" lon="6.10782">
        <ele>1643</ele>
        <time>2021-12-23T09:40:35Z</time>
      </trkpt>
      <trkpt lat="45.26665" lon="6.10783">
        <ele>1644</ele>
        <time>2021-12-23T09:40:36Z</time>
      </trkpt>
      <trkpt lat="45.26665" lon="6.10784">
        <ele>1644</ele>
        <time>2021-12-23T09:40:37Z</time>
      </trkpt>
      <trkpt lat="45.26665" lon="6.10785">
        <ele>1644</ele>
        <time>2021-12-23T09:40:38Z</time>
      </trkpt>
      <trkpt lat="45.26665" lon="6.10785">
        <ele>1644</ele>
        <time>2021-12-23T09:40:39Z</time>
      </trkpt>
      <trkpt lat="45.26665" lon="6.10786">
        <ele>1644</ele>
        <time>2021-12-23T09:40:40Z</time>
      </trkpt>
      <trkpt lat="45.26665" lon="6.10787">
        <ele>1645</ele>
        <time>2021-12-23T09:40:41Z</time>
      </trkpt>
      <trkpt lat="45.26665" lon="6.10788">
        <ele>1645</ele>
        <time>2021-12-23T09:40:42Z</time>
      </trkpt>
      <trkpt lat="45.26665" lon="6.10789">
        <ele>1645</ele>
        <time>2021-12-23T09:40:43Z</time>
      </trkpt>
      <trkpt lat="45.26666" lon="6.10789">
        <ele>1646</ele>
        <time>2021-12-23T09:40:45Z</time>
      </trkpt>
      <trkpt lat="45.26666" lon="6.1079">
        <ele>1646</ele>
        <time>2021-12-23T09:40:46Z</time>
      </trkpt>
      <trkpt lat="45.26666" lon="6.10791">
        <ele>1646</ele>
        <time>2021-12-23T09:40:47Z</time>
      </trkpt>
      <trkpt lat="45.26666" lon="6.10792">
        <ele>1646</ele>
        <time>2021-12-23T09:40:48Z</time>
      </trkpt>
      <trkpt lat="45.26666" lon="6.10793">
        <ele>1646</ele>
        <time>2021-12-23T09:40:50Z</time>
      </trkpt>
      <trkpt lat="45.26666" lon="6.10793">
        <ele>1646</ele>
        <time>2021-12-23T09:40:51Z</time>
      </trkpt>
      <trkpt lat="45.26666" lon="6.10794">
        <ele>1646</ele>
        <time>2021-12-23T09:40:52Z</time>
      </trkpt>
      <trkpt lat="45.26666" lon="6.10795">
        <ele>1646</ele>
        <time>2021-12-23T09:40:53Z</time>
      </trkpt>
      <trkpt lat="45.26666" lon="6.10795">
        <ele>1647</ele>
        <time>2021-12-23T09:40:54Z</time>
      </trkpt>
      <trkpt lat="45.26666" lon="6.10796">
        <ele>1647</ele>
        <time>2021-12-23T09:40:55Z</time>
      </trkpt>
      <trkpt lat="45.26666" lon="6.10796">
        <ele>1647</ele>
        <time>2021-12-23T09:40:56Z</time>
      </trkpt>
      <trkpt lat="45.26666" lon="6.10797">
        <ele>1647</ele>
        <time>2021-12-23T09:40:57Z</time>
      </trkpt>
      <trkpt lat="45.26665" lon="6.10797">
        <ele>1647</ele>
        <time>2021-12-23T09:40:58Z</time>
      </trkpt>
      <trkpt lat="45.26665" lon="6.10798">
        <ele>1647</ele>
        <time>2021-12-23T09:40:59Z</time>
      </trkpt>
      <trkpt lat="45.26665" lon="6.10798">
        <ele>1647</ele>
        <time>2021-12-23T09:41:00Z</time>
      </trkpt>
      <trkpt lat="45.26665" lon="6.10799">
        <ele>1647</ele>
        <time>2021-12-23T09:41:01Z</time>
      </trkpt>
      <trkpt lat="45.26665" lon="6.10799">
        <ele>1647</ele>
        <time>2021-12-23T09:41:02Z</time>
      </trkpt>
      <trkpt lat="45.26665" lon="6.108">
        <ele>1646</ele>
        <time>2021-12-23T09:41:03Z</time>
      </trkpt>
      <trkpt lat="45.26664" lon="6.108">
        <ele>1646</ele>
        <time>2021-12-23T09:41:05Z</time>
      </trkpt>
      <trkpt lat="45.26664" lon="6.10801">
        <ele>1646</ele>
        <time>2021-12-23T09:41:06Z</time>
      </trkpt>
      <trkpt lat="45.26664" lon="6.10801">
        <ele>1646</ele>
        <time>2021-12-23T09:41:07Z</time>
      </trkpt>
      <trkpt lat="45.26664" lon="6.10802">
        <ele>1646</ele>
        <time>2021-12-23T09:41:08Z</time>
      </trkpt>
      <trkpt lat="45.26664" lon="6.10802">
        <ele>1646</ele>
        <time>2021-12-23T09:41:10Z</time>
      </trkpt>
      <trkpt lat="45.26663" lon="6.10803">
        <ele>1646</ele>
        <time>2021-12-23T09:41:11Z</time>
      </trkpt>
      <trkpt lat="45.26663" lon="6.10803">
        <ele>1646</ele>
        <time>2021-12-23T09:41:12Z</time>
      </trkpt>
      <trkpt lat="45.26663" lon="6.10804">
        <ele>1647</ele>
        <time>2021-12-23T09:41:13Z</time>
      </trkpt>
      <trkpt lat="45.26663" lon="6.10804">
        <ele>1647</ele>
        <time>2021-12-23T09:41:14Z</time>
      </trkpt>
      <trkpt lat="45.26663" lon="6.10805">
        <ele>1648</ele>
        <time>2021-12-23T09:41:15Z</time>
      </trkpt>
      <trkpt lat="45.26663" lon="6.10805">
        <ele>1648</ele>
        <time>2021-12-23T09:41:16Z</time>
      </trkpt>
      <trkpt lat="45.26662" lon="6.10806">
        <ele>1649</ele>
        <time>2021-12-23T09:41:17Z</time>
      </trkpt>
      <trkpt lat="45.26662" lon="6.10806">
        <ele>1649</ele>
        <time>2021-12-23T09:41:18Z</time>
      </trkpt>
      <trkpt lat="45.26662" lon="6.10808">
        <ele>1649</ele>
        <time>2021-12-23T09:41:19Z</time>
      </trkpt>
      <trkpt lat="45.26662" lon="6.10809">
        <ele>1649</ele>
        <time>2021-12-23T09:41:20Z</time>
      </trkpt>
      <trkpt lat="45.26662" lon="6.1081">
        <ele>1649</ele>
        <time>2021-12-23T09:41:21Z</time>
      </trkpt>
      <trkpt lat="45.26662" lon="6.10811">
        <ele>1649</ele>
        <time>2021-12-23T09:41:22Z</time>
      </trkpt>
      <trkpt lat="45.26662" lon="6.10812">
        <ele>1649</ele>
        <time>2021-12-23T09:41:23Z</time>
      </trkpt>
      <trkpt lat="45.26662" lon="6.10813">
        <ele>1649</ele>
        <time>2021-12-23T09:41:24Z</time>
      </trkpt>
      <trkpt lat="45.26663" lon="6.10814">
        <ele>1649</ele>
        <time>2021-12-23T09:41:25Z</time>
      </trkpt>
      <trkpt lat="45.26663" lon="6.10816">
        <ele>1649</ele>
        <time>2021-12-23T09:41:26Z</time>
      </trkpt>
      <trkpt lat="45.26663" lon="6.10817">
        <ele>1649</ele>
        <time>2021-12-23T09:41:27Z</time>
      </trkpt>
      <trkpt lat="45.26663" lon="6.10818">
        <ele>1650</ele>
        <time>2021-12-23T09:41:29Z</time>
      </trkpt>
      <trkpt lat="45.26663" lon="6.10819">
        <ele>1650</ele>
        <time>2021-12-23T09:41:30Z</time>
      </trkpt>
      <trkpt lat="45.26663" lon="6.1082">
        <ele>1650</ele>
        <time>2021-12-23T09:41:31Z</time>
      </trkpt>
      <trkpt lat="45.26663" lon="6.1082">
        <ele>1651</ele>
        <time>2021-12-23T09:41:32Z</time>
      </trkpt>
      <trkpt lat="45.26663" lon="6.1082">
        <ele>1651</ele>
        <time>2021-12-23T09:41:33Z</time>
      </trkpt>
      <trkpt lat="45.26663" lon="6.1082">
        <ele>1651</ele>
        <time>2021-12-23T09:41:34Z</time>
      </trkpt>
      <trkpt lat="45.26663" lon="6.1082">
        <ele>1651</ele>
        <time>2021-12-23T09:41:35Z</time>
      </trkpt>
      <trkpt lat="45.26663" lon="6.1082">
        <ele>1651</ele>
        <time>2021-12-23T09:41:36Z</time>
      </trkpt>
      <trkpt lat="45.26663" lon="6.1082">
        <ele>1652</ele>
        <time>2021-12-23T09:41:37Z</time>
      </trkpt>
      <trkpt lat="45.26663" lon="6.1082">
        <ele>1652</ele>
        <time>2021-12-23T09:41:38Z</time>
      </trkpt>
      <trkpt lat="45.26663" lon="6.1082">
        <ele>1653</ele>
        <time>2021-12-23T09:41:39Z</time>
      </trkpt>
      <trkpt lat="45.26663" lon="6.1082">
        <ele>1653</ele>
        <time>2021-12-23T09:41:40Z</time>
      </trkpt>
      <trkpt lat="45.26663" lon="6.1082">
        <ele>1653</ele>
        <time>2021-12-23T09:41:41Z</time>
      </trkpt>
      <trkpt lat="45.26663" lon="6.1082">
        <ele>1653</ele>
        <time>2021-12-23T09:41:42Z</time>
      </trkpt>
      <trkpt lat="45.26663" lon="6.1082">
        <ele>1653</ele>
        <time>2021-12-23T09:41:43Z</time>
      </trkpt>
      <trkpt lat="45.26663" lon="6.1082">
        <ele>1653</ele>
        <time>2021-12-23T09:41:45Z</time>
      </trkpt>
      <trkpt lat="45.26663" lon="6.1082">
        <ele>1653</ele>
        <time>2021-12-23T09:41:46Z</time>
      </trkpt>
      <trkpt lat="45.26663" lon="6.1082">
        <ele>1653</ele>
        <time>2021-12-23T09:41:48Z</time>
      </trkpt>
      <trkpt lat="45.26663" lon="6.1082">
        <ele>1653</ele>
        <time>2021-12-23T09:41:49Z</time>
      </trkpt>
      <trkpt lat="45.26656" lon="6.1083">
        <ele>1654</ele>
        <time>2021-12-23T09:41:50Z</time>
      </trkpt>
      <trkpt lat="45.26656" lon="6.1083">
        <ele>1654</ele>
        <time>2021-12-23T09:41:52Z</time>
      </trkpt>
      <trkpt lat="45.26657" lon="6.1083">
        <ele>1654</ele>
        <time>2021-12-23T09:41:53Z</time>
      </trkpt>
      <trkpt lat="45.26658" lon="6.10831">
        <ele>1654</ele>
        <time>2021-12-23T09:41:54Z</time>
      </trkpt>
      <trkpt lat="45.26658" lon="6.10832">
        <ele>1655</ele>
        <time>2021-12-23T09:41:55Z</time>
      </trkpt>
      <trkpt lat="45.26659" lon="6.10833">
        <ele>1655</ele>
        <time>2021-12-23T09:41:56Z</time>
      </trkpt>
      <trkpt lat="45.2666" lon="6.10833">
        <ele>1655</ele>
        <time>2021-12-23T09:41:57Z</time>
      </trkpt>
      <trkpt lat="45.2666" lon="6.10834">
        <ele>1655</ele>
        <time>2021-12-23T09:41:58Z</time>
      </trkpt>
      <trkpt lat="45.26661" lon="6.10835">
        <ele>1655</ele>
        <time>2021-12-23T09:41:59Z</time>
      </trkpt>
      <trkpt lat="45.26662" lon="6.10835">
        <ele>1655</ele>
        <time>2021-12-23T09:42:00Z</time>
      </trkpt>
      <trkpt lat="45.26663" lon="6.10836">
        <ele>1656</ele>
        <time>2021-12-23T09:42:01Z</time>
      </trkpt>
      <trkpt lat="45.26663" lon="6.10837">
        <ele>1657</ele>
        <time>2021-12-23T09:42:02Z</time>
      </trkpt>
      <trkpt lat="45.26664" lon="6.10837">
        <ele>1657</ele>
        <time>2021-12-23T09:42:03Z</time>
      </trkpt>
      <trkpt lat="45.26664" lon="6.10838">
        <ele>1657</ele>
        <time>2021-12-23T09:42:04Z</time>
      </trkpt>
      <trkpt lat="45.26665" lon="6.10838">
        <ele>1657</ele>
        <time>2021-12-23T09:42:05Z</time>
      </trkpt>
      <trkpt lat="45.26665" lon="6.10839">
        <ele>1657</ele>
        <time>2021-12-23T09:42:07Z</time>
      </trkpt>
      <trkpt lat="45.26666" lon="6.10839">
        <ele>1657</ele>
        <time>2021-12-23T09:42:08Z</time>
      </trkpt>
      <trkpt lat="45.26666" lon="6.10839">
        <ele>1657</ele>
        <time>2021-12-23T09:42:09Z</time>
      </trkpt>
      <trkpt lat="45.26667" lon="6.1084">
        <ele>1657</ele>
        <time>2021-12-23T09:42:10Z</time>
      </trkpt>
      <trkpt lat="45.26667" lon="6.1084">
        <ele>1657</ele>
        <time>2021-12-23T09:42:11Z</time>
      </trkpt>
      <trkpt lat="45.26667" lon="6.1084">
        <ele>1658</ele>
        <time>2021-12-23T09:42:12Z</time>
      </trkpt>
      <trkpt lat="45.26668" lon="6.10841">
        <ele>1658</ele>
        <time>2021-12-23T09:42:13Z</time>
      </trkpt>
      <trkpt lat="45.26668" lon="6.10841">
        <ele>1658</ele>
        <time>2021-12-23T09:42:14Z</time>
      </trkpt>
      <trkpt lat="45.26669" lon="6.10841">
        <ele>1659</ele>
        <time>2021-12-23T09:42:15Z</time>
      </trkpt>
      <trkpt lat="45.26669" lon="6.10842">
        <ele>1659</ele>
        <time>2021-12-23T09:42:16Z</time>
      </trkpt>
      <trkpt lat="45.2667" lon="6.10842">
        <ele>1659</ele>
        <time>2021-12-23T09:42:17Z</time>
      </trkpt>
      <trkpt lat="45.2667" lon="6.10843">
        <ele>1659</ele>
        <time>2021-12-23T09:42:18Z</time>
      </trkpt>
      <trkpt lat="45.26671" lon="6.10843">
        <ele>1659</ele>
        <time>2021-12-23T09:42:19Z</time>
      </trkpt>
      <trkpt lat="45.26671" lon="6.10843">
        <ele>1659</ele>
        <time>2021-12-23T09:42:20Z</time>
      </trkpt>
      <trkpt lat="45.26672" lon="6.10844">
        <ele>1659</ele>
        <time>2021-12-23T09:42:21Z</time>
      </trkpt>
      <trkpt lat="45.26672" lon="6.10844">
        <ele>1660</ele>
        <time>2021-12-23T09:42:22Z</time>
      </trkpt>
      <trkpt lat="45.26672" lon="6.10844">
        <ele>1660</ele>
        <time>2021-12-23T09:42:23Z</time>
      </trkpt>
      <trkpt lat="45.26672" lon="6.10845">
        <ele>1660</ele>
        <time>2021-12-23T09:42:24Z</time>
      </trkpt>
      <trkpt lat="45.26672" lon="6.10846">
        <ele>1661</ele>
        <time>2021-12-23T09:42:26Z</time>
      </trkpt>
      <trkpt lat="45.26671" lon="6.10847">
        <ele>1661</ele>
        <time>2021-12-23T09:42:27Z</time>
      </trkpt>
      <trkpt lat="45.26671" lon="6.10848">
        <ele>1661</ele>
        <time>2021-12-23T09:42:28Z</time>
      </trkpt>
      <trkpt lat="45.2667" lon="6.10849">
        <ele>1661</ele>
        <time>2021-12-23T09:42:29Z</time>
      </trkpt>
      <trkpt lat="45.2667" lon="6.1085">
        <ele>1661</ele>
        <time>2021-12-23T09:42:30Z</time>
      </trkpt>
      <trkpt lat="45.2667" lon="6.10851">
        <ele>1662</ele>
        <time>2021-12-23T09:42:31Z</time>
      </trkpt>
      <trkpt lat="45.26669" lon="6.10852">
        <ele>1662</ele>
        <time>2021-12-23T09:42:32Z</time>
      </trkpt>
      <trkpt lat="45.26669" lon="6.10853">
        <ele>1661</ele>
        <time>2021-12-23T09:42:33Z</time>
      </trkpt>
      <trkpt lat="45.26668" lon="6.10854">
        <ele>1661</ele>
        <time>2021-12-23T09:42:34Z</time>
      </trkpt>
      <trkpt lat="45.26668" lon="6.10855">
        <ele>1661</ele>
        <time>2021-12-23T09:42:35Z</time>
      </trkpt>
      <trkpt lat="45.26668" lon="6.10855">
        <ele>1662</ele>
        <time>2021-12-23T09:42:36Z</time>
      </trkpt>
      <trkpt lat="45.26668" lon="6.10855">
        <ele>1662</ele>
        <time>2021-12-23T09:42:37Z</time>
      </trkpt>
      <trkpt lat="45.26668" lon="6.10855">
        <ele>1662</ele>
        <time>2021-12-23T09:42:38Z</time>
      </trkpt>
      <trkpt lat="45.26668" lon="6.10855">
        <ele>1662</ele>
        <time>2021-12-23T09:42:39Z</time>
      </trkpt>
      <trkpt lat="45.26668" lon="6.10855">
        <ele>1662</ele>
        <time>2021-12-23T09:42:40Z</time>
      </trkpt>
      <trkpt lat="45.26668" lon="6.10855">
        <ele>1662</ele>
        <time>2021-12-23T09:42:41Z</time>
      </trkpt>
      <trkpt lat="45.26668" lon="6.10855">
        <ele>1662</ele>
        <time>2021-12-23T09:42:42Z</time>
      </trkpt>
      <trkpt lat="45.26664" lon="6.10867">
        <ele>1662</ele>
        <time>2021-12-23T09:42:43Z</time>
      </trkpt>
      <trkpt lat="45.26664" lon="6.10867">
        <ele>1662</ele>
        <time>2021-12-23T09:42:45Z</time>
      </trkpt>
      <trkpt lat="45.26663" lon="6.10867">
        <ele>1662</ele>
        <time>2021-12-23T09:42:46Z</time>
      </trkpt>
      <trkpt lat="45.26661" lon="6.10867">
        <ele>1662</ele>
        <time>2021-12-23T09:42:47Z</time>
      </trkpt>
      <trkpt lat="45.26659" lon="6.10867">
        <ele>1662</ele>
        <time>2021-12-23T09:42:49Z</time>
      </trkpt>
      <trkpt lat="45.26657" lon="6.10866">
        <ele>1662</ele>
        <time>2021-12-23T09:42:50Z</time>
      </trkpt>
      <trkpt lat="45.26656" lon="6.10866">
        <ele>1662</ele>
        <time>2021-12-23T09:42:51Z</time>
      </trkpt>
      <trkpt lat="45.26654" lon="6.10866">
        <ele>1662</ele>
        <time>2021-12-23T09:42:52Z</time>
      </trkpt>
      <trkpt lat="45.26652" lon="6.10866">
        <ele>1663</ele>
        <time>2021-12-23T09:42:53Z</time>
      </trkpt>
      <trkpt lat="45.26652" lon="6.10866">
        <ele>1663</ele>
        <time>2021-12-23T09:42:54Z</time>
      </trkpt>
      <trkpt lat="45.26651" lon="6.10866">
        <ele>1663</ele>
        <time>2021-12-23T09:42:55Z</time>
      </trkpt>
      <trkpt lat="45.26651" lon="6.10866">
        <ele>1663</ele>
        <time>2021-12-23T09:42:56Z</time>
      </trkpt>
      <trkpt lat="45.2665" lon="6.10866">
        <ele>1663</ele>
        <time>2021-12-23T09:42:57Z</time>
      </trkpt>
      <trkpt lat="45.2665" lon="6.10866">
        <ele>1663</ele>
        <time>2021-12-23T09:42:58Z</time>
      </trkpt>
      <trkpt lat="45.26649" lon="6.10866">
        <ele>1663</ele>
        <time>2021-12-23T09:42:59Z</time>
      </trkpt>
      <trkpt lat="45.26649" lon="6.10866">
        <ele>1663</ele>
        <time>2021-12-23T09:43:00Z</time>
      </trkpt>
      <trkpt lat="45.26648" lon="6.10866">
        <ele>1663</ele>
        <time>2021-12-23T09:43:01Z</time>
      </trkpt>
      <trkpt lat="45.26648" lon="6.10866">
        <ele>1664</ele>
        <time>2021-12-23T09:43:02Z</time>
      </trkpt>
      <trkpt lat="45.26648" lon="6.10866">
        <ele>1664</ele>
        <time>2021-12-23T09:43:04Z</time>
      </trkpt>
      <trkpt lat="45.26647" lon="6.10866">
        <ele>1664</ele>
        <time>2021-12-23T09:43:05Z</time>
      </trkpt>
      <trkpt lat="45.26647" lon="6.10866">
        <ele>1665</ele>
        <time>2021-12-23T09:43:06Z</time>
      </trkpt>
      <trkpt lat="45.26646" lon="6.10866">
        <ele>1665</ele>
        <time>2021-12-23T09:43:07Z</time>
      </trkpt>
      <trkpt lat="45.26646" lon="6.10866">
        <ele>1665</ele>
        <time>2021-12-23T09:43:08Z</time>
      </trkpt>
      <trkpt lat="45.26645" lon="6.10866">
        <ele>1665</ele>
        <time>2021-12-23T09:43:09Z</time>
      </trkpt>
      <trkpt lat="45.26645" lon="6.10866">
        <ele>1665</ele>
        <time>2021-12-23T09:43:11Z</time>
      </trkpt>
      <trkpt lat="45.26645" lon="6.10866">
        <ele>1665</ele>
        <time>2021-12-23T09:43:12Z</time>
      </trkpt>
      <trkpt lat="45.26644" lon="6.10866">
        <ele>1665</ele>
        <time>2021-12-23T09:43:13Z</time>
      </trkpt>
      <trkpt lat="45.26644" lon="6.10866">
        <ele>1665</ele>
        <time>2021-12-23T09:43:14Z</time>
      </trkpt>
      <trkpt lat="45.26643" lon="6.10866">
        <ele>1665</ele>
        <time>2021-12-23T09:43:15Z</time>
      </trkpt>
      <trkpt lat="45.26643" lon="6.10866">
        <ele>1665</ele>
        <time>2021-12-23T09:43:16Z</time>
      </trkpt>
      <trkpt lat="45.26642" lon="6.10866">
        <ele>1666</ele>
        <time>2021-12-23T09:43:17Z</time>
      </trkpt>
      <trkpt lat="45.26642" lon="6.10867">
        <ele>1666</ele>
        <time>2021-12-23T09:43:18Z</time>
      </trkpt>
      <trkpt lat="45.26642" lon="6.10867">
        <ele>1666</ele>
        <time>2021-12-23T09:43:19Z</time>
      </trkpt>
      <trkpt lat="45.26641" lon="6.10867">
        <ele>1666</ele>
        <time>2021-12-23T09:43:20Z</time>
      </trkpt>
      <trkpt lat="45.26641" lon="6.10868">
        <ele>1666</ele>
        <time>2021-12-23T09:43:21Z</time>
      </trkpt>
      <trkpt lat="45.2664" lon="6.10868">
        <ele>1667</ele>
        <time>2021-12-23T09:43:23Z</time>
      </trkpt>
      <trkpt lat="45.2664" lon="6.10869">
        <ele>1667</ele>
        <time>2021-12-23T09:43:24Z</time>
      </trkpt>
      <trkpt lat="45.26639" lon="6.10869">
        <ele>1667</ele>
        <time>2021-12-23T09:43:25Z</time>
      </trkpt>
      <trkpt lat="45.26639" lon="6.10869">
        <ele>1667</ele>
        <time>2021-12-23T09:43:26Z</time>
      </trkpt>
      <trkpt lat="45.26639" lon="6.1087">
        <ele>1667</ele>
        <time>2021-12-23T09:43:27Z</time>
      </trkpt>
      <trkpt lat="45.26638" lon="6.1087">
        <ele>1667</ele>
        <time>2021-12-23T09:43:28Z</time>
      </trkpt>
      <trkpt lat="45.26638" lon="6.10871">
        <ele>1667</ele>
        <time>2021-12-23T09:43:29Z</time>
      </trkpt>
      <trkpt lat="45.26637" lon="6.10871">
        <ele>1668</ele>
        <time>2021-12-23T09:43:30Z</time>
      </trkpt>
      <trkpt lat="45.26637" lon="6.10871">
        <ele>1668</ele>
        <time>2021-12-23T09:43:31Z</time>
      </trkpt>
      <trkpt lat="45.26637" lon="6.10872">
        <ele>1668</ele>
        <time>2021-12-23T09:43:32Z</time>
      </trkpt>
      <trkpt lat="45.26636" lon="6.10872">
        <ele>1668</ele>
        <time>2021-12-23T09:43:33Z</time>
      </trkpt>
      <trkpt lat="45.26636" lon="6.10872">
        <ele>1668</ele>
        <time>2021-12-23T09:43:34Z</time>
      </trkpt>
      <trkpt lat="45.26635" lon="6.10873">
        <ele>1668</ele>
        <time>2021-12-23T09:43:35Z</time>
      </trkpt>
      <trkpt lat="45.26635" lon="6.10874">
        <ele>1669</ele>
        <time>2021-12-23T09:43:36Z</time>
      </trkpt>
      <trkpt lat="45.26635" lon="6.10875">
        <ele>1669</ele>
        <time>2021-12-23T09:43:37Z</time>
      </trkpt>
      <trkpt lat="45.26635" lon="6.10876">
        <ele>1669</ele>
        <time>2021-12-23T09:43:38Z</time>
      </trkpt>
      <trkpt lat="45.26635" lon="6.10877">
        <ele>1668</ele>
        <time>2021-12-23T09:43:39Z</time>
      </trkpt>
      <trkpt lat="45.26634" lon="6.10879">
        <ele>1668</ele>
        <time>2021-12-23T09:43:40Z</time>
      </trkpt>
      <trkpt lat="45.26634" lon="6.1088">
        <ele>1668</ele>
        <time>2021-12-23T09:43:42Z</time>
      </trkpt>
      <trkpt lat="45.26634" lon="6.10881">
        <ele>1668</ele>
        <time>2021-12-23T09:43:43Z</time>
      </trkpt>
      <trkpt lat="45.26634" lon="6.10882">
        <ele>1668</ele>
        <time>2021-12-23T09:43:44Z</time>
      </trkpt>
      <trkpt lat="45.26634" lon="6.10883">
        <ele>1669</ele>
        <time>2021-12-23T09:43:45Z</time>
      </trkpt>
      <trkpt lat="45.26633" lon="6.10884">
        <ele>1669</ele>
        <time>2021-12-23T09:43:46Z</time>
      </trkpt>
      <trkpt lat="45.26633" lon="6.10885">
        <ele>1669</ele>
        <time>2021-12-23T09:43:47Z</time>
      </trkpt>
      <trkpt lat="45.26632" lon="6.10886">
        <ele>1669</ele>
        <time>2021-12-23T09:43:48Z</time>
      </trkpt>
      <trkpt lat="45.26631" lon="6.10887">
        <ele>1670</ele>
        <time>2021-12-23T09:43:49Z</time>
      </trkpt>
      <trkpt lat="45.26631" lon="6.10888">
        <ele>1670</ele>
        <time>2021-12-23T09:43:50Z</time>
      </trkpt>
      <trkpt lat="45.2663" lon="6.10889">
        <ele>1670</ele>
        <time>2021-12-23T09:43:51Z</time>
      </trkpt>
      <trkpt lat="45.26629" lon="6.10889">
        <ele>1670</ele>
        <time>2021-12-23T09:43:52Z</time>
      </trkpt>
      <trkpt lat="45.26628" lon="6.1089">
        <ele>1670</ele>
        <time>2021-12-23T09:43:53Z</time>
      </trkpt>
      <trkpt lat="45.26627" lon="6.10891">
        <ele>1670</ele>
        <time>2021-12-23T09:43:54Z</time>
      </trkpt>
      <trkpt lat="45.26626" lon="6.10892">
        <ele>1670</ele>
        <time>2021-12-23T09:43:55Z</time>
      </trkpt>
      <trkpt lat="45.26625" lon="6.10893">
        <ele>1670</ele>
        <time>2021-12-23T09:43:56Z</time>
      </trkpt>
      <trkpt lat="45.26624" lon="6.10893">
        <ele>1670</ele>
        <time>2021-12-23T09:43:57Z</time>
      </trkpt>
      <trkpt lat="45.26624" lon="6.10893">
        <ele>1670</ele>
        <time>2021-12-23T09:43:58Z</time>
      </trkpt>
      <trkpt lat="45.26624" lon="6.10893">
        <ele>1670</ele>
        <time>2021-12-23T09:43:59Z</time>
      </trkpt>
      <trkpt lat="45.26624" lon="6.10893">
        <ele>1671</ele>
        <time>2021-12-23T09:44:01Z</time>
      </trkpt>
      <trkpt lat="45.26624" lon="6.10893">
        <ele>1671</ele>
        <time>2021-12-23T09:44:02Z</time>
      </trkpt>
      <trkpt lat="45.26624" lon="6.10893">
        <ele>1671</ele>
        <time>2021-12-23T09:44:03Z</time>
      </trkpt>
      <trkpt lat="45.26624" lon="6.10893">
        <ele>1671</ele>
        <time>2021-12-23T09:44:04Z</time>
      </trkpt>
      <trkpt lat="45.26624" lon="6.10893">
        <ele>1672</ele>
        <time>2021-12-23T09:44:06Z</time>
      </trkpt>
      <trkpt lat="45.26624" lon="6.10893">
        <ele>1672</ele>
        <time>2021-12-23T09:44:07Z</time>
      </trkpt>
      <trkpt lat="45.26615" lon="6.10901">
        <ele>1672</ele>
        <time>2021-12-23T09:44:08Z</time>
      </trkpt>
      <trkpt lat="45.26615" lon="6.10901">
        <ele>1672</ele>
        <time>2021-12-23T09:44:10Z</time>
      </trkpt>
      <trkpt lat="45.26614" lon="6.10902">
        <ele>1672</ele>
        <time>2021-12-23T09:44:11Z</time>
      </trkpt>
      <trkpt lat="45.26614" lon="6.10903">
        <ele>1672</ele>
        <time>2021-12-23T09:44:12Z</time>
      </trkpt>
      <trkpt lat="45.26613" lon="6.10903">
        <ele>1672</ele>
        <time>2021-12-23T09:44:13Z</time>
      </trkpt>
      <trkpt lat="45.26612" lon="6.10904">
        <ele>1672</ele>
        <time>2021-12-23T09:44:14Z</time>
      </trkpt>
      <trkpt lat="45.26612" lon="6.10905">
        <ele>1672</ele>
        <time>2021-12-23T09:44:15Z</time>
      </trkpt>
      <trkpt lat="45.26611" lon="6.10906">
        <ele>1672</ele>
        <time>2021-12-23T09:44:16Z</time>
      </trkpt>
      <trkpt lat="45.26611" lon="6.10906">
        <ele>1672</ele>
        <time>2021-12-23T09:44:17Z</time>
      </trkpt>
      <trkpt lat="45.2661" lon="6.10907">
        <ele>1672</ele>
        <time>2021-12-23T09:44:18Z</time>
      </trkpt>
      <trkpt lat="45.2661" lon="6.10908">
        <ele>1672</ele>
        <time>2021-12-23T09:44:20Z</time>
      </trkpt>
      <trkpt lat="45.26609" lon="6.10909">
        <ele>1672</ele>
        <time>2021-12-23T09:44:21Z</time>
      </trkpt>
      <trkpt lat="45.26609" lon="6.1091">
        <ele>1672</ele>
        <time>2021-12-23T09:44:22Z</time>
      </trkpt>
      <trkpt lat="45.26608" lon="6.1091">
        <ele>1672</ele>
        <time>2021-12-23T09:44:23Z</time>
      </trkpt>
      <trkpt lat="45.26607" lon="6.10912">
        <ele>1673</ele>
        <time>2021-12-23T09:44:24Z</time>
      </trkpt>
      <trkpt lat="45.26606" lon="6.10914">
        <ele>1673</ele>
        <time>2021-12-23T09:44:25Z</time>
      </trkpt>
      <trkpt lat="45.26605" lon="6.10916">
        <ele>1673</ele>
        <time>2021-12-23T09:44:26Z</time>
      </trkpt>
      <trkpt lat="45.26604" lon="6.10918">
        <ele>1673</ele>
        <time>2021-12-23T09:44:27Z</time>
      </trkpt>
      <trkpt lat="45.26603" lon="6.1092">
        <ele>1673</ele>
        <time>2021-12-23T09:44:28Z</time>
      </trkpt>
      <trkpt lat="45.26602" lon="6.10923">
        <ele>1673</ele>
        <time>2021-12-23T09:44:29Z</time>
      </trkpt>
      <trkpt lat="45.26601" lon="6.10925">
        <ele>1673</ele>
        <time>2021-12-23T09:44:30Z</time>
      </trkpt>
      <trkpt lat="45.266" lon="6.10927">
        <ele>1673</ele>
        <time>2021-12-23T09:44:31Z</time>
      </trkpt>
      <trkpt lat="45.26599" lon="6.10929">
        <ele>1673</ele>
        <time>2021-12-23T09:44:32Z</time>
      </trkpt>
      <trkpt lat="45.26598" lon="6.10929">
        <ele>1673</ele>
        <time>2021-12-23T09:44:33Z</time>
      </trkpt>
      <trkpt lat="45.26597" lon="6.10928">
        <ele>1673</ele>
        <time>2021-12-23T09:44:34Z</time>
      </trkpt>
      <trkpt lat="45.26597" lon="6.10928">
        <ele>1673</ele>
        <time>2021-12-23T09:44:35Z</time>
      </trkpt>
      <trkpt lat="45.26596" lon="6.10928">
        <ele>1673</ele>
        <time>2021-12-23T09:44:36Z</time>
      </trkpt>
      <trkpt lat="45.26595" lon="6.10928">
        <ele>1673</ele>
        <time>2021-12-23T09:44:37Z</time>
      </trkpt>
      <trkpt lat="45.26594" lon="6.10928">
        <ele>1673</ele>
        <time>2021-12-23T09:44:39Z</time>
      </trkpt>
      <trkpt lat="45.26593" lon="6.10928">
        <ele>1673</ele>
        <time>2021-12-23T09:44:40Z</time>
      </trkpt>
      <trkpt lat="45.26593" lon="6.10928">
        <ele>1674</ele>
        <time>2021-12-23T09:44:41Z</time>
      </trkpt>
      <trkpt lat="45.26592" lon="6.10928">
        <ele>1674</ele>
        <time>2021-12-23T09:44:42Z</time>
      </trkpt>
      <trkpt lat="45.26591" lon="6.10928">
        <ele>1674</ele>
        <time>2021-12-23T09:44:43Z</time>
      </trkpt>
      <trkpt lat="45.2659" lon="6.10928">
        <ele>1674</ele>
        <time>2021-12-23T09:44:44Z</time>
      </trkpt>
      <trkpt lat="45.2659" lon="6.10928">
        <ele>1675</ele>
        <time>2021-12-23T09:44:45Z</time>
      </trkpt>
      <trkpt lat="45.26589" lon="6.10928">
        <ele>1676</ele>
        <time>2021-12-23T09:44:46Z</time>
      </trkpt>
      <trkpt lat="45.26588" lon="6.10928">
        <ele>1676</ele>
        <time>2021-12-23T09:44:47Z</time>
      </trkpt>
      <trkpt lat="45.26588" lon="6.10928">
        <ele>1676</ele>
        <time>2021-12-23T09:44:48Z</time>
      </trkpt>
      <trkpt lat="45.26588" lon="6.10928">
        <ele>1676</ele>
        <time>2021-12-23T09:44:49Z</time>
      </trkpt>
      <trkpt lat="45.26588" lon="6.10928">
        <ele>1676</ele>
        <time>2021-12-23T09:44:50Z</time>
      </trkpt>
      <trkpt lat="45.26588" lon="6.10928">
        <ele>1676</ele>
        <time>2021-12-23T09:44:51Z</time>
      </trkpt>
      <trkpt lat="45.26588" lon="6.10928">
        <ele>1676</ele>
        <time>2021-12-23T09:44:52Z</time>
      </trkpt>
      <trkpt lat="45.26588" lon="6.10928">
        <ele>1676</ele>
        <time>2021-12-23T09:44:53Z</time>
      </trkpt>
      <trkpt lat="45.26581" lon="6.10937">
        <ele>1676</ele>
        <time>2021-12-23T09:44:54Z</time>
      </trkpt>
      <trkpt lat="45.26581" lon="6.10937">
        <ele>1676</ele>
        <time>2021-12-23T09:44:56Z</time>
      </trkpt>
      <trkpt lat="45.26581" lon="6.10938">
        <ele>1676</ele>
        <time>2021-12-23T09:44:58Z</time>
      </trkpt>
      <trkpt lat="45.26581" lon="6.1094">
        <ele>1676</ele>
        <time>2021-12-23T09:44:59Z</time>
      </trkpt>
      <trkpt lat="45.26581" lon="6.10942">
        <ele>1676</ele>
        <time>2021-12-23T09:45:00Z</time>
      </trkpt>
      <trkpt lat="45.26581" lon="6.10943">
        <ele>1676</ele>
        <time>2021-12-23T09:45:01Z</time>
      </trkpt>
      <trkpt lat="45.26581" lon="6.10945">
        <ele>1676</ele>
        <time>2021-12-23T09:45:02Z</time>
      </trkpt>
      <trkpt lat="45.26581" lon="6.10946">
        <ele>1676</ele>
        <time>2021-12-23T09:45:03Z</time>
      </trkpt>
      <trkpt lat="45.26581" lon="6.10948">
        <ele>1676</ele>
        <time>2021-12-23T09:45:04Z</time>
      </trkpt>
      <trkpt lat="45.26581" lon="6.10949">
        <ele>1676</ele>
        <time>2021-12-23T09:45:05Z</time>
      </trkpt>
      <trkpt lat="45.26581" lon="6.10951">
        <ele>1676</ele>
        <time>2021-12-23T09:45:06Z</time>
      </trkpt>
      <trkpt lat="45.26581" lon="6.10952">
        <ele>1676</ele>
        <time>2021-12-23T09:45:07Z</time>
      </trkpt>
      <trkpt lat="45.26581" lon="6.10954">
        <ele>1676</ele>
        <time>2021-12-23T09:45:08Z</time>
      </trkpt>
      <trkpt lat="45.2658" lon="6.10954">
        <ele>1676</ele>
        <time>2021-12-23T09:45:09Z</time>
      </trkpt>
      <trkpt lat="45.2658" lon="6.10954">
        <ele>1676</ele>
        <time>2021-12-23T09:45:10Z</time>
      </trkpt>
      <trkpt lat="45.26579" lon="6.10954">
        <ele>1676</ele>
        <time>2021-12-23T09:45:11Z</time>
      </trkpt>
      <trkpt lat="45.26579" lon="6.10954">
        <ele>1676</ele>
        <time>2021-12-23T09:45:12Z</time>
      </trkpt>
      <trkpt lat="45.26578" lon="6.10953">
        <ele>1676</ele>
        <time>2021-12-23T09:45:13Z</time>
      </trkpt>
      <trkpt lat="45.26578" lon="6.10953">
        <ele>1676</ele>
        <time>2021-12-23T09:45:14Z</time>
      </trkpt>
      <trkpt lat="45.26577" lon="6.10953">
        <ele>1676</ele>
        <time>2021-12-23T09:45:15Z</time>
      </trkpt>
      <trkpt lat="45.26577" lon="6.10953">
        <ele>1676</ele>
        <time>2021-12-23T09:45:17Z</time>
      </trkpt>
      <trkpt lat="45.26576" lon="6.10953">
        <ele>1676</ele>
        <time>2021-12-23T09:45:18Z</time>
      </trkpt>
      <trkpt lat="45.26575" lon="6.10953">
        <ele>1676</ele>
        <time>2021-12-23T09:45:19Z</time>
      </trkpt>
      <trkpt lat="45.26575" lon="6.10953">
        <ele>1677</ele>
        <time>2021-12-23T09:45:20Z</time>
      </trkpt>
      <trkpt lat="45.26574" lon="6.10953">
        <ele>1677</ele>
        <time>2021-12-23T09:45:21Z</time>
      </trkpt>
      <trkpt lat="45.26574" lon="6.10953">
        <ele>1677</ele>
        <time>2021-12-23T09:45:22Z</time>
      </trkpt>
      <trkpt lat="45.26573" lon="6.10953">
        <ele>1677</ele>
        <time>2021-12-23T09:45:23Z</time>
      </trkpt>
      <trkpt lat="45.26573" lon="6.10953">
        <ele>1677</ele>
        <time>2021-12-23T09:45:24Z</time>
      </trkpt>
      <trkpt lat="45.26572" lon="6.10953">
        <ele>1677</ele>
        <time>2021-12-23T09:45:25Z</time>
      </trkpt>
      <trkpt lat="45.26572" lon="6.10953">
        <ele>1677</ele>
        <time>2021-12-23T09:45:26Z</time>
      </trkpt>
      <trkpt lat="45.26572" lon="6.10953">
        <ele>1677</ele>
        <time>2021-12-23T09:45:27Z</time>
      </trkpt>
      <trkpt lat="45.26572" lon="6.10953">
        <ele>1677</ele>
        <time>2021-12-23T09:45:28Z</time>
      </trkpt>
      <trkpt lat="45.26572" lon="6.10953">
        <ele>1677</ele>
        <time>2021-12-23T09:45:29Z</time>
      </trkpt>
      <trkpt lat="45.26572" lon="6.10953">
        <ele>1677</ele>
        <time>2021-12-23T09:45:30Z</time>
      </trkpt>
      <trkpt lat="45.26572" lon="6.10953">
        <ele>1677</ele>
        <time>2021-12-23T09:45:31Z</time>
      </trkpt>
      <trkpt lat="45.26572" lon="6.10953">
        <ele>1677</ele>
        <time>2021-12-23T09:45:33Z</time>
      </trkpt>
      <trkpt lat="45.26561" lon="6.10951">
        <ele>1677</ele>
        <time>2021-12-23T09:45:34Z</time>
      </trkpt>
      <trkpt lat="45.26561" lon="6.10951">
        <ele>1677</ele>
        <time>2021-12-23T09:45:36Z</time>
      </trkpt>
      <trkpt lat="45.2657" lon="6.10946">
        <ele>1677</ele>
        <time>2021-12-23T09:45:37Z</time>
      </trkpt>
      <trkpt lat="45.2657" lon="6.10946">
        <ele>1677</ele>
        <time>2021-12-23T09:45:38Z</time>
      </trkpt>
      <trkpt lat="45.2657" lon="6.10946">
        <ele>1677</ele>
        <time>2021-12-23T09:45:39Z</time>
      </trkpt>
      <trkpt lat="45.2657" lon="6.10946">
        <ele>1677</ele>
        <time>2021-12-23T09:45:40Z</time>
      </trkpt>
      <trkpt lat="45.2657" lon="6.10946">
        <ele>1677</ele>
        <time>2021-12-23T09:45:41Z</time>
      </trkpt>
      <trkpt lat="45.2657" lon="6.10946">
        <ele>1677</ele>
        <time>2021-12-23T09:45:42Z</time>
      </trkpt>
      <trkpt lat="45.2657" lon="6.10946">
        <ele>1677</ele>
        <time>2021-12-23T09:45:43Z</time>
      </trkpt>
      <trkpt lat="45.26559" lon="6.10951">
        <ele>1677</ele>
        <time>2021-12-23T09:45:44Z</time>
      </trkpt>
      <trkpt lat="45.26559" lon="6.10951">
        <ele>1677</ele>
        <time>2021-12-23T09:45:46Z</time>
      </trkpt>
      <trkpt lat="45.2656" lon="6.10951">
        <ele>1677</ele>
        <time>2021-12-23T09:45:47Z</time>
      </trkpt>
      <trkpt lat="45.2656" lon="6.10952">
        <ele>1677</ele>
        <time>2021-12-23T09:45:48Z</time>
      </trkpt>
      <trkpt lat="45.2656" lon="6.10952">
        <ele>1677</ele>
        <time>2021-12-23T09:45:49Z</time>
      </trkpt>
      <trkpt lat="45.2656" lon="6.10953">
        <ele>1677</ele>
        <time>2021-12-23T09:45:50Z</time>
      </trkpt>
      <trkpt lat="45.2656" lon="6.10953">
        <ele>1677</ele>
        <time>2021-12-23T09:45:51Z</time>
      </trkpt>
      <trkpt lat="45.2656" lon="6.10953">
        <ele>1677</ele>
        <time>2021-12-23T09:45:52Z</time>
      </trkpt>
      <trkpt lat="45.26561" lon="6.10954">
        <ele>1676</ele>
        <time>2021-12-23T09:45:53Z</time>
      </trkpt>
      <trkpt lat="45.26561" lon="6.10954">
        <ele>1677</ele>
        <time>2021-12-23T09:45:55Z</time>
      </trkpt>
      <trkpt lat="45.26561" lon="6.10955">
        <ele>1677</ele>
        <time>2021-12-23T09:45:56Z</time>
      </trkpt>
      <trkpt lat="45.26561" lon="6.10955">
        <ele>1677</ele>
        <time>2021-12-23T09:45:57Z</time>
      </trkpt>
      <trkpt lat="45.26561" lon="6.10956">
        <ele>1677</ele>
        <time>2021-12-23T09:45:58Z</time>
      </trkpt>
      <trkpt lat="45.26561" lon="6.10956">
        <ele>1677</ele>
        <time>2021-12-23T09:45:59Z</time>
      </trkpt>
      <trkpt lat="45.26562" lon="6.10956">
        <ele>1677</ele>
        <time>2021-12-23T09:46:00Z</time>
      </trkpt>
      <trkpt lat="45.26562" lon="6.10957">
        <ele>1677</ele>
        <time>2021-12-23T09:46:01Z</time>
      </trkpt>
      <trkpt lat="45.26562" lon="6.10957">
        <ele>1677</ele>
        <time>2021-12-23T09:46:02Z</time>
      </trkpt>
      <trkpt lat="45.26562" lon="6.10958">
        <ele>1677</ele>
        <time>2021-12-23T09:46:03Z</time>
      </trkpt>
      <trkpt lat="45.26562" lon="6.10958">
        <ele>1677</ele>
        <time>2021-12-23T09:46:04Z</time>
      </trkpt>
      <trkpt lat="45.26563" lon="6.10959">
        <ele>1677</ele>
        <time>2021-12-23T09:46:05Z</time>
      </trkpt>
      <trkpt lat="45.26563" lon="6.10959">
        <ele>1677</ele>
        <time>2021-12-23T09:46:06Z</time>
      </trkpt>
      <trkpt lat="45.26563" lon="6.10959">
        <ele>1677</ele>
        <time>2021-12-23T09:46:07Z</time>
      </trkpt>
      <trkpt lat="45.26563" lon="6.1096">
        <ele>1677</ele>
        <time>2021-12-23T09:46:08Z</time>
      </trkpt>
      <trkpt lat="45.26563" lon="6.1096">
        <ele>1677</ele>
        <time>2021-12-23T09:46:09Z</time>
      </trkpt>
      <trkpt lat="45.26563" lon="6.10961">
        <ele>1677</ele>
        <time>2021-12-23T09:46:10Z</time>
      </trkpt>
      <trkpt lat="45.26564" lon="6.10961">
        <ele>1677</ele>
        <time>2021-12-23T09:46:11Z</time>
      </trkpt>
      <trkpt lat="45.26564" lon="6.10961">
        <ele>1677</ele>
        <time>2021-12-23T09:46:12Z</time>
      </trkpt>
      <trkpt lat="45.26564" lon="6.10962">
        <ele>1677</ele>
        <time>2021-12-23T09:46:14Z</time>
      </trkpt>
      <trkpt lat="45.26564" lon="6.10962">
        <ele>1677</ele>
        <time>2021-12-23T09:46:15Z</time>
      </trkpt>
      <trkpt lat="45.26564" lon="6.10962">
        <ele>1677</ele>
        <time>2021-12-23T09:46:16Z</time>
      </trkpt>
      <trkpt lat="45.26565" lon="6.10962">
        <ele>1677</ele>
        <time>2021-12-23T09:46:17Z</time>
      </trkpt>
      <trkpt lat="45.26565" lon="6.10962">
        <ele>1677</ele>
        <time>2021-12-23T09:46:18Z</time>
      </trkpt>
      <trkpt lat="45.26565" lon="6.10961">
        <ele>1677</ele>
        <time>2021-12-23T09:46:19Z</time>
      </trkpt>
      <trkpt lat="45.26565" lon="6.10961">
        <ele>1677</ele>
        <time>2021-12-23T09:46:20Z</time>
      </trkpt>
      <trkpt lat="45.26566" lon="6.10961">
        <ele>1677</ele>
        <time>2021-12-23T09:46:21Z</time>
      </trkpt>
      <trkpt lat="45.26566" lon="6.10961">
        <ele>1677</ele>
        <time>2021-12-23T09:46:22Z</time>
      </trkpt>
      <trkpt lat="45.26566" lon="6.1096">
        <ele>1677</ele>
        <time>2021-12-23T09:46:23Z</time>
      </trkpt>
      <trkpt lat="45.26567" lon="6.1096">
        <ele>1677</ele>
        <time>2021-12-23T09:46:24Z</time>
      </trkpt>
      <trkpt lat="45.26567" lon="6.1096">
        <ele>1677</ele>
        <time>2021-12-23T09:46:25Z</time>
      </trkpt>
      <trkpt lat="45.26567" lon="6.1096">
        <ele>1677</ele>
        <time>2021-12-23T09:46:26Z</time>
      </trkpt>
      <trkpt lat="45.26567" lon="6.10959">
        <ele>1677</ele>
        <time>2021-12-23T09:46:27Z</time>
      </trkpt>
      <trkpt lat="45.26568" lon="6.10959">
        <ele>1677</ele>
        <time>2021-12-23T09:46:28Z</time>
      </trkpt>
      <trkpt lat="45.26568" lon="6.10959">
        <ele>1677</ele>
        <time>2021-12-23T09:46:29Z</time>
      </trkpt>
      <trkpt lat="45.26568" lon="6.10959">
        <ele>1677</ele>
        <time>2021-12-23T09:46:30Z</time>
      </trkpt>
      <trkpt lat="45.26569" lon="6.10958">
        <ele>1677</ele>
        <time>2021-12-23T09:46:31Z</time>
      </trkpt>
      <trkpt lat="45.26569" lon="6.10958">
        <ele>1677</ele>
        <time>2021-12-23T09:46:33Z</time>
      </trkpt>
      <trkpt lat="45.26569" lon="6.10958">
        <ele>1677</ele>
        <time>2021-12-23T09:46:34Z</time>
      </trkpt>
      <trkpt lat="45.26569" lon="6.10958">
        <ele>1677</ele>
        <time>2021-12-23T09:46:35Z</time>
      </trkpt>
      <trkpt lat="45.2657" lon="6.10957">
        <ele>1677</ele>
        <time>2021-12-23T09:46:36Z</time>
      </trkpt>
      <trkpt lat="45.2657" lon="6.10957">
        <ele>1677</ele>
        <time>2021-12-23T09:46:37Z</time>
      </trkpt>
      <trkpt lat="45.2657" lon="6.10957">
        <ele>1677</ele>
        <time>2021-12-23T09:46:38Z</time>
      </trkpt>
      <trkpt lat="45.26571" lon="6.10957">
        <ele>1677</ele>
        <time>2021-12-23T09:46:39Z</time>
      </trkpt>
      <trkpt lat="45.26571" lon="6.10956">
        <ele>1677</ele>
        <time>2021-12-23T09:46:40Z</time>
      </trkpt>
      <trkpt lat="45.26571" lon="6.10956">
        <ele>1677</ele>
        <time>2021-12-23T09:46:41Z</time>
      </trkpt>
      <trkpt lat="45.26571" lon="6.10956">
        <ele>1677</ele>
        <time>2021-12-23T09:46:42Z</time>
      </trkpt>
      <trkpt lat="45.26572" lon="6.10956">
        <ele>1678</ele>
        <time>2021-12-23T09:46:43Z</time>
      </trkpt>
      <trkpt lat="45.26572" lon="6.10955">
        <ele>1678</ele>
        <time>2021-12-23T09:46:44Z</time>
      </trkpt>
      <trkpt lat="45.26572" lon="6.10955">
        <ele>1678</ele>
        <time>2021-12-23T09:46:45Z</time>
      </trkpt>
      <trkpt lat="45.26573" lon="6.10956">
        <ele>1679</ele>
        <time>2021-12-23T09:46:46Z</time>
      </trkpt>
      <trkpt lat="45.26573" lon="6.10956">
        <ele>1679</ele>
        <time>2021-12-23T09:46:47Z</time>
      </trkpt>
      <trkpt lat="45.26573" lon="6.10956">
        <ele>1680</ele>
        <time>2021-12-23T09:46:48Z</time>
      </trkpt>
      <trkpt lat="45.26573" lon="6.10956">
        <ele>1680</ele>
        <time>2021-12-23T09:46:49Z</time>
      </trkpt>
      <trkpt lat="45.26574" lon="6.10956">
        <ele>1680</ele>
        <time>2021-12-23T09:46:50Z</time>
      </trkpt>
      <trkpt lat="45.26574" lon="6.10957">
        <ele>1680</ele>
        <time>2021-12-23T09:46:52Z</time>
      </trkpt>
      <trkpt lat="45.26574" lon="6.10957">
        <ele>1680</ele>
        <time>2021-12-23T09:46:53Z</time>
      </trkpt>
      <trkpt lat="45.26574" lon="6.10957">
        <ele>1680</ele>
        <time>2021-12-23T09:46:54Z</time>
      </trkpt>
      <trkpt lat="45.26575" lon="6.10957">
        <ele>1680</ele>
        <time>2021-12-23T09:46:55Z</time>
      </trkpt>
      <trkpt lat="45.26575" lon="6.10957">
        <ele>1680</ele>
        <time>2021-12-23T09:46:56Z</time>
      </trkpt>
      <trkpt lat="45.26575" lon="6.10957">
        <ele>1680</ele>
        <time>2021-12-23T09:46:57Z</time>
      </trkpt>
      <trkpt lat="45.26576" lon="6.10958">
        <ele>1680</ele>
        <time>2021-12-23T09:46:58Z</time>
      </trkpt>
      <trkpt lat="45.26576" lon="6.10958">
        <ele>1680</ele>
        <time>2021-12-23T09:46:59Z</time>
      </trkpt>
      <trkpt lat="45.26576" lon="6.10958">
        <ele>1680</ele>
        <time>2021-12-23T09:47:00Z</time>
      </trkpt>
      <trkpt lat="45.26576" lon="6.10958">
        <ele>1680</ele>
        <time>2021-12-23T09:47:01Z</time>
      </trkpt>
      <trkpt lat="45.26577" lon="6.10958">
        <ele>1680</ele>
        <time>2021-12-23T09:47:02Z</time>
      </trkpt>
      <trkpt lat="45.26577" lon="6.10958">
        <ele>1681</ele>
        <time>2021-12-23T09:47:03Z</time>
      </trkpt>
      <trkpt lat="45.26577" lon="6.10959">
        <ele>1681</ele>
        <time>2021-12-23T09:47:04Z</time>
      </trkpt>
      <trkpt lat="45.26577" lon="6.10959">
        <ele>1681</ele>
        <time>2021-12-23T09:47:05Z</time>
      </trkpt>
      <trkpt lat="45.26578" lon="6.10959">
        <ele>1681</ele>
        <time>2021-12-23T09:47:06Z</time>
      </trkpt>
      <trkpt lat="45.26578" lon="6.10959">
        <ele>1681</ele>
        <time>2021-12-23T09:47:07Z</time>
      </trkpt>
      <trkpt lat="45.26578" lon="6.10959">
        <ele>1681</ele>
        <time>2021-12-23T09:47:08Z</time>
      </trkpt>
      <trkpt lat="45.26579" lon="6.10959">
        <ele>1681</ele>
        <time>2021-12-23T09:47:09Z</time>
      </trkpt>
      <trkpt lat="45.26579" lon="6.1096">
        <ele>1681</ele>
        <time>2021-12-23T09:47:11Z</time>
      </trkpt>
      <trkpt lat="45.26579" lon="6.1096">
        <ele>1681</ele>
        <time>2021-12-23T09:47:12Z</time>
      </trkpt>
      <trkpt lat="45.26579" lon="6.1096">
        <ele>1681</ele>
        <time>2021-12-23T09:47:13Z</time>
      </trkpt>
      <trkpt lat="45.2658" lon="6.1096">
        <ele>1681</ele>
        <time>2021-12-23T09:47:14Z</time>
      </trkpt>
      <trkpt lat="45.2658" lon="6.1096">
        <ele>1681</ele>
        <time>2021-12-23T09:47:15Z</time>
      </trkpt>
      <trkpt lat="45.2658" lon="6.1096">
        <ele>1681</ele>
        <time>2021-12-23T09:47:16Z</time>
      </trkpt>
      <trkpt lat="45.2658" lon="6.1096">
        <ele>1681</ele>
        <time>2021-12-23T09:47:17Z</time>
      </trkpt>
      <trkpt lat="45.2658" lon="6.1096">
        <ele>1681</ele>
        <time>2021-12-23T09:47:18Z</time>
      </trkpt>
      <trkpt lat="45.2658" lon="6.1096">
        <ele>1681</ele>
        <time>2021-12-23T09:47:19Z</time>
      </trkpt>
      <trkpt lat="45.2658" lon="6.1096">
        <ele>1682</ele>
        <time>2021-12-23T09:47:20Z</time>
      </trkpt>
      <trkpt lat="45.2658" lon="6.1096">
        <ele>1682</ele>
        <time>2021-12-23T09:47:21Z</time>
      </trkpt>
      <trkpt lat="45.2658" lon="6.1096">
        <ele>1682</ele>
        <time>2021-12-23T09:47:22Z</time>
      </trkpt>
      <trkpt lat="45.2658" lon="6.1096">
        <ele>1682</ele>
        <time>2021-12-23T09:47:23Z</time>
      </trkpt>
      <trkpt lat="45.2658" lon="6.1096">
        <ele>1682</ele>
        <time>2021-12-23T09:47:24Z</time>
      </trkpt>
      <trkpt lat="45.2658" lon="6.1096">
        <ele>1682</ele>
        <time>2021-12-23T09:47:25Z</time>
      </trkpt>
      <trkpt lat="45.2658" lon="6.1096">
        <ele>1682</ele>
        <time>2021-12-23T09:47:26Z</time>
      </trkpt>
      <trkpt lat="45.2658" lon="6.1096">
        <ele>1682</ele>
        <time>2021-12-23T09:47:27Z</time>
      </trkpt>
      <trkpt lat="45.2659" lon="6.10957">
        <ele>1683</ele>
        <time>2021-12-23T09:47:28Z</time>
      </trkpt>
      <trkpt lat="45.2659" lon="6.10957">
        <ele>1684</ele>
        <time>2021-12-23T09:47:30Z</time>
      </trkpt>
      <trkpt lat="45.2659" lon="6.10957">
        <ele>1684</ele>
        <time>2021-12-23T09:47:31Z</time>
      </trkpt>
      <trkpt lat="45.26591" lon="6.10957">
        <ele>1684</ele>
        <time>2021-12-23T09:47:32Z</time>
      </trkpt>
      <trkpt lat="45.26592" lon="6.10956">
        <ele>1683</ele>
        <time>2021-12-23T09:47:33Z</time>
      </trkpt>
      <trkpt lat="45.26592" lon="6.10956">
        <ele>1684</ele>
        <time>2021-12-23T09:47:34Z</time>
      </trkpt>
      <trkpt lat="45.26593" lon="6.10956">
        <ele>1684</ele>
        <time>2021-12-23T09:47:35Z</time>
      </trkpt>
      <trkpt lat="45.26593" lon="6.10956">
        <ele>1685</ele>
        <time>2021-12-23T09:47:36Z</time>
      </trkpt>
      <trkpt lat="45.26594" lon="6.10956">
        <ele>1685</ele>
        <time>2021-12-23T09:47:37Z</time>
      </trkpt>
      <trkpt lat="45.26595" lon="6.10956">
        <ele>1685</ele>
        <time>2021-12-23T09:47:38Z</time>
      </trkpt>
      <trkpt lat="45.26595" lon="6.10956">
        <ele>1685</ele>
        <time>2021-12-23T09:47:39Z</time>
      </trkpt>
      <trkpt lat="45.26596" lon="6.10956">
        <ele>1685</ele>
        <time>2021-12-23T09:47:40Z</time>
      </trkpt>
      <trkpt lat="45.26596" lon="6.10955">
        <ele>1685</ele>
        <time>2021-12-23T09:47:41Z</time>
      </trkpt>
      <trkpt lat="45.26597" lon="6.10955">
        <ele>1685</ele>
        <time>2021-12-23T09:47:42Z</time>
      </trkpt>
      <trkpt lat="45.26598" lon="6.10955">
        <ele>1685</ele>
        <time>2021-12-23T09:47:43Z</time>
      </trkpt>
      <trkpt lat="45.26598" lon="6.10955">
        <ele>1685</ele>
        <time>2021-12-23T09:47:44Z</time>
      </trkpt>
      <trkpt lat="45.26599" lon="6.10955">
        <ele>1685</ele>
        <time>2021-12-23T09:47:45Z</time>
      </trkpt>
      <trkpt lat="45.26599" lon="6.10955">
        <ele>1685</ele>
        <time>2021-12-23T09:47:46Z</time>
      </trkpt>
      <trkpt lat="45.26599" lon="6.10955">
        <ele>1685</ele>
        <time>2021-12-23T09:47:47Z</time>
      </trkpt>
      <trkpt lat="45.26599" lon="6.10955">
        <ele>1685</ele>
        <time>2021-12-23T09:47:49Z</time>
      </trkpt>
      <trkpt lat="45.26599" lon="6.10955">
        <ele>1685</ele>
        <time>2021-12-23T09:47:50Z</time>
      </trkpt>
      <trkpt lat="45.26599" lon="6.10955">
        <ele>1685</ele>
        <time>2021-12-23T09:47:51Z</time>
      </trkpt>
      <trkpt lat="45.26599" lon="6.10955">
        <ele>1686</ele>
        <time>2021-12-23T09:47:52Z</time>
      </trkpt>
      <trkpt lat="45.26599" lon="6.10955">
        <ele>1686</ele>
        <time>2021-12-23T09:47:53Z</time>
      </trkpt>
      <trkpt lat="45.26599" lon="6.10955">
        <ele>1686</ele>
        <time>2021-12-23T09:47:54Z</time>
      </trkpt>
      <trkpt lat="45.26599" lon="6.10955">
        <ele>1686</ele>
        <time>2021-12-23T09:47:55Z</time>
      </trkpt>
      <trkpt lat="45.26599" lon="6.10955">
        <ele>1686</ele>
        <time>2021-12-23T09:47:56Z</time>
      </trkpt>
      <trkpt lat="45.26599" lon="6.10955">
        <ele>1686</ele>
        <time>2021-12-23T09:47:57Z</time>
      </trkpt>
      <trkpt lat="45.26599" lon="6.10955">
        <ele>1686</ele>
        <time>2021-12-23T09:47:58Z</time>
      </trkpt>
      <trkpt lat="45.26599" lon="6.10955">
        <ele>1686</ele>
        <time>2021-12-23T09:47:59Z</time>
      </trkpt>
      <trkpt lat="45.26599" lon="6.10955">
        <ele>1686</ele>
        <time>2021-12-23T09:48:00Z</time>
      </trkpt>
      <trkpt lat="45.26599" lon="6.10955">
        <ele>1687</ele>
        <time>2021-12-23T09:48:01Z</time>
      </trkpt>
      <trkpt lat="45.26599" lon="6.10955">
        <ele>1687</ele>
        <time>2021-12-23T09:48:02Z</time>
      </trkpt>
      <trkpt lat="45.26599" lon="6.10955">
        <ele>1687</ele>
        <time>2021-12-23T09:48:03Z</time>
      </trkpt>
      <trkpt lat="45.26599" lon="6.10955">
        <ele>1687</ele>
        <time>2021-12-23T09:48:04Z</time>
      </trkpt>
      <trkpt lat="45.26599" lon="6.10955">
        <ele>1688</ele>
        <time>2021-12-23T09:48:05Z</time>
      </trkpt>
      <trkpt lat="45.26599" lon="6.10955">
        <ele>1688</ele>
        <time>2021-12-23T09:48:06Z</time>
      </trkpt>
      <trkpt lat="45.26599" lon="6.10955">
        <ele>1689</ele>
        <time>2021-12-23T09:48:08Z</time>
      </trkpt>
      <trkpt lat="45.26599" lon="6.10955">
        <ele>1689</ele>
        <time>2021-12-23T09:48:09Z</time>
      </trkpt>
      <trkpt lat="45.26603" lon="6.10966">
        <ele>1689</ele>
        <time>2021-12-23T09:48:10Z</time>
      </trkpt>
      <trkpt lat="45.26603" lon="6.10966">
        <ele>1690</ele>
        <time>2021-12-23T09:48:12Z</time>
      </trkpt>
      <trkpt lat="45.26602" lon="6.10967">
        <ele>1690</ele>
        <time>2021-12-23T09:48:13Z</time>
      </trkpt>
      <trkpt lat="45.26601" lon="6.10968">
        <ele>1690</ele>
        <time>2021-12-23T09:48:14Z</time>
      </trkpt>
      <trkpt lat="45.26599" lon="6.10969">
        <ele>1690</ele>
        <time>2021-12-23T09:48:15Z</time>
      </trkpt>
      <trkpt lat="45.26598" lon="6.1097">
        <ele>1690</ele>
        <time>2021-12-23T09:48:16Z</time>
      </trkpt>
      <trkpt lat="45.26596" lon="6.10971">
        <ele>1690</ele>
        <time>2021-12-23T09:48:17Z</time>
      </trkpt>
      <trkpt lat="45.26595" lon="6.10972">
        <ele>1690</ele>
        <time>2021-12-23T09:48:18Z</time>
      </trkpt>
      <trkpt lat="45.26595" lon="6.10973">
        <ele>1691</ele>
        <time>2021-12-23T09:48:20Z</time>
      </trkpt>
      <trkpt lat="45.26595" lon="6.10974">
        <ele>1691</ele>
        <time>2021-12-23T09:48:21Z</time>
      </trkpt>
      <trkpt lat="45.26595" lon="6.10974">
        <ele>1691</ele>
        <time>2021-12-23T09:48:22Z</time>
      </trkpt>
      <trkpt lat="45.26596" lon="6.10975">
        <ele>1691</ele>
        <time>2021-12-23T09:48:23Z</time>
      </trkpt>
      <trkpt lat="45.26596" lon="6.10976">
        <ele>1691</ele>
        <time>2021-12-23T09:48:24Z</time>
      </trkpt>
      <trkpt lat="45.26596" lon="6.10977">
        <ele>1691</ele>
        <time>2021-12-23T09:48:25Z</time>
      </trkpt>
      <trkpt lat="45.26596" lon="6.10977">
        <ele>1692</ele>
        <time>2021-12-23T09:48:27Z</time>
      </trkpt>
      <trkpt lat="45.26596" lon="6.10978">
        <ele>1692</ele>
        <time>2021-12-23T09:48:28Z</time>
      </trkpt>
      <trkpt lat="45.26596" lon="6.10979">
        <ele>1692</ele>
        <time>2021-12-23T09:48:29Z</time>
      </trkpt>
      <trkpt lat="45.26597" lon="6.1098">
        <ele>1692</ele>
        <time>2021-12-23T09:48:30Z</time>
      </trkpt>
      <trkpt lat="45.26597" lon="6.10981">
        <ele>1692</ele>
        <time>2021-12-23T09:48:31Z</time>
      </trkpt>
      <trkpt lat="45.26597" lon="6.10981">
        <ele>1692</ele>
        <time>2021-12-23T09:48:32Z</time>
      </trkpt>
      <trkpt lat="45.26597" lon="6.10982">
        <ele>1692</ele>
        <time>2021-12-23T09:48:33Z</time>
      </trkpt>
      <trkpt lat="45.26597" lon="6.10983">
        <ele>1692</ele>
        <time>2021-12-23T09:48:34Z</time>
      </trkpt>
      <trkpt lat="45.26597" lon="6.10984">
        <ele>1693</ele>
        <time>2021-12-23T09:48:35Z</time>
      </trkpt>
      <trkpt lat="45.26598" lon="6.10984">
        <ele>1693</ele>
        <time>2021-12-23T09:48:36Z</time>
      </trkpt>
      <trkpt lat="45.26598" lon="6.10985">
        <ele>1694</ele>
        <time>2021-12-23T09:48:37Z</time>
      </trkpt>
      <trkpt lat="45.26598" lon="6.10986">
        <ele>1694</ele>
        <time>2021-12-23T09:48:38Z</time>
      </trkpt>
      <trkpt lat="45.26597" lon="6.10987">
        <ele>1694</ele>
        <time>2021-12-23T09:48:39Z</time>
      </trkpt>
      <trkpt lat="45.26597" lon="6.10988">
        <ele>1695</ele>
        <time>2021-12-23T09:48:40Z</time>
      </trkpt>
      <trkpt lat="45.26597" lon="6.10988">
        <ele>1695</ele>
        <time>2021-12-23T09:48:41Z</time>
      </trkpt>
      <trkpt lat="45.26597" lon="6.10989">
        <ele>1695</ele>
        <time>2021-12-23T09:48:42Z</time>
      </trkpt>
      <trkpt lat="45.26597" lon="6.1099">
        <ele>1695</ele>
        <time>2021-12-23T09:48:43Z</time>
      </trkpt>
      <trkpt lat="45.26597" lon="6.10991">
        <ele>1695</ele>
        <time>2021-12-23T09:48:44Z</time>
      </trkpt>
      <trkpt lat="45.26597" lon="6.10992">
        <ele>1695</ele>
        <time>2021-12-23T09:48:46Z</time>
      </trkpt>
      <trkpt lat="45.26597" lon="6.10993">
        <ele>1695</ele>
        <time>2021-12-23T09:48:47Z</time>
      </trkpt>
      <trkpt lat="45.26597" lon="6.10993">
        <ele>1695</ele>
        <time>2021-12-23T09:48:48Z</time>
      </trkpt>
      <trkpt lat="45.26596" lon="6.10994">
        <ele>1695</ele>
        <time>2021-12-23T09:48:49Z</time>
      </trkpt>
      <trkpt lat="45.26596" lon="6.10995">
        <ele>1696</ele>
        <time>2021-12-23T09:48:50Z</time>
      </trkpt>
      <trkpt lat="45.26596" lon="6.10996">
        <ele>1696</ele>
        <time>2021-12-23T09:48:51Z</time>
      </trkpt>
      <trkpt lat="45.26596" lon="6.10997">
        <ele>1696</ele>
        <time>2021-12-23T09:48:52Z</time>
      </trkpt>
      <trkpt lat="45.26596" lon="6.10998">
        <ele>1697</ele>
        <time>2021-12-23T09:48:53Z</time>
      </trkpt>
      <trkpt lat="45.26596" lon="6.10998">
        <ele>1697</ele>
        <time>2021-12-23T09:48:54Z</time>
      </trkpt>
      <trkpt lat="45.26596" lon="6.10999">
        <ele>1697</ele>
        <time>2021-12-23T09:48:55Z</time>
      </trkpt>
      <trkpt lat="45.26596" lon="6.11">
        <ele>1697</ele>
        <time>2021-12-23T09:48:56Z</time>
      </trkpt>
      <trkpt lat="45.26596" lon="6.11001">
        <ele>1697</ele>
        <time>2021-12-23T09:48:57Z</time>
      </trkpt>
      <trkpt lat="45.26596" lon="6.11002">
        <ele>1697</ele>
        <time>2021-12-23T09:48:58Z</time>
      </trkpt>
      <trkpt lat="45.26596" lon="6.11003">
        <ele>1698</ele>
        <time>2021-12-23T09:48:59Z</time>
      </trkpt>
      <trkpt lat="45.26595" lon="6.11003">
        <ele>1698</ele>
        <time>2021-12-23T09:49:00Z</time>
      </trkpt>
      <trkpt lat="45.26595" lon="6.11004">
        <ele>1698</ele>
        <time>2021-12-23T09:49:01Z</time>
      </trkpt>
      <trkpt lat="45.26595" lon="6.11005">
        <ele>1698</ele>
        <time>2021-12-23T09:49:02Z</time>
      </trkpt>
      <trkpt lat="45.26595" lon="6.11006">
        <ele>1697</ele>
        <time>2021-12-23T09:49:03Z</time>
      </trkpt>
      <trkpt lat="45.26595" lon="6.11007">
        <ele>1697</ele>
        <time>2021-12-23T09:49:05Z</time>
      </trkpt>
      <trkpt lat="45.26595" lon="6.11008">
        <ele>1697</ele>
        <time>2021-12-23T09:49:07Z</time>
      </trkpt>
      <trkpt lat="45.26595" lon="6.11009">
        <ele>1697</ele>
        <time>2021-12-23T09:49:08Z</time>
      </trkpt>
      <trkpt lat="45.26595" lon="6.11009">
        <ele>1697</ele>
        <time>2021-12-23T09:49:09Z</time>
      </trkpt>
      <trkpt lat="45.26595" lon="6.1101">
        <ele>1697</ele>
        <time>2021-12-23T09:49:10Z</time>
      </trkpt>
      <trkpt lat="45.26595" lon="6.11011">
        <ele>1698</ele>
        <time>2021-12-23T09:49:11Z</time>
      </trkpt>
      <trkpt lat="45.26595" lon="6.11011">
        <ele>1698</ele>
        <time>2021-12-23T09:49:12Z</time>
      </trkpt>
      <trkpt lat="45.26595" lon="6.11012">
        <ele>1698</ele>
        <time>2021-12-23T09:49:13Z</time>
      </trkpt>
      <trkpt lat="45.26596" lon="6.11012">
        <ele>1698</ele>
        <time>2021-12-23T09:49:14Z</time>
      </trkpt>
      <trkpt lat="45.26596" lon="6.11012">
        <ele>1698</ele>
        <time>2021-12-23T09:49:15Z</time>
      </trkpt>
      <trkpt lat="45.26597" lon="6.11013">
        <ele>1698</ele>
        <time>2021-12-23T09:49:16Z</time>
      </trkpt>
      <trkpt lat="45.26597" lon="6.11013">
        <ele>1698</ele>
        <time>2021-12-23T09:49:17Z</time>
      </trkpt>
      <trkpt lat="45.26597" lon="6.11013">
        <ele>1698</ele>
        <time>2021-12-23T09:49:18Z</time>
      </trkpt>
      <trkpt lat="45.26598" lon="6.11013">
        <ele>1698</ele>
        <time>2021-12-23T09:49:19Z</time>
      </trkpt>
      <trkpt lat="45.26598" lon="6.11014">
        <ele>1699</ele>
        <time>2021-12-23T09:49:21Z</time>
      </trkpt>
      <trkpt lat="45.26598" lon="6.11014">
        <ele>1699</ele>
        <time>2021-12-23T09:49:22Z</time>
      </trkpt>
      <trkpt lat="45.26599" lon="6.11014">
        <ele>1699</ele>
        <time>2021-12-23T09:49:24Z</time>
      </trkpt>
      <trkpt lat="45.26599" lon="6.11015">
        <ele>1699</ele>
        <time>2021-12-23T09:49:25Z</time>
      </trkpt>
      <trkpt lat="45.26599" lon="6.11015">
        <ele>1699</ele>
        <time>2021-12-23T09:49:26Z</time>
      </trkpt>
      <trkpt lat="45.266" lon="6.11015">
        <ele>1699</ele>
        <time>2021-12-23T09:49:27Z</time>
      </trkpt>
      <trkpt lat="45.266" lon="6.11016">
        <ele>1699</ele>
        <time>2021-12-23T09:49:28Z</time>
      </trkpt>
      <trkpt lat="45.266" lon="6.11016">
        <ele>1699</ele>
        <time>2021-12-23T09:49:29Z</time>
      </trkpt>
      <trkpt lat="45.26601" lon="6.11016">
        <ele>1699</ele>
        <time>2021-12-23T09:49:30Z</time>
      </trkpt>
      <trkpt lat="45.26601" lon="6.11016">
        <ele>1700</ele>
        <time>2021-12-23T09:49:31Z</time>
      </trkpt>
      <trkpt lat="45.26601" lon="6.11017">
        <ele>1700</ele>
        <time>2021-12-23T09:49:32Z</time>
      </trkpt>
      <trkpt lat="45.26602" lon="6.11017">
        <ele>1701</ele>
        <time>2021-12-23T09:49:33Z</time>
      </trkpt>
      <trkpt lat="45.26602" lon="6.11017">
        <ele>1701</ele>
        <time>2021-12-23T09:49:34Z</time>
      </trkpt>
      <trkpt lat="45.26602" lon="6.11018">
        <ele>1701</ele>
        <time>2021-12-23T09:49:35Z</time>
      </trkpt>
      <trkpt lat="45.26602" lon="6.11018">
        <ele>1701</ele>
        <time>2021-12-23T09:49:36Z</time>
      </trkpt>
      <trkpt lat="45.26602" lon="6.11018">
        <ele>1701</ele>
        <time>2021-12-23T09:49:37Z</time>
      </trkpt>
      <trkpt lat="45.26602" lon="6.11019">
        <ele>1701</ele>
        <time>2021-12-23T09:49:38Z</time>
      </trkpt>
      <trkpt lat="45.26602" lon="6.11019">
        <ele>1702</ele>
        <time>2021-12-23T09:49:39Z</time>
      </trkpt>
      <trkpt lat="45.26601" lon="6.11019">
        <ele>1702</ele>
        <time>2021-12-23T09:49:40Z</time>
      </trkpt>
      <trkpt lat="45.26601" lon="6.1102">
        <ele>1702</ele>
        <time>2021-12-23T09:49:41Z</time>
      </trkpt>
      <trkpt lat="45.26601" lon="6.1102">
        <ele>1703</ele>
        <time>2021-12-23T09:49:43Z</time>
      </trkpt>
      <trkpt lat="45.26601" lon="6.1102">
        <ele>1703</ele>
        <time>2021-12-23T09:49:44Z</time>
      </trkpt>
      <trkpt lat="45.266" lon="6.11021">
        <ele>1703</ele>
        <time>2021-12-23T09:49:45Z</time>
      </trkpt>
      <trkpt lat="45.266" lon="6.11021">
        <ele>1703</ele>
        <time>2021-12-23T09:49:46Z</time>
      </trkpt>
      <trkpt lat="45.266" lon="6.11021">
        <ele>1703</ele>
        <time>2021-12-23T09:49:47Z</time>
      </trkpt>
      <trkpt lat="45.266" lon="6.11021">
        <ele>1703</ele>
        <time>2021-12-23T09:49:48Z</time>
      </trkpt>
      <trkpt lat="45.266" lon="6.11022">
        <ele>1704</ele>
        <time>2021-12-23T09:49:49Z</time>
      </trkpt>
      <trkpt lat="45.26599" lon="6.11022">
        <ele>1704</ele>
        <time>2021-12-23T09:49:50Z</time>
      </trkpt>
      <trkpt lat="45.26599" lon="6.11022">
        <ele>1704</ele>
        <time>2021-12-23T09:49:51Z</time>
      </trkpt>
      <trkpt lat="45.26599" lon="6.11023">
        <ele>1704</ele>
        <time>2021-12-23T09:49:52Z</time>
      </trkpt>
      <trkpt lat="45.26599" lon="6.11023">
        <ele>1704</ele>
        <time>2021-12-23T09:49:53Z</time>
      </trkpt>
      <trkpt lat="45.26598" lon="6.11023">
        <ele>1704</ele>
        <time>2021-12-23T09:49:54Z</time>
      </trkpt>
      <trkpt lat="45.26598" lon="6.11024">
        <ele>1704</ele>
        <time>2021-12-23T09:49:55Z</time>
      </trkpt>
      <trkpt lat="45.26598" lon="6.11024">
        <ele>1705</ele>
        <time>2021-12-23T09:49:56Z</time>
      </trkpt>
      <trkpt lat="45.26598" lon="6.11024">
        <ele>1705</ele>
        <time>2021-12-23T09:49:57Z</time>
      </trkpt>
      <trkpt lat="45.26598" lon="6.11025">
        <ele>1705</ele>
        <time>2021-12-23T09:49:58Z</time>
      </trkpt>
      <trkpt lat="45.26597" lon="6.11025">
        <ele>1705</ele>
        <time>2021-12-23T09:49:59Z</time>
      </trkpt>
      <trkpt lat="45.26597" lon="6.11025">
        <ele>1705</ele>
        <time>2021-12-23T09:50:00Z</time>
      </trkpt>
      <trkpt lat="45.26597" lon="6.11026">
        <ele>1706</ele>
        <time>2021-12-23T09:50:02Z</time>
      </trkpt>
      <trkpt lat="45.26597" lon="6.11026">
        <ele>1706</ele>
        <time>2021-12-23T09:50:03Z</time>
      </trkpt>
      <trkpt lat="45.26596" lon="6.11027">
        <ele>1706</ele>
        <time>2021-12-23T09:50:04Z</time>
      </trkpt>
      <trkpt lat="45.26596" lon="6.11027">
        <ele>1707</ele>
        <time>2021-12-23T09:50:05Z</time>
      </trkpt>
      <trkpt lat="45.26595" lon="6.11028">
        <ele>1707</ele>
        <time>2021-12-23T09:50:06Z</time>
      </trkpt>
      <trkpt lat="45.26595" lon="6.11028">
        <ele>1707</ele>
        <time>2021-12-23T09:50:07Z</time>
      </trkpt>
      <trkpt lat="45.26594" lon="6.11029">
        <ele>1707</ele>
        <time>2021-12-23T09:50:08Z</time>
      </trkpt>
      <trkpt lat="45.26594" lon="6.1103">
        <ele>1707</ele>
        <time>2021-12-23T09:50:09Z</time>
      </trkpt>
      <trkpt lat="45.26593" lon="6.1103">
        <ele>1707</ele>
        <time>2021-12-23T09:50:10Z</time>
      </trkpt>
      <trkpt lat="45.26593" lon="6.11031">
        <ele>1708</ele>
        <time>2021-12-23T09:50:11Z</time>
      </trkpt>
      <trkpt lat="45.26592" lon="6.11031">
        <ele>1708</ele>
        <time>2021-12-23T09:50:12Z</time>
      </trkpt>
      <trkpt lat="45.26592" lon="6.11032">
        <ele>1708</ele>
        <time>2021-12-23T09:50:13Z</time>
      </trkpt>
      <trkpt lat="45.26591" lon="6.11033">
        <ele>1708</ele>
        <time>2021-12-23T09:50:14Z</time>
      </trkpt>
      <trkpt lat="45.26591" lon="6.11033">
        <ele>1708</ele>
        <time>2021-12-23T09:50:15Z</time>
      </trkpt>
      <trkpt lat="45.2659" lon="6.11034">
        <ele>1708</ele>
        <time>2021-12-23T09:50:16Z</time>
      </trkpt>
      <trkpt lat="45.2659" lon="6.11034">
        <ele>1708</ele>
        <time>2021-12-23T09:50:17Z</time>
      </trkpt>
      <trkpt lat="45.26589" lon="6.11035">
        <ele>1708</ele>
        <time>2021-12-23T09:50:18Z</time>
      </trkpt>
      <trkpt lat="45.26589" lon="6.11036">
        <ele>1708</ele>
        <time>2021-12-23T09:50:19Z</time>
      </trkpt>
      <trkpt lat="45.26589" lon="6.11036">
        <ele>1708</ele>
        <time>2021-12-23T09:50:21Z</time>
      </trkpt>
      <trkpt lat="45.26589" lon="6.11037">
        <ele>1708</ele>
        <time>2021-12-23T09:50:22Z</time>
      </trkpt>
      <trkpt lat="45.26589" lon="6.11038">
        <ele>1709</ele>
        <time>2021-12-23T09:50:23Z</time>
      </trkpt>
      <trkpt lat="45.26589" lon="6.11038">
        <ele>1709</ele>
        <time>2021-12-23T09:50:24Z</time>
      </trkpt>
      <trkpt lat="45.2659" lon="6.11039">
        <ele>1709</ele>
        <time>2021-12-23T09:50:25Z</time>
      </trkpt>
      <trkpt lat="45.2659" lon="6.1104">
        <ele>1709</ele>
        <time>2021-12-23T09:50:26Z</time>
      </trkpt>
      <trkpt lat="45.2659" lon="6.11041">
        <ele>1709</ele>
        <time>2021-12-23T09:50:27Z</time>
      </trkpt>
      <trkpt lat="45.2659" lon="6.11041">
        <ele>1709</ele>
        <time>2021-12-23T09:50:28Z</time>
      </trkpt>
      <trkpt lat="45.2659" lon="6.11042">
        <ele>1709</ele>
        <time>2021-12-23T09:50:29Z</time>
      </trkpt>
      <trkpt lat="45.2659" lon="6.11043">
        <ele>1709</ele>
        <time>2021-12-23T09:50:30Z</time>
      </trkpt>
      <trkpt lat="45.2659" lon="6.11043">
        <ele>1710</ele>
        <time>2021-12-23T09:50:31Z</time>
      </trkpt>
      <trkpt lat="45.26591" lon="6.11044">
        <ele>1710</ele>
        <time>2021-12-23T09:50:32Z</time>
      </trkpt>
      <trkpt lat="45.26591" lon="6.11045">
        <ele>1710</ele>
        <time>2021-12-23T09:50:33Z</time>
      </trkpt>
      <trkpt lat="45.26591" lon="6.11046">
        <ele>1710</ele>
        <time>2021-12-23T09:50:34Z</time>
      </trkpt>
      <trkpt lat="45.26591" lon="6.11046">
        <ele>1710</ele>
        <time>2021-12-23T09:50:35Z</time>
      </trkpt>
      <trkpt lat="45.26591" lon="6.11047">
        <ele>1711</ele>
        <time>2021-12-23T09:50:36Z</time>
      </trkpt>
      <trkpt lat="45.26591" lon="6.11048">
        <ele>1711</ele>
        <time>2021-12-23T09:50:37Z</time>
      </trkpt>
      <trkpt lat="45.26592" lon="6.11049">
        <ele>1711</ele>
        <time>2021-12-23T09:50:38Z</time>
      </trkpt>
      <trkpt lat="45.26592" lon="6.11049">
        <ele>1710</ele>
        <time>2021-12-23T09:50:40Z</time>
      </trkpt>
      <trkpt lat="45.26592" lon="6.1105">
        <ele>1711</ele>
        <time>2021-12-23T09:50:41Z</time>
      </trkpt>
      <trkpt lat="45.26591" lon="6.11051">
        <ele>1711</ele>
        <time>2021-12-23T09:50:42Z</time>
      </trkpt>
      <trkpt lat="45.26591" lon="6.11051">
        <ele>1712</ele>
        <time>2021-12-23T09:50:43Z</time>
      </trkpt>
      <trkpt lat="45.26591" lon="6.11052">
        <ele>1712</ele>
        <time>2021-12-23T09:50:44Z</time>
      </trkpt>
      <trkpt lat="45.2659" lon="6.11052">
        <ele>1712</ele>
        <time>2021-12-23T09:50:45Z</time>
      </trkpt>
      <trkpt lat="45.2659" lon="6.11053">
        <ele>1712</ele>
        <time>2021-12-23T09:50:46Z</time>
      </trkpt>
      <trkpt lat="45.26589" lon="6.11054">
        <ele>1712</ele>
        <time>2021-12-23T09:50:47Z</time>
      </trkpt>
      <trkpt lat="45.26589" lon="6.11054">
        <ele>1712</ele>
        <time>2021-12-23T09:50:48Z</time>
      </trkpt>
      <trkpt lat="45.26588" lon="6.11055">
        <ele>1712</ele>
        <time>2021-12-23T09:50:49Z</time>
      </trkpt>
      <trkpt lat="45.26588" lon="6.11055">
        <ele>1712</ele>
        <time>2021-12-23T09:50:50Z</time>
      </trkpt>
      <trkpt lat="45.26588" lon="6.11056">
        <ele>1713</ele>
        <time>2021-12-23T09:50:51Z</time>
      </trkpt>
      <trkpt lat="45.26587" lon="6.11057">
        <ele>1713</ele>
        <time>2021-12-23T09:50:52Z</time>
      </trkpt>
      <trkpt lat="45.26587" lon="6.11057">
        <ele>1713</ele>
        <time>2021-12-23T09:50:53Z</time>
      </trkpt>
      <trkpt lat="45.26586" lon="6.11058">
        <ele>1713</ele>
        <time>2021-12-23T09:50:54Z</time>
      </trkpt>
      <trkpt lat="45.26586" lon="6.11058">
        <ele>1713</ele>
        <time>2021-12-23T09:50:55Z</time>
      </trkpt>
      <trkpt lat="45.26586" lon="6.11059">
        <ele>1713</ele>
        <time>2021-12-23T09:50:56Z</time>
      </trkpt>
      <trkpt lat="45.26585" lon="6.1106">
        <ele>1713</ele>
        <time>2021-12-23T09:50:57Z</time>
      </trkpt>
      <trkpt lat="45.26585" lon="6.1106">
        <ele>1713</ele>
        <time>2021-12-23T09:50:59Z</time>
      </trkpt>
      <trkpt lat="45.26585" lon="6.1106">
        <ele>1713</ele>
        <time>2021-12-23T09:51:00Z</time>
      </trkpt>
      <trkpt lat="45.26585" lon="6.1106">
        <ele>1713</ele>
        <time>2021-12-23T09:51:01Z</time>
      </trkpt>
      <trkpt lat="45.26585" lon="6.1106">
        <ele>1713</ele>
        <time>2021-12-23T09:51:02Z</time>
      </trkpt>
      <trkpt lat="45.26585" lon="6.1106">
        <ele>1714</ele>
        <time>2021-12-23T09:51:03Z</time>
      </trkpt>
      <trkpt lat="45.26585" lon="6.1106">
        <ele>1714</ele>
        <time>2021-12-23T09:51:04Z</time>
      </trkpt>
      <trkpt lat="45.26585" lon="6.1106">
        <ele>1714</ele>
        <time>2021-12-23T09:51:05Z</time>
      </trkpt>
      <trkpt lat="45.26585" lon="6.1106">
        <ele>1714</ele>
        <time>2021-12-23T09:51:06Z</time>
      </trkpt>
      <trkpt lat="45.26585" lon="6.1106">
        <ele>1715</ele>
        <time>2021-12-23T09:51:07Z</time>
      </trkpt>
      <trkpt lat="45.26585" lon="6.1106">
        <ele>1715</ele>
        <time>2021-12-23T09:51:08Z</time>
      </trkpt>
      <trkpt lat="45.26585" lon="6.1106">
        <ele>1715</ele>
        <time>2021-12-23T09:51:09Z</time>
      </trkpt>
      <trkpt lat="45.26585" lon="6.1106">
        <ele>1715</ele>
        <time>2021-12-23T09:51:10Z</time>
      </trkpt>
      <trkpt lat="45.26585" lon="6.1106">
        <ele>1716</ele>
        <time>2021-12-23T09:51:11Z</time>
      </trkpt>
      <trkpt lat="45.26585" lon="6.1106">
        <ele>1716</ele>
        <time>2021-12-23T09:51:12Z</time>
      </trkpt>
      <trkpt lat="45.26585" lon="6.1106">
        <ele>1716</ele>
        <time>2021-12-23T09:51:13Z</time>
      </trkpt>
      <trkpt lat="45.26585" lon="6.1106">
        <ele>1716</ele>
        <time>2021-12-23T09:51:14Z</time>
      </trkpt>
      <trkpt lat="45.26576" lon="6.11068">
        <ele>1716</ele>
        <time>2021-12-23T09:51:15Z</time>
      </trkpt>
      <trkpt lat="45.26576" lon="6.11068">
        <ele>1716</ele>
        <time>2021-12-23T09:51:17Z</time>
      </trkpt>
      <trkpt lat="45.26576" lon="6.11069">
        <ele>1716</ele>
        <time>2021-12-23T09:51:18Z</time>
      </trkpt>
      <trkpt lat="45.26575" lon="6.11069">
        <ele>1716</ele>
        <time>2021-12-23T09:51:19Z</time>
      </trkpt>
      <trkpt lat="45.26575" lon="6.1107">
        <ele>1716</ele>
        <time>2021-12-23T09:51:20Z</time>
      </trkpt>
      <trkpt lat="45.26575" lon="6.11071">
        <ele>1717</ele>
        <time>2021-12-23T09:51:21Z</time>
      </trkpt>
      <trkpt lat="45.26575" lon="6.11071">
        <ele>1717</ele>
        <time>2021-12-23T09:51:22Z</time>
      </trkpt>
      <trkpt lat="45.26575" lon="6.11072">
        <ele>1717</ele>
        <time>2021-12-23T09:51:23Z</time>
      </trkpt>
      <trkpt lat="45.26575" lon="6.11072">
        <ele>1717</ele>
        <time>2021-12-23T09:51:24Z</time>
      </trkpt>
      <trkpt lat="45.26575" lon="6.11073">
        <ele>1717</ele>
        <time>2021-12-23T09:51:25Z</time>
      </trkpt>
      <trkpt lat="45.26575" lon="6.11074">
        <ele>1718</ele>
        <time>2021-12-23T09:51:26Z</time>
      </trkpt>
      <trkpt lat="45.26575" lon="6.11074">
        <ele>1718</ele>
        <time>2021-12-23T09:51:27Z</time>
      </trkpt>
      <trkpt lat="45.26575" lon="6.11075">
        <ele>1718</ele>
        <time>2021-12-23T09:51:28Z</time>
      </trkpt>
      <trkpt lat="45.26574" lon="6.11075">
        <ele>1718</ele>
        <time>2021-12-23T09:51:29Z</time>
      </trkpt>
      <trkpt lat="45.26574" lon="6.11076">
        <ele>1718</ele>
        <time>2021-12-23T09:51:30Z</time>
      </trkpt>
      <trkpt lat="45.26574" lon="6.11076">
        <ele>1718</ele>
        <time>2021-12-23T09:51:31Z</time>
      </trkpt>
      <trkpt lat="45.26574" lon="6.11077">
        <ele>1718</ele>
        <time>2021-12-23T09:51:32Z</time>
      </trkpt>
      <trkpt lat="45.26574" lon="6.11078">
        <ele>1718</ele>
        <time>2021-12-23T09:51:33Z</time>
      </trkpt>
      <trkpt lat="45.26574" lon="6.11078">
        <ele>1719</ele>
        <time>2021-12-23T09:51:34Z</time>
      </trkpt>
      <trkpt lat="45.26574" lon="6.11079">
        <ele>1719</ele>
        <time>2021-12-23T09:51:35Z</time>
      </trkpt>
      <trkpt lat="45.26574" lon="6.11079">
        <ele>1720</ele>
        <time>2021-12-23T09:51:37Z</time>
      </trkpt>
      <trkpt lat="45.26574" lon="6.1108">
        <ele>1720</ele>
        <time>2021-12-23T09:51:38Z</time>
      </trkpt>
      <trkpt lat="45.26574" lon="6.11081">
        <ele>1720</ele>
        <time>2021-12-23T09:51:39Z</time>
      </trkpt>
      <trkpt lat="45.26574" lon="6.11081">
        <ele>1720</ele>
        <time>2021-12-23T09:51:40Z</time>
      </trkpt>
      <trkpt lat="45.26573" lon="6.11082">
        <ele>1720</ele>
        <time>2021-12-23T09:51:41Z</time>
      </trkpt>
      <trkpt lat="45.26572" lon="6.11083">
        <ele>1721</ele>
        <time>2021-12-23T09:51:42Z</time>
      </trkpt>
      <trkpt lat="45.26572" lon="6.11084">
        <ele>1721</ele>
        <time>2021-12-23T09:51:43Z</time>
      </trkpt>
      <trkpt lat="45.26571" lon="6.11085">
        <ele>1721</ele>
        <time>2021-12-23T09:51:44Z</time>
      </trkpt>
      <trkpt lat="45.2657" lon="6.11086">
        <ele>1721</ele>
        <time>2021-12-23T09:51:45Z</time>
      </trkpt>
      <trkpt lat="45.2657" lon="6.11087">
        <ele>1721</ele>
        <time>2021-12-23T09:51:46Z</time>
      </trkpt>
      <trkpt lat="45.26569" lon="6.11089">
        <ele>1721</ele>
        <time>2021-12-23T09:51:47Z</time>
      </trkpt>
      <trkpt lat="45.26568" lon="6.1109">
        <ele>1721</ele>
        <time>2021-12-23T09:51:48Z</time>
      </trkpt>
      <trkpt lat="45.26568" lon="6.11091">
        <ele>1721</ele>
        <time>2021-12-23T09:51:49Z</time>
      </trkpt>
      <trkpt lat="45.26567" lon="6.11092">
        <ele>1722</ele>
        <time>2021-12-23T09:51:50Z</time>
      </trkpt>
      <trkpt lat="45.26567" lon="6.11093">
        <ele>1722</ele>
        <time>2021-12-23T09:51:51Z</time>
      </trkpt>
      <trkpt lat="45.26567" lon="6.11094">
        <ele>1722</ele>
        <time>2021-12-23T09:51:52Z</time>
      </trkpt>
      <trkpt lat="45.26567" lon="6.11095">
        <ele>1722</ele>
        <time>2021-12-23T09:51:53Z</time>
      </trkpt>
      <trkpt lat="45.26566" lon="6.11096">
        <ele>1723</ele>
        <time>2021-12-23T09:51:54Z</time>
      </trkpt>
      <trkpt lat="45.26566" lon="6.11097">
        <ele>1723</ele>
        <time>2021-12-23T09:51:56Z</time>
      </trkpt>
      <trkpt lat="45.26566" lon="6.11098">
        <ele>1723</ele>
        <time>2021-12-23T09:51:57Z</time>
      </trkpt>
      <trkpt lat="45.26566" lon="6.11099">
        <ele>1723</ele>
        <time>2021-12-23T09:51:58Z</time>
      </trkpt>
      <trkpt lat="45.26566" lon="6.111">
        <ele>1722</ele>
        <time>2021-12-23T09:51:59Z</time>
      </trkpt>
      <trkpt lat="45.26565" lon="6.11101">
        <ele>1722</ele>
        <time>2021-12-23T09:52:00Z</time>
      </trkpt>
      <trkpt lat="45.26565" lon="6.11102">
        <ele>1722</ele>
        <time>2021-12-23T09:52:01Z</time>
      </trkpt>
      <trkpt lat="45.26565" lon="6.11103">
        <ele>1722</ele>
        <time>2021-12-23T09:52:02Z</time>
      </trkpt>
      <trkpt lat="45.26565" lon="6.11104">
        <ele>1723</ele>
        <time>2021-12-23T09:52:03Z</time>
      </trkpt>
      <trkpt lat="45.26564" lon="6.11105">
        <ele>1723</ele>
        <time>2021-12-23T09:52:04Z</time>
      </trkpt>
      <trkpt lat="45.26564" lon="6.11106">
        <ele>1723</ele>
        <time>2021-12-23T09:52:05Z</time>
      </trkpt>
      <trkpt lat="45.26563" lon="6.11107">
        <ele>1722</ele>
        <time>2021-12-23T09:52:06Z</time>
      </trkpt>
      <trkpt lat="45.26562" lon="6.11108">
        <ele>1723</ele>
        <time>2021-12-23T09:52:07Z</time>
      </trkpt>
      <trkpt lat="45.26562" lon="6.11109">
        <ele>1723</ele>
        <time>2021-12-23T09:52:08Z</time>
      </trkpt>
      <trkpt lat="45.26561" lon="6.1111">
        <ele>1723</ele>
        <time>2021-12-23T09:52:09Z</time>
      </trkpt>
      <trkpt lat="45.26561" lon="6.11111">
        <ele>1723</ele>
        <time>2021-12-23T09:52:10Z</time>
      </trkpt>
      <trkpt lat="45.2656" lon="6.11112">
        <ele>1723</ele>
        <time>2021-12-23T09:52:11Z</time>
      </trkpt>
      <trkpt lat="45.26559" lon="6.11113">
        <ele>1723</ele>
        <time>2021-12-23T09:52:12Z</time>
      </trkpt>
      <trkpt lat="45.26559" lon="6.11114">
        <ele>1723</ele>
        <time>2021-12-23T09:52:13Z</time>
      </trkpt>
      <trkpt lat="45.26559" lon="6.11114">
        <ele>1723</ele>
        <time>2021-12-23T09:52:15Z</time>
      </trkpt>
      <trkpt lat="45.26559" lon="6.11114">
        <ele>1723</ele>
        <time>2021-12-23T09:52:16Z</time>
      </trkpt>
      <trkpt lat="45.26559" lon="6.11114">
        <ele>1723</ele>
        <time>2021-12-23T09:52:17Z</time>
      </trkpt>
      <trkpt lat="45.26559" lon="6.11114">
        <ele>1723</ele>
        <time>2021-12-23T09:52:18Z</time>
      </trkpt>
      <trkpt lat="45.26559" lon="6.11114">
        <ele>1724</ele>
        <time>2021-12-23T09:52:19Z</time>
      </trkpt>
      <trkpt lat="45.26559" lon="6.11114">
        <ele>1724</ele>
        <time>2021-12-23T09:52:20Z</time>
      </trkpt>
      <trkpt lat="45.26559" lon="6.11114">
        <ele>1724</ele>
        <time>2021-12-23T09:52:21Z</time>
      </trkpt>
      <trkpt lat="45.26559" lon="6.11114">
        <ele>1724</ele>
        <time>2021-12-23T09:52:22Z</time>
      </trkpt>
      <trkpt lat="45.26559" lon="6.11114">
        <ele>1724</ele>
        <time>2021-12-23T09:52:23Z</time>
      </trkpt>
      <trkpt lat="45.26559" lon="6.11114">
        <ele>1725</ele>
        <time>2021-12-23T09:52:24Z</time>
      </trkpt>
      <trkpt lat="45.26559" lon="6.11114">
        <ele>1725</ele>
        <time>2021-12-23T09:52:25Z</time>
      </trkpt>
      <trkpt lat="45.26559" lon="6.11114">
        <ele>1725</ele>
        <time>2021-12-23T09:52:26Z</time>
      </trkpt>
      <trkpt lat="45.26559" lon="6.11114">
        <ele>1725</ele>
        <time>2021-12-23T09:52:27Z</time>
      </trkpt>
      <trkpt lat="45.26559" lon="6.11114">
        <ele>1726</ele>
        <time>2021-12-23T09:52:28Z</time>
      </trkpt>
      <trkpt lat="45.26559" lon="6.11114">
        <ele>1726</ele>
        <time>2021-12-23T09:52:29Z</time>
      </trkpt>
      <trkpt lat="45.26559" lon="6.11114">
        <ele>1726</ele>
        <time>2021-12-23T09:52:30Z</time>
      </trkpt>
      <trkpt lat="45.26554" lon="6.11126">
        <ele>1726</ele>
        <time>2021-12-23T09:52:31Z</time>
      </trkpt>
      <trkpt lat="45.26554" lon="6.11126">
        <ele>1726</ele>
        <time>2021-12-23T09:52:33Z</time>
      </trkpt>
      <trkpt lat="45.26554" lon="6.11126">
        <ele>1726</ele>
        <time>2021-12-23T09:52:34Z</time>
      </trkpt>
      <trkpt lat="45.26553" lon="6.11126">
        <ele>1726</ele>
        <time>2021-12-23T09:52:35Z</time>
      </trkpt>
      <trkpt lat="45.26553" lon="6.11127">
        <ele>1726</ele>
        <time>2021-12-23T09:52:36Z</time>
      </trkpt>
      <trkpt lat="45.26553" lon="6.11127">
        <ele>1726</ele>
        <time>2021-12-23T09:52:37Z</time>
      </trkpt>
      <trkpt lat="45.26552" lon="6.11127">
        <ele>1727</ele>
        <time>2021-12-23T09:52:38Z</time>
      </trkpt>
      <trkpt lat="45.26552" lon="6.11127">
        <ele>1727</ele>
        <time>2021-12-23T09:52:39Z</time>
      </trkpt>
      <trkpt lat="45.26551" lon="6.11127">
        <ele>1727</ele>
        <time>2021-12-23T09:52:40Z</time>
      </trkpt>
      <trkpt lat="45.26551" lon="6.11128">
        <ele>1728</ele>
        <time>2021-12-23T09:52:41Z</time>
      </trkpt>
      <trkpt lat="45.2655" lon="6.11128">
        <ele>1728</ele>
        <time>2021-12-23T09:52:42Z</time>
      </trkpt>
      <trkpt lat="45.2655" lon="6.11128">
        <ele>1728</ele>
        <time>2021-12-23T09:52:43Z</time>
      </trkpt>
      <trkpt lat="45.26549" lon="6.11128">
        <ele>1728</ele>
        <time>2021-12-23T09:52:44Z</time>
      </trkpt>
      <trkpt lat="45.26549" lon="6.11128">
        <ele>1728</ele>
        <time>2021-12-23T09:52:45Z</time>
      </trkpt>
      <trkpt lat="45.26548" lon="6.11129">
        <ele>1728</ele>
        <time>2021-12-23T09:52:46Z</time>
      </trkpt>
      <trkpt lat="45.26548" lon="6.11129">
        <ele>1728</ele>
        <time>2021-12-23T09:52:47Z</time>
      </trkpt>
      <trkpt lat="45.26548" lon="6.11129">
        <ele>1728</ele>
        <time>2021-12-23T09:52:48Z</time>
      </trkpt>
      <trkpt lat="45.26547" lon="6.11129">
        <ele>1728</ele>
        <time>2021-12-23T09:52:49Z</time>
      </trkpt>
      <trkpt lat="45.26547" lon="6.1113">
        <ele>1729</ele>
        <time>2021-12-23T09:52:50Z</time>
      </trkpt>
      <trkpt lat="45.26546" lon="6.1113">
        <ele>1730</ele>
        <time>2021-12-23T09:52:51Z</time>
      </trkpt>
      <trkpt lat="45.26546" lon="6.1113">
        <ele>1730</ele>
        <time>2021-12-23T09:52:53Z</time>
      </trkpt>
      <trkpt lat="45.26545" lon="6.1113">
        <ele>1730</ele>
        <time>2021-12-23T09:52:54Z</time>
      </trkpt>
      <trkpt lat="45.26545" lon="6.1113">
        <ele>1730</ele>
        <time>2021-12-23T09:52:55Z</time>
      </trkpt>
      <trkpt lat="45.26544" lon="6.11131">
        <ele>1729</ele>
        <time>2021-12-23T09:52:56Z</time>
      </trkpt>
      <trkpt lat="45.26544" lon="6.11131">
        <ele>1730</ele>
        <time>2021-12-23T09:52:57Z</time>
      </trkpt>
      <trkpt lat="45.26543" lon="6.11132">
        <ele>1730</ele>
        <time>2021-12-23T09:52:58Z</time>
      </trkpt>
      <trkpt lat="45.26543" lon="6.11133">
        <ele>1730</ele>
        <time>2021-12-23T09:52:59Z</time>
      </trkpt>
      <trkpt lat="45.26542" lon="6.11134">
        <ele>1730</ele>
        <time>2021-12-23T09:53:00Z</time>
      </trkpt>
      <trkpt lat="45.26541" lon="6.11135">
        <ele>1731</ele>
        <time>2021-12-23T09:53:01Z</time>
      </trkpt>
      <trkpt lat="45.26541" lon="6.11136">
        <ele>1731</ele>
        <time>2021-12-23T09:53:02Z</time>
      </trkpt>
      <trkpt lat="45.2654" lon="6.11137">
        <ele>1731</ele>
        <time>2021-12-23T09:53:03Z</time>
      </trkpt>
      <trkpt lat="45.2654" lon="6.11137">
        <ele>1731</ele>
        <time>2021-12-23T09:53:04Z</time>
      </trkpt>
      <trkpt lat="45.26539" lon="6.11138">
        <ele>1732</ele>
        <time>2021-12-23T09:53:05Z</time>
      </trkpt>
      <trkpt lat="45.26538" lon="6.11139">
        <ele>1732</ele>
        <time>2021-12-23T09:53:06Z</time>
      </trkpt>
      <trkpt lat="45.26538" lon="6.1114">
        <ele>1732</ele>
        <time>2021-12-23T09:53:07Z</time>
      </trkpt>
      <trkpt lat="45.26537" lon="6.1114">
        <ele>1732</ele>
        <time>2021-12-23T09:53:08Z</time>
      </trkpt>
      <trkpt lat="45.26537" lon="6.11141">
        <ele>1732</ele>
        <time>2021-12-23T09:53:09Z</time>
      </trkpt>
      <trkpt lat="45.26537" lon="6.11141">
        <ele>1733</ele>
        <time>2021-12-23T09:53:10Z</time>
      </trkpt>
      <trkpt lat="45.26536" lon="6.11141">
        <ele>1733</ele>
        <time>2021-12-23T09:53:12Z</time>
      </trkpt>
      <trkpt lat="45.26536" lon="6.11142">
        <ele>1733</ele>
        <time>2021-12-23T09:53:13Z</time>
      </trkpt>
      <trkpt lat="45.26536" lon="6.11142">
        <ele>1733</ele>
        <time>2021-12-23T09:53:14Z</time>
      </trkpt>
      <trkpt lat="45.26535" lon="6.11142">
        <ele>1733</ele>
        <time>2021-12-23T09:53:15Z</time>
      </trkpt>
      <trkpt lat="45.26535" lon="6.11143">
        <ele>1733</ele>
        <time>2021-12-23T09:53:16Z</time>
      </trkpt>
      <trkpt lat="45.26535" lon="6.11143">
        <ele>1733</ele>
        <time>2021-12-23T09:53:17Z</time>
      </trkpt>
      <trkpt lat="45.26534" lon="6.11143">
        <ele>1732</ele>
        <time>2021-12-23T09:53:18Z</time>
      </trkpt>
      <trkpt lat="45.26534" lon="6.11143">
        <ele>1732</ele>
        <time>2021-12-23T09:53:19Z</time>
      </trkpt>
      <trkpt lat="45.26534" lon="6.11144">
        <ele>1732</ele>
        <time>2021-12-23T09:53:20Z</time>
      </trkpt>
      <trkpt lat="45.26533" lon="6.11144">
        <ele>1733</ele>
        <time>2021-12-23T09:53:21Z</time>
      </trkpt>
      <trkpt lat="45.26533" lon="6.11144">
        <ele>1733</ele>
        <time>2021-12-23T09:53:22Z</time>
      </trkpt>
      <trkpt lat="45.26533" lon="6.11145">
        <ele>1733</ele>
        <time>2021-12-23T09:53:23Z</time>
      </trkpt>
      <trkpt lat="45.26532" lon="6.11145">
        <ele>1734</ele>
        <time>2021-12-23T09:53:24Z</time>
      </trkpt>
      <trkpt lat="45.26532" lon="6.11145">
        <ele>1734</ele>
        <time>2021-12-23T09:53:25Z</time>
      </trkpt>
      <trkpt lat="45.26531" lon="6.11146">
        <ele>1734</ele>
        <time>2021-12-23T09:53:26Z</time>
      </trkpt>
      <trkpt lat="45.26531" lon="6.11146">
        <ele>1735</ele>
        <time>2021-12-23T09:53:27Z</time>
      </trkpt>
      <trkpt lat="45.26531" lon="6.11146">
        <ele>1735</ele>
        <time>2021-12-23T09:53:28Z</time>
      </trkpt>
      <trkpt lat="45.2653" lon="6.11147">
        <ele>1735</ele>
        <time>2021-12-23T09:53:29Z</time>
      </trkpt>
      <trkpt lat="45.26531" lon="6.11148">
        <ele>1735</ele>
        <time>2021-12-23T09:53:31Z</time>
      </trkpt>
      <trkpt lat="45.26531" lon="6.11149">
        <ele>1735</ele>
        <time>2021-12-23T09:53:32Z</time>
      </trkpt>
      <trkpt lat="45.26531" lon="6.11151">
        <ele>1735</ele>
        <time>2021-12-23T09:53:33Z</time>
      </trkpt>
      <trkpt lat="45.26531" lon="6.11152">
        <ele>1735</ele>
        <time>2021-12-23T09:53:34Z</time>
      </trkpt>
      <trkpt lat="45.26531" lon="6.11153">
        <ele>1735</ele>
        <time>2021-12-23T09:53:35Z</time>
      </trkpt>
      <trkpt lat="45.26531" lon="6.11155">
        <ele>1735</ele>
        <time>2021-12-23T09:53:36Z</time>
      </trkpt>
      <trkpt lat="45.26532" lon="6.11156">
        <ele>1735</ele>
        <time>2021-12-23T09:53:37Z</time>
      </trkpt>
      <trkpt lat="45.26532" lon="6.11157">
        <ele>1736</ele>
        <time>2021-12-23T09:53:38Z</time>
      </trkpt>
      <trkpt lat="45.26532" lon="6.11158">
        <ele>1736</ele>
        <time>2021-12-23T09:53:39Z</time>
      </trkpt>
      <trkpt lat="45.26532" lon="6.1116">
        <ele>1736</ele>
        <time>2021-12-23T09:53:40Z</time>
      </trkpt>
      <trkpt lat="45.26532" lon="6.1116">
        <ele>1736</ele>
        <time>2021-12-23T09:53:41Z</time>
      </trkpt>
      <trkpt lat="45.26532" lon="6.1116">
        <ele>1737</ele>
        <time>2021-12-23T09:53:42Z</time>
      </trkpt>
      <trkpt lat="45.26532" lon="6.1116">
        <ele>1737</ele>
        <time>2021-12-23T09:53:43Z</time>
      </trkpt>
      <trkpt lat="45.26532" lon="6.1116">
        <ele>1736</ele>
        <time>2021-12-23T09:53:44Z</time>
      </trkpt>
      <trkpt lat="45.26532" lon="6.1116">
        <ele>1737</ele>
        <time>2021-12-23T09:53:45Z</time>
      </trkpt>
      <trkpt lat="45.26532" lon="6.1116">
        <ele>1737</ele>
        <time>2021-12-23T09:53:46Z</time>
      </trkpt>
      <trkpt lat="45.26532" lon="6.1116">
        <ele>1737</ele>
        <time>2021-12-23T09:53:47Z</time>
      </trkpt>
      <trkpt lat="45.26532" lon="6.1116">
        <ele>1737</ele>
        <time>2021-12-23T09:53:48Z</time>
      </trkpt>
      <trkpt lat="45.26532" lon="6.1116">
        <ele>1737</ele>
        <time>2021-12-23T09:53:50Z</time>
      </trkpt>
      <trkpt lat="45.26532" lon="6.1116">
        <ele>1737</ele>
        <time>2021-12-23T09:53:51Z</time>
      </trkpt>
      <trkpt lat="45.26532" lon="6.1116">
        <ele>1738</ele>
        <time>2021-12-23T09:53:52Z</time>
      </trkpt>
      <trkpt lat="45.26532" lon="6.1116">
        <ele>1739</ele>
        <time>2021-12-23T09:53:53Z</time>
      </trkpt>
      <trkpt lat="45.26532" lon="6.1116">
        <ele>1739</ele>
        <time>2021-12-23T09:53:54Z</time>
      </trkpt>
      <trkpt lat="45.26532" lon="6.1116">
        <ele>1739</ele>
        <time>2021-12-23T09:53:55Z</time>
      </trkpt>
      <trkpt lat="45.26532" lon="6.1116">
        <ele>1739</ele>
        <time>2021-12-23T09:53:56Z</time>
      </trkpt>
      <trkpt lat="45.26532" lon="6.1116">
        <ele>1739</ele>
        <time>2021-12-23T09:53:57Z</time>
      </trkpt>
      <trkpt lat="45.26532" lon="6.1116">
        <ele>1739</ele>
        <time>2021-12-23T09:53:58Z</time>
      </trkpt>
      <trkpt lat="45.26532" lon="6.11172">
        <ele>1739</ele>
        <time>2021-12-23T09:53:59Z</time>
      </trkpt>
      <trkpt lat="45.26532" lon="6.11172">
        <ele>1739</ele>
        <time>2021-12-23T09:54:01Z</time>
      </trkpt>
      <trkpt lat="45.26531" lon="6.11173">
        <ele>1739</ele>
        <time>2021-12-23T09:54:02Z</time>
      </trkpt>
      <trkpt lat="45.2653" lon="6.11174">
        <ele>1739</ele>
        <time>2021-12-23T09:54:03Z</time>
      </trkpt>
      <trkpt lat="45.2653" lon="6.11175">
        <ele>1739</ele>
        <time>2021-12-23T09:54:04Z</time>
      </trkpt>
      <trkpt lat="45.26529" lon="6.11177">
        <ele>1739</ele>
        <time>2021-12-23T09:54:05Z</time>
      </trkpt>
      <trkpt lat="45.26528" lon="6.11178">
        <ele>1739</ele>
        <time>2021-12-23T09:54:06Z</time>
      </trkpt>
      <trkpt lat="45.26528" lon="6.11179">
        <ele>1739</ele>
        <time>2021-12-23T09:54:07Z</time>
      </trkpt>
      <trkpt lat="45.26527" lon="6.1118">
        <ele>1740</ele>
        <time>2021-12-23T09:54:09Z</time>
      </trkpt>
      <trkpt lat="45.26526" lon="6.11181">
        <ele>1740</ele>
        <time>2021-12-23T09:54:10Z</time>
      </trkpt>
      <trkpt lat="45.26526" lon="6.11182">
        <ele>1740</ele>
        <time>2021-12-23T09:54:11Z</time>
      </trkpt>
      <trkpt lat="45.26525" lon="6.11184">
        <ele>1740</ele>
        <time>2021-12-23T09:54:12Z</time>
      </trkpt>
      <trkpt lat="45.26526" lon="6.11184">
        <ele>1740</ele>
        <time>2021-12-23T09:54:13Z</time>
      </trkpt>
      <trkpt lat="45.26526" lon="6.11185">
        <ele>1740</ele>
        <time>2021-12-23T09:54:14Z</time>
      </trkpt>
      <trkpt lat="45.26527" lon="6.11186">
        <ele>1741</ele>
        <time>2021-12-23T09:54:15Z</time>
      </trkpt>
      <trkpt lat="45.26528" lon="6.11187">
        <ele>1741</ele>
        <time>2021-12-23T09:54:16Z</time>
      </trkpt>
      <trkpt lat="45.26529" lon="6.11188">
        <ele>1741</ele>
        <time>2021-12-23T09:54:17Z</time>
      </trkpt>
      <trkpt lat="45.2653" lon="6.11189">
        <ele>1741</ele>
        <time>2021-12-23T09:54:18Z</time>
      </trkpt>
      <trkpt lat="45.2653" lon="6.1119">
        <ele>1741</ele>
        <time>2021-12-23T09:54:19Z</time>
      </trkpt>
      <trkpt lat="45.26531" lon="6.11191">
        <ele>1741</ele>
        <time>2021-12-23T09:54:20Z</time>
      </trkpt>
      <trkpt lat="45.26532" lon="6.11192">
        <ele>1741</ele>
        <time>2021-12-23T09:54:21Z</time>
      </trkpt>
      <trkpt lat="45.26532" lon="6.11192">
        <ele>1741</ele>
        <time>2021-12-23T09:54:22Z</time>
      </trkpt>
      <trkpt lat="45.26532" lon="6.11192">
        <ele>1742</ele>
        <time>2021-12-23T09:54:23Z</time>
      </trkpt>
      <trkpt lat="45.26531" lon="6.11193">
        <ele>1742</ele>
        <time>2021-12-23T09:54:24Z</time>
      </trkpt>
      <trkpt lat="45.26531" lon="6.11193">
        <ele>1743</ele>
        <time>2021-12-23T09:54:25Z</time>
      </trkpt>
      <trkpt lat="45.26531" lon="6.11193">
        <ele>1743</ele>
        <time>2021-12-23T09:54:26Z</time>
      </trkpt>
      <trkpt lat="45.26531" lon="6.11194">
        <ele>1743</ele>
        <time>2021-12-23T09:54:28Z</time>
      </trkpt>
      <trkpt lat="45.2653" lon="6.11194">
        <ele>1743</ele>
        <time>2021-12-23T09:54:29Z</time>
      </trkpt>
      <trkpt lat="45.2653" lon="6.11195">
        <ele>1743</ele>
        <time>2021-12-23T09:54:30Z</time>
      </trkpt>
      <trkpt lat="45.2653" lon="6.11195">
        <ele>1742</ele>
        <time>2021-12-23T09:54:31Z</time>
      </trkpt>
      <trkpt lat="45.2653" lon="6.11195">
        <ele>1742</ele>
        <time>2021-12-23T09:54:32Z</time>
      </trkpt>
      <trkpt lat="45.26529" lon="6.11196">
        <ele>1742</ele>
        <time>2021-12-23T09:54:33Z</time>
      </trkpt>
      <trkpt lat="45.26529" lon="6.11196">
        <ele>1742</ele>
        <time>2021-12-23T09:54:34Z</time>
      </trkpt>
      <trkpt lat="45.26529" lon="6.11196">
        <ele>1742</ele>
        <time>2021-12-23T09:54:35Z</time>
      </trkpt>
      <trkpt lat="45.26529" lon="6.11197">
        <ele>1742</ele>
        <time>2021-12-23T09:54:36Z</time>
      </trkpt>
      <trkpt lat="45.26529" lon="6.11197">
        <ele>1742</ele>
        <time>2021-12-23T09:54:37Z</time>
      </trkpt>
      <trkpt lat="45.26528" lon="6.11197">
        <ele>1743</ele>
        <time>2021-12-23T09:54:38Z</time>
      </trkpt>
      <trkpt lat="45.26528" lon="6.11198">
        <ele>1743</ele>
        <time>2021-12-23T09:54:39Z</time>
      </trkpt>
      <trkpt lat="45.26528" lon="6.11198">
        <ele>1743</ele>
        <time>2021-12-23T09:54:40Z</time>
      </trkpt>
      <trkpt lat="45.26528" lon="6.11198">
        <ele>1744</ele>
        <time>2021-12-23T09:54:41Z</time>
      </trkpt>
      <trkpt lat="45.26527" lon="6.11199">
        <ele>1744</ele>
        <time>2021-12-23T09:54:42Z</time>
      </trkpt>
      <trkpt lat="45.26527" lon="6.11199">
        <ele>1744</ele>
        <time>2021-12-23T09:54:43Z</time>
      </trkpt>
      <trkpt lat="45.26527" lon="6.112">
        <ele>1744</ele>
        <time>2021-12-23T09:54:44Z</time>
      </trkpt>
      <trkpt lat="45.26527" lon="6.112">
        <ele>1744</ele>
        <time>2021-12-23T09:54:45Z</time>
      </trkpt>
      <trkpt lat="45.26526" lon="6.112">
        <ele>1745</ele>
        <time>2021-12-23T09:54:47Z</time>
      </trkpt>
      <trkpt lat="45.26526" lon="6.11201">
        <ele>1745</ele>
        <time>2021-12-23T09:54:48Z</time>
      </trkpt>
      <trkpt lat="45.26526" lon="6.11201">
        <ele>1745</ele>
        <time>2021-12-23T09:54:49Z</time>
      </trkpt>
      <trkpt lat="45.26526" lon="6.11201">
        <ele>1745</ele>
        <time>2021-12-23T09:54:50Z</time>
      </trkpt>
      <trkpt lat="45.26526" lon="6.11202">
        <ele>1745</ele>
        <time>2021-12-23T09:54:51Z</time>
      </trkpt>
      <trkpt lat="45.26525" lon="6.11202">
        <ele>1745</ele>
        <time>2021-12-23T09:54:52Z</time>
      </trkpt>
      <trkpt lat="45.26524" lon="6.11203">
        <ele>1745</ele>
        <time>2021-12-23T09:54:53Z</time>
      </trkpt>
      <trkpt lat="45.26523" lon="6.11204">
        <ele>1745</ele>
        <time>2021-12-23T09:54:54Z</time>
      </trkpt>
      <trkpt lat="45.26523" lon="6.11205">
        <ele>1745</ele>
        <time>2021-12-23T09:54:55Z</time>
      </trkpt>
      <trkpt lat="45.26522" lon="6.11206">
        <ele>1745</ele>
        <time>2021-12-23T09:54:56Z</time>
      </trkpt>
      <trkpt lat="45.26521" lon="6.11206">
        <ele>1745</ele>
        <time>2021-12-23T09:54:57Z</time>
      </trkpt>
      <trkpt lat="45.2652" lon="6.11207">
        <ele>1745</ele>
        <time>2021-12-23T09:54:58Z</time>
      </trkpt>
      <trkpt lat="45.2652" lon="6.11208">
        <ele>1745</ele>
        <time>2021-12-23T09:54:59Z</time>
      </trkpt>
      <trkpt lat="45.26519" lon="6.11209">
        <ele>1746</ele>
        <time>2021-12-23T09:55:00Z</time>
      </trkpt>
      <trkpt lat="45.26518" lon="6.11209">
        <ele>1746</ele>
        <time>2021-12-23T09:55:01Z</time>
      </trkpt>
      <trkpt lat="45.26517" lon="6.1121">
        <ele>1746</ele>
        <time>2021-12-23T09:55:02Z</time>
      </trkpt>
      <trkpt lat="45.26517" lon="6.11211">
        <ele>1746</ele>
        <time>2021-12-23T09:55:03Z</time>
      </trkpt>
      <trkpt lat="45.26517" lon="6.11211">
        <ele>1746</ele>
        <time>2021-12-23T09:55:04Z</time>
      </trkpt>
      <trkpt lat="45.26517" lon="6.11211">
        <ele>1747</ele>
        <time>2021-12-23T09:55:06Z</time>
      </trkpt>
      <trkpt lat="45.26517" lon="6.11211">
        <ele>1747</ele>
        <time>2021-12-23T09:55:07Z</time>
      </trkpt>
      <trkpt lat="45.26517" lon="6.11211">
        <ele>1747</ele>
        <time>2021-12-23T09:55:08Z</time>
      </trkpt>
      <trkpt lat="45.26517" lon="6.11211">
        <ele>1747</ele>
        <time>2021-12-23T09:55:09Z</time>
      </trkpt>
      <trkpt lat="45.26517" lon="6.11211">
        <ele>1748</ele>
        <time>2021-12-23T09:55:10Z</time>
      </trkpt>
      <trkpt lat="45.26517" lon="6.11211">
        <ele>1748</ele>
        <time>2021-12-23T09:55:11Z</time>
      </trkpt>
      <trkpt lat="45.26517" lon="6.11211">
        <ele>1748</ele>
        <time>2021-12-23T09:55:12Z</time>
      </trkpt>
      <trkpt lat="45.26517" lon="6.11211">
        <ele>1748</ele>
        <time>2021-12-23T09:55:13Z</time>
      </trkpt>
      <trkpt lat="45.26517" lon="6.11211">
        <ele>1748</ele>
        <time>2021-12-23T09:55:14Z</time>
      </trkpt>
      <trkpt lat="45.26517" lon="6.11211">
        <ele>1748</ele>
        <time>2021-12-23T09:55:15Z</time>
      </trkpt>
      <trkpt lat="45.26511" lon="6.11221">
        <ele>1748</ele>
        <time>2021-12-23T09:55:16Z</time>
      </trkpt>
      <trkpt lat="45.26511" lon="6.11221">
        <ele>1749</ele>
        <time>2021-12-23T09:55:18Z</time>
      </trkpt>
      <trkpt lat="45.26511" lon="6.11222">
        <ele>1749</ele>
        <time>2021-12-23T09:55:19Z</time>
      </trkpt>
      <trkpt lat="45.26511" lon="6.11222">
        <ele>1749</ele>
        <time>2021-12-23T09:55:20Z</time>
      </trkpt>
      <trkpt lat="45.2651" lon="6.11222">
        <ele>1749</ele>
        <time>2021-12-23T09:55:21Z</time>
      </trkpt>
      <trkpt lat="45.2651" lon="6.11223">
        <ele>1749</ele>
        <time>2021-12-23T09:55:22Z</time>
      </trkpt>
      <trkpt lat="45.2651" lon="6.11223">
        <ele>1749</ele>
        <time>2021-12-23T09:55:23Z</time>
      </trkpt>
      <trkpt lat="45.2651" lon="6.11224">
        <ele>1750</ele>
        <time>2021-12-23T09:55:25Z</time>
      </trkpt>
      <trkpt lat="45.2651" lon="6.11224">
        <ele>1750</ele>
        <time>2021-12-23T09:55:26Z</time>
      </trkpt>
      <trkpt lat="45.26509" lon="6.11225">
        <ele>1750</ele>
        <time>2021-12-23T09:55:27Z</time>
      </trkpt>
      <trkpt lat="45.26509" lon="6.11225">
        <ele>1751</ele>
        <time>2021-12-23T09:55:28Z</time>
      </trkpt>
      <trkpt lat="45.26509" lon="6.11226">
        <ele>1751</ele>
        <time>2021-12-23T09:55:29Z</time>
      </trkpt>
      <trkpt lat="45.26509" lon="6.11226">
        <ele>1751</ele>
        <time>2021-12-23T09:55:30Z</time>
      </trkpt>
      <trkpt lat="45.26509" lon="6.11226">
        <ele>1751</ele>
        <time>2021-12-23T09:55:31Z</time>
      </trkpt>
      <trkpt lat="45.26508" lon="6.11227">
        <ele>1752</ele>
        <time>2021-12-23T09:55:32Z</time>
      </trkpt>
      <trkpt lat="45.26508" lon="6.11227">
        <ele>1752</ele>
        <time>2021-12-23T09:55:33Z</time>
      </trkpt>
      <trkpt lat="45.26508" lon="6.11228">
        <ele>1752</ele>
        <time>2021-12-23T09:55:34Z</time>
      </trkpt>
      <trkpt lat="45.26508" lon="6.11228">
        <ele>1752</ele>
        <time>2021-12-23T09:55:35Z</time>
      </trkpt>
      <trkpt lat="45.26508" lon="6.11229">
        <ele>1752</ele>
        <time>2021-12-23T09:55:36Z</time>
      </trkpt>
      <trkpt lat="45.26507" lon="6.11229">
        <ele>1752</ele>
        <time>2021-12-23T09:55:37Z</time>
      </trkpt>
      <trkpt lat="45.26507" lon="6.11229">
        <ele>1752</ele>
        <time>2021-12-23T09:55:38Z</time>
      </trkpt>
      <trkpt lat="45.26507" lon="6.1123">
        <ele>1752</ele>
        <time>2021-12-23T09:55:39Z</time>
      </trkpt>
      <trkpt lat="45.26507" lon="6.1123">
        <ele>1753</ele>
        <time>2021-12-23T09:55:40Z</time>
      </trkpt>
      <trkpt lat="45.26507" lon="6.11231">
        <ele>1753</ele>
        <time>2021-12-23T09:55:41Z</time>
      </trkpt>
      <trkpt lat="45.26507" lon="6.11232">
        <ele>1753</ele>
        <time>2021-12-23T09:55:42Z</time>
      </trkpt>
      <trkpt lat="45.26507" lon="6.11234">
        <ele>1753</ele>
        <time>2021-12-23T09:55:44Z</time>
      </trkpt>
      <trkpt lat="45.26507" lon="6.11235">
        <ele>1753</ele>
        <time>2021-12-23T09:55:45Z</time>
      </trkpt>
      <trkpt lat="45.26507" lon="6.11237">
        <ele>1753</ele>
        <time>2021-12-23T09:55:46Z</time>
      </trkpt>
      <trkpt lat="45.26508" lon="6.11238">
        <ele>1754</ele>
        <time>2021-12-23T09:55:47Z</time>
      </trkpt>
      <trkpt lat="45.26508" lon="6.1124">
        <ele>1754</ele>
        <time>2021-12-23T09:55:48Z</time>
      </trkpt>
      <trkpt lat="45.26508" lon="6.11241">
        <ele>1754</ele>
        <time>2021-12-23T09:55:50Z</time>
      </trkpt>
      <trkpt lat="45.26508" lon="6.11243">
        <ele>1755</ele>
        <time>2021-12-23T09:55:51Z</time>
      </trkpt>
      <trkpt lat="45.26508" lon="6.11244">
        <ele>1755</ele>
        <time>2021-12-23T09:55:52Z</time>
      </trkpt>
      <trkpt lat="45.26509" lon="6.11246">
        <ele>1755</ele>
        <time>2021-12-23T09:55:53Z</time>
      </trkpt>
      <trkpt lat="45.26509" lon="6.11247">
        <ele>1755</ele>
        <time>2021-12-23T09:55:54Z</time>
      </trkpt>
      <trkpt lat="45.26509" lon="6.11248">
        <ele>1756</ele>
        <time>2021-12-23T09:55:55Z</time>
      </trkpt>
      <trkpt lat="45.26509" lon="6.11249">
        <ele>1756</ele>
        <time>2021-12-23T09:55:56Z</time>
      </trkpt>
      <trkpt lat="45.26509" lon="6.11249">
        <ele>1756</ele>
        <time>2021-12-23T09:55:57Z</time>
      </trkpt>
      <trkpt lat="45.26509" lon="6.1125">
        <ele>1756</ele>
        <time>2021-12-23T09:55:58Z</time>
      </trkpt>
      <trkpt lat="45.26509" lon="6.11251">
        <ele>1756</ele>
        <time>2021-12-23T09:55:59Z</time>
      </trkpt>
      <trkpt lat="45.26509" lon="6.11252">
        <ele>1756</ele>
        <time>2021-12-23T09:56:00Z</time>
      </trkpt>
      <trkpt lat="45.26509" lon="6.11253">
        <ele>1756</ele>
        <time>2021-12-23T09:56:01Z</time>
      </trkpt>
      <trkpt lat="45.26509" lon="6.11254">
        <ele>1756</ele>
        <time>2021-12-23T09:56:03Z</time>
      </trkpt>
      <trkpt lat="45.26509" lon="6.11255">
        <ele>1756</ele>
        <time>2021-12-23T09:56:04Z</time>
      </trkpt>
      <trkpt lat="45.26509" lon="6.11256">
        <ele>1756</ele>
        <time>2021-12-23T09:56:05Z</time>
      </trkpt>
      <trkpt lat="45.26509" lon="6.11257">
        <ele>1756</ele>
        <time>2021-12-23T09:56:06Z</time>
      </trkpt>
      <trkpt lat="45.26509" lon="6.11258">
        <ele>1756</ele>
        <time>2021-12-23T09:56:07Z</time>
      </trkpt>
      <trkpt lat="45.26509" lon="6.11259">
        <ele>1756</ele>
        <time>2021-12-23T09:56:08Z</time>
      </trkpt>
      <trkpt lat="45.26509" lon="6.11259">
        <ele>1757</ele>
        <time>2021-12-23T09:56:09Z</time>
      </trkpt>
      <trkpt lat="45.26509" lon="6.1126">
        <ele>1757</ele>
        <time>2021-12-23T09:56:10Z</time>
      </trkpt>
      <trkpt lat="45.26509" lon="6.11261">
        <ele>1758</ele>
        <time>2021-12-23T09:56:11Z</time>
      </trkpt>
      <trkpt lat="45.26509" lon="6.11261">
        <ele>1758</ele>
        <time>2021-12-23T09:56:12Z</time>
      </trkpt>
      <trkpt lat="45.26509" lon="6.11262">
        <ele>1758</ele>
        <time>2021-12-23T09:56:13Z</time>
      </trkpt>
      <trkpt lat="45.26509" lon="6.11263">
        <ele>1758</ele>
        <time>2021-12-23T09:56:14Z</time>
      </trkpt>
      <trkpt lat="45.26509" lon="6.11264">
        <ele>1758</ele>
        <time>2021-12-23T09:56:15Z</time>
      </trkpt>
      <trkpt lat="45.26509" lon="6.11264">
        <ele>1758</ele>
        <time>2021-12-23T09:56:16Z</time>
      </trkpt>
      <trkpt lat="45.26509" lon="6.11265">
        <ele>1759</ele>
        <time>2021-12-23T09:56:17Z</time>
      </trkpt>
      <trkpt lat="45.26509" lon="6.11266">
        <ele>1759</ele>
        <time>2021-12-23T09:56:18Z</time>
      </trkpt>
      <trkpt lat="45.2651" lon="6.11267">
        <ele>1759</ele>
        <time>2021-12-23T09:56:19Z</time>
      </trkpt>
      <trkpt lat="45.2651" lon="6.11267">
        <ele>1759</ele>
        <time>2021-12-23T09:56:20Z</time>
      </trkpt>
      <trkpt lat="45.2651" lon="6.11268">
        <ele>1759</ele>
        <time>2021-12-23T09:56:22Z</time>
      </trkpt>
      <trkpt lat="45.2651" lon="6.11269">
        <ele>1759</ele>
        <time>2021-12-23T09:56:23Z</time>
      </trkpt>
      <trkpt lat="45.2651" lon="6.11269">
        <ele>1759</ele>
        <time>2021-12-23T09:56:24Z</time>
      </trkpt>
      <trkpt lat="45.2651" lon="6.1127">
        <ele>1759</ele>
        <time>2021-12-23T09:56:25Z</time>
      </trkpt>
      <trkpt lat="45.2651" lon="6.11271">
        <ele>1759</ele>
        <time>2021-12-23T09:56:26Z</time>
      </trkpt>
      <trkpt lat="45.26509" lon="6.11271">
        <ele>1759</ele>
        <time>2021-12-23T09:56:27Z</time>
      </trkpt>
      <trkpt lat="45.26509" lon="6.11272">
        <ele>1760</ele>
        <time>2021-12-23T09:56:28Z</time>
      </trkpt>
      <trkpt lat="45.26508" lon="6.11272">
        <ele>1760</ele>
        <time>2021-12-23T09:56:29Z</time>
      </trkpt>
      <trkpt lat="45.26508" lon="6.11272">
        <ele>1760</ele>
        <time>2021-12-23T09:56:30Z</time>
      </trkpt>
      <trkpt lat="45.26507" lon="6.11273">
        <ele>1760</ele>
        <time>2021-12-23T09:56:31Z</time>
      </trkpt>
      <trkpt lat="45.26506" lon="6.11273">
        <ele>1760</ele>
        <time>2021-12-23T09:56:32Z</time>
      </trkpt>
      <trkpt lat="45.26506" lon="6.11273">
        <ele>1760</ele>
        <time>2021-12-23T09:56:33Z</time>
      </trkpt>
      <trkpt lat="45.26505" lon="6.11274">
        <ele>1760</ele>
        <time>2021-12-23T09:56:34Z</time>
      </trkpt>
      <trkpt lat="45.26505" lon="6.11274">
        <ele>1760</ele>
        <time>2021-12-23T09:56:35Z</time>
      </trkpt>
      <trkpt lat="45.26504" lon="6.11275">
        <ele>1760</ele>
        <time>2021-12-23T09:56:36Z</time>
      </trkpt>
      <trkpt lat="45.26504" lon="6.11275">
        <ele>1760</ele>
        <time>2021-12-23T09:56:37Z</time>
      </trkpt>
      <trkpt lat="45.26503" lon="6.11275">
        <ele>1760</ele>
        <time>2021-12-23T09:56:38Z</time>
      </trkpt>
      <trkpt lat="45.26502" lon="6.11276">
        <ele>1760</ele>
        <time>2021-12-23T09:56:39Z</time>
      </trkpt>
      <trkpt lat="45.26502" lon="6.11276">
        <ele>1760</ele>
        <time>2021-12-23T09:56:41Z</time>
      </trkpt>
      <trkpt lat="45.26501" lon="6.11277">
        <ele>1760</ele>
        <time>2021-12-23T09:56:42Z</time>
      </trkpt>
      <trkpt lat="45.265" lon="6.11277">
        <ele>1760</ele>
        <time>2021-12-23T09:56:43Z</time>
      </trkpt>
      <trkpt lat="45.265" lon="6.11277">
        <ele>1760</ele>
        <time>2021-12-23T09:56:44Z</time>
      </trkpt>
      <trkpt lat="45.26499" lon="6.11278">
        <ele>1760</ele>
        <time>2021-12-23T09:56:45Z</time>
      </trkpt>
      <trkpt lat="45.26498" lon="6.11278">
        <ele>1760</ele>
        <time>2021-12-23T09:56:46Z</time>
      </trkpt>
      <trkpt lat="45.26498" lon="6.11279">
        <ele>1760</ele>
        <time>2021-12-23T09:56:47Z</time>
      </trkpt>
      <trkpt lat="45.26497" lon="6.11279">
        <ele>1760</ele>
        <time>2021-12-23T09:56:48Z</time>
      </trkpt>
      <trkpt lat="45.26496" lon="6.11279">
        <ele>1761</ele>
        <time>2021-12-23T09:56:49Z</time>
      </trkpt>
      <trkpt lat="45.26495" lon="6.1128">
        <ele>1761</ele>
        <time>2021-12-23T09:56:50Z</time>
      </trkpt>
      <trkpt lat="45.26495" lon="6.1128">
        <ele>1761</ele>
        <time>2021-12-23T09:56:51Z</time>
      </trkpt>
      <trkpt lat="45.26494" lon="6.11281">
        <ele>1761</ele>
        <time>2021-12-23T09:56:52Z</time>
      </trkpt>
      <trkpt lat="45.26493" lon="6.11281">
        <ele>1761</ele>
        <time>2021-12-23T09:56:53Z</time>
      </trkpt>
      <trkpt lat="45.26493" lon="6.11282">
        <ele>1761</ele>
        <time>2021-12-23T09:56:54Z</time>
      </trkpt>
      <trkpt lat="45.26492" lon="6.11282">
        <ele>1761</ele>
        <time>2021-12-23T09:56:55Z</time>
      </trkpt>
      <trkpt lat="45.2649" lon="6.11282">
        <ele>1761</ele>
        <time>2021-12-23T09:56:56Z</time>
      </trkpt>
      <trkpt lat="45.26489" lon="6.11283">
        <ele>1762</ele>
        <time>2021-12-23T09:56:57Z</time>
      </trkpt>
      <trkpt lat="45.26487" lon="6.11284">
        <ele>1762</ele>
        <time>2021-12-23T09:56:58Z</time>
      </trkpt>
      <trkpt lat="45.26485" lon="6.11284">
        <ele>1762</ele>
        <time>2021-12-23T09:57:00Z</time>
      </trkpt>
      <trkpt lat="45.26484" lon="6.11285">
        <ele>1762</ele>
        <time>2021-12-23T09:57:01Z</time>
      </trkpt>
      <trkpt lat="45.26482" lon="6.11285">
        <ele>1762</ele>
        <time>2021-12-23T09:57:02Z</time>
      </trkpt>
      <trkpt lat="45.2648" lon="6.11286">
        <ele>1762</ele>
        <time>2021-12-23T09:57:03Z</time>
      </trkpt>
      <trkpt lat="45.2648" lon="6.11287">
        <ele>1762</ele>
        <time>2021-12-23T09:57:04Z</time>
      </trkpt>
      <trkpt lat="45.26479" lon="6.11287">
        <ele>1762</ele>
        <time>2021-12-23T09:57:05Z</time>
      </trkpt>
      <trkpt lat="45.26479" lon="6.11288">
        <ele>1763</ele>
        <time>2021-12-23T09:57:06Z</time>
      </trkpt>
      <trkpt lat="45.26479" lon="6.11289">
        <ele>1763</ele>
        <time>2021-12-23T09:57:07Z</time>
      </trkpt>
      <trkpt lat="45.26478" lon="6.1129">
        <ele>1763</ele>
        <time>2021-12-23T09:57:08Z</time>
      </trkpt>
      <trkpt lat="45.26478" lon="6.11291">
        <ele>1763</ele>
        <time>2021-12-23T09:57:09Z</time>
      </trkpt>
      <trkpt lat="45.26477" lon="6.11292">
        <ele>1764</ele>
        <time>2021-12-23T09:57:10Z</time>
      </trkpt>
      <trkpt lat="45.26477" lon="6.11293">
        <ele>1764</ele>
        <time>2021-12-23T09:57:11Z</time>
      </trkpt>
      <trkpt lat="45.26477" lon="6.11294">
        <ele>1764</ele>
        <time>2021-12-23T09:57:12Z</time>
      </trkpt>
      <trkpt lat="45.26476" lon="6.11295">
        <ele>1764</ele>
        <time>2021-12-23T09:57:13Z</time>
      </trkpt>
      <trkpt lat="45.26476" lon="6.11295">
        <ele>1764</ele>
        <time>2021-12-23T09:57:14Z</time>
      </trkpt>
      <trkpt lat="45.26475" lon="6.11296">
        <ele>1764</ele>
        <time>2021-12-23T09:57:15Z</time>
      </trkpt>
      <trkpt lat="45.26476" lon="6.11297">
        <ele>1764</ele>
        <time>2021-12-23T09:57:16Z</time>
      </trkpt>
      <trkpt lat="45.26476" lon="6.11297">
        <ele>1764</ele>
        <time>2021-12-23T09:57:17Z</time>
      </trkpt>
      <trkpt lat="45.26476" lon="6.11298">
        <ele>1765</ele>
        <time>2021-12-23T09:57:19Z</time>
      </trkpt>
      <trkpt lat="45.26476" lon="6.11298">
        <ele>1765</ele>
        <time>2021-12-23T09:57:20Z</time>
      </trkpt>
      <trkpt lat="45.26476" lon="6.11298">
        <ele>1765</ele>
        <time>2021-12-23T09:57:21Z</time>
      </trkpt>
      <trkpt lat="45.26476" lon="6.11299">
        <ele>1765</ele>
        <time>2021-12-23T09:57:22Z</time>
      </trkpt>
      <trkpt lat="45.26476" lon="6.11299">
        <ele>1766</ele>
        <time>2021-12-23T09:57:23Z</time>
      </trkpt>
      <trkpt lat="45.26476" lon="6.113">
        <ele>1767</ele>
        <time>2021-12-23T09:57:24Z</time>
      </trkpt>
      <trkpt lat="45.26476" lon="6.113">
        <ele>1767</ele>
        <time>2021-12-23T09:57:25Z</time>
      </trkpt>
      <trkpt lat="45.26476" lon="6.11301">
        <ele>1767</ele>
        <time>2021-12-23T09:57:26Z</time>
      </trkpt>
      <trkpt lat="45.26476" lon="6.11301">
        <ele>1767</ele>
        <time>2021-12-23T09:57:27Z</time>
      </trkpt>
      <trkpt lat="45.26476" lon="6.11301">
        <ele>1767</ele>
        <time>2021-12-23T09:57:28Z</time>
      </trkpt>
      <trkpt lat="45.26477" lon="6.11302">
        <ele>1767</ele>
        <time>2021-12-23T09:57:29Z</time>
      </trkpt>
      <trkpt lat="45.26477" lon="6.11302">
        <ele>1767</ele>
        <time>2021-12-23T09:57:30Z</time>
      </trkpt>
      <trkpt lat="45.26477" lon="6.11303">
        <ele>1767</ele>
        <time>2021-12-23T09:57:31Z</time>
      </trkpt>
      <trkpt lat="45.26477" lon="6.11303">
        <ele>1767</ele>
        <time>2021-12-23T09:57:32Z</time>
      </trkpt>
      <trkpt lat="45.26477" lon="6.11303">
        <ele>1767</ele>
        <time>2021-12-23T09:57:33Z</time>
      </trkpt>
      <trkpt lat="45.26477" lon="6.11304">
        <ele>1768</ele>
        <time>2021-12-23T09:57:34Z</time>
      </trkpt>
      <trkpt lat="45.26477" lon="6.11304">
        <ele>1768</ele>
        <time>2021-12-23T09:57:35Z</time>
      </trkpt>
      <trkpt lat="45.26477" lon="6.11305">
        <ele>1769</ele>
        <time>2021-12-23T09:57:36Z</time>
      </trkpt>
      <trkpt lat="45.26477" lon="6.11305">
        <ele>1769</ele>
        <time>2021-12-23T09:57:38Z</time>
      </trkpt>
      <trkpt lat="45.26477" lon="6.11306">
        <ele>1769</ele>
        <time>2021-12-23T09:57:39Z</time>
      </trkpt>
      <trkpt lat="45.26477" lon="6.11306">
        <ele>1769</ele>
        <time>2021-12-23T09:57:40Z</time>
      </trkpt>
      <trkpt lat="45.26477" lon="6.11306">
        <ele>1769</ele>
        <time>2021-12-23T09:57:41Z</time>
      </trkpt>
      <trkpt lat="45.26477" lon="6.11307">
        <ele>1769</ele>
        <time>2021-12-23T09:57:42Z</time>
      </trkpt>
      <trkpt lat="45.26478" lon="6.11307">
        <ele>1769</ele>
        <time>2021-12-23T09:57:43Z</time>
      </trkpt>
      <trkpt lat="45.26478" lon="6.11307">
        <ele>1769</ele>
        <time>2021-12-23T09:57:44Z</time>
      </trkpt>
      <trkpt lat="45.26478" lon="6.11307">
        <ele>1770</ele>
        <time>2021-12-23T09:57:45Z</time>
      </trkpt>
      <trkpt lat="45.26478" lon="6.11307">
        <ele>1770</ele>
        <time>2021-12-23T09:57:46Z</time>
      </trkpt>
      <trkpt lat="45.26478" lon="6.11307">
        <ele>1770</ele>
        <time>2021-12-23T09:57:47Z</time>
      </trkpt>
      <trkpt lat="45.26478" lon="6.11307">
        <ele>1771</ele>
        <time>2021-12-23T09:57:48Z</time>
      </trkpt>
      <trkpt lat="45.26482" lon="6.11319">
        <ele>1772</ele>
        <time>2021-12-23T09:57:49Z</time>
      </trkpt>
      <trkpt lat="45.26482" lon="6.11319">
        <ele>1772</ele>
        <time>2021-12-23T09:57:51Z</time>
      </trkpt>
      <trkpt lat="45.26482" lon="6.11321">
        <ele>1772</ele>
        <time>2021-12-23T09:57:52Z</time>
      </trkpt>
      <trkpt lat="45.26481" lon="6.11323">
        <ele>1772</ele>
        <time>2021-12-23T09:57:53Z</time>
      </trkpt>
      <trkpt lat="45.26481" lon="6.11325">
        <ele>1772</ele>
        <time>2021-12-23T09:57:54Z</time>
      </trkpt>
      <trkpt lat="45.26481" lon="6.11327">
        <ele>1772</ele>
        <time>2021-12-23T09:57:55Z</time>
      </trkpt>
      <trkpt lat="45.2648" lon="6.11329">
        <ele>1773</ele>
        <time>2021-12-23T09:57:57Z</time>
      </trkpt>
      <trkpt lat="45.2648" lon="6.11331">
        <ele>1773</ele>
        <time>2021-12-23T09:57:58Z</time>
      </trkpt>
      <trkpt lat="45.2648" lon="6.11332">
        <ele>1772</ele>
        <time>2021-12-23T09:57:59Z</time>
      </trkpt>
      <trkpt lat="45.2648" lon="6.11333">
        <ele>1772</ele>
        <time>2021-12-23T09:58:00Z</time>
      </trkpt>
      <trkpt lat="45.26479" lon="6.11333">
        <ele>1772</ele>
        <time>2021-12-23T09:58:01Z</time>
      </trkpt>
      <trkpt lat="45.26479" lon="6.11334">
        <ele>1772</ele>
        <time>2021-12-23T09:58:02Z</time>
      </trkpt>
      <trkpt lat="45.26479" lon="6.11335">
        <ele>1772</ele>
        <time>2021-12-23T09:58:03Z</time>
      </trkpt>
      <trkpt lat="45.26479" lon="6.11336">
        <ele>1772</ele>
        <time>2021-12-23T09:58:04Z</time>
      </trkpt>
      <trkpt lat="45.26479" lon="6.11336">
        <ele>1772</ele>
        <time>2021-12-23T09:58:05Z</time>
      </trkpt>
      <trkpt lat="45.26479" lon="6.11337">
        <ele>1772</ele>
        <time>2021-12-23T09:58:06Z</time>
      </trkpt>
      <trkpt lat="45.26479" lon="6.11338">
        <ele>1772</ele>
        <time>2021-12-23T09:58:07Z</time>
      </trkpt>
      <trkpt lat="45.26478" lon="6.11338">
        <ele>1772</ele>
        <time>2021-12-23T09:58:08Z</time>
      </trkpt>
      <trkpt lat="45.26478" lon="6.11339">
        <ele>1772</ele>
        <time>2021-12-23T09:58:09Z</time>
      </trkpt>
      <trkpt lat="45.26478" lon="6.1134">
        <ele>1772</ele>
        <time>2021-12-23T09:58:10Z</time>
      </trkpt>
      <trkpt lat="45.26478" lon="6.11341">
        <ele>1772</ele>
        <time>2021-12-23T09:58:11Z</time>
      </trkpt>
      <trkpt lat="45.26478" lon="6.11341">
        <ele>1772</ele>
        <time>2021-12-23T09:58:12Z</time>
      </trkpt>
      <trkpt lat="45.26478" lon="6.11342">
        <ele>1772</ele>
        <time>2021-12-23T09:58:13Z</time>
      </trkpt>
      <trkpt lat="45.26477" lon="6.11343">
        <ele>1772</ele>
        <time>2021-12-23T09:58:14Z</time>
      </trkpt>
      <trkpt lat="45.26477" lon="6.11343">
        <ele>1773</ele>
        <time>2021-12-23T09:58:16Z</time>
      </trkpt>
      <trkpt lat="45.26477" lon="6.11344">
        <ele>1773</ele>
        <time>2021-12-23T09:58:17Z</time>
      </trkpt>
      <trkpt lat="45.26477" lon="6.11345">
        <ele>1773</ele>
        <time>2021-12-23T09:58:18Z</time>
      </trkpt>
      <trkpt lat="45.26476" lon="6.11347">
        <ele>1773</ele>
        <time>2021-12-23T09:58:19Z</time>
      </trkpt>
      <trkpt lat="45.26476" lon="6.11348">
        <ele>1773</ele>
        <time>2021-12-23T09:58:20Z</time>
      </trkpt>
      <trkpt lat="45.26476" lon="6.11349">
        <ele>1774</ele>
        <time>2021-12-23T09:58:21Z</time>
      </trkpt>
      <trkpt lat="45.26476" lon="6.1135">
        <ele>1774</ele>
        <time>2021-12-23T09:58:22Z</time>
      </trkpt>
      <trkpt lat="45.26475" lon="6.11351">
        <ele>1774</ele>
        <time>2021-12-23T09:58:23Z</time>
      </trkpt>
      <trkpt lat="45.26475" lon="6.11353">
        <ele>1774</ele>
        <time>2021-12-23T09:58:24Z</time>
      </trkpt>
      <trkpt lat="45.26475" lon="6.11354">
        <ele>1774</ele>
        <time>2021-12-23T09:58:25Z</time>
      </trkpt>
      <trkpt lat="45.26474" lon="6.11355">
        <ele>1774</ele>
        <time>2021-12-23T09:58:26Z</time>
      </trkpt>
      <trkpt lat="45.26474" lon="6.11356">
        <ele>1774</ele>
        <time>2021-12-23T09:58:27Z</time>
      </trkpt>
      <trkpt lat="45.26474" lon="6.11358">
        <ele>1774</ele>
        <time>2021-12-23T09:58:28Z</time>
      </trkpt>
      <trkpt lat="45.26474" lon="6.11359">
        <ele>1774</ele>
        <time>2021-12-23T09:58:29Z</time>
      </trkpt>
      <trkpt lat="45.26474" lon="6.11361">
        <ele>1774</ele>
        <time>2021-12-23T09:58:30Z</time>
      </trkpt>
      <trkpt lat="45.26474" lon="6.11362">
        <ele>1774</ele>
        <time>2021-12-23T09:58:31Z</time>
      </trkpt>
      <trkpt lat="45.26474" lon="6.11363">
        <ele>1774</ele>
        <time>2021-12-23T09:58:32Z</time>
      </trkpt>
      <trkpt lat="45.26474" lon="6.11365">
        <ele>1774</ele>
        <time>2021-12-23T09:58:33Z</time>
      </trkpt>
      <trkpt lat="45.26474" lon="6.11366">
        <ele>1774</ele>
        <time>2021-12-23T09:58:35Z</time>
      </trkpt>
      <trkpt lat="45.26474" lon="6.11368">
        <ele>1774</ele>
        <time>2021-12-23T09:58:36Z</time>
      </trkpt>
      <trkpt lat="45.26474" lon="6.11369">
        <ele>1774</ele>
        <time>2021-12-23T09:58:37Z</time>
      </trkpt>
      <trkpt lat="45.26474" lon="6.11371">
        <ele>1775</ele>
        <time>2021-12-23T09:58:38Z</time>
      </trkpt>
      <trkpt lat="45.26474" lon="6.11371">
        <ele>1775</ele>
        <time>2021-12-23T09:58:39Z</time>
      </trkpt>
      <trkpt lat="45.26474" lon="6.11371">
        <ele>1775</ele>
        <time>2021-12-23T09:58:40Z</time>
      </trkpt>
      <trkpt lat="45.26474" lon="6.11371">
        <ele>1775</ele>
        <time>2021-12-23T09:58:41Z</time>
      </trkpt>
      <trkpt lat="45.26474" lon="6.11371">
        <ele>1775</ele>
        <time>2021-12-23T09:58:42Z</time>
      </trkpt>
      <trkpt lat="45.26474" lon="6.11371">
        <ele>1775</ele>
        <time>2021-12-23T09:58:43Z</time>
      </trkpt>
      <trkpt lat="45.26481" lon="6.11381">
        <ele>1775</ele>
        <time>2021-12-23T09:58:44Z</time>
      </trkpt>
      <trkpt lat="45.26481" lon="6.11381">
        <ele>1775</ele>
        <time>2021-12-23T09:58:46Z</time>
      </trkpt>
      <trkpt lat="45.26481" lon="6.11382">
        <ele>1775</ele>
        <time>2021-12-23T09:58:47Z</time>
      </trkpt>
      <trkpt lat="45.26481" lon="6.11384">
        <ele>1775</ele>
        <time>2021-12-23T09:58:48Z</time>
      </trkpt>
      <trkpt lat="45.26482" lon="6.11385">
        <ele>1776</ele>
        <time>2021-12-23T09:58:49Z</time>
      </trkpt>
      <trkpt lat="45.26482" lon="6.11386">
        <ele>1776</ele>
        <time>2021-12-23T09:58:50Z</time>
      </trkpt>
      <trkpt lat="45.26482" lon="6.11387">
        <ele>1776</ele>
        <time>2021-12-23T09:58:51Z</time>
      </trkpt>
      <trkpt lat="45.26483" lon="6.11388">
        <ele>1776</ele>
        <time>2021-12-23T09:58:52Z</time>
      </trkpt>
      <trkpt lat="45.26483" lon="6.11389">
        <ele>1776</ele>
        <time>2021-12-23T09:58:54Z</time>
      </trkpt>
      <trkpt lat="45.26483" lon="6.1139">
        <ele>1776</ele>
        <time>2021-12-23T09:58:55Z</time>
      </trkpt>
      <trkpt lat="45.26484" lon="6.11391">
        <ele>1776</ele>
        <time>2021-12-23T09:58:56Z</time>
      </trkpt>
      <trkpt lat="45.26484" lon="6.11392">
        <ele>1776</ele>
        <time>2021-12-23T09:58:57Z</time>
      </trkpt>
      <trkpt lat="45.26484" lon="6.11394">
        <ele>1777</ele>
        <time>2021-12-23T09:58:58Z</time>
      </trkpt>
      <trkpt lat="45.26483" lon="6.11394">
        <ele>1777</ele>
        <time>2021-12-23T09:58:59Z</time>
      </trkpt>
      <trkpt lat="45.26483" lon="6.11394">
        <ele>1777</ele>
        <time>2021-12-23T09:59:00Z</time>
      </trkpt>
      <trkpt lat="45.26482" lon="6.11395">
        <ele>1778</ele>
        <time>2021-12-23T09:59:01Z</time>
      </trkpt>
      <trkpt lat="45.26481" lon="6.11395">
        <ele>1778</ele>
        <time>2021-12-23T09:59:02Z</time>
      </trkpt>
      <trkpt lat="45.2648" lon="6.11396">
        <ele>1778</ele>
        <time>2021-12-23T09:59:03Z</time>
      </trkpt>
      <trkpt lat="45.2648" lon="6.11396">
        <ele>1778</ele>
        <time>2021-12-23T09:59:04Z</time>
      </trkpt>
      <trkpt lat="45.26479" lon="6.11397">
        <ele>1778</ele>
        <time>2021-12-23T09:59:05Z</time>
      </trkpt>
      <trkpt lat="45.26478" lon="6.11397">
        <ele>1778</ele>
        <time>2021-12-23T09:59:06Z</time>
      </trkpt>
      <trkpt lat="45.26477" lon="6.11397">
        <ele>1778</ele>
        <time>2021-12-23T09:59:07Z</time>
      </trkpt>
      <trkpt lat="45.26476" lon="6.11398">
        <ele>1779</ele>
        <time>2021-12-23T09:59:08Z</time>
      </trkpt>
      <trkpt lat="45.26476" lon="6.11398">
        <ele>1779</ele>
        <time>2021-12-23T09:59:09Z</time>
      </trkpt>
      <trkpt lat="45.26475" lon="6.11399">
        <ele>1779</ele>
        <time>2021-12-23T09:59:10Z</time>
      </trkpt>
      <trkpt lat="45.26475" lon="6.11399">
        <ele>1780</ele>
        <time>2021-12-23T09:59:11Z</time>
      </trkpt>
      <trkpt lat="45.26475" lon="6.114">
        <ele>1780</ele>
        <time>2021-12-23T09:59:13Z</time>
      </trkpt>
      <trkpt lat="45.26475" lon="6.114">
        <ele>1780</ele>
        <time>2021-12-23T09:59:14Z</time>
      </trkpt>
      <trkpt lat="45.26475" lon="6.11401">
        <ele>1780</ele>
        <time>2021-12-23T09:59:15Z</time>
      </trkpt>
      <trkpt lat="45.26476" lon="6.11401">
        <ele>1780</ele>
        <time>2021-12-23T09:59:16Z</time>
      </trkpt>
      <trkpt lat="45.26476" lon="6.11402">
        <ele>1780</ele>
        <time>2021-12-23T09:59:17Z</time>
      </trkpt>
      <trkpt lat="45.26476" lon="6.11402">
        <ele>1780</ele>
        <time>2021-12-23T09:59:18Z</time>
      </trkpt>
      <trkpt lat="45.26476" lon="6.11403">
        <ele>1781</ele>
        <time>2021-12-23T09:59:19Z</time>
      </trkpt>
      <trkpt lat="45.26476" lon="6.11403">
        <ele>1781</ele>
        <time>2021-12-23T09:59:20Z</time>
      </trkpt>
      <trkpt lat="45.26476" lon="6.11404">
        <ele>1780</ele>
        <time>2021-12-23T09:59:21Z</time>
      </trkpt>
      <trkpt lat="45.26477" lon="6.11404">
        <ele>1780</ele>
        <time>2021-12-23T09:59:22Z</time>
      </trkpt>
      <trkpt lat="45.26477" lon="6.11405">
        <ele>1780</ele>
        <time>2021-12-23T09:59:23Z</time>
      </trkpt>
      <trkpt lat="45.26477" lon="6.11405">
        <ele>1780</ele>
        <time>2021-12-23T09:59:24Z</time>
      </trkpt>
      <trkpt lat="45.26477" lon="6.11406">
        <ele>1780</ele>
        <time>2021-12-23T09:59:25Z</time>
      </trkpt>
      <trkpt lat="45.26477" lon="6.11406">
        <ele>1780</ele>
        <time>2021-12-23T09:59:26Z</time>
      </trkpt>
      <trkpt lat="45.26477" lon="6.11407">
        <ele>1780</ele>
        <time>2021-12-23T09:59:27Z</time>
      </trkpt>
      <trkpt lat="45.26478" lon="6.11407">
        <ele>1781</ele>
        <time>2021-12-23T09:59:28Z</time>
      </trkpt>
      <trkpt lat="45.26478" lon="6.11408">
        <ele>1781</ele>
        <time>2021-12-23T09:59:29Z</time>
      </trkpt>
      <trkpt lat="45.26478" lon="6.11408">
        <ele>1781</ele>
        <time>2021-12-23T09:59:30Z</time>
      </trkpt>
      <trkpt lat="45.26478" lon="6.11409">
        <ele>1781</ele>
        <time>2021-12-23T09:59:32Z</time>
      </trkpt>
      <trkpt lat="45.26478" lon="6.11409">
        <ele>1781</ele>
        <time>2021-12-23T09:59:33Z</time>
      </trkpt>
      <trkpt lat="45.26479" lon="6.1141">
        <ele>1781</ele>
        <time>2021-12-23T09:59:34Z</time>
      </trkpt>
      <trkpt lat="45.26479" lon="6.1141">
        <ele>1781</ele>
        <time>2021-12-23T09:59:35Z</time>
      </trkpt>
      <trkpt lat="45.26479" lon="6.11411">
        <ele>1781</ele>
        <time>2021-12-23T09:59:36Z</time>
      </trkpt>
      <trkpt lat="45.26479" lon="6.11412">
        <ele>1781</ele>
        <time>2021-12-23T09:59:37Z</time>
      </trkpt>
      <trkpt lat="45.26479" lon="6.11412">
        <ele>1781</ele>
        <time>2021-12-23T09:59:38Z</time>
      </trkpt>
      <trkpt lat="45.26479" lon="6.11413">
        <ele>1781</ele>
        <time>2021-12-23T09:59:39Z</time>
      </trkpt>
      <trkpt lat="45.26479" lon="6.11412">
        <ele>1781</ele>
        <time>2021-12-23T09:59:40Z</time>
      </trkpt>
      <trkpt lat="45.2648" lon="6.11412">
        <ele>1781</ele>
        <time>2021-12-23T09:59:41Z</time>
      </trkpt>
      <trkpt lat="45.2648" lon="6.11412">
        <ele>1781</ele>
        <time>2021-12-23T09:59:42Z</time>
      </trkpt>
      <trkpt lat="45.2648" lon="6.11412">
        <ele>1781</ele>
        <time>2021-12-23T09:59:43Z</time>
      </trkpt>
      <trkpt lat="45.2648" lon="6.11412">
        <ele>1781</ele>
        <time>2021-12-23T09:59:44Z</time>
      </trkpt>
      <trkpt lat="45.2648" lon="6.11412">
        <ele>1781</ele>
        <time>2021-12-23T09:59:45Z</time>
      </trkpt>
      <trkpt lat="45.2648" lon="6.11411">
        <ele>1781</ele>
        <time>2021-12-23T09:59:46Z</time>
      </trkpt>
      <trkpt lat="45.2648" lon="6.11411">
        <ele>1781</ele>
        <time>2021-12-23T09:59:47Z</time>
      </trkpt>
      <trkpt lat="45.2648" lon="6.11411">
        <ele>1781</ele>
        <time>2021-12-23T09:59:48Z</time>
      </trkpt>
      <trkpt lat="45.2648" lon="6.11411">
        <ele>1780</ele>
        <time>2021-12-23T09:59:49Z</time>
      </trkpt>
      <trkpt lat="45.2648" lon="6.11411">
        <ele>1780</ele>
        <time>2021-12-23T09:59:51Z</time>
      </trkpt>
      <trkpt lat="45.2648" lon="6.11411">
        <ele>1780</ele>
        <time>2021-12-23T09:59:52Z</time>
      </trkpt>
      <trkpt lat="45.2648" lon="6.1141">
        <ele>1780</ele>
        <time>2021-12-23T09:59:53Z</time>
      </trkpt>
      <trkpt lat="45.2648" lon="6.1141">
        <ele>1780</ele>
        <time>2021-12-23T09:59:54Z</time>
      </trkpt>
      <trkpt lat="45.2648" lon="6.1141">
        <ele>1780</ele>
        <time>2021-12-23T09:59:55Z</time>
      </trkpt>
      <trkpt lat="45.26481" lon="6.1141">
        <ele>1780</ele>
        <time>2021-12-23T09:59:56Z</time>
      </trkpt>
      <trkpt lat="45.26481" lon="6.1141">
        <ele>1780</ele>
        <time>2021-12-23T09:59:57Z</time>
      </trkpt>
      <trkpt lat="45.26481" lon="6.11409">
        <ele>1780</ele>
        <time>2021-12-23T09:59:58Z</time>
      </trkpt>
      <trkpt lat="45.26481" lon="6.11409">
        <ele>1780</ele>
        <time>2021-12-23T09:59:59Z</time>
      </trkpt>
      <trkpt lat="45.26481" lon="6.11409">
        <ele>1780</ele>
        <time>2021-12-23T10:00:00Z</time>
      </trkpt>
      <trkpt lat="45.26481" lon="6.11409">
        <ele>1779</ele>
        <time>2021-12-23T10:00:01Z</time>
      </trkpt>
      <trkpt lat="45.26481" lon="6.11409">
        <ele>1779</ele>
        <time>2021-12-23T10:00:02Z</time>
      </trkpt>
      <trkpt lat="45.26481" lon="6.11409">
        <ele>1779</ele>
        <time>2021-12-23T10:00:03Z</time>
      </trkpt>
      <trkpt lat="45.26481" lon="6.11408">
        <ele>1779</ele>
        <time>2021-12-23T10:00:04Z</time>
      </trkpt>
      <trkpt lat="45.26481" lon="6.11408">
        <ele>1779</ele>
        <time>2021-12-23T10:00:05Z</time>
      </trkpt>
      <trkpt lat="45.26481" lon="6.11408">
        <ele>1779</ele>
        <time>2021-12-23T10:00:06Z</time>
      </trkpt>
      <trkpt lat="45.26481" lon="6.11408">
        <ele>1779</ele>
        <time>2021-12-23T10:00:07Z</time>
      </trkpt>
      <trkpt lat="45.26481" lon="6.11408">
        <ele>1779</ele>
        <time>2021-12-23T10:00:08Z</time>
      </trkpt>
      <trkpt lat="45.26482" lon="6.11408">
        <ele>1779</ele>
        <time>2021-12-23T10:00:10Z</time>
      </trkpt>
      <trkpt lat="45.26482" lon="6.11407">
        <ele>1779</ele>
        <time>2021-12-23T10:00:11Z</time>
      </trkpt>
      <trkpt lat="45.26482" lon="6.11407">
        <ele>1779</ele>
        <time>2021-12-23T10:00:12Z</time>
      </trkpt>
      <trkpt lat="45.26482" lon="6.11407">
        <ele>1779</ele>
        <time>2021-12-23T10:00:13Z</time>
      </trkpt>
      <trkpt lat="45.26482" lon="6.11407">
        <ele>1779</ele>
        <time>2021-12-23T10:00:14Z</time>
      </trkpt>
      <trkpt lat="45.26482" lon="6.11407">
        <ele>1779</ele>
        <time>2021-12-23T10:00:15Z</time>
      </trkpt>
      <trkpt lat="45.26482" lon="6.11407">
        <ele>1779</ele>
        <time>2021-12-23T10:00:16Z</time>
      </trkpt>
      <trkpt lat="45.26482" lon="6.11406">
        <ele>1779</ele>
        <time>2021-12-23T10:00:17Z</time>
      </trkpt>
      <trkpt lat="45.26482" lon="6.11406">
        <ele>1779</ele>
        <time>2021-12-23T10:00:18Z</time>
      </trkpt>
      <trkpt lat="45.26482" lon="6.11406">
        <ele>1779</ele>
        <time>2021-12-23T10:00:19Z</time>
      </trkpt>
      <trkpt lat="45.26482" lon="6.11406">
        <ele>1779</ele>
        <time>2021-12-23T10:00:20Z</time>
      </trkpt>
      <trkpt lat="45.26482" lon="6.11406">
        <ele>1780</ele>
        <time>2021-12-23T10:00:21Z</time>
      </trkpt>
      <trkpt lat="45.26482" lon="6.11406">
        <ele>1780</ele>
        <time>2021-12-23T10:00:22Z</time>
      </trkpt>
      <trkpt lat="45.26483" lon="6.11405">
        <ele>1779</ele>
        <time>2021-12-23T10:00:23Z</time>
      </trkpt>
      <trkpt lat="45.26483" lon="6.11405">
        <ele>1779</ele>
        <time>2021-12-23T10:00:24Z</time>
      </trkpt>
      <trkpt lat="45.26483" lon="6.11405">
        <ele>1779</ele>
        <time>2021-12-23T10:00:25Z</time>
      </trkpt>
      <trkpt lat="45.26483" lon="6.11405">
        <ele>1779</ele>
        <time>2021-12-23T10:00:26Z</time>
      </trkpt>
      <trkpt lat="45.26483" lon="6.11405">
        <ele>1779</ele>
        <time>2021-12-23T10:00:27Z</time>
      </trkpt>
      <trkpt lat="45.26483" lon="6.11405">
        <ele>1779</ele>
        <time>2021-12-23T10:00:29Z</time>
      </trkpt>
      <trkpt lat="45.26483" lon="6.11404">
        <ele>1779</ele>
        <time>2021-12-23T10:00:30Z</time>
      </trkpt>
      <trkpt lat="45.26483" lon="6.11404">
        <ele>1780</ele>
        <time>2021-12-23T10:00:31Z</time>
      </trkpt>
      <trkpt lat="45.26483" lon="6.11404">
        <ele>1780</ele>
        <time>2021-12-23T10:00:32Z</time>
      </trkpt>
      <trkpt lat="45.26483" lon="6.11404">
        <ele>1780</ele>
        <time>2021-12-23T10:00:33Z</time>
      </trkpt>
      <trkpt lat="45.26483" lon="6.11404">
        <ele>1780</ele>
        <time>2021-12-23T10:00:34Z</time>
      </trkpt>
      <trkpt lat="45.26483" lon="6.11404">
        <ele>1780</ele>
        <time>2021-12-23T10:00:35Z</time>
      </trkpt>
      <trkpt lat="45.26483" lon="6.11403">
        <ele>1779</ele>
        <time>2021-12-23T10:00:36Z</time>
      </trkpt>
      <trkpt lat="45.26484" lon="6.11403">
        <ele>1779</ele>
        <time>2021-12-23T10:00:37Z</time>
      </trkpt>
      <trkpt lat="45.26484" lon="6.11403">
        <ele>1779</ele>
        <time>2021-12-23T10:00:38Z</time>
      </trkpt>
      <trkpt lat="45.26484" lon="6.11403">
        <ele>1779</ele>
        <time>2021-12-23T10:00:39Z</time>
      </trkpt>
      <trkpt lat="45.26484" lon="6.11403">
        <ele>1779</ele>
        <time>2021-12-23T10:00:40Z</time>
      </trkpt>
      <trkpt lat="45.26484" lon="6.11403">
        <ele>1779</ele>
        <time>2021-12-23T10:00:41Z</time>
      </trkpt>
      <trkpt lat="45.26484" lon="6.11402">
        <ele>1779</ele>
        <time>2021-12-23T10:00:42Z</time>
      </trkpt>
      <trkpt lat="45.26484" lon="6.11402">
        <ele>1779</ele>
        <time>2021-12-23T10:00:43Z</time>
      </trkpt>
      <trkpt lat="45.26484" lon="6.11402">
        <ele>1779</ele>
        <time>2021-12-23T10:00:44Z</time>
      </trkpt>
      <trkpt lat="45.26484" lon="6.11402">
        <ele>1779</ele>
        <time>2021-12-23T10:00:45Z</time>
      </trkpt>
      <trkpt lat="45.26484" lon="6.11402">
        <ele>1779</ele>
        <time>2021-12-23T10:00:46Z</time>
      </trkpt>
      <trkpt lat="45.26484" lon="6.11402">
        <ele>1780</ele>
        <time>2021-12-23T10:00:48Z</time>
      </trkpt>
      <trkpt lat="45.26484" lon="6.11401">
        <ele>1780</ele>
        <time>2021-12-23T10:00:49Z</time>
      </trkpt>
      <trkpt lat="45.26484" lon="6.11401">
        <ele>1780</ele>
        <time>2021-12-23T10:00:50Z</time>
      </trkpt>
      <trkpt lat="45.26485" lon="6.11401">
        <ele>1780</ele>
        <time>2021-12-23T10:00:51Z</time>
      </trkpt>
      <trkpt lat="45.26485" lon="6.11401">
        <ele>1780</ele>
        <time>2021-12-23T10:00:52Z</time>
      </trkpt>
      <trkpt lat="45.26485" lon="6.11401">
        <ele>1780</ele>
        <time>2021-12-23T10:00:53Z</time>
      </trkpt>
      <trkpt lat="45.26485" lon="6.114">
        <ele>1780</ele>
        <time>2021-12-23T10:00:54Z</time>
      </trkpt>
      <trkpt lat="45.26485" lon="6.11399">
        <ele>1780</ele>
        <time>2021-12-23T10:00:55Z</time>
      </trkpt>
      <trkpt lat="45.26485" lon="6.11399">
        <ele>1780</ele>
        <time>2021-12-23T10:00:56Z</time>
      </trkpt>
      <trkpt lat="45.26485" lon="6.11398">
        <ele>1780</ele>
        <time>2021-12-23T10:00:57Z</time>
      </trkpt>
      <trkpt lat="45.26485" lon="6.11397">
        <ele>1780</ele>
        <time>2021-12-23T10:00:58Z</time>
      </trkpt>
      <trkpt lat="45.26485" lon="6.11397">
        <ele>1781</ele>
        <time>2021-12-23T10:00:59Z</time>
      </trkpt>
      <trkpt lat="45.26485" lon="6.11396">
        <ele>1781</ele>
        <time>2021-12-23T10:01:00Z</time>
      </trkpt>
      <trkpt lat="45.26484" lon="6.11396">
        <ele>1781</ele>
        <time>2021-12-23T10:01:01Z</time>
      </trkpt>
      <trkpt lat="45.26484" lon="6.11395">
        <ele>1781</ele>
        <time>2021-12-23T10:01:02Z</time>
      </trkpt>
      <trkpt lat="45.26484" lon="6.11394">
        <ele>1781</ele>
        <time>2021-12-23T10:01:03Z</time>
      </trkpt>
      <trkpt lat="45.26484" lon="6.11394">
        <ele>1781</ele>
        <time>2021-12-23T10:01:04Z</time>
      </trkpt>
      <trkpt lat="45.26484" lon="6.11393">
        <ele>1781</ele>
        <time>2021-12-23T10:01:05Z</time>
      </trkpt>
      <trkpt lat="45.26484" lon="6.11392">
        <ele>1781</ele>
        <time>2021-12-23T10:01:07Z</time>
      </trkpt>
      <trkpt lat="45.26484" lon="6.11392">
        <ele>1781</ele>
        <time>2021-12-23T10:01:08Z</time>
      </trkpt>
      <trkpt lat="45.26484" lon="6.11391">
        <ele>1782</ele>
        <time>2021-12-23T10:01:09Z</time>
      </trkpt>
      <trkpt lat="45.26484" lon="6.1139">
        <ele>1782</ele>
        <time>2021-12-23T10:01:10Z</time>
      </trkpt>
      <trkpt lat="45.26484" lon="6.1139">
        <ele>1782</ele>
        <time>2021-12-23T10:01:11Z</time>
      </trkpt>
      <trkpt lat="45.26484" lon="6.11389">
        <ele>1783</ele>
        <time>2021-12-23T10:01:12Z</time>
      </trkpt>
      <trkpt lat="45.26484" lon="6.11389">
        <ele>1783</ele>
        <time>2021-12-23T10:01:13Z</time>
      </trkpt>
      <trkpt lat="45.26484" lon="6.11388">
        <ele>1782</ele>
        <time>2021-12-23T10:01:14Z</time>
      </trkpt>
      <trkpt lat="45.26484" lon="6.11387">
        <ele>1782</ele>
        <time>2021-12-23T10:01:15Z</time>
      </trkpt>
      <trkpt lat="45.26484" lon="6.11387">
        <ele>1782</ele>
        <time>2021-12-23T10:01:16Z</time>
      </trkpt>
      <trkpt lat="45.26484" lon="6.11386">
        <ele>1782</ele>
        <time>2021-12-23T10:01:17Z</time>
      </trkpt>
      <trkpt lat="45.26484" lon="6.11385">
        <ele>1782</ele>
        <time>2021-12-23T10:01:18Z</time>
      </trkpt>
      <trkpt lat="45.26484" lon="6.11385">
        <ele>1782</ele>
        <time>2021-12-23T10:01:19Z</time>
      </trkpt>
      <trkpt lat="45.26484" lon="6.11384">
        <ele>1782</ele>
        <time>2021-12-23T10:01:20Z</time>
      </trkpt>
      <trkpt lat="45.26484" lon="6.11383">
        <ele>1782</ele>
        <time>2021-12-23T10:01:21Z</time>
      </trkpt>
      <trkpt lat="45.26484" lon="6.11383">
        <ele>1782</ele>
        <time>2021-12-23T10:01:22Z</time>
      </trkpt>
      <trkpt lat="45.26484" lon="6.11382">
        <ele>1782</ele>
        <time>2021-12-23T10:01:23Z</time>
      </trkpt>
      <trkpt lat="45.26484" lon="6.11382">
        <ele>1782</ele>
        <time>2021-12-23T10:01:24Z</time>
      </trkpt>
      <trkpt lat="45.26484" lon="6.11381">
        <ele>1782</ele>
        <time>2021-12-23T10:01:26Z</time>
      </trkpt>
      <trkpt lat="45.26484" lon="6.1138">
        <ele>1782</ele>
        <time>2021-12-23T10:01:27Z</time>
      </trkpt>
      <trkpt lat="45.26484" lon="6.1138">
        <ele>1782</ele>
        <time>2021-12-23T10:01:28Z</time>
      </trkpt>
      <trkpt lat="45.26484" lon="6.11379">
        <ele>1782</ele>
        <time>2021-12-23T10:01:29Z</time>
      </trkpt>
      <trkpt lat="45.26484" lon="6.11378">
        <ele>1782</ele>
        <time>2021-12-23T10:01:30Z</time>
      </trkpt>
      <trkpt lat="45.26484" lon="6.11378">
        <ele>1782</ele>
        <time>2021-12-23T10:01:31Z</time>
      </trkpt>
      <trkpt lat="45.26484" lon="6.11377">
        <ele>1782</ele>
        <time>2021-12-23T10:01:32Z</time>
      </trkpt>
      <trkpt lat="45.26484" lon="6.11376">
        <ele>1782</ele>
        <time>2021-12-23T10:01:33Z</time>
      </trkpt>
      <trkpt lat="45.26484" lon="6.11376">
        <ele>1782</ele>
        <time>2021-12-23T10:01:35Z</time>
      </trkpt>
      <trkpt lat="45.26484" lon="6.11376">
        <ele>1782</ele>
        <time>2021-12-23T10:01:36Z</time>
      </trkpt>
      <trkpt lat="45.26484" lon="6.11376">
        <ele>1782</ele>
        <time>2021-12-23T10:01:37Z</time>
      </trkpt>
      <trkpt lat="45.26484" lon="6.11376">
        <ele>1782</ele>
        <time>2021-12-23T10:01:38Z</time>
      </trkpt>
      <trkpt lat="45.26484" lon="6.11376">
        <ele>1783</ele>
        <time>2021-12-23T10:01:39Z</time>
      </trkpt>
      <trkpt lat="45.26484" lon="6.11376">
        <ele>1783</ele>
        <time>2021-12-23T10:01:40Z</time>
      </trkpt>
      <trkpt lat="45.26484" lon="6.11376">
        <ele>1783</ele>
        <time>2021-12-23T10:01:41Z</time>
      </trkpt>
      <trkpt lat="45.26484" lon="6.11376">
        <ele>1783</ele>
        <time>2021-12-23T10:01:42Z</time>
      </trkpt>
      <trkpt lat="45.26484" lon="6.11376">
        <ele>1783</ele>
        <time>2021-12-23T10:01:43Z</time>
      </trkpt>
      <trkpt lat="45.26485" lon="6.11376">
        <ele>1782</ele>
        <time>2021-12-23T10:01:45Z</time>
      </trkpt>
      <trkpt lat="45.26485" lon="6.11376">
        <ele>1781</ele>
        <time>2021-12-23T10:01:46Z</time>
      </trkpt>
      <trkpt lat="45.26485" lon="6.11377">
        <ele>1781</ele>
        <time>2021-12-23T10:01:47Z</time>
      </trkpt>
      <trkpt lat="45.26485" lon="6.11377">
        <ele>1781</ele>
        <time>2021-12-23T10:01:48Z</time>
      </trkpt>
      <trkpt lat="45.26485" lon="6.11377">
        <ele>1781</ele>
        <time>2021-12-23T10:01:49Z</time>
      </trkpt>
      <trkpt lat="45.26485" lon="6.11377">
        <ele>1781</ele>
        <time>2021-12-23T10:01:50Z</time>
      </trkpt>
      <trkpt lat="45.26485" lon="6.11377">
        <ele>1781</ele>
        <time>2021-12-23T10:01:51Z</time>
      </trkpt>
      <trkpt lat="45.26485" lon="6.11377">
        <ele>1781</ele>
        <time>2021-12-23T10:01:52Z</time>
      </trkpt>
      <trkpt lat="45.26485" lon="6.11377">
        <ele>1781</ele>
        <time>2021-12-23T10:01:53Z</time>
      </trkpt>
      <trkpt lat="45.26485" lon="6.11377">
        <ele>1781</ele>
        <time>2021-12-23T10:01:54Z</time>
      </trkpt>
      <trkpt lat="45.26485" lon="6.11377">
        <ele>1781</ele>
        <time>2021-12-23T10:01:55Z</time>
      </trkpt>
      <trkpt lat="45.26485" lon="6.11377">
        <ele>1780</ele>
        <time>2021-12-23T10:01:56Z</time>
      </trkpt>
      <trkpt lat="45.26485" lon="6.11377">
        <ele>1780</ele>
        <time>2021-12-23T10:01:57Z</time>
      </trkpt>
      <trkpt lat="45.26485" lon="6.11377">
        <ele>1780</ele>
        <time>2021-12-23T10:01:58Z</time>
      </trkpt>
      <trkpt lat="45.26485" lon="6.11377">
        <ele>1780</ele>
        <time>2021-12-23T10:01:59Z</time>
      </trkpt>
      <trkpt lat="45.26486" lon="6.11377">
        <ele>1780</ele>
        <time>2021-12-23T10:02:00Z</time>
      </trkpt>
      <trkpt lat="45.26486" lon="6.11377">
        <ele>1780</ele>
        <time>2021-12-23T10:02:01Z</time>
      </trkpt>
      <trkpt lat="45.26486" lon="6.11377">
        <ele>1780</ele>
        <time>2021-12-23T10:02:02Z</time>
      </trkpt>
      <trkpt lat="45.26486" lon="6.11378">
        <ele>1779</ele>
        <time>2021-12-23T10:02:04Z</time>
      </trkpt>
      <trkpt lat="45.26486" lon="6.11378">
        <ele>1779</ele>
        <time>2021-12-23T10:02:05Z</time>
      </trkpt>
      <trkpt lat="45.26486" lon="6.11378">
        <ele>1779</ele>
        <time>2021-12-23T10:02:06Z</time>
      </trkpt>
      <trkpt lat="45.26486" lon="6.11378">
        <ele>1779</ele>
        <time>2021-12-23T10:02:07Z</time>
      </trkpt>
      <trkpt lat="45.26486" lon="6.11378">
        <ele>1779</ele>
        <time>2021-12-23T10:02:08Z</time>
      </trkpt>
      <trkpt lat="45.26486" lon="6.11378">
        <ele>1779</ele>
        <time>2021-12-23T10:02:09Z</time>
      </trkpt>
      <trkpt lat="45.26486" lon="6.11378">
        <ele>1779</ele>
        <time>2021-12-23T10:02:10Z</time>
      </trkpt>
      <trkpt lat="45.26486" lon="6.11378">
        <ele>1779</ele>
        <time>2021-12-23T10:02:11Z</time>
      </trkpt>
      <trkpt lat="45.26486" lon="6.11378">
        <ele>1779</ele>
        <time>2021-12-23T10:02:12Z</time>
      </trkpt>
      <trkpt lat="45.26486" lon="6.11378">
        <ele>1779</ele>
        <time>2021-12-23T10:02:13Z</time>
      </trkpt>
      <trkpt lat="45.26486" lon="6.11378">
        <ele>1779</ele>
        <time>2021-12-23T10:02:14Z</time>
      </trkpt>
      <trkpt lat="45.26486" lon="6.11378">
        <ele>1779</ele>
        <time>2021-12-23T10:02:15Z</time>
      </trkpt>
      <trkpt lat="45.26487" lon="6.11378">
        <ele>1779</ele>
        <time>2021-12-23T10:02:16Z</time>
      </trkpt>
      <trkpt lat="45.26487" lon="6.11378">
        <ele>1779</ele>
        <time>2021-12-23T10:02:17Z</time>
      </trkpt>
      <trkpt lat="45.26487" lon="6.11378">
        <ele>1779</ele>
        <time>2021-12-23T10:02:18Z</time>
      </trkpt>
      <trkpt lat="45.26487" lon="6.11379">
        <ele>1779</ele>
        <time>2021-12-23T10:02:19Z</time>
      </trkpt>
      <trkpt lat="45.26487" lon="6.11379">
        <ele>1779</ele>
        <time>2021-12-23T10:02:20Z</time>
      </trkpt>
      <trkpt lat="45.26487" lon="6.11379">
        <ele>1779</ele>
        <time>2021-12-23T10:02:21Z</time>
      </trkpt>
      <trkpt lat="45.26487" lon="6.11379">
        <ele>1779</ele>
        <time>2021-12-23T10:02:23Z</time>
      </trkpt>
      <trkpt lat="45.26487" lon="6.11379">
        <ele>1779</ele>
        <time>2021-12-23T10:02:24Z</time>
      </trkpt>
      <trkpt lat="45.26487" lon="6.11379">
        <ele>1779</ele>
        <time>2021-12-23T10:02:25Z</time>
      </trkpt>
      <trkpt lat="45.26487" lon="6.11379">
        <ele>1779</ele>
        <time>2021-12-23T10:02:26Z</time>
      </trkpt>
      <trkpt lat="45.26487" lon="6.11379">
        <ele>1779</ele>
        <time>2021-12-23T10:02:27Z</time>
      </trkpt>
      <trkpt lat="45.26487" lon="6.11379">
        <ele>1779</ele>
        <time>2021-12-23T10:02:28Z</time>
      </trkpt>
      <trkpt lat="45.26487" lon="6.11379">
        <ele>1779</ele>
        <time>2021-12-23T10:02:29Z</time>
      </trkpt>
      <trkpt lat="45.26487" lon="6.11379">
        <ele>1779</ele>
        <time>2021-12-23T10:02:30Z</time>
      </trkpt>
      <trkpt lat="45.26487" lon="6.11379">
        <ele>1779</ele>
        <time>2021-12-23T10:02:31Z</time>
      </trkpt>
      <trkpt lat="45.26488" lon="6.11379">
        <ele>1779</ele>
        <time>2021-12-23T10:02:32Z</time>
      </trkpt>
      <trkpt lat="45.26488" lon="6.11379">
        <ele>1779</ele>
        <time>2021-12-23T10:02:33Z</time>
      </trkpt>
      <trkpt lat="45.26488" lon="6.11379">
        <ele>1779</ele>
        <time>2021-12-23T10:02:34Z</time>
      </trkpt>
      <trkpt lat="45.26488" lon="6.1138">
        <ele>1779</ele>
        <time>2021-12-23T10:02:35Z</time>
      </trkpt>
      <trkpt lat="45.26488" lon="6.1138">
        <ele>1779</ele>
        <time>2021-12-23T10:02:36Z</time>
      </trkpt>
      <trkpt lat="45.26488" lon="6.1138">
        <ele>1779</ele>
        <time>2021-12-23T10:02:37Z</time>
      </trkpt>
      <trkpt lat="45.26488" lon="6.1138">
        <ele>1779</ele>
        <time>2021-12-23T10:02:38Z</time>
      </trkpt>
      <trkpt lat="45.26488" lon="6.1138">
        <ele>1779</ele>
        <time>2021-12-23T10:02:39Z</time>
      </trkpt>
      <trkpt lat="45.26488" lon="6.1138">
        <ele>1779</ele>
        <time>2021-12-23T10:02:40Z</time>
      </trkpt>
      <trkpt lat="45.26488" lon="6.1138">
        <ele>1779</ele>
        <time>2021-12-23T10:02:42Z</time>
      </trkpt>
      <trkpt lat="45.26488" lon="6.1138">
        <ele>1779</ele>
        <time>2021-12-23T10:02:43Z</time>
      </trkpt>
      <trkpt lat="45.26488" lon="6.1138">
        <ele>1779</ele>
        <time>2021-12-23T10:02:44Z</time>
      </trkpt>
      <trkpt lat="45.26488" lon="6.1138">
        <ele>1779</ele>
        <time>2021-12-23T10:02:45Z</time>
      </trkpt>
      <trkpt lat="45.26488" lon="6.1138">
        <ele>1779</ele>
        <time>2021-12-23T10:02:46Z</time>
      </trkpt>
      <trkpt lat="45.26488" lon="6.1138">
        <ele>1779</ele>
        <time>2021-12-23T10:02:47Z</time>
      </trkpt>
      <trkpt lat="45.26489" lon="6.1138">
        <ele>1779</ele>
        <time>2021-12-23T10:02:48Z</time>
      </trkpt>
      <trkpt lat="45.26489" lon="6.1138">
        <ele>1779</ele>
        <time>2021-12-23T10:02:49Z</time>
      </trkpt>
      <trkpt lat="45.26489" lon="6.1138">
        <ele>1779</ele>
        <time>2021-12-23T10:02:50Z</time>
      </trkpt>
      <trkpt lat="45.26489" lon="6.1138">
        <ele>1779</ele>
        <time>2021-12-23T10:02:51Z</time>
      </trkpt>
      <trkpt lat="45.26489" lon="6.11381">
        <ele>1780</ele>
        <time>2021-12-23T10:02:52Z</time>
      </trkpt>
      <trkpt lat="45.26489" lon="6.11381">
        <ele>1780</ele>
        <time>2021-12-23T10:02:53Z</time>
      </trkpt>
      <trkpt lat="45.26489" lon="6.11381">
        <ele>1779</ele>
        <time>2021-12-23T10:02:54Z</time>
      </trkpt>
      <trkpt lat="45.26489" lon="6.11381">
        <ele>1779</ele>
        <time>2021-12-23T10:02:55Z</time>
      </trkpt>
      <trkpt lat="45.26489" lon="6.11381">
        <ele>1780</ele>
        <time>2021-12-23T10:02:56Z</time>
      </trkpt>
      <trkpt lat="45.26489" lon="6.11381">
        <ele>1780</ele>
        <time>2021-12-23T10:02:57Z</time>
      </trkpt>
      <trkpt lat="45.26489" lon="6.11381">
        <ele>1780</ele>
        <time>2021-12-23T10:02:58Z</time>
      </trkpt>
      <trkpt lat="45.26489" lon="6.11381">
        <ele>1779</ele>
        <time>2021-12-23T10:02:59Z</time>
      </trkpt>
      <trkpt lat="45.26489" lon="6.11381">
        <ele>1779</ele>
        <time>2021-12-23T10:03:01Z</time>
      </trkpt>
      <trkpt lat="45.26489" lon="6.11381">
        <ele>1779</ele>
        <time>2021-12-23T10:03:02Z</time>
      </trkpt>
      <trkpt lat="45.26489" lon="6.11381">
        <ele>1779</ele>
        <time>2021-12-23T10:03:03Z</time>
      </trkpt>
      <trkpt lat="45.2649" lon="6.11381">
        <ele>1779</ele>
        <time>2021-12-23T10:03:04Z</time>
      </trkpt>
      <trkpt lat="45.2649" lon="6.11381">
        <ele>1779</ele>
        <time>2021-12-23T10:03:06Z</time>
      </trkpt>
      <trkpt lat="45.2649" lon="6.11381">
        <ele>1779</ele>
        <time>2021-12-23T10:03:07Z</time>
      </trkpt>
      <trkpt lat="45.2649" lon="6.11381">
        <ele>1779</ele>
        <time>2021-12-23T10:03:08Z</time>
      </trkpt>
      <trkpt lat="45.2649" lon="6.11382">
        <ele>1779</ele>
        <time>2021-12-23T10:03:09Z</time>
      </trkpt>
      <trkpt lat="45.2649" lon="6.11382">
        <ele>1779</ele>
        <time>2021-12-23T10:03:10Z</time>
      </trkpt>
      <trkpt lat="45.2649" lon="6.11382">
        <ele>1779</ele>
        <time>2021-12-23T10:03:11Z</time>
      </trkpt>
      <trkpt lat="45.2649" lon="6.11382">
        <ele>1779</ele>
        <time>2021-12-23T10:03:12Z</time>
      </trkpt>
      <trkpt lat="45.2649" lon="6.11382">
        <ele>1779</ele>
        <time>2021-12-23T10:03:13Z</time>
      </trkpt>
      <trkpt lat="45.2649" lon="6.11382">
        <ele>1779</ele>
        <time>2021-12-23T10:03:14Z</time>
      </trkpt>
      <trkpt lat="45.2649" lon="6.11382">
        <ele>1779</ele>
        <time>2021-12-23T10:03:15Z</time>
      </trkpt>
      <trkpt lat="45.2649" lon="6.11382">
        <ele>1779</ele>
        <time>2021-12-23T10:03:16Z</time>
      </trkpt>
      <trkpt lat="45.2649" lon="6.11382">
        <ele>1779</ele>
        <time>2021-12-23T10:03:17Z</time>
      </trkpt>
      <trkpt lat="45.2649" lon="6.11382">
        <ele>1779</ele>
        <time>2021-12-23T10:03:18Z</time>
      </trkpt>
      <trkpt lat="45.2649" lon="6.11382">
        <ele>1779</ele>
        <time>2021-12-23T10:03:20Z</time>
      </trkpt>
      <trkpt lat="45.26491" lon="6.11382">
        <ele>1779</ele>
        <time>2021-12-23T10:03:21Z</time>
      </trkpt>
      <trkpt lat="45.26491" lon="6.11382">
        <ele>1779</ele>
        <time>2021-12-23T10:03:22Z</time>
      </trkpt>
      <trkpt lat="45.26491" lon="6.11382">
        <ele>1780</ele>
        <time>2021-12-23T10:03:23Z</time>
      </trkpt>
      <trkpt lat="45.26491" lon="6.11382">
        <ele>1780</ele>
        <time>2021-12-23T10:03:24Z</time>
      </trkpt>
      <trkpt lat="45.26491" lon="6.11383">
        <ele>1780</ele>
        <time>2021-12-23T10:03:25Z</time>
      </trkpt>
      <trkpt lat="45.26491" lon="6.11383">
        <ele>1780</ele>
        <time>2021-12-23T10:03:26Z</time>
      </trkpt>
      <trkpt lat="45.26491" lon="6.11383">
        <ele>1779</ele>
        <time>2021-12-23T10:03:27Z</time>
      </trkpt>
      <trkpt lat="45.26491" lon="6.11383">
        <ele>1779</ele>
        <time>2021-12-23T10:03:28Z</time>
      </trkpt>
      <trkpt lat="45.26491" lon="6.11383">
        <ele>1779</ele>
        <time>2021-12-23T10:03:29Z</time>
      </trkpt>
      <trkpt lat="45.26491" lon="6.11383">
        <ele>1779</ele>
        <time>2021-12-23T10:03:30Z</time>
      </trkpt>
      <trkpt lat="45.26491" lon="6.11383">
        <ele>1779</ele>
        <time>2021-12-23T10:03:31Z</time>
      </trkpt>
      <trkpt lat="45.26491" lon="6.11384">
        <ele>1779</ele>
        <time>2021-12-23T10:03:32Z</time>
      </trkpt>
      <trkpt lat="45.26491" lon="6.11385">
        <ele>1779</ele>
        <time>2021-12-23T10:03:33Z</time>
      </trkpt>
      <trkpt lat="45.26491" lon="6.11386">
        <ele>1779</ele>
        <time>2021-12-23T10:03:34Z</time>
      </trkpt>
      <trkpt lat="45.26491" lon="6.11387">
        <ele>1779</ele>
        <time>2021-12-23T10:03:35Z</time>
      </trkpt>
      <trkpt lat="45.26492" lon="6.11388">
        <ele>1779</ele>
        <time>2021-12-23T10:03:36Z</time>
      </trkpt>
      <trkpt lat="45.26492" lon="6.11389">
        <ele>1779</ele>
        <time>2021-12-23T10:03:37Z</time>
      </trkpt>
      <trkpt lat="45.26492" lon="6.1139">
        <ele>1779</ele>
        <time>2021-12-23T10:03:39Z</time>
      </trkpt>
      <trkpt lat="45.26492" lon="6.11391">
        <ele>1779</ele>
        <time>2021-12-23T10:03:40Z</time>
      </trkpt>
      <trkpt lat="45.26492" lon="6.11392">
        <ele>1779</ele>
        <time>2021-12-23T10:03:41Z</time>
      </trkpt>
      <trkpt lat="45.26492" lon="6.11393">
        <ele>1780</ele>
        <time>2021-12-23T10:03:42Z</time>
      </trkpt>
      <trkpt lat="45.26492" lon="6.11394">
        <ele>1780</ele>
        <time>2021-12-23T10:03:43Z</time>
      </trkpt>
      <trkpt lat="45.26492" lon="6.11395">
        <ele>1780</ele>
        <time>2021-12-23T10:03:44Z</time>
      </trkpt>
      <trkpt lat="45.26492" lon="6.11396">
        <ele>1780</ele>
        <time>2021-12-23T10:03:45Z</time>
      </trkpt>
      <trkpt lat="45.26492" lon="6.11397">
        <ele>1780</ele>
        <time>2021-12-23T10:03:46Z</time>
      </trkpt>
      <trkpt lat="45.26492" lon="6.11398">
        <ele>1780</ele>
        <time>2021-12-23T10:03:47Z</time>
      </trkpt>
      <trkpt lat="45.26492" lon="6.11399">
        <ele>1780</ele>
        <time>2021-12-23T10:03:48Z</time>
      </trkpt>
      <trkpt lat="45.26492" lon="6.114">
        <ele>1780</ele>
        <time>2021-12-23T10:03:49Z</time>
      </trkpt>
      <trkpt lat="45.26492" lon="6.11401">
        <ele>1780</ele>
        <time>2021-12-23T10:03:50Z</time>
      </trkpt>
      <trkpt lat="45.26492" lon="6.11402">
        <ele>1780</ele>
        <time>2021-12-23T10:03:51Z</time>
      </trkpt>
      <trkpt lat="45.26492" lon="6.11403">
        <ele>1780</ele>
        <time>2021-12-23T10:03:52Z</time>
      </trkpt>
      <trkpt lat="45.26492" lon="6.11403">
        <ele>1780</ele>
        <time>2021-12-23T10:03:53Z</time>
      </trkpt>
      <trkpt lat="45.26491" lon="6.11404">
        <ele>1780</ele>
        <time>2021-12-23T10:03:54Z</time>
      </trkpt>
      <trkpt lat="45.26491" lon="6.11404">
        <ele>1780</ele>
        <time>2021-12-23T10:03:55Z</time>
      </trkpt>
      <trkpt lat="45.2649" lon="6.11404">
        <ele>1780</ele>
        <time>2021-12-23T10:03:56Z</time>
      </trkpt>
      <trkpt lat="45.2649" lon="6.11405">
        <ele>1780</ele>
        <time>2021-12-23T10:03:58Z</time>
      </trkpt>
      <trkpt lat="45.26489" lon="6.11405">
        <ele>1780</ele>
        <time>2021-12-23T10:03:59Z</time>
      </trkpt>
      <trkpt lat="45.26489" lon="6.11406">
        <ele>1780</ele>
        <time>2021-12-23T10:04:00Z</time>
      </trkpt>
      <trkpt lat="45.26488" lon="6.11406">
        <ele>1780</ele>
        <time>2021-12-23T10:04:01Z</time>
      </trkpt>
      <trkpt lat="45.26487" lon="6.11406">
        <ele>1780</ele>
        <time>2021-12-23T10:04:02Z</time>
      </trkpt>
      <trkpt lat="45.26487" lon="6.11407">
        <ele>1780</ele>
        <time>2021-12-23T10:04:03Z</time>
      </trkpt>
      <trkpt lat="45.26486" lon="6.11407">
        <ele>1780</ele>
        <time>2021-12-23T10:04:04Z</time>
      </trkpt>
      <trkpt lat="45.26486" lon="6.11407">
        <ele>1780</ele>
        <time>2021-12-23T10:04:05Z</time>
      </trkpt>
      <trkpt lat="45.26485" lon="6.11408">
        <ele>1780</ele>
        <time>2021-12-23T10:04:06Z</time>
      </trkpt>
      <trkpt lat="45.26485" lon="6.11408">
        <ele>1780</ele>
        <time>2021-12-23T10:04:07Z</time>
      </trkpt>
      <trkpt lat="45.26484" lon="6.11409">
        <ele>1780</ele>
        <time>2021-12-23T10:04:08Z</time>
      </trkpt>
      <trkpt lat="45.26483" lon="6.11409">
        <ele>1780</ele>
        <time>2021-12-23T10:04:09Z</time>
      </trkpt>
      <trkpt lat="45.26483" lon="6.1141">
        <ele>1780</ele>
        <time>2021-12-23T10:04:10Z</time>
      </trkpt>
      <trkpt lat="45.26483" lon="6.11411">
        <ele>1780</ele>
        <time>2021-12-23T10:04:11Z</time>
      </trkpt>
      <trkpt lat="45.26483" lon="6.11412">
        <ele>1780</ele>
        <time>2021-12-23T10:04:12Z</time>
      </trkpt>
      <trkpt lat="45.26483" lon="6.11413">
        <ele>1780</ele>
        <time>2021-12-23T10:04:13Z</time>
      </trkpt>
      <trkpt lat="45.26483" lon="6.11414">
        <ele>1780</ele>
        <time>2021-12-23T10:04:14Z</time>
      </trkpt>
      <trkpt lat="45.26483" lon="6.11415">
        <ele>1780</ele>
        <time>2021-12-23T10:04:15Z</time>
      </trkpt>
      <trkpt lat="45.26483" lon="6.11415">
        <ele>1780</ele>
        <time>2021-12-23T10:04:17Z</time>
      </trkpt>
      <trkpt lat="45.26483" lon="6.11416">
        <ele>1780</ele>
        <time>2021-12-23T10:04:18Z</time>
      </trkpt>
      <trkpt lat="45.26483" lon="6.11417">
        <ele>1780</ele>
        <time>2021-12-23T10:04:19Z</time>
      </trkpt>
      <trkpt lat="45.26483" lon="6.11418">
        <ele>1780</ele>
        <time>2021-12-23T10:04:20Z</time>
      </trkpt>
      <trkpt lat="45.26483" lon="6.11419">
        <ele>1780</ele>
        <time>2021-12-23T10:04:21Z</time>
      </trkpt>
      <trkpt lat="45.26483" lon="6.1142">
        <ele>1780</ele>
        <time>2021-12-23T10:04:22Z</time>
      </trkpt>
      <trkpt lat="45.26483" lon="6.11421">
        <ele>1780</ele>
        <time>2021-12-23T10:04:23Z</time>
      </trkpt>
      <trkpt lat="45.26483" lon="6.11422">
        <ele>1780</ele>
        <time>2021-12-23T10:04:24Z</time>
      </trkpt>
      <trkpt lat="45.26483" lon="6.11423">
        <ele>1780</ele>
        <time>2021-12-23T10:04:25Z</time>
      </trkpt>
      <trkpt lat="45.26483" lon="6.11424">
        <ele>1780</ele>
        <time>2021-12-23T10:04:26Z</time>
      </trkpt>
      <trkpt lat="45.26483" lon="6.11423">
        <ele>1780</ele>
        <time>2021-12-23T10:04:27Z</time>
      </trkpt>
      <trkpt lat="45.26483" lon="6.11423">
        <ele>1780</ele>
        <time>2021-12-23T10:04:28Z</time>
      </trkpt>
      <trkpt lat="45.26483" lon="6.11422">
        <ele>1780</ele>
        <time>2021-12-23T10:04:29Z</time>
      </trkpt>
      <trkpt lat="45.26483" lon="6.11422">
        <ele>1779</ele>
        <time>2021-12-23T10:04:30Z</time>
      </trkpt>
      <trkpt lat="45.26483" lon="6.11421">
        <ele>1779</ele>
        <time>2021-12-23T10:04:31Z</time>
      </trkpt>
      <trkpt lat="45.26483" lon="6.1142">
        <ele>1779</ele>
        <time>2021-12-23T10:04:32Z</time>
      </trkpt>
      <trkpt lat="45.26483" lon="6.1142">
        <ele>1779</ele>
        <time>2021-12-23T10:04:33Z</time>
      </trkpt>
      <trkpt lat="45.26483" lon="6.11419">
        <ele>1779</ele>
        <time>2021-12-23T10:04:34Z</time>
      </trkpt>
      <trkpt lat="45.26483" lon="6.11419">
        <ele>1779</ele>
        <time>2021-12-23T10:04:36Z</time>
      </trkpt>
      <trkpt lat="45.26483" lon="6.11418">
        <ele>1779</ele>
        <time>2021-12-23T10:04:37Z</time>
      </trkpt>
      <trkpt lat="45.26483" lon="6.11418">
        <ele>1779</ele>
        <time>2021-12-23T10:04:38Z</time>
      </trkpt>
      <trkpt lat="45.26483" lon="6.11417">
        <ele>1779</ele>
        <time>2021-12-23T10:04:39Z</time>
      </trkpt>
      <trkpt lat="45.26483" lon="6.11417">
        <ele>1779</ele>
        <time>2021-12-23T10:04:40Z</time>
      </trkpt>
      <trkpt lat="45.26483" lon="6.11416">
        <ele>1779</ele>
        <time>2021-12-23T10:04:41Z</time>
      </trkpt>
      <trkpt lat="45.26483" lon="6.11415">
        <ele>1779</ele>
        <time>2021-12-23T10:04:42Z</time>
      </trkpt>
      <trkpt lat="45.26482" lon="6.11415">
        <ele>1779</ele>
        <time>2021-12-23T10:04:43Z</time>
      </trkpt>
      <trkpt lat="45.26482" lon="6.11414">
        <ele>1779</ele>
        <time>2021-12-23T10:04:44Z</time>
      </trkpt>
      <trkpt lat="45.26482" lon="6.11414">
        <ele>1779</ele>
        <time>2021-12-23T10:04:45Z</time>
      </trkpt>
      <trkpt lat="45.26482" lon="6.11413">
        <ele>1779</ele>
        <time>2021-12-23T10:04:46Z</time>
      </trkpt>
      <trkpt lat="45.26482" lon="6.11413">
        <ele>1779</ele>
        <time>2021-12-23T10:04:47Z</time>
      </trkpt>
      <trkpt lat="45.26482" lon="6.11412">
        <ele>1779</ele>
        <time>2021-12-23T10:04:48Z</time>
      </trkpt>
      <trkpt lat="45.26482" lon="6.11412">
        <ele>1779</ele>
        <time>2021-12-23T10:04:49Z</time>
      </trkpt>
      <trkpt lat="45.26482" lon="6.11411">
        <ele>1779</ele>
        <time>2021-12-23T10:04:50Z</time>
      </trkpt>
      <trkpt lat="45.26482" lon="6.1141">
        <ele>1779</ele>
        <time>2021-12-23T10:04:51Z</time>
      </trkpt>
      <trkpt lat="45.26482" lon="6.1141">
        <ele>1779</ele>
        <time>2021-12-23T10:04:52Z</time>
      </trkpt>
      <trkpt lat="45.26482" lon="6.11409">
        <ele>1779</ele>
        <time>2021-12-23T10:04:53Z</time>
      </trkpt>
      <trkpt lat="45.26482" lon="6.11409">
        <ele>1779</ele>
        <time>2021-12-23T10:04:55Z</time>
      </trkpt>
      <trkpt lat="45.26482" lon="6.11408">
        <ele>1779</ele>
        <time>2021-12-23T10:04:56Z</time>
      </trkpt>
      <trkpt lat="45.26482" lon="6.11408">
        <ele>1779</ele>
        <time>2021-12-23T10:04:57Z</time>
      </trkpt>
      <trkpt lat="45.26482" lon="6.11407">
        <ele>1779</ele>
        <time>2021-12-23T10:04:58Z</time>
      </trkpt>
      <trkpt lat="45.26482" lon="6.11407">
        <ele>1779</ele>
        <time>2021-12-23T10:04:59Z</time>
      </trkpt>
      <trkpt lat="45.26482" lon="6.11406">
        <ele>1779</ele>
        <time>2021-12-23T10:05:00Z</time>
      </trkpt>
      <trkpt lat="45.26482" lon="6.11405">
        <ele>1779</ele>
        <time>2021-12-23T10:05:01Z</time>
      </trkpt>
      <trkpt lat="45.26482" lon="6.11405">
        <ele>1779</ele>
        <time>2021-12-23T10:05:02Z</time>
      </trkpt>
      <trkpt lat="45.26482" lon="6.11404">
        <ele>1779</ele>
        <time>2021-12-23T10:05:04Z</time>
      </trkpt>
      <trkpt lat="45.26482" lon="6.11404">
        <ele>1779</ele>
        <time>2021-12-23T10:05:05Z</time>
      </trkpt>
      <trkpt lat="45.26481" lon="6.11406">
        <ele>1780</ele>
        <time>2021-12-23T10:05:06Z</time>
      </trkpt>
      <trkpt lat="45.2648" lon="6.11407">
        <ele>1780</ele>
        <time>2021-12-23T10:05:07Z</time>
      </trkpt>
      <trkpt lat="45.26479" lon="6.11409">
        <ele>1780</ele>
        <time>2021-12-23T10:05:08Z</time>
      </trkpt>
      <trkpt lat="45.26478" lon="6.11411">
        <ele>1780</ele>
        <time>2021-12-23T10:05:09Z</time>
      </trkpt>
      <trkpt lat="45.26477" lon="6.11412">
        <ele>1780</ele>
        <time>2021-12-23T10:05:10Z</time>
      </trkpt>
      <trkpt lat="45.26476" lon="6.11414">
        <ele>1780</ele>
        <time>2021-12-23T10:05:11Z</time>
      </trkpt>
      <trkpt lat="45.26475" lon="6.11415">
        <ele>1780</ele>
        <time>2021-12-23T10:05:12Z</time>
      </trkpt>
      <trkpt lat="45.26473" lon="6.11412">
        <ele>1780</ele>
        <time>2021-12-23T10:05:14Z</time>
      </trkpt>
      <trkpt lat="45.26472" lon="6.11409">
        <ele>1780</ele>
        <time>2021-12-23T10:05:15Z</time>
      </trkpt>
      <trkpt lat="45.2647" lon="6.11406">
        <ele>1780</ele>
        <time>2021-12-23T10:05:16Z</time>
      </trkpt>
      <trkpt lat="45.26469" lon="6.11403">
        <ele>1780</ele>
        <time>2021-12-23T10:05:17Z</time>
      </trkpt>
      <trkpt lat="45.26467" lon="6.11401">
        <ele>1780</ele>
        <time>2021-12-23T10:05:18Z</time>
      </trkpt>
      <trkpt lat="45.26466" lon="6.11398">
        <ele>1780</ele>
        <time>2021-12-23T10:05:19Z</time>
      </trkpt>
      <trkpt lat="45.26466" lon="6.11398">
        <ele>1779</ele>
        <time>2021-12-23T10:05:20Z</time>
      </trkpt>
      <trkpt lat="45.26466" lon="6.11398">
        <ele>1779</ele>
        <time>2021-12-23T10:05:21Z</time>
      </trkpt>
      <trkpt lat="45.26467" lon="6.11398">
        <ele>1779</ele>
        <time>2021-12-23T10:05:22Z</time>
      </trkpt>
      <trkpt lat="45.26467" lon="6.11398">
        <ele>1779</ele>
        <time>2021-12-23T10:05:23Z</time>
      </trkpt>
      <trkpt lat="45.26467" lon="6.11398">
        <ele>1779</ele>
        <time>2021-12-23T10:05:24Z</time>
      </trkpt>
      <trkpt lat="45.26467" lon="6.11398">
        <ele>1779</ele>
        <time>2021-12-23T10:05:25Z</time>
      </trkpt>
      <trkpt lat="45.26467" lon="6.11398">
        <ele>1779</ele>
        <time>2021-12-23T10:05:26Z</time>
      </trkpt>
      <trkpt lat="45.26467" lon="6.11398">
        <ele>1779</ele>
        <time>2021-12-23T10:05:27Z</time>
      </trkpt>
      <trkpt lat="45.26468" lon="6.11398">
        <ele>1779</ele>
        <time>2021-12-23T10:05:28Z</time>
      </trkpt>
      <trkpt lat="45.26468" lon="6.11398">
        <ele>1779</ele>
        <time>2021-12-23T10:05:29Z</time>
      </trkpt>
      <trkpt lat="45.26468" lon="6.11399">
        <ele>1779</ele>
        <time>2021-12-23T10:05:30Z</time>
      </trkpt>
      <trkpt lat="45.26468" lon="6.11399">
        <ele>1779</ele>
        <time>2021-12-23T10:05:31Z</time>
      </trkpt>
      <trkpt lat="45.26468" lon="6.11399">
        <ele>1779</ele>
        <time>2021-12-23T10:05:33Z</time>
      </trkpt>
      <trkpt lat="45.26469" lon="6.11399">
        <ele>1779</ele>
        <time>2021-12-23T10:05:34Z</time>
      </trkpt>
      <trkpt lat="45.26469" lon="6.11399">
        <ele>1779</ele>
        <time>2021-12-23T10:05:35Z</time>
      </trkpt>
      <trkpt lat="45.26469" lon="6.11399">
        <ele>1779</ele>
        <time>2021-12-23T10:05:36Z</time>
      </trkpt>
      <trkpt lat="45.26469" lon="6.11399">
        <ele>1779</ele>
        <time>2021-12-23T10:05:37Z</time>
      </trkpt>
      <trkpt lat="45.26469" lon="6.11399">
        <ele>1779</ele>
        <time>2021-12-23T10:05:38Z</time>
      </trkpt>
      <trkpt lat="45.26469" lon="6.11399">
        <ele>1779</ele>
        <time>2021-12-23T10:05:39Z</time>
      </trkpt>
      <trkpt lat="45.2647" lon="6.11399">
        <ele>1780</ele>
        <time>2021-12-23T10:05:40Z</time>
      </trkpt>
      <trkpt lat="45.2647" lon="6.11399">
        <ele>1780</ele>
        <time>2021-12-23T10:05:41Z</time>
      </trkpt>
      <trkpt lat="45.2647" lon="6.114">
        <ele>1780</ele>
        <time>2021-12-23T10:05:42Z</time>
      </trkpt>
      <trkpt lat="45.2647" lon="6.114">
        <ele>1780</ele>
        <time>2021-12-23T10:05:43Z</time>
      </trkpt>
      <trkpt lat="45.2647" lon="6.114">
        <ele>1780</ele>
        <time>2021-12-23T10:05:44Z</time>
      </trkpt>
      <trkpt lat="45.26471" lon="6.114">
        <ele>1780</ele>
        <time>2021-12-23T10:05:45Z</time>
      </trkpt>
      <trkpt lat="45.26471" lon="6.114">
        <ele>1780</ele>
        <time>2021-12-23T10:05:46Z</time>
      </trkpt>
      <trkpt lat="45.26471" lon="6.114">
        <ele>1780</ele>
        <time>2021-12-23T10:05:47Z</time>
      </trkpt>
      <trkpt lat="45.26471" lon="6.114">
        <ele>1780</ele>
        <time>2021-12-23T10:05:48Z</time>
      </trkpt>
      <trkpt lat="45.26471" lon="6.114">
        <ele>1780</ele>
        <time>2021-12-23T10:05:49Z</time>
      </trkpt>
      <trkpt lat="45.26471" lon="6.114">
        <ele>1780</ele>
        <time>2021-12-23T10:05:50Z</time>
      </trkpt>
      <trkpt lat="45.26472" lon="6.114">
        <ele>1780</ele>
        <time>2021-12-23T10:05:52Z</time>
      </trkpt>
      <trkpt lat="45.26472" lon="6.114">
        <ele>1780</ele>
        <time>2021-12-23T10:05:53Z</time>
      </trkpt>
      <trkpt lat="45.26472" lon="6.11401">
        <ele>1780</ele>
        <time>2021-12-23T10:05:54Z</time>
      </trkpt>
      <trkpt lat="45.26472" lon="6.11401">
        <ele>1780</ele>
        <time>2021-12-23T10:05:55Z</time>
      </trkpt>
      <trkpt lat="45.26472" lon="6.11401">
        <ele>1780</ele>
        <time>2021-12-23T10:05:56Z</time>
      </trkpt>
      <trkpt lat="45.26473" lon="6.11401">
        <ele>1780</ele>
        <time>2021-12-23T10:05:57Z</time>
      </trkpt>
      <trkpt lat="45.26473" lon="6.11401">
        <ele>1780</ele>
        <time>2021-12-23T10:05:58Z</time>
      </trkpt>
      <trkpt lat="45.26473" lon="6.11401">
        <ele>1780</ele>
        <time>2021-12-23T10:05:59Z</time>
      </trkpt>
      <trkpt lat="45.26473" lon="6.11401">
        <ele>1780</ele>
        <time>2021-12-23T10:06:00Z</time>
      </trkpt>
      <trkpt lat="45.26473" lon="6.11401">
        <ele>1780</ele>
        <time>2021-12-23T10:06:01Z</time>
      </trkpt>
      <trkpt lat="45.26473" lon="6.11401">
        <ele>1780</ele>
        <time>2021-12-23T10:06:02Z</time>
      </trkpt>
      <trkpt lat="45.26474" lon="6.11401">
        <ele>1780</ele>
        <time>2021-12-23T10:06:03Z</time>
      </trkpt>
      <trkpt lat="45.26474" lon="6.11401">
        <ele>1780</ele>
        <time>2021-12-23T10:06:04Z</time>
      </trkpt>
      <trkpt lat="45.26474" lon="6.11402">
        <ele>1780</ele>
        <time>2021-12-23T10:06:05Z</time>
      </trkpt>
      <trkpt lat="45.26474" lon="6.11402">
        <ele>1780</ele>
        <time>2021-12-23T10:06:06Z</time>
      </trkpt>
      <trkpt lat="45.26474" lon="6.11402">
        <ele>1780</ele>
        <time>2021-12-23T10:06:07Z</time>
      </trkpt>
      <trkpt lat="45.26475" lon="6.11402">
        <ele>1780</ele>
        <time>2021-12-23T10:06:08Z</time>
      </trkpt>
      <trkpt lat="45.26474" lon="6.11402">
        <ele>1780</ele>
        <time>2021-12-23T10:06:09Z</time>
      </trkpt>
      <trkpt lat="45.26474" lon="6.11402">
        <ele>1780</ele>
        <time>2021-12-23T10:06:11Z</time>
      </trkpt>
      <trkpt lat="45.26474" lon="6.11402">
        <ele>1780</ele>
        <time>2021-12-23T10:06:12Z</time>
      </trkpt>
      <trkpt lat="45.26474" lon="6.11402">
        <ele>1780</ele>
        <time>2021-12-23T10:06:13Z</time>
      </trkpt>
      <trkpt lat="45.26473" lon="6.11402">
        <ele>1780</ele>
        <time>2021-12-23T10:06:14Z</time>
      </trkpt>
      <trkpt lat="45.26473" lon="6.11403">
        <ele>1780</ele>
        <time>2021-12-23T10:06:15Z</time>
      </trkpt>
      <trkpt lat="45.26473" lon="6.11403">
        <ele>1780</ele>
        <time>2021-12-23T10:06:16Z</time>
      </trkpt>
      <trkpt lat="45.26473" lon="6.11403">
        <ele>1780</ele>
        <time>2021-12-23T10:06:17Z</time>
      </trkpt>
      <trkpt lat="45.26473" lon="6.11403">
        <ele>1780</ele>
        <time>2021-12-23T10:06:18Z</time>
      </trkpt>
      <trkpt lat="45.26472" lon="6.11403">
        <ele>1779</ele>
        <time>2021-12-23T10:06:19Z</time>
      </trkpt>
      <trkpt lat="45.26472" lon="6.11403">
        <ele>1779</ele>
        <time>2021-12-23T10:06:20Z</time>
      </trkpt>
      <trkpt lat="45.26472" lon="6.11403">
        <ele>1779</ele>
        <time>2021-12-23T10:06:21Z</time>
      </trkpt>
      <trkpt lat="45.26472" lon="6.11403">
        <ele>1779</ele>
        <time>2021-12-23T10:06:22Z</time>
      </trkpt>
      <trkpt lat="45.26471" lon="6.11404">
        <ele>1779</ele>
        <time>2021-12-23T10:06:23Z</time>
      </trkpt>
      <trkpt lat="45.26471" lon="6.11404">
        <ele>1779</ele>
        <time>2021-12-23T10:06:24Z</time>
      </trkpt>
      <trkpt lat="45.26471" lon="6.11404">
        <ele>1779</ele>
        <time>2021-12-23T10:06:25Z</time>
      </trkpt>
      <trkpt lat="45.26471" lon="6.11404">
        <ele>1779</ele>
        <time>2021-12-23T10:06:26Z</time>
      </trkpt>
      <trkpt lat="45.2647" lon="6.11404">
        <ele>1779</ele>
        <time>2021-12-23T10:06:27Z</time>
      </trkpt>
      <trkpt lat="45.2647" lon="6.11404">
        <ele>1779</ele>
        <time>2021-12-23T10:06:28Z</time>
      </trkpt>
      <trkpt lat="45.2647" lon="6.11404">
        <ele>1779</ele>
        <time>2021-12-23T10:06:30Z</time>
      </trkpt>
      <trkpt lat="45.2647" lon="6.11405">
        <ele>1779</ele>
        <time>2021-12-23T10:06:31Z</time>
      </trkpt>
      <trkpt lat="45.2647" lon="6.11405">
        <ele>1779</ele>
        <time>2021-12-23T10:06:32Z</time>
      </trkpt>
      <trkpt lat="45.26469" lon="6.11405">
        <ele>1779</ele>
        <time>2021-12-23T10:06:33Z</time>
      </trkpt>
      <trkpt lat="45.26469" lon="6.11405">
        <ele>1779</ele>
        <time>2021-12-23T10:06:34Z</time>
      </trkpt>
      <trkpt lat="45.26469" lon="6.11405">
        <ele>1779</ele>
        <time>2021-12-23T10:06:35Z</time>
      </trkpt>
      <trkpt lat="45.26469" lon="6.11405">
        <ele>1779</ele>
        <time>2021-12-23T10:06:36Z</time>
      </trkpt>
      <trkpt lat="45.26468" lon="6.11405">
        <ele>1780</ele>
        <time>2021-12-23T10:06:37Z</time>
      </trkpt>
      <trkpt lat="45.26468" lon="6.11405">
        <ele>1780</ele>
        <time>2021-12-23T10:06:38Z</time>
      </trkpt>
      <trkpt lat="45.26468" lon="6.11406">
        <ele>1780</ele>
        <time>2021-12-23T10:06:39Z</time>
      </trkpt>
      <trkpt lat="45.26468" lon="6.11406">
        <ele>1780</ele>
        <time>2021-12-23T10:06:40Z</time>
      </trkpt>
      <trkpt lat="45.26467" lon="6.11406">
        <ele>1780</ele>
        <time>2021-12-23T10:06:41Z</time>
      </trkpt>
      <trkpt lat="45.26467" lon="6.11406">
        <ele>1780</ele>
        <time>2021-12-23T10:06:42Z</time>
      </trkpt>
      <trkpt lat="45.26467" lon="6.11406">
        <ele>1780</ele>
        <time>2021-12-23T10:06:43Z</time>
      </trkpt>
      <trkpt lat="45.26467" lon="6.11406">
        <ele>1780</ele>
        <time>2021-12-23T10:06:44Z</time>
      </trkpt>
      <trkpt lat="45.26467" lon="6.11406">
        <ele>1780</ele>
        <time>2021-12-23T10:06:45Z</time>
      </trkpt>
      <trkpt lat="45.26466" lon="6.11406">
        <ele>1780</ele>
        <time>2021-12-23T10:06:46Z</time>
      </trkpt>
      <trkpt lat="45.26466" lon="6.11407">
        <ele>1780</ele>
        <time>2021-12-23T10:06:47Z</time>
      </trkpt>
      <trkpt lat="45.26466" lon="6.11407">
        <ele>1780</ele>
        <time>2021-12-23T10:06:49Z</time>
      </trkpt>
      <trkpt lat="45.26466" lon="6.11407">
        <ele>1780</ele>
        <time>2021-12-23T10:06:50Z</time>
      </trkpt>
      <trkpt lat="45.26465" lon="6.11407">
        <ele>1780</ele>
        <time>2021-12-23T10:06:51Z</time>
      </trkpt>
      <trkpt lat="45.26465" lon="6.11407">
        <ele>1780</ele>
        <time>2021-12-23T10:06:52Z</time>
      </trkpt>
      <trkpt lat="45.26465" lon="6.11407">
        <ele>1780</ele>
        <time>2021-12-23T10:06:53Z</time>
      </trkpt>
      <trkpt lat="45.26465" lon="6.11407">
        <ele>1780</ele>
        <time>2021-12-23T10:06:54Z</time>
      </trkpt>
      <trkpt lat="45.26465" lon="6.11407">
        <ele>1780</ele>
        <time>2021-12-23T10:06:55Z</time>
      </trkpt>
      <trkpt lat="45.26464" lon="6.11408">
        <ele>1780</ele>
        <time>2021-12-23T10:06:56Z</time>
      </trkpt>
      <trkpt lat="45.26464" lon="6.11408">
        <ele>1780</ele>
        <time>2021-12-23T10:06:57Z</time>
      </trkpt>
      <trkpt lat="45.26464" lon="6.11408">
        <ele>1780</ele>
        <time>2021-12-23T10:06:58Z</time>
      </trkpt>
      <trkpt lat="45.26464" lon="6.11408">
        <ele>1780</ele>
        <time>2021-12-23T10:06:59Z</time>
      </trkpt>
      <trkpt lat="45.26463" lon="6.11409">
        <ele>1780</ele>
        <time>2021-12-23T10:07:00Z</time>
      </trkpt>
      <trkpt lat="45.26462" lon="6.11409">
        <ele>1780</ele>
        <time>2021-12-23T10:07:01Z</time>
      </trkpt>
      <trkpt lat="45.26462" lon="6.1141">
        <ele>1780</ele>
        <time>2021-12-23T10:07:02Z</time>
      </trkpt>
      <trkpt lat="45.26461" lon="6.1141">
        <ele>1780</ele>
        <time>2021-12-23T10:07:03Z</time>
      </trkpt>
      <trkpt lat="45.26461" lon="6.11411">
        <ele>1780</ele>
        <time>2021-12-23T10:07:04Z</time>
      </trkpt>
      <trkpt lat="45.2646" lon="6.11412">
        <ele>1781</ele>
        <time>2021-12-23T10:07:05Z</time>
      </trkpt>
      <trkpt lat="45.2646" lon="6.11412">
        <ele>1781</ele>
        <time>2021-12-23T10:07:06Z</time>
      </trkpt>
      <trkpt lat="45.26459" lon="6.11413">
        <ele>1781</ele>
        <time>2021-12-23T10:07:08Z</time>
      </trkpt>
      <trkpt lat="45.26458" lon="6.11414">
        <ele>1781</ele>
        <time>2021-12-23T10:07:09Z</time>
      </trkpt>
      <trkpt lat="45.26458" lon="6.11414">
        <ele>1781</ele>
        <time>2021-12-23T10:07:10Z</time>
      </trkpt>
      <trkpt lat="45.26457" lon="6.11415">
        <ele>1781</ele>
        <time>2021-12-23T10:07:11Z</time>
      </trkpt>
      <trkpt lat="45.26457" lon="6.11415">
        <ele>1781</ele>
        <time>2021-12-23T10:07:12Z</time>
      </trkpt>
      <trkpt lat="45.26456" lon="6.11416">
        <ele>1781</ele>
        <time>2021-12-23T10:07:13Z</time>
      </trkpt>
      <trkpt lat="45.26456" lon="6.11416">
        <ele>1781</ele>
        <time>2021-12-23T10:07:14Z</time>
      </trkpt>
      <trkpt lat="45.26456" lon="6.11416">
        <ele>1781</ele>
        <time>2021-12-23T10:07:15Z</time>
      </trkpt>
      <trkpt lat="45.26456" lon="6.11416">
        <ele>1781</ele>
        <time>2021-12-23T10:07:16Z</time>
      </trkpt>
      <trkpt lat="45.26456" lon="6.11416">
        <ele>1781</ele>
        <time>2021-12-23T10:07:17Z</time>
      </trkpt>
      <trkpt lat="45.26456" lon="6.11416">
        <ele>1781</ele>
        <time>2021-12-23T10:07:18Z</time>
      </trkpt>
      <trkpt lat="45.26456" lon="6.11416">
        <ele>1780</ele>
        <time>2021-12-23T10:07:19Z</time>
      </trkpt>
      <trkpt lat="45.26456" lon="6.11416">
        <ele>1780</ele>
        <time>2021-12-23T10:07:20Z</time>
      </trkpt>
      <trkpt lat="45.26456" lon="6.11416">
        <ele>1780</ele>
        <time>2021-12-23T10:07:21Z</time>
      </trkpt>
      <trkpt lat="45.26456" lon="6.11416">
        <ele>1780</ele>
        <time>2021-12-23T10:07:22Z</time>
      </trkpt>
      <trkpt lat="45.26459" lon="6.11429">
        <ele>1780</ele>
        <time>2021-12-23T10:07:23Z</time>
      </trkpt>
      <trkpt lat="45.26459" lon="6.11429">
        <ele>1780</ele>
        <time>2021-12-23T10:07:25Z</time>
      </trkpt>
      <trkpt lat="45.26458" lon="6.11431">
        <ele>1780</ele>
        <time>2021-12-23T10:07:27Z</time>
      </trkpt>
      <trkpt lat="45.26458" lon="6.11432">
        <ele>1780</ele>
        <time>2021-12-23T10:07:28Z</time>
      </trkpt>
      <trkpt lat="45.26457" lon="6.11433">
        <ele>1780</ele>
        <time>2021-12-23T10:07:29Z</time>
      </trkpt>
      <trkpt lat="45.26457" lon="6.11434">
        <ele>1780</ele>
        <time>2021-12-23T10:07:30Z</time>
      </trkpt>
      <trkpt lat="45.26456" lon="6.11436">
        <ele>1780</ele>
        <time>2021-12-23T10:07:31Z</time>
      </trkpt>
      <trkpt lat="45.26456" lon="6.11437">
        <ele>1781</ele>
        <time>2021-12-23T10:07:32Z</time>
      </trkpt>
      <trkpt lat="45.26456" lon="6.11438">
        <ele>1781</ele>
        <time>2021-12-23T10:07:33Z</time>
      </trkpt>
      <trkpt lat="45.26455" lon="6.11439">
        <ele>1781</ele>
        <time>2021-12-23T10:07:34Z</time>
      </trkpt>
      <trkpt lat="45.26455" lon="6.11441">
        <ele>1781</ele>
        <time>2021-12-23T10:07:35Z</time>
      </trkpt>
      <trkpt lat="45.26454" lon="6.11442">
        <ele>1781</ele>
        <time>2021-12-23T10:07:36Z</time>
      </trkpt>
      <trkpt lat="45.26454" lon="6.11443">
        <ele>1781</ele>
        <time>2021-12-23T10:07:37Z</time>
      </trkpt>
      <trkpt lat="45.26454" lon="6.11444">
        <ele>1781</ele>
        <time>2021-12-23T10:07:38Z</time>
      </trkpt>
      <trkpt lat="45.26454" lon="6.11446">
        <ele>1781</ele>
        <time>2021-12-23T10:07:39Z</time>
      </trkpt>
      <trkpt lat="45.26454" lon="6.11447">
        <ele>1781</ele>
        <time>2021-12-23T10:07:40Z</time>
      </trkpt>
      <trkpt lat="45.26454" lon="6.11448">
        <ele>1782</ele>
        <time>2021-12-23T10:07:41Z</time>
      </trkpt>
      <trkpt lat="45.26454" lon="6.1145">
        <ele>1782</ele>
        <time>2021-12-23T10:07:42Z</time>
      </trkpt>
      <trkpt lat="45.26454" lon="6.11451">
        <ele>1782</ele>
        <time>2021-12-23T10:07:43Z</time>
      </trkpt>
      <trkpt lat="45.26454" lon="6.11452">
        <ele>1782</ele>
        <time>2021-12-23T10:07:44Z</time>
      </trkpt>
      <trkpt lat="45.26454" lon="6.11453">
        <ele>1782</ele>
        <time>2021-12-23T10:07:46Z</time>
      </trkpt>
      <trkpt lat="45.26454" lon="6.11455">
        <ele>1782</ele>
        <time>2021-12-23T10:07:47Z</time>
      </trkpt>
      <trkpt lat="45.26454" lon="6.11456">
        <ele>1782</ele>
        <time>2021-12-23T10:07:48Z</time>
      </trkpt>
      <trkpt lat="45.26454" lon="6.11457">
        <ele>1782</ele>
        <time>2021-12-23T10:07:49Z</time>
      </trkpt>
      <trkpt lat="45.26454" lon="6.11458">
        <ele>1782</ele>
        <time>2021-12-23T10:07:50Z</time>
      </trkpt>
      <trkpt lat="45.26454" lon="6.1146">
        <ele>1782</ele>
        <time>2021-12-23T10:07:51Z</time>
      </trkpt>
      <trkpt lat="45.26453" lon="6.11461">
        <ele>1782</ele>
        <time>2021-12-23T10:07:52Z</time>
      </trkpt>
      <trkpt lat="45.26453" lon="6.11463">
        <ele>1782</ele>
        <time>2021-12-23T10:07:53Z</time>
      </trkpt>
      <trkpt lat="45.26453" lon="6.11464">
        <ele>1782</ele>
        <time>2021-12-23T10:07:54Z</time>
      </trkpt>
      <trkpt lat="45.26453" lon="6.11465">
        <ele>1782</ele>
        <time>2021-12-23T10:07:55Z</time>
      </trkpt>
      <trkpt lat="45.26452" lon="6.11467">
        <ele>1782</ele>
        <time>2021-12-23T10:07:56Z</time>
      </trkpt>
      <trkpt lat="45.26452" lon="6.11468">
        <ele>1782</ele>
        <time>2021-12-23T10:07:57Z</time>
      </trkpt>
      <trkpt lat="45.26452" lon="6.11469">
        <ele>1782</ele>
        <time>2021-12-23T10:07:58Z</time>
      </trkpt>
      <trkpt lat="45.26452" lon="6.11471">
        <ele>1782</ele>
        <time>2021-12-23T10:07:59Z</time>
      </trkpt>
      <trkpt lat="45.26451" lon="6.11472">
        <ele>1782</ele>
        <time>2021-12-23T10:08:00Z</time>
      </trkpt>
      <trkpt lat="45.26451" lon="6.11474">
        <ele>1782</ele>
        <time>2021-12-23T10:08:01Z</time>
      </trkpt>
      <trkpt lat="45.26451" lon="6.11474">
        <ele>1782</ele>
        <time>2021-12-23T10:08:02Z</time>
      </trkpt>
      <trkpt lat="45.26451" lon="6.11474">
        <ele>1782</ele>
        <time>2021-12-23T10:08:03Z</time>
      </trkpt>
      <trkpt lat="45.26451" lon="6.11474">
        <ele>1782</ele>
        <time>2021-12-23T10:08:05Z</time>
      </trkpt>
      <trkpt lat="45.26451" lon="6.11474">
        <ele>1782</ele>
        <time>2021-12-23T10:08:06Z</time>
      </trkpt>
      <trkpt lat="45.26451" lon="6.11474">
        <ele>1782</ele>
        <time>2021-12-23T10:08:07Z</time>
      </trkpt>
      <trkpt lat="45.26451" lon="6.11474">
        <ele>1782</ele>
        <time>2021-12-23T10:08:08Z</time>
      </trkpt>
      <trkpt lat="45.26451" lon="6.11474">
        <ele>1782</ele>
        <time>2021-12-23T10:08:09Z</time>
      </trkpt>
      <trkpt lat="45.26451" lon="6.11474">
        <ele>1782</ele>
        <time>2021-12-23T10:08:10Z</time>
      </trkpt>
      <trkpt lat="45.26446" lon="6.11488">
        <ele>1782</ele>
        <time>2021-12-23T10:08:11Z</time>
      </trkpt>
      <trkpt lat="45.26446" lon="6.11488">
        <ele>1783</ele>
        <time>2021-12-23T10:08:13Z</time>
      </trkpt>
      <trkpt lat="45.26446" lon="6.11489">
        <ele>1783</ele>
        <time>2021-12-23T10:08:14Z</time>
      </trkpt>
      <trkpt lat="45.26446" lon="6.1149">
        <ele>1783</ele>
        <time>2021-12-23T10:08:15Z</time>
      </trkpt>
      <trkpt lat="45.26446" lon="6.11491">
        <ele>1784</ele>
        <time>2021-12-23T10:08:16Z</time>
      </trkpt>
      <trkpt lat="45.26446" lon="6.11492">
        <ele>1784</ele>
        <time>2021-12-23T10:08:17Z</time>
      </trkpt>
      <trkpt lat="45.26446" lon="6.11493">
        <ele>1784</ele>
        <time>2021-12-23T10:08:18Z</time>
      </trkpt>
      <trkpt lat="45.26446" lon="6.11494">
        <ele>1784</ele>
        <time>2021-12-23T10:08:19Z</time>
      </trkpt>
      <trkpt lat="45.26446" lon="6.11495">
        <ele>1784</ele>
        <time>2021-12-23T10:08:20Z</time>
      </trkpt>
      <trkpt lat="45.26446" lon="6.11496">
        <ele>1784</ele>
        <time>2021-12-23T10:08:21Z</time>
      </trkpt>
      <trkpt lat="45.26445" lon="6.11497">
        <ele>1784</ele>
        <time>2021-12-23T10:08:22Z</time>
      </trkpt>
      <trkpt lat="45.26445" lon="6.11497">
        <ele>1785</ele>
        <time>2021-12-23T10:08:24Z</time>
      </trkpt>
      <trkpt lat="45.26445" lon="6.11498">
        <ele>1785</ele>
        <time>2021-12-23T10:08:25Z</time>
      </trkpt>
      <trkpt lat="45.26445" lon="6.11499">
        <ele>1785</ele>
        <time>2021-12-23T10:08:26Z</time>
      </trkpt>
      <trkpt lat="45.26445" lon="6.115">
        <ele>1785</ele>
        <time>2021-12-23T10:08:27Z</time>
      </trkpt>
      <trkpt lat="45.26445" lon="6.11501">
        <ele>1785</ele>
        <time>2021-12-23T10:08:28Z</time>
      </trkpt>
      <trkpt lat="45.26445" lon="6.11502">
        <ele>1785</ele>
        <time>2021-12-23T10:08:29Z</time>
      </trkpt>
      <trkpt lat="45.26444" lon="6.11503">
        <ele>1785</ele>
        <time>2021-12-23T10:08:30Z</time>
      </trkpt>
      <trkpt lat="45.26443" lon="6.11503">
        <ele>1785</ele>
        <time>2021-12-23T10:08:31Z</time>
      </trkpt>
      <trkpt lat="45.26442" lon="6.11504">
        <ele>1786</ele>
        <time>2021-12-23T10:08:32Z</time>
      </trkpt>
      <trkpt lat="45.26441" lon="6.11505">
        <ele>1786</ele>
        <time>2021-12-23T10:08:33Z</time>
      </trkpt>
      <trkpt lat="45.2644" lon="6.11505">
        <ele>1786</ele>
        <time>2021-12-23T10:08:34Z</time>
      </trkpt>
      <trkpt lat="45.26439" lon="6.11506">
        <ele>1786</ele>
        <time>2021-12-23T10:08:35Z</time>
      </trkpt>
      <trkpt lat="45.26438" lon="6.11507">
        <ele>1786</ele>
        <time>2021-12-23T10:08:36Z</time>
      </trkpt>
      <trkpt lat="45.26436" lon="6.11507">
        <ele>1786</ele>
        <time>2021-12-23T10:08:37Z</time>
      </trkpt>
      <trkpt lat="45.26436" lon="6.11508">
        <ele>1786</ele>
        <time>2021-12-23T10:08:38Z</time>
      </trkpt>
      <trkpt lat="45.26436" lon="6.11509">
        <ele>1787</ele>
        <time>2021-12-23T10:08:39Z</time>
      </trkpt>
      <trkpt lat="45.26435" lon="6.1151">
        <ele>1787</ele>
        <time>2021-12-23T10:08:40Z</time>
      </trkpt>
      <trkpt lat="45.26435" lon="6.11511">
        <ele>1788</ele>
        <time>2021-12-23T10:08:41Z</time>
      </trkpt>
      <trkpt lat="45.26435" lon="6.11512">
        <ele>1789</ele>
        <time>2021-12-23T10:08:43Z</time>
      </trkpt>
      <trkpt lat="45.26434" lon="6.11512">
        <ele>1789</ele>
        <time>2021-12-23T10:08:44Z</time>
      </trkpt>
      <trkpt lat="45.26434" lon="6.11513">
        <ele>1788</ele>
        <time>2021-12-23T10:08:45Z</time>
      </trkpt>
      <trkpt lat="45.26434" lon="6.11514">
        <ele>1789</ele>
        <time>2021-12-23T10:08:46Z</time>
      </trkpt>
      <trkpt lat="45.26433" lon="6.11515">
        <ele>1789</ele>
        <time>2021-12-23T10:08:47Z</time>
      </trkpt>
      <trkpt lat="45.26433" lon="6.11516">
        <ele>1789</ele>
        <time>2021-12-23T10:08:48Z</time>
      </trkpt>
      <trkpt lat="45.26433" lon="6.11517">
        <ele>1789</ele>
        <time>2021-12-23T10:08:49Z</time>
      </trkpt>
      <trkpt lat="45.26432" lon="6.11517">
        <ele>1790</ele>
        <time>2021-12-23T10:08:50Z</time>
      </trkpt>
      <trkpt lat="45.26432" lon="6.11518">
        <ele>1790</ele>
        <time>2021-12-23T10:08:51Z</time>
      </trkpt>
      <trkpt lat="45.26431" lon="6.11519">
        <ele>1790</ele>
        <time>2021-12-23T10:08:52Z</time>
      </trkpt>
      <trkpt lat="45.2643" lon="6.1152">
        <ele>1790</ele>
        <time>2021-12-23T10:08:53Z</time>
      </trkpt>
      <trkpt lat="45.2643" lon="6.11521">
        <ele>1790</ele>
        <time>2021-12-23T10:08:54Z</time>
      </trkpt>
      <trkpt lat="45.26429" lon="6.11523">
        <ele>1791</ele>
        <time>2021-12-23T10:08:55Z</time>
      </trkpt>
      <trkpt lat="45.26428" lon="6.11524">
        <ele>1791</ele>
        <time>2021-12-23T10:08:56Z</time>
      </trkpt>
      <trkpt lat="45.26427" lon="6.11525">
        <ele>1791</ele>
        <time>2021-12-23T10:08:57Z</time>
      </trkpt>
      <trkpt lat="45.26426" lon="6.11526">
        <ele>1791</ele>
        <time>2021-12-23T10:08:58Z</time>
      </trkpt>
      <trkpt lat="45.26425" lon="6.11527">
        <ele>1792</ele>
        <time>2021-12-23T10:08:59Z</time>
      </trkpt>
      <trkpt lat="45.26425" lon="6.11528">
        <ele>1792</ele>
        <time>2021-12-23T10:09:00Z</time>
      </trkpt>
      <trkpt lat="45.26425" lon="6.11528">
        <ele>1792</ele>
        <time>2021-12-23T10:09:02Z</time>
      </trkpt>
      <trkpt lat="45.26425" lon="6.11529">
        <ele>1792</ele>
        <time>2021-12-23T10:09:03Z</time>
      </trkpt>
      <trkpt lat="45.26425" lon="6.1153">
        <ele>1792</ele>
        <time>2021-12-23T10:09:04Z</time>
      </trkpt>
      <trkpt lat="45.26425" lon="6.11531">
        <ele>1792</ele>
        <time>2021-12-23T10:09:05Z</time>
      </trkpt>
      <trkpt lat="45.26425" lon="6.11531">
        <ele>1792</ele>
        <time>2021-12-23T10:09:06Z</time>
      </trkpt>
      <trkpt lat="45.26425" lon="6.11532">
        <ele>1792</ele>
        <time>2021-12-23T10:09:07Z</time>
      </trkpt>
      <trkpt lat="45.26425" lon="6.11533">
        <ele>1792</ele>
        <time>2021-12-23T10:09:08Z</time>
      </trkpt>
      <trkpt lat="45.26425" lon="6.11534">
        <ele>1792</ele>
        <time>2021-12-23T10:09:09Z</time>
      </trkpt>
      <trkpt lat="45.26425" lon="6.11534">
        <ele>1792</ele>
        <time>2021-12-23T10:09:10Z</time>
      </trkpt>
      <trkpt lat="45.26425" lon="6.11535">
        <ele>1792</ele>
        <time>2021-12-23T10:09:11Z</time>
      </trkpt>
      <trkpt lat="45.26424" lon="6.11536">
        <ele>1792</ele>
        <time>2021-12-23T10:09:12Z</time>
      </trkpt>
      <trkpt lat="45.26424" lon="6.11537">
        <ele>1793</ele>
        <time>2021-12-23T10:09:13Z</time>
      </trkpt>
      <trkpt lat="45.26424" lon="6.11538">
        <ele>1793</ele>
        <time>2021-12-23T10:09:14Z</time>
      </trkpt>
      <trkpt lat="45.26424" lon="6.11538">
        <ele>1793</ele>
        <time>2021-12-23T10:09:15Z</time>
      </trkpt>
      <trkpt lat="45.26424" lon="6.11539">
        <ele>1793</ele>
        <time>2021-12-23T10:09:16Z</time>
      </trkpt>
      <trkpt lat="45.26424" lon="6.1154">
        <ele>1794</ele>
        <time>2021-12-23T10:09:17Z</time>
      </trkpt>
      <trkpt lat="45.26424" lon="6.1154">
        <ele>1794</ele>
        <time>2021-12-23T10:09:18Z</time>
      </trkpt>
      <trkpt lat="45.26424" lon="6.1154">
        <ele>1794</ele>
        <time>2021-12-23T10:09:19Z</time>
      </trkpt>
      <trkpt lat="45.26424" lon="6.1154">
        <ele>1794</ele>
        <time>2021-12-23T10:09:21Z</time>
      </trkpt>
      <trkpt lat="45.26424" lon="6.1154">
        <ele>1794</ele>
        <time>2021-12-23T10:09:22Z</time>
      </trkpt>
      <trkpt lat="45.26424" lon="6.1154">
        <ele>1794</ele>
        <time>2021-12-23T10:09:23Z</time>
      </trkpt>
      <trkpt lat="45.26424" lon="6.1154">
        <ele>1795</ele>
        <time>2021-12-23T10:09:24Z</time>
      </trkpt>
      <trkpt lat="45.26424" lon="6.1154">
        <ele>1795</ele>
        <time>2021-12-23T10:09:25Z</time>
      </trkpt>
      <trkpt lat="45.26424" lon="6.1154">
        <ele>1795</ele>
        <time>2021-12-23T10:09:26Z</time>
      </trkpt>
      <trkpt lat="45.26424" lon="6.1154">
        <ele>1796</ele>
        <time>2021-12-23T10:09:27Z</time>
      </trkpt>
      <trkpt lat="45.26424" lon="6.1154">
        <ele>1796</ele>
        <time>2021-12-23T10:09:28Z</time>
      </trkpt>
      <trkpt lat="45.26424" lon="6.1154">
        <ele>1796</ele>
        <time>2021-12-23T10:09:29Z</time>
      </trkpt>
      <trkpt lat="45.26424" lon="6.1154">
        <ele>1796</ele>
        <time>2021-12-23T10:09:30Z</time>
      </trkpt>
      <trkpt lat="45.26424" lon="6.1154">
        <ele>1796</ele>
        <time>2021-12-23T10:09:31Z</time>
      </trkpt>
      <trkpt lat="45.26421" lon="6.11552">
        <ele>1796</ele>
        <time>2021-12-23T10:09:32Z</time>
      </trkpt>
      <trkpt lat="45.26421" lon="6.11552">
        <ele>1796</ele>
        <time>2021-12-23T10:09:34Z</time>
      </trkpt>
      <trkpt lat="45.26421" lon="6.11552">
        <ele>1796</ele>
        <time>2021-12-23T10:09:35Z</time>
      </trkpt>
      <trkpt lat="45.26421" lon="6.11552">
        <ele>1796</ele>
        <time>2021-12-23T10:09:36Z</time>
      </trkpt>
      <trkpt lat="45.26421" lon="6.11552">
        <ele>1797</ele>
        <time>2021-12-23T10:09:37Z</time>
      </trkpt>
      <trkpt lat="45.26415" lon="6.11563">
        <ele>1797</ele>
        <time>2021-12-23T10:09:38Z</time>
      </trkpt>
      <trkpt lat="45.26415" lon="6.11563">
        <ele>1797</ele>
        <time>2021-12-23T10:09:40Z</time>
      </trkpt>
      <trkpt lat="45.26415" lon="6.11564">
        <ele>1797</ele>
        <time>2021-12-23T10:09:41Z</time>
      </trkpt>
      <trkpt lat="45.26414" lon="6.11565">
        <ele>1798</ele>
        <time>2021-12-23T10:09:42Z</time>
      </trkpt>
      <trkpt lat="45.26414" lon="6.11565">
        <ele>1798</ele>
        <time>2021-12-23T10:09:43Z</time>
      </trkpt>
      <trkpt lat="45.26413" lon="6.11566">
        <ele>1798</ele>
        <time>2021-12-23T10:09:44Z</time>
      </trkpt>
      <trkpt lat="45.26413" lon="6.11567">
        <ele>1798</ele>
        <time>2021-12-23T10:09:45Z</time>
      </trkpt>
      <trkpt lat="45.26412" lon="6.11568">
        <ele>1798</ele>
        <time>2021-12-23T10:09:46Z</time>
      </trkpt>
      <trkpt lat="45.26412" lon="6.11569">
        <ele>1799</ele>
        <time>2021-12-23T10:09:47Z</time>
      </trkpt>
      <trkpt lat="45.26411" lon="6.1157">
        <ele>1799</ele>
        <time>2021-12-23T10:09:48Z</time>
      </trkpt>
      <trkpt lat="45.26411" lon="6.1157">
        <ele>1799</ele>
        <time>2021-12-23T10:09:49Z</time>
      </trkpt>
      <trkpt lat="45.2641" lon="6.11571">
        <ele>1800</ele>
        <time>2021-12-23T10:09:50Z</time>
      </trkpt>
      <trkpt lat="45.2641" lon="6.11572">
        <ele>1800</ele>
        <time>2021-12-23T10:09:51Z</time>
      </trkpt>
      <trkpt lat="45.26409" lon="6.11573">
        <ele>1800</ele>
        <time>2021-12-23T10:09:52Z</time>
      </trkpt>
      <trkpt lat="45.26408" lon="6.11574">
        <ele>1800</ele>
        <time>2021-12-23T10:09:53Z</time>
      </trkpt>
      <trkpt lat="45.26407" lon="6.11574">
        <ele>1800</ele>
        <time>2021-12-23T10:09:54Z</time>
      </trkpt>
      <trkpt lat="45.26407" lon="6.11575">
        <ele>1800</ele>
        <time>2021-12-23T10:09:55Z</time>
      </trkpt>
      <trkpt lat="45.26406" lon="6.11576">
        <ele>1800</ele>
        <time>2021-12-23T10:09:56Z</time>
      </trkpt>
      <trkpt lat="45.26405" lon="6.11577">
        <ele>1800</ele>
        <time>2021-12-23T10:09:57Z</time>
      </trkpt>
      <trkpt lat="45.26405" lon="6.11577">
        <ele>1801</ele>
        <time>2021-12-23T10:09:59Z</time>
      </trkpt>
      <trkpt lat="45.26404" lon="6.11578">
        <ele>1801</ele>
        <time>2021-12-23T10:10:00Z</time>
      </trkpt>
      <trkpt lat="45.26403" lon="6.11579">
        <ele>1801</ele>
        <time>2021-12-23T10:10:01Z</time>
      </trkpt>
      <trkpt lat="45.26402" lon="6.11579">
        <ele>1801</ele>
        <time>2021-12-23T10:10:02Z</time>
      </trkpt>
      <trkpt lat="45.26402" lon="6.1158">
        <ele>1801</ele>
        <time>2021-12-23T10:10:03Z</time>
      </trkpt>
      <trkpt lat="45.26401" lon="6.11581">
        <ele>1801</ele>
        <time>2021-12-23T10:10:04Z</time>
      </trkpt>
      <trkpt lat="45.26401" lon="6.11582">
        <ele>1802</ele>
        <time>2021-12-23T10:10:05Z</time>
      </trkpt>
      <trkpt lat="45.26401" lon="6.11583">
        <ele>1802</ele>
        <time>2021-12-23T10:10:06Z</time>
      </trkpt>
      <trkpt lat="45.26402" lon="6.11584">
        <ele>1802</ele>
        <time>2021-12-23T10:10:07Z</time>
      </trkpt>
      <trkpt lat="45.26402" lon="6.11585">
        <ele>1802</ele>
        <time>2021-12-23T10:10:08Z</time>
      </trkpt>
      <trkpt lat="45.26403" lon="6.11586">
        <ele>1802</ele>
        <time>2021-12-23T10:10:09Z</time>
      </trkpt>
      <trkpt lat="45.26403" lon="6.11587">
        <ele>1802</ele>
        <time>2021-12-23T10:10:10Z</time>
      </trkpt>
      <trkpt lat="45.26403" lon="6.11588">
        <ele>1802</ele>
        <time>2021-12-23T10:10:11Z</time>
      </trkpt>
      <trkpt lat="45.26404" lon="6.11589">
        <ele>1802</ele>
        <time>2021-12-23T10:10:12Z</time>
      </trkpt>
      <trkpt lat="45.26404" lon="6.1159">
        <ele>1802</ele>
        <time>2021-12-23T10:10:13Z</time>
      </trkpt>
      <trkpt lat="45.26404" lon="6.11591">
        <ele>1802</ele>
        <time>2021-12-23T10:10:14Z</time>
      </trkpt>
      <trkpt lat="45.26405" lon="6.11592">
        <ele>1803</ele>
        <time>2021-12-23T10:10:15Z</time>
      </trkpt>
      <trkpt lat="45.26405" lon="6.11593">
        <ele>1803</ele>
        <time>2021-12-23T10:10:16Z</time>
      </trkpt>
      <trkpt lat="45.26405" lon="6.11593">
        <ele>1804</ele>
        <time>2021-12-23T10:10:18Z</time>
      </trkpt>
      <trkpt lat="45.26405" lon="6.11593">
        <ele>1804</ele>
        <time>2021-12-23T10:10:19Z</time>
      </trkpt>
      <trkpt lat="45.26405" lon="6.11593">
        <ele>1804</ele>
        <time>2021-12-23T10:10:20Z</time>
      </trkpt>
      <trkpt lat="45.26405" lon="6.11593">
        <ele>1804</ele>
        <time>2021-12-23T10:10:21Z</time>
      </trkpt>
      <trkpt lat="45.26405" lon="6.11593">
        <ele>1805</ele>
        <time>2021-12-23T10:10:22Z</time>
      </trkpt>
      <trkpt lat="45.26405" lon="6.11593">
        <ele>1805</ele>
        <time>2021-12-23T10:10:23Z</time>
      </trkpt>
      <trkpt lat="45.26405" lon="6.11593">
        <ele>1805</ele>
        <time>2021-12-23T10:10:24Z</time>
      </trkpt>
      <trkpt lat="45.26405" lon="6.11593">
        <ele>1805</ele>
        <time>2021-12-23T10:10:25Z</time>
      </trkpt>
      <trkpt lat="45.26405" lon="6.11593">
        <ele>1805</ele>
        <time>2021-12-23T10:10:26Z</time>
      </trkpt>
      <trkpt lat="45.26405" lon="6.11593">
        <ele>1805</ele>
        <time>2021-12-23T10:10:27Z</time>
      </trkpt>
      <trkpt lat="45.26405" lon="6.11593">
        <ele>1805</ele>
        <time>2021-12-23T10:10:28Z</time>
      </trkpt>
      <trkpt lat="45.26405" lon="6.11593">
        <ele>1805</ele>
        <time>2021-12-23T10:10:29Z</time>
      </trkpt>
      <trkpt lat="45.26405" lon="6.11593">
        <ele>1805</ele>
        <time>2021-12-23T10:10:30Z</time>
      </trkpt>
      <trkpt lat="45.26405" lon="6.11593">
        <ele>1805</ele>
        <time>2021-12-23T10:10:31Z</time>
      </trkpt>
      <trkpt lat="45.26405" lon="6.11593">
        <ele>1805</ele>
        <time>2021-12-23T10:10:32Z</time>
      </trkpt>
      <trkpt lat="45.26405" lon="6.11593">
        <ele>1805</ele>
        <time>2021-12-23T10:10:33Z</time>
      </trkpt>
      <trkpt lat="45.264" lon="6.11606">
        <ele>1805</ele>
        <time>2021-12-23T10:10:34Z</time>
      </trkpt>
      <trkpt lat="45.264" lon="6.11606">
        <ele>1806</ele>
        <time>2021-12-23T10:10:36Z</time>
      </trkpt>
      <trkpt lat="45.26399" lon="6.11607">
        <ele>1806</ele>
        <time>2021-12-23T10:10:37Z</time>
      </trkpt>
      <trkpt lat="45.26398" lon="6.11608">
        <ele>1806</ele>
        <time>2021-12-23T10:10:38Z</time>
      </trkpt>
      <trkpt lat="45.26398" lon="6.11609">
        <ele>1806</ele>
        <time>2021-12-23T10:10:39Z</time>
      </trkpt>
      <trkpt lat="45.26397" lon="6.1161">
        <ele>1806</ele>
        <time>2021-12-23T10:10:40Z</time>
      </trkpt>
      <trkpt lat="45.26396" lon="6.11612">
        <ele>1806</ele>
        <time>2021-12-23T10:10:41Z</time>
      </trkpt>
      <trkpt lat="45.26395" lon="6.11613">
        <ele>1806</ele>
        <time>2021-12-23T10:10:42Z</time>
      </trkpt>
      <trkpt lat="45.26394" lon="6.11614">
        <ele>1806</ele>
        <time>2021-12-23T10:10:43Z</time>
      </trkpt>
      <trkpt lat="45.26393" lon="6.11615">
        <ele>1806</ele>
        <time>2021-12-23T10:10:44Z</time>
      </trkpt>
      <trkpt lat="45.26393" lon="6.11617">
        <ele>1807</ele>
        <time>2021-12-23T10:10:45Z</time>
      </trkpt>
      <trkpt lat="45.26393" lon="6.11619">
        <ele>1807</ele>
        <time>2021-12-23T10:10:46Z</time>
      </trkpt>
      <trkpt lat="45.26393" lon="6.1162">
        <ele>1807</ele>
        <time>2021-12-23T10:10:47Z</time>
      </trkpt>
      <trkpt lat="45.26393" lon="6.11622">
        <ele>1807</ele>
        <time>2021-12-23T10:10:48Z</time>
      </trkpt>
      <trkpt lat="45.26394" lon="6.11624">
        <ele>1808</ele>
        <time>2021-12-23T10:10:50Z</time>
      </trkpt>
      <trkpt lat="45.26394" lon="6.11625">
        <ele>1808</ele>
        <time>2021-12-23T10:10:51Z</time>
      </trkpt>
      <trkpt lat="45.26394" lon="6.11627">
        <ele>1808</ele>
        <time>2021-12-23T10:10:52Z</time>
      </trkpt>
      <trkpt lat="45.26394" lon="6.11629">
        <ele>1808</ele>
        <time>2021-12-23T10:10:53Z</time>
      </trkpt>
      <trkpt lat="45.26393" lon="6.11629">
        <ele>1808</ele>
        <time>2021-12-23T10:10:54Z</time>
      </trkpt>
      <trkpt lat="45.26392" lon="6.11629">
        <ele>1809</ele>
        <time>2021-12-23T10:10:56Z</time>
      </trkpt>
      <trkpt lat="45.2639" lon="6.11629">
        <ele>1809</ele>
        <time>2021-12-23T10:10:57Z</time>
      </trkpt>
      <trkpt lat="45.26389" lon="6.11629">
        <ele>1809</ele>
        <time>2021-12-23T10:10:58Z</time>
      </trkpt>
      <trkpt lat="45.26388" lon="6.11629">
        <ele>1809</ele>
        <time>2021-12-23T10:10:59Z</time>
      </trkpt>
      <trkpt lat="45.26387" lon="6.11629">
        <ele>1810</ele>
        <time>2021-12-23T10:11:00Z</time>
      </trkpt>
      <trkpt lat="45.26386" lon="6.11629">
        <ele>1810</ele>
        <time>2021-12-23T10:11:01Z</time>
      </trkpt>
      <trkpt lat="45.26384" lon="6.11629">
        <ele>1810</ele>
        <time>2021-12-23T10:11:02Z</time>
      </trkpt>
      <trkpt lat="45.26386" lon="6.1163">
        <ele>1810</ele>
        <time>2021-12-23T10:11:03Z</time>
      </trkpt>
      <trkpt lat="45.26387" lon="6.11631">
        <ele>1810</ele>
        <time>2021-12-23T10:11:04Z</time>
      </trkpt>
      <trkpt lat="45.26389" lon="6.11631">
        <ele>1810</ele>
        <time>2021-12-23T10:11:05Z</time>
      </trkpt>
      <trkpt lat="45.2639" lon="6.11632">
        <ele>1810</ele>
        <time>2021-12-23T10:11:06Z</time>
      </trkpt>
      <trkpt lat="45.26392" lon="6.11633">
        <ele>1810</ele>
        <time>2021-12-23T10:11:07Z</time>
      </trkpt>
      <trkpt lat="45.26393" lon="6.11634">
        <ele>1810</ele>
        <time>2021-12-23T10:11:08Z</time>
      </trkpt>
      <trkpt lat="45.26394" lon="6.11635">
        <ele>1811</ele>
        <time>2021-12-23T10:11:09Z</time>
      </trkpt>
      <trkpt lat="45.26394" lon="6.11635">
        <ele>1812</ele>
        <time>2021-12-23T10:11:10Z</time>
      </trkpt>
      <trkpt lat="45.26394" lon="6.11635">
        <ele>1812</ele>
        <time>2021-12-23T10:11:11Z</time>
      </trkpt>
      <trkpt lat="45.26394" lon="6.11635">
        <ele>1812</ele>
        <time>2021-12-23T10:11:12Z</time>
      </trkpt>
      <trkpt lat="45.26394" lon="6.11635">
        <ele>1812</ele>
        <time>2021-12-23T10:11:13Z</time>
      </trkpt>
      <trkpt lat="45.26394" lon="6.11635">
        <ele>1812</ele>
        <time>2021-12-23T10:11:15Z</time>
      </trkpt>
      <trkpt lat="45.26394" lon="6.11635">
        <ele>1812</ele>
        <time>2021-12-23T10:11:16Z</time>
      </trkpt>
      <trkpt lat="45.26394" lon="6.11635">
        <ele>1813</ele>
        <time>2021-12-23T10:11:17Z</time>
      </trkpt>
      <trkpt lat="45.26394" lon="6.11635">
        <ele>1813</ele>
        <time>2021-12-23T10:11:18Z</time>
      </trkpt>
      <trkpt lat="45.2639" lon="6.11649">
        <ele>1813</ele>
        <time>2021-12-23T10:11:19Z</time>
      </trkpt>
      <trkpt lat="45.2639" lon="6.11649">
        <ele>1813</ele>
        <time>2021-12-23T10:11:21Z</time>
      </trkpt>
      <trkpt lat="45.26389" lon="6.11649">
        <ele>1813</ele>
        <time>2021-12-23T10:11:22Z</time>
      </trkpt>
      <trkpt lat="45.26388" lon="6.11649">
        <ele>1814</ele>
        <time>2021-12-23T10:11:23Z</time>
      </trkpt>
      <trkpt lat="45.26387" lon="6.1165">
        <ele>1814</ele>
        <time>2021-12-23T10:11:24Z</time>
      </trkpt>
      <trkpt lat="45.26386" lon="6.1165">
        <ele>1814</ele>
        <time>2021-12-23T10:11:25Z</time>
      </trkpt>
      <trkpt lat="45.26385" lon="6.1165">
        <ele>1814</ele>
        <time>2021-12-23T10:11:26Z</time>
      </trkpt>
      <trkpt lat="45.26384" lon="6.11651">
        <ele>1814</ele>
        <time>2021-12-23T10:11:27Z</time>
      </trkpt>
      <trkpt lat="45.26382" lon="6.11651">
        <ele>1814</ele>
        <time>2021-12-23T10:11:28Z</time>
      </trkpt>
      <trkpt lat="45.26381" lon="6.11651">
        <ele>1814</ele>
        <time>2021-12-23T10:11:29Z</time>
      </trkpt>
      <trkpt lat="45.26381" lon="6.11653">
        <ele>1814</ele>
        <time>2021-12-23T10:11:30Z</time>
      </trkpt>
      <trkpt lat="45.2638" lon="6.11654">
        <ele>1814</ele>
        <time>2021-12-23T10:11:31Z</time>
      </trkpt>
      <trkpt lat="45.26379" lon="6.11656">
        <ele>1814</ele>
        <time>2021-12-23T10:11:32Z</time>
      </trkpt>
      <trkpt lat="45.26378" lon="6.11657">
        <ele>1815</ele>
        <time>2021-12-23T10:11:34Z</time>
      </trkpt>
      <trkpt lat="45.26377" lon="6.11659">
        <ele>1815</ele>
        <time>2021-12-23T10:11:35Z</time>
      </trkpt>
      <trkpt lat="45.26377" lon="6.1166">
        <ele>1815</ele>
        <time>2021-12-23T10:11:36Z</time>
      </trkpt>
      <trkpt lat="45.26376" lon="6.11662">
        <ele>1815</ele>
        <time>2021-12-23T10:11:37Z</time>
      </trkpt>
      <trkpt lat="45.26376" lon="6.11662">
        <ele>1815</ele>
        <time>2021-12-23T10:11:38Z</time>
      </trkpt>
      <trkpt lat="45.26376" lon="6.11662">
        <ele>1815</ele>
        <time>2021-12-23T10:11:39Z</time>
      </trkpt>
      <trkpt lat="45.26376" lon="6.11662">
        <ele>1815</ele>
        <time>2021-12-23T10:11:40Z</time>
      </trkpt>
      <trkpt lat="45.26376" lon="6.11662">
        <ele>1815</ele>
        <time>2021-12-23T10:11:41Z</time>
      </trkpt>
      <trkpt lat="45.26376" lon="6.11662">
        <ele>1815</ele>
        <time>2021-12-23T10:11:42Z</time>
      </trkpt>
      <trkpt lat="45.26376" lon="6.11662">
        <ele>1815</ele>
        <time>2021-12-23T10:11:43Z</time>
      </trkpt>
      <trkpt lat="45.26376" lon="6.11662">
        <ele>1815</ele>
        <time>2021-12-23T10:11:44Z</time>
      </trkpt>
      <trkpt lat="45.26376" lon="6.11662">
        <ele>1815</ele>
        <time>2021-12-23T10:11:45Z</time>
      </trkpt>
      <trkpt lat="45.26376" lon="6.11662">
        <ele>1815</ele>
        <time>2021-12-23T10:11:46Z</time>
      </trkpt>
      <trkpt lat="45.26376" lon="6.11662">
        <ele>1816</ele>
        <time>2021-12-23T10:11:47Z</time>
      </trkpt>
      <trkpt lat="45.26376" lon="6.11662">
        <ele>1816</ele>
        <time>2021-12-23T10:11:48Z</time>
      </trkpt>
      <trkpt lat="45.26376" lon="6.11662">
        <ele>1816</ele>
        <time>2021-12-23T10:11:49Z</time>
      </trkpt>
      <trkpt lat="45.26376" lon="6.11662">
        <ele>1816</ele>
        <time>2021-12-23T10:11:50Z</time>
      </trkpt>
      <trkpt lat="45.26373" lon="6.11674">
        <ele>1817</ele>
        <time>2021-12-23T10:11:51Z</time>
      </trkpt>
      <trkpt lat="45.26373" lon="6.11674">
        <ele>1818</ele>
        <time>2021-12-23T10:11:53Z</time>
      </trkpt>
      <trkpt lat="45.26374" lon="6.11676">
        <ele>1818</ele>
        <time>2021-12-23T10:11:54Z</time>
      </trkpt>
      <trkpt lat="45.26375" lon="6.11677">
        <ele>1818</ele>
        <time>2021-12-23T10:11:55Z</time>
      </trkpt>
      <trkpt lat="45.26376" lon="6.11679">
        <ele>1818</ele>
        <time>2021-12-23T10:11:56Z</time>
      </trkpt>
      <trkpt lat="45.26377" lon="6.1168">
        <ele>1818</ele>
        <time>2021-12-23T10:11:57Z</time>
      </trkpt>
      <trkpt lat="45.26378" lon="6.11682">
        <ele>1818</ele>
        <time>2021-12-23T10:11:58Z</time>
      </trkpt>
      <trkpt lat="45.26379" lon="6.11684">
        <ele>1819</ele>
        <time>2021-12-23T10:11:59Z</time>
      </trkpt>
      <trkpt lat="45.26379" lon="6.11684">
        <ele>1819</ele>
        <time>2021-12-23T10:12:00Z</time>
      </trkpt>
      <trkpt lat="45.26379" lon="6.11684">
        <ele>1819</ele>
        <time>2021-12-23T10:12:01Z</time>
      </trkpt>
      <trkpt lat="45.26379" lon="6.11684">
        <ele>1819</ele>
        <time>2021-12-23T10:12:02Z</time>
      </trkpt>
      <trkpt lat="45.26379" lon="6.11684">
        <ele>1819</ele>
        <time>2021-12-23T10:12:03Z</time>
      </trkpt>
      <trkpt lat="45.26379" lon="6.11684">
        <ele>1819</ele>
        <time>2021-12-23T10:12:04Z</time>
      </trkpt>
      <trkpt lat="45.26379" lon="6.11684">
        <ele>1819</ele>
        <time>2021-12-23T10:12:05Z</time>
      </trkpt>
      <trkpt lat="45.26379" lon="6.11684">
        <ele>1820</ele>
        <time>2021-12-23T10:12:06Z</time>
      </trkpt>
      <trkpt lat="45.2638" lon="6.11697">
        <ele>1820</ele>
        <time>2021-12-23T10:12:07Z</time>
      </trkpt>
      <trkpt lat="45.2638" lon="6.11697">
        <ele>1820</ele>
        <time>2021-12-23T10:12:09Z</time>
      </trkpt>
      <trkpt lat="45.26379" lon="6.11699">
        <ele>1820</ele>
        <time>2021-12-23T10:12:10Z</time>
      </trkpt>
      <trkpt lat="45.26378" lon="6.11702">
        <ele>1820</ele>
        <time>2021-12-23T10:12:12Z</time>
      </trkpt>
      <trkpt lat="45.26378" lon="6.11704">
        <ele>1820</ele>
        <time>2021-12-23T10:12:13Z</time>
      </trkpt>
      <trkpt lat="45.26377" lon="6.11706">
        <ele>1820</ele>
        <time>2021-12-23T10:12:14Z</time>
      </trkpt>
      <trkpt lat="45.26376" lon="6.11708">
        <ele>1820</ele>
        <time>2021-12-23T10:12:15Z</time>
      </trkpt>
      <trkpt lat="45.26375" lon="6.1171">
        <ele>1820</ele>
        <time>2021-12-23T10:12:16Z</time>
      </trkpt>
      <trkpt lat="45.26375" lon="6.1171">
        <ele>1820</ele>
        <time>2021-12-23T10:12:17Z</time>
      </trkpt>
      <trkpt lat="45.26375" lon="6.1171">
        <ele>1820</ele>
        <time>2021-12-23T10:12:18Z</time>
      </trkpt>
      <trkpt lat="45.26375" lon="6.1171">
        <ele>1820</ele>
        <time>2021-12-23T10:12:19Z</time>
      </trkpt>
      <trkpt lat="45.26375" lon="6.1171">
        <ele>1820</ele>
        <time>2021-12-23T10:12:20Z</time>
      </trkpt>
      <trkpt lat="45.26375" lon="6.1171">
        <ele>1820</ele>
        <time>2021-12-23T10:12:21Z</time>
      </trkpt>
      <trkpt lat="45.26375" lon="6.1171">
        <ele>1820</ele>
        <time>2021-12-23T10:12:22Z</time>
      </trkpt>
      <trkpt lat="45.26375" lon="6.1171">
        <ele>1820</ele>
        <time>2021-12-23T10:12:23Z</time>
      </trkpt>
      <trkpt lat="45.26375" lon="6.1171">
        <ele>1820</ele>
        <time>2021-12-23T10:12:24Z</time>
      </trkpt>
      <trkpt lat="45.26375" lon="6.1171">
        <ele>1820</ele>
        <time>2021-12-23T10:12:25Z</time>
      </trkpt>
      <trkpt lat="45.26375" lon="6.1171">
        <ele>1820</ele>
        <time>2021-12-23T10:12:26Z</time>
      </trkpt>
      <trkpt lat="45.26375" lon="6.1171">
        <ele>1821</ele>
        <time>2021-12-23T10:12:27Z</time>
      </trkpt>
      <trkpt lat="45.26375" lon="6.1171">
        <ele>1821</ele>
        <time>2021-12-23T10:12:28Z</time>
      </trkpt>
      <trkpt lat="45.26374" lon="6.11723">
        <ele>1821</ele>
        <time>2021-12-23T10:12:29Z</time>
      </trkpt>
      <trkpt lat="45.26374" lon="6.11723">
        <ele>1821</ele>
        <time>2021-12-23T10:12:31Z</time>
      </trkpt>
      <trkpt lat="45.26375" lon="6.11724">
        <ele>1821</ele>
        <time>2021-12-23T10:12:32Z</time>
      </trkpt>
      <trkpt lat="45.26375" lon="6.11724">
        <ele>1821</ele>
        <time>2021-12-23T10:12:33Z</time>
      </trkpt>
      <trkpt lat="45.26375" lon="6.11725">
        <ele>1821</ele>
        <time>2021-12-23T10:12:34Z</time>
      </trkpt>
      <trkpt lat="45.26376" lon="6.11725">
        <ele>1822</ele>
        <time>2021-12-23T10:12:35Z</time>
      </trkpt>
      <trkpt lat="45.26376" lon="6.11726">
        <ele>1822</ele>
        <time>2021-12-23T10:12:36Z</time>
      </trkpt>
      <trkpt lat="45.26377" lon="6.11727">
        <ele>1822</ele>
        <time>2021-12-23T10:12:37Z</time>
      </trkpt>
      <trkpt lat="45.26377" lon="6.11727">
        <ele>1822</ele>
        <time>2021-12-23T10:12:38Z</time>
      </trkpt>
      <trkpt lat="45.26378" lon="6.11728">
        <ele>1823</ele>
        <time>2021-12-23T10:12:39Z</time>
      </trkpt>
      <trkpt lat="45.26378" lon="6.11729">
        <ele>1824</ele>
        <time>2021-12-23T10:12:40Z</time>
      </trkpt>
      <trkpt lat="45.26378" lon="6.11729">
        <ele>1824</ele>
        <time>2021-12-23T10:12:41Z</time>
      </trkpt>
      <trkpt lat="45.26379" lon="6.1173">
        <ele>1824</ele>
        <time>2021-12-23T10:12:42Z</time>
      </trkpt>
      <trkpt lat="45.26379" lon="6.1173">
        <ele>1823</ele>
        <time>2021-12-23T10:12:43Z</time>
      </trkpt>
      <trkpt lat="45.2638" lon="6.11731">
        <ele>1823</ele>
        <time>2021-12-23T10:12:44Z</time>
      </trkpt>
      <trkpt lat="45.2638" lon="6.11732">
        <ele>1824</ele>
        <time>2021-12-23T10:12:45Z</time>
      </trkpt>
      <trkpt lat="45.26381" lon="6.11732">
        <ele>1824</ele>
        <time>2021-12-23T10:12:46Z</time>
      </trkpt>
      <trkpt lat="45.26381" lon="6.11733">
        <ele>1824</ele>
        <time>2021-12-23T10:12:47Z</time>
      </trkpt>
      <trkpt lat="45.26381" lon="6.11734">
        <ele>1824</ele>
        <time>2021-12-23T10:12:48Z</time>
      </trkpt>
      <trkpt lat="45.26381" lon="6.11736">
        <ele>1824</ele>
        <time>2021-12-23T10:12:50Z</time>
      </trkpt>
      <trkpt lat="45.2638" lon="6.11738">
        <ele>1824</ele>
        <time>2021-12-23T10:12:51Z</time>
      </trkpt>
      <trkpt lat="45.26379" lon="6.1174">
        <ele>1824</ele>
        <time>2021-12-23T10:12:52Z</time>
      </trkpt>
      <trkpt lat="45.26378" lon="6.11742">
        <ele>1824</ele>
        <time>2021-12-23T10:12:53Z</time>
      </trkpt>
      <trkpt lat="45.26377" lon="6.11744">
        <ele>1825</ele>
        <time>2021-12-23T10:12:54Z</time>
      </trkpt>
      <trkpt lat="45.26376" lon="6.11746">
        <ele>1825</ele>
        <time>2021-12-23T10:12:55Z</time>
      </trkpt>
      <trkpt lat="45.26376" lon="6.11746">
        <ele>1826</ele>
        <time>2021-12-23T10:12:56Z</time>
      </trkpt>
      <trkpt lat="45.26376" lon="6.11746">
        <ele>1826</ele>
        <time>2021-12-23T10:12:57Z</time>
      </trkpt>
      <trkpt lat="45.26376" lon="6.11746">
        <ele>1826</ele>
        <time>2021-12-23T10:12:58Z</time>
      </trkpt>
      <trkpt lat="45.26376" lon="6.11746">
        <ele>1826</ele>
        <time>2021-12-23T10:12:59Z</time>
      </trkpt>
      <trkpt lat="45.26376" lon="6.11746">
        <ele>1826</ele>
        <time>2021-12-23T10:13:00Z</time>
      </trkpt>
      <trkpt lat="45.26376" lon="6.11746">
        <ele>1826</ele>
        <time>2021-12-23T10:13:01Z</time>
      </trkpt>
      <trkpt lat="45.26376" lon="6.11746">
        <ele>1826</ele>
        <time>2021-12-23T10:13:02Z</time>
      </trkpt>
      <trkpt lat="45.26376" lon="6.11746">
        <ele>1827</ele>
        <time>2021-12-23T10:13:03Z</time>
      </trkpt>
      <trkpt lat="45.26376" lon="6.11746">
        <ele>1827</ele>
        <time>2021-12-23T10:13:04Z</time>
      </trkpt>
      <trkpt lat="45.26376" lon="6.11746">
        <ele>1827</ele>
        <time>2021-12-23T10:13:05Z</time>
      </trkpt>
      <trkpt lat="45.26376" lon="6.11746">
        <ele>1826</ele>
        <time>2021-12-23T10:13:06Z</time>
      </trkpt>
      <trkpt lat="45.26368" lon="6.11753">
        <ele>1826</ele>
        <time>2021-12-23T10:13:07Z</time>
      </trkpt>
      <trkpt lat="45.26368" lon="6.11753">
        <ele>1827</ele>
        <time>2021-12-23T10:13:09Z</time>
      </trkpt>
      <trkpt lat="45.26367" lon="6.11753">
        <ele>1827</ele>
        <time>2021-12-23T10:13:10Z</time>
      </trkpt>
      <trkpt lat="45.26367" lon="6.11754">
        <ele>1827</ele>
        <time>2021-12-23T10:13:11Z</time>
      </trkpt>
      <trkpt lat="45.26366" lon="6.11754">
        <ele>1827</ele>
        <time>2021-12-23T10:13:12Z</time>
      </trkpt>
      <trkpt lat="45.26365" lon="6.11755">
        <ele>1827</ele>
        <time>2021-12-23T10:13:13Z</time>
      </trkpt>
      <trkpt lat="45.26364" lon="6.11755">
        <ele>1827</ele>
        <time>2021-12-23T10:13:14Z</time>
      </trkpt>
      <trkpt lat="45.26364" lon="6.11756">
        <ele>1827</ele>
        <time>2021-12-23T10:13:15Z</time>
      </trkpt>
      <trkpt lat="45.26363" lon="6.11756">
        <ele>1827</ele>
        <time>2021-12-23T10:13:16Z</time>
      </trkpt>
      <trkpt lat="45.26362" lon="6.11757">
        <ele>1827</ele>
        <time>2021-12-23T10:13:17Z</time>
      </trkpt>
      <trkpt lat="45.26362" lon="6.11758">
        <ele>1828</ele>
        <time>2021-12-23T10:13:18Z</time>
      </trkpt>
      <trkpt lat="45.26361" lon="6.11758">
        <ele>1828</ele>
        <time>2021-12-23T10:13:19Z</time>
      </trkpt>
      <trkpt lat="45.2636" lon="6.11759">
        <ele>1828</ele>
        <time>2021-12-23T10:13:20Z</time>
      </trkpt>
      <trkpt lat="45.2636" lon="6.11759">
        <ele>1828</ele>
        <time>2021-12-23T10:13:21Z</time>
      </trkpt>
      <trkpt lat="45.2636" lon="6.11759">
        <ele>1828</ele>
        <time>2021-12-23T10:13:22Z</time>
      </trkpt>
      <trkpt lat="45.2636" lon="6.11759">
        <ele>1829</ele>
        <time>2021-12-23T10:13:23Z</time>
      </trkpt>
      <trkpt lat="45.2636" lon="6.11759">
        <ele>1829</ele>
        <time>2021-12-23T10:13:24Z</time>
      </trkpt>
      <trkpt lat="45.2636" lon="6.11759">
        <ele>1829</ele>
        <time>2021-12-23T10:13:25Z</time>
      </trkpt>
      <trkpt lat="45.2636" lon="6.11759">
        <ele>1829</ele>
        <time>2021-12-23T10:13:26Z</time>
      </trkpt>
      <trkpt lat="45.26353" lon="6.11767">
        <ele>1830</ele>
        <time>2021-12-23T10:13:28Z</time>
      </trkpt>
      <trkpt lat="45.26351" lon="6.11768">
        <ele>1830</ele>
        <time>2021-12-23T10:13:29Z</time>
      </trkpt>
      <trkpt lat="45.26348" lon="6.11769">
        <ele>1830</ele>
        <time>2021-12-23T10:13:30Z</time>
      </trkpt>
      <trkpt lat="45.26346" lon="6.1177">
        <ele>1830</ele>
        <time>2021-12-23T10:13:31Z</time>
      </trkpt>
      <trkpt lat="45.26343" lon="6.11771">
        <ele>1830</ele>
        <time>2021-12-23T10:13:32Z</time>
      </trkpt>
      <trkpt lat="45.26342" lon="6.11773">
        <ele>1830</ele>
        <time>2021-12-23T10:13:33Z</time>
      </trkpt>
      <trkpt lat="45.2634" lon="6.11774">
        <ele>1831</ele>
        <time>2021-12-23T10:13:34Z</time>
      </trkpt>
      <trkpt lat="45.26339" lon="6.11775">
        <ele>1831</ele>
        <time>2021-12-23T10:13:35Z</time>
      </trkpt>
      <trkpt lat="45.26338" lon="6.11776">
        <ele>1831</ele>
        <time>2021-12-23T10:13:36Z</time>
      </trkpt>
      <trkpt lat="45.26336" lon="6.11777">
        <ele>1831</ele>
        <time>2021-12-23T10:13:37Z</time>
      </trkpt>
      <trkpt lat="45.26335" lon="6.11779">
        <ele>1831</ele>
        <time>2021-12-23T10:13:38Z</time>
      </trkpt>
      <trkpt lat="45.26335" lon="6.11779">
        <ele>1831</ele>
        <time>2021-12-23T10:13:39Z</time>
      </trkpt>
      <trkpt lat="45.26335" lon="6.11779">
        <ele>1831</ele>
        <time>2021-12-23T10:13:40Z</time>
      </trkpt>
      <trkpt lat="45.26335" lon="6.11779">
        <ele>1832</ele>
        <time>2021-12-23T10:13:41Z</time>
      </trkpt>
      <trkpt lat="45.26335" lon="6.11779">
        <ele>1832</ele>
        <time>2021-12-23T10:13:42Z</time>
      </trkpt>
      <trkpt lat="45.26335" lon="6.11779">
        <ele>1832</ele>
        <time>2021-12-23T10:13:43Z</time>
      </trkpt>
      <trkpt lat="45.26335" lon="6.11779">
        <ele>1832</ele>
        <time>2021-12-23T10:13:44Z</time>
      </trkpt>
      <trkpt lat="45.26335" lon="6.11779">
        <ele>1832</ele>
        <time>2021-12-23T10:13:45Z</time>
      </trkpt>
      <trkpt lat="45.26335" lon="6.11779">
        <ele>1833</ele>
        <time>2021-12-23T10:13:47Z</time>
      </trkpt>
      <trkpt lat="45.26327" lon="6.11785">
        <ele>1833</ele>
        <time>2021-12-23T10:13:48Z</time>
      </trkpt>
      <trkpt lat="45.26327" lon="6.11785">
        <ele>1833</ele>
        <time>2021-12-23T10:13:50Z</time>
      </trkpt>
      <trkpt lat="45.26326" lon="6.11785">
        <ele>1833</ele>
        <time>2021-12-23T10:13:51Z</time>
      </trkpt>
      <trkpt lat="45.26326" lon="6.11786">
        <ele>1833</ele>
        <time>2021-12-23T10:13:52Z</time>
      </trkpt>
      <trkpt lat="45.26326" lon="6.11787">
        <ele>1833</ele>
        <time>2021-12-23T10:13:53Z</time>
      </trkpt>
      <trkpt lat="45.26326" lon="6.11787">
        <ele>1834</ele>
        <time>2021-12-23T10:13:54Z</time>
      </trkpt>
      <trkpt lat="45.26326" lon="6.11788">
        <ele>1834</ele>
        <time>2021-12-23T10:13:55Z</time>
      </trkpt>
      <trkpt lat="45.26326" lon="6.11789">
        <ele>1834</ele>
        <time>2021-12-23T10:13:56Z</time>
      </trkpt>
      <trkpt lat="45.26326" lon="6.11789">
        <ele>1834</ele>
        <time>2021-12-23T10:13:57Z</time>
      </trkpt>
      <trkpt lat="45.26325" lon="6.1179">
        <ele>1834</ele>
        <time>2021-12-23T10:13:58Z</time>
      </trkpt>
      <trkpt lat="45.26325" lon="6.11791">
        <ele>1835</ele>
        <time>2021-12-23T10:13:59Z</time>
      </trkpt>
      <trkpt lat="45.26325" lon="6.11791">
        <ele>1835</ele>
        <time>2021-12-23T10:14:00Z</time>
      </trkpt>
      <trkpt lat="45.26325" lon="6.11792">
        <ele>1835</ele>
        <time>2021-12-23T10:14:01Z</time>
      </trkpt>
      <trkpt lat="45.26325" lon="6.11793">
        <ele>1836</ele>
        <time>2021-12-23T10:14:02Z</time>
      </trkpt>
      <trkpt lat="45.26325" lon="6.11793">
        <ele>1836</ele>
        <time>2021-12-23T10:14:03Z</time>
      </trkpt>
      <trkpt lat="45.26325" lon="6.11794">
        <ele>1836</ele>
        <time>2021-12-23T10:14:04Z</time>
      </trkpt>
      <trkpt lat="45.26324" lon="6.11795">
        <ele>1835</ele>
        <time>2021-12-23T10:14:06Z</time>
      </trkpt>
      <trkpt lat="45.26324" lon="6.11795">
        <ele>1835</ele>
        <time>2021-12-23T10:14:07Z</time>
      </trkpt>
      <trkpt lat="45.26324" lon="6.11796">
        <ele>1835</ele>
        <time>2021-12-23T10:14:08Z</time>
      </trkpt>
      <trkpt lat="45.26324" lon="6.11797">
        <ele>1836</ele>
        <time>2021-12-23T10:14:09Z</time>
      </trkpt>
      <trkpt lat="45.26324" lon="6.11797">
        <ele>1837</ele>
        <time>2021-12-23T10:14:10Z</time>
      </trkpt>
      <trkpt lat="45.26324" lon="6.11798">
        <ele>1837</ele>
        <time>2021-12-23T10:14:11Z</time>
      </trkpt>
      <trkpt lat="45.26324" lon="6.11799">
        <ele>1837</ele>
        <time>2021-12-23T10:14:12Z</time>
      </trkpt>
      <trkpt lat="45.26324" lon="6.118">
        <ele>1837</ele>
        <time>2021-12-23T10:14:13Z</time>
      </trkpt>
      <trkpt lat="45.26324" lon="6.11801">
        <ele>1837</ele>
        <time>2021-12-23T10:14:14Z</time>
      </trkpt>
      <trkpt lat="45.26323" lon="6.11801">
        <ele>1837</ele>
        <time>2021-12-23T10:14:15Z</time>
      </trkpt>
      <trkpt lat="45.26323" lon="6.11802">
        <ele>1837</ele>
        <time>2021-12-23T10:14:16Z</time>
      </trkpt>
      <trkpt lat="45.26323" lon="6.11803">
        <ele>1837</ele>
        <time>2021-12-23T10:14:17Z</time>
      </trkpt>
      <trkpt lat="45.26323" lon="6.11804">
        <ele>1837</ele>
        <time>2021-12-23T10:14:18Z</time>
      </trkpt>
      <trkpt lat="45.26323" lon="6.11804">
        <ele>1837</ele>
        <time>2021-12-23T10:14:19Z</time>
      </trkpt>
      <trkpt lat="45.26323" lon="6.11805">
        <ele>1837</ele>
        <time>2021-12-23T10:14:20Z</time>
      </trkpt>
      <trkpt lat="45.26323" lon="6.11806">
        <ele>1837</ele>
        <time>2021-12-23T10:14:21Z</time>
      </trkpt>
      <trkpt lat="45.26323" lon="6.11807">
        <ele>1837</ele>
        <time>2021-12-23T10:14:22Z</time>
      </trkpt>
      <trkpt lat="45.26323" lon="6.11807">
        <ele>1838</ele>
        <time>2021-12-23T10:14:23Z</time>
      </trkpt>
      <trkpt lat="45.26323" lon="6.11808">
        <ele>1839</ele>
        <time>2021-12-23T10:14:25Z</time>
      </trkpt>
      <trkpt lat="45.26323" lon="6.11809">
        <ele>1839</ele>
        <time>2021-12-23T10:14:26Z</time>
      </trkpt>
      <trkpt lat="45.26322" lon="6.1181">
        <ele>1839</ele>
        <time>2021-12-23T10:14:27Z</time>
      </trkpt>
      <trkpt lat="45.26321" lon="6.11811">
        <ele>1839</ele>
        <time>2021-12-23T10:14:28Z</time>
      </trkpt>
      <trkpt lat="45.26321" lon="6.11812">
        <ele>1840</ele>
        <time>2021-12-23T10:14:29Z</time>
      </trkpt>
      <trkpt lat="45.2632" lon="6.11813">
        <ele>1840</ele>
        <time>2021-12-23T10:14:30Z</time>
      </trkpt>
      <trkpt lat="45.2632" lon="6.11814">
        <ele>1839</ele>
        <time>2021-12-23T10:14:31Z</time>
      </trkpt>
      <trkpt lat="45.26319" lon="6.11815">
        <ele>1839</ele>
        <time>2021-12-23T10:14:32Z</time>
      </trkpt>
      <trkpt lat="45.26318" lon="6.11816">
        <ele>1839</ele>
        <time>2021-12-23T10:14:33Z</time>
      </trkpt>
      <trkpt lat="45.26318" lon="6.11817">
        <ele>1839</ele>
        <time>2021-12-23T10:14:34Z</time>
      </trkpt>
      <trkpt lat="45.26317" lon="6.11818">
        <ele>1839</ele>
        <time>2021-12-23T10:14:35Z</time>
      </trkpt>
      <trkpt lat="45.26317" lon="6.11819">
        <ele>1840</ele>
        <time>2021-12-23T10:14:36Z</time>
      </trkpt>
      <trkpt lat="45.26317" lon="6.11819">
        <ele>1840</ele>
        <time>2021-12-23T10:14:37Z</time>
      </trkpt>
      <trkpt lat="45.26317" lon="6.11819">
        <ele>1841</ele>
        <time>2021-12-23T10:14:38Z</time>
      </trkpt>
      <trkpt lat="45.26317" lon="6.11819">
        <ele>1841</ele>
        <time>2021-12-23T10:14:39Z</time>
      </trkpt>
      <trkpt lat="45.26317" lon="6.11819">
        <ele>1841</ele>
        <time>2021-12-23T10:14:40Z</time>
      </trkpt>
      <trkpt lat="45.26317" lon="6.11819">
        <ele>1841</ele>
        <time>2021-12-23T10:14:41Z</time>
      </trkpt>
      <trkpt lat="45.26317" lon="6.11819">
        <ele>1841</ele>
        <time>2021-12-23T10:14:42Z</time>
      </trkpt>
      <trkpt lat="45.26308" lon="6.11824">
        <ele>1841</ele>
        <time>2021-12-23T10:14:44Z</time>
      </trkpt>
      <trkpt lat="45.26308" lon="6.11824">
        <ele>1841</ele>
        <time>2021-12-23T10:14:45Z</time>
      </trkpt>
      <trkpt lat="45.26308" lon="6.11824">
        <ele>1841</ele>
        <time>2021-12-23T10:14:46Z</time>
      </trkpt>
      <trkpt lat="45.26307" lon="6.11825">
        <ele>1841</ele>
        <time>2021-12-23T10:14:47Z</time>
      </trkpt>
      <trkpt lat="45.26307" lon="6.11825">
        <ele>1842</ele>
        <time>2021-12-23T10:14:48Z</time>
      </trkpt>
      <trkpt lat="45.26307" lon="6.11825">
        <ele>1842</ele>
        <time>2021-12-23T10:14:49Z</time>
      </trkpt>
      <trkpt lat="45.26306" lon="6.11825">
        <ele>1842</ele>
        <time>2021-12-23T10:14:50Z</time>
      </trkpt>
      <trkpt lat="45.26306" lon="6.11825">
        <ele>1842</ele>
        <time>2021-12-23T10:14:51Z</time>
      </trkpt>
      <trkpt lat="45.26306" lon="6.11826">
        <ele>1843</ele>
        <time>2021-12-23T10:14:52Z</time>
      </trkpt>
      <trkpt lat="45.26305" lon="6.11826">
        <ele>1843</ele>
        <time>2021-12-23T10:14:53Z</time>
      </trkpt>
      <trkpt lat="45.26305" lon="6.11826">
        <ele>1843</ele>
        <time>2021-12-23T10:14:54Z</time>
      </trkpt>
      <trkpt lat="45.26305" lon="6.11826">
        <ele>1844</ele>
        <time>2021-12-23T10:14:55Z</time>
      </trkpt>
      <trkpt lat="45.26304" lon="6.11826">
        <ele>1844</ele>
        <time>2021-12-23T10:14:56Z</time>
      </trkpt>
      <trkpt lat="45.26304" lon="6.11827">
        <ele>1845</ele>
        <time>2021-12-23T10:14:57Z</time>
      </trkpt>
      <trkpt lat="45.26304" lon="6.11827">
        <ele>1844</ele>
        <time>2021-12-23T10:14:58Z</time>
      </trkpt>
      <trkpt lat="45.26299" lon="6.1183">
        <ele>1844</ele>
        <time>2021-12-23T10:14:59Z</time>
      </trkpt>
      <trkpt lat="45.26299" lon="6.1183">
        <ele>1844</ele>
        <time>2021-12-23T10:15:00Z</time>
      </trkpt>
      <trkpt lat="45.26299" lon="6.1183">
        <ele>1844</ele>
        <time>2021-12-23T10:15:01Z</time>
      </trkpt>
      <trkpt lat="45.26299" lon="6.1183">
        <ele>1844</ele>
        <time>2021-12-23T10:15:03Z</time>
      </trkpt>
      <trkpt lat="45.26299" lon="6.1183">
        <ele>1844</ele>
        <time>2021-12-23T10:15:04Z</time>
      </trkpt>
      <trkpt lat="45.26299" lon="6.1183">
        <ele>1844</ele>
        <time>2021-12-23T10:15:05Z</time>
      </trkpt>
      <trkpt lat="45.26299" lon="6.1183">
        <ele>1844</ele>
        <time>2021-12-23T10:15:06Z</time>
      </trkpt>
      <trkpt lat="45.26299" lon="6.1183">
        <ele>1844</ele>
        <time>2021-12-23T10:15:07Z</time>
      </trkpt>
      <trkpt lat="45.26299" lon="6.1183">
        <ele>1845</ele>
        <time>2021-12-23T10:15:08Z</time>
      </trkpt>
      <trkpt lat="45.26299" lon="6.1183">
        <ele>1845</ele>
        <time>2021-12-23T10:15:09Z</time>
      </trkpt>
      <trkpt lat="45.26299" lon="6.1183">
        <ele>1845</ele>
        <time>2021-12-23T10:15:10Z</time>
      </trkpt>
      <trkpt lat="45.26299" lon="6.1183">
        <ele>1845</ele>
        <time>2021-12-23T10:15:11Z</time>
      </trkpt>
      <trkpt lat="45.26299" lon="6.1183">
        <ele>1846</ele>
        <time>2021-12-23T10:15:12Z</time>
      </trkpt>
      <trkpt lat="45.26299" lon="6.1183">
        <ele>1846</ele>
        <time>2021-12-23T10:15:13Z</time>
      </trkpt>
      <trkpt lat="45.26299" lon="6.1183">
        <ele>1847</ele>
        <time>2021-12-23T10:15:14Z</time>
      </trkpt>
      <trkpt lat="45.26299" lon="6.1183">
        <ele>1847</ele>
        <time>2021-12-23T10:15:15Z</time>
      </trkpt>
      <trkpt lat="45.26299" lon="6.1183">
        <ele>1847</ele>
        <time>2021-12-23T10:15:16Z</time>
      </trkpt>
      <trkpt lat="45.26299" lon="6.11843">
        <ele>1847</ele>
        <time>2021-12-23T10:15:17Z</time>
      </trkpt>
      <trkpt lat="45.26299" lon="6.11843">
        <ele>1847</ele>
        <time>2021-12-23T10:15:19Z</time>
      </trkpt>
      <trkpt lat="45.26299" lon="6.11844">
        <ele>1847</ele>
        <time>2021-12-23T10:15:20Z</time>
      </trkpt>
      <trkpt lat="45.263" lon="6.11844">
        <ele>1846</ele>
        <time>2021-12-23T10:15:22Z</time>
      </trkpt>
      <trkpt lat="45.263" lon="6.11845">
        <ele>1847</ele>
        <time>2021-12-23T10:15:23Z</time>
      </trkpt>
      <trkpt lat="45.263" lon="6.11846">
        <ele>1847</ele>
        <time>2021-12-23T10:15:24Z</time>
      </trkpt>
      <trkpt lat="45.26301" lon="6.11846">
        <ele>1847</ele>
        <time>2021-12-23T10:15:25Z</time>
      </trkpt>
      <trkpt lat="45.26301" lon="6.11847">
        <ele>1847</ele>
        <time>2021-12-23T10:15:26Z</time>
      </trkpt>
      <trkpt lat="45.26301" lon="6.11848">
        <ele>1847</ele>
        <time>2021-12-23T10:15:27Z</time>
      </trkpt>
      <trkpt lat="45.26301" lon="6.11848">
        <ele>1847</ele>
        <time>2021-12-23T10:15:28Z</time>
      </trkpt>
      <trkpt lat="45.26302" lon="6.11849">
        <ele>1848</ele>
        <time>2021-12-23T10:15:29Z</time>
      </trkpt>
      <trkpt lat="45.26302" lon="6.11849">
        <ele>1848</ele>
        <time>2021-12-23T10:15:30Z</time>
      </trkpt>
      <trkpt lat="45.26302" lon="6.1185">
        <ele>1848</ele>
        <time>2021-12-23T10:15:31Z</time>
      </trkpt>
      <trkpt lat="45.26303" lon="6.11851">
        <ele>1848</ele>
        <time>2021-12-23T10:15:32Z</time>
      </trkpt>
      <trkpt lat="45.26303" lon="6.11851">
        <ele>1849</ele>
        <time>2021-12-23T10:15:33Z</time>
      </trkpt>
      <trkpt lat="45.26303" lon="6.11852">
        <ele>1849</ele>
        <time>2021-12-23T10:15:34Z</time>
      </trkpt>
      <trkpt lat="45.26303" lon="6.11853">
        <ele>1849</ele>
        <time>2021-12-23T10:15:35Z</time>
      </trkpt>
      <trkpt lat="45.26304" lon="6.11853">
        <ele>1849</ele>
        <time>2021-12-23T10:15:36Z</time>
      </trkpt>
      <trkpt lat="45.26304" lon="6.11854">
        <ele>1849</ele>
        <time>2021-12-23T10:15:37Z</time>
      </trkpt>
      <trkpt lat="45.26303" lon="6.11855">
        <ele>1849</ele>
        <time>2021-12-23T10:15:38Z</time>
      </trkpt>
      <trkpt lat="45.26301" lon="6.11856">
        <ele>1849</ele>
        <time>2021-12-23T10:15:39Z</time>
      </trkpt>
      <trkpt lat="45.263" lon="6.11858">
        <ele>1849</ele>
        <time>2021-12-23T10:15:41Z</time>
      </trkpt>
      <trkpt lat="45.26299" lon="6.11859">
        <ele>1848</ele>
        <time>2021-12-23T10:15:42Z</time>
      </trkpt>
      <trkpt lat="45.26298" lon="6.1186">
        <ele>1848</ele>
        <time>2021-12-23T10:15:43Z</time>
      </trkpt>
      <trkpt lat="45.26296" lon="6.11861">
        <ele>1848</ele>
        <time>2021-12-23T10:15:44Z</time>
      </trkpt>
      <trkpt lat="45.26295" lon="6.11862">
        <ele>1849</ele>
        <time>2021-12-23T10:15:45Z</time>
      </trkpt>
      <trkpt lat="45.26294" lon="6.11863">
        <ele>1849</ele>
        <time>2021-12-23T10:15:46Z</time>
      </trkpt>
      <trkpt lat="45.26292" lon="6.11864">
        <ele>1849</ele>
        <time>2021-12-23T10:15:47Z</time>
      </trkpt>
      <trkpt lat="45.26291" lon="6.11865">
        <ele>1850</ele>
        <time>2021-12-23T10:15:48Z</time>
      </trkpt>
      <trkpt lat="45.26289" lon="6.11866">
        <ele>1850</ele>
        <time>2021-12-23T10:15:49Z</time>
      </trkpt>
      <trkpt lat="45.26288" lon="6.11866">
        <ele>1850</ele>
        <time>2021-12-23T10:15:50Z</time>
      </trkpt>
      <trkpt lat="45.26286" lon="6.11867">
        <ele>1850</ele>
        <time>2021-12-23T10:15:51Z</time>
      </trkpt>
      <trkpt lat="45.26286" lon="6.11868">
        <ele>1850</ele>
        <time>2021-12-23T10:15:52Z</time>
      </trkpt>
      <trkpt lat="45.26285" lon="6.11869">
        <ele>1850</ele>
        <time>2021-12-23T10:15:53Z</time>
      </trkpt>
      <trkpt lat="45.26284" lon="6.1187">
        <ele>1850</ele>
        <time>2021-12-23T10:15:54Z</time>
      </trkpt>
      <trkpt lat="45.26284" lon="6.1187">
        <ele>1851</ele>
        <time>2021-12-23T10:15:55Z</time>
      </trkpt>
      <trkpt lat="45.26283" lon="6.11871">
        <ele>1851</ele>
        <time>2021-12-23T10:15:56Z</time>
      </trkpt>
      <trkpt lat="45.26283" lon="6.11872">
        <ele>1851</ele>
        <time>2021-12-23T10:15:57Z</time>
      </trkpt>
      <trkpt lat="45.26282" lon="6.11873">
        <ele>1851</ele>
        <time>2021-12-23T10:15:58Z</time>
      </trkpt>
      <trkpt lat="45.26282" lon="6.11873">
        <ele>1851</ele>
        <time>2021-12-23T10:16:00Z</time>
      </trkpt>
      <trkpt lat="45.26281" lon="6.11874">
        <ele>1851</ele>
        <time>2021-12-23T10:16:01Z</time>
      </trkpt>
      <trkpt lat="45.2628" lon="6.11875">
        <ele>1851</ele>
        <time>2021-12-23T10:16:02Z</time>
      </trkpt>
      <trkpt lat="45.2628" lon="6.11876">
        <ele>1851</ele>
        <time>2021-12-23T10:16:03Z</time>
      </trkpt>
      <trkpt lat="45.26279" lon="6.11876">
        <ele>1852</ele>
        <time>2021-12-23T10:16:04Z</time>
      </trkpt>
      <trkpt lat="45.26279" lon="6.11877">
        <ele>1852</ele>
        <time>2021-12-23T10:16:05Z</time>
      </trkpt>
      <trkpt lat="45.26278" lon="6.11878">
        <ele>1852</ele>
        <time>2021-12-23T10:16:06Z</time>
      </trkpt>
      <trkpt lat="45.26278" lon="6.11878">
        <ele>1852</ele>
        <time>2021-12-23T10:16:07Z</time>
      </trkpt>
      <trkpt lat="45.26278" lon="6.11878">
        <ele>1853</ele>
        <time>2021-12-23T10:16:08Z</time>
      </trkpt>
      <trkpt lat="45.26278" lon="6.11878">
        <ele>1853</ele>
        <time>2021-12-23T10:16:09Z</time>
      </trkpt>
      <trkpt lat="45.26278" lon="6.11878">
        <ele>1853</ele>
        <time>2021-12-23T10:16:10Z</time>
      </trkpt>
      <trkpt lat="45.26278" lon="6.11878">
        <ele>1853</ele>
        <time>2021-12-23T10:16:11Z</time>
      </trkpt>
      <trkpt lat="45.26278" lon="6.11878">
        <ele>1853</ele>
        <time>2021-12-23T10:16:12Z</time>
      </trkpt>
      <trkpt lat="45.26278" lon="6.11878">
        <ele>1853</ele>
        <time>2021-12-23T10:16:13Z</time>
      </trkpt>
      <trkpt lat="45.26278" lon="6.11878">
        <ele>1853</ele>
        <time>2021-12-23T10:16:14Z</time>
      </trkpt>
      <trkpt lat="45.26278" lon="6.11878">
        <ele>1854</ele>
        <time>2021-12-23T10:16:15Z</time>
      </trkpt>
      <trkpt lat="45.26278" lon="6.11878">
        <ele>1854</ele>
        <time>2021-12-23T10:16:16Z</time>
      </trkpt>
      <trkpt lat="45.26276" lon="6.1189">
        <ele>1854</ele>
        <time>2021-12-23T10:16:17Z</time>
      </trkpt>
      <trkpt lat="45.26276" lon="6.1189">
        <ele>1855</ele>
        <time>2021-12-23T10:16:19Z</time>
      </trkpt>
      <trkpt lat="45.26276" lon="6.11891">
        <ele>1855</ele>
        <time>2021-12-23T10:16:20Z</time>
      </trkpt>
      <trkpt lat="45.26276" lon="6.11891">
        <ele>1854</ele>
        <time>2021-12-23T10:16:21Z</time>
      </trkpt>
      <trkpt lat="45.26276" lon="6.11892">
        <ele>1854</ele>
        <time>2021-12-23T10:16:22Z</time>
      </trkpt>
      <trkpt lat="45.26276" lon="6.11892">
        <ele>1855</ele>
        <time>2021-12-23T10:16:23Z</time>
      </trkpt>
      <trkpt lat="45.26276" lon="6.11893">
        <ele>1856</ele>
        <time>2021-12-23T10:16:24Z</time>
      </trkpt>
      <trkpt lat="45.26275" lon="6.11893">
        <ele>1857</ele>
        <time>2021-12-23T10:16:25Z</time>
      </trkpt>
      <trkpt lat="45.26275" lon="6.11894">
        <ele>1857</ele>
        <time>2021-12-23T10:16:26Z</time>
      </trkpt>
      <trkpt lat="45.26275" lon="6.11894">
        <ele>1857</ele>
        <time>2021-12-23T10:16:27Z</time>
      </trkpt>
      <trkpt lat="45.26275" lon="6.11895">
        <ele>1857</ele>
        <time>2021-12-23T10:16:28Z</time>
      </trkpt>
      <trkpt lat="45.26275" lon="6.11895">
        <ele>1857</ele>
        <time>2021-12-23T10:16:29Z</time>
      </trkpt>
      <trkpt lat="45.26275" lon="6.11896">
        <ele>1857</ele>
        <time>2021-12-23T10:16:30Z</time>
      </trkpt>
      <trkpt lat="45.26275" lon="6.11896">
        <ele>1857</ele>
        <time>2021-12-23T10:16:31Z</time>
      </trkpt>
      <trkpt lat="45.26274" lon="6.11897">
        <ele>1857</ele>
        <time>2021-12-23T10:16:32Z</time>
      </trkpt>
      <trkpt lat="45.26274" lon="6.11897">
        <ele>1857</ele>
        <time>2021-12-23T10:16:33Z</time>
      </trkpt>
      <trkpt lat="45.26274" lon="6.11898">
        <ele>1857</ele>
        <time>2021-12-23T10:16:34Z</time>
      </trkpt>
      <trkpt lat="45.26274" lon="6.11898">
        <ele>1857</ele>
        <time>2021-12-23T10:16:35Z</time>
      </trkpt>
      <trkpt lat="45.26274" lon="6.11899">
        <ele>1857</ele>
        <time>2021-12-23T10:16:36Z</time>
      </trkpt>
      <trkpt lat="45.26274" lon="6.11899">
        <ele>1858</ele>
        <time>2021-12-23T10:16:38Z</time>
      </trkpt>
      <trkpt lat="45.26273" lon="6.119">
        <ele>1858</ele>
        <time>2021-12-23T10:16:39Z</time>
      </trkpt>
      <trkpt lat="45.26273" lon="6.119">
        <ele>1858</ele>
        <time>2021-12-23T10:16:40Z</time>
      </trkpt>
      <trkpt lat="45.26273" lon="6.11901">
        <ele>1857</ele>
        <time>2021-12-23T10:16:41Z</time>
      </trkpt>
      <trkpt lat="45.26273" lon="6.11902">
        <ele>1858</ele>
        <time>2021-12-23T10:16:42Z</time>
      </trkpt>
      <trkpt lat="45.26272" lon="6.11902">
        <ele>1858</ele>
        <time>2021-12-23T10:16:43Z</time>
      </trkpt>
      <trkpt lat="45.26272" lon="6.11903">
        <ele>1858</ele>
        <time>2021-12-23T10:16:44Z</time>
      </trkpt>
      <trkpt lat="45.26271" lon="6.11904">
        <ele>1858</ele>
        <time>2021-12-23T10:16:45Z</time>
      </trkpt>
      <trkpt lat="45.26271" lon="6.11905">
        <ele>1859</ele>
        <time>2021-12-23T10:16:46Z</time>
      </trkpt>
      <trkpt lat="45.2627" lon="6.11905">
        <ele>1859</ele>
        <time>2021-12-23T10:16:47Z</time>
      </trkpt>
      <trkpt lat="45.2627" lon="6.11906">
        <ele>1859</ele>
        <time>2021-12-23T10:16:48Z</time>
      </trkpt>
      <trkpt lat="45.26269" lon="6.11907">
        <ele>1859</ele>
        <time>2021-12-23T10:16:49Z</time>
      </trkpt>
      <trkpt lat="45.26268" lon="6.11908">
        <ele>1859</ele>
        <time>2021-12-23T10:16:50Z</time>
      </trkpt>
      <trkpt lat="45.26268" lon="6.11909">
        <ele>1860</ele>
        <time>2021-12-23T10:16:51Z</time>
      </trkpt>
      <trkpt lat="45.26267" lon="6.11909">
        <ele>1860</ele>
        <time>2021-12-23T10:16:52Z</time>
      </trkpt>
      <trkpt lat="45.26267" lon="6.1191">
        <ele>1860</ele>
        <time>2021-12-23T10:16:53Z</time>
      </trkpt>
      <trkpt lat="45.26266" lon="6.11911">
        <ele>1860</ele>
        <time>2021-12-23T10:16:54Z</time>
      </trkpt>
      <trkpt lat="45.26265" lon="6.11912">
        <ele>1860</ele>
        <time>2021-12-23T10:16:55Z</time>
      </trkpt>
      <trkpt lat="45.26263" lon="6.11913">
        <ele>1860</ele>
        <time>2021-12-23T10:16:57Z</time>
      </trkpt>
      <trkpt lat="45.26262" lon="6.11914">
        <ele>1860</ele>
        <time>2021-12-23T10:16:58Z</time>
      </trkpt>
      <trkpt lat="45.2626" lon="6.11915">
        <ele>1860</ele>
        <time>2021-12-23T10:16:59Z</time>
      </trkpt>
      <trkpt lat="45.26258" lon="6.11916">
        <ele>1860</ele>
        <time>2021-12-23T10:17:00Z</time>
      </trkpt>
      <trkpt lat="45.26257" lon="6.11917">
        <ele>1860</ele>
        <time>2021-12-23T10:17:01Z</time>
      </trkpt>
      <trkpt lat="45.26257" lon="6.11917">
        <ele>1861</ele>
        <time>2021-12-23T10:17:02Z</time>
      </trkpt>
      <trkpt lat="45.26257" lon="6.11917">
        <ele>1861</ele>
        <time>2021-12-23T10:17:03Z</time>
      </trkpt>
      <trkpt lat="45.26257" lon="6.11917">
        <ele>1861</ele>
        <time>2021-12-23T10:17:04Z</time>
      </trkpt>
      <trkpt lat="45.26257" lon="6.11917">
        <ele>1862</ele>
        <time>2021-12-23T10:17:05Z</time>
      </trkpt>
      <trkpt lat="45.26257" lon="6.11917">
        <ele>1862</ele>
        <time>2021-12-23T10:17:06Z</time>
      </trkpt>
      <trkpt lat="45.26257" lon="6.11917">
        <ele>1862</ele>
        <time>2021-12-23T10:17:07Z</time>
      </trkpt>
      <trkpt lat="45.26257" lon="6.11917">
        <ele>1862</ele>
        <time>2021-12-23T10:17:08Z</time>
      </trkpt>
      <trkpt lat="45.26257" lon="6.11917">
        <ele>1863</ele>
        <time>2021-12-23T10:17:09Z</time>
      </trkpt>
      <trkpt lat="45.26257" lon="6.11917">
        <ele>1863</ele>
        <time>2021-12-23T10:17:10Z</time>
      </trkpt>
      <trkpt lat="45.26257" lon="6.11917">
        <ele>1863</ele>
        <time>2021-12-23T10:17:11Z</time>
      </trkpt>
      <trkpt lat="45.26257" lon="6.11917">
        <ele>1863</ele>
        <time>2021-12-23T10:17:12Z</time>
      </trkpt>
      <trkpt lat="45.26257" lon="6.11917">
        <ele>1864</ele>
        <time>2021-12-23T10:17:13Z</time>
      </trkpt>
      <trkpt lat="45.26251" lon="6.11925">
        <ele>1864</ele>
        <time>2021-12-23T10:17:14Z</time>
      </trkpt>
      <trkpt lat="45.26251" lon="6.11925">
        <ele>1864</ele>
        <time>2021-12-23T10:17:16Z</time>
      </trkpt>
      <trkpt lat="45.26251" lon="6.11925">
        <ele>1864</ele>
        <time>2021-12-23T10:17:17Z</time>
      </trkpt>
      <trkpt lat="45.26251" lon="6.11925">
        <ele>1864</ele>
        <time>2021-12-23T10:17:18Z</time>
      </trkpt>
      <trkpt lat="45.26251" lon="6.11925">
        <ele>1864</ele>
        <time>2021-12-23T10:17:19Z</time>
      </trkpt>
      <trkpt lat="45.26251" lon="6.11925">
        <ele>1865</ele>
        <time>2021-12-23T10:17:20Z</time>
      </trkpt>
      <trkpt lat="45.26251" lon="6.11925">
        <ele>1865</ele>
        <time>2021-12-23T10:17:21Z</time>
      </trkpt>
      <trkpt lat="45.26251" lon="6.11925">
        <ele>1865</ele>
        <time>2021-12-23T10:17:22Z</time>
      </trkpt>
      <trkpt lat="45.26251" lon="6.11925">
        <ele>1865</ele>
        <time>2021-12-23T10:17:23Z</time>
      </trkpt>
      <trkpt lat="45.26251" lon="6.11925">
        <ele>1866</ele>
        <time>2021-12-23T10:17:24Z</time>
      </trkpt>
      <trkpt lat="45.26251" lon="6.11925">
        <ele>1866</ele>
        <time>2021-12-23T10:17:25Z</time>
      </trkpt>
      <trkpt lat="45.26251" lon="6.11925">
        <ele>1867</ele>
        <time>2021-12-23T10:17:26Z</time>
      </trkpt>
      <trkpt lat="45.26251" lon="6.11925">
        <ele>1867</ele>
        <time>2021-12-23T10:17:27Z</time>
      </trkpt>
      <trkpt lat="45.26251" lon="6.11925">
        <ele>1867</ele>
        <time>2021-12-23T10:17:28Z</time>
      </trkpt>
      <trkpt lat="45.26251" lon="6.11925">
        <ele>1867</ele>
        <time>2021-12-23T10:17:29Z</time>
      </trkpt>
      <trkpt lat="45.26251" lon="6.11925">
        <ele>1867</ele>
        <time>2021-12-23T10:17:30Z</time>
      </trkpt>
      <trkpt lat="45.26251" lon="6.11925">
        <ele>1867</ele>
        <time>2021-12-23T10:17:31Z</time>
      </trkpt>
      <trkpt lat="45.26251" lon="6.11925">
        <ele>1867</ele>
        <time>2021-12-23T10:17:32Z</time>
      </trkpt>
      <trkpt lat="45.26251" lon="6.11925">
        <ele>1867</ele>
        <time>2021-12-23T10:17:33Z</time>
      </trkpt>
      <trkpt lat="45.26251" lon="6.11925">
        <ele>1867</ele>
        <time>2021-12-23T10:17:35Z</time>
      </trkpt>
      <trkpt lat="45.26251" lon="6.11925">
        <ele>1867</ele>
        <time>2021-12-23T10:17:36Z</time>
      </trkpt>
      <trkpt lat="45.26251" lon="6.11925">
        <ele>1867</ele>
        <time>2021-12-23T10:17:37Z</time>
      </trkpt>
      <trkpt lat="45.26255" lon="6.11936">
        <ele>1867</ele>
        <time>2021-12-23T10:17:38Z</time>
      </trkpt>
      <trkpt lat="45.26255" lon="6.11936">
        <ele>1867</ele>
        <time>2021-12-23T10:17:40Z</time>
      </trkpt>
      <trkpt lat="45.26254" lon="6.11937">
        <ele>1867</ele>
        <time>2021-12-23T10:17:41Z</time>
      </trkpt>
      <trkpt lat="45.26254" lon="6.11938">
        <ele>1868</ele>
        <time>2021-12-23T10:17:42Z</time>
      </trkpt>
      <trkpt lat="45.26254" lon="6.11939">
        <ele>1868</ele>
        <time>2021-12-23T10:17:43Z</time>
      </trkpt>
      <trkpt lat="45.26254" lon="6.1194">
        <ele>1868</ele>
        <time>2021-12-23T10:17:44Z</time>
      </trkpt>
      <trkpt lat="45.26254" lon="6.11941">
        <ele>1868</ele>
        <time>2021-12-23T10:17:45Z</time>
      </trkpt>
      <trkpt lat="45.26254" lon="6.11942">
        <ele>1869</ele>
        <time>2021-12-23T10:17:46Z</time>
      </trkpt>
      <trkpt lat="45.26254" lon="6.11943">
        <ele>1869</ele>
        <time>2021-12-23T10:17:47Z</time>
      </trkpt>
      <trkpt lat="45.26253" lon="6.11944">
        <ele>1870</ele>
        <time>2021-12-23T10:17:48Z</time>
      </trkpt>
      <trkpt lat="45.26253" lon="6.11945">
        <ele>1870</ele>
        <time>2021-12-23T10:17:49Z</time>
      </trkpt>
      <trkpt lat="45.26253" lon="6.11946">
        <ele>1870</ele>
        <time>2021-12-23T10:17:50Z</time>
      </trkpt>
      <trkpt lat="45.26253" lon="6.11947">
        <ele>1870</ele>
        <time>2021-12-23T10:17:51Z</time>
      </trkpt>
      <trkpt lat="45.26253" lon="6.11948">
        <ele>1870</ele>
        <time>2021-12-23T10:17:52Z</time>
      </trkpt>
      <trkpt lat="45.26253" lon="6.11949">
        <ele>1871</ele>
        <time>2021-12-23T10:17:54Z</time>
      </trkpt>
      <trkpt lat="45.26252" lon="6.1195">
        <ele>1871</ele>
        <time>2021-12-23T10:17:55Z</time>
      </trkpt>
      <trkpt lat="45.26252" lon="6.11951">
        <ele>1871</ele>
        <time>2021-12-23T10:17:56Z</time>
      </trkpt>
      <trkpt lat="45.26252" lon="6.11952">
        <ele>1871</ele>
        <time>2021-12-23T10:17:57Z</time>
      </trkpt>
      <trkpt lat="45.26251" lon="6.11952">
        <ele>1871</ele>
        <time>2021-12-23T10:17:58Z</time>
      </trkpt>
      <trkpt lat="45.2625" lon="6.11952">
        <ele>1872</ele>
        <time>2021-12-23T10:17:59Z</time>
      </trkpt>
      <trkpt lat="45.26249" lon="6.11953">
        <ele>1872</ele>
        <time>2021-12-23T10:18:00Z</time>
      </trkpt>
      <trkpt lat="45.26248" lon="6.11953">
        <ele>1872</ele>
        <time>2021-12-23T10:18:01Z</time>
      </trkpt>
      <trkpt lat="45.26248" lon="6.11953">
        <ele>1872</ele>
        <time>2021-12-23T10:18:02Z</time>
      </trkpt>
      <trkpt lat="45.26247" lon="6.11954">
        <ele>1873</ele>
        <time>2021-12-23T10:18:03Z</time>
      </trkpt>
      <trkpt lat="45.26246" lon="6.11954">
        <ele>1873</ele>
        <time>2021-12-23T10:18:04Z</time>
      </trkpt>
      <trkpt lat="45.26245" lon="6.11954">
        <ele>1873</ele>
        <time>2021-12-23T10:18:05Z</time>
      </trkpt>
      <trkpt lat="45.26244" lon="6.11955">
        <ele>1873</ele>
        <time>2021-12-23T10:18:06Z</time>
      </trkpt>
      <trkpt lat="45.26243" lon="6.11955">
        <ele>1874</ele>
        <time>2021-12-23T10:18:07Z</time>
      </trkpt>
      <trkpt lat="45.26242" lon="6.11956">
        <ele>1874</ele>
        <time>2021-12-23T10:18:08Z</time>
      </trkpt>
      <trkpt lat="45.26242" lon="6.11956">
        <ele>1874</ele>
        <time>2021-12-23T10:18:09Z</time>
      </trkpt>
      <trkpt lat="45.26241" lon="6.11957">
        <ele>1874</ele>
        <time>2021-12-23T10:18:10Z</time>
      </trkpt>
      <trkpt lat="45.26241" lon="6.11958">
        <ele>1874</ele>
        <time>2021-12-23T10:18:11Z</time>
      </trkpt>
      <trkpt lat="45.26241" lon="6.11958">
        <ele>1874</ele>
        <time>2021-12-23T10:18:13Z</time>
      </trkpt>
      <trkpt lat="45.2624" lon="6.11959">
        <ele>1874</ele>
        <time>2021-12-23T10:18:14Z</time>
      </trkpt>
      <trkpt lat="45.2624" lon="6.1196">
        <ele>1874</ele>
        <time>2021-12-23T10:18:15Z</time>
      </trkpt>
      <trkpt lat="45.26239" lon="6.1196">
        <ele>1874</ele>
        <time>2021-12-23T10:18:16Z</time>
      </trkpt>
      <trkpt lat="45.26239" lon="6.11961">
        <ele>1874</ele>
        <time>2021-12-23T10:18:17Z</time>
      </trkpt>
      <trkpt lat="45.26238" lon="6.11962">
        <ele>1874</ele>
        <time>2021-12-23T10:18:18Z</time>
      </trkpt>
      <trkpt lat="45.26238" lon="6.11962">
        <ele>1875</ele>
        <time>2021-12-23T10:18:20Z</time>
      </trkpt>
      <trkpt lat="45.26237" lon="6.11963">
        <ele>1875</ele>
        <time>2021-12-23T10:18:21Z</time>
      </trkpt>
      <trkpt lat="45.26237" lon="6.11964">
        <ele>1875</ele>
        <time>2021-12-23T10:18:22Z</time>
      </trkpt>
      <trkpt lat="45.26236" lon="6.11964">
        <ele>1876</ele>
        <time>2021-12-23T10:18:23Z</time>
      </trkpt>
      <trkpt lat="45.26236" lon="6.11965">
        <ele>1876</ele>
        <time>2021-12-23T10:18:24Z</time>
      </trkpt>
      <trkpt lat="45.26237" lon="6.11966">
        <ele>1877</ele>
        <time>2021-12-23T10:18:25Z</time>
      </trkpt>
      <trkpt lat="45.26237" lon="6.11967">
        <ele>1877</ele>
        <time>2021-12-23T10:18:26Z</time>
      </trkpt>
      <trkpt lat="45.26237" lon="6.11968">
        <ele>1877</ele>
        <time>2021-12-23T10:18:27Z</time>
      </trkpt>
      <trkpt lat="45.26237" lon="6.11969">
        <ele>1876</ele>
        <time>2021-12-23T10:18:28Z</time>
      </trkpt>
      <trkpt lat="45.26237" lon="6.1197">
        <ele>1876</ele>
        <time>2021-12-23T10:18:29Z</time>
      </trkpt>
      <trkpt lat="45.26237" lon="6.11971">
        <ele>1876</ele>
        <time>2021-12-23T10:18:30Z</time>
      </trkpt>
      <trkpt lat="45.26237" lon="6.11972">
        <ele>1877</ele>
        <time>2021-12-23T10:18:32Z</time>
      </trkpt>
      <trkpt lat="45.26237" lon="6.11973">
        <ele>1877</ele>
        <time>2021-12-23T10:18:33Z</time>
      </trkpt>
      <trkpt lat="45.26237" lon="6.11974">
        <ele>1877</ele>
        <time>2021-12-23T10:18:34Z</time>
      </trkpt>
      <trkpt lat="45.26237" lon="6.11974">
        <ele>1877</ele>
        <time>2021-12-23T10:18:35Z</time>
      </trkpt>
      <trkpt lat="45.26237" lon="6.11975">
        <ele>1877</ele>
        <time>2021-12-23T10:18:36Z</time>
      </trkpt>
      <trkpt lat="45.26237" lon="6.11976">
        <ele>1878</ele>
        <time>2021-12-23T10:18:37Z</time>
      </trkpt>
      <trkpt lat="45.26237" lon="6.11977">
        <ele>1878</ele>
        <time>2021-12-23T10:18:38Z</time>
      </trkpt>
      <trkpt lat="45.26237" lon="6.11977">
        <ele>1878</ele>
        <time>2021-12-23T10:18:39Z</time>
      </trkpt>
      <trkpt lat="45.26237" lon="6.11977">
        <ele>1878</ele>
        <time>2021-12-23T10:18:40Z</time>
      </trkpt>
      <trkpt lat="45.26237" lon="6.11977">
        <ele>1878</ele>
        <time>2021-12-23T10:18:41Z</time>
      </trkpt>
      <trkpt lat="45.26237" lon="6.11977">
        <ele>1879</ele>
        <time>2021-12-23T10:18:42Z</time>
      </trkpt>
      <trkpt lat="45.26237" lon="6.11977">
        <ele>1879</ele>
        <time>2021-12-23T10:18:43Z</time>
      </trkpt>
      <trkpt lat="45.26237" lon="6.11977">
        <ele>1879</ele>
        <time>2021-12-23T10:18:44Z</time>
      </trkpt>
      <trkpt lat="45.26237" lon="6.11977">
        <ele>1879</ele>
        <time>2021-12-23T10:18:45Z</time>
      </trkpt>
      <trkpt lat="45.26237" lon="6.11977">
        <ele>1879</ele>
        <time>2021-12-23T10:18:46Z</time>
      </trkpt>
      <trkpt lat="45.26237" lon="6.11977">
        <ele>1879</ele>
        <time>2021-12-23T10:18:47Z</time>
      </trkpt>
      <trkpt lat="45.26237" lon="6.11977">
        <ele>1880</ele>
        <time>2021-12-23T10:18:48Z</time>
      </trkpt>
      <trkpt lat="45.26237" lon="6.11977">
        <ele>1880</ele>
        <time>2021-12-23T10:18:49Z</time>
      </trkpt>
      <trkpt lat="45.26237" lon="6.11977">
        <ele>1880</ele>
        <time>2021-12-23T10:18:51Z</time>
      </trkpt>
      <trkpt lat="45.26237" lon="6.11977">
        <ele>1880</ele>
        <time>2021-12-23T10:18:52Z</time>
      </trkpt>
      <trkpt lat="45.26237" lon="6.11977">
        <ele>1880</ele>
        <time>2021-12-23T10:18:53Z</time>
      </trkpt>
      <trkpt lat="45.26237" lon="6.11977">
        <ele>1881</ele>
        <time>2021-12-23T10:18:54Z</time>
      </trkpt>
      <trkpt lat="45.26232" lon="6.11988">
        <ele>1881</ele>
        <time>2021-12-23T10:18:55Z</time>
      </trkpt>
      <trkpt lat="45.26232" lon="6.11988">
        <ele>1882</ele>
        <time>2021-12-23T10:18:57Z</time>
      </trkpt>
      <trkpt lat="45.26232" lon="6.11989">
        <ele>1882</ele>
        <time>2021-12-23T10:18:58Z</time>
      </trkpt>
      <trkpt lat="45.26232" lon="6.11989">
        <ele>1881</ele>
        <time>2021-12-23T10:18:59Z</time>
      </trkpt>
      <trkpt lat="45.26232" lon="6.1199">
        <ele>1881</ele>
        <time>2021-12-23T10:19:00Z</time>
      </trkpt>
      <trkpt lat="45.26232" lon="6.11991">
        <ele>1882</ele>
        <time>2021-12-23T10:19:01Z</time>
      </trkpt>
      <trkpt lat="45.26231" lon="6.11991">
        <ele>1882</ele>
        <time>2021-12-23T10:19:02Z</time>
      </trkpt>
      <trkpt lat="45.26231" lon="6.11992">
        <ele>1882</ele>
        <time>2021-12-23T10:19:03Z</time>
      </trkpt>
      <trkpt lat="45.26231" lon="6.11992">
        <ele>1882</ele>
        <time>2021-12-23T10:19:04Z</time>
      </trkpt>
      <trkpt lat="45.26231" lon="6.11993">
        <ele>1882</ele>
        <time>2021-12-23T10:19:05Z</time>
      </trkpt>
      <trkpt lat="45.26231" lon="6.11994">
        <ele>1882</ele>
        <time>2021-12-23T10:19:06Z</time>
      </trkpt>
      <trkpt lat="45.26231" lon="6.11994">
        <ele>1882</ele>
        <time>2021-12-23T10:19:07Z</time>
      </trkpt>
      <trkpt lat="45.2623" lon="6.11995">
        <ele>1883</ele>
        <time>2021-12-23T10:19:08Z</time>
      </trkpt>
      <trkpt lat="45.2623" lon="6.11996">
        <ele>1884</ele>
        <time>2021-12-23T10:19:10Z</time>
      </trkpt>
      <trkpt lat="45.2623" lon="6.11996">
        <ele>1884</ele>
        <time>2021-12-23T10:19:11Z</time>
      </trkpt>
      <trkpt lat="45.2623" lon="6.11997">
        <ele>1884</ele>
        <time>2021-12-23T10:19:12Z</time>
      </trkpt>
      <trkpt lat="45.2623" lon="6.11997">
        <ele>1884</ele>
        <time>2021-12-23T10:19:13Z</time>
      </trkpt>
      <trkpt lat="45.2623" lon="6.11998">
        <ele>1884</ele>
        <time>2021-12-23T10:19:14Z</time>
      </trkpt>
      <trkpt lat="45.26229" lon="6.11999">
        <ele>1884</ele>
        <time>2021-12-23T10:19:15Z</time>
      </trkpt>
      <trkpt lat="45.26229" lon="6.11999">
        <ele>1885</ele>
        <time>2021-12-23T10:19:16Z</time>
      </trkpt>
      <trkpt lat="45.26229" lon="6.12">
        <ele>1885</ele>
        <time>2021-12-23T10:19:17Z</time>
      </trkpt>
      <trkpt lat="45.26229" lon="6.12">
        <ele>1885</ele>
        <time>2021-12-23T10:19:18Z</time>
      </trkpt>
      <trkpt lat="45.26228" lon="6.12001">
        <ele>1885</ele>
        <time>2021-12-23T10:19:19Z</time>
      </trkpt>
      <trkpt lat="45.26228" lon="6.12002">
        <ele>1885</ele>
        <time>2021-12-23T10:19:20Z</time>
      </trkpt>
      <trkpt lat="45.26228" lon="6.12003">
        <ele>1885</ele>
        <time>2021-12-23T10:19:21Z</time>
      </trkpt>
      <trkpt lat="45.26228" lon="6.12003">
        <ele>1886</ele>
        <time>2021-12-23T10:19:22Z</time>
      </trkpt>
      <trkpt lat="45.26227" lon="6.12004">
        <ele>1886</ele>
        <time>2021-12-23T10:19:23Z</time>
      </trkpt>
      <trkpt lat="45.26227" lon="6.12005">
        <ele>1887</ele>
        <time>2021-12-23T10:19:24Z</time>
      </trkpt>
      <trkpt lat="45.26227" lon="6.12005">
        <ele>1887</ele>
        <time>2021-12-23T10:19:25Z</time>
      </trkpt>
      <trkpt lat="45.26226" lon="6.12006">
        <ele>1887</ele>
        <time>2021-12-23T10:19:26Z</time>
      </trkpt>
      <trkpt lat="45.26226" lon="6.12007">
        <ele>1887</ele>
        <time>2021-12-23T10:19:27Z</time>
      </trkpt>
      <trkpt lat="45.26226" lon="6.12008">
        <ele>1887</ele>
        <time>2021-12-23T10:19:29Z</time>
      </trkpt>
      <trkpt lat="45.26225" lon="6.12008">
        <ele>1887</ele>
        <time>2021-12-23T10:19:30Z</time>
      </trkpt>
      <trkpt lat="45.26225" lon="6.12009">
        <ele>1887</ele>
        <time>2021-12-23T10:19:31Z</time>
      </trkpt>
      <trkpt lat="45.26225" lon="6.1201">
        <ele>1887</ele>
        <time>2021-12-23T10:19:32Z</time>
      </trkpt>
      <trkpt lat="45.26225" lon="6.1201">
        <ele>1887</ele>
        <time>2021-12-23T10:19:33Z</time>
      </trkpt>
      <trkpt lat="45.26224" lon="6.12011">
        <ele>1887</ele>
        <time>2021-12-23T10:19:34Z</time>
      </trkpt>
      <trkpt lat="45.26224" lon="6.12012">
        <ele>1887</ele>
        <time>2021-12-23T10:19:35Z</time>
      </trkpt>
      <trkpt lat="45.26224" lon="6.12012">
        <ele>1888</ele>
        <time>2021-12-23T10:19:36Z</time>
      </trkpt>
      <trkpt lat="45.26224" lon="6.12013">
        <ele>1888</ele>
        <time>2021-12-23T10:19:37Z</time>
      </trkpt>
      <trkpt lat="45.26224" lon="6.12013">
        <ele>1888</ele>
        <time>2021-12-23T10:19:38Z</time>
      </trkpt>
      <trkpt lat="45.26224" lon="6.12014">
        <ele>1888</ele>
        <time>2021-12-23T10:19:39Z</time>
      </trkpt>
      <trkpt lat="45.26224" lon="6.12014">
        <ele>1888</ele>
        <time>2021-12-23T10:19:40Z</time>
      </trkpt>
      <trkpt lat="45.26224" lon="6.12015">
        <ele>1888</ele>
        <time>2021-12-23T10:19:41Z</time>
      </trkpt>
      <trkpt lat="45.26224" lon="6.12015">
        <ele>1888</ele>
        <time>2021-12-23T10:19:42Z</time>
      </trkpt>
      <trkpt lat="45.26224" lon="6.12016">
        <ele>1888</ele>
        <time>2021-12-23T10:19:43Z</time>
      </trkpt>
      <trkpt lat="45.26224" lon="6.12016">
        <ele>1889</ele>
        <time>2021-12-23T10:19:44Z</time>
      </trkpt>
      <trkpt lat="45.26224" lon="6.12017">
        <ele>1889</ele>
        <time>2021-12-23T10:19:45Z</time>
      </trkpt>
      <trkpt lat="45.26224" lon="6.12017">
        <ele>1889</ele>
        <time>2021-12-23T10:19:46Z</time>
      </trkpt>
      <trkpt lat="45.26224" lon="6.12018">
        <ele>1889</ele>
        <time>2021-12-23T10:19:48Z</time>
      </trkpt>
      <trkpt lat="45.26224" lon="6.12018">
        <ele>1889</ele>
        <time>2021-12-23T10:19:49Z</time>
      </trkpt>
      <trkpt lat="45.26224" lon="6.12019">
        <ele>1890</ele>
        <time>2021-12-23T10:19:50Z</time>
      </trkpt>
      <trkpt lat="45.26224" lon="6.1202">
        <ele>1890</ele>
        <time>2021-12-23T10:19:51Z</time>
      </trkpt>
      <trkpt lat="45.26224" lon="6.1202">
        <ele>1890</ele>
        <time>2021-12-23T10:19:52Z</time>
      </trkpt>
      <trkpt lat="45.26224" lon="6.12021">
        <ele>1890</ele>
        <time>2021-12-23T10:19:53Z</time>
      </trkpt>
      <trkpt lat="45.26224" lon="6.12021">
        <ele>1890</ele>
        <time>2021-12-23T10:19:54Z</time>
      </trkpt>
      <trkpt lat="45.26224" lon="6.12022">
        <ele>1890</ele>
        <time>2021-12-23T10:19:55Z</time>
      </trkpt>
      <trkpt lat="45.26224" lon="6.12022">
        <ele>1891</ele>
        <time>2021-12-23T10:19:56Z</time>
      </trkpt>
      <trkpt lat="45.26224" lon="6.12023">
        <ele>1891</ele>
        <time>2021-12-23T10:19:57Z</time>
      </trkpt>
      <trkpt lat="45.26224" lon="6.12023">
        <ele>1892</ele>
        <time>2021-12-23T10:19:58Z</time>
      </trkpt>
      <trkpt lat="45.26224" lon="6.12024">
        <ele>1892</ele>
        <time>2021-12-23T10:19:59Z</time>
      </trkpt>
      <trkpt lat="45.26224" lon="6.12024">
        <ele>1892</ele>
        <time>2021-12-23T10:20:00Z</time>
      </trkpt>
      <trkpt lat="45.26224" lon="6.12025">
        <ele>1892</ele>
        <time>2021-12-23T10:20:01Z</time>
      </trkpt>
      <trkpt lat="45.26223" lon="6.12025">
        <ele>1892</ele>
        <time>2021-12-23T10:20:02Z</time>
      </trkpt>
      <trkpt lat="45.26223" lon="6.12025">
        <ele>1892</ele>
        <time>2021-12-23T10:20:03Z</time>
      </trkpt>
      <trkpt lat="45.26222" lon="6.12026">
        <ele>1892</ele>
        <time>2021-12-23T10:20:04Z</time>
      </trkpt>
      <trkpt lat="45.26222" lon="6.12026">
        <ele>1892</ele>
        <time>2021-12-23T10:20:05Z</time>
      </trkpt>
      <trkpt lat="45.26221" lon="6.12026">
        <ele>1893</ele>
        <time>2021-12-23T10:20:07Z</time>
      </trkpt>
      <trkpt lat="45.26221" lon="6.12027">
        <ele>1893</ele>
        <time>2021-12-23T10:20:08Z</time>
      </trkpt>
      <trkpt lat="45.26221" lon="6.12027">
        <ele>1893</ele>
        <time>2021-12-23T10:20:09Z</time>
      </trkpt>
      <trkpt lat="45.2622" lon="6.12028">
        <ele>1893</ele>
        <time>2021-12-23T10:20:10Z</time>
      </trkpt>
      <trkpt lat="45.2622" lon="6.12028">
        <ele>1893</ele>
        <time>2021-12-23T10:20:11Z</time>
      </trkpt>
      <trkpt lat="45.26219" lon="6.12028">
        <ele>1893</ele>
        <time>2021-12-23T10:20:12Z</time>
      </trkpt>
      <trkpt lat="45.26219" lon="6.12029">
        <ele>1893</ele>
        <time>2021-12-23T10:20:13Z</time>
      </trkpt>
      <trkpt lat="45.26218" lon="6.12029">
        <ele>1893</ele>
        <time>2021-12-23T10:20:14Z</time>
      </trkpt>
      <trkpt lat="45.26218" lon="6.1203">
        <ele>1893</ele>
        <time>2021-12-23T10:20:15Z</time>
      </trkpt>
      <trkpt lat="45.26218" lon="6.1203">
        <ele>1894</ele>
        <time>2021-12-23T10:20:16Z</time>
      </trkpt>
      <trkpt lat="45.26217" lon="6.1203">
        <ele>1895</ele>
        <time>2021-12-23T10:20:17Z</time>
      </trkpt>
      <trkpt lat="45.26217" lon="6.12031">
        <ele>1895</ele>
        <time>2021-12-23T10:20:18Z</time>
      </trkpt>
      <trkpt lat="45.26217" lon="6.12031">
        <ele>1895</ele>
        <time>2021-12-23T10:20:19Z</time>
      </trkpt>
      <trkpt lat="45.26217" lon="6.12031">
        <ele>1895</ele>
        <time>2021-12-23T10:20:20Z</time>
      </trkpt>
      <trkpt lat="45.26217" lon="6.12031">
        <ele>1895</ele>
        <time>2021-12-23T10:20:21Z</time>
      </trkpt>
      <trkpt lat="45.26217" lon="6.12031">
        <ele>1895</ele>
        <time>2021-12-23T10:20:22Z</time>
      </trkpt>
      <trkpt lat="45.26217" lon="6.12031">
        <ele>1895</ele>
        <time>2021-12-23T10:20:23Z</time>
      </trkpt>
      <trkpt lat="45.26217" lon="6.12031">
        <ele>1896</ele>
        <time>2021-12-23T10:20:24Z</time>
      </trkpt>
      <trkpt lat="45.26217" lon="6.12031">
        <ele>1896</ele>
        <time>2021-12-23T10:20:26Z</time>
      </trkpt>
      <trkpt lat="45.26217" lon="6.12031">
        <ele>1896</ele>
        <time>2021-12-23T10:20:27Z</time>
      </trkpt>
      <trkpt lat="45.26217" lon="6.12031">
        <ele>1897</ele>
        <time>2021-12-23T10:20:28Z</time>
      </trkpt>
      <trkpt lat="45.26217" lon="6.12031">
        <ele>1897</ele>
        <time>2021-12-23T10:20:29Z</time>
      </trkpt>
      <trkpt lat="45.26217" lon="6.12031">
        <ele>1897</ele>
        <time>2021-12-23T10:20:30Z</time>
      </trkpt>
      <trkpt lat="45.26218" lon="6.12044">
        <ele>1897</ele>
        <time>2021-12-23T10:20:31Z</time>
      </trkpt>
      <trkpt lat="45.26218" lon="6.12044">
        <ele>1897</ele>
        <time>2021-12-23T10:20:33Z</time>
      </trkpt>
      <trkpt lat="45.26218" lon="6.12045">
        <ele>1897</ele>
        <time>2021-12-23T10:20:34Z</time>
      </trkpt>
      <trkpt lat="45.26218" lon="6.12046">
        <ele>1897</ele>
        <time>2021-12-23T10:20:35Z</time>
      </trkpt>
      <trkpt lat="45.26219" lon="6.12047">
        <ele>1898</ele>
        <time>2021-12-23T10:20:36Z</time>
      </trkpt>
      <trkpt lat="45.26219" lon="6.12048">
        <ele>1898</ele>
        <time>2021-12-23T10:20:37Z</time>
      </trkpt>
      <trkpt lat="45.26219" lon="6.12048">
        <ele>1898</ele>
        <time>2021-12-23T10:20:38Z</time>
      </trkpt>
      <trkpt lat="45.2622" lon="6.12049">
        <ele>1899</ele>
        <time>2021-12-23T10:20:39Z</time>
      </trkpt>
      <trkpt lat="45.2622" lon="6.1205">
        <ele>1899</ele>
        <time>2021-12-23T10:20:40Z</time>
      </trkpt>
      <trkpt lat="45.2622" lon="6.12051">
        <ele>1899</ele>
        <time>2021-12-23T10:20:41Z</time>
      </trkpt>
      <trkpt lat="45.26221" lon="6.12052">
        <ele>1899</ele>
        <time>2021-12-23T10:20:42Z</time>
      </trkpt>
      <trkpt lat="45.26221" lon="6.12052">
        <ele>1900</ele>
        <time>2021-12-23T10:20:43Z</time>
      </trkpt>
      <trkpt lat="45.26221" lon="6.12053">
        <ele>1900</ele>
        <time>2021-12-23T10:20:45Z</time>
      </trkpt>
      <trkpt lat="45.26222" lon="6.12054">
        <ele>1900</ele>
        <time>2021-12-23T10:20:46Z</time>
      </trkpt>
      <trkpt lat="45.26222" lon="6.12055">
        <ele>1901</ele>
        <time>2021-12-23T10:20:47Z</time>
      </trkpt>
      <trkpt lat="45.26221" lon="6.12056">
        <ele>1901</ele>
        <time>2021-12-23T10:20:48Z</time>
      </trkpt>
      <trkpt lat="45.2622" lon="6.12057">
        <ele>1901</ele>
        <time>2021-12-23T10:20:49Z</time>
      </trkpt>
      <trkpt lat="45.26219" lon="6.12057">
        <ele>1901</ele>
        <time>2021-12-23T10:20:50Z</time>
      </trkpt>
      <trkpt lat="45.26219" lon="6.12058">
        <ele>1901</ele>
        <time>2021-12-23T10:20:51Z</time>
      </trkpt>
      <trkpt lat="45.26218" lon="6.12059">
        <ele>1901</ele>
        <time>2021-12-23T10:20:52Z</time>
      </trkpt>
      <trkpt lat="45.26217" lon="6.1206">
        <ele>1901</ele>
        <time>2021-12-23T10:20:53Z</time>
      </trkpt>
      <trkpt lat="45.26216" lon="6.12061">
        <ele>1901</ele>
        <time>2021-12-23T10:20:54Z</time>
      </trkpt>
      <trkpt lat="45.26215" lon="6.12062">
        <ele>1901</ele>
        <time>2021-12-23T10:20:55Z</time>
      </trkpt>
      <trkpt lat="45.26214" lon="6.12062">
        <ele>1901</ele>
        <time>2021-12-23T10:20:56Z</time>
      </trkpt>
      <trkpt lat="45.26214" lon="6.12063">
        <ele>1901</ele>
        <time>2021-12-23T10:20:57Z</time>
      </trkpt>
      <trkpt lat="45.26213" lon="6.12063">
        <ele>1901</ele>
        <time>2021-12-23T10:20:58Z</time>
      </trkpt>
      <trkpt lat="45.26213" lon="6.12064">
        <ele>1901</ele>
        <time>2021-12-23T10:20:59Z</time>
      </trkpt>
      <trkpt lat="45.26213" lon="6.12065">
        <ele>1901</ele>
        <time>2021-12-23T10:21:00Z</time>
      </trkpt>
      <trkpt lat="45.26213" lon="6.12065">
        <ele>1901</ele>
        <time>2021-12-23T10:21:01Z</time>
      </trkpt>
      <trkpt lat="45.26212" lon="6.12066">
        <ele>1902</ele>
        <time>2021-12-23T10:21:02Z</time>
      </trkpt>
      <trkpt lat="45.26212" lon="6.12066">
        <ele>1902</ele>
        <time>2021-12-23T10:21:04Z</time>
      </trkpt>
      <trkpt lat="45.26212" lon="6.12067">
        <ele>1902</ele>
        <time>2021-12-23T10:21:05Z</time>
      </trkpt>
      <trkpt lat="45.26211" lon="6.12067">
        <ele>1902</ele>
        <time>2021-12-23T10:21:06Z</time>
      </trkpt>
      <trkpt lat="45.26211" lon="6.12068">
        <ele>1902</ele>
        <time>2021-12-23T10:21:07Z</time>
      </trkpt>
      <trkpt lat="45.26211" lon="6.12068">
        <ele>1902</ele>
        <time>2021-12-23T10:21:08Z</time>
      </trkpt>
      <trkpt lat="45.26211" lon="6.12069">
        <ele>1902</ele>
        <time>2021-12-23T10:21:09Z</time>
      </trkpt>
      <trkpt lat="45.2621" lon="6.12069">
        <ele>1902</ele>
        <time>2021-12-23T10:21:10Z</time>
      </trkpt>
      <trkpt lat="45.2621" lon="6.1207">
        <ele>1902</ele>
        <time>2021-12-23T10:21:11Z</time>
      </trkpt>
      <trkpt lat="45.2621" lon="6.12071">
        <ele>1902</ele>
        <time>2021-12-23T10:21:12Z</time>
      </trkpt>
      <trkpt lat="45.26209" lon="6.12071">
        <ele>1903</ele>
        <time>2021-12-23T10:21:13Z</time>
      </trkpt>
      <trkpt lat="45.26209" lon="6.12072">
        <ele>1903</ele>
        <time>2021-12-23T10:21:14Z</time>
      </trkpt>
      <trkpt lat="45.26209" lon="6.12072">
        <ele>1903</ele>
        <time>2021-12-23T10:21:15Z</time>
      </trkpt>
      <trkpt lat="45.26209" lon="6.12073">
        <ele>1903</ele>
        <time>2021-12-23T10:21:16Z</time>
      </trkpt>
      <trkpt lat="45.26208" lon="6.12073">
        <ele>1903</ele>
        <time>2021-12-23T10:21:17Z</time>
      </trkpt>
      <trkpt lat="45.26208" lon="6.12074">
        <ele>1903</ele>
        <time>2021-12-23T10:21:18Z</time>
      </trkpt>
      <trkpt lat="45.26207" lon="6.12074">
        <ele>1904</ele>
        <time>2021-12-23T10:21:19Z</time>
      </trkpt>
      <trkpt lat="45.26207" lon="6.12075">
        <ele>1904</ele>
        <time>2021-12-23T10:21:20Z</time>
      </trkpt>
      <trkpt lat="45.26207" lon="6.12075">
        <ele>1905</ele>
        <time>2021-12-23T10:21:21Z</time>
      </trkpt>
      <trkpt lat="45.26206" lon="6.12076">
        <ele>1905</ele>
        <time>2021-12-23T10:21:23Z</time>
      </trkpt>
      <trkpt lat="45.26206" lon="6.12076">
        <ele>1905</ele>
        <time>2021-12-23T10:21:24Z</time>
      </trkpt>
      <trkpt lat="45.26205" lon="6.12077">
        <ele>1906</ele>
        <time>2021-12-23T10:21:25Z</time>
      </trkpt>
      <trkpt lat="45.26205" lon="6.12077">
        <ele>1906</ele>
        <time>2021-12-23T10:21:26Z</time>
      </trkpt>
      <trkpt lat="45.26205" lon="6.12078">
        <ele>1906</ele>
        <time>2021-12-23T10:21:27Z</time>
      </trkpt>
      <trkpt lat="45.26204" lon="6.12078">
        <ele>1906</ele>
        <time>2021-12-23T10:21:28Z</time>
      </trkpt>
      <trkpt lat="45.26204" lon="6.12079">
        <ele>1906</ele>
        <time>2021-12-23T10:21:29Z</time>
      </trkpt>
      <trkpt lat="45.26204" lon="6.12079">
        <ele>1906</ele>
        <time>2021-12-23T10:21:30Z</time>
      </trkpt>
      <trkpt lat="45.26203" lon="6.1208">
        <ele>1906</ele>
        <time>2021-12-23T10:21:31Z</time>
      </trkpt>
      <trkpt lat="45.26203" lon="6.1208">
        <ele>1907</ele>
        <time>2021-12-23T10:21:32Z</time>
      </trkpt>
      <trkpt lat="45.26202" lon="6.12081">
        <ele>1907</ele>
        <time>2021-12-23T10:21:33Z</time>
      </trkpt>
      <trkpt lat="45.26202" lon="6.12081">
        <ele>1907</ele>
        <time>2021-12-23T10:21:34Z</time>
      </trkpt>
      <trkpt lat="45.26202" lon="6.12081">
        <ele>1907</ele>
        <time>2021-12-23T10:21:35Z</time>
      </trkpt>
      <trkpt lat="45.26202" lon="6.12081">
        <ele>1907</ele>
        <time>2021-12-23T10:21:36Z</time>
      </trkpt>
      <trkpt lat="45.26202" lon="6.12081">
        <ele>1907</ele>
        <time>2021-12-23T10:21:37Z</time>
      </trkpt>
      <trkpt lat="45.26202" lon="6.12081">
        <ele>1907</ele>
        <time>2021-12-23T10:21:38Z</time>
      </trkpt>
      <trkpt lat="45.26202" lon="6.12081">
        <ele>1907</ele>
        <time>2021-12-23T10:21:39Z</time>
      </trkpt>
      <trkpt lat="45.26202" lon="6.12081">
        <ele>1908</ele>
        <time>2021-12-23T10:21:40Z</time>
      </trkpt>
      <trkpt lat="45.26202" lon="6.12081">
        <ele>1909</ele>
        <time>2021-12-23T10:21:42Z</time>
      </trkpt>
      <trkpt lat="45.26202" lon="6.12081">
        <ele>1908</ele>
        <time>2021-12-23T10:21:43Z</time>
      </trkpt>
      <trkpt lat="45.26202" lon="6.12081">
        <ele>1908</ele>
        <time>2021-12-23T10:21:44Z</time>
      </trkpt>
      <trkpt lat="45.26202" lon="6.12081">
        <ele>1908</ele>
        <time>2021-12-23T10:21:45Z</time>
      </trkpt>
      <trkpt lat="45.26205" lon="6.12093">
        <ele>1908</ele>
        <time>2021-12-23T10:21:46Z</time>
      </trkpt>
      <trkpt lat="45.26205" lon="6.12093">
        <ele>1909</ele>
        <time>2021-12-23T10:21:48Z</time>
      </trkpt>
      <trkpt lat="45.26205" lon="6.12094">
        <ele>1909</ele>
        <time>2021-12-23T10:21:49Z</time>
      </trkpt>
      <trkpt lat="45.26205" lon="6.12095">
        <ele>1909</ele>
        <time>2021-12-23T10:21:50Z</time>
      </trkpt>
      <trkpt lat="45.26206" lon="6.12095">
        <ele>1910</ele>
        <time>2021-12-23T10:21:51Z</time>
      </trkpt>
      <trkpt lat="45.26206" lon="6.12096">
        <ele>1910</ele>
        <time>2021-12-23T10:21:52Z</time>
      </trkpt>
      <trkpt lat="45.26206" lon="6.12097">
        <ele>1910</ele>
        <time>2021-12-23T10:21:53Z</time>
      </trkpt>
      <trkpt lat="45.26206" lon="6.12098">
        <ele>1910</ele>
        <time>2021-12-23T10:21:54Z</time>
      </trkpt>
      <trkpt lat="45.26206" lon="6.12099">
        <ele>1910</ele>
        <time>2021-12-23T10:21:55Z</time>
      </trkpt>
      <trkpt lat="45.26206" lon="6.121">
        <ele>1910</ele>
        <time>2021-12-23T10:21:56Z</time>
      </trkpt>
      <trkpt lat="45.26206" lon="6.121">
        <ele>1910</ele>
        <time>2021-12-23T10:21:57Z</time>
      </trkpt>
      <trkpt lat="45.26206" lon="6.12101">
        <ele>1910</ele>
        <time>2021-12-23T10:21:58Z</time>
      </trkpt>
      <trkpt lat="45.26207" lon="6.12102">
        <ele>1911</ele>
        <time>2021-12-23T10:21:59Z</time>
      </trkpt>
      <trkpt lat="45.26207" lon="6.12103">
        <ele>1911</ele>
        <time>2021-12-23T10:22:01Z</time>
      </trkpt>
      <trkpt lat="45.26207" lon="6.12104">
        <ele>1912</ele>
        <time>2021-12-23T10:22:02Z</time>
      </trkpt>
      <trkpt lat="45.26207" lon="6.12104">
        <ele>1912</ele>
        <time>2021-12-23T10:22:03Z</time>
      </trkpt>
      <trkpt lat="45.26207" lon="6.12105">
        <ele>1912</ele>
        <time>2021-12-23T10:22:04Z</time>
      </trkpt>
      <trkpt lat="45.26206" lon="6.12106">
        <ele>1912</ele>
        <time>2021-12-23T10:22:05Z</time>
      </trkpt>
      <trkpt lat="45.26206" lon="6.12106">
        <ele>1912</ele>
        <time>2021-12-23T10:22:06Z</time>
      </trkpt>
      <trkpt lat="45.26205" lon="6.12107">
        <ele>1912</ele>
        <time>2021-12-23T10:22:07Z</time>
      </trkpt>
      <trkpt lat="45.26205" lon="6.12108">
        <ele>1912</ele>
        <time>2021-12-23T10:22:08Z</time>
      </trkpt>
      <trkpt lat="45.26204" lon="6.12108">
        <ele>1912</ele>
        <time>2021-12-23T10:22:09Z</time>
      </trkpt>
      <trkpt lat="45.26204" lon="6.12109">
        <ele>1912</ele>
        <time>2021-12-23T10:22:10Z</time>
      </trkpt>
      <trkpt lat="45.26204" lon="6.1211">
        <ele>1912</ele>
        <time>2021-12-23T10:22:11Z</time>
      </trkpt>
      <trkpt lat="45.26203" lon="6.1211">
        <ele>1912</ele>
        <time>2021-12-23T10:22:12Z</time>
      </trkpt>
      <trkpt lat="45.26203" lon="6.12111">
        <ele>1912</ele>
        <time>2021-12-23T10:22:13Z</time>
      </trkpt>
      <trkpt lat="45.26202" lon="6.12111">
        <ele>1913</ele>
        <time>2021-12-23T10:22:14Z</time>
      </trkpt>
      <trkpt lat="45.26202" lon="6.12112">
        <ele>1913</ele>
        <time>2021-12-23T10:22:15Z</time>
      </trkpt>
      <trkpt lat="45.26202" lon="6.12113">
        <ele>1913</ele>
        <time>2021-12-23T10:22:16Z</time>
      </trkpt>
      <trkpt lat="45.26201" lon="6.12113">
        <ele>1913</ele>
        <time>2021-12-23T10:22:17Z</time>
      </trkpt>
      <trkpt lat="45.26201" lon="6.12114">
        <ele>1913</ele>
        <time>2021-12-23T10:22:18Z</time>
      </trkpt>
      <trkpt lat="45.262" lon="6.12115">
        <ele>1914</ele>
        <time>2021-12-23T10:22:20Z</time>
      </trkpt>
      <trkpt lat="45.26199" lon="6.12115">
        <ele>1914</ele>
        <time>2021-12-23T10:22:21Z</time>
      </trkpt>
      <trkpt lat="45.26198" lon="6.12116">
        <ele>1914</ele>
        <time>2021-12-23T10:22:22Z</time>
      </trkpt>
      <trkpt lat="45.26197" lon="6.12117">
        <ele>1914</ele>
        <time>2021-12-23T10:22:23Z</time>
      </trkpt>
      <trkpt lat="45.26196" lon="6.12117">
        <ele>1914</ele>
        <time>2021-12-23T10:22:24Z</time>
      </trkpt>
      <trkpt lat="45.26195" lon="6.12118">
        <ele>1914</ele>
        <time>2021-12-23T10:22:25Z</time>
      </trkpt>
      <trkpt lat="45.26194" lon="6.12119">
        <ele>1915</ele>
        <time>2021-12-23T10:22:26Z</time>
      </trkpt>
      <trkpt lat="45.26193" lon="6.12119">
        <ele>1915</ele>
        <time>2021-12-23T10:22:27Z</time>
      </trkpt>
      <trkpt lat="45.26192" lon="6.1212">
        <ele>1915</ele>
        <time>2021-12-23T10:22:28Z</time>
      </trkpt>
      <trkpt lat="45.26193" lon="6.12121">
        <ele>1915</ele>
        <time>2021-12-23T10:22:29Z</time>
      </trkpt>
      <trkpt lat="45.26193" lon="6.12121">
        <ele>1916</ele>
        <time>2021-12-23T10:22:30Z</time>
      </trkpt>
      <trkpt lat="45.26193" lon="6.12122">
        <ele>1916</ele>
        <time>2021-12-23T10:22:31Z</time>
      </trkpt>
      <trkpt lat="45.26193" lon="6.12123">
        <ele>1916</ele>
        <time>2021-12-23T10:22:32Z</time>
      </trkpt>
      <trkpt lat="45.26193" lon="6.12123">
        <ele>1916</ele>
        <time>2021-12-23T10:22:33Z</time>
      </trkpt>
      <trkpt lat="45.26193" lon="6.12124">
        <ele>1916</ele>
        <time>2021-12-23T10:22:34Z</time>
      </trkpt>
      <trkpt lat="45.26194" lon="6.12125">
        <ele>1917</ele>
        <time>2021-12-23T10:22:35Z</time>
      </trkpt>
      <trkpt lat="45.26194" lon="6.12125">
        <ele>1917</ele>
        <time>2021-12-23T10:22:36Z</time>
      </trkpt>
      <trkpt lat="45.26194" lon="6.12126">
        <ele>1917</ele>
        <time>2021-12-23T10:22:37Z</time>
      </trkpt>
      <trkpt lat="45.26194" lon="6.12127">
        <ele>1917</ele>
        <time>2021-12-23T10:22:39Z</time>
      </trkpt>
      <trkpt lat="45.26194" lon="6.12127">
        <ele>1917</ele>
        <time>2021-12-23T10:22:40Z</time>
      </trkpt>
      <trkpt lat="45.26195" lon="6.12128">
        <ele>1917</ele>
        <time>2021-12-23T10:22:41Z</time>
      </trkpt>
      <trkpt lat="45.26195" lon="6.12129">
        <ele>1917</ele>
        <time>2021-12-23T10:22:42Z</time>
      </trkpt>
      <trkpt lat="45.26195" lon="6.12129">
        <ele>1917</ele>
        <time>2021-12-23T10:22:43Z</time>
      </trkpt>
      <trkpt lat="45.26195" lon="6.1213">
        <ele>1917</ele>
        <time>2021-12-23T10:22:44Z</time>
      </trkpt>
      <trkpt lat="45.26195" lon="6.12131">
        <ele>1917</ele>
        <time>2021-12-23T10:22:45Z</time>
      </trkpt>
      <trkpt lat="45.26195" lon="6.12132">
        <ele>1918</ele>
        <time>2021-12-23T10:22:46Z</time>
      </trkpt>
      <trkpt lat="45.26195" lon="6.12132">
        <ele>1918</ele>
        <time>2021-12-23T10:22:47Z</time>
      </trkpt>
      <trkpt lat="45.26195" lon="6.12133">
        <ele>1918</ele>
        <time>2021-12-23T10:22:48Z</time>
      </trkpt>
      <trkpt lat="45.26195" lon="6.12133">
        <ele>1919</ele>
        <time>2021-12-23T10:22:49Z</time>
      </trkpt>
      <trkpt lat="45.26195" lon="6.12134">
        <ele>1919</ele>
        <time>2021-12-23T10:22:50Z</time>
      </trkpt>
      <trkpt lat="45.26195" lon="6.12134">
        <ele>1919</ele>
        <time>2021-12-23T10:22:51Z</time>
      </trkpt>
      <trkpt lat="45.26194" lon="6.12135">
        <ele>1919</ele>
        <time>2021-12-23T10:22:52Z</time>
      </trkpt>
      <trkpt lat="45.26194" lon="6.12135">
        <ele>1919</ele>
        <time>2021-12-23T10:22:53Z</time>
      </trkpt>
      <trkpt lat="45.26194" lon="6.12136">
        <ele>1919</ele>
        <time>2021-12-23T10:22:54Z</time>
      </trkpt>
      <trkpt lat="45.26194" lon="6.12136">
        <ele>1919</ele>
        <time>2021-12-23T10:22:55Z</time>
      </trkpt>
      <trkpt lat="45.26194" lon="6.12137">
        <ele>1920</ele>
        <time>2021-12-23T10:22:56Z</time>
      </trkpt>
      <trkpt lat="45.26193" lon="6.12137">
        <ele>1920</ele>
        <time>2021-12-23T10:22:58Z</time>
      </trkpt>
      <trkpt lat="45.26193" lon="6.12138">
        <ele>1920</ele>
        <time>2021-12-23T10:22:59Z</time>
      </trkpt>
      <trkpt lat="45.26193" lon="6.12139">
        <ele>1920</ele>
        <time>2021-12-23T10:23:00Z</time>
      </trkpt>
      <trkpt lat="45.26193" lon="6.12139">
        <ele>1920</ele>
        <time>2021-12-23T10:23:01Z</time>
      </trkpt>
      <trkpt lat="45.26193" lon="6.1214">
        <ele>1920</ele>
        <time>2021-12-23T10:23:02Z</time>
      </trkpt>
      <trkpt lat="45.26193" lon="6.1214">
        <ele>1921</ele>
        <time>2021-12-23T10:23:03Z</time>
      </trkpt>
      <trkpt lat="45.26192" lon="6.12141">
        <ele>1921</ele>
        <time>2021-12-23T10:23:04Z</time>
      </trkpt>
      <trkpt lat="45.26192" lon="6.12141">
        <ele>1922</ele>
        <time>2021-12-23T10:23:05Z</time>
      </trkpt>
      <trkpt lat="45.26192" lon="6.12142">
        <ele>1922</ele>
        <time>2021-12-23T10:23:06Z</time>
      </trkpt>
      <trkpt lat="45.26192" lon="6.12142">
        <ele>1922</ele>
        <time>2021-12-23T10:23:07Z</time>
      </trkpt>
      <trkpt lat="45.26192" lon="6.12142">
        <ele>1922</ele>
        <time>2021-12-23T10:23:08Z</time>
      </trkpt>
      <trkpt lat="45.26192" lon="6.12142">
        <ele>1922</ele>
        <time>2021-12-23T10:23:09Z</time>
      </trkpt>
      <trkpt lat="45.26192" lon="6.12142">
        <ele>1922</ele>
        <time>2021-12-23T10:23:10Z</time>
      </trkpt>
      <trkpt lat="45.26192" lon="6.12142">
        <ele>1922</ele>
        <time>2021-12-23T10:23:11Z</time>
      </trkpt>
      <trkpt lat="45.26192" lon="6.12142">
        <ele>1922</ele>
        <time>2021-12-23T10:23:12Z</time>
      </trkpt>
      <trkpt lat="45.26192" lon="6.12142">
        <ele>1922</ele>
        <time>2021-12-23T10:23:13Z</time>
      </trkpt>
      <trkpt lat="45.26192" lon="6.12142">
        <ele>1923</ele>
        <time>2021-12-23T10:23:14Z</time>
      </trkpt>
      <trkpt lat="45.26192" lon="6.12142">
        <ele>1923</ele>
        <time>2021-12-23T10:23:15Z</time>
      </trkpt>
      <trkpt lat="45.26192" lon="6.12142">
        <ele>1923</ele>
        <time>2021-12-23T10:23:17Z</time>
      </trkpt>
      <trkpt lat="45.26192" lon="6.12142">
        <ele>1923</ele>
        <time>2021-12-23T10:23:18Z</time>
      </trkpt>
      <trkpt lat="45.26192" lon="6.12142">
        <ele>1923</ele>
        <time>2021-12-23T10:23:19Z</time>
      </trkpt>
      <trkpt lat="45.26192" lon="6.12142">
        <ele>1923</ele>
        <time>2021-12-23T10:23:20Z</time>
      </trkpt>
      <trkpt lat="45.26192" lon="6.12142">
        <ele>1923</ele>
        <time>2021-12-23T10:23:21Z</time>
      </trkpt>
      <trkpt lat="45.26192" lon="6.12142">
        <ele>1924</ele>
        <time>2021-12-23T10:23:22Z</time>
      </trkpt>
      <trkpt lat="45.26192" lon="6.12142">
        <ele>1924</ele>
        <time>2021-12-23T10:23:23Z</time>
      </trkpt>
      <trkpt lat="45.26192" lon="6.12142">
        <ele>1924</ele>
        <time>2021-12-23T10:23:24Z</time>
      </trkpt>
      <trkpt lat="45.26192" lon="6.12142">
        <ele>1924</ele>
        <time>2021-12-23T10:23:25Z</time>
      </trkpt>
      <trkpt lat="45.26183" lon="6.12148">
        <ele>1925</ele>
        <time>2021-12-23T10:23:26Z</time>
      </trkpt>
      <trkpt lat="45.26183" lon="6.12148">
        <ele>1925</ele>
        <time>2021-12-23T10:23:28Z</time>
      </trkpt>
      <trkpt lat="45.26182" lon="6.12148">
        <ele>1925</ele>
        <time>2021-12-23T10:23:29Z</time>
      </trkpt>
      <trkpt lat="45.26181" lon="6.12149">
        <ele>1925</ele>
        <time>2021-12-23T10:23:30Z</time>
      </trkpt>
      <trkpt lat="45.2618" lon="6.12149">
        <ele>1925</ele>
        <time>2021-12-23T10:23:31Z</time>
      </trkpt>
      <trkpt lat="45.2618" lon="6.1215">
        <ele>1926</ele>
        <time>2021-12-23T10:23:32Z</time>
      </trkpt>
      <trkpt lat="45.26179" lon="6.12151">
        <ele>1926</ele>
        <time>2021-12-23T10:23:33Z</time>
      </trkpt>
      <trkpt lat="45.26178" lon="6.12151">
        <ele>1926</ele>
        <time>2021-12-23T10:23:34Z</time>
      </trkpt>
      <trkpt lat="45.26177" lon="6.12152">
        <ele>1927</ele>
        <time>2021-12-23T10:23:36Z</time>
      </trkpt>
      <trkpt lat="45.26176" lon="6.12152">
        <ele>1927</ele>
        <time>2021-12-23T10:23:37Z</time>
      </trkpt>
      <trkpt lat="45.26175" lon="6.12153">
        <ele>1927</ele>
        <time>2021-12-23T10:23:38Z</time>
      </trkpt>
      <trkpt lat="45.26175" lon="6.12154">
        <ele>1927</ele>
        <time>2021-12-23T10:23:39Z</time>
      </trkpt>
      <trkpt lat="45.26175" lon="6.12154">
        <ele>1927</ele>
        <time>2021-12-23T10:23:40Z</time>
      </trkpt>
      <trkpt lat="45.26175" lon="6.12154">
        <ele>1927</ele>
        <time>2021-12-23T10:23:41Z</time>
      </trkpt>
      <trkpt lat="45.26175" lon="6.12154">
        <ele>1927</ele>
        <time>2021-12-23T10:23:42Z</time>
      </trkpt>
      <trkpt lat="45.26176" lon="6.12155">
        <ele>1927</ele>
        <time>2021-12-23T10:23:43Z</time>
      </trkpt>
      <trkpt lat="45.26176" lon="6.12155">
        <ele>1927</ele>
        <time>2021-12-23T10:23:44Z</time>
      </trkpt>
      <trkpt lat="45.26176" lon="6.12155">
        <ele>1927</ele>
        <time>2021-12-23T10:23:45Z</time>
      </trkpt>
      <trkpt lat="45.26177" lon="6.12156">
        <ele>1928</ele>
        <time>2021-12-23T10:23:46Z</time>
      </trkpt>
      <trkpt lat="45.26177" lon="6.12156">
        <ele>1928</ele>
        <time>2021-12-23T10:23:47Z</time>
      </trkpt>
      <trkpt lat="45.26177" lon="6.12156">
        <ele>1928</ele>
        <time>2021-12-23T10:23:48Z</time>
      </trkpt>
      <trkpt lat="45.26177" lon="6.12157">
        <ele>1928</ele>
        <time>2021-12-23T10:23:49Z</time>
      </trkpt>
      <trkpt lat="45.26178" lon="6.12157">
        <ele>1928</ele>
        <time>2021-12-23T10:23:50Z</time>
      </trkpt>
      <trkpt lat="45.26178" lon="6.12157">
        <ele>1928</ele>
        <time>2021-12-23T10:23:51Z</time>
      </trkpt>
      <trkpt lat="45.26178" lon="6.12158">
        <ele>1929</ele>
        <time>2021-12-23T10:23:52Z</time>
      </trkpt>
      <trkpt lat="45.26178" lon="6.12158">
        <ele>1929</ele>
        <time>2021-12-23T10:23:53Z</time>
      </trkpt>
      <trkpt lat="45.26179" lon="6.12158">
        <ele>1929</ele>
        <time>2021-12-23T10:23:55Z</time>
      </trkpt>
      <trkpt lat="45.26179" lon="6.12159">
        <ele>1929</ele>
        <time>2021-12-23T10:23:56Z</time>
      </trkpt>
      <trkpt lat="45.26179" lon="6.12159">
        <ele>1929</ele>
        <time>2021-12-23T10:23:57Z</time>
      </trkpt>
      <trkpt lat="45.26179" lon="6.12159">
        <ele>1929</ele>
        <time>2021-12-23T10:23:58Z</time>
      </trkpt>
      <trkpt lat="45.2618" lon="6.12159">
        <ele>1929</ele>
        <time>2021-12-23T10:23:59Z</time>
      </trkpt>
      <trkpt lat="45.2618" lon="6.1216">
        <ele>1929</ele>
        <time>2021-12-23T10:24:00Z</time>
      </trkpt>
      <trkpt lat="45.2618" lon="6.1216">
        <ele>1929</ele>
        <time>2021-12-23T10:24:01Z</time>
      </trkpt>
      <trkpt lat="45.2618" lon="6.1216">
        <ele>1930</ele>
        <time>2021-12-23T10:24:02Z</time>
      </trkpt>
      <trkpt lat="45.26181" lon="6.12161">
        <ele>1930</ele>
        <time>2021-12-23T10:24:03Z</time>
      </trkpt>
      <trkpt lat="45.26181" lon="6.12161">
        <ele>1930</ele>
        <time>2021-12-23T10:24:04Z</time>
      </trkpt>
      <trkpt lat="45.26181" lon="6.12161">
        <ele>1931</ele>
        <time>2021-12-23T10:24:05Z</time>
      </trkpt>
      <trkpt lat="45.26182" lon="6.12162">
        <ele>1931</ele>
        <time>2021-12-23T10:24:06Z</time>
      </trkpt>
      <trkpt lat="45.26182" lon="6.12162">
        <ele>1931</ele>
        <time>2021-12-23T10:24:07Z</time>
      </trkpt>
      <trkpt lat="45.26182" lon="6.12162">
        <ele>1931</ele>
        <time>2021-12-23T10:24:08Z</time>
      </trkpt>
      <trkpt lat="45.26182" lon="6.12163">
        <ele>1931</ele>
        <time>2021-12-23T10:24:09Z</time>
      </trkpt>
      <trkpt lat="45.26183" lon="6.12163">
        <ele>1931</ele>
        <time>2021-12-23T10:24:10Z</time>
      </trkpt>
      <trkpt lat="45.26181" lon="6.12162">
        <ele>1931</ele>
        <time>2021-12-23T10:24:11Z</time>
      </trkpt>
      <trkpt lat="45.26179" lon="6.12161">
        <ele>1932</ele>
        <time>2021-12-23T10:24:12Z</time>
      </trkpt>
      <trkpt lat="45.26178" lon="6.1216">
        <ele>1932</ele>
        <time>2021-12-23T10:24:14Z</time>
      </trkpt>
      <trkpt lat="45.26176" lon="6.12159">
        <ele>1932</ele>
        <time>2021-12-23T10:24:15Z</time>
      </trkpt>
      <trkpt lat="45.26174" lon="6.12158">
        <ele>1932</ele>
        <time>2021-12-23T10:24:16Z</time>
      </trkpt>
      <trkpt lat="45.26173" lon="6.12159">
        <ele>1932</ele>
        <time>2021-12-23T10:24:17Z</time>
      </trkpt>
      <trkpt lat="45.26172" lon="6.12159">
        <ele>1932</ele>
        <time>2021-12-23T10:24:18Z</time>
      </trkpt>
      <trkpt lat="45.26171" lon="6.12159">
        <ele>1932</ele>
        <time>2021-12-23T10:24:19Z</time>
      </trkpt>
      <trkpt lat="45.2617" lon="6.1216">
        <ele>1932</ele>
        <time>2021-12-23T10:24:20Z</time>
      </trkpt>
      <trkpt lat="45.26169" lon="6.1216">
        <ele>1932</ele>
        <time>2021-12-23T10:24:21Z</time>
      </trkpt>
      <trkpt lat="45.26168" lon="6.12161">
        <ele>1932</ele>
        <time>2021-12-23T10:24:22Z</time>
      </trkpt>
      <trkpt lat="45.26167" lon="6.12161">
        <ele>1933</ele>
        <time>2021-12-23T10:24:23Z</time>
      </trkpt>
      <trkpt lat="45.26166" lon="6.12161">
        <ele>1933</ele>
        <time>2021-12-23T10:24:24Z</time>
      </trkpt>
      <trkpt lat="45.26166" lon="6.12162">
        <ele>1933</ele>
        <time>2021-12-23T10:24:25Z</time>
      </trkpt>
      <trkpt lat="45.26166" lon="6.12162">
        <ele>1933</ele>
        <time>2021-12-23T10:24:26Z</time>
      </trkpt>
      <trkpt lat="45.26166" lon="6.12162">
        <ele>1933</ele>
        <time>2021-12-23T10:24:27Z</time>
      </trkpt>
      <trkpt lat="45.26166" lon="6.12162">
        <ele>1933</ele>
        <time>2021-12-23T10:24:28Z</time>
      </trkpt>
      <trkpt lat="45.26166" lon="6.12162">
        <ele>1933</ele>
        <time>2021-12-23T10:24:29Z</time>
      </trkpt>
      <trkpt lat="45.26166" lon="6.12162">
        <ele>1933</ele>
        <time>2021-12-23T10:24:30Z</time>
      </trkpt>
      <trkpt lat="45.26166" lon="6.12162">
        <ele>1933</ele>
        <time>2021-12-23T10:24:31Z</time>
      </trkpt>
      <trkpt lat="45.26166" lon="6.12162">
        <ele>1933</ele>
        <time>2021-12-23T10:24:33Z</time>
      </trkpt>
      <trkpt lat="45.26166" lon="6.12162">
        <ele>1933</ele>
        <time>2021-12-23T10:24:34Z</time>
      </trkpt>
      <trkpt lat="45.26166" lon="6.12162">
        <ele>1933</ele>
        <time>2021-12-23T10:24:35Z</time>
      </trkpt>
      <trkpt lat="45.26166" lon="6.12162">
        <ele>1934</ele>
        <time>2021-12-23T10:24:36Z</time>
      </trkpt>
      <trkpt lat="45.26166" lon="6.12162">
        <ele>1934</ele>
        <time>2021-12-23T10:24:37Z</time>
      </trkpt>
      <trkpt lat="45.26166" lon="6.12162">
        <ele>1934</ele>
        <time>2021-12-23T10:24:38Z</time>
      </trkpt>
      <trkpt lat="45.26166" lon="6.12162">
        <ele>1935</ele>
        <time>2021-12-23T10:24:39Z</time>
      </trkpt>
      <trkpt lat="45.26166" lon="6.12162">
        <ele>1935</ele>
        <time>2021-12-23T10:24:40Z</time>
      </trkpt>
      <trkpt lat="45.26166" lon="6.12162">
        <ele>1935</ele>
        <time>2021-12-23T10:24:41Z</time>
      </trkpt>
      <trkpt lat="45.26166" lon="6.12162">
        <ele>1935</ele>
        <time>2021-12-23T10:24:42Z</time>
      </trkpt>
      <trkpt lat="45.26166" lon="6.12162">
        <ele>1935</ele>
        <time>2021-12-23T10:24:43Z</time>
      </trkpt>
      <trkpt lat="45.26166" lon="6.12162">
        <ele>1935</ele>
        <time>2021-12-23T10:24:44Z</time>
      </trkpt>
      <trkpt lat="45.26166" lon="6.12162">
        <ele>1935</ele>
        <time>2021-12-23T10:24:45Z</time>
      </trkpt>
      <trkpt lat="45.26166" lon="6.12162">
        <ele>1935</ele>
        <time>2021-12-23T10:24:46Z</time>
      </trkpt>
      <trkpt lat="45.26166" lon="6.12162">
        <ele>1935</ele>
        <time>2021-12-23T10:24:47Z</time>
      </trkpt>
      <trkpt lat="45.26166" lon="6.12162">
        <ele>1935</ele>
        <time>2021-12-23T10:24:48Z</time>
      </trkpt>
      <trkpt lat="45.26166" lon="6.12162">
        <ele>1935</ele>
        <time>2021-12-23T10:24:49Z</time>
      </trkpt>
      <trkpt lat="45.26166" lon="6.12162">
        <ele>1935</ele>
        <time>2021-12-23T10:24:50Z</time>
      </trkpt>
      <trkpt lat="45.26166" lon="6.12162">
        <ele>1935</ele>
        <time>2021-12-23T10:24:52Z</time>
      </trkpt>
      <trkpt lat="45.26166" lon="6.12162">
        <ele>1935</ele>
        <time>2021-12-23T10:24:53Z</time>
      </trkpt>
      <trkpt lat="45.26166" lon="6.12162">
        <ele>1935</ele>
        <time>2021-12-23T10:24:54Z</time>
      </trkpt>
      <trkpt lat="45.26166" lon="6.12162">
        <ele>1935</ele>
        <time>2021-12-23T10:24:55Z</time>
      </trkpt>
      <trkpt lat="45.26166" lon="6.12162">
        <ele>1936</ele>
        <time>2021-12-23T10:24:56Z</time>
      </trkpt>
      <trkpt lat="45.26166" lon="6.12162">
        <ele>1937</ele>
        <time>2021-12-23T10:24:57Z</time>
      </trkpt>
      <trkpt lat="45.26166" lon="6.12162">
        <ele>1937</ele>
        <time>2021-12-23T10:24:58Z</time>
      </trkpt>
      <trkpt lat="45.26166" lon="6.12162">
        <ele>1937</ele>
        <time>2021-12-23T10:24:59Z</time>
      </trkpt>
      <trkpt lat="45.26166" lon="6.12162">
        <ele>1937</ele>
        <time>2021-12-23T10:25:00Z</time>
      </trkpt>
      <trkpt lat="45.26157" lon="6.12158">
        <ele>1938</ele>
        <time>2021-12-23T10:25:01Z</time>
      </trkpt>
      <trkpt lat="45.26157" lon="6.12158">
        <ele>1938</ele>
        <time>2021-12-23T10:25:03Z</time>
      </trkpt>
      <trkpt lat="45.26157" lon="6.12158">
        <ele>1938</ele>
        <time>2021-12-23T10:25:04Z</time>
      </trkpt>
      <trkpt lat="45.26157" lon="6.12158">
        <ele>1938</ele>
        <time>2021-12-23T10:25:05Z</time>
      </trkpt>
      <trkpt lat="45.26157" lon="6.12158">
        <ele>1938</ele>
        <time>2021-12-23T10:25:06Z</time>
      </trkpt>
      <trkpt lat="45.26156" lon="6.12158">
        <ele>1938</ele>
        <time>2021-12-23T10:25:07Z</time>
      </trkpt>
      <trkpt lat="45.26156" lon="6.12158">
        <ele>1939</ele>
        <time>2021-12-23T10:25:08Z</time>
      </trkpt>
      <trkpt lat="45.26156" lon="6.12157">
        <ele>1939</ele>
        <time>2021-12-23T10:25:09Z</time>
      </trkpt>
      <trkpt lat="45.26155" lon="6.12157">
        <ele>1939</ele>
        <time>2021-12-23T10:25:11Z</time>
      </trkpt>
      <trkpt lat="45.26155" lon="6.12157">
        <ele>1939</ele>
        <time>2021-12-23T10:25:12Z</time>
      </trkpt>
      <trkpt lat="45.26155" lon="6.12157">
        <ele>1939</ele>
        <time>2021-12-23T10:25:13Z</time>
      </trkpt>
      <trkpt lat="45.26155" lon="6.12157">
        <ele>1939</ele>
        <time>2021-12-23T10:25:14Z</time>
      </trkpt>
      <trkpt lat="45.26154" lon="6.12157">
        <ele>1940</ele>
        <time>2021-12-23T10:25:15Z</time>
      </trkpt>
      <trkpt lat="45.26154" lon="6.12157">
        <ele>1940</ele>
        <time>2021-12-23T10:25:16Z</time>
      </trkpt>
      <trkpt lat="45.26154" lon="6.12157">
        <ele>1940</ele>
        <time>2021-12-23T10:25:17Z</time>
      </trkpt>
      <trkpt lat="45.26154" lon="6.12157">
        <ele>1940</ele>
        <time>2021-12-23T10:25:18Z</time>
      </trkpt>
      <trkpt lat="45.26153" lon="6.12157">
        <ele>1940</ele>
        <time>2021-12-23T10:25:19Z</time>
      </trkpt>
      <trkpt lat="45.26153" lon="6.12157">
        <ele>1940</ele>
        <time>2021-12-23T10:25:20Z</time>
      </trkpt>
      <trkpt lat="45.26153" lon="6.12157">
        <ele>1940</ele>
        <time>2021-12-23T10:25:21Z</time>
      </trkpt>
      <trkpt lat="45.26153" lon="6.12157">
        <ele>1940</ele>
        <time>2021-12-23T10:25:22Z</time>
      </trkpt>
      <trkpt lat="45.26152" lon="6.12157">
        <ele>1940</ele>
        <time>2021-12-23T10:25:23Z</time>
      </trkpt>
      <trkpt lat="45.26152" lon="6.12157">
        <ele>1940</ele>
        <time>2021-12-23T10:25:24Z</time>
      </trkpt>
      <trkpt lat="45.26152" lon="6.12157">
        <ele>1941</ele>
        <time>2021-12-23T10:25:25Z</time>
      </trkpt>
      <trkpt lat="45.26151" lon="6.12157">
        <ele>1941</ele>
        <time>2021-12-23T10:25:26Z</time>
      </trkpt>
      <trkpt lat="45.26151" lon="6.12157">
        <ele>1941</ele>
        <time>2021-12-23T10:25:27Z</time>
      </trkpt>
      <trkpt lat="45.26151" lon="6.12157">
        <ele>1941</ele>
        <time>2021-12-23T10:25:28Z</time>
      </trkpt>
      <trkpt lat="45.26151" lon="6.12157">
        <ele>1941</ele>
        <time>2021-12-23T10:25:30Z</time>
      </trkpt>
      <trkpt lat="45.2615" lon="6.12157">
        <ele>1941</ele>
        <time>2021-12-23T10:25:31Z</time>
      </trkpt>
      <trkpt lat="45.2615" lon="6.12157">
        <ele>1942</ele>
        <time>2021-12-23T10:25:32Z</time>
      </trkpt>
      <trkpt lat="45.2615" lon="6.12157">
        <ele>1942</ele>
        <time>2021-12-23T10:25:33Z</time>
      </trkpt>
      <trkpt lat="45.2615" lon="6.12157">
        <ele>1942</ele>
        <time>2021-12-23T10:25:34Z</time>
      </trkpt>
      <trkpt lat="45.26149" lon="6.12157">
        <ele>1942</ele>
        <time>2021-12-23T10:25:35Z</time>
      </trkpt>
      <trkpt lat="45.26149" lon="6.12157">
        <ele>1942</ele>
        <time>2021-12-23T10:25:36Z</time>
      </trkpt>
      <trkpt lat="45.26149" lon="6.12158">
        <ele>1942</ele>
        <time>2021-12-23T10:25:37Z</time>
      </trkpt>
      <trkpt lat="45.26149" lon="6.12159">
        <ele>1943</ele>
        <time>2021-12-23T10:25:38Z</time>
      </trkpt>
      <trkpt lat="45.2615" lon="6.1216">
        <ele>1943</ele>
        <time>2021-12-23T10:25:39Z</time>
      </trkpt>
      <trkpt lat="45.2615" lon="6.12161">
        <ele>1944</ele>
        <time>2021-12-23T10:25:40Z</time>
      </trkpt>
      <trkpt lat="45.2615" lon="6.12162">
        <ele>1944</ele>
        <time>2021-12-23T10:25:41Z</time>
      </trkpt>
      <trkpt lat="45.2615" lon="6.12163">
        <ele>1944</ele>
        <time>2021-12-23T10:25:42Z</time>
      </trkpt>
      <trkpt lat="45.2615" lon="6.12164">
        <ele>1945</ele>
        <time>2021-12-23T10:25:43Z</time>
      </trkpt>
      <trkpt lat="45.26151" lon="6.12165">
        <ele>1945</ele>
        <time>2021-12-23T10:25:44Z</time>
      </trkpt>
      <trkpt lat="45.26151" lon="6.12166">
        <ele>1945</ele>
        <time>2021-12-23T10:25:45Z</time>
      </trkpt>
      <trkpt lat="45.26151" lon="6.12167">
        <ele>1945</ele>
        <time>2021-12-23T10:25:46Z</time>
      </trkpt>
      <trkpt lat="45.26151" lon="6.12168">
        <ele>1945</ele>
        <time>2021-12-23T10:25:47Z</time>
      </trkpt>
      <trkpt lat="45.26151" lon="6.12169">
        <ele>1945</ele>
        <time>2021-12-23T10:25:49Z</time>
      </trkpt>
      <trkpt lat="45.26152" lon="6.1217">
        <ele>1945</ele>
        <time>2021-12-23T10:25:50Z</time>
      </trkpt>
      <trkpt lat="45.26151" lon="6.12171">
        <ele>1945</ele>
        <time>2021-12-23T10:25:51Z</time>
      </trkpt>
      <trkpt lat="45.26151" lon="6.12171">
        <ele>1945</ele>
        <time>2021-12-23T10:25:52Z</time>
      </trkpt>
      <trkpt lat="45.2615" lon="6.12172">
        <ele>1945</ele>
        <time>2021-12-23T10:25:53Z</time>
      </trkpt>
      <trkpt lat="45.2615" lon="6.12172">
        <ele>1945</ele>
        <time>2021-12-23T10:25:54Z</time>
      </trkpt>
      <trkpt lat="45.26149" lon="6.12173">
        <ele>1946</ele>
        <time>2021-12-23T10:25:55Z</time>
      </trkpt>
      <trkpt lat="45.26149" lon="6.12173">
        <ele>1947</ele>
        <time>2021-12-23T10:25:56Z</time>
      </trkpt>
      <trkpt lat="45.26148" lon="6.12173">
        <ele>1947</ele>
        <time>2021-12-23T10:25:57Z</time>
      </trkpt>
      <trkpt lat="45.26147" lon="6.12174">
        <ele>1947</ele>
        <time>2021-12-23T10:25:58Z</time>
      </trkpt>
      <trkpt lat="45.26147" lon="6.12174">
        <ele>1947</ele>
        <time>2021-12-23T10:25:59Z</time>
      </trkpt>
      <trkpt lat="45.26146" lon="6.12175">
        <ele>1947</ele>
        <time>2021-12-23T10:26:00Z</time>
      </trkpt>
      <trkpt lat="45.26146" lon="6.12175">
        <ele>1947</ele>
        <time>2021-12-23T10:26:01Z</time>
      </trkpt>
      <trkpt lat="45.26145" lon="6.12175">
        <ele>1947</ele>
        <time>2021-12-23T10:26:02Z</time>
      </trkpt>
      <trkpt lat="45.26145" lon="6.12176">
        <ele>1947</ele>
        <time>2021-12-23T10:26:03Z</time>
      </trkpt>
      <trkpt lat="45.26144" lon="6.12176">
        <ele>1947</ele>
        <time>2021-12-23T10:26:04Z</time>
      </trkpt>
      <trkpt lat="45.26144" lon="6.12177">
        <ele>1947</ele>
        <time>2021-12-23T10:26:05Z</time>
      </trkpt>
      <trkpt lat="45.26144" lon="6.12177">
        <ele>1947</ele>
        <time>2021-12-23T10:26:06Z</time>
      </trkpt>
      <trkpt lat="45.26144" lon="6.12177">
        <ele>1948</ele>
        <time>2021-12-23T10:26:08Z</time>
      </trkpt>
      <trkpt lat="45.26144" lon="6.12177">
        <ele>1948</ele>
        <time>2021-12-23T10:26:09Z</time>
      </trkpt>
      <trkpt lat="45.26144" lon="6.12177">
        <ele>1948</ele>
        <time>2021-12-23T10:26:10Z</time>
      </trkpt>
      <trkpt lat="45.26144" lon="6.12177">
        <ele>1948</ele>
        <time>2021-12-23T10:26:11Z</time>
      </trkpt>
      <trkpt lat="45.26144" lon="6.12177">
        <ele>1948</ele>
        <time>2021-12-23T10:26:12Z</time>
      </trkpt>
      <trkpt lat="45.26144" lon="6.12177">
        <ele>1949</ele>
        <time>2021-12-23T10:26:13Z</time>
      </trkpt>
      <trkpt lat="45.26144" lon="6.12177">
        <ele>1949</ele>
        <time>2021-12-23T10:26:14Z</time>
      </trkpt>
      <trkpt lat="45.26144" lon="6.12177">
        <ele>1950</ele>
        <time>2021-12-23T10:26:15Z</time>
      </trkpt>
      <trkpt lat="45.26144" lon="6.12177">
        <ele>1950</ele>
        <time>2021-12-23T10:26:16Z</time>
      </trkpt>
      <trkpt lat="45.26144" lon="6.12177">
        <ele>1950</ele>
        <time>2021-12-23T10:26:17Z</time>
      </trkpt>
      <trkpt lat="45.26144" lon="6.12177">
        <ele>1950</ele>
        <time>2021-12-23T10:26:18Z</time>
      </trkpt>
      <trkpt lat="45.26144" lon="6.12177">
        <ele>1950</ele>
        <time>2021-12-23T10:26:19Z</time>
      </trkpt>
      <trkpt lat="45.26144" lon="6.12177">
        <ele>1950</ele>
        <time>2021-12-23T10:26:20Z</time>
      </trkpt>
      <trkpt lat="45.26144" lon="6.12177">
        <ele>1950</ele>
        <time>2021-12-23T10:26:21Z</time>
      </trkpt>
      <trkpt lat="45.26144" lon="6.12177">
        <ele>1950</ele>
        <time>2021-12-23T10:26:22Z</time>
      </trkpt>
      <trkpt lat="45.26144" lon="6.12177">
        <ele>1950</ele>
        <time>2021-12-23T10:26:23Z</time>
      </trkpt>
      <trkpt lat="45.26144" lon="6.12177">
        <ele>1950</ele>
        <time>2021-12-23T10:26:24Z</time>
      </trkpt>
      <trkpt lat="45.26135" lon="6.12173">
        <ele>1950</ele>
        <time>2021-12-23T10:26:25Z</time>
      </trkpt>
      <trkpt lat="45.26135" lon="6.12173">
        <ele>1950</ele>
        <time>2021-12-23T10:26:27Z</time>
      </trkpt>
      <trkpt lat="45.26135" lon="6.12173">
        <ele>1950</ele>
        <time>2021-12-23T10:26:28Z</time>
      </trkpt>
      <trkpt lat="45.26135" lon="6.12173">
        <ele>1950</ele>
        <time>2021-12-23T10:26:29Z</time>
      </trkpt>
      <trkpt lat="45.26135" lon="6.12173">
        <ele>1950</ele>
        <time>2021-12-23T10:26:30Z</time>
      </trkpt>
      <trkpt lat="45.26135" lon="6.12173">
        <ele>1950</ele>
        <time>2021-12-23T10:26:31Z</time>
      </trkpt>
      <trkpt lat="45.26135" lon="6.12173">
        <ele>1951</ele>
        <time>2021-12-23T10:26:32Z</time>
      </trkpt>
      <trkpt lat="45.26135" lon="6.12173">
        <ele>1951</ele>
        <time>2021-12-23T10:26:33Z</time>
      </trkpt>
      <trkpt lat="45.26135" lon="6.12173">
        <ele>1952</ele>
        <time>2021-12-23T10:26:34Z</time>
      </trkpt>
      <trkpt lat="45.26131" lon="6.12186">
        <ele>1952</ele>
        <time>2021-12-23T10:26:35Z</time>
      </trkpt>
      <trkpt lat="45.26131" lon="6.12186">
        <ele>1952</ele>
        <time>2021-12-23T10:26:37Z</time>
      </trkpt>
      <trkpt lat="45.26131" lon="6.12186">
        <ele>1952</ele>
        <time>2021-12-23T10:26:38Z</time>
      </trkpt>
      <trkpt lat="45.2613" lon="6.12187">
        <ele>1952</ele>
        <time>2021-12-23T10:26:39Z</time>
      </trkpt>
      <trkpt lat="45.2613" lon="6.12187">
        <ele>1953</ele>
        <time>2021-12-23T10:26:40Z</time>
      </trkpt>
      <trkpt lat="45.26129" lon="6.12187">
        <ele>1953</ele>
        <time>2021-12-23T10:26:41Z</time>
      </trkpt>
      <trkpt lat="45.26129" lon="6.12188">
        <ele>1953</ele>
        <time>2021-12-23T10:26:42Z</time>
      </trkpt>
      <trkpt lat="45.26128" lon="6.12188">
        <ele>1953</ele>
        <time>2021-12-23T10:26:43Z</time>
      </trkpt>
      <trkpt lat="45.26128" lon="6.12188">
        <ele>1953</ele>
        <time>2021-12-23T10:26:44Z</time>
      </trkpt>
      <trkpt lat="45.26127" lon="6.12189">
        <ele>1954</ele>
        <time>2021-12-23T10:26:46Z</time>
      </trkpt>
      <trkpt lat="45.26126" lon="6.12189">
        <ele>1954</ele>
        <time>2021-12-23T10:26:47Z</time>
      </trkpt>
      <trkpt lat="45.26126" lon="6.1219">
        <ele>1955</ele>
        <time>2021-12-23T10:26:48Z</time>
      </trkpt>
      <trkpt lat="45.26125" lon="6.1219">
        <ele>1955</ele>
        <time>2021-12-23T10:26:49Z</time>
      </trkpt>
      <trkpt lat="45.26125" lon="6.1219">
        <ele>1956</ele>
        <time>2021-12-23T10:26:50Z</time>
      </trkpt>
      <trkpt lat="45.26124" lon="6.12191">
        <ele>1956</ele>
        <time>2021-12-23T10:26:51Z</time>
      </trkpt>
      <trkpt lat="45.26124" lon="6.12191">
        <ele>1956</ele>
        <time>2021-12-23T10:26:52Z</time>
      </trkpt>
      <trkpt lat="45.26123" lon="6.12191">
        <ele>1956</ele>
        <time>2021-12-23T10:26:53Z</time>
      </trkpt>
      <trkpt lat="45.26123" lon="6.12192">
        <ele>1956</ele>
        <time>2021-12-23T10:26:54Z</time>
      </trkpt>
      <trkpt lat="45.26123" lon="6.12192">
        <ele>1957</ele>
        <time>2021-12-23T10:26:55Z</time>
      </trkpt>
      <trkpt lat="45.26123" lon="6.12193">
        <ele>1957</ele>
        <time>2021-12-23T10:26:56Z</time>
      </trkpt>
      <trkpt lat="45.26123" lon="6.12194">
        <ele>1957</ele>
        <time>2021-12-23T10:26:57Z</time>
      </trkpt>
      <trkpt lat="45.26123" lon="6.12194">
        <ele>1957</ele>
        <time>2021-12-23T10:26:58Z</time>
      </trkpt>
      <trkpt lat="45.26123" lon="6.12195">
        <ele>1958</ele>
        <time>2021-12-23T10:26:59Z</time>
      </trkpt>
      <trkpt lat="45.26122" lon="6.12195">
        <ele>1958</ele>
        <time>2021-12-23T10:27:00Z</time>
      </trkpt>
      <trkpt lat="45.26122" lon="6.12196">
        <ele>1958</ele>
        <time>2021-12-23T10:27:01Z</time>
      </trkpt>
      <trkpt lat="45.26122" lon="6.12197">
        <ele>1958</ele>
        <time>2021-12-23T10:27:02Z</time>
      </trkpt>
      <trkpt lat="45.26122" lon="6.12197">
        <ele>1958</ele>
        <time>2021-12-23T10:27:03Z</time>
      </trkpt>
      <trkpt lat="45.26122" lon="6.12198">
        <ele>1958</ele>
        <time>2021-12-23T10:27:05Z</time>
      </trkpt>
      <trkpt lat="45.26122" lon="6.12198">
        <ele>1958</ele>
        <time>2021-12-23T10:27:06Z</time>
      </trkpt>
      <trkpt lat="45.26122" lon="6.12199">
        <ele>1959</ele>
        <time>2021-12-23T10:27:07Z</time>
      </trkpt>
      <trkpt lat="45.26122" lon="6.122">
        <ele>1959</ele>
        <time>2021-12-23T10:27:08Z</time>
      </trkpt>
      <trkpt lat="45.26122" lon="6.122">
        <ele>1959</ele>
        <time>2021-12-23T10:27:09Z</time>
      </trkpt>
      <trkpt lat="45.26121" lon="6.12201">
        <ele>1959</ele>
        <time>2021-12-23T10:27:10Z</time>
      </trkpt>
      <trkpt lat="45.26121" lon="6.12201">
        <ele>1959</ele>
        <time>2021-12-23T10:27:11Z</time>
      </trkpt>
      <trkpt lat="45.26121" lon="6.12202">
        <ele>1959</ele>
        <time>2021-12-23T10:27:12Z</time>
      </trkpt>
      <trkpt lat="45.26121" lon="6.12203">
        <ele>1959</ele>
        <time>2021-12-23T10:27:13Z</time>
      </trkpt>
      <trkpt lat="45.26121" lon="6.12203">
        <ele>1959</ele>
        <time>2021-12-23T10:27:14Z</time>
      </trkpt>
      <trkpt lat="45.26121" lon="6.12204">
        <ele>1959</ele>
        <time>2021-12-23T10:27:15Z</time>
      </trkpt>
      <trkpt lat="45.26119" lon="6.12204">
        <ele>1960</ele>
        <time>2021-12-23T10:27:16Z</time>
      </trkpt>
      <trkpt lat="45.26117" lon="6.12204">
        <ele>1960</ele>
        <time>2021-12-23T10:27:17Z</time>
      </trkpt>
      <trkpt lat="45.26115" lon="6.12204">
        <ele>1960</ele>
        <time>2021-12-23T10:27:18Z</time>
      </trkpt>
      <trkpt lat="45.26113" lon="6.12204">
        <ele>1960</ele>
        <time>2021-12-23T10:27:19Z</time>
      </trkpt>
      <trkpt lat="45.26111" lon="6.12204">
        <ele>1960</ele>
        <time>2021-12-23T10:27:20Z</time>
      </trkpt>
      <trkpt lat="45.26109" lon="6.12204">
        <ele>1961</ele>
        <time>2021-12-23T10:27:21Z</time>
      </trkpt>
      <trkpt lat="45.26109" lon="6.12204">
        <ele>1961</ele>
        <time>2021-12-23T10:27:22Z</time>
      </trkpt>
      <trkpt lat="45.2611" lon="6.12204">
        <ele>1962</ele>
        <time>2021-12-23T10:27:24Z</time>
      </trkpt>
      <trkpt lat="45.2611" lon="6.12205">
        <ele>1962</ele>
        <time>2021-12-23T10:27:25Z</time>
      </trkpt>
      <trkpt lat="45.2611" lon="6.12205">
        <ele>1962</ele>
        <time>2021-12-23T10:27:26Z</time>
      </trkpt>
      <trkpt lat="45.26111" lon="6.12206">
        <ele>1962</ele>
        <time>2021-12-23T10:27:27Z</time>
      </trkpt>
      <trkpt lat="45.26111" lon="6.12206">
        <ele>1962</ele>
        <time>2021-12-23T10:27:28Z</time>
      </trkpt>
      <trkpt lat="45.26111" lon="6.12206">
        <ele>1962</ele>
        <time>2021-12-23T10:27:29Z</time>
      </trkpt>
      <trkpt lat="45.26111" lon="6.12207">
        <ele>1963</ele>
        <time>2021-12-23T10:27:30Z</time>
      </trkpt>
      <trkpt lat="45.26112" lon="6.12207">
        <ele>1963</ele>
        <time>2021-12-23T10:27:31Z</time>
      </trkpt>
      <trkpt lat="45.26112" lon="6.12208">
        <ele>1963</ele>
        <time>2021-12-23T10:27:32Z</time>
      </trkpt>
      <trkpt lat="45.26112" lon="6.12208">
        <ele>1963</ele>
        <time>2021-12-23T10:27:33Z</time>
      </trkpt>
      <trkpt lat="45.26113" lon="6.12208">
        <ele>1963</ele>
        <time>2021-12-23T10:27:34Z</time>
      </trkpt>
      <trkpt lat="45.26113" lon="6.12209">
        <ele>1964</ele>
        <time>2021-12-23T10:27:35Z</time>
      </trkpt>
      <trkpt lat="45.26113" lon="6.12209">
        <ele>1964</ele>
        <time>2021-12-23T10:27:36Z</time>
      </trkpt>
      <trkpt lat="45.26113" lon="6.1221">
        <ele>1964</ele>
        <time>2021-12-23T10:27:37Z</time>
      </trkpt>
      <trkpt lat="45.26114" lon="6.1221">
        <ele>1964</ele>
        <time>2021-12-23T10:27:38Z</time>
      </trkpt>
      <trkpt lat="45.26114" lon="6.1221">
        <ele>1965</ele>
        <time>2021-12-23T10:27:39Z</time>
      </trkpt>
      <trkpt lat="45.26114" lon="6.12211">
        <ele>1965</ele>
        <time>2021-12-23T10:27:40Z</time>
      </trkpt>
      <trkpt lat="45.26115" lon="6.12211">
        <ele>1965</ele>
        <time>2021-12-23T10:27:41Z</time>
      </trkpt>
      <trkpt lat="45.26115" lon="6.12212">
        <ele>1966</ele>
        <time>2021-12-23T10:27:43Z</time>
      </trkpt>
      <trkpt lat="45.26115" lon="6.12212">
        <ele>1966</ele>
        <time>2021-12-23T10:27:44Z</time>
      </trkpt>
      <trkpt lat="45.26115" lon="6.12212">
        <ele>1966</ele>
        <time>2021-12-23T10:27:45Z</time>
      </trkpt>
      <trkpt lat="45.26115" lon="6.12212">
        <ele>1966</ele>
        <time>2021-12-23T10:27:46Z</time>
      </trkpt>
      <trkpt lat="45.26115" lon="6.12212">
        <ele>1966</ele>
        <time>2021-12-23T10:27:47Z</time>
      </trkpt>
      <trkpt lat="45.26115" lon="6.12212">
        <ele>1966</ele>
        <time>2021-12-23T10:27:48Z</time>
      </trkpt>
      <trkpt lat="45.26115" lon="6.12212">
        <ele>1968</ele>
        <time>2021-12-23T10:27:49Z</time>
      </trkpt>
      <trkpt lat="45.26115" lon="6.12212">
        <ele>1968</ele>
        <time>2021-12-23T10:27:50Z</time>
      </trkpt>
      <trkpt lat="45.26115" lon="6.12212">
        <ele>1969</ele>
        <time>2021-12-23T10:27:51Z</time>
      </trkpt>
      <trkpt lat="45.26115" lon="6.12212">
        <ele>1969</ele>
        <time>2021-12-23T10:27:52Z</time>
      </trkpt>
      <trkpt lat="45.26115" lon="6.12212">
        <ele>1969</ele>
        <time>2021-12-23T10:27:53Z</time>
      </trkpt>
      <trkpt lat="45.26115" lon="6.12212">
        <ele>1969</ele>
        <time>2021-12-23T10:27:54Z</time>
      </trkpt>
      <trkpt lat="45.26115" lon="6.12212">
        <ele>1969</ele>
        <time>2021-12-23T10:27:55Z</time>
      </trkpt>
      <trkpt lat="45.26115" lon="6.12212">
        <ele>1969</ele>
        <time>2021-12-23T10:27:56Z</time>
      </trkpt>
      <trkpt lat="45.26115" lon="6.12212">
        <ele>1969</ele>
        <time>2021-12-23T10:27:57Z</time>
      </trkpt>
      <trkpt lat="45.26115" lon="6.12212">
        <ele>1969</ele>
        <time>2021-12-23T10:27:58Z</time>
      </trkpt>
      <trkpt lat="45.26115" lon="6.12212">
        <ele>1969</ele>
        <time>2021-12-23T10:27:59Z</time>
      </trkpt>
      <trkpt lat="45.26112" lon="6.12225">
        <ele>1969</ele>
        <time>2021-12-23T10:28:00Z</time>
      </trkpt>
      <trkpt lat="45.26112" lon="6.12225">
        <ele>1969</ele>
        <time>2021-12-23T10:28:02Z</time>
      </trkpt>
      <trkpt lat="45.26112" lon="6.12225">
        <ele>1969</ele>
        <time>2021-12-23T10:28:03Z</time>
      </trkpt>
      <trkpt lat="45.26112" lon="6.12225">
        <ele>1969</ele>
        <time>2021-12-23T10:28:04Z</time>
      </trkpt>
      <trkpt lat="45.26112" lon="6.12225">
        <ele>1969</ele>
        <time>2021-12-23T10:28:05Z</time>
      </trkpt>
      <trkpt lat="45.26112" lon="6.12225">
        <ele>1969</ele>
        <time>2021-12-23T10:28:06Z</time>
      </trkpt>
      <trkpt lat="45.26112" lon="6.12225">
        <ele>1970</ele>
        <time>2021-12-23T10:28:07Z</time>
      </trkpt>
      <trkpt lat="45.26112" lon="6.12225">
        <ele>1970</ele>
        <time>2021-12-23T10:28:08Z</time>
      </trkpt>
      <trkpt lat="45.26112" lon="6.12225">
        <ele>1971</ele>
        <time>2021-12-23T10:28:09Z</time>
      </trkpt>
      <trkpt lat="45.26112" lon="6.12225">
        <ele>1971</ele>
        <time>2021-12-23T10:28:10Z</time>
      </trkpt>
      <trkpt lat="45.26112" lon="6.12225">
        <ele>1972</ele>
        <time>2021-12-23T10:28:11Z</time>
      </trkpt>
      <trkpt lat="45.26112" lon="6.12225">
        <ele>1972</ele>
        <time>2021-12-23T10:28:12Z</time>
      </trkpt>
      <trkpt lat="45.26112" lon="6.12225">
        <ele>1972</ele>
        <time>2021-12-23T10:28:13Z</time>
      </trkpt>
      <trkpt lat="45.26112" lon="6.12225">
        <ele>1972</ele>
        <time>2021-12-23T10:28:14Z</time>
      </trkpt>
      <trkpt lat="45.26112" lon="6.12225">
        <ele>1972</ele>
        <time>2021-12-23T10:28:15Z</time>
      </trkpt>
      <trkpt lat="45.26112" lon="6.12225">
        <ele>1972</ele>
        <time>2021-12-23T10:28:16Z</time>
      </trkpt>
      <trkpt lat="45.26112" lon="6.12225">
        <ele>1972</ele>
        <time>2021-12-23T10:28:17Z</time>
      </trkpt>
      <trkpt lat="45.26112" lon="6.12225">
        <ele>1972</ele>
        <time>2021-12-23T10:28:18Z</time>
      </trkpt>
      <trkpt lat="45.26108" lon="6.12237">
        <ele>1972</ele>
        <time>2021-12-23T10:28:19Z</time>
      </trkpt>
      <trkpt lat="45.26108" lon="6.12237">
        <ele>1973</ele>
        <time>2021-12-23T10:28:21Z</time>
      </trkpt>
      <trkpt lat="45.26108" lon="6.12238">
        <ele>1973</ele>
        <time>2021-12-23T10:28:22Z</time>
      </trkpt>
      <trkpt lat="45.26107" lon="6.12238">
        <ele>1973</ele>
        <time>2021-12-23T10:28:23Z</time>
      </trkpt>
      <trkpt lat="45.26107" lon="6.12239">
        <ele>1974</ele>
        <time>2021-12-23T10:28:24Z</time>
      </trkpt>
      <trkpt lat="45.26106" lon="6.1224">
        <ele>1974</ele>
        <time>2021-12-23T10:28:25Z</time>
      </trkpt>
      <trkpt lat="45.26105" lon="6.12241">
        <ele>1974</ele>
        <time>2021-12-23T10:28:26Z</time>
      </trkpt>
      <trkpt lat="45.26105" lon="6.12242">
        <ele>1974</ele>
        <time>2021-12-23T10:28:27Z</time>
      </trkpt>
      <trkpt lat="45.26104" lon="6.12243">
        <ele>1974</ele>
        <time>2021-12-23T10:28:28Z</time>
      </trkpt>
      <trkpt lat="45.26103" lon="6.12244">
        <ele>1974</ele>
        <time>2021-12-23T10:28:29Z</time>
      </trkpt>
      <trkpt lat="45.26103" lon="6.12245">
        <ele>1974</ele>
        <time>2021-12-23T10:28:30Z</time>
      </trkpt>
      <trkpt lat="45.26102" lon="6.12245">
        <ele>1974</ele>
        <time>2021-12-23T10:28:31Z</time>
      </trkpt>
      <trkpt lat="45.26102" lon="6.12246">
        <ele>1974</ele>
        <time>2021-12-23T10:28:32Z</time>
      </trkpt>
      <trkpt lat="45.26101" lon="6.12247">
        <ele>1975</ele>
        <time>2021-12-23T10:28:33Z</time>
      </trkpt>
      <trkpt lat="45.26101" lon="6.12248">
        <ele>1975</ele>
        <time>2021-12-23T10:28:34Z</time>
      </trkpt>
      <trkpt lat="45.26101" lon="6.12249">
        <ele>1975</ele>
        <time>2021-12-23T10:28:35Z</time>
      </trkpt>
      <trkpt lat="45.26101" lon="6.12249">
        <ele>1975</ele>
        <time>2021-12-23T10:28:36Z</time>
      </trkpt>
      <trkpt lat="45.26101" lon="6.1225">
        <ele>1975</ele>
        <time>2021-12-23T10:28:37Z</time>
      </trkpt>
      <trkpt lat="45.26101" lon="6.12251">
        <ele>1976</ele>
        <time>2021-12-23T10:28:38Z</time>
      </trkpt>
      <trkpt lat="45.26101" lon="6.12251">
        <ele>1976</ele>
        <time>2021-12-23T10:28:40Z</time>
      </trkpt>
      <trkpt lat="45.26101" lon="6.12252">
        <ele>1976</ele>
        <time>2021-12-23T10:28:41Z</time>
      </trkpt>
      <trkpt lat="45.26101" lon="6.12253">
        <ele>1976</ele>
        <time>2021-12-23T10:28:42Z</time>
      </trkpt>
      <trkpt lat="45.26101" lon="6.12253">
        <ele>1976</ele>
        <time>2021-12-23T10:28:43Z</time>
      </trkpt>
      <trkpt lat="45.26101" lon="6.12254">
        <ele>1977</ele>
        <time>2021-12-23T10:28:44Z</time>
      </trkpt>
      <trkpt lat="45.26101" lon="6.12255">
        <ele>1977</ele>
        <time>2021-12-23T10:28:45Z</time>
      </trkpt>
      <trkpt lat="45.26101" lon="6.12255">
        <ele>1978</ele>
        <time>2021-12-23T10:28:46Z</time>
      </trkpt>
      <trkpt lat="45.26101" lon="6.12256">
        <ele>1978</ele>
        <time>2021-12-23T10:28:47Z</time>
      </trkpt>
      <trkpt lat="45.26101" lon="6.12257">
        <ele>1978</ele>
        <time>2021-12-23T10:28:48Z</time>
      </trkpt>
      <trkpt lat="45.26101" lon="6.12258">
        <ele>1979</ele>
        <time>2021-12-23T10:28:49Z</time>
      </trkpt>
      <trkpt lat="45.26102" lon="6.12258">
        <ele>1979</ele>
        <time>2021-12-23T10:28:50Z</time>
      </trkpt>
      <trkpt lat="45.26102" lon="6.12259">
        <ele>1978</ele>
        <time>2021-12-23T10:28:51Z</time>
      </trkpt>
      <trkpt lat="45.26101" lon="6.1226">
        <ele>1978</ele>
        <time>2021-12-23T10:28:52Z</time>
      </trkpt>
      <trkpt lat="45.261" lon="6.12261">
        <ele>1978</ele>
        <time>2021-12-23T10:28:53Z</time>
      </trkpt>
      <trkpt lat="45.26099" lon="6.12262">
        <ele>1978</ele>
        <time>2021-12-23T10:28:54Z</time>
      </trkpt>
      <trkpt lat="45.26098" lon="6.12263">
        <ele>1978</ele>
        <time>2021-12-23T10:28:55Z</time>
      </trkpt>
      <trkpt lat="45.26097" lon="6.12264">
        <ele>1979</ele>
        <time>2021-12-23T10:28:56Z</time>
      </trkpt>
      <trkpt lat="45.26097" lon="6.12264">
        <ele>1979</ele>
        <time>2021-12-23T10:28:57Z</time>
      </trkpt>
      <trkpt lat="45.26096" lon="6.12265">
        <ele>1979</ele>
        <time>2021-12-23T10:28:59Z</time>
      </trkpt>
      <trkpt lat="45.26095" lon="6.12266">
        <ele>1979</ele>
        <time>2021-12-23T10:29:00Z</time>
      </trkpt>
      <trkpt lat="45.26094" lon="6.12267">
        <ele>1979</ele>
        <time>2021-12-23T10:29:01Z</time>
      </trkpt>
      <trkpt lat="45.26094" lon="6.12267">
        <ele>1980</ele>
        <time>2021-12-23T10:29:02Z</time>
      </trkpt>
      <trkpt lat="45.26094" lon="6.12267">
        <ele>1980</ele>
        <time>2021-12-23T10:29:03Z</time>
      </trkpt>
      <trkpt lat="45.26094" lon="6.12267">
        <ele>1980</ele>
        <time>2021-12-23T10:29:04Z</time>
      </trkpt>
      <trkpt lat="45.26094" lon="6.12267">
        <ele>1980</ele>
        <time>2021-12-23T10:29:05Z</time>
      </trkpt>
      <trkpt lat="45.26094" lon="6.12267">
        <ele>1980</ele>
        <time>2021-12-23T10:29:06Z</time>
      </trkpt>
      <trkpt lat="45.26094" lon="6.12267">
        <ele>1980</ele>
        <time>2021-12-23T10:29:07Z</time>
      </trkpt>
      <trkpt lat="45.26094" lon="6.12267">
        <ele>1980</ele>
        <time>2021-12-23T10:29:08Z</time>
      </trkpt>
      <trkpt lat="45.26094" lon="6.12267">
        <ele>1980</ele>
        <time>2021-12-23T10:29:09Z</time>
      </trkpt>
      <trkpt lat="45.26094" lon="6.12267">
        <ele>1980</ele>
        <time>2021-12-23T10:29:10Z</time>
      </trkpt>
      <trkpt lat="45.26094" lon="6.12267">
        <ele>1981</ele>
        <time>2021-12-23T10:29:11Z</time>
      </trkpt>
      <trkpt lat="45.26094" lon="6.12267">
        <ele>1981</ele>
        <time>2021-12-23T10:29:12Z</time>
      </trkpt>
      <trkpt lat="45.26087" lon="6.12275">
        <ele>1981</ele>
        <time>2021-12-23T10:29:13Z</time>
      </trkpt>
      <trkpt lat="45.26087" lon="6.12275">
        <ele>1981</ele>
        <time>2021-12-23T10:29:15Z</time>
      </trkpt>
      <trkpt lat="45.26087" lon="6.12276">
        <ele>1981</ele>
        <time>2021-12-23T10:29:16Z</time>
      </trkpt>
      <trkpt lat="45.26086" lon="6.12278">
        <ele>1982</ele>
        <time>2021-12-23T10:29:18Z</time>
      </trkpt>
      <trkpt lat="45.26085" lon="6.12279">
        <ele>1982</ele>
        <time>2021-12-23T10:29:19Z</time>
      </trkpt>
      <trkpt lat="45.26085" lon="6.1228">
        <ele>1982</ele>
        <time>2021-12-23T10:29:20Z</time>
      </trkpt>
      <trkpt lat="45.26084" lon="6.12281">
        <ele>1982</ele>
        <time>2021-12-23T10:29:21Z</time>
      </trkpt>
      <trkpt lat="45.26084" lon="6.12282">
        <ele>1982</ele>
        <time>2021-12-23T10:29:22Z</time>
      </trkpt>
      <trkpt lat="45.26083" lon="6.12283">
        <ele>1982</ele>
        <time>2021-12-23T10:29:23Z</time>
      </trkpt>
      <trkpt lat="45.26083" lon="6.12284">
        <ele>1982</ele>
        <time>2021-12-23T10:29:24Z</time>
      </trkpt>
      <trkpt lat="45.26082" lon="6.12285">
        <ele>1983</ele>
        <time>2021-12-23T10:29:25Z</time>
      </trkpt>
      <trkpt lat="45.26082" lon="6.12286">
        <ele>1983</ele>
        <time>2021-12-23T10:29:26Z</time>
      </trkpt>
      <trkpt lat="45.26081" lon="6.12287">
        <ele>1983</ele>
        <time>2021-12-23T10:29:27Z</time>
      </trkpt>
      <trkpt lat="45.26081" lon="6.12288">
        <ele>1983</ele>
        <time>2021-12-23T10:29:28Z</time>
      </trkpt>
      <trkpt lat="45.26081" lon="6.12288">
        <ele>1983</ele>
        <time>2021-12-23T10:29:29Z</time>
      </trkpt>
      <trkpt lat="45.26081" lon="6.12289">
        <ele>1983</ele>
        <time>2021-12-23T10:29:30Z</time>
      </trkpt>
      <trkpt lat="45.26081" lon="6.1229">
        <ele>1983</ele>
        <time>2021-12-23T10:29:31Z</time>
      </trkpt>
      <trkpt lat="45.26082" lon="6.12291">
        <ele>1985</ele>
        <time>2021-12-23T10:29:32Z</time>
      </trkpt>
      <trkpt lat="45.26082" lon="6.12292">
        <ele>1985</ele>
        <time>2021-12-23T10:29:33Z</time>
      </trkpt>
      <trkpt lat="45.26082" lon="6.12293">
        <ele>1985</ele>
        <time>2021-12-23T10:29:34Z</time>
      </trkpt>
      <trkpt lat="45.26082" lon="6.12293">
        <ele>1985</ele>
        <time>2021-12-23T10:29:35Z</time>
      </trkpt>
      <trkpt lat="45.26082" lon="6.12294">
        <ele>1985</ele>
        <time>2021-12-23T10:29:37Z</time>
      </trkpt>
      <trkpt lat="45.26082" lon="6.12295">
        <ele>1985</ele>
        <time>2021-12-23T10:29:38Z</time>
      </trkpt>
      <trkpt lat="45.26082" lon="6.12296">
        <ele>1985</ele>
        <time>2021-12-23T10:29:39Z</time>
      </trkpt>
      <trkpt lat="45.26082" lon="6.12297">
        <ele>1985</ele>
        <time>2021-12-23T10:29:40Z</time>
      </trkpt>
      <trkpt lat="45.26082" lon="6.12298">
        <ele>1985</ele>
        <time>2021-12-23T10:29:41Z</time>
      </trkpt>
      <trkpt lat="45.26082" lon="6.12298">
        <ele>1986</ele>
        <time>2021-12-23T10:29:42Z</time>
      </trkpt>
      <trkpt lat="45.26083" lon="6.12299">
        <ele>1986</ele>
        <time>2021-12-23T10:29:43Z</time>
      </trkpt>
      <trkpt lat="45.26083" lon="6.12299">
        <ele>1986</ele>
        <time>2021-12-23T10:29:44Z</time>
      </trkpt>
      <trkpt lat="45.26083" lon="6.12299">
        <ele>1986</ele>
        <time>2021-12-23T10:29:45Z</time>
      </trkpt>
      <trkpt lat="45.26083" lon="6.12299">
        <ele>1986</ele>
        <time>2021-12-23T10:29:46Z</time>
      </trkpt>
      <trkpt lat="45.26083" lon="6.12299">
        <ele>1987</ele>
        <time>2021-12-23T10:29:47Z</time>
      </trkpt>
      <trkpt lat="45.26083" lon="6.12299">
        <ele>1987</ele>
        <time>2021-12-23T10:29:48Z</time>
      </trkpt>
      <trkpt lat="45.26083" lon="6.12299">
        <ele>1987</ele>
        <time>2021-12-23T10:29:49Z</time>
      </trkpt>
      <trkpt lat="45.26083" lon="6.12299">
        <ele>1987</ele>
        <time>2021-12-23T10:29:50Z</time>
      </trkpt>
      <trkpt lat="45.26083" lon="6.12299">
        <ele>1987</ele>
        <time>2021-12-23T10:29:51Z</time>
      </trkpt>
      <trkpt lat="45.26083" lon="6.12299">
        <ele>1988</ele>
        <time>2021-12-23T10:29:52Z</time>
      </trkpt>
      <trkpt lat="45.26083" lon="6.12299">
        <ele>1988</ele>
        <time>2021-12-23T10:29:53Z</time>
      </trkpt>
      <trkpt lat="45.26083" lon="6.12299">
        <ele>1989</ele>
        <time>2021-12-23T10:29:54Z</time>
      </trkpt>
      <trkpt lat="45.26077" lon="6.1231">
        <ele>1988</ele>
        <time>2021-12-23T10:29:56Z</time>
      </trkpt>
      <trkpt lat="45.26076" lon="6.12311">
        <ele>1988</ele>
        <time>2021-12-23T10:29:57Z</time>
      </trkpt>
      <trkpt lat="45.26076" lon="6.12312">
        <ele>1989</ele>
        <time>2021-12-23T10:29:58Z</time>
      </trkpt>
      <trkpt lat="45.26076" lon="6.12312">
        <ele>1989</ele>
        <time>2021-12-23T10:29:59Z</time>
      </trkpt>
      <trkpt lat="45.26075" lon="6.12313">
        <ele>1989</ele>
        <time>2021-12-23T10:30:00Z</time>
      </trkpt>
      <trkpt lat="45.26075" lon="6.12313">
        <ele>1989</ele>
        <time>2021-12-23T10:30:01Z</time>
      </trkpt>
      <trkpt lat="45.26075" lon="6.12314">
        <ele>1989</ele>
        <time>2021-12-23T10:30:02Z</time>
      </trkpt>
      <trkpt lat="45.26074" lon="6.12315">
        <ele>1989</ele>
        <time>2021-12-23T10:30:03Z</time>
      </trkpt>
      <trkpt lat="45.26074" lon="6.12315">
        <ele>1990</ele>
        <time>2021-12-23T10:30:04Z</time>
      </trkpt>
      <trkpt lat="45.26073" lon="6.12316">
        <ele>1990</ele>
        <time>2021-12-23T10:30:05Z</time>
      </trkpt>
      <trkpt lat="45.26073" lon="6.12316">
        <ele>1991</ele>
        <time>2021-12-23T10:30:06Z</time>
      </trkpt>
      <trkpt lat="45.26073" lon="6.12317">
        <ele>1991</ele>
        <time>2021-12-23T10:30:07Z</time>
      </trkpt>
      <trkpt lat="45.26072" lon="6.12318">
        <ele>1990</ele>
        <time>2021-12-23T10:30:08Z</time>
      </trkpt>
      <trkpt lat="45.26072" lon="6.12318">
        <ele>1990</ele>
        <time>2021-12-23T10:30:09Z</time>
      </trkpt>
      <trkpt lat="45.26072" lon="6.12319">
        <ele>1990</ele>
        <time>2021-12-23T10:30:10Z</time>
      </trkpt>
      <trkpt lat="45.26071" lon="6.12319">
        <ele>1991</ele>
        <time>2021-12-23T10:30:11Z</time>
      </trkpt>
      <trkpt lat="45.26071" lon="6.1232">
        <ele>1991</ele>
        <time>2021-12-23T10:30:12Z</time>
      </trkpt>
      <trkpt lat="45.26071" lon="6.12321">
        <ele>1991</ele>
        <time>2021-12-23T10:30:13Z</time>
      </trkpt>
      <trkpt lat="45.26071" lon="6.12321">
        <ele>1992</ele>
        <time>2021-12-23T10:30:15Z</time>
      </trkpt>
      <trkpt lat="45.26071" lon="6.12321">
        <ele>1992</ele>
        <time>2021-12-23T10:30:16Z</time>
      </trkpt>
      <trkpt lat="45.26071" lon="6.12321">
        <ele>1991</ele>
        <time>2021-12-23T10:30:17Z</time>
      </trkpt>
      <trkpt lat="45.26071" lon="6.12321">
        <ele>1990</ele>
        <time>2021-12-23T10:30:18Z</time>
      </trkpt>
      <trkpt lat="45.26071" lon="6.12321">
        <ele>1990</ele>
        <time>2021-12-23T10:30:19Z</time>
      </trkpt>
      <trkpt lat="45.26071" lon="6.12321">
        <ele>1990</ele>
        <time>2021-12-23T10:30:20Z</time>
      </trkpt>
      <trkpt lat="45.26071" lon="6.12321">
        <ele>1991</ele>
        <time>2021-12-23T10:30:21Z</time>
      </trkpt>
      <trkpt lat="45.26071" lon="6.12321">
        <ele>1992</ele>
        <time>2021-12-23T10:30:22Z</time>
      </trkpt>
      <trkpt lat="45.26058" lon="6.12326">
        <ele>1992</ele>
        <time>2021-12-23T10:30:23Z</time>
      </trkpt>
      <trkpt lat="45.26058" lon="6.12326">
        <ele>1992</ele>
        <time>2021-12-23T10:30:25Z</time>
      </trkpt>
      <trkpt lat="45.26058" lon="6.12326">
        <ele>1992</ele>
        <time>2021-12-23T10:30:26Z</time>
      </trkpt>
      <trkpt lat="45.26058" lon="6.12326">
        <ele>1992</ele>
        <time>2021-12-23T10:30:27Z</time>
      </trkpt>
      <trkpt lat="45.26058" lon="6.12326">
        <ele>1992</ele>
        <time>2021-12-23T10:30:28Z</time>
      </trkpt>
      <trkpt lat="45.26058" lon="6.12326">
        <ele>1993</ele>
        <time>2021-12-23T10:30:29Z</time>
      </trkpt>
      <trkpt lat="45.26058" lon="6.12326">
        <ele>1993</ele>
        <time>2021-12-23T10:30:30Z</time>
      </trkpt>
      <trkpt lat="45.26058" lon="6.12326">
        <ele>1993</ele>
        <time>2021-12-23T10:30:31Z</time>
      </trkpt>
      <trkpt lat="45.26058" lon="6.12326">
        <ele>1993</ele>
        <time>2021-12-23T10:30:32Z</time>
      </trkpt>
      <trkpt lat="45.26063" lon="6.12338">
        <ele>1993</ele>
        <time>2021-12-23T10:30:34Z</time>
      </trkpt>
      <trkpt lat="45.26063" lon="6.12338">
        <ele>1993</ele>
        <time>2021-12-23T10:30:35Z</time>
      </trkpt>
      <trkpt lat="45.26063" lon="6.12339">
        <ele>1993</ele>
        <time>2021-12-23T10:30:36Z</time>
      </trkpt>
      <trkpt lat="45.26063" lon="6.1234">
        <ele>1993</ele>
        <time>2021-12-23T10:30:37Z</time>
      </trkpt>
      <trkpt lat="45.26062" lon="6.12341">
        <ele>1993</ele>
        <time>2021-12-23T10:30:38Z</time>
      </trkpt>
      <trkpt lat="45.26062" lon="6.12342">
        <ele>1994</ele>
        <time>2021-12-23T10:30:39Z</time>
      </trkpt>
      <trkpt lat="45.26062" lon="6.12343">
        <ele>1994</ele>
        <time>2021-12-23T10:30:40Z</time>
      </trkpt>
      <trkpt lat="45.26062" lon="6.12344">
        <ele>1994</ele>
        <time>2021-12-23T10:30:41Z</time>
      </trkpt>
      <trkpt lat="45.26061" lon="6.12344">
        <ele>1993</ele>
        <time>2021-12-23T10:30:42Z</time>
      </trkpt>
      <trkpt lat="45.26061" lon="6.12345">
        <ele>1993</ele>
        <time>2021-12-23T10:30:43Z</time>
      </trkpt>
      <trkpt lat="45.26061" lon="6.12346">
        <ele>1993</ele>
        <time>2021-12-23T10:30:44Z</time>
      </trkpt>
      <trkpt lat="45.26061" lon="6.12347">
        <ele>1994</ele>
        <time>2021-12-23T10:30:45Z</time>
      </trkpt>
      <trkpt lat="45.26061" lon="6.12348">
        <ele>1994</ele>
        <time>2021-12-23T10:30:46Z</time>
      </trkpt>
      <trkpt lat="45.2606" lon="6.12349">
        <ele>1994</ele>
        <time>2021-12-23T10:30:47Z</time>
      </trkpt>
      <trkpt lat="45.2606" lon="6.12349">
        <ele>1994</ele>
        <time>2021-12-23T10:30:48Z</time>
      </trkpt>
      <trkpt lat="45.2606" lon="6.1235">
        <ele>1994</ele>
        <time>2021-12-23T10:30:49Z</time>
      </trkpt>
      <trkpt lat="45.2606" lon="6.12351">
        <ele>1995</ele>
        <time>2021-12-23T10:30:50Z</time>
      </trkpt>
      <trkpt lat="45.26059" lon="6.12352">
        <ele>1995</ele>
        <time>2021-12-23T10:30:51Z</time>
      </trkpt>
      <trkpt lat="45.26059" lon="6.12353">
        <ele>1995</ele>
        <time>2021-12-23T10:30:53Z</time>
      </trkpt>
      <trkpt lat="45.26058" lon="6.12353">
        <ele>1995</ele>
        <time>2021-12-23T10:30:54Z</time>
      </trkpt>
      <trkpt lat="45.26057" lon="6.12354">
        <ele>1995</ele>
        <time>2021-12-23T10:30:55Z</time>
      </trkpt>
      <trkpt lat="45.26057" lon="6.12355">
        <ele>1996</ele>
        <time>2021-12-23T10:30:56Z</time>
      </trkpt>
      <trkpt lat="45.26056" lon="6.12356">
        <ele>1996</ele>
        <time>2021-12-23T10:30:57Z</time>
      </trkpt>
      <trkpt lat="45.26055" lon="6.12357">
        <ele>1996</ele>
        <time>2021-12-23T10:30:58Z</time>
      </trkpt>
      <trkpt lat="45.26055" lon="6.12357">
        <ele>1996</ele>
        <time>2021-12-23T10:30:59Z</time>
      </trkpt>
      <trkpt lat="45.26054" lon="6.12358">
        <ele>1996</ele>
        <time>2021-12-23T10:31:00Z</time>
      </trkpt>
      <trkpt lat="45.26054" lon="6.12359">
        <ele>1996</ele>
        <time>2021-12-23T10:31:01Z</time>
      </trkpt>
      <trkpt lat="45.26053" lon="6.1236">
        <ele>1996</ele>
        <time>2021-12-23T10:31:02Z</time>
      </trkpt>
      <trkpt lat="45.26053" lon="6.12361">
        <ele>1997</ele>
        <time>2021-12-23T10:31:03Z</time>
      </trkpt>
      <trkpt lat="45.26053" lon="6.12362">
        <ele>1997</ele>
        <time>2021-12-23T10:31:04Z</time>
      </trkpt>
      <trkpt lat="45.26052" lon="6.12363">
        <ele>1997</ele>
        <time>2021-12-23T10:31:05Z</time>
      </trkpt>
      <trkpt lat="45.26052" lon="6.12364">
        <ele>1997</ele>
        <time>2021-12-23T10:31:06Z</time>
      </trkpt>
      <trkpt lat="45.26052" lon="6.12365">
        <ele>1997</ele>
        <time>2021-12-23T10:31:07Z</time>
      </trkpt>
      <trkpt lat="45.26051" lon="6.12366">
        <ele>1998</ele>
        <time>2021-12-23T10:31:08Z</time>
      </trkpt>
      <trkpt lat="45.26051" lon="6.12367">
        <ele>1998</ele>
        <time>2021-12-23T10:31:09Z</time>
      </trkpt>
      <trkpt lat="45.26051" lon="6.12368">
        <ele>1998</ele>
        <time>2021-12-23T10:31:10Z</time>
      </trkpt>
      <trkpt lat="45.26051" lon="6.12369">
        <ele>1998</ele>
        <time>2021-12-23T10:31:12Z</time>
      </trkpt>
      <trkpt lat="45.2605" lon="6.1237">
        <ele>1998</ele>
        <time>2021-12-23T10:31:13Z</time>
      </trkpt>
      <trkpt lat="45.2605" lon="6.12371">
        <ele>1999</ele>
        <time>2021-12-23T10:31:14Z</time>
      </trkpt>
      <trkpt lat="45.2605" lon="6.12372">
        <ele>1999</ele>
        <time>2021-12-23T10:31:15Z</time>
      </trkpt>
      <trkpt lat="45.2605" lon="6.12372">
        <ele>1999</ele>
        <time>2021-12-23T10:31:16Z</time>
      </trkpt>
      <trkpt lat="45.2605" lon="6.12372">
        <ele>2000</ele>
        <time>2021-12-23T10:31:17Z</time>
      </trkpt>
      <trkpt lat="45.2605" lon="6.12372">
        <ele>2000</ele>
        <time>2021-12-23T10:31:18Z</time>
      </trkpt>
      <trkpt lat="45.2605" lon="6.12372">
        <ele>2000</ele>
        <time>2021-12-23T10:31:19Z</time>
      </trkpt>
      <trkpt lat="45.2605" lon="6.12372">
        <ele>2000</ele>
        <time>2021-12-23T10:31:20Z</time>
      </trkpt>
      <trkpt lat="45.2605" lon="6.12372">
        <ele>2000</ele>
        <time>2021-12-23T10:31:21Z</time>
      </trkpt>
      <trkpt lat="45.2605" lon="6.12372">
        <ele>2001</ele>
        <time>2021-12-23T10:31:22Z</time>
      </trkpt>
      <trkpt lat="45.2605" lon="6.12372">
        <ele>2001</ele>
        <time>2021-12-23T10:31:23Z</time>
      </trkpt>
      <trkpt lat="45.2605" lon="6.12372">
        <ele>2002</ele>
        <time>2021-12-23T10:31:24Z</time>
      </trkpt>
      <trkpt lat="45.2605" lon="6.12372">
        <ele>2002</ele>
        <time>2021-12-23T10:31:25Z</time>
      </trkpt>
      <trkpt lat="45.2605" lon="6.12372">
        <ele>2002</ele>
        <time>2021-12-23T10:31:26Z</time>
      </trkpt>
      <trkpt lat="45.2605" lon="6.12372">
        <ele>2002</ele>
        <time>2021-12-23T10:31:27Z</time>
      </trkpt>
      <trkpt lat="45.2605" lon="6.12372">
        <ele>2002</ele>
        <time>2021-12-23T10:31:28Z</time>
      </trkpt>
      <trkpt lat="45.2605" lon="6.12384">
        <ele>2002</ele>
        <time>2021-12-23T10:31:29Z</time>
      </trkpt>
      <trkpt lat="45.2605" lon="6.12384">
        <ele>2002</ele>
        <time>2021-12-23T10:31:31Z</time>
      </trkpt>
      <trkpt lat="45.2605" lon="6.12385">
        <ele>2002</ele>
        <time>2021-12-23T10:31:32Z</time>
      </trkpt>
      <trkpt lat="45.2605" lon="6.12387">
        <ele>2002</ele>
        <time>2021-12-23T10:31:33Z</time>
      </trkpt>
      <trkpt lat="45.2605" lon="6.12388">
        <ele>2002</ele>
        <time>2021-12-23T10:31:34Z</time>
      </trkpt>
      <trkpt lat="45.2605" lon="6.12389">
        <ele>2002</ele>
        <time>2021-12-23T10:31:35Z</time>
      </trkpt>
      <trkpt lat="45.2605" lon="6.1239">
        <ele>2003</ele>
        <time>2021-12-23T10:31:36Z</time>
      </trkpt>
      <trkpt lat="45.2605" lon="6.12392">
        <ele>2003</ele>
        <time>2021-12-23T10:31:37Z</time>
      </trkpt>
      <trkpt lat="45.26049" lon="6.12393">
        <ele>2003</ele>
        <time>2021-12-23T10:31:38Z</time>
      </trkpt>
      <trkpt lat="45.26049" lon="6.12394">
        <ele>2003</ele>
        <time>2021-12-23T10:31:39Z</time>
      </trkpt>
      <trkpt lat="45.26049" lon="6.12395">
        <ele>2003</ele>
        <time>2021-12-23T10:31:40Z</time>
      </trkpt>
      <trkpt lat="45.26049" lon="6.12396">
        <ele>2003</ele>
        <time>2021-12-23T10:31:41Z</time>
      </trkpt>
      <trkpt lat="45.26049" lon="6.12398">
        <ele>2003</ele>
        <time>2021-12-23T10:31:42Z</time>
      </trkpt>
      <trkpt lat="45.26049" lon="6.12399">
        <ele>2003</ele>
        <time>2021-12-23T10:31:43Z</time>
      </trkpt>
      <trkpt lat="45.26048" lon="6.124">
        <ele>2004</ele>
        <time>2021-12-23T10:31:44Z</time>
      </trkpt>
      <trkpt lat="45.26048" lon="6.12402">
        <ele>2004</ele>
        <time>2021-12-23T10:31:45Z</time>
      </trkpt>
      <trkpt lat="45.26047" lon="6.12403">
        <ele>2004</ele>
        <time>2021-12-23T10:31:46Z</time>
      </trkpt>
      <trkpt lat="45.26047" lon="6.12405">
        <ele>2003</ele>
        <time>2021-12-23T10:31:47Z</time>
      </trkpt>
      <trkpt lat="45.26046" lon="6.12406">
        <ele>2003</ele>
        <time>2021-12-23T10:31:48Z</time>
      </trkpt>
      <trkpt lat="45.26046" lon="6.12408">
        <ele>2004</ele>
        <time>2021-12-23T10:31:50Z</time>
      </trkpt>
      <trkpt lat="45.26046" lon="6.12409">
        <ele>2004</ele>
        <time>2021-12-23T10:31:51Z</time>
      </trkpt>
      <trkpt lat="45.26045" lon="6.1241">
        <ele>2003</ele>
        <time>2021-12-23T10:31:52Z</time>
      </trkpt>
      <trkpt lat="45.26045" lon="6.12411">
        <ele>2003</ele>
        <time>2021-12-23T10:31:53Z</time>
      </trkpt>
      <trkpt lat="45.26045" lon="6.12412">
        <ele>2003</ele>
        <time>2021-12-23T10:31:54Z</time>
      </trkpt>
      <trkpt lat="45.26045" lon="6.12413">
        <ele>2004</ele>
        <time>2021-12-23T10:31:55Z</time>
      </trkpt>
      <trkpt lat="45.26044" lon="6.12413">
        <ele>2004</ele>
        <time>2021-12-23T10:31:56Z</time>
      </trkpt>
      <trkpt lat="45.26044" lon="6.12414">
        <ele>2004</ele>
        <time>2021-12-23T10:31:57Z</time>
      </trkpt>
      <trkpt lat="45.26044" lon="6.12415">
        <ele>2004</ele>
        <time>2021-12-23T10:31:58Z</time>
      </trkpt>
      <trkpt lat="45.26044" lon="6.12416">
        <ele>2004</ele>
        <time>2021-12-23T10:31:59Z</time>
      </trkpt>
      <trkpt lat="45.26044" lon="6.12416">
        <ele>2004</ele>
        <time>2021-12-23T10:32:00Z</time>
      </trkpt>
      <trkpt lat="45.26044" lon="6.12417">
        <ele>2004</ele>
        <time>2021-12-23T10:32:01Z</time>
      </trkpt>
      <trkpt lat="45.26043" lon="6.12418">
        <ele>2004</ele>
        <time>2021-12-23T10:32:02Z</time>
      </trkpt>
      <trkpt lat="45.26043" lon="6.12419">
        <ele>2004</ele>
        <time>2021-12-23T10:32:03Z</time>
      </trkpt>
      <trkpt lat="45.26043" lon="6.12419">
        <ele>2003</ele>
        <time>2021-12-23T10:32:04Z</time>
      </trkpt>
      <trkpt lat="45.26043" lon="6.1242">
        <ele>2003</ele>
        <time>2021-12-23T10:32:05Z</time>
      </trkpt>
      <trkpt lat="45.26043" lon="6.12421">
        <ele>2003</ele>
        <time>2021-12-23T10:32:06Z</time>
      </trkpt>
      <trkpt lat="45.26042" lon="6.12421">
        <ele>2003</ele>
        <time>2021-12-23T10:32:07Z</time>
      </trkpt>
      <trkpt lat="45.26042" lon="6.12422">
        <ele>2004</ele>
        <time>2021-12-23T10:32:09Z</time>
      </trkpt>
      <trkpt lat="45.26042" lon="6.12423">
        <ele>2004</ele>
        <time>2021-12-23T10:32:10Z</time>
      </trkpt>
      <trkpt lat="45.26042" lon="6.12423">
        <ele>2004</ele>
        <time>2021-12-23T10:32:11Z</time>
      </trkpt>
      <trkpt lat="45.26042" lon="6.12423">
        <ele>2004</ele>
        <time>2021-12-23T10:32:12Z</time>
      </trkpt>
      <trkpt lat="45.26042" lon="6.12423">
        <ele>2003</ele>
        <time>2021-12-23T10:32:13Z</time>
      </trkpt>
      <trkpt lat="45.26042" lon="6.12423">
        <ele>2003</ele>
        <time>2021-12-23T10:32:14Z</time>
      </trkpt>
      <trkpt lat="45.26042" lon="6.12423">
        <ele>2003</ele>
        <time>2021-12-23T10:32:15Z</time>
      </trkpt>
      <trkpt lat="45.26042" lon="6.12423">
        <ele>2003</ele>
        <time>2021-12-23T10:32:16Z</time>
      </trkpt>
      <trkpt lat="45.26042" lon="6.12423">
        <ele>2003</ele>
        <time>2021-12-23T10:32:17Z</time>
      </trkpt>
      <trkpt lat="45.26042" lon="6.12423">
        <ele>2003</ele>
        <time>2021-12-23T10:32:18Z</time>
      </trkpt>
      <trkpt lat="45.26042" lon="6.12423">
        <ele>2003</ele>
        <time>2021-12-23T10:32:19Z</time>
      </trkpt>
      <trkpt lat="45.26042" lon="6.12423">
        <ele>2003</ele>
        <time>2021-12-23T10:32:20Z</time>
      </trkpt>
      <trkpt lat="45.26042" lon="6.12423">
        <ele>2003</ele>
        <time>2021-12-23T10:32:21Z</time>
      </trkpt>
      <trkpt lat="45.26042" lon="6.12423">
        <ele>2003</ele>
        <time>2021-12-23T10:32:22Z</time>
      </trkpt>
      <trkpt lat="45.26042" lon="6.12423">
        <ele>2003</ele>
        <time>2021-12-23T10:32:23Z</time>
      </trkpt>
      <trkpt lat="45.26042" lon="6.12423">
        <ele>2003</ele>
        <time>2021-12-23T10:32:24Z</time>
      </trkpt>
      <trkpt lat="45.26042" lon="6.12423">
        <ele>2003</ele>
        <time>2021-12-23T10:32:25Z</time>
      </trkpt>
      <trkpt lat="45.26042" lon="6.12423">
        <ele>2003</ele>
        <time>2021-12-23T10:32:26Z</time>
      </trkpt>
      <trkpt lat="45.26042" lon="6.12423">
        <ele>2003</ele>
        <time>2021-12-23T10:32:28Z</time>
      </trkpt>
      <trkpt lat="45.26042" lon="6.12423">
        <ele>2004</ele>
        <time>2021-12-23T10:32:29Z</time>
      </trkpt>
      <trkpt lat="45.26042" lon="6.12423">
        <ele>2004</ele>
        <time>2021-12-23T10:32:30Z</time>
      </trkpt>
      <trkpt lat="45.26042" lon="6.12423">
        <ele>2004</ele>
        <time>2021-12-23T10:32:31Z</time>
      </trkpt>
      <trkpt lat="45.26042" lon="6.12423">
        <ele>2004</ele>
        <time>2021-12-23T10:32:32Z</time>
      </trkpt>
      <trkpt lat="45.26042" lon="6.12423">
        <ele>2004</ele>
        <time>2021-12-23T10:32:33Z</time>
      </trkpt>
      <trkpt lat="45.26042" lon="6.12423">
        <ele>2004</ele>
        <time>2021-12-23T10:32:34Z</time>
      </trkpt>
      <trkpt lat="45.26042" lon="6.12423">
        <ele>2004</ele>
        <time>2021-12-23T10:32:35Z</time>
      </trkpt>
      <trkpt lat="45.26042" lon="6.12423">
        <ele>2004</ele>
        <time>2021-12-23T10:32:36Z</time>
      </trkpt>
      <trkpt lat="45.26042" lon="6.12423">
        <ele>2004</ele>
        <time>2021-12-23T10:32:37Z</time>
      </trkpt>
      <trkpt lat="45.26042" lon="6.12423">
        <ele>2004</ele>
        <time>2021-12-23T10:32:38Z</time>
      </trkpt>
      <trkpt lat="45.26042" lon="6.12423">
        <ele>2004</ele>
        <time>2021-12-23T10:32:39Z</time>
      </trkpt>
      <trkpt lat="45.26042" lon="6.12423">
        <ele>2004</ele>
        <time>2021-12-23T10:32:40Z</time>
      </trkpt>
      <trkpt lat="45.26042" lon="6.12423">
        <ele>2004</ele>
        <time>2021-12-23T10:32:41Z</time>
      </trkpt>
      <trkpt lat="45.26042" lon="6.12423">
        <ele>2004</ele>
        <time>2021-12-23T10:32:42Z</time>
      </trkpt>
      <trkpt lat="45.26042" lon="6.12423">
        <ele>2004</ele>
        <time>2021-12-23T10:32:43Z</time>
      </trkpt>
      <trkpt lat="45.26042" lon="6.12423">
        <ele>2004</ele>
        <time>2021-12-23T10:32:44Z</time>
      </trkpt>
      <trkpt lat="45.26042" lon="6.12423">
        <ele>2004</ele>
        <time>2021-12-23T10:32:45Z</time>
      </trkpt>
      <trkpt lat="45.26042" lon="6.12423">
        <ele>2004</ele>
        <time>2021-12-23T10:32:47Z</time>
      </trkpt>
      <trkpt lat="45.26042" lon="6.12423">
        <ele>2004</ele>
        <time>2021-12-23T10:32:48Z</time>
      </trkpt>
      <trkpt lat="45.26042" lon="6.12423">
        <ele>2004</ele>
        <time>2021-12-23T10:32:49Z</time>
      </trkpt>
      <trkpt lat="45.26042" lon="6.12423">
        <ele>2004</ele>
        <time>2021-12-23T10:32:50Z</time>
      </trkpt>
      <trkpt lat="45.26042" lon="6.12423">
        <ele>2004</ele>
        <time>2021-12-23T10:32:51Z</time>
      </trkpt>
      <trkpt lat="45.26042" lon="6.12423">
        <ele>2004</ele>
        <time>2021-12-23T10:32:52Z</time>
      </trkpt>
      <trkpt lat="45.26042" lon="6.12423">
        <ele>2005</ele>
        <time>2021-12-23T10:32:53Z</time>
      </trkpt>
      <trkpt lat="45.26042" lon="6.12423">
        <ele>2005</ele>
        <time>2021-12-23T10:32:54Z</time>
      </trkpt>
      <trkpt lat="45.26042" lon="6.12423">
        <ele>2005</ele>
        <time>2021-12-23T10:32:55Z</time>
      </trkpt>
      <trkpt lat="45.26042" lon="6.12423">
        <ele>2006</ele>
        <time>2021-12-23T10:32:56Z</time>
      </trkpt>
      <trkpt lat="45.26042" lon="6.12423">
        <ele>2006</ele>
        <time>2021-12-23T10:32:57Z</time>
      </trkpt>
      <trkpt lat="45.26042" lon="6.12423">
        <ele>2006</ele>
        <time>2021-12-23T10:32:58Z</time>
      </trkpt>
      <trkpt lat="45.26042" lon="6.12423">
        <ele>2006</ele>
        <time>2021-12-23T10:32:59Z</time>
      </trkpt>
      <trkpt lat="45.26042" lon="6.12423">
        <ele>2006</ele>
        <time>2021-12-23T10:33:00Z</time>
      </trkpt>
      <trkpt lat="45.26042" lon="6.12423">
        <ele>2005</ele>
        <time>2021-12-23T10:33:01Z</time>
      </trkpt>
      <trkpt lat="45.26042" lon="6.12423">
        <ele>2006</ele>
        <time>2021-12-23T10:33:02Z</time>
      </trkpt>
      <trkpt lat="45.26042" lon="6.12423">
        <ele>2006</ele>
        <time>2021-12-23T10:33:03Z</time>
      </trkpt>
      <trkpt lat="45.26032" lon="6.12436">
        <ele>2006</ele>
        <time>2021-12-23T10:33:04Z</time>
      </trkpt>
      <trkpt lat="45.26032" lon="6.12436">
        <ele>2004</ele>
        <time>2021-12-23T10:33:06Z</time>
      </trkpt>
      <trkpt lat="45.26032" lon="6.12436">
        <ele>2004</ele>
        <time>2021-12-23T10:33:07Z</time>
      </trkpt>
      <trkpt lat="45.26032" lon="6.12436">
        <ele>2004</ele>
        <time>2021-12-23T10:33:08Z</time>
      </trkpt>
      <trkpt lat="45.26032" lon="6.12436">
        <ele>2004</ele>
        <time>2021-12-23T10:33:09Z</time>
      </trkpt>
      <trkpt lat="45.26032" lon="6.12436">
        <ele>2004</ele>
        <time>2021-12-23T10:33:10Z</time>
      </trkpt>
      <trkpt lat="45.26032" lon="6.12436">
        <ele>2003</ele>
        <time>2021-12-23T10:33:11Z</time>
      </trkpt>
      <trkpt lat="45.26032" lon="6.12436">
        <ele>2003</ele>
        <time>2021-12-23T10:33:12Z</time>
      </trkpt>
      <trkpt lat="45.26025" lon="6.12444">
        <ele>2004</ele>
        <time>2021-12-23T10:33:13Z</time>
      </trkpt>
      <trkpt lat="45.26025" lon="6.12444">
        <ele>2004</ele>
        <time>2021-12-23T10:33:15Z</time>
      </trkpt>
      <trkpt lat="45.26025" lon="6.12444">
        <ele>2004</ele>
        <time>2021-12-23T10:33:16Z</time>
      </trkpt>
      <trkpt lat="45.26025" lon="6.12444">
        <ele>2004</ele>
        <time>2021-12-23T10:33:17Z</time>
      </trkpt>
      <trkpt lat="45.26025" lon="6.12444">
        <ele>2004</ele>
        <time>2021-12-23T10:33:18Z</time>
      </trkpt>
      <trkpt lat="45.26019" lon="6.12454">
        <ele>2004</ele>
        <time>2021-12-23T10:33:20Z</time>
      </trkpt>
      <trkpt lat="45.26018" lon="6.12455">
        <ele>2004</ele>
        <time>2021-12-23T10:33:21Z</time>
      </trkpt>
      <trkpt lat="45.26018" lon="6.12456">
        <ele>2004</ele>
        <time>2021-12-23T10:33:22Z</time>
      </trkpt>
      <trkpt lat="45.26018" lon="6.12457">
        <ele>2004</ele>
        <time>2021-12-23T10:33:23Z</time>
      </trkpt>
      <trkpt lat="45.26018" lon="6.12457">
        <ele>2004</ele>
        <time>2021-12-23T10:33:25Z</time>
      </trkpt>
      <trkpt lat="45.26017" lon="6.12458">
        <ele>2004</ele>
        <time>2021-12-23T10:33:26Z</time>
      </trkpt>
      <trkpt lat="45.26017" lon="6.12459">
        <ele>2005</ele>
        <time>2021-12-23T10:33:27Z</time>
      </trkpt>
      <trkpt lat="45.26017" lon="6.1246">
        <ele>2005</ele>
        <time>2021-12-23T10:33:28Z</time>
      </trkpt>
      <trkpt lat="45.26017" lon="6.1246">
        <ele>2005</ele>
        <time>2021-12-23T10:33:29Z</time>
      </trkpt>
      <trkpt lat="45.26016" lon="6.12461">
        <ele>2006</ele>
        <time>2021-12-23T10:33:30Z</time>
      </trkpt>
      <trkpt lat="45.26016" lon="6.12462">
        <ele>2006</ele>
        <time>2021-12-23T10:33:31Z</time>
      </trkpt>
      <trkpt lat="45.26016" lon="6.12463">
        <ele>2005</ele>
        <time>2021-12-23T10:33:32Z</time>
      </trkpt>
      <trkpt lat="45.26016" lon="6.12464">
        <ele>2005</ele>
        <time>2021-12-23T10:33:33Z</time>
      </trkpt>
      <trkpt lat="45.26015" lon="6.12464">
        <ele>2005</ele>
        <time>2021-12-23T10:33:34Z</time>
      </trkpt>
      <trkpt lat="45.26015" lon="6.12465">
        <ele>2005</ele>
        <time>2021-12-23T10:33:35Z</time>
      </trkpt>
      <trkpt lat="45.26015" lon="6.12466">
        <ele>2006</ele>
        <time>2021-12-23T10:33:36Z</time>
      </trkpt>
      <trkpt lat="45.26015" lon="6.12467">
        <ele>2006</ele>
        <time>2021-12-23T10:33:37Z</time>
      </trkpt>
      <trkpt lat="45.26014" lon="6.12468">
        <ele>2007</ele>
        <time>2021-12-23T10:33:38Z</time>
      </trkpt>
      <trkpt lat="45.26014" lon="6.12468">
        <ele>2007</ele>
        <time>2021-12-23T10:33:39Z</time>
      </trkpt>
      <trkpt lat="45.26013" lon="6.1247">
        <ele>2007</ele>
        <time>2021-12-23T10:33:40Z</time>
      </trkpt>
      <trkpt lat="45.26013" lon="6.12471">
        <ele>2007</ele>
        <time>2021-12-23T10:33:41Z</time>
      </trkpt>
      <trkpt lat="45.26012" lon="6.12473">
        <ele>2007</ele>
        <time>2021-12-23T10:33:42Z</time>
      </trkpt>
      <trkpt lat="45.26011" lon="6.12475">
        <ele>2007</ele>
        <time>2021-12-23T10:33:44Z</time>
      </trkpt>
      <trkpt lat="45.2601" lon="6.12476">
        <ele>2007</ele>
        <time>2021-12-23T10:33:45Z</time>
      </trkpt>
      <trkpt lat="45.2601" lon="6.12478">
        <ele>2007</ele>
        <time>2021-12-23T10:33:46Z</time>
      </trkpt>
      <trkpt lat="45.26009" lon="6.12479">
        <ele>2007</ele>
        <time>2021-12-23T10:33:47Z</time>
      </trkpt>
      <trkpt lat="45.26008" lon="6.12481">
        <ele>2007</ele>
        <time>2021-12-23T10:33:48Z</time>
      </trkpt>
      <trkpt lat="45.26007" lon="6.12482">
        <ele>2007</ele>
        <time>2021-12-23T10:33:49Z</time>
      </trkpt>
      <trkpt lat="45.26007" lon="6.12484">
        <ele>2008</ele>
        <time>2021-12-23T10:33:50Z</time>
      </trkpt>
      <trkpt lat="45.26006" lon="6.12484">
        <ele>2008</ele>
        <time>2021-12-23T10:33:51Z</time>
      </trkpt>
      <trkpt lat="45.26005" lon="6.12485">
        <ele>2008</ele>
        <time>2021-12-23T10:33:52Z</time>
      </trkpt>
      <trkpt lat="45.26004" lon="6.12485">
        <ele>2008</ele>
        <time>2021-12-23T10:33:53Z</time>
      </trkpt>
      <trkpt lat="45.26004" lon="6.12486">
        <ele>2008</ele>
        <time>2021-12-23T10:33:54Z</time>
      </trkpt>
      <trkpt lat="45.26003" lon="6.12486">
        <ele>2008</ele>
        <time>2021-12-23T10:33:55Z</time>
      </trkpt>
      <trkpt lat="45.26002" lon="6.12487">
        <ele>2009</ele>
        <time>2021-12-23T10:33:56Z</time>
      </trkpt>
      <trkpt lat="45.26001" lon="6.12487">
        <ele>2009</ele>
        <time>2021-12-23T10:33:57Z</time>
      </trkpt>
      <trkpt lat="45.26001" lon="6.12488">
        <ele>2009</ele>
        <time>2021-12-23T10:33:58Z</time>
      </trkpt>
      <trkpt lat="45.26" lon="6.12488">
        <ele>2010</ele>
        <time>2021-12-23T10:33:59Z</time>
      </trkpt>
      <trkpt lat="45.25999" lon="6.12489">
        <ele>2010</ele>
        <time>2021-12-23T10:34:00Z</time>
      </trkpt>
      <trkpt lat="45.25998" lon="6.12489">
        <ele>2010</ele>
        <time>2021-12-23T10:34:01Z</time>
      </trkpt>
      <trkpt lat="45.25998" lon="6.12489">
        <ele>2011</ele>
        <time>2021-12-23T10:34:03Z</time>
      </trkpt>
      <trkpt lat="45.25998" lon="6.12489">
        <ele>2011</ele>
        <time>2021-12-23T10:34:04Z</time>
      </trkpt>
      <trkpt lat="45.25998" lon="6.12489">
        <ele>2011</ele>
        <time>2021-12-23T10:34:05Z</time>
      </trkpt>
      <trkpt lat="45.25998" lon="6.12489">
        <ele>2011</ele>
        <time>2021-12-23T10:34:06Z</time>
      </trkpt>
      <trkpt lat="45.25998" lon="6.12489">
        <ele>2011</ele>
        <time>2021-12-23T10:34:07Z</time>
      </trkpt>
      <trkpt lat="45.25998" lon="6.12489">
        <ele>2011</ele>
        <time>2021-12-23T10:34:08Z</time>
      </trkpt>
      <trkpt lat="45.25998" lon="6.12489">
        <ele>2011</ele>
        <time>2021-12-23T10:34:09Z</time>
      </trkpt>
      <trkpt lat="45.25998" lon="6.12489">
        <ele>2011</ele>
        <time>2021-12-23T10:34:10Z</time>
      </trkpt>
      <trkpt lat="45.25998" lon="6.12489">
        <ele>2011</ele>
        <time>2021-12-23T10:34:11Z</time>
      </trkpt>
      <trkpt lat="45.25991" lon="6.12497">
        <ele>2011</ele>
        <time>2021-12-23T10:34:12Z</time>
      </trkpt>
      <trkpt lat="45.25991" lon="6.12497">
        <ele>2011</ele>
        <time>2021-12-23T10:34:14Z</time>
      </trkpt>
      <trkpt lat="45.25991" lon="6.12497">
        <ele>2012</ele>
        <time>2021-12-23T10:34:15Z</time>
      </trkpt>
      <trkpt lat="45.25991" lon="6.12497">
        <ele>2012</ele>
        <time>2021-12-23T10:34:16Z</time>
      </trkpt>
      <trkpt lat="45.25991" lon="6.12497">
        <ele>2012</ele>
        <time>2021-12-23T10:34:17Z</time>
      </trkpt>
      <trkpt lat="45.25991" lon="6.12497">
        <ele>2012</ele>
        <time>2021-12-23T10:34:18Z</time>
      </trkpt>
      <trkpt lat="45.25991" lon="6.12497">
        <ele>2012</ele>
        <time>2021-12-23T10:34:19Z</time>
      </trkpt>
      <trkpt lat="45.25986" lon="6.12508">
        <ele>2012</ele>
        <time>2021-12-23T10:34:20Z</time>
      </trkpt>
      <trkpt lat="45.25986" lon="6.12508">
        <ele>2013</ele>
        <time>2021-12-23T10:34:22Z</time>
      </trkpt>
      <trkpt lat="45.25988" lon="6.12509">
        <ele>2013</ele>
        <time>2021-12-23T10:34:23Z</time>
      </trkpt>
      <trkpt lat="45.2599" lon="6.12511">
        <ele>2013</ele>
        <time>2021-12-23T10:34:24Z</time>
      </trkpt>
      <trkpt lat="45.25993" lon="6.12512">
        <ele>2013</ele>
        <time>2021-12-23T10:34:25Z</time>
      </trkpt>
      <trkpt lat="45.25995" lon="6.12514">
        <ele>2013</ele>
        <time>2021-12-23T10:34:26Z</time>
      </trkpt>
      <trkpt lat="45.25994" lon="6.12515">
        <ele>2013</ele>
        <time>2021-12-23T10:34:27Z</time>
      </trkpt>
      <trkpt lat="45.25993" lon="6.12517">
        <ele>2013</ele>
        <time>2021-12-23T10:34:28Z</time>
      </trkpt>
      <trkpt lat="45.25992" lon="6.12519">
        <ele>2013</ele>
        <time>2021-12-23T10:34:29Z</time>
      </trkpt>
      <trkpt lat="45.25991" lon="6.1252">
        <ele>2013</ele>
        <time>2021-12-23T10:34:30Z</time>
      </trkpt>
      <trkpt lat="45.2599" lon="6.12522">
        <ele>2014</ele>
        <time>2021-12-23T10:34:31Z</time>
      </trkpt>
      <trkpt lat="45.25989" lon="6.12523">
        <ele>2014</ele>
        <time>2021-12-23T10:34:32Z</time>
      </trkpt>
      <trkpt lat="45.25987" lon="6.12525">
        <ele>2014</ele>
        <time>2021-12-23T10:34:33Z</time>
      </trkpt>
      <trkpt lat="45.25985" lon="6.12526">
        <ele>2014</ele>
        <time>2021-12-23T10:34:34Z</time>
      </trkpt>
      <trkpt lat="45.25984" lon="6.12527">
        <ele>2014</ele>
        <time>2021-12-23T10:34:35Z</time>
      </trkpt>
      <trkpt lat="45.25982" lon="6.12528">
        <ele>2014</ele>
        <time>2021-12-23T10:34:36Z</time>
      </trkpt>
      <trkpt lat="45.2598" lon="6.1253">
        <ele>2014</ele>
        <time>2021-12-23T10:34:37Z</time>
      </trkpt>
      <trkpt lat="45.25978" lon="6.12531">
        <ele>2014</ele>
        <time>2021-12-23T10:34:38Z</time>
      </trkpt>
      <trkpt lat="45.25978" lon="6.12531">
        <ele>2014</ele>
        <time>2021-12-23T10:34:39Z</time>
      </trkpt>
      <trkpt lat="45.25978" lon="6.12531">
        <ele>2015</ele>
        <time>2021-12-23T10:34:41Z</time>
      </trkpt>
      <trkpt lat="45.25978" lon="6.12531">
        <ele>2015</ele>
        <time>2021-12-23T10:34:42Z</time>
      </trkpt>
      <trkpt lat="45.25978" lon="6.12531">
        <ele>2015</ele>
        <time>2021-12-23T10:34:43Z</time>
      </trkpt>
      <trkpt lat="45.25969" lon="6.12539">
        <ele>2016</ele>
        <time>2021-12-23T10:34:44Z</time>
      </trkpt>
      <trkpt lat="45.25969" lon="6.12539">
        <ele>2016</ele>
        <time>2021-12-23T10:34:46Z</time>
      </trkpt>
      <trkpt lat="45.25969" lon="6.1254">
        <ele>2016</ele>
        <time>2021-12-23T10:34:47Z</time>
      </trkpt>
      <trkpt lat="45.25968" lon="6.12541">
        <ele>2015</ele>
        <time>2021-12-23T10:34:48Z</time>
      </trkpt>
      <trkpt lat="45.25968" lon="6.12541">
        <ele>2016</ele>
        <time>2021-12-23T10:34:49Z</time>
      </trkpt>
      <trkpt lat="45.25967" lon="6.12542">
        <ele>2016</ele>
        <time>2021-12-23T10:34:50Z</time>
      </trkpt>
      <trkpt lat="45.25966" lon="6.12543">
        <ele>2016</ele>
        <time>2021-12-23T10:34:51Z</time>
      </trkpt>
      <trkpt lat="45.25966" lon="6.12544">
        <ele>2016</ele>
        <time>2021-12-23T10:34:52Z</time>
      </trkpt>
      <trkpt lat="45.25965" lon="6.12544">
        <ele>2016</ele>
        <time>2021-12-23T10:34:53Z</time>
      </trkpt>
      <trkpt lat="45.25964" lon="6.12545">
        <ele>2016</ele>
        <time>2021-12-23T10:34:54Z</time>
      </trkpt>
      <trkpt lat="45.25964" lon="6.12546">
        <ele>2016</ele>
        <time>2021-12-23T10:34:55Z</time>
      </trkpt>
      <trkpt lat="45.25963" lon="6.12546">
        <ele>2016</ele>
        <time>2021-12-23T10:34:56Z</time>
      </trkpt>
      <trkpt lat="45.25963" lon="6.12547">
        <ele>2017</ele>
        <time>2021-12-23T10:34:57Z</time>
      </trkpt>
      <trkpt lat="45.25962" lon="6.12548">
        <ele>2017</ele>
        <time>2021-12-23T10:34:58Z</time>
      </trkpt>
      <trkpt lat="45.25962" lon="6.12549">
        <ele>2017</ele>
        <time>2021-12-23T10:35:00Z</time>
      </trkpt>
      <trkpt lat="45.25961" lon="6.1255">
        <ele>2017</ele>
        <time>2021-12-23T10:35:01Z</time>
      </trkpt>
      <trkpt lat="45.25961" lon="6.1255">
        <ele>2018</ele>
        <time>2021-12-23T10:35:02Z</time>
      </trkpt>
      <trkpt lat="45.2596" lon="6.12551">
        <ele>2018</ele>
        <time>2021-12-23T10:35:03Z</time>
      </trkpt>
      <trkpt lat="45.2596" lon="6.12552">
        <ele>2018</ele>
        <time>2021-12-23T10:35:04Z</time>
      </trkpt>
      <trkpt lat="45.2596" lon="6.12553">
        <ele>2018</ele>
        <time>2021-12-23T10:35:05Z</time>
      </trkpt>
      <trkpt lat="45.25959" lon="6.12554">
        <ele>2018</ele>
        <time>2021-12-23T10:35:06Z</time>
      </trkpt>
      <trkpt lat="45.25959" lon="6.12554">
        <ele>2018</ele>
        <time>2021-12-23T10:35:07Z</time>
      </trkpt>
      <trkpt lat="45.25958" lon="6.12555">
        <ele>2018</ele>
        <time>2021-12-23T10:35:08Z</time>
      </trkpt>
      <trkpt lat="45.25958" lon="6.12556">
        <ele>2018</ele>
        <time>2021-12-23T10:35:09Z</time>
      </trkpt>
      <trkpt lat="45.25958" lon="6.12557">
        <ele>2019</ele>
        <time>2021-12-23T10:35:10Z</time>
      </trkpt>
      <trkpt lat="45.25957" lon="6.12558">
        <ele>2019</ele>
        <time>2021-12-23T10:35:11Z</time>
      </trkpt>
      <trkpt lat="45.25957" lon="6.12559">
        <ele>2019</ele>
        <time>2021-12-23T10:35:12Z</time>
      </trkpt>
      <trkpt lat="45.25956" lon="6.12559">
        <ele>2019</ele>
        <time>2021-12-23T10:35:13Z</time>
      </trkpt>
      <trkpt lat="45.25955" lon="6.1256">
        <ele>2019</ele>
        <time>2021-12-23T10:35:14Z</time>
      </trkpt>
      <trkpt lat="45.25954" lon="6.12561">
        <ele>2019</ele>
        <time>2021-12-23T10:35:15Z</time>
      </trkpt>
      <trkpt lat="45.25954" lon="6.12562">
        <ele>2019</ele>
        <time>2021-12-23T10:35:16Z</time>
      </trkpt>
      <trkpt lat="45.25953" lon="6.12563">
        <ele>2019</ele>
        <time>2021-12-23T10:35:17Z</time>
      </trkpt>
      <trkpt lat="45.25952" lon="6.12564">
        <ele>2019</ele>
        <time>2021-12-23T10:35:19Z</time>
      </trkpt>
      <trkpt lat="45.25951" lon="6.12565">
        <ele>2019</ele>
        <time>2021-12-23T10:35:20Z</time>
      </trkpt>
      <trkpt lat="45.2595" lon="6.12566">
        <ele>2019</ele>
        <time>2021-12-23T10:35:21Z</time>
      </trkpt>
      <trkpt lat="45.2595" lon="6.12566">
        <ele>2019</ele>
        <time>2021-12-23T10:35:22Z</time>
      </trkpt>
      <trkpt lat="45.25949" lon="6.12567">
        <ele>2019</ele>
        <time>2021-12-23T10:35:23Z</time>
      </trkpt>
      <trkpt lat="45.25948" lon="6.12568">
        <ele>2019</ele>
        <time>2021-12-23T10:35:24Z</time>
      </trkpt>
      <trkpt lat="45.25947" lon="6.12569">
        <ele>2019</ele>
        <time>2021-12-23T10:35:25Z</time>
      </trkpt>
      <trkpt lat="45.25947" lon="6.1257">
        <ele>2020</ele>
        <time>2021-12-23T10:35:26Z</time>
      </trkpt>
      <trkpt lat="45.25947" lon="6.12571">
        <ele>2020</ele>
        <time>2021-12-23T10:35:27Z</time>
      </trkpt>
      <trkpt lat="45.25947" lon="6.12571">
        <ele>2020</ele>
        <time>2021-12-23T10:35:28Z</time>
      </trkpt>
      <trkpt lat="45.25946" lon="6.12572">
        <ele>2021</ele>
        <time>2021-12-23T10:35:29Z</time>
      </trkpt>
      <trkpt lat="45.25946" lon="6.12573">
        <ele>2021</ele>
        <time>2021-12-23T10:35:30Z</time>
      </trkpt>
      <trkpt lat="45.25946" lon="6.12573">
        <ele>2021</ele>
        <time>2021-12-23T10:35:31Z</time>
      </trkpt>
      <trkpt lat="45.25946" lon="6.12574">
        <ele>2021</ele>
        <time>2021-12-23T10:35:32Z</time>
      </trkpt>
      <trkpt lat="45.25945" lon="6.12575">
        <ele>2022</ele>
        <time>2021-12-23T10:35:33Z</time>
      </trkpt>
      <trkpt lat="45.25945" lon="6.12576">
        <ele>2022</ele>
        <time>2021-12-23T10:35:34Z</time>
      </trkpt>
      <trkpt lat="45.25945" lon="6.12576">
        <ele>2022</ele>
        <time>2021-12-23T10:35:35Z</time>
      </trkpt>
      <trkpt lat="45.25944" lon="6.12577">
        <ele>2022</ele>
        <time>2021-12-23T10:35:36Z</time>
      </trkpt>
      <trkpt lat="45.25944" lon="6.12578">
        <ele>2022</ele>
        <time>2021-12-23T10:35:38Z</time>
      </trkpt>
      <trkpt lat="45.25944" lon="6.12579">
        <ele>2022</ele>
        <time>2021-12-23T10:35:39Z</time>
      </trkpt>
      <trkpt lat="45.25944" lon="6.12579">
        <ele>2022</ele>
        <time>2021-12-23T10:35:40Z</time>
      </trkpt>
      <trkpt lat="45.25943" lon="6.1258">
        <ele>2022</ele>
        <time>2021-12-23T10:35:41Z</time>
      </trkpt>
      <trkpt lat="45.25943" lon="6.12581">
        <ele>2022</ele>
        <time>2021-12-23T10:35:42Z</time>
      </trkpt>
      <trkpt lat="45.25943" lon="6.12582">
        <ele>2022</ele>
        <time>2021-12-23T10:35:43Z</time>
      </trkpt>
      <trkpt lat="45.25943" lon="6.12582">
        <ele>2022</ele>
        <time>2021-12-23T10:35:44Z</time>
      </trkpt>
      <trkpt lat="45.25942" lon="6.12584">
        <ele>2022</ele>
        <time>2021-12-23T10:35:45Z</time>
      </trkpt>
      <trkpt lat="45.25942" lon="6.12586">
        <ele>2022</ele>
        <time>2021-12-23T10:35:46Z</time>
      </trkpt>
      <trkpt lat="45.25941" lon="6.12588">
        <ele>2022</ele>
        <time>2021-12-23T10:35:47Z</time>
      </trkpt>
      <trkpt lat="45.25941" lon="6.1259">
        <ele>2022</ele>
        <time>2021-12-23T10:35:48Z</time>
      </trkpt>
      <trkpt lat="45.2594" lon="6.12592">
        <ele>2022</ele>
        <time>2021-12-23T10:35:49Z</time>
      </trkpt>
      <trkpt lat="45.2594" lon="6.12594">
        <ele>2022</ele>
        <time>2021-12-23T10:35:50Z</time>
      </trkpt>
      <trkpt lat="45.25939" lon="6.12595">
        <ele>2023</ele>
        <time>2021-12-23T10:35:51Z</time>
      </trkpt>
      <trkpt lat="45.25939" lon="6.12596">
        <ele>2023</ele>
        <time>2021-12-23T10:35:52Z</time>
      </trkpt>
      <trkpt lat="45.25939" lon="6.12597">
        <ele>2023</ele>
        <time>2021-12-23T10:35:53Z</time>
      </trkpt>
      <trkpt lat="45.25938" lon="6.12597">
        <ele>2023</ele>
        <time>2021-12-23T10:35:54Z</time>
      </trkpt>
      <trkpt lat="45.25938" lon="6.12598">
        <ele>2023</ele>
        <time>2021-12-23T10:35:55Z</time>
      </trkpt>
      <trkpt lat="45.25937" lon="6.12599">
        <ele>2023</ele>
        <time>2021-12-23T10:35:57Z</time>
      </trkpt>
      <trkpt lat="45.25937" lon="6.12599">
        <ele>2023</ele>
        <time>2021-12-23T10:35:58Z</time>
      </trkpt>
      <trkpt lat="45.25937" lon="6.126">
        <ele>2023</ele>
        <time>2021-12-23T10:35:59Z</time>
      </trkpt>
      <trkpt lat="45.25936" lon="6.12601">
        <ele>2023</ele>
        <time>2021-12-23T10:36:00Z</time>
      </trkpt>
      <trkpt lat="45.25936" lon="6.12601">
        <ele>2024</ele>
        <time>2021-12-23T10:36:01Z</time>
      </trkpt>
      <trkpt lat="45.25936" lon="6.12602">
        <ele>2024</ele>
        <time>2021-12-23T10:36:02Z</time>
      </trkpt>
      <trkpt lat="45.25935" lon="6.12603">
        <ele>2024</ele>
        <time>2021-12-23T10:36:03Z</time>
      </trkpt>
      <trkpt lat="45.25935" lon="6.12604">
        <ele>2025</ele>
        <time>2021-12-23T10:36:04Z</time>
      </trkpt>
      <trkpt lat="45.25934" lon="6.12604">
        <ele>2025</ele>
        <time>2021-12-23T10:36:05Z</time>
      </trkpt>
      <trkpt lat="45.25934" lon="6.12605">
        <ele>2027</ele>
        <time>2021-12-23T10:36:06Z</time>
      </trkpt>
      <trkpt lat="45.25933" lon="6.12606">
        <ele>2027</ele>
        <time>2021-12-23T10:36:07Z</time>
      </trkpt>
      <trkpt lat="45.25933" lon="6.12607">
        <ele>2027</ele>
        <time>2021-12-23T10:36:08Z</time>
      </trkpt>
      <trkpt lat="45.25932" lon="6.12608">
        <ele>2027</ele>
        <time>2021-12-23T10:36:09Z</time>
      </trkpt>
      <trkpt lat="45.25932" lon="6.1261">
        <ele>2027</ele>
        <time>2021-12-23T10:36:10Z</time>
      </trkpt>
      <trkpt lat="45.25932" lon="6.12611">
        <ele>2027</ele>
        <time>2021-12-23T10:36:11Z</time>
      </trkpt>
      <trkpt lat="45.25931" lon="6.12612">
        <ele>2027</ele>
        <time>2021-12-23T10:36:12Z</time>
      </trkpt>
      <trkpt lat="45.25931" lon="6.12613">
        <ele>2027</ele>
        <time>2021-12-23T10:36:13Z</time>
      </trkpt>
      <trkpt lat="45.2593" lon="6.12614">
        <ele>2027</ele>
        <time>2021-12-23T10:36:14Z</time>
      </trkpt>
      <trkpt lat="45.2593" lon="6.12615">
        <ele>2028</ele>
        <time>2021-12-23T10:36:16Z</time>
      </trkpt>
      <trkpt lat="45.25929" lon="6.12616">
        <ele>2028</ele>
        <time>2021-12-23T10:36:17Z</time>
      </trkpt>
      <trkpt lat="45.25929" lon="6.12617">
        <ele>2028</ele>
        <time>2021-12-23T10:36:18Z</time>
      </trkpt>
      <trkpt lat="45.25928" lon="6.12618">
        <ele>2028</ele>
        <time>2021-12-23T10:36:19Z</time>
      </trkpt>
      <trkpt lat="45.25928" lon="6.12619">
        <ele>2029</ele>
        <time>2021-12-23T10:36:20Z</time>
      </trkpt>
      <trkpt lat="45.25928" lon="6.1262">
        <ele>2029</ele>
        <time>2021-12-23T10:36:21Z</time>
      </trkpt>
      <trkpt lat="45.25928" lon="6.12622">
        <ele>2029</ele>
        <time>2021-12-23T10:36:22Z</time>
      </trkpt>
      <trkpt lat="45.25928" lon="6.12623">
        <ele>2029</ele>
        <time>2021-12-23T10:36:23Z</time>
      </trkpt>
      <trkpt lat="45.25928" lon="6.12624">
        <ele>2029</ele>
        <time>2021-12-23T10:36:24Z</time>
      </trkpt>
      <trkpt lat="45.25929" lon="6.12625">
        <ele>2029</ele>
        <time>2021-12-23T10:36:25Z</time>
      </trkpt>
      <trkpt lat="45.25929" lon="6.12627">
        <ele>2029</ele>
        <time>2021-12-23T10:36:26Z</time>
      </trkpt>
      <trkpt lat="45.25929" lon="6.12628">
        <ele>2029</ele>
        <time>2021-12-23T10:36:27Z</time>
      </trkpt>
      <trkpt lat="45.25929" lon="6.12629">
        <ele>2030</ele>
        <time>2021-12-23T10:36:28Z</time>
      </trkpt>
      <trkpt lat="45.25929" lon="6.1263">
        <ele>2030</ele>
        <time>2021-12-23T10:36:29Z</time>
      </trkpt>
      <trkpt lat="45.25929" lon="6.12632">
        <ele>2030</ele>
        <time>2021-12-23T10:36:30Z</time>
      </trkpt>
      <trkpt lat="45.25929" lon="6.12633">
        <ele>2030</ele>
        <time>2021-12-23T10:36:31Z</time>
      </trkpt>
      <trkpt lat="45.25928" lon="6.12634">
        <ele>2030</ele>
        <time>2021-12-23T10:36:32Z</time>
      </trkpt>
      <trkpt lat="45.25928" lon="6.12635">
        <ele>2030</ele>
        <time>2021-12-23T10:36:33Z</time>
      </trkpt>
      <trkpt lat="45.25928" lon="6.12636">
        <ele>2030</ele>
        <time>2021-12-23T10:36:35Z</time>
      </trkpt>
      <trkpt lat="45.25927" lon="6.12637">
        <ele>2030</ele>
        <time>2021-12-23T10:36:36Z</time>
      </trkpt>
      <trkpt lat="45.25927" lon="6.12638">
        <ele>2030</ele>
        <time>2021-12-23T10:36:37Z</time>
      </trkpt>
      <trkpt lat="45.25926" lon="6.1264">
        <ele>2030</ele>
        <time>2021-12-23T10:36:38Z</time>
      </trkpt>
      <trkpt lat="45.25926" lon="6.12641">
        <ele>2031</ele>
        <time>2021-12-23T10:36:39Z</time>
      </trkpt>
      <trkpt lat="45.25926" lon="6.12642">
        <ele>2031</ele>
        <time>2021-12-23T10:36:40Z</time>
      </trkpt>
      <trkpt lat="45.25925" lon="6.12643">
        <ele>2031</ele>
        <time>2021-12-23T10:36:41Z</time>
      </trkpt>
      <trkpt lat="45.25925" lon="6.12644">
        <ele>2032</ele>
        <time>2021-12-23T10:36:42Z</time>
      </trkpt>
      <trkpt lat="45.25925" lon="6.12644">
        <ele>2032</ele>
        <time>2021-12-23T10:36:43Z</time>
      </trkpt>
      <trkpt lat="45.25925" lon="6.12644">
        <ele>2032</ele>
        <time>2021-12-23T10:36:44Z</time>
      </trkpt>
      <trkpt lat="45.25925" lon="6.12644">
        <ele>2032</ele>
        <time>2021-12-23T10:36:45Z</time>
      </trkpt>
      <trkpt lat="45.25925" lon="6.12644">
        <ele>2032</ele>
        <time>2021-12-23T10:36:46Z</time>
      </trkpt>
      <trkpt lat="45.25925" lon="6.12644">
        <ele>2032</ele>
        <time>2021-12-23T10:36:47Z</time>
      </trkpt>
      <trkpt lat="45.25925" lon="6.12644">
        <ele>2032</ele>
        <time>2021-12-23T10:36:48Z</time>
      </trkpt>
      <trkpt lat="45.25925" lon="6.12644">
        <ele>2032</ele>
        <time>2021-12-23T10:36:49Z</time>
      </trkpt>
      <trkpt lat="45.25925" lon="6.12644">
        <ele>2032</ele>
        <time>2021-12-23T10:36:50Z</time>
      </trkpt>
      <trkpt lat="45.25925" lon="6.12644">
        <ele>2032</ele>
        <time>2021-12-23T10:36:51Z</time>
      </trkpt>
      <trkpt lat="45.25919" lon="6.12656">
        <ele>2032</ele>
        <time>2021-12-23T10:36:52Z</time>
      </trkpt>
      <trkpt lat="45.25919" lon="6.12656">
        <ele>2032</ele>
        <time>2021-12-23T10:36:54Z</time>
      </trkpt>
      <trkpt lat="45.25919" lon="6.12657">
        <ele>2032</ele>
        <time>2021-12-23T10:36:55Z</time>
      </trkpt>
      <trkpt lat="45.25919" lon="6.12659">
        <ele>2032</ele>
        <time>2021-12-23T10:36:56Z</time>
      </trkpt>
      <trkpt lat="45.25919" lon="6.1266">
        <ele>2032</ele>
        <time>2021-12-23T10:36:57Z</time>
      </trkpt>
      <trkpt lat="45.25919" lon="6.12661">
        <ele>2033</ele>
        <time>2021-12-23T10:36:58Z</time>
      </trkpt>
      <trkpt lat="45.25918" lon="6.12663">
        <ele>2033</ele>
        <time>2021-12-23T10:36:59Z</time>
      </trkpt>
      <trkpt lat="45.25918" lon="6.12664">
        <ele>2033</ele>
        <time>2021-12-23T10:37:00Z</time>
      </trkpt>
      <trkpt lat="45.25918" lon="6.12665">
        <ele>2033</ele>
        <time>2021-12-23T10:37:01Z</time>
      </trkpt>
      <trkpt lat="45.25918" lon="6.12667">
        <ele>2033</ele>
        <time>2021-12-23T10:37:02Z</time>
      </trkpt>
      <trkpt lat="45.25918" lon="6.12668">
        <ele>2033</ele>
        <time>2021-12-23T10:37:03Z</time>
      </trkpt>
      <trkpt lat="45.25917" lon="6.12669">
        <ele>2033</ele>
        <time>2021-12-23T10:37:04Z</time>
      </trkpt>
      <trkpt lat="45.25917" lon="6.12671">
        <ele>2033</ele>
        <time>2021-12-23T10:37:05Z</time>
      </trkpt>
      <trkpt lat="45.25917" lon="6.12672">
        <ele>2033</ele>
        <time>2021-12-23T10:37:06Z</time>
      </trkpt>
      <trkpt lat="45.25917" lon="6.12673">
        <ele>2033</ele>
        <time>2021-12-23T10:37:07Z</time>
      </trkpt>
      <trkpt lat="45.25916" lon="6.12674">
        <ele>2034</ele>
        <time>2021-12-23T10:37:08Z</time>
      </trkpt>
      <trkpt lat="45.25916" lon="6.12675">
        <ele>2034</ele>
        <time>2021-12-23T10:37:09Z</time>
      </trkpt>
      <trkpt lat="45.25916" lon="6.12676">
        <ele>2033</ele>
        <time>2021-12-23T10:37:10Z</time>
      </trkpt>
      <trkpt lat="45.25915" lon="6.12678">
        <ele>2033</ele>
        <time>2021-12-23T10:37:11Z</time>
      </trkpt>
      <trkpt lat="45.25915" lon="6.12679">
        <ele>2033</ele>
        <time>2021-12-23T10:37:13Z</time>
      </trkpt>
      <trkpt lat="45.25915" lon="6.1268">
        <ele>2033</ele>
        <time>2021-12-23T10:37:14Z</time>
      </trkpt>
      <trkpt lat="45.25914" lon="6.12681">
        <ele>2033</ele>
        <time>2021-12-23T10:37:15Z</time>
      </trkpt>
      <trkpt lat="45.25914" lon="6.12682">
        <ele>2033</ele>
        <time>2021-12-23T10:37:16Z</time>
      </trkpt>
      <trkpt lat="45.25914" lon="6.12683">
        <ele>2033</ele>
        <time>2021-12-23T10:37:17Z</time>
      </trkpt>
      <trkpt lat="45.25913" lon="6.12685">
        <ele>2034</ele>
        <time>2021-12-23T10:37:18Z</time>
      </trkpt>
      <trkpt lat="45.25913" lon="6.12686">
        <ele>2034</ele>
        <time>2021-12-23T10:37:19Z</time>
      </trkpt>
      <trkpt lat="45.25913" lon="6.12687">
        <ele>2034</ele>
        <time>2021-12-23T10:37:20Z</time>
      </trkpt>
      <trkpt lat="45.25913" lon="6.12688">
        <ele>2034</ele>
        <time>2021-12-23T10:37:21Z</time>
      </trkpt>
      <trkpt lat="45.25912" lon="6.1269">
        <ele>2034</ele>
        <time>2021-12-23T10:37:22Z</time>
      </trkpt>
      <trkpt lat="45.25912" lon="6.12691">
        <ele>2035</ele>
        <time>2021-12-23T10:37:23Z</time>
      </trkpt>
      <trkpt lat="45.25912" lon="6.12692">
        <ele>2035</ele>
        <time>2021-12-23T10:37:24Z</time>
      </trkpt>
      <trkpt lat="45.25912" lon="6.12693">
        <ele>2034</ele>
        <time>2021-12-23T10:37:25Z</time>
      </trkpt>
      <trkpt lat="45.25912" lon="6.12695">
        <ele>2034</ele>
        <time>2021-12-23T10:37:26Z</time>
      </trkpt>
      <trkpt lat="45.25911" lon="6.12696">
        <ele>2034</ele>
        <time>2021-12-23T10:37:27Z</time>
      </trkpt>
      <trkpt lat="45.25911" lon="6.12697">
        <ele>2034</ele>
        <time>2021-12-23T10:37:28Z</time>
      </trkpt>
      <trkpt lat="45.2591" lon="6.12698">
        <ele>2035</ele>
        <time>2021-12-23T10:37:29Z</time>
      </trkpt>
      <trkpt lat="45.2591" lon="6.12699">
        <ele>2035</ele>
        <time>2021-12-23T10:37:30Z</time>
      </trkpt>
      <trkpt lat="45.25909" lon="6.127">
        <ele>2035</ele>
        <time>2021-12-23T10:37:32Z</time>
      </trkpt>
      <trkpt lat="45.25909" lon="6.12701">
        <ele>2036</ele>
        <time>2021-12-23T10:37:33Z</time>
      </trkpt>
      <trkpt lat="45.25908" lon="6.12702">
        <ele>2036</ele>
        <time>2021-12-23T10:37:34Z</time>
      </trkpt>
      <trkpt lat="45.25908" lon="6.12703">
        <ele>2035</ele>
        <time>2021-12-23T10:37:35Z</time>
      </trkpt>
      <trkpt lat="45.25907" lon="6.12704">
        <ele>2035</ele>
        <time>2021-12-23T10:37:36Z</time>
      </trkpt>
      <trkpt lat="45.25907" lon="6.12705">
        <ele>2036</ele>
        <time>2021-12-23T10:37:37Z</time>
      </trkpt>
      <trkpt lat="45.25906" lon="6.12706">
        <ele>2036</ele>
        <time>2021-12-23T10:37:38Z</time>
      </trkpt>
      <trkpt lat="45.25906" lon="6.12707">
        <ele>2036</ele>
        <time>2021-12-23T10:37:39Z</time>
      </trkpt>
      <trkpt lat="45.25905" lon="6.12708">
        <ele>2036</ele>
        <time>2021-12-23T10:37:40Z</time>
      </trkpt>
      <trkpt lat="45.25904" lon="6.12709">
        <ele>2036</ele>
        <time>2021-12-23T10:37:41Z</time>
      </trkpt>
      <trkpt lat="45.25904" lon="6.1271">
        <ele>2036</ele>
        <time>2021-12-23T10:37:42Z</time>
      </trkpt>
      <trkpt lat="45.25904" lon="6.1271">
        <ele>2037</ele>
        <time>2021-12-23T10:37:43Z</time>
      </trkpt>
      <trkpt lat="45.25903" lon="6.12711">
        <ele>2037</ele>
        <time>2021-12-23T10:37:44Z</time>
      </trkpt>
      <trkpt lat="45.25903" lon="6.12711">
        <ele>2037</ele>
        <time>2021-12-23T10:37:45Z</time>
      </trkpt>
      <trkpt lat="45.25902" lon="6.12712">
        <ele>2038</ele>
        <time>2021-12-23T10:37:46Z</time>
      </trkpt>
      <trkpt lat="45.25902" lon="6.12712">
        <ele>2038</ele>
        <time>2021-12-23T10:37:47Z</time>
      </trkpt>
      <trkpt lat="45.25901" lon="6.12713">
        <ele>2038</ele>
        <time>2021-12-23T10:37:48Z</time>
      </trkpt>
      <trkpt lat="45.25901" lon="6.12713">
        <ele>2038</ele>
        <time>2021-12-23T10:37:49Z</time>
      </trkpt>
      <trkpt lat="45.259" lon="6.12714">
        <ele>2039</ele>
        <time>2021-12-23T10:37:51Z</time>
      </trkpt>
      <trkpt lat="45.259" lon="6.12715">
        <ele>2038</ele>
        <time>2021-12-23T10:37:52Z</time>
      </trkpt>
      <trkpt lat="45.25899" lon="6.12715">
        <ele>2038</ele>
        <time>2021-12-23T10:37:53Z</time>
      </trkpt>
      <trkpt lat="45.25899" lon="6.12716">
        <ele>2038</ele>
        <time>2021-12-23T10:37:54Z</time>
      </trkpt>
      <trkpt lat="45.25898" lon="6.12716">
        <ele>2039</ele>
        <time>2021-12-23T10:37:55Z</time>
      </trkpt>
      <trkpt lat="45.25898" lon="6.12717">
        <ele>2039</ele>
        <time>2021-12-23T10:37:56Z</time>
      </trkpt>
      <trkpt lat="45.25898" lon="6.12717">
        <ele>2039</ele>
        <time>2021-12-23T10:37:57Z</time>
      </trkpt>
      <trkpt lat="45.25897" lon="6.12718">
        <ele>2041</ele>
        <time>2021-12-23T10:37:58Z</time>
      </trkpt>
      <trkpt lat="45.25896" lon="6.12719">
        <ele>2041</ele>
        <time>2021-12-23T10:37:59Z</time>
      </trkpt>
      <trkpt lat="45.25896" lon="6.1272">
        <ele>2041</ele>
        <time>2021-12-23T10:38:00Z</time>
      </trkpt>
      <trkpt lat="45.25895" lon="6.12721">
        <ele>2041</ele>
        <time>2021-12-23T10:38:01Z</time>
      </trkpt>
      <trkpt lat="45.25894" lon="6.12721">
        <ele>2041</ele>
        <time>2021-12-23T10:38:02Z</time>
      </trkpt>
      <trkpt lat="45.25893" lon="6.12722">
        <ele>2041</ele>
        <time>2021-12-23T10:38:03Z</time>
      </trkpt>
      <trkpt lat="45.25892" lon="6.12723">
        <ele>2041</ele>
        <time>2021-12-23T10:38:04Z</time>
      </trkpt>
      <trkpt lat="45.25892" lon="6.12724">
        <ele>2041</ele>
        <time>2021-12-23T10:38:05Z</time>
      </trkpt>
      <trkpt lat="45.25891" lon="6.12725">
        <ele>2041</ele>
        <time>2021-12-23T10:38:06Z</time>
      </trkpt>
      <trkpt lat="45.2589" lon="6.12726">
        <ele>2042</ele>
        <time>2021-12-23T10:38:07Z</time>
      </trkpt>
      <trkpt lat="45.25889" lon="6.12727">
        <ele>2042</ele>
        <time>2021-12-23T10:38:08Z</time>
      </trkpt>
      <trkpt lat="45.25889" lon="6.12727">
        <ele>2042</ele>
        <time>2021-12-23T10:38:10Z</time>
      </trkpt>
      <trkpt lat="45.25889" lon="6.12728">
        <ele>2042</ele>
        <time>2021-12-23T10:38:11Z</time>
      </trkpt>
      <trkpt lat="45.25889" lon="6.12729">
        <ele>2042</ele>
        <time>2021-12-23T10:38:12Z</time>
      </trkpt>
      <trkpt lat="45.25888" lon="6.1273">
        <ele>2042</ele>
        <time>2021-12-23T10:38:13Z</time>
      </trkpt>
      <trkpt lat="45.25888" lon="6.12731">
        <ele>2042</ele>
        <time>2021-12-23T10:38:14Z</time>
      </trkpt>
      <trkpt lat="45.25888" lon="6.12731">
        <ele>2042</ele>
        <time>2021-12-23T10:38:15Z</time>
      </trkpt>
      <trkpt lat="45.25887" lon="6.12732">
        <ele>2042</ele>
        <time>2021-12-23T10:38:16Z</time>
      </trkpt>
      <trkpt lat="45.25887" lon="6.12733">
        <ele>2042</ele>
        <time>2021-12-23T10:38:17Z</time>
      </trkpt>
      <trkpt lat="45.25887" lon="6.12734">
        <ele>2043</ele>
        <time>2021-12-23T10:38:18Z</time>
      </trkpt>
      <trkpt lat="45.25886" lon="6.12734">
        <ele>2043</ele>
        <time>2021-12-23T10:38:19Z</time>
      </trkpt>
      <trkpt lat="45.25886" lon="6.12735">
        <ele>2042</ele>
        <time>2021-12-23T10:38:20Z</time>
      </trkpt>
      <trkpt lat="45.25886" lon="6.12736">
        <ele>2042</ele>
        <time>2021-12-23T10:38:21Z</time>
      </trkpt>
      <trkpt lat="45.25886" lon="6.12737">
        <ele>2042</ele>
        <time>2021-12-23T10:38:22Z</time>
      </trkpt>
      <trkpt lat="45.25885" lon="6.12738">
        <ele>2042</ele>
        <time>2021-12-23T10:38:23Z</time>
      </trkpt>
      <trkpt lat="45.25885" lon="6.12738">
        <ele>2042</ele>
        <time>2021-12-23T10:38:24Z</time>
      </trkpt>
      <trkpt lat="45.25885" lon="6.12739">
        <ele>2042</ele>
        <time>2021-12-23T10:38:25Z</time>
      </trkpt>
      <trkpt lat="45.25883" lon="6.1274">
        <ele>2042</ele>
        <time>2021-12-23T10:38:26Z</time>
      </trkpt>
      <trkpt lat="45.25882" lon="6.1274">
        <ele>2042</ele>
        <time>2021-12-23T10:38:27Z</time>
      </trkpt>
      <trkpt lat="45.2588" lon="6.12741">
        <ele>2042</ele>
        <time>2021-12-23T10:38:29Z</time>
      </trkpt>
      <trkpt lat="45.25879" lon="6.12742">
        <ele>2042</ele>
        <time>2021-12-23T10:38:30Z</time>
      </trkpt>
      <trkpt lat="45.25877" lon="6.12743">
        <ele>2042</ele>
        <time>2021-12-23T10:38:31Z</time>
      </trkpt>
      <trkpt lat="45.25875" lon="6.12743">
        <ele>2042</ele>
        <time>2021-12-23T10:38:32Z</time>
      </trkpt>
      <trkpt lat="45.25874" lon="6.12744">
        <ele>2042</ele>
        <time>2021-12-23T10:38:33Z</time>
      </trkpt>
      <trkpt lat="45.25872" lon="6.12745">
        <ele>2042</ele>
        <time>2021-12-23T10:38:34Z</time>
      </trkpt>
      <trkpt lat="45.25872" lon="6.12745">
        <ele>2042</ele>
        <time>2021-12-23T10:38:35Z</time>
      </trkpt>
      <trkpt lat="45.25872" lon="6.12745">
        <ele>2042</ele>
        <time>2021-12-23T10:38:36Z</time>
      </trkpt>
      <trkpt lat="45.25872" lon="6.12745">
        <ele>2043</ele>
        <time>2021-12-23T10:38:37Z</time>
      </trkpt>
      <trkpt lat="45.25872" lon="6.12745">
        <ele>2044</ele>
        <time>2021-12-23T10:38:38Z</time>
      </trkpt>
      <trkpt lat="45.25872" lon="6.12745">
        <ele>2044</ele>
        <time>2021-12-23T10:38:39Z</time>
      </trkpt>
      <trkpt lat="45.25872" lon="6.12745">
        <ele>2044</ele>
        <time>2021-12-23T10:38:40Z</time>
      </trkpt>
      <trkpt lat="45.25872" lon="6.12745">
        <ele>2044</ele>
        <time>2021-12-23T10:38:41Z</time>
      </trkpt>
      <trkpt lat="45.25872" lon="6.12745">
        <ele>2044</ele>
        <time>2021-12-23T10:38:42Z</time>
      </trkpt>
      <trkpt lat="45.25872" lon="6.12745">
        <ele>2044</ele>
        <time>2021-12-23T10:38:43Z</time>
      </trkpt>
      <trkpt lat="45.25872" lon="6.12745">
        <ele>2044</ele>
        <time>2021-12-23T10:38:44Z</time>
      </trkpt>
      <trkpt lat="45.25872" lon="6.12745">
        <ele>2045</ele>
        <time>2021-12-23T10:38:45Z</time>
      </trkpt>
      <trkpt lat="45.25872" lon="6.12745">
        <ele>2045</ele>
        <time>2021-12-23T10:38:46Z</time>
      </trkpt>
      <trkpt lat="45.25872" lon="6.12745">
        <ele>2045</ele>
        <time>2021-12-23T10:38:48Z</time>
      </trkpt>
      <trkpt lat="45.25872" lon="6.12745">
        <ele>2045</ele>
        <time>2021-12-23T10:38:49Z</time>
      </trkpt>
      <trkpt lat="45.25872" lon="6.12745">
        <ele>2045</ele>
        <time>2021-12-23T10:38:50Z</time>
      </trkpt>
      <trkpt lat="45.25872" lon="6.12745">
        <ele>2045</ele>
        <time>2021-12-23T10:38:51Z</time>
      </trkpt>
      <trkpt lat="45.25872" lon="6.12745">
        <ele>2045</ele>
        <time>2021-12-23T10:38:52Z</time>
      </trkpt>
      <trkpt lat="45.25872" lon="6.12745">
        <ele>2045</ele>
        <time>2021-12-23T10:38:53Z</time>
      </trkpt>
      <trkpt lat="45.25864" lon="6.12751">
        <ele>2046</ele>
        <time>2021-12-23T10:38:54Z</time>
      </trkpt>
      <trkpt lat="45.25864" lon="6.12751">
        <ele>2046</ele>
        <time>2021-12-23T10:38:56Z</time>
      </trkpt>
      <trkpt lat="45.25865" lon="6.12752">
        <ele>2047</ele>
        <time>2021-12-23T10:38:57Z</time>
      </trkpt>
      <trkpt lat="45.25865" lon="6.12753">
        <ele>2048</ele>
        <time>2021-12-23T10:38:58Z</time>
      </trkpt>
      <trkpt lat="45.25865" lon="6.12753">
        <ele>2048</ele>
        <time>2021-12-23T10:38:59Z</time>
      </trkpt>
      <trkpt lat="45.25866" lon="6.12754">
        <ele>2048</ele>
        <time>2021-12-23T10:39:00Z</time>
      </trkpt>
      <trkpt lat="45.25866" lon="6.12755">
        <ele>2048</ele>
        <time>2021-12-23T10:39:01Z</time>
      </trkpt>
      <trkpt lat="45.25867" lon="6.12756">
        <ele>2048</ele>
        <time>2021-12-23T10:39:02Z</time>
      </trkpt>
      <trkpt lat="45.25867" lon="6.12757">
        <ele>2048</ele>
        <time>2021-12-23T10:39:03Z</time>
      </trkpt>
      <trkpt lat="45.25867" lon="6.12758">
        <ele>2048</ele>
        <time>2021-12-23T10:39:04Z</time>
      </trkpt>
      <trkpt lat="45.25868" lon="6.12758">
        <ele>2048</ele>
        <time>2021-12-23T10:39:05Z</time>
      </trkpt>
      <trkpt lat="45.25868" lon="6.12759">
        <ele>2048</ele>
        <time>2021-12-23T10:39:07Z</time>
      </trkpt>
      <trkpt lat="45.25868" lon="6.1276">
        <ele>2049</ele>
        <time>2021-12-23T10:39:08Z</time>
      </trkpt>
      <trkpt lat="45.25869" lon="6.12761">
        <ele>2049</ele>
        <time>2021-12-23T10:39:09Z</time>
      </trkpt>
      <trkpt lat="45.25869" lon="6.12762">
        <ele>2049</ele>
        <time>2021-12-23T10:39:10Z</time>
      </trkpt>
      <trkpt lat="45.25869" lon="6.12762">
        <ele>2049</ele>
        <time>2021-12-23T10:39:11Z</time>
      </trkpt>
      <trkpt lat="45.25869" lon="6.12762">
        <ele>2049</ele>
        <time>2021-12-23T10:39:12Z</time>
      </trkpt>
      <trkpt lat="45.25869" lon="6.12762">
        <ele>2049</ele>
        <time>2021-12-23T10:39:13Z</time>
      </trkpt>
      <trkpt lat="45.25869" lon="6.12762">
        <ele>2049</ele>
        <time>2021-12-23T10:39:14Z</time>
      </trkpt>
      <trkpt lat="45.25869" lon="6.12762">
        <ele>2049</ele>
        <time>2021-12-23T10:39:15Z</time>
      </trkpt>
      <trkpt lat="45.25869" lon="6.12762">
        <ele>2050</ele>
        <time>2021-12-23T10:39:16Z</time>
      </trkpt>
      <trkpt lat="45.25869" lon="6.12762">
        <ele>2050</ele>
        <time>2021-12-23T10:39:17Z</time>
      </trkpt>
      <trkpt lat="45.25869" lon="6.12762">
        <ele>2051</ele>
        <time>2021-12-23T10:39:18Z</time>
      </trkpt>
      <trkpt lat="45.25869" lon="6.12762">
        <ele>2051</ele>
        <time>2021-12-23T10:39:19Z</time>
      </trkpt>
      <trkpt lat="45.25869" lon="6.12762">
        <ele>2051</ele>
        <time>2021-12-23T10:39:20Z</time>
      </trkpt>
      <trkpt lat="45.25869" lon="6.12762">
        <ele>2051</ele>
        <time>2021-12-23T10:39:21Z</time>
      </trkpt>
      <trkpt lat="45.25869" lon="6.12762">
        <ele>2051</ele>
        <time>2021-12-23T10:39:22Z</time>
      </trkpt>
      <trkpt lat="45.25869" lon="6.12762">
        <ele>2051</ele>
        <time>2021-12-23T10:39:23Z</time>
      </trkpt>
      <trkpt lat="45.25869" lon="6.12762">
        <ele>2051</ele>
        <time>2021-12-23T10:39:24Z</time>
      </trkpt>
      <trkpt lat="45.25862" lon="6.12768">
        <ele>2051</ele>
        <time>2021-12-23T10:39:26Z</time>
      </trkpt>
      <trkpt lat="45.25861" lon="6.12769">
        <ele>2051</ele>
        <time>2021-12-23T10:39:27Z</time>
      </trkpt>
      <trkpt lat="45.25861" lon="6.12769">
        <ele>2052</ele>
        <time>2021-12-23T10:39:28Z</time>
      </trkpt>
      <trkpt lat="45.25861" lon="6.1277">
        <ele>2052</ele>
        <time>2021-12-23T10:39:29Z</time>
      </trkpt>
      <trkpt lat="45.2586" lon="6.12771">
        <ele>2052</ele>
        <time>2021-12-23T10:39:30Z</time>
      </trkpt>
      <trkpt lat="45.2586" lon="6.12771">
        <ele>2052</ele>
        <time>2021-12-23T10:39:31Z</time>
      </trkpt>
      <trkpt lat="45.2586" lon="6.12772">
        <ele>2052</ele>
        <time>2021-12-23T10:39:32Z</time>
      </trkpt>
      <trkpt lat="45.25859" lon="6.12772">
        <ele>2052</ele>
        <time>2021-12-23T10:39:33Z</time>
      </trkpt>
      <trkpt lat="45.25859" lon="6.12773">
        <ele>2052</ele>
        <time>2021-12-23T10:39:34Z</time>
      </trkpt>
      <trkpt lat="45.25858" lon="6.12773">
        <ele>2052</ele>
        <time>2021-12-23T10:39:35Z</time>
      </trkpt>
      <trkpt lat="45.25858" lon="6.12774">
        <ele>2053</ele>
        <time>2021-12-23T10:39:36Z</time>
      </trkpt>
      <trkpt lat="45.25858" lon="6.12775">
        <ele>2054</ele>
        <time>2021-12-23T10:39:37Z</time>
      </trkpt>
      <trkpt lat="45.25857" lon="6.12775">
        <ele>2054</ele>
        <time>2021-12-23T10:39:38Z</time>
      </trkpt>
      <trkpt lat="45.25857" lon="6.12776">
        <ele>2054</ele>
        <time>2021-12-23T10:39:39Z</time>
      </trkpt>
      <trkpt lat="45.25857" lon="6.12776">
        <ele>2054</ele>
        <time>2021-12-23T10:39:40Z</time>
      </trkpt>
      <trkpt lat="45.25856" lon="6.12777">
        <ele>2054</ele>
        <time>2021-12-23T10:39:41Z</time>
      </trkpt>
      <trkpt lat="45.25856" lon="6.12777">
        <ele>2054</ele>
        <time>2021-12-23T10:39:42Z</time>
      </trkpt>
      <trkpt lat="45.25856" lon="6.12778">
        <ele>2054</ele>
        <time>2021-12-23T10:39:43Z</time>
      </trkpt>
      <trkpt lat="45.25856" lon="6.1278">
        <ele>2055</ele>
        <time>2021-12-23T10:39:45Z</time>
      </trkpt>
      <trkpt lat="45.25855" lon="6.12781">
        <ele>2055</ele>
        <time>2021-12-23T10:39:46Z</time>
      </trkpt>
      <trkpt lat="45.25855" lon="6.12782">
        <ele>2055</ele>
        <time>2021-12-23T10:39:47Z</time>
      </trkpt>
      <trkpt lat="45.25855" lon="6.12783">
        <ele>2055</ele>
        <time>2021-12-23T10:39:48Z</time>
      </trkpt>
      <trkpt lat="45.25855" lon="6.12784">
        <ele>2055</ele>
        <time>2021-12-23T10:39:49Z</time>
      </trkpt>
      <trkpt lat="45.25855" lon="6.12785">
        <ele>2056</ele>
        <time>2021-12-23T10:39:50Z</time>
      </trkpt>
      <trkpt lat="45.25855" lon="6.12786">
        <ele>2056</ele>
        <time>2021-12-23T10:39:51Z</time>
      </trkpt>
      <trkpt lat="45.25855" lon="6.12788">
        <ele>2056</ele>
        <time>2021-12-23T10:39:52Z</time>
      </trkpt>
      <trkpt lat="45.25854" lon="6.12789">
        <ele>2056</ele>
        <time>2021-12-23T10:39:53Z</time>
      </trkpt>
      <trkpt lat="45.25854" lon="6.1279">
        <ele>2056</ele>
        <time>2021-12-23T10:39:54Z</time>
      </trkpt>
      <trkpt lat="45.25854" lon="6.1279">
        <ele>2056</ele>
        <time>2021-12-23T10:39:55Z</time>
      </trkpt>
      <trkpt lat="45.25854" lon="6.1279">
        <ele>2057</ele>
        <time>2021-12-23T10:39:56Z</time>
      </trkpt>
      <trkpt lat="45.25854" lon="6.1279">
        <ele>2057</ele>
        <time>2021-12-23T10:39:57Z</time>
      </trkpt>
      <trkpt lat="45.25854" lon="6.1279">
        <ele>2057</ele>
        <time>2021-12-23T10:39:58Z</time>
      </trkpt>
      <trkpt lat="45.25854" lon="6.1279">
        <ele>2057</ele>
        <time>2021-12-23T10:39:59Z</time>
      </trkpt>
      <trkpt lat="45.25854" lon="6.1279">
        <ele>2057</ele>
        <time>2021-12-23T10:40:00Z</time>
      </trkpt>
      <trkpt lat="45.25854" lon="6.1279">
        <ele>2057</ele>
        <time>2021-12-23T10:40:01Z</time>
      </trkpt>
      <trkpt lat="45.25854" lon="6.1279">
        <ele>2057</ele>
        <time>2021-12-23T10:40:02Z</time>
      </trkpt>
      <trkpt lat="45.25854" lon="6.1279">
        <ele>2058</ele>
        <time>2021-12-23T10:40:04Z</time>
      </trkpt>
      <trkpt lat="45.25854" lon="6.1279">
        <ele>2058</ele>
        <time>2021-12-23T10:40:05Z</time>
      </trkpt>
      <trkpt lat="45.2586" lon="6.12801">
        <ele>2059</ele>
        <time>2021-12-23T10:40:06Z</time>
      </trkpt>
      <trkpt lat="45.2586" lon="6.12801">
        <ele>2059</ele>
        <time>2021-12-23T10:40:08Z</time>
      </trkpt>
      <trkpt lat="45.2586" lon="6.12801">
        <ele>2059</ele>
        <time>2021-12-23T10:40:09Z</time>
      </trkpt>
      <trkpt lat="45.2586" lon="6.12801">
        <ele>2059</ele>
        <time>2021-12-23T10:40:10Z</time>
      </trkpt>
      <trkpt lat="45.2586" lon="6.12801">
        <ele>2059</ele>
        <time>2021-12-23T10:40:11Z</time>
      </trkpt>
      <trkpt lat="45.2586" lon="6.12801">
        <ele>2059</ele>
        <time>2021-12-23T10:40:12Z</time>
      </trkpt>
      <trkpt lat="45.2586" lon="6.12801">
        <ele>2059</ele>
        <time>2021-12-23T10:40:13Z</time>
      </trkpt>
      <trkpt lat="45.2586" lon="6.12801">
        <ele>2060</ele>
        <time>2021-12-23T10:40:14Z</time>
      </trkpt>
      <trkpt lat="45.2586" lon="6.12801">
        <ele>2060</ele>
        <time>2021-12-23T10:40:15Z</time>
      </trkpt>
      <trkpt lat="45.2586" lon="6.12801">
        <ele>2060</ele>
        <time>2021-12-23T10:40:16Z</time>
      </trkpt>
      <trkpt lat="45.2586" lon="6.12801">
        <ele>2061</ele>
        <time>2021-12-23T10:40:17Z</time>
      </trkpt>
      <trkpt lat="45.2586" lon="6.12801">
        <ele>2061</ele>
        <time>2021-12-23T10:40:18Z</time>
      </trkpt>
      <trkpt lat="45.2586" lon="6.12801">
        <ele>2061</ele>
        <time>2021-12-23T10:40:19Z</time>
      </trkpt>
      <trkpt lat="45.2586" lon="6.12801">
        <ele>2061</ele>
        <time>2021-12-23T10:40:20Z</time>
      </trkpt>
      <trkpt lat="45.2586" lon="6.12801">
        <ele>2061</ele>
        <time>2021-12-23T10:40:21Z</time>
      </trkpt>
      <trkpt lat="45.25858" lon="6.12814">
        <ele>2061</ele>
        <time>2021-12-23T10:40:23Z</time>
      </trkpt>
      <trkpt lat="45.25858" lon="6.12814">
        <ele>2061</ele>
        <time>2021-12-23T10:40:24Z</time>
      </trkpt>
      <trkpt lat="45.25858" lon="6.12815">
        <ele>2061</ele>
        <time>2021-12-23T10:40:25Z</time>
      </trkpt>
      <trkpt lat="45.25858" lon="6.12816">
        <ele>2062</ele>
        <time>2021-12-23T10:40:26Z</time>
      </trkpt>
      <trkpt lat="45.25857" lon="6.12817">
        <ele>2062</ele>
        <time>2021-12-23T10:40:27Z</time>
      </trkpt>
      <trkpt lat="45.25857" lon="6.12818">
        <ele>2062</ele>
        <time>2021-12-23T10:40:28Z</time>
      </trkpt>
      <trkpt lat="45.25857" lon="6.12819">
        <ele>2062</ele>
        <time>2021-12-23T10:40:29Z</time>
      </trkpt>
      <trkpt lat="45.25857" lon="6.12819">
        <ele>2063</ele>
        <time>2021-12-23T10:40:30Z</time>
      </trkpt>
      <trkpt lat="45.25857" lon="6.1282">
        <ele>2063</ele>
        <time>2021-12-23T10:40:31Z</time>
      </trkpt>
      <trkpt lat="45.25856" lon="6.12821">
        <ele>2063</ele>
        <time>2021-12-23T10:40:32Z</time>
      </trkpt>
      <trkpt lat="45.25856" lon="6.12822">
        <ele>2063</ele>
        <time>2021-12-23T10:40:33Z</time>
      </trkpt>
      <trkpt lat="45.25856" lon="6.12823">
        <ele>2063</ele>
        <time>2021-12-23T10:40:34Z</time>
      </trkpt>
      <trkpt lat="45.25856" lon="6.12823">
        <ele>2063</ele>
        <time>2021-12-23T10:40:35Z</time>
      </trkpt>
      <trkpt lat="45.25856" lon="6.12824">
        <ele>2063</ele>
        <time>2021-12-23T10:40:36Z</time>
      </trkpt>
      <trkpt lat="45.25856" lon="6.12825">
        <ele>2063</ele>
        <time>2021-12-23T10:40:37Z</time>
      </trkpt>
      <trkpt lat="45.25855" lon="6.12826">
        <ele>2063</ele>
        <time>2021-12-23T10:40:38Z</time>
      </trkpt>
      <trkpt lat="45.25855" lon="6.12826">
        <ele>2064</ele>
        <time>2021-12-23T10:40:39Z</time>
      </trkpt>
      <trkpt lat="45.25855" lon="6.12827">
        <ele>2064</ele>
        <time>2021-12-23T10:40:40Z</time>
      </trkpt>
      <trkpt lat="45.25854" lon="6.12827">
        <ele>2064</ele>
        <time>2021-12-23T10:40:42Z</time>
      </trkpt>
      <trkpt lat="45.25854" lon="6.12828">
        <ele>2064</ele>
        <time>2021-12-23T10:40:43Z</time>
      </trkpt>
      <trkpt lat="45.25853" lon="6.12828">
        <ele>2064</ele>
        <time>2021-12-23T10:40:44Z</time>
      </trkpt>
      <trkpt lat="45.25853" lon="6.12829">
        <ele>2064</ele>
        <time>2021-12-23T10:40:45Z</time>
      </trkpt>
      <trkpt lat="45.25853" lon="6.1283">
        <ele>2064</ele>
        <time>2021-12-23T10:40:46Z</time>
      </trkpt>
      <trkpt lat="45.25852" lon="6.1283">
        <ele>2064</ele>
        <time>2021-12-23T10:40:47Z</time>
      </trkpt>
      <trkpt lat="45.25852" lon="6.12831">
        <ele>2065</ele>
        <time>2021-12-23T10:40:48Z</time>
      </trkpt>
      <trkpt lat="45.25852" lon="6.12831">
        <ele>2065</ele>
        <time>2021-12-23T10:40:50Z</time>
      </trkpt>
      <trkpt lat="45.25851" lon="6.12832">
        <ele>2065</ele>
        <time>2021-12-23T10:40:51Z</time>
      </trkpt>
      <trkpt lat="45.25851" lon="6.12832">
        <ele>2065</ele>
        <time>2021-12-23T10:40:52Z</time>
      </trkpt>
      <trkpt lat="45.25851" lon="6.12833">
        <ele>2065</ele>
        <time>2021-12-23T10:40:53Z</time>
      </trkpt>
      <trkpt lat="45.2585" lon="6.12833">
        <ele>2067</ele>
        <time>2021-12-23T10:40:54Z</time>
      </trkpt>
      <trkpt lat="45.2585" lon="6.12834">
        <ele>2067</ele>
        <time>2021-12-23T10:40:55Z</time>
      </trkpt>
      <trkpt lat="45.25849" lon="6.12834">
        <ele>2067</ele>
        <time>2021-12-23T10:40:56Z</time>
      </trkpt>
      <trkpt lat="45.25849" lon="6.12835">
        <ele>2067</ele>
        <time>2021-12-23T10:40:57Z</time>
      </trkpt>
      <trkpt lat="45.25849" lon="6.12835">
        <ele>2067</ele>
        <time>2021-12-23T10:40:58Z</time>
      </trkpt>
      <trkpt lat="45.25848" lon="6.12836">
        <ele>2067</ele>
        <time>2021-12-23T10:40:59Z</time>
      </trkpt>
      <trkpt lat="45.25848" lon="6.12836">
        <ele>2068</ele>
        <time>2021-12-23T10:41:01Z</time>
      </trkpt>
      <trkpt lat="45.25847" lon="6.12836">
        <ele>2068</ele>
        <time>2021-12-23T10:41:02Z</time>
      </trkpt>
      <trkpt lat="45.25846" lon="6.12836">
        <ele>2068</ele>
        <time>2021-12-23T10:41:03Z</time>
      </trkpt>
      <trkpt lat="45.25845" lon="6.12836">
        <ele>2068</ele>
        <time>2021-12-23T10:41:04Z</time>
      </trkpt>
      <trkpt lat="45.25845" lon="6.12837">
        <ele>2068</ele>
        <time>2021-12-23T10:41:05Z</time>
      </trkpt>
      <trkpt lat="45.25844" lon="6.12837">
        <ele>2068</ele>
        <time>2021-12-23T10:41:06Z</time>
      </trkpt>
      <trkpt lat="45.25843" lon="6.12837">
        <ele>2069</ele>
        <time>2021-12-23T10:41:07Z</time>
      </trkpt>
      <trkpt lat="45.25842" lon="6.12837">
        <ele>2069</ele>
        <time>2021-12-23T10:41:08Z</time>
      </trkpt>
      <trkpt lat="45.25842" lon="6.12837">
        <ele>2070</ele>
        <time>2021-12-23T10:41:09Z</time>
      </trkpt>
      <trkpt lat="45.25841" lon="6.12837">
        <ele>2070</ele>
        <time>2021-12-23T10:41:10Z</time>
      </trkpt>
      <trkpt lat="45.2584" lon="6.12837">
        <ele>2070</ele>
        <time>2021-12-23T10:41:11Z</time>
      </trkpt>
      <trkpt lat="45.2584" lon="6.12838">
        <ele>2070</ele>
        <time>2021-12-23T10:41:12Z</time>
      </trkpt>
      <trkpt lat="45.25839" lon="6.12838">
        <ele>2070</ele>
        <time>2021-12-23T10:41:13Z</time>
      </trkpt>
      <trkpt lat="45.25839" lon="6.12838">
        <ele>2070</ele>
        <time>2021-12-23T10:41:14Z</time>
      </trkpt>
      <trkpt lat="45.25838" lon="6.12838">
        <ele>2070</ele>
        <time>2021-12-23T10:41:15Z</time>
      </trkpt>
      <trkpt lat="45.25838" lon="6.12838">
        <ele>2071</ele>
        <time>2021-12-23T10:41:16Z</time>
      </trkpt>
      <trkpt lat="45.25838" lon="6.12838">
        <ele>2071</ele>
        <time>2021-12-23T10:41:17Z</time>
      </trkpt>
      <trkpt lat="45.25837" lon="6.12838">
        <ele>2071</ele>
        <time>2021-12-23T10:41:18Z</time>
      </trkpt>
      <trkpt lat="45.25837" lon="6.12838">
        <ele>2071</ele>
        <time>2021-12-23T10:41:20Z</time>
      </trkpt>
      <trkpt lat="45.25837" lon="6.12838">
        <ele>2071</ele>
        <time>2021-12-23T10:41:21Z</time>
      </trkpt>
      <trkpt lat="45.25836" lon="6.12838">
        <ele>2071</ele>
        <time>2021-12-23T10:41:22Z</time>
      </trkpt>
      <trkpt lat="45.25836" lon="6.12838">
        <ele>2071</ele>
        <time>2021-12-23T10:41:23Z</time>
      </trkpt>
      <trkpt lat="45.25836" lon="6.12837">
        <ele>2072</ele>
        <time>2021-12-23T10:41:24Z</time>
      </trkpt>
      <trkpt lat="45.25835" lon="6.12837">
        <ele>2072</ele>
        <time>2021-12-23T10:41:25Z</time>
      </trkpt>
      <trkpt lat="45.25835" lon="6.12837">
        <ele>2072</ele>
        <time>2021-12-23T10:41:26Z</time>
      </trkpt>
      <trkpt lat="45.25835" lon="6.12837">
        <ele>2072</ele>
        <time>2021-12-23T10:41:27Z</time>
      </trkpt>
      <trkpt lat="45.25834" lon="6.12837">
        <ele>2072</ele>
        <time>2021-12-23T10:41:28Z</time>
      </trkpt>
      <trkpt lat="45.25834" lon="6.12837">
        <ele>2073</ele>
        <time>2021-12-23T10:41:29Z</time>
      </trkpt>
      <trkpt lat="45.25834" lon="6.12837">
        <ele>2073</ele>
        <time>2021-12-23T10:41:30Z</time>
      </trkpt>
      <trkpt lat="45.25833" lon="6.12837">
        <ele>2073</ele>
        <time>2021-12-23T10:41:31Z</time>
      </trkpt>
      <trkpt lat="45.25833" lon="6.12837">
        <ele>2074</ele>
        <time>2021-12-23T10:41:32Z</time>
      </trkpt>
      <trkpt lat="45.25833" lon="6.12837">
        <ele>2074</ele>
        <time>2021-12-23T10:41:33Z</time>
      </trkpt>
      <trkpt lat="45.25833" lon="6.12837">
        <ele>2074</ele>
        <time>2021-12-23T10:41:34Z</time>
      </trkpt>
      <trkpt lat="45.25832" lon="6.12837">
        <ele>2074</ele>
        <time>2021-12-23T10:41:35Z</time>
      </trkpt>
      <trkpt lat="45.25832" lon="6.12837">
        <ele>2074</ele>
        <time>2021-12-23T10:41:36Z</time>
      </trkpt>
      <trkpt lat="45.25832" lon="6.12837">
        <ele>2075</ele>
        <time>2021-12-23T10:41:37Z</time>
      </trkpt>
      <trkpt lat="45.25831" lon="6.12837">
        <ele>2075</ele>
        <time>2021-12-23T10:41:39Z</time>
      </trkpt>
      <trkpt lat="45.25831" lon="6.12837">
        <ele>2075</ele>
        <time>2021-12-23T10:41:40Z</time>
      </trkpt>
      <trkpt lat="45.25831" lon="6.12837">
        <ele>2075</ele>
        <time>2021-12-23T10:41:41Z</time>
      </trkpt>
      <trkpt lat="45.2583" lon="6.12837">
        <ele>2075</ele>
        <time>2021-12-23T10:41:42Z</time>
      </trkpt>
      <trkpt lat="45.2583" lon="6.12837">
        <ele>2075</ele>
        <time>2021-12-23T10:41:43Z</time>
      </trkpt>
      <trkpt lat="45.2583" lon="6.12837">
        <ele>2075</ele>
        <time>2021-12-23T10:41:44Z</time>
      </trkpt>
      <trkpt lat="45.2583" lon="6.12837">
        <ele>2076</ele>
        <time>2021-12-23T10:41:45Z</time>
      </trkpt>
      <trkpt lat="45.2583" lon="6.12837">
        <ele>2077</ele>
        <time>2021-12-23T10:41:46Z</time>
      </trkpt>
      <trkpt lat="45.25822" lon="6.12844">
        <ele>2077</ele>
        <time>2021-12-23T10:41:47Z</time>
      </trkpt>
      <trkpt lat="45.25822" lon="6.12844">
        <ele>2076</ele>
        <time>2021-12-23T10:41:49Z</time>
      </trkpt>
      <trkpt lat="45.25822" lon="6.12844">
        <ele>2076</ele>
        <time>2021-12-23T10:41:50Z</time>
      </trkpt>
      <trkpt lat="45.25822" lon="6.12844">
        <ele>2076</ele>
        <time>2021-12-23T10:41:51Z</time>
      </trkpt>
      <trkpt lat="45.25822" lon="6.12844">
        <ele>2076</ele>
        <time>2021-12-23T10:41:52Z</time>
      </trkpt>
      <trkpt lat="45.25822" lon="6.12844">
        <ele>2077</ele>
        <time>2021-12-23T10:41:53Z</time>
      </trkpt>
      <trkpt lat="45.25822" lon="6.12844">
        <ele>2077</ele>
        <time>2021-12-23T10:41:54Z</time>
      </trkpt>
      <trkpt lat="45.25822" lon="6.12844">
        <ele>2077</ele>
        <time>2021-12-23T10:41:55Z</time>
      </trkpt>
      <trkpt lat="45.25813" lon="6.12853">
        <ele>2078</ele>
        <time>2021-12-23T10:41:56Z</time>
      </trkpt>
      <trkpt lat="45.25813" lon="6.12853">
        <ele>2078</ele>
        <time>2021-12-23T10:41:58Z</time>
      </trkpt>
      <trkpt lat="45.25811" lon="6.12852">
        <ele>2078</ele>
        <time>2021-12-23T10:41:59Z</time>
      </trkpt>
      <trkpt lat="45.2581" lon="6.12851">
        <ele>2078</ele>
        <time>2021-12-23T10:42:00Z</time>
      </trkpt>
      <trkpt lat="45.25808" lon="6.12851">
        <ele>2078</ele>
        <time>2021-12-23T10:42:01Z</time>
      </trkpt>
      <trkpt lat="45.25807" lon="6.1285">
        <ele>2078</ele>
        <time>2021-12-23T10:42:02Z</time>
      </trkpt>
      <trkpt lat="45.25806" lon="6.12849">
        <ele>2078</ele>
        <time>2021-12-23T10:42:03Z</time>
      </trkpt>
      <trkpt lat="45.25804" lon="6.12848">
        <ele>2078</ele>
        <time>2021-12-23T10:42:04Z</time>
      </trkpt>
      <trkpt lat="45.25803" lon="6.12848">
        <ele>2078</ele>
        <time>2021-12-23T10:42:05Z</time>
      </trkpt>
      <trkpt lat="45.25804" lon="6.12848">
        <ele>2078</ele>
        <time>2021-12-23T10:42:06Z</time>
      </trkpt>
      <trkpt lat="45.25806" lon="6.12848">
        <ele>2078</ele>
        <time>2021-12-23T10:42:07Z</time>
      </trkpt>
      <trkpt lat="45.25808" lon="6.12849">
        <ele>2077</ele>
        <time>2021-12-23T10:42:08Z</time>
      </trkpt>
      <trkpt lat="45.25809" lon="6.12849">
        <ele>2077</ele>
        <time>2021-12-23T10:42:09Z</time>
      </trkpt>
      <trkpt lat="45.25811" lon="6.12849">
        <ele>2077</ele>
        <time>2021-12-23T10:42:11Z</time>
      </trkpt>
      <trkpt lat="45.25813" lon="6.1285">
        <ele>2077</ele>
        <time>2021-12-23T10:42:12Z</time>
      </trkpt>
      <trkpt lat="45.25813" lon="6.1285">
        <ele>2077</ele>
        <time>2021-12-23T10:42:13Z</time>
      </trkpt>
      <trkpt lat="45.25813" lon="6.1285">
        <ele>2077</ele>
        <time>2021-12-23T10:42:14Z</time>
      </trkpt>
      <trkpt lat="45.25813" lon="6.1285">
        <ele>2077</ele>
        <time>2021-12-23T10:42:15Z</time>
      </trkpt>
      <trkpt lat="45.25813" lon="6.1285">
        <ele>2077</ele>
        <time>2021-12-23T10:42:17Z</time>
      </trkpt>
      <trkpt lat="45.25813" lon="6.1285">
        <ele>2077</ele>
        <time>2021-12-23T10:42:18Z</time>
      </trkpt>
      <trkpt lat="45.25813" lon="6.1285">
        <ele>2076</ele>
        <time>2021-12-23T10:42:19Z</time>
      </trkpt>
      <trkpt lat="45.25813" lon="6.1285">
        <ele>2076</ele>
        <time>2021-12-23T10:42:20Z</time>
      </trkpt>
      <trkpt lat="45.25813" lon="6.1285">
        <ele>2076</ele>
        <time>2021-12-23T10:42:21Z</time>
      </trkpt>
      <trkpt lat="45.25813" lon="6.1285">
        <ele>2076</ele>
        <time>2021-12-23T10:42:22Z</time>
      </trkpt>
      <trkpt lat="45.25813" lon="6.1285">
        <ele>2077</ele>
        <time>2021-12-23T10:42:23Z</time>
      </trkpt>
      <trkpt lat="45.25813" lon="6.1285">
        <ele>2077</ele>
        <time>2021-12-23T10:42:24Z</time>
      </trkpt>
      <trkpt lat="45.25813" lon="6.1285">
        <ele>2077</ele>
        <time>2021-12-23T10:42:25Z</time>
      </trkpt>
      <trkpt lat="45.25813" lon="6.1285">
        <ele>2076</ele>
        <time>2021-12-23T10:42:26Z</time>
      </trkpt>
      <trkpt lat="45.25813" lon="6.1285">
        <ele>2076</ele>
        <time>2021-12-23T10:42:27Z</time>
      </trkpt>
      <trkpt lat="45.25824" lon="6.12842">
        <ele>2076</ele>
        <time>2021-12-23T10:42:28Z</time>
      </trkpt>
      <trkpt lat="45.25824" lon="6.12842">
        <ele>2075</ele>
        <time>2021-12-23T10:42:30Z</time>
      </trkpt>
      <trkpt lat="45.25824" lon="6.12842">
        <ele>2075</ele>
        <time>2021-12-23T10:42:31Z</time>
      </trkpt>
      <trkpt lat="45.25824" lon="6.12842">
        <ele>2075</ele>
        <time>2021-12-23T10:42:32Z</time>
      </trkpt>
      <trkpt lat="45.25824" lon="6.12842">
        <ele>2075</ele>
        <time>2021-12-23T10:42:33Z</time>
      </trkpt>
      <trkpt lat="45.25824" lon="6.12842">
        <ele>2075</ele>
        <time>2021-12-23T10:42:34Z</time>
      </trkpt>
      <trkpt lat="45.25824" lon="6.12842">
        <ele>2075</ele>
        <time>2021-12-23T10:42:36Z</time>
      </trkpt>
      <trkpt lat="45.25824" lon="6.12842">
        <ele>2075</ele>
        <time>2021-12-23T10:42:37Z</time>
      </trkpt>
      <trkpt lat="45.25824" lon="6.12842">
        <ele>2075</ele>
        <time>2021-12-23T10:42:38Z</time>
      </trkpt>
      <trkpt lat="45.25825" lon="6.12842">
        <ele>2075</ele>
        <time>2021-12-23T10:42:39Z</time>
      </trkpt>
      <trkpt lat="45.25825" lon="6.12843">
        <ele>2075</ele>
        <time>2021-12-23T10:42:40Z</time>
      </trkpt>
      <trkpt lat="45.25825" lon="6.12843">
        <ele>2075</ele>
        <time>2021-12-23T10:42:41Z</time>
      </trkpt>
      <trkpt lat="45.25825" lon="6.12843">
        <ele>2075</ele>
        <time>2021-12-23T10:42:42Z</time>
      </trkpt>
      <trkpt lat="45.25825" lon="6.12843">
        <ele>2075</ele>
        <time>2021-12-23T10:42:43Z</time>
      </trkpt>
      <trkpt lat="45.25825" lon="6.12843">
        <ele>2075</ele>
        <time>2021-12-23T10:42:44Z</time>
      </trkpt>
      <trkpt lat="45.25825" lon="6.12843">
        <ele>2074</ele>
        <time>2021-12-23T10:42:45Z</time>
      </trkpt>
      <trkpt lat="45.25825" lon="6.12843">
        <ele>2075</ele>
        <time>2021-12-23T10:42:46Z</time>
      </trkpt>
      <trkpt lat="45.25825" lon="6.12843">
        <ele>2075</ele>
        <time>2021-12-23T10:42:47Z</time>
      </trkpt>
      <trkpt lat="45.25825" lon="6.12843">
        <ele>2075</ele>
        <time>2021-12-23T10:42:48Z</time>
      </trkpt>
      <trkpt lat="45.25825" lon="6.12843">
        <ele>2075</ele>
        <time>2021-12-23T10:42:49Z</time>
      </trkpt>
      <trkpt lat="45.25825" lon="6.12844">
        <ele>2075</ele>
        <time>2021-12-23T10:42:50Z</time>
      </trkpt>
      <trkpt lat="45.25825" lon="6.12844">
        <ele>2075</ele>
        <time>2021-12-23T10:42:51Z</time>
      </trkpt>
      <trkpt lat="45.25826" lon="6.12844">
        <ele>2075</ele>
        <time>2021-12-23T10:42:52Z</time>
      </trkpt>
      <trkpt lat="45.25826" lon="6.12844">
        <ele>2075</ele>
        <time>2021-12-23T10:42:53Z</time>
      </trkpt>
      <trkpt lat="45.25826" lon="6.12844">
        <ele>2075</ele>
        <time>2021-12-23T10:42:55Z</time>
      </trkpt>
      <trkpt lat="45.25826" lon="6.12844">
        <ele>2075</ele>
        <time>2021-12-23T10:42:56Z</time>
      </trkpt>
      <trkpt lat="45.25826" lon="6.12844">
        <ele>2075</ele>
        <time>2021-12-23T10:42:57Z</time>
      </trkpt>
      <trkpt lat="45.25826" lon="6.12844">
        <ele>2075</ele>
        <time>2021-12-23T10:42:58Z</time>
      </trkpt>
      <trkpt lat="45.25826" lon="6.12844">
        <ele>2074</ele>
        <time>2021-12-23T10:42:59Z</time>
      </trkpt>
      <trkpt lat="45.25826" lon="6.12845">
        <ele>2074</ele>
        <time>2021-12-23T10:43:00Z</time>
      </trkpt>
      <trkpt lat="45.25826" lon="6.12845">
        <ele>2074</ele>
        <time>2021-12-23T10:43:01Z</time>
      </trkpt>
      <trkpt lat="45.25826" lon="6.12845">
        <ele>2074</ele>
        <time>2021-12-23T10:43:02Z</time>
      </trkpt>
      <trkpt lat="45.25826" lon="6.12845">
        <ele>2075</ele>
        <time>2021-12-23T10:43:03Z</time>
      </trkpt>
      <trkpt lat="45.25826" lon="6.12845">
        <ele>2075</ele>
        <time>2021-12-23T10:43:04Z</time>
      </trkpt>
      <trkpt lat="45.25827" lon="6.12845">
        <ele>2075</ele>
        <time>2021-12-23T10:43:05Z</time>
      </trkpt>
      <trkpt lat="45.25827" lon="6.12845">
        <ele>2075</ele>
        <time>2021-12-23T10:43:06Z</time>
      </trkpt>
      <trkpt lat="45.25827" lon="6.12845">
        <ele>2075</ele>
        <time>2021-12-23T10:43:07Z</time>
      </trkpt>
      <trkpt lat="45.25827" lon="6.12845">
        <ele>2075</ele>
        <time>2021-12-23T10:43:08Z</time>
      </trkpt>
      <trkpt lat="45.25827" lon="6.12845">
        <ele>2075</ele>
        <time>2021-12-23T10:43:09Z</time>
      </trkpt>
      <trkpt lat="45.25827" lon="6.12846">
        <ele>2075</ele>
        <time>2021-12-23T10:43:10Z</time>
      </trkpt>
      <trkpt lat="45.25827" lon="6.12846">
        <ele>2075</ele>
        <time>2021-12-23T10:43:11Z</time>
      </trkpt>
      <trkpt lat="45.25827" lon="6.12846">
        <ele>2075</ele>
        <time>2021-12-23T10:43:12Z</time>
      </trkpt>
      <trkpt lat="45.25827" lon="6.12846">
        <ele>2075</ele>
        <time>2021-12-23T10:43:14Z</time>
      </trkpt>
      <trkpt lat="45.25827" lon="6.12846">
        <ele>2075</ele>
        <time>2021-12-23T10:43:15Z</time>
      </trkpt>
      <trkpt lat="45.25827" lon="6.12846">
        <ele>2075</ele>
        <time>2021-12-23T10:43:16Z</time>
      </trkpt>
      <trkpt lat="45.25827" lon="6.12846">
        <ele>2075</ele>
        <time>2021-12-23T10:43:17Z</time>
      </trkpt>
      <trkpt lat="45.25828" lon="6.12846">
        <ele>2076</ele>
        <time>2021-12-23T10:43:18Z</time>
      </trkpt>
      <trkpt lat="45.25828" lon="6.12846">
        <ele>2076</ele>
        <time>2021-12-23T10:43:19Z</time>
      </trkpt>
      <trkpt lat="45.25828" lon="6.12846">
        <ele>2076</ele>
        <time>2021-12-23T10:43:20Z</time>
      </trkpt>
      <trkpt lat="45.25828" lon="6.12847">
        <ele>2076</ele>
        <time>2021-12-23T10:43:21Z</time>
      </trkpt>
      <trkpt lat="45.25828" lon="6.12847">
        <ele>2076</ele>
        <time>2021-12-23T10:43:22Z</time>
      </trkpt>
      <trkpt lat="45.25828" lon="6.12847">
        <ele>2076</ele>
        <time>2021-12-23T10:43:23Z</time>
      </trkpt>
      <trkpt lat="45.25828" lon="6.12847">
        <ele>2075</ele>
        <time>2021-12-23T10:43:24Z</time>
      </trkpt>
      <trkpt lat="45.25828" lon="6.12847">
        <ele>2075</ele>
        <time>2021-12-23T10:43:25Z</time>
      </trkpt>
      <trkpt lat="45.25828" lon="6.12847">
        <ele>2076</ele>
        <time>2021-12-23T10:43:26Z</time>
      </trkpt>
      <trkpt lat="45.25828" lon="6.12847">
        <ele>2076</ele>
        <time>2021-12-23T10:43:27Z</time>
      </trkpt>
      <trkpt lat="45.25828" lon="6.12847">
        <ele>2076</ele>
        <time>2021-12-23T10:43:28Z</time>
      </trkpt>
      <trkpt lat="45.25828" lon="6.12847">
        <ele>2075</ele>
        <time>2021-12-23T10:43:29Z</time>
      </trkpt>
      <trkpt lat="45.25829" lon="6.12847">
        <ele>2075</ele>
        <time>2021-12-23T10:43:30Z</time>
      </trkpt>
      <trkpt lat="45.25829" lon="6.12848">
        <ele>2074</ele>
        <time>2021-12-23T10:43:31Z</time>
      </trkpt>
      <trkpt lat="45.25829" lon="6.12848">
        <ele>2075</ele>
        <time>2021-12-23T10:43:33Z</time>
      </trkpt>
      <trkpt lat="45.25829" lon="6.12848">
        <ele>2075</ele>
        <time>2021-12-23T10:43:34Z</time>
      </trkpt>
      <trkpt lat="45.25829" lon="6.12848">
        <ele>2075</ele>
        <time>2021-12-23T10:43:35Z</time>
      </trkpt>
      <trkpt lat="45.25829" lon="6.12848">
        <ele>2076</ele>
        <time>2021-12-23T10:43:36Z</time>
      </trkpt>
      <trkpt lat="45.25829" lon="6.12848">
        <ele>2077</ele>
        <time>2021-12-23T10:43:37Z</time>
      </trkpt>
      <trkpt lat="45.25829" lon="6.12848">
        <ele>2077</ele>
        <time>2021-12-23T10:43:38Z</time>
      </trkpt>
      <trkpt lat="45.25829" lon="6.12848">
        <ele>2077</ele>
        <time>2021-12-23T10:43:39Z</time>
      </trkpt>
      <trkpt lat="45.25829" lon="6.12848">
        <ele>2077</ele>
        <time>2021-12-23T10:43:40Z</time>
      </trkpt>
      <trkpt lat="45.25829" lon="6.12848">
        <ele>2077</ele>
        <time>2021-12-23T10:43:41Z</time>
      </trkpt>
      <trkpt lat="45.25829" lon="6.12849">
        <ele>2077</ele>
        <time>2021-12-23T10:43:42Z</time>
      </trkpt>
      <trkpt lat="45.2583" lon="6.12849">
        <ele>2077</ele>
        <time>2021-12-23T10:43:43Z</time>
      </trkpt>
      <trkpt lat="45.2583" lon="6.12849">
        <ele>2077</ele>
        <time>2021-12-23T10:43:44Z</time>
      </trkpt>
      <trkpt lat="45.2583" lon="6.12849">
        <ele>2077</ele>
        <time>2021-12-23T10:43:45Z</time>
      </trkpt>
      <trkpt lat="45.2583" lon="6.12849">
        <ele>2077</ele>
        <time>2021-12-23T10:43:46Z</time>
      </trkpt>
      <trkpt lat="45.2583" lon="6.12849">
        <ele>2076</ele>
        <time>2021-12-23T10:43:47Z</time>
      </trkpt>
      <trkpt lat="45.2583" lon="6.12849">
        <ele>2077</ele>
        <time>2021-12-23T10:43:48Z</time>
      </trkpt>
      <trkpt lat="45.2583" lon="6.12849">
        <ele>2077</ele>
        <time>2021-12-23T10:43:49Z</time>
      </trkpt>
      <trkpt lat="45.2583" lon="6.12849">
        <ele>2077</ele>
        <time>2021-12-23T10:43:50Z</time>
      </trkpt>
      <trkpt lat="45.2583" lon="6.1285">
        <ele>2078</ele>
        <time>2021-12-23T10:43:52Z</time>
      </trkpt>
      <trkpt lat="45.2583" lon="6.1285">
        <ele>2079</ele>
        <time>2021-12-23T10:43:53Z</time>
      </trkpt>
      <trkpt lat="45.2583" lon="6.1285">
        <ele>2079</ele>
        <time>2021-12-23T10:43:54Z</time>
      </trkpt>
      <trkpt lat="45.2583" lon="6.1285">
        <ele>2079</ele>
        <time>2021-12-23T10:43:56Z</time>
      </trkpt>
      <trkpt lat="45.25831" lon="6.1285">
        <ele>2078</ele>
        <time>2021-12-23T10:43:57Z</time>
      </trkpt>
      <trkpt lat="45.25831" lon="6.1285">
        <ele>2078</ele>
        <time>2021-12-23T10:43:58Z</time>
      </trkpt>
      <trkpt lat="45.25831" lon="6.1285">
        <ele>2078</ele>
        <time>2021-12-23T10:43:59Z</time>
      </trkpt>
      <trkpt lat="45.25831" lon="6.1285">
        <ele>2078</ele>
        <time>2021-12-23T10:44:00Z</time>
      </trkpt>
      <trkpt lat="45.25831" lon="6.1285">
        <ele>2078</ele>
        <time>2021-12-23T10:44:01Z</time>
      </trkpt>
      <trkpt lat="45.25831" lon="6.1285">
        <ele>2078</ele>
        <time>2021-12-23T10:44:02Z</time>
      </trkpt>
      <trkpt lat="45.25831" lon="6.12851">
        <ele>2078</ele>
        <time>2021-12-23T10:44:03Z</time>
      </trkpt>
      <trkpt lat="45.25831" lon="6.12851">
        <ele>2077</ele>
        <time>2021-12-23T10:44:04Z</time>
      </trkpt>
      <trkpt lat="45.2583" lon="6.12851">
        <ele>2077</ele>
        <time>2021-12-23T10:44:05Z</time>
      </trkpt>
      <trkpt lat="45.2583" lon="6.12851">
        <ele>2077</ele>
        <time>2021-12-23T10:44:06Z</time>
      </trkpt>
      <trkpt lat="45.25829" lon="6.12851">
        <ele>2077</ele>
        <time>2021-12-23T10:44:07Z</time>
      </trkpt>
      <trkpt lat="45.25829" lon="6.12851">
        <ele>2077</ele>
        <time>2021-12-23T10:44:08Z</time>
      </trkpt>
      <trkpt lat="45.25828" lon="6.12851">
        <ele>2077</ele>
        <time>2021-12-23T10:44:09Z</time>
      </trkpt>
      <trkpt lat="45.25828" lon="6.12851">
        <ele>2076</ele>
        <time>2021-12-23T10:44:11Z</time>
      </trkpt>
      <trkpt lat="45.25828" lon="6.12851">
        <ele>2076</ele>
        <time>2021-12-23T10:44:12Z</time>
      </trkpt>
      <trkpt lat="45.25827" lon="6.12851">
        <ele>2076</ele>
        <time>2021-12-23T10:44:13Z</time>
      </trkpt>
      <trkpt lat="45.25827" lon="6.12851">
        <ele>2076</ele>
        <time>2021-12-23T10:44:14Z</time>
      </trkpt>
      <trkpt lat="45.25826" lon="6.12851">
        <ele>2076</ele>
        <time>2021-12-23T10:44:15Z</time>
      </trkpt>
      <trkpt lat="45.25826" lon="6.12851">
        <ele>2077</ele>
        <time>2021-12-23T10:44:16Z</time>
      </trkpt>
      <trkpt lat="45.25825" lon="6.12851">
        <ele>2077</ele>
        <time>2021-12-23T10:44:17Z</time>
      </trkpt>
      <trkpt lat="45.25825" lon="6.12851">
        <ele>2077</ele>
        <time>2021-12-23T10:44:18Z</time>
      </trkpt>
      <trkpt lat="45.25825" lon="6.12851">
        <ele>2077</ele>
        <time>2021-12-23T10:44:19Z</time>
      </trkpt>
      <trkpt lat="45.25824" lon="6.12851">
        <ele>2077</ele>
        <time>2021-12-23T10:44:20Z</time>
      </trkpt>
      <trkpt lat="45.25824" lon="6.12851">
        <ele>2076</ele>
        <time>2021-12-23T10:44:21Z</time>
      </trkpt>
      <trkpt lat="45.25823" lon="6.12851">
        <ele>2076</ele>
        <time>2021-12-23T10:44:22Z</time>
      </trkpt>
      <trkpt lat="45.25823" lon="6.12851">
        <ele>2076</ele>
        <time>2021-12-23T10:44:23Z</time>
      </trkpt>
      <trkpt lat="45.25822" lon="6.12851">
        <ele>2076</ele>
        <time>2021-12-23T10:44:24Z</time>
      </trkpt>
      <trkpt lat="45.25822" lon="6.12851">
        <ele>2077</ele>
        <time>2021-12-23T10:44:25Z</time>
      </trkpt>
      <trkpt lat="45.25822" lon="6.12851">
        <ele>2077</ele>
        <time>2021-12-23T10:44:26Z</time>
      </trkpt>
      <trkpt lat="45.25821" lon="6.12851">
        <ele>2077</ele>
        <time>2021-12-23T10:44:27Z</time>
      </trkpt>
      <trkpt lat="45.25821" lon="6.12852">
        <ele>2077</ele>
        <time>2021-12-23T10:44:28Z</time>
      </trkpt>
      <trkpt lat="45.25821" lon="6.12852">
        <ele>2078</ele>
        <time>2021-12-23T10:44:30Z</time>
      </trkpt>
      <trkpt lat="45.25821" lon="6.12852">
        <ele>2078</ele>
        <time>2021-12-23T10:44:31Z</time>
      </trkpt>
      <trkpt lat="45.25821" lon="6.12852">
        <ele>2078</ele>
        <time>2021-12-23T10:44:32Z</time>
      </trkpt>
      <trkpt lat="45.25821" lon="6.12852">
        <ele>2078</ele>
        <time>2021-12-23T10:44:33Z</time>
      </trkpt>
      <trkpt lat="45.25821" lon="6.12852">
        <ele>2078</ele>
        <time>2021-12-23T10:44:34Z</time>
      </trkpt>
      <trkpt lat="45.25822" lon="6.12852">
        <ele>2078</ele>
        <time>2021-12-23T10:44:35Z</time>
      </trkpt>
      <trkpt lat="45.25822" lon="6.12852">
        <ele>2078</ele>
        <time>2021-12-23T10:44:36Z</time>
      </trkpt>
      <trkpt lat="45.25822" lon="6.12852">
        <ele>2077</ele>
        <time>2021-12-23T10:44:37Z</time>
      </trkpt>
      <trkpt lat="45.25822" lon="6.12852">
        <ele>2077</ele>
        <time>2021-12-23T10:44:38Z</time>
      </trkpt>
      <trkpt lat="45.25822" lon="6.12852">
        <ele>2077</ele>
        <time>2021-12-23T10:44:39Z</time>
      </trkpt>
      <trkpt lat="45.25822" lon="6.12852">
        <ele>2078</ele>
        <time>2021-12-23T10:44:40Z</time>
      </trkpt>
      <trkpt lat="45.25822" lon="6.12852">
        <ele>2078</ele>
        <time>2021-12-23T10:44:41Z</time>
      </trkpt>
      <trkpt lat="45.25822" lon="6.12852">
        <ele>2078</ele>
        <time>2021-12-23T10:44:42Z</time>
      </trkpt>
      <trkpt lat="45.25823" lon="6.12852">
        <ele>2078</ele>
        <time>2021-12-23T10:44:43Z</time>
      </trkpt>
      <trkpt lat="45.25823" lon="6.12852">
        <ele>2078</ele>
        <time>2021-12-23T10:44:44Z</time>
      </trkpt>
      <trkpt lat="45.25823" lon="6.12852">
        <ele>2078</ele>
        <time>2021-12-23T10:44:45Z</time>
      </trkpt>
      <trkpt lat="45.25823" lon="6.12852">
        <ele>2078</ele>
        <time>2021-12-23T10:44:46Z</time>
      </trkpt>
      <trkpt lat="45.25823" lon="6.12852">
        <ele>2078</ele>
        <time>2021-12-23T10:44:47Z</time>
      </trkpt>
      <trkpt lat="45.25823" lon="6.12853">
        <ele>2078</ele>
        <time>2021-12-23T10:44:49Z</time>
      </trkpt>
      <trkpt lat="45.25823" lon="6.12853">
        <ele>2078</ele>
        <time>2021-12-23T10:44:50Z</time>
      </trkpt>
      <trkpt lat="45.25823" lon="6.12853">
        <ele>2078</ele>
        <time>2021-12-23T10:44:51Z</time>
      </trkpt>
      <trkpt lat="45.25824" lon="6.12853">
        <ele>2078</ele>
        <time>2021-12-23T10:44:52Z</time>
      </trkpt>
      <trkpt lat="45.25824" lon="6.12853">
        <ele>2078</ele>
        <time>2021-12-23T10:44:53Z</time>
      </trkpt>
      <trkpt lat="45.25824" lon="6.12853">
        <ele>2078</ele>
        <time>2021-12-23T10:44:54Z</time>
      </trkpt>
      <trkpt lat="45.25824" lon="6.12853">
        <ele>2078</ele>
        <time>2021-12-23T10:44:55Z</time>
      </trkpt>
      <trkpt lat="45.25824" lon="6.12853">
        <ele>2078</ele>
        <time>2021-12-23T10:44:56Z</time>
      </trkpt>
      <trkpt lat="45.25824" lon="6.12853">
        <ele>2078</ele>
        <time>2021-12-23T10:44:57Z</time>
      </trkpt>
      <trkpt lat="45.25824" lon="6.12853">
        <ele>2078</ele>
        <time>2021-12-23T10:44:58Z</time>
      </trkpt>
      <trkpt lat="45.25825" lon="6.12853">
        <ele>2078</ele>
        <time>2021-12-23T10:44:59Z</time>
      </trkpt>
      <trkpt lat="45.25825" lon="6.12853">
        <ele>2078</ele>
        <time>2021-12-23T10:45:00Z</time>
      </trkpt>
      <trkpt lat="45.25825" lon="6.12853">
        <ele>2078</ele>
        <time>2021-12-23T10:45:01Z</time>
      </trkpt>
      <trkpt lat="45.25825" lon="6.12853">
        <ele>2077</ele>
        <time>2021-12-23T10:45:02Z</time>
      </trkpt>
      <trkpt lat="45.25825" lon="6.12853">
        <ele>2077</ele>
        <time>2021-12-23T10:45:03Z</time>
      </trkpt>
      <trkpt lat="45.25825" lon="6.12853">
        <ele>2077</ele>
        <time>2021-12-23T10:45:04Z</time>
      </trkpt>
      <trkpt lat="45.25825" lon="6.12853">
        <ele>2077</ele>
        <time>2021-12-23T10:45:05Z</time>
      </trkpt>
      <trkpt lat="45.25825" lon="6.12853">
        <ele>2078</ele>
        <time>2021-12-23T10:45:06Z</time>
      </trkpt>
      <trkpt lat="45.25826" lon="6.12853">
        <ele>2079</ele>
        <time>2021-12-23T10:45:08Z</time>
      </trkpt>
      <trkpt lat="45.25826" lon="6.12854">
        <ele>2079</ele>
        <time>2021-12-23T10:45:09Z</time>
      </trkpt>
      <trkpt lat="45.25826" lon="6.12854">
        <ele>2079</ele>
        <time>2021-12-23T10:45:10Z</time>
      </trkpt>
      <trkpt lat="45.25826" lon="6.12854">
        <ele>2078</ele>
        <time>2021-12-23T10:45:11Z</time>
      </trkpt>
      <trkpt lat="45.25826" lon="6.12854">
        <ele>2078</ele>
        <time>2021-12-23T10:45:12Z</time>
      </trkpt>
      <trkpt lat="45.25826" lon="6.12854">
        <ele>2078</ele>
        <time>2021-12-23T10:45:13Z</time>
      </trkpt>
      <trkpt lat="45.25826" lon="6.12854">
        <ele>2079</ele>
        <time>2021-12-23T10:45:14Z</time>
      </trkpt>
      <trkpt lat="45.25827" lon="6.12854">
        <ele>2079</ele>
        <time>2021-12-23T10:45:15Z</time>
      </trkpt>
      <trkpt lat="45.25827" lon="6.12854">
        <ele>2079</ele>
        <time>2021-12-23T10:45:16Z</time>
      </trkpt>
      <trkpt lat="45.25827" lon="6.12854">
        <ele>2080</ele>
        <time>2021-12-23T10:45:17Z</time>
      </trkpt>
      <trkpt lat="45.25827" lon="6.12854">
        <ele>2080</ele>
        <time>2021-12-23T10:45:18Z</time>
      </trkpt>
      <trkpt lat="45.25827" lon="6.12854">
        <ele>2080</ele>
        <time>2021-12-23T10:45:19Z</time>
      </trkpt>
      <trkpt lat="45.25827" lon="6.12854">
        <ele>2080</ele>
        <time>2021-12-23T10:45:20Z</time>
      </trkpt>
      <trkpt lat="45.25827" lon="6.12854">
        <ele>2080</ele>
        <time>2021-12-23T10:45:21Z</time>
      </trkpt>
      <trkpt lat="45.25827" lon="6.12854">
        <ele>2080</ele>
        <time>2021-12-23T10:45:22Z</time>
      </trkpt>
      <trkpt lat="45.25828" lon="6.12854">
        <ele>2080</ele>
        <time>2021-12-23T10:45:23Z</time>
      </trkpt>
      <trkpt lat="45.25828" lon="6.12854">
        <ele>2081</ele>
        <time>2021-12-23T10:45:24Z</time>
      </trkpt>
      <trkpt lat="45.25828" lon="6.12854">
        <ele>2081</ele>
        <time>2021-12-23T10:45:25Z</time>
      </trkpt>
      <trkpt lat="45.25828" lon="6.12854">
        <ele>2081</ele>
        <time>2021-12-23T10:45:27Z</time>
      </trkpt>
      <trkpt lat="45.25828" lon="6.12854">
        <ele>2081</ele>
        <time>2021-12-23T10:45:28Z</time>
      </trkpt>
      <trkpt lat="45.25828" lon="6.12855">
        <ele>2081</ele>
        <time>2021-12-23T10:45:29Z</time>
      </trkpt>
      <trkpt lat="45.25828" lon="6.12855">
        <ele>2082</ele>
        <time>2021-12-23T10:45:30Z</time>
      </trkpt>
      <trkpt lat="45.25828" lon="6.12855">
        <ele>2082</ele>
        <time>2021-12-23T10:45:31Z</time>
      </trkpt>
      <trkpt lat="45.25829" lon="6.12856">
        <ele>2083</ele>
        <time>2021-12-23T10:45:32Z</time>
      </trkpt>
      <trkpt lat="45.2583" lon="6.12857">
        <ele>2083</ele>
        <time>2021-12-23T10:45:33Z</time>
      </trkpt>
      <trkpt lat="45.25831" lon="6.12858">
        <ele>2083</ele>
        <time>2021-12-23T10:45:34Z</time>
      </trkpt>
      <trkpt lat="45.25832" lon="6.12859">
        <ele>2083</ele>
        <time>2021-12-23T10:45:35Z</time>
      </trkpt>
      <trkpt lat="45.25833" lon="6.12859">
        <ele>2083</ele>
        <time>2021-12-23T10:45:36Z</time>
      </trkpt>
      <trkpt lat="45.25834" lon="6.1286">
        <ele>2083</ele>
        <time>2021-12-23T10:45:37Z</time>
      </trkpt>
      <trkpt lat="45.25835" lon="6.12861">
        <ele>2084</ele>
        <time>2021-12-23T10:45:38Z</time>
      </trkpt>
      <trkpt lat="45.25836" lon="6.12862">
        <ele>2084</ele>
        <time>2021-12-23T10:45:39Z</time>
      </trkpt>
      <trkpt lat="45.25836" lon="6.12863">
        <ele>2084</ele>
        <time>2021-12-23T10:45:40Z</time>
      </trkpt>
      <trkpt lat="45.25836" lon="6.12864">
        <ele>2084</ele>
        <time>2021-12-23T10:45:41Z</time>
      </trkpt>
      <trkpt lat="45.25836" lon="6.12864">
        <ele>2084</ele>
        <time>2021-12-23T10:45:42Z</time>
      </trkpt>
      <trkpt lat="45.25835" lon="6.12864">
        <ele>2084</ele>
        <time>2021-12-23T10:45:43Z</time>
      </trkpt>
      <trkpt lat="45.25835" lon="6.12864">
        <ele>2084</ele>
        <time>2021-12-23T10:45:44Z</time>
      </trkpt>
      <trkpt lat="45.25835" lon="6.12865">
        <ele>2084</ele>
        <time>2021-12-23T10:45:46Z</time>
      </trkpt>
      <trkpt lat="45.25834" lon="6.12865">
        <ele>2084</ele>
        <time>2021-12-23T10:45:47Z</time>
      </trkpt>
      <trkpt lat="45.25834" lon="6.12865">
        <ele>2084</ele>
        <time>2021-12-23T10:45:48Z</time>
      </trkpt>
      <trkpt lat="45.25834" lon="6.12866">
        <ele>2084</ele>
        <time>2021-12-23T10:45:49Z</time>
      </trkpt>
      <trkpt lat="45.25833" lon="6.12866">
        <ele>2085</ele>
        <time>2021-12-23T10:45:50Z</time>
      </trkpt>
      <trkpt lat="45.25833" lon="6.12866">
        <ele>2085</ele>
        <time>2021-12-23T10:45:51Z</time>
      </trkpt>
      <trkpt lat="45.25833" lon="6.12866">
        <ele>2085</ele>
        <time>2021-12-23T10:45:52Z</time>
      </trkpt>
      <trkpt lat="45.25832" lon="6.12867">
        <ele>2086</ele>
        <time>2021-12-23T10:45:53Z</time>
      </trkpt>
      <trkpt lat="45.25832" lon="6.12867">
        <ele>2086</ele>
        <time>2021-12-23T10:45:54Z</time>
      </trkpt>
      <trkpt lat="45.25832" lon="6.12867">
        <ele>2086</ele>
        <time>2021-12-23T10:45:55Z</time>
      </trkpt>
      <trkpt lat="45.25831" lon="6.12868">
        <ele>2086</ele>
        <time>2021-12-23T10:45:56Z</time>
      </trkpt>
      <trkpt lat="45.25831" lon="6.12868">
        <ele>2086</ele>
        <time>2021-12-23T10:45:57Z</time>
      </trkpt>
      <trkpt lat="45.25831" lon="6.12868">
        <ele>2086</ele>
        <time>2021-12-23T10:45:58Z</time>
      </trkpt>
      <trkpt lat="45.2583" lon="6.12868">
        <ele>2087</ele>
        <time>2021-12-23T10:45:59Z</time>
      </trkpt>
      <trkpt lat="45.2583" lon="6.12869">
        <ele>2087</ele>
        <time>2021-12-23T10:46:00Z</time>
      </trkpt>
      <trkpt lat="45.2583" lon="6.12869">
        <ele>2087</ele>
        <time>2021-12-23T10:46:01Z</time>
      </trkpt>
      <trkpt lat="45.25829" lon="6.12869">
        <ele>2087</ele>
        <time>2021-12-23T10:46:02Z</time>
      </trkpt>
      <trkpt lat="45.25829" lon="6.12869">
        <ele>2087</ele>
        <time>2021-12-23T10:46:03Z</time>
      </trkpt>
      <trkpt lat="45.25829" lon="6.1287">
        <ele>2088</ele>
        <time>2021-12-23T10:46:05Z</time>
      </trkpt>
      <trkpt lat="45.25828" lon="6.1287">
        <ele>2088</ele>
        <time>2021-12-23T10:46:06Z</time>
      </trkpt>
      <trkpt lat="45.25828" lon="6.1287">
        <ele>2088</ele>
        <time>2021-12-23T10:46:07Z</time>
      </trkpt>
      <trkpt lat="45.25828" lon="6.1287">
        <ele>2088</ele>
        <time>2021-12-23T10:46:08Z</time>
      </trkpt>
      <trkpt lat="45.25828" lon="6.1287">
        <ele>2089</ele>
        <time>2021-12-23T10:46:09Z</time>
      </trkpt>
      <trkpt lat="45.25828" lon="6.1287">
        <ele>2089</ele>
        <time>2021-12-23T10:46:10Z</time>
      </trkpt>
      <trkpt lat="45.25828" lon="6.1287">
        <ele>2089</ele>
        <time>2021-12-23T10:46:11Z</time>
      </trkpt>
      <trkpt lat="45.25828" lon="6.1287">
        <ele>2089</ele>
        <time>2021-12-23T10:46:12Z</time>
      </trkpt>
      <trkpt lat="45.25828" lon="6.1287">
        <ele>2089</ele>
        <time>2021-12-23T10:46:13Z</time>
      </trkpt>
      <trkpt lat="45.25828" lon="6.1287">
        <ele>2089</ele>
        <time>2021-12-23T10:46:14Z</time>
      </trkpt>
      <trkpt lat="45.25828" lon="6.1287">
        <ele>2090</ele>
        <time>2021-12-23T10:46:15Z</time>
      </trkpt>
      <trkpt lat="45.25828" lon="6.1287">
        <ele>2090</ele>
        <time>2021-12-23T10:46:16Z</time>
      </trkpt>
      <trkpt lat="45.25828" lon="6.1287">
        <ele>2091</ele>
        <time>2021-12-23T10:46:17Z</time>
      </trkpt>
      <trkpt lat="45.25828" lon="6.1287">
        <ele>2091</ele>
        <time>2021-12-23T10:46:18Z</time>
      </trkpt>
      <trkpt lat="45.25828" lon="6.1287">
        <ele>2091</ele>
        <time>2021-12-23T10:46:19Z</time>
      </trkpt>
      <trkpt lat="45.25828" lon="6.1287">
        <ele>2091</ele>
        <time>2021-12-23T10:46:20Z</time>
      </trkpt>
      <trkpt lat="45.25828" lon="6.1287">
        <ele>2091</ele>
        <time>2021-12-23T10:46:21Z</time>
      </trkpt>
      <trkpt lat="45.25826" lon="6.12882">
        <ele>2091</ele>
        <time>2021-12-23T10:46:22Z</time>
      </trkpt>
      <trkpt lat="45.25826" lon="6.12882">
        <ele>2091</ele>
        <time>2021-12-23T10:46:24Z</time>
      </trkpt>
      <trkpt lat="45.25826" lon="6.12883">
        <ele>2091</ele>
        <time>2021-12-23T10:46:25Z</time>
      </trkpt>
      <trkpt lat="45.25827" lon="6.12884">
        <ele>2092</ele>
        <time>2021-12-23T10:46:26Z</time>
      </trkpt>
      <trkpt lat="45.25827" lon="6.12885">
        <ele>2093</ele>
        <time>2021-12-23T10:46:27Z</time>
      </trkpt>
      <trkpt lat="45.25827" lon="6.12885">
        <ele>2093</ele>
        <time>2021-12-23T10:46:28Z</time>
      </trkpt>
      <trkpt lat="45.25827" lon="6.12886">
        <ele>2093</ele>
        <time>2021-12-23T10:46:29Z</time>
      </trkpt>
      <trkpt lat="45.25827" lon="6.12887">
        <ele>2093</ele>
        <time>2021-12-23T10:46:30Z</time>
      </trkpt>
      <trkpt lat="45.25828" lon="6.12888">
        <ele>2093</ele>
        <time>2021-12-23T10:46:31Z</time>
      </trkpt>
      <trkpt lat="45.25828" lon="6.12889">
        <ele>2093</ele>
        <time>2021-12-23T10:46:32Z</time>
      </trkpt>
      <trkpt lat="45.25828" lon="6.1289">
        <ele>2093</ele>
        <time>2021-12-23T10:46:33Z</time>
      </trkpt>
      <trkpt lat="45.25828" lon="6.1289">
        <ele>2093</ele>
        <time>2021-12-23T10:46:34Z</time>
      </trkpt>
      <trkpt lat="45.25828" lon="6.12891">
        <ele>2093</ele>
        <time>2021-12-23T10:46:35Z</time>
      </trkpt>
      <trkpt lat="45.25828" lon="6.12892">
        <ele>2094</ele>
        <time>2021-12-23T10:46:36Z</time>
      </trkpt>
      <trkpt lat="45.25829" lon="6.12893">
        <ele>2094</ele>
        <time>2021-12-23T10:46:37Z</time>
      </trkpt>
      <trkpt lat="45.25829" lon="6.12894">
        <ele>2095</ele>
        <time>2021-12-23T10:46:38Z</time>
      </trkpt>
      <trkpt lat="45.2583" lon="6.12894">
        <ele>2095</ele>
        <time>2021-12-23T10:46:39Z</time>
      </trkpt>
      <trkpt lat="45.2583" lon="6.12895">
        <ele>2095</ele>
        <time>2021-12-23T10:46:40Z</time>
      </trkpt>
      <trkpt lat="45.25831" lon="6.12895">
        <ele>2095</ele>
        <time>2021-12-23T10:46:41Z</time>
      </trkpt>
      <trkpt lat="45.25831" lon="6.12895">
        <ele>2095</ele>
        <time>2021-12-23T10:46:43Z</time>
      </trkpt>
      <trkpt lat="45.25832" lon="6.12896">
        <ele>2095</ele>
        <time>2021-12-23T10:46:44Z</time>
      </trkpt>
      <trkpt lat="45.25833" lon="6.12896">
        <ele>2095</ele>
        <time>2021-12-23T10:46:45Z</time>
      </trkpt>
      <trkpt lat="45.25833" lon="6.12897">
        <ele>2097</ele>
        <time>2021-12-23T10:46:46Z</time>
      </trkpt>
      <trkpt lat="45.25834" lon="6.12897">
        <ele>2097</ele>
        <time>2021-12-23T10:46:47Z</time>
      </trkpt>
      <trkpt lat="45.25835" lon="6.12898">
        <ele>2097</ele>
        <time>2021-12-23T10:46:48Z</time>
      </trkpt>
      <trkpt lat="45.25835" lon="6.12898">
        <ele>2097</ele>
        <time>2021-12-23T10:46:49Z</time>
      </trkpt>
      <trkpt lat="45.25836" lon="6.12898">
        <ele>2098</ele>
        <time>2021-12-23T10:46:50Z</time>
      </trkpt>
      <trkpt lat="45.25837" lon="6.12899">
        <ele>2098</ele>
        <time>2021-12-23T10:46:51Z</time>
      </trkpt>
      <trkpt lat="45.25837" lon="6.12899">
        <ele>2098</ele>
        <time>2021-12-23T10:46:52Z</time>
      </trkpt>
      <trkpt lat="45.25838" lon="6.129">
        <ele>2098</ele>
        <time>2021-12-23T10:46:53Z</time>
      </trkpt>
      <trkpt lat="45.25839" lon="6.129">
        <ele>2098</ele>
        <time>2021-12-23T10:46:54Z</time>
      </trkpt>
      <trkpt lat="45.25839" lon="6.12901">
        <ele>2098</ele>
        <time>2021-12-23T10:46:55Z</time>
      </trkpt>
      <trkpt lat="45.25839" lon="6.12901">
        <ele>2098</ele>
        <time>2021-12-23T10:46:56Z</time>
      </trkpt>
      <trkpt lat="45.25838" lon="6.12901">
        <ele>2098</ele>
        <time>2021-12-23T10:46:57Z</time>
      </trkpt>
      <trkpt lat="45.25838" lon="6.12902">
        <ele>2099</ele>
        <time>2021-12-23T10:46:58Z</time>
      </trkpt>
      <trkpt lat="45.25838" lon="6.12902">
        <ele>2099</ele>
        <time>2021-12-23T10:46:59Z</time>
      </trkpt>
      <trkpt lat="45.25838" lon="6.12903">
        <ele>2099</ele>
        <time>2021-12-23T10:47:00Z</time>
      </trkpt>
      <trkpt lat="45.25838" lon="6.12903">
        <ele>2099</ele>
        <time>2021-12-23T10:47:02Z</time>
      </trkpt>
      <trkpt lat="45.25838" lon="6.12904">
        <ele>2099</ele>
        <time>2021-12-23T10:47:03Z</time>
      </trkpt>
      <trkpt lat="45.25838" lon="6.12904">
        <ele>2099</ele>
        <time>2021-12-23T10:47:04Z</time>
      </trkpt>
      <trkpt lat="45.25838" lon="6.12904">
        <ele>2099</ele>
        <time>2021-12-23T10:47:05Z</time>
      </trkpt>
      <trkpt lat="45.25838" lon="6.12905">
        <ele>2099</ele>
        <time>2021-12-23T10:47:06Z</time>
      </trkpt>
      <trkpt lat="45.25837" lon="6.12905">
        <ele>2099</ele>
        <time>2021-12-23T10:47:07Z</time>
      </trkpt>
      <trkpt lat="45.25837" lon="6.12906">
        <ele>2100</ele>
        <time>2021-12-23T10:47:08Z</time>
      </trkpt>
      <trkpt lat="45.25837" lon="6.12906">
        <ele>2100</ele>
        <time>2021-12-23T10:47:09Z</time>
      </trkpt>
      <trkpt lat="45.25837" lon="6.12907">
        <ele>2100</ele>
        <time>2021-12-23T10:47:10Z</time>
      </trkpt>
      <trkpt lat="45.25837" lon="6.12907">
        <ele>2100</ele>
        <time>2021-12-23T10:47:11Z</time>
      </trkpt>
      <trkpt lat="45.25837" lon="6.12908">
        <ele>2101</ele>
        <time>2021-12-23T10:47:12Z</time>
      </trkpt>
      <trkpt lat="45.25837" lon="6.12908">
        <ele>2101</ele>
        <time>2021-12-23T10:47:13Z</time>
      </trkpt>
      <trkpt lat="45.25837" lon="6.12908">
        <ele>2101</ele>
        <time>2021-12-23T10:47:14Z</time>
      </trkpt>
      <trkpt lat="45.25837" lon="6.12909">
        <ele>2101</ele>
        <time>2021-12-23T10:47:15Z</time>
      </trkpt>
      <trkpt lat="45.25836" lon="6.12909">
        <ele>2101</ele>
        <time>2021-12-23T10:47:16Z</time>
      </trkpt>
      <trkpt lat="45.25836" lon="6.1291">
        <ele>2101</ele>
        <time>2021-12-23T10:47:17Z</time>
      </trkpt>
      <trkpt lat="45.25836" lon="6.1291">
        <ele>2101</ele>
        <time>2021-12-23T10:47:18Z</time>
      </trkpt>
      <trkpt lat="45.25836" lon="6.12911">
        <ele>2101</ele>
        <time>2021-12-23T10:47:19Z</time>
      </trkpt>
      <trkpt lat="45.25836" lon="6.12911">
        <ele>2102</ele>
        <time>2021-12-23T10:47:21Z</time>
      </trkpt>
      <trkpt lat="45.25836" lon="6.12912">
        <ele>2102</ele>
        <time>2021-12-23T10:47:22Z</time>
      </trkpt>
      <trkpt lat="45.25835" lon="6.12911">
        <ele>2102</ele>
        <time>2021-12-23T10:47:23Z</time>
      </trkpt>
      <trkpt lat="45.25835" lon="6.12911">
        <ele>2103</ele>
        <time>2021-12-23T10:47:24Z</time>
      </trkpt>
      <trkpt lat="45.25834" lon="6.12911">
        <ele>2103</ele>
        <time>2021-12-23T10:47:25Z</time>
      </trkpt>
      <trkpt lat="45.25834" lon="6.12911">
        <ele>2103</ele>
        <time>2021-12-23T10:47:26Z</time>
      </trkpt>
      <trkpt lat="45.25833" lon="6.12911">
        <ele>2103</ele>
        <time>2021-12-23T10:47:27Z</time>
      </trkpt>
      <trkpt lat="45.25833" lon="6.12911">
        <ele>2103</ele>
        <time>2021-12-23T10:47:28Z</time>
      </trkpt>
      <trkpt lat="45.25832" lon="6.12911">
        <ele>2103</ele>
        <time>2021-12-23T10:47:29Z</time>
      </trkpt>
      <trkpt lat="45.25832" lon="6.12911">
        <ele>2103</ele>
        <time>2021-12-23T10:47:30Z</time>
      </trkpt>
      <trkpt lat="45.25831" lon="6.12911">
        <ele>2103</ele>
        <time>2021-12-23T10:47:31Z</time>
      </trkpt>
      <trkpt lat="45.25831" lon="6.12911">
        <ele>2103</ele>
        <time>2021-12-23T10:47:32Z</time>
      </trkpt>
      <trkpt lat="45.2583" lon="6.12911">
        <ele>2104</ele>
        <time>2021-12-23T10:47:33Z</time>
      </trkpt>
      <trkpt lat="45.2583" lon="6.12911">
        <ele>2104</ele>
        <time>2021-12-23T10:47:34Z</time>
      </trkpt>
      <trkpt lat="45.25829" lon="6.12911">
        <ele>2104</ele>
        <time>2021-12-23T10:47:35Z</time>
      </trkpt>
      <trkpt lat="45.25829" lon="6.12911">
        <ele>2104</ele>
        <time>2021-12-23T10:47:36Z</time>
      </trkpt>
      <trkpt lat="45.25828" lon="6.12911">
        <ele>2104</ele>
        <time>2021-12-23T10:47:37Z</time>
      </trkpt>
      <trkpt lat="45.25828" lon="6.12911">
        <ele>2104</ele>
        <time>2021-12-23T10:47:38Z</time>
      </trkpt>
      <trkpt lat="45.25827" lon="6.12911">
        <ele>2104</ele>
        <time>2021-12-23T10:47:39Z</time>
      </trkpt>
      <trkpt lat="45.25827" lon="6.12911">
        <ele>2105</ele>
        <time>2021-12-23T10:47:40Z</time>
      </trkpt>
      <trkpt lat="45.25826" lon="6.12911">
        <ele>2105</ele>
        <time>2021-12-23T10:47:41Z</time>
      </trkpt>
      <trkpt lat="45.25825" lon="6.12911">
        <ele>2105</ele>
        <time>2021-12-23T10:47:42Z</time>
      </trkpt>
      <trkpt lat="45.25824" lon="6.12911">
        <ele>2105</ele>
        <time>2021-12-23T10:47:43Z</time>
      </trkpt>
      <trkpt lat="45.25824" lon="6.12911">
        <ele>2106</ele>
        <time>2021-12-23T10:47:44Z</time>
      </trkpt>
      <trkpt lat="45.25823" lon="6.12911">
        <ele>2107</ele>
        <time>2021-12-23T10:47:45Z</time>
      </trkpt>
      <trkpt lat="45.25822" lon="6.12911">
        <ele>2107</ele>
        <time>2021-12-23T10:47:46Z</time>
      </trkpt>
      <trkpt lat="45.25821" lon="6.12911">
        <ele>2107</ele>
        <time>2021-12-23T10:47:47Z</time>
      </trkpt>
      <trkpt lat="45.25821" lon="6.12911">
        <ele>2107</ele>
        <time>2021-12-23T10:47:48Z</time>
      </trkpt>
      <trkpt lat="45.2582" lon="6.12911">
        <ele>2107</ele>
        <time>2021-12-23T10:47:49Z</time>
      </trkpt>
      <trkpt lat="45.25819" lon="6.12911">
        <ele>2108</ele>
        <time>2021-12-23T10:47:50Z</time>
      </trkpt>
      <trkpt lat="45.25818" lon="6.12911">
        <ele>2108</ele>
        <time>2021-12-23T10:47:51Z</time>
      </trkpt>
      <trkpt lat="45.25818" lon="6.12911">
        <ele>2108</ele>
        <time>2021-12-23T10:47:52Z</time>
      </trkpt>
      <trkpt lat="45.25817" lon="6.12911">
        <ele>2108</ele>
        <time>2021-12-23T10:47:53Z</time>
      </trkpt>
      <trkpt lat="45.25816" lon="6.12911">
        <ele>2108</ele>
        <time>2021-12-23T10:47:54Z</time>
      </trkpt>
      <trkpt lat="45.25815" lon="6.12911">
        <ele>2108</ele>
        <time>2021-12-23T10:47:55Z</time>
      </trkpt>
      <trkpt lat="45.25814" lon="6.1291">
        <ele>2108</ele>
        <time>2021-12-23T10:47:56Z</time>
      </trkpt>
      <trkpt lat="45.25813" lon="6.1291">
        <ele>2108</ele>
        <time>2021-12-23T10:47:57Z</time>
      </trkpt>
      <trkpt lat="45.25812" lon="6.1291">
        <ele>2109</ele>
        <time>2021-12-23T10:47:59Z</time>
      </trkpt>
      <trkpt lat="45.25812" lon="6.1291">
        <ele>2109</ele>
        <time>2021-12-23T10:48:00Z</time>
      </trkpt>
      <trkpt lat="45.25811" lon="6.12909">
        <ele>2109</ele>
        <time>2021-12-23T10:48:01Z</time>
      </trkpt>
      <trkpt lat="45.2581" lon="6.12909">
        <ele>2109</ele>
        <time>2021-12-23T10:48:02Z</time>
      </trkpt>
      <trkpt lat="45.25809" lon="6.12909">
        <ele>2109</ele>
        <time>2021-12-23T10:48:03Z</time>
      </trkpt>
      <trkpt lat="45.25808" lon="6.12909">
        <ele>2109</ele>
        <time>2021-12-23T10:48:04Z</time>
      </trkpt>
      <trkpt lat="45.25808" lon="6.12909">
        <ele>2109</ele>
        <time>2021-12-23T10:48:05Z</time>
      </trkpt>
      <trkpt lat="45.25808" lon="6.12909">
        <ele>2109</ele>
        <time>2021-12-23T10:48:06Z</time>
      </trkpt>
      <trkpt lat="45.25808" lon="6.12909">
        <ele>2109</ele>
        <time>2021-12-23T10:48:07Z</time>
      </trkpt>
      <trkpt lat="45.25808" lon="6.12909">
        <ele>2109</ele>
        <time>2021-12-23T10:48:08Z</time>
      </trkpt>
      <trkpt lat="45.25808" lon="6.12909">
        <ele>2109</ele>
        <time>2021-12-23T10:48:09Z</time>
      </trkpt>
      <trkpt lat="45.25808" lon="6.12909">
        <ele>2110</ele>
        <time>2021-12-23T10:48:10Z</time>
      </trkpt>
      <trkpt lat="45.25808" lon="6.12909">
        <ele>2110</ele>
        <time>2021-12-23T10:48:11Z</time>
      </trkpt>
      <trkpt lat="45.25808" lon="6.12909">
        <ele>2111</ele>
        <time>2021-12-23T10:48:12Z</time>
      </trkpt>
      <trkpt lat="45.25808" lon="6.12909">
        <ele>2111</ele>
        <time>2021-12-23T10:48:13Z</time>
      </trkpt>
      <trkpt lat="45.25808" lon="6.12909">
        <ele>2111</ele>
        <time>2021-12-23T10:48:14Z</time>
      </trkpt>
      <trkpt lat="45.25808" lon="6.12909">
        <ele>2111</ele>
        <time>2021-12-23T10:48:15Z</time>
      </trkpt>
      <trkpt lat="45.25808" lon="6.12909">
        <ele>2112</ele>
        <time>2021-12-23T10:48:16Z</time>
      </trkpt>
      <trkpt lat="45.25799" lon="6.12909">
        <ele>2112</ele>
        <time>2021-12-23T10:48:18Z</time>
      </trkpt>
      <trkpt lat="45.25799" lon="6.12909">
        <ele>2112</ele>
        <time>2021-12-23T10:48:20Z</time>
      </trkpt>
      <trkpt lat="45.25799" lon="6.12909">
        <ele>2112</ele>
        <time>2021-12-23T10:48:21Z</time>
      </trkpt>
      <trkpt lat="45.25799" lon="6.12909">
        <ele>2112</ele>
        <time>2021-12-23T10:48:22Z</time>
      </trkpt>
      <trkpt lat="45.25799" lon="6.12909">
        <ele>2113</ele>
        <time>2021-12-23T10:48:23Z</time>
      </trkpt>
      <trkpt lat="45.25799" lon="6.12909">
        <ele>2113</ele>
        <time>2021-12-23T10:48:24Z</time>
      </trkpt>
      <trkpt lat="45.25799" lon="6.12909">
        <ele>2113</ele>
        <time>2021-12-23T10:48:25Z</time>
      </trkpt>
      <trkpt lat="45.25799" lon="6.12909">
        <ele>2114</ele>
        <time>2021-12-23T10:48:26Z</time>
      </trkpt>
      <trkpt lat="45.25799" lon="6.12909">
        <ele>2114</ele>
        <time>2021-12-23T10:48:27Z</time>
      </trkpt>
      <trkpt lat="45.25799" lon="6.12909">
        <ele>2114</ele>
        <time>2021-12-23T10:48:28Z</time>
      </trkpt>
      <trkpt lat="45.25799" lon="6.12909">
        <ele>2114</ele>
        <time>2021-12-23T10:48:29Z</time>
      </trkpt>
      <trkpt lat="45.25799" lon="6.12909">
        <ele>2114</ele>
        <time>2021-12-23T10:48:30Z</time>
      </trkpt>
      <trkpt lat="45.25799" lon="6.12909">
        <ele>2114</ele>
        <time>2021-12-23T10:48:31Z</time>
      </trkpt>
      <trkpt lat="45.25799" lon="6.12909">
        <ele>2114</ele>
        <time>2021-12-23T10:48:32Z</time>
      </trkpt>
      <trkpt lat="45.25799" lon="6.12909">
        <ele>2114</ele>
        <time>2021-12-23T10:48:33Z</time>
      </trkpt>
      <trkpt lat="45.25799" lon="6.12909">
        <ele>2114</ele>
        <time>2021-12-23T10:48:34Z</time>
      </trkpt>
      <trkpt lat="45.25799" lon="6.12909">
        <ele>2114</ele>
        <time>2021-12-23T10:48:35Z</time>
      </trkpt>
      <trkpt lat="45.2579" lon="6.12911">
        <ele>2115</ele>
        <time>2021-12-23T10:48:37Z</time>
      </trkpt>
      <trkpt lat="45.25789" lon="6.1291">
        <ele>2115</ele>
        <time>2021-12-23T10:48:38Z</time>
      </trkpt>
      <trkpt lat="45.25789" lon="6.1291">
        <ele>2115</ele>
        <time>2021-12-23T10:48:39Z</time>
      </trkpt>
      <trkpt lat="45.25788" lon="6.12909">
        <ele>2116</ele>
        <time>2021-12-23T10:48:40Z</time>
      </trkpt>
      <trkpt lat="45.25788" lon="6.12909">
        <ele>2116</ele>
        <time>2021-12-23T10:48:41Z</time>
      </trkpt>
      <trkpt lat="45.25788" lon="6.12909">
        <ele>2116</ele>
        <time>2021-12-23T10:48:42Z</time>
      </trkpt>
      <trkpt lat="45.25787" lon="6.12908">
        <ele>2116</ele>
        <time>2021-12-23T10:48:43Z</time>
      </trkpt>
      <trkpt lat="45.25787" lon="6.12908">
        <ele>2116</ele>
        <time>2021-12-23T10:48:44Z</time>
      </trkpt>
      <trkpt lat="45.25786" lon="6.12907">
        <ele>2116</ele>
        <time>2021-12-23T10:48:45Z</time>
      </trkpt>
      <trkpt lat="45.25786" lon="6.12907">
        <ele>2116</ele>
        <time>2021-12-23T10:48:46Z</time>
      </trkpt>
      <trkpt lat="45.25785" lon="6.12906">
        <ele>2116</ele>
        <time>2021-12-23T10:48:47Z</time>
      </trkpt>
      <trkpt lat="45.25785" lon="6.12906">
        <ele>2117</ele>
        <time>2021-12-23T10:48:48Z</time>
      </trkpt>
      <trkpt lat="45.25784" lon="6.12905">
        <ele>2117</ele>
        <time>2021-12-23T10:48:49Z</time>
      </trkpt>
      <trkpt lat="45.25784" lon="6.12905">
        <ele>2117</ele>
        <time>2021-12-23T10:48:50Z</time>
      </trkpt>
      <trkpt lat="45.25783" lon="6.12905">
        <ele>2117</ele>
        <time>2021-12-23T10:48:51Z</time>
      </trkpt>
      <trkpt lat="45.25783" lon="6.12904">
        <ele>2118</ele>
        <time>2021-12-23T10:48:52Z</time>
      </trkpt>
      <trkpt lat="45.25782" lon="6.12904">
        <ele>2118</ele>
        <time>2021-12-23T10:48:53Z</time>
      </trkpt>
      <trkpt lat="45.25782" lon="6.12904">
        <ele>2118</ele>
        <time>2021-12-23T10:48:54Z</time>
      </trkpt>
      <trkpt lat="45.25782" lon="6.12904">
        <ele>2120</ele>
        <time>2021-12-23T10:48:56Z</time>
      </trkpt>
      <trkpt lat="45.25782" lon="6.12904">
        <ele>2120</ele>
        <time>2021-12-23T10:48:57Z</time>
      </trkpt>
      <trkpt lat="45.25782" lon="6.12904">
        <ele>2120</ele>
        <time>2021-12-23T10:48:58Z</time>
      </trkpt>
      <trkpt lat="45.25782" lon="6.12904">
        <ele>2121</ele>
        <time>2021-12-23T10:48:59Z</time>
      </trkpt>
      <trkpt lat="45.25782" lon="6.12904">
        <ele>2121</ele>
        <time>2021-12-23T10:49:00Z</time>
      </trkpt>
      <trkpt lat="45.25782" lon="6.12904">
        <ele>2121</ele>
        <time>2021-12-23T10:49:01Z</time>
      </trkpt>
      <trkpt lat="45.25782" lon="6.12904">
        <ele>2121</ele>
        <time>2021-12-23T10:49:02Z</time>
      </trkpt>
      <trkpt lat="45.25782" lon="6.12904">
        <ele>2121</ele>
        <time>2021-12-23T10:49:03Z</time>
      </trkpt>
      <trkpt lat="45.25782" lon="6.12904">
        <ele>2122</ele>
        <time>2021-12-23T10:49:04Z</time>
      </trkpt>
      <trkpt lat="45.25782" lon="6.12904">
        <ele>2122</ele>
        <time>2021-12-23T10:49:05Z</time>
      </trkpt>
      <trkpt lat="45.25782" lon="6.12904">
        <ele>2122</ele>
        <time>2021-12-23T10:49:06Z</time>
      </trkpt>
      <trkpt lat="45.25782" lon="6.12904">
        <ele>2122</ele>
        <time>2021-12-23T10:49:07Z</time>
      </trkpt>
      <trkpt lat="45.25782" lon="6.12904">
        <ele>2123</ele>
        <time>2021-12-23T10:49:08Z</time>
      </trkpt>
      <trkpt lat="45.25782" lon="6.12904">
        <ele>2123</ele>
        <time>2021-12-23T10:49:09Z</time>
      </trkpt>
      <trkpt lat="45.25782" lon="6.12904">
        <ele>2123</ele>
        <time>2021-12-23T10:49:10Z</time>
      </trkpt>
      <trkpt lat="45.25782" lon="6.12904">
        <ele>2123</ele>
        <time>2021-12-23T10:49:11Z</time>
      </trkpt>
      <trkpt lat="45.25782" lon="6.12904">
        <ele>2123</ele>
        <time>2021-12-23T10:49:12Z</time>
      </trkpt>
      <trkpt lat="45.25782" lon="6.12904">
        <ele>2123</ele>
        <time>2021-12-23T10:49:13Z</time>
      </trkpt>
      <trkpt lat="45.25782" lon="6.12904">
        <ele>2124</ele>
        <time>2021-12-23T10:49:15Z</time>
      </trkpt>
      <trkpt lat="45.25782" lon="6.12904">
        <ele>2124</ele>
        <time>2021-12-23T10:49:16Z</time>
      </trkpt>
      <trkpt lat="45.25779" lon="6.12913">
        <ele>2125</ele>
        <time>2021-12-23T10:49:17Z</time>
      </trkpt>
      <trkpt lat="45.25779" lon="6.12913">
        <ele>2125</ele>
        <time>2021-12-23T10:49:19Z</time>
      </trkpt>
      <trkpt lat="45.25779" lon="6.12913">
        <ele>2125</ele>
        <time>2021-12-23T10:49:20Z</time>
      </trkpt>
      <trkpt lat="45.25779" lon="6.12913">
        <ele>2125</ele>
        <time>2021-12-23T10:49:21Z</time>
      </trkpt>
      <trkpt lat="45.25779" lon="6.12913">
        <ele>2125</ele>
        <time>2021-12-23T10:49:22Z</time>
      </trkpt>
      <trkpt lat="45.25779" lon="6.12913">
        <ele>2125</ele>
        <time>2021-12-23T10:49:23Z</time>
      </trkpt>
      <trkpt lat="45.25779" lon="6.12913">
        <ele>2126</ele>
        <time>2021-12-23T10:49:24Z</time>
      </trkpt>
      <trkpt lat="45.25779" lon="6.12913">
        <ele>2126</ele>
        <time>2021-12-23T10:49:25Z</time>
      </trkpt>
      <trkpt lat="45.25779" lon="6.12913">
        <ele>2126</ele>
        <time>2021-12-23T10:49:26Z</time>
      </trkpt>
      <trkpt lat="45.25779" lon="6.12913">
        <ele>2126</ele>
        <time>2021-12-23T10:49:27Z</time>
      </trkpt>
      <trkpt lat="45.25779" lon="6.12913">
        <ele>2126</ele>
        <time>2021-12-23T10:49:28Z</time>
      </trkpt>
      <trkpt lat="45.25779" lon="6.12913">
        <ele>2126</ele>
        <time>2021-12-23T10:49:29Z</time>
      </trkpt>
      <trkpt lat="45.25779" lon="6.12913">
        <ele>2126</ele>
        <time>2021-12-23T10:49:30Z</time>
      </trkpt>
      <trkpt lat="45.25779" lon="6.12913">
        <ele>2126</ele>
        <time>2021-12-23T10:49:31Z</time>
      </trkpt>
      <trkpt lat="45.25772" lon="6.12921">
        <ele>2126</ele>
        <time>2021-12-23T10:49:32Z</time>
      </trkpt>
      <trkpt lat="45.25772" lon="6.12921">
        <ele>2126</ele>
        <time>2021-12-23T10:49:34Z</time>
      </trkpt>
      <trkpt lat="45.25771" lon="6.1292">
        <ele>2126</ele>
        <time>2021-12-23T10:49:35Z</time>
      </trkpt>
      <trkpt lat="45.2577" lon="6.1292">
        <ele>2126</ele>
        <time>2021-12-23T10:49:36Z</time>
      </trkpt>
      <trkpt lat="45.2577" lon="6.1292">
        <ele>2126</ele>
        <time>2021-12-23T10:49:37Z</time>
      </trkpt>
      <trkpt lat="45.25769" lon="6.12919">
        <ele>2127</ele>
        <time>2021-12-23T10:49:38Z</time>
      </trkpt>
      <trkpt lat="45.25768" lon="6.12919">
        <ele>2127</ele>
        <time>2021-12-23T10:49:39Z</time>
      </trkpt>
      <trkpt lat="45.25768" lon="6.12919">
        <ele>2128</ele>
        <time>2021-12-23T10:49:40Z</time>
      </trkpt>
      <trkpt lat="45.25767" lon="6.12918">
        <ele>2128</ele>
        <time>2021-12-23T10:49:41Z</time>
      </trkpt>
      <trkpt lat="45.25766" lon="6.12918">
        <ele>2128</ele>
        <time>2021-12-23T10:49:42Z</time>
      </trkpt>
      <trkpt lat="45.25766" lon="6.12918">
        <ele>2128</ele>
        <time>2021-12-23T10:49:43Z</time>
      </trkpt>
      <trkpt lat="45.25765" lon="6.12917">
        <ele>2128</ele>
        <time>2021-12-23T10:49:44Z</time>
      </trkpt>
      <trkpt lat="45.25764" lon="6.12917">
        <ele>2128</ele>
        <time>2021-12-23T10:49:45Z</time>
      </trkpt>
      <trkpt lat="45.25764" lon="6.12917">
        <ele>2128</ele>
        <time>2021-12-23T10:49:46Z</time>
      </trkpt>
      <trkpt lat="45.25763" lon="6.12916">
        <ele>2129</ele>
        <time>2021-12-23T10:49:47Z</time>
      </trkpt>
      <trkpt lat="45.25762" lon="6.12916">
        <ele>2129</ele>
        <time>2021-12-23T10:49:48Z</time>
      </trkpt>
      <trkpt lat="45.25762" lon="6.12915">
        <ele>2129</ele>
        <time>2021-12-23T10:49:49Z</time>
      </trkpt>
      <trkpt lat="45.25761" lon="6.12914">
        <ele>2130</ele>
        <time>2021-12-23T10:49:50Z</time>
      </trkpt>
      <trkpt lat="45.25761" lon="6.12913">
        <ele>2130</ele>
        <time>2021-12-23T10:49:51Z</time>
      </trkpt>
      <trkpt lat="45.2576" lon="6.12913">
        <ele>2130</ele>
        <time>2021-12-23T10:49:53Z</time>
      </trkpt>
      <trkpt lat="45.25759" lon="6.12912">
        <ele>2130</ele>
        <time>2021-12-23T10:49:54Z</time>
      </trkpt>
      <trkpt lat="45.25759" lon="6.12911">
        <ele>2130</ele>
        <time>2021-12-23T10:49:55Z</time>
      </trkpt>
      <trkpt lat="45.25758" lon="6.1291">
        <ele>2131</ele>
        <time>2021-12-23T10:49:56Z</time>
      </trkpt>
      <trkpt lat="45.25757" lon="6.12909">
        <ele>2131</ele>
        <time>2021-12-23T10:49:57Z</time>
      </trkpt>
      <trkpt lat="45.25757" lon="6.12908">
        <ele>2131</ele>
        <time>2021-12-23T10:49:58Z</time>
      </trkpt>
      <trkpt lat="45.25756" lon="6.12908">
        <ele>2131</ele>
        <time>2021-12-23T10:49:59Z</time>
      </trkpt>
      <trkpt lat="45.25755" lon="6.12907">
        <ele>2131</ele>
        <time>2021-12-23T10:50:00Z</time>
      </trkpt>
      <trkpt lat="45.25755" lon="6.12906">
        <ele>2131</ele>
        <time>2021-12-23T10:50:01Z</time>
      </trkpt>
      <trkpt lat="45.25754" lon="6.12906">
        <ele>2131</ele>
        <time>2021-12-23T10:50:02Z</time>
      </trkpt>
      <trkpt lat="45.25754" lon="6.12905">
        <ele>2132</ele>
        <time>2021-12-23T10:50:03Z</time>
      </trkpt>
      <trkpt lat="45.25753" lon="6.12905">
        <ele>2132</ele>
        <time>2021-12-23T10:50:04Z</time>
      </trkpt>
      <trkpt lat="45.25753" lon="6.12904">
        <ele>2132</ele>
        <time>2021-12-23T10:50:05Z</time>
      </trkpt>
      <trkpt lat="45.25752" lon="6.12904">
        <ele>2132</ele>
        <time>2021-12-23T10:50:06Z</time>
      </trkpt>
      <trkpt lat="45.25752" lon="6.12903">
        <ele>2132</ele>
        <time>2021-12-23T10:50:07Z</time>
      </trkpt>
      <trkpt lat="45.25751" lon="6.12903">
        <ele>2133</ele>
        <time>2021-12-23T10:50:08Z</time>
      </trkpt>
      <trkpt lat="45.25751" lon="6.12902">
        <ele>2133</ele>
        <time>2021-12-23T10:50:09Z</time>
      </trkpt>
      <trkpt lat="45.2575" lon="6.12902">
        <ele>2133</ele>
        <time>2021-12-23T10:50:10Z</time>
      </trkpt>
      <trkpt lat="45.25749" lon="6.12901">
        <ele>2134</ele>
        <time>2021-12-23T10:50:12Z</time>
      </trkpt>
      <trkpt lat="45.25749" lon="6.12901">
        <ele>2134</ele>
        <time>2021-12-23T10:50:13Z</time>
      </trkpt>
      <trkpt lat="45.25748" lon="6.129">
        <ele>2134</ele>
        <time>2021-12-23T10:50:14Z</time>
      </trkpt>
      <trkpt lat="45.25748" lon="6.129">
        <ele>2134</ele>
        <time>2021-12-23T10:50:15Z</time>
      </trkpt>
      <trkpt lat="45.25748" lon="6.129">
        <ele>2134</ele>
        <time>2021-12-23T10:50:16Z</time>
      </trkpt>
      <trkpt lat="45.25748" lon="6.129">
        <ele>2133</ele>
        <time>2021-12-23T10:50:17Z</time>
      </trkpt>
      <trkpt lat="45.25748" lon="6.129">
        <ele>2134</ele>
        <time>2021-12-23T10:50:18Z</time>
      </trkpt>
      <trkpt lat="45.25748" lon="6.129">
        <ele>2134</ele>
        <time>2021-12-23T10:50:19Z</time>
      </trkpt>
      <trkpt lat="45.25748" lon="6.129">
        <ele>2134</ele>
        <time>2021-12-23T10:50:20Z</time>
      </trkpt>
      <trkpt lat="45.25748" lon="6.129">
        <ele>2134</ele>
        <time>2021-12-23T10:50:21Z</time>
      </trkpt>
      <trkpt lat="45.25748" lon="6.129">
        <ele>2134</ele>
        <time>2021-12-23T10:50:22Z</time>
      </trkpt>
      <trkpt lat="45.25748" lon="6.129">
        <ele>2135</ele>
        <time>2021-12-23T10:50:23Z</time>
      </trkpt>
      <trkpt lat="45.25748" lon="6.129">
        <ele>2135</ele>
        <time>2021-12-23T10:50:24Z</time>
      </trkpt>
      <trkpt lat="45.25748" lon="6.129">
        <ele>2135</ele>
        <time>2021-12-23T10:50:25Z</time>
      </trkpt>
      <trkpt lat="45.25748" lon="6.129">
        <ele>2135</ele>
        <time>2021-12-23T10:50:26Z</time>
      </trkpt>
      <trkpt lat="45.25748" lon="6.129">
        <ele>2135</ele>
        <time>2021-12-23T10:50:27Z</time>
      </trkpt>
      <trkpt lat="45.25748" lon="6.129">
        <ele>2135</ele>
        <time>2021-12-23T10:50:28Z</time>
      </trkpt>
      <trkpt lat="45.25748" lon="6.129">
        <ele>2135</ele>
        <time>2021-12-23T10:50:29Z</time>
      </trkpt>
      <trkpt lat="45.25748" lon="6.129">
        <ele>2135</ele>
        <time>2021-12-23T10:50:31Z</time>
      </trkpt>
      <trkpt lat="45.25748" lon="6.129">
        <ele>2135</ele>
        <time>2021-12-23T10:50:32Z</time>
      </trkpt>
      <trkpt lat="45.25748" lon="6.129">
        <ele>2136</ele>
        <time>2021-12-23T10:50:33Z</time>
      </trkpt>
      <trkpt lat="45.25739" lon="6.12905">
        <ele>2137</ele>
        <time>2021-12-23T10:50:34Z</time>
      </trkpt>
      <trkpt lat="45.25739" lon="6.12905">
        <ele>2137</ele>
        <time>2021-12-23T10:50:36Z</time>
      </trkpt>
      <trkpt lat="45.25738" lon="6.12904">
        <ele>2138</ele>
        <time>2021-12-23T10:50:37Z</time>
      </trkpt>
      <trkpt lat="45.25737" lon="6.12903">
        <ele>2138</ele>
        <time>2021-12-23T10:50:38Z</time>
      </trkpt>
      <trkpt lat="45.25737" lon="6.12902">
        <ele>2138</ele>
        <time>2021-12-23T10:50:39Z</time>
      </trkpt>
      <trkpt lat="45.25736" lon="6.12901">
        <ele>2138</ele>
        <time>2021-12-23T10:50:40Z</time>
      </trkpt>
      <trkpt lat="45.25735" lon="6.129">
        <ele>2139</ele>
        <time>2021-12-23T10:50:41Z</time>
      </trkpt>
      <trkpt lat="45.25735" lon="6.12899">
        <ele>2139</ele>
        <time>2021-12-23T10:50:42Z</time>
      </trkpt>
      <trkpt lat="45.25734" lon="6.12898">
        <ele>2140</ele>
        <time>2021-12-23T10:50:43Z</time>
      </trkpt>
      <trkpt lat="45.25733" lon="6.12897">
        <ele>2140</ele>
        <time>2021-12-23T10:50:44Z</time>
      </trkpt>
      <trkpt lat="45.25732" lon="6.12896">
        <ele>2140</ele>
        <time>2021-12-23T10:50:45Z</time>
      </trkpt>
      <trkpt lat="45.25732" lon="6.12895">
        <ele>2140</ele>
        <time>2021-12-23T10:50:46Z</time>
      </trkpt>
      <trkpt lat="45.25731" lon="6.12896">
        <ele>2140</ele>
        <time>2021-12-23T10:50:47Z</time>
      </trkpt>
      <trkpt lat="45.2573" lon="6.12897">
        <ele>2140</ele>
        <time>2021-12-23T10:50:48Z</time>
      </trkpt>
      <trkpt lat="45.25729" lon="6.12898">
        <ele>2140</ele>
        <time>2021-12-23T10:50:50Z</time>
      </trkpt>
      <trkpt lat="45.25729" lon="6.12899">
        <ele>2140</ele>
        <time>2021-12-23T10:50:51Z</time>
      </trkpt>
      <trkpt lat="45.25728" lon="6.129">
        <ele>2140</ele>
        <time>2021-12-23T10:50:52Z</time>
      </trkpt>
      <trkpt lat="45.25727" lon="6.129">
        <ele>2140</ele>
        <time>2021-12-23T10:50:53Z</time>
      </trkpt>
      <trkpt lat="45.25726" lon="6.12901">
        <ele>2140</ele>
        <time>2021-12-23T10:50:54Z</time>
      </trkpt>
      <trkpt lat="45.25726" lon="6.12902">
        <ele>2140</ele>
        <time>2021-12-23T10:50:55Z</time>
      </trkpt>
      <trkpt lat="45.25725" lon="6.12903">
        <ele>2141</ele>
        <time>2021-12-23T10:50:56Z</time>
      </trkpt>
      <trkpt lat="45.25724" lon="6.12904">
        <ele>2141</ele>
        <time>2021-12-23T10:50:57Z</time>
      </trkpt>
      <trkpt lat="45.25723" lon="6.12904">
        <ele>2141</ele>
        <time>2021-12-23T10:50:58Z</time>
      </trkpt>
      <trkpt lat="45.25723" lon="6.12905">
        <ele>2142</ele>
        <time>2021-12-23T10:50:59Z</time>
      </trkpt>
      <trkpt lat="45.25722" lon="6.12905">
        <ele>2142</ele>
        <time>2021-12-23T10:51:00Z</time>
      </trkpt>
      <trkpt lat="45.25722" lon="6.12906">
        <ele>2142</ele>
        <time>2021-12-23T10:51:01Z</time>
      </trkpt>
      <trkpt lat="45.25721" lon="6.12906">
        <ele>2142</ele>
        <time>2021-12-23T10:51:02Z</time>
      </trkpt>
      <trkpt lat="45.25721" lon="6.12907">
        <ele>2143</ele>
        <time>2021-12-23T10:51:03Z</time>
      </trkpt>
      <trkpt lat="45.2572" lon="6.12907">
        <ele>2143</ele>
        <time>2021-12-23T10:51:04Z</time>
      </trkpt>
      <trkpt lat="45.2572" lon="6.12907">
        <ele>2143</ele>
        <time>2021-12-23T10:51:05Z</time>
      </trkpt>
      <trkpt lat="45.25719" lon="6.12908">
        <ele>2143</ele>
        <time>2021-12-23T10:51:06Z</time>
      </trkpt>
      <trkpt lat="45.25719" lon="6.12908">
        <ele>2143</ele>
        <time>2021-12-23T10:51:07Z</time>
      </trkpt>
      <trkpt lat="45.25718" lon="6.12909">
        <ele>2144</ele>
        <time>2021-12-23T10:51:09Z</time>
      </trkpt>
      <trkpt lat="45.25718" lon="6.12909">
        <ele>2144</ele>
        <time>2021-12-23T10:51:10Z</time>
      </trkpt>
      <trkpt lat="45.25717" lon="6.1291">
        <ele>2146</ele>
        <time>2021-12-23T10:51:11Z</time>
      </trkpt>
      <trkpt lat="45.25717" lon="6.1291">
        <ele>2146</ele>
        <time>2021-12-23T10:51:12Z</time>
      </trkpt>
      <trkpt lat="45.25716" lon="6.1291">
        <ele>2146</ele>
        <time>2021-12-23T10:51:13Z</time>
      </trkpt>
      <trkpt lat="45.25716" lon="6.12911">
        <ele>2146</ele>
        <time>2021-12-23T10:51:14Z</time>
      </trkpt>
      <trkpt lat="45.25715" lon="6.12911">
        <ele>2146</ele>
        <time>2021-12-23T10:51:15Z</time>
      </trkpt>
      <trkpt lat="45.25715" lon="6.12911">
        <ele>2146</ele>
        <time>2021-12-23T10:51:16Z</time>
      </trkpt>
      <trkpt lat="45.25714" lon="6.12912">
        <ele>2147</ele>
        <time>2021-12-23T10:51:17Z</time>
      </trkpt>
      <trkpt lat="45.25713" lon="6.12912">
        <ele>2147</ele>
        <time>2021-12-23T10:51:18Z</time>
      </trkpt>
      <trkpt lat="45.25713" lon="6.12912">
        <ele>2148</ele>
        <time>2021-12-23T10:51:19Z</time>
      </trkpt>
      <trkpt lat="45.25712" lon="6.12912">
        <ele>2148</ele>
        <time>2021-12-23T10:51:20Z</time>
      </trkpt>
      <trkpt lat="45.25712" lon="6.12912">
        <ele>2147</ele>
        <time>2021-12-23T10:51:21Z</time>
      </trkpt>
      <trkpt lat="45.25711" lon="6.12912">
        <ele>2148</ele>
        <time>2021-12-23T10:51:22Z</time>
      </trkpt>
      <trkpt lat="45.2571" lon="6.12913">
        <ele>2148</ele>
        <time>2021-12-23T10:51:23Z</time>
      </trkpt>
      <trkpt lat="45.2571" lon="6.12913">
        <ele>2148</ele>
        <time>2021-12-23T10:51:24Z</time>
      </trkpt>
      <trkpt lat="45.25709" lon="6.12913">
        <ele>2148</ele>
        <time>2021-12-23T10:51:25Z</time>
      </trkpt>
      <trkpt lat="45.25709" lon="6.12913">
        <ele>2148</ele>
        <time>2021-12-23T10:51:26Z</time>
      </trkpt>
      <trkpt lat="45.25708" lon="6.12913">
        <ele>2148</ele>
        <time>2021-12-23T10:51:28Z</time>
      </trkpt>
      <trkpt lat="45.25707" lon="6.12913">
        <ele>2148</ele>
        <time>2021-12-23T10:51:29Z</time>
      </trkpt>
      <trkpt lat="45.25707" lon="6.12914">
        <ele>2149</ele>
        <time>2021-12-23T10:51:30Z</time>
      </trkpt>
      <trkpt lat="45.25706" lon="6.12914">
        <ele>2149</ele>
        <time>2021-12-23T10:51:31Z</time>
      </trkpt>
      <trkpt lat="45.25706" lon="6.12914">
        <ele>2149</ele>
        <time>2021-12-23T10:51:32Z</time>
      </trkpt>
      <trkpt lat="45.25706" lon="6.12914">
        <ele>2150</ele>
        <time>2021-12-23T10:51:33Z</time>
      </trkpt>
      <trkpt lat="45.25706" lon="6.12914">
        <ele>2150</ele>
        <time>2021-12-23T10:51:34Z</time>
      </trkpt>
      <trkpt lat="45.25706" lon="6.12914">
        <ele>2150</ele>
        <time>2021-12-23T10:51:35Z</time>
      </trkpt>
      <trkpt lat="45.25706" lon="6.12914">
        <ele>2150</ele>
        <time>2021-12-23T10:51:36Z</time>
      </trkpt>
      <trkpt lat="45.25706" lon="6.12914">
        <ele>2150</ele>
        <time>2021-12-23T10:51:37Z</time>
      </trkpt>
      <trkpt lat="45.25706" lon="6.12914">
        <ele>2151</ele>
        <time>2021-12-23T10:51:38Z</time>
      </trkpt>
      <trkpt lat="45.25706" lon="6.12914">
        <ele>2151</ele>
        <time>2021-12-23T10:51:39Z</time>
      </trkpt>
      <trkpt lat="45.25706" lon="6.12914">
        <ele>2151</ele>
        <time>2021-12-23T10:51:40Z</time>
      </trkpt>
      <trkpt lat="45.25706" lon="6.12914">
        <ele>2151</ele>
        <time>2021-12-23T10:51:41Z</time>
      </trkpt>
      <trkpt lat="45.25706" lon="6.12914">
        <ele>2151</ele>
        <time>2021-12-23T10:51:42Z</time>
      </trkpt>
      <trkpt lat="45.25706" lon="6.12914">
        <ele>2151</ele>
        <time>2021-12-23T10:51:43Z</time>
      </trkpt>
      <trkpt lat="45.25706" lon="6.12914">
        <ele>2151</ele>
        <time>2021-12-23T10:51:44Z</time>
      </trkpt>
      <trkpt lat="45.25706" lon="6.12914">
        <ele>2150</ele>
        <time>2021-12-23T10:51:45Z</time>
      </trkpt>
      <trkpt lat="45.25706" lon="6.12914">
        <ele>2150</ele>
        <time>2021-12-23T10:51:47Z</time>
      </trkpt>
      <trkpt lat="45.25706" lon="6.12914">
        <ele>2150</ele>
        <time>2021-12-23T10:51:48Z</time>
      </trkpt>
      <trkpt lat="45.25706" lon="6.12914">
        <ele>2150</ele>
        <time>2021-12-23T10:51:49Z</time>
      </trkpt>
      <trkpt lat="45.25706" lon="6.12914">
        <ele>2151</ele>
        <time>2021-12-23T10:51:50Z</time>
      </trkpt>
      <trkpt lat="45.25706" lon="6.12914">
        <ele>2151</ele>
        <time>2021-12-23T10:51:51Z</time>
      </trkpt>
      <trkpt lat="45.25706" lon="6.12914">
        <ele>2151</ele>
        <time>2021-12-23T10:51:52Z</time>
      </trkpt>
      <trkpt lat="45.25706" lon="6.12914">
        <ele>2150</ele>
        <time>2021-12-23T10:51:53Z</time>
      </trkpt>
      <trkpt lat="45.25706" lon="6.12914">
        <ele>2150</ele>
        <time>2021-12-23T10:51:54Z</time>
      </trkpt>
      <trkpt lat="45.25706" lon="6.12914">
        <ele>2150</ele>
        <time>2021-12-23T10:51:55Z</time>
      </trkpt>
      <trkpt lat="45.25706" lon="6.12914">
        <ele>2150</ele>
        <time>2021-12-23T10:51:56Z</time>
      </trkpt>
      <trkpt lat="45.25706" lon="6.12914">
        <ele>2150</ele>
        <time>2021-12-23T10:51:57Z</time>
      </trkpt>
      <trkpt lat="45.25706" lon="6.12914">
        <ele>2150</ele>
        <time>2021-12-23T10:51:58Z</time>
      </trkpt>
      <trkpt lat="45.25706" lon="6.12914">
        <ele>2150</ele>
        <time>2021-12-23T10:51:59Z</time>
      </trkpt>
      <trkpt lat="45.25706" lon="6.12914">
        <ele>2150</ele>
        <time>2021-12-23T10:52:00Z</time>
      </trkpt>
      <trkpt lat="45.25706" lon="6.12914">
        <ele>2150</ele>
        <time>2021-12-23T10:52:01Z</time>
      </trkpt>
      <trkpt lat="45.25706" lon="6.12914">
        <ele>2150</ele>
        <time>2021-12-23T10:52:02Z</time>
      </trkpt>
      <trkpt lat="45.25706" lon="6.12914">
        <ele>2150</ele>
        <time>2021-12-23T10:52:03Z</time>
      </trkpt>
      <trkpt lat="45.25706" lon="6.12914">
        <ele>2150</ele>
        <time>2021-12-23T10:52:04Z</time>
      </trkpt>
      <trkpt lat="45.25706" lon="6.12914">
        <ele>2150</ele>
        <time>2021-12-23T10:52:06Z</time>
      </trkpt>
      <trkpt lat="45.25705" lon="6.12927">
        <ele>2150</ele>
        <time>2021-12-23T10:52:07Z</time>
      </trkpt>
      <trkpt lat="45.25705" lon="6.12927">
        <ele>2150</ele>
        <time>2021-12-23T10:52:09Z</time>
      </trkpt>
      <trkpt lat="45.25704" lon="6.12927">
        <ele>2150</ele>
        <time>2021-12-23T10:52:10Z</time>
      </trkpt>
      <trkpt lat="45.25704" lon="6.12927">
        <ele>2150</ele>
        <time>2021-12-23T10:52:11Z</time>
      </trkpt>
      <trkpt lat="45.25703" lon="6.12927">
        <ele>2150</ele>
        <time>2021-12-23T10:52:12Z</time>
      </trkpt>
      <trkpt lat="45.25703" lon="6.12927">
        <ele>2150</ele>
        <time>2021-12-23T10:52:13Z</time>
      </trkpt>
      <trkpt lat="45.25702" lon="6.12927">
        <ele>2150</ele>
        <time>2021-12-23T10:52:14Z</time>
      </trkpt>
      <trkpt lat="45.25702" lon="6.12927">
        <ele>2150</ele>
        <time>2021-12-23T10:52:15Z</time>
      </trkpt>
      <trkpt lat="45.25701" lon="6.12928">
        <ele>2150</ele>
        <time>2021-12-23T10:52:16Z</time>
      </trkpt>
      <trkpt lat="45.25701" lon="6.12928">
        <ele>2150</ele>
        <time>2021-12-23T10:52:17Z</time>
      </trkpt>
      <trkpt lat="45.257" lon="6.12928">
        <ele>2150</ele>
        <time>2021-12-23T10:52:18Z</time>
      </trkpt>
      <trkpt lat="45.257" lon="6.12928">
        <ele>2150</ele>
        <time>2021-12-23T10:52:19Z</time>
      </trkpt>
      <trkpt lat="45.25699" lon="6.12928">
        <ele>2150</ele>
        <time>2021-12-23T10:52:20Z</time>
      </trkpt>
      <trkpt lat="45.25699" lon="6.12928">
        <ele>2150</ele>
        <time>2021-12-23T10:52:21Z</time>
      </trkpt>
      <trkpt lat="45.25698" lon="6.12928">
        <ele>2150</ele>
        <time>2021-12-23T10:52:22Z</time>
      </trkpt>
      <trkpt lat="45.25698" lon="6.12929">
        <ele>2150</ele>
        <time>2021-12-23T10:52:23Z</time>
      </trkpt>
      <trkpt lat="45.25697" lon="6.12929">
        <ele>2151</ele>
        <time>2021-12-23T10:52:25Z</time>
      </trkpt>
      <trkpt lat="45.25697" lon="6.12929">
        <ele>2152</ele>
        <time>2021-12-23T10:52:26Z</time>
      </trkpt>
      <trkpt lat="45.25696" lon="6.12929">
        <ele>2152</ele>
        <time>2021-12-23T10:52:27Z</time>
      </trkpt>
      <trkpt lat="45.25696" lon="6.12929">
        <ele>2152</ele>
        <time>2021-12-23T10:52:28Z</time>
      </trkpt>
      <trkpt lat="45.25695" lon="6.12929">
        <ele>2152</ele>
        <time>2021-12-23T10:52:29Z</time>
      </trkpt>
      <trkpt lat="45.25695" lon="6.12929">
        <ele>2152</ele>
        <time>2021-12-23T10:52:30Z</time>
      </trkpt>
      <trkpt lat="45.25694" lon="6.1293">
        <ele>2151</ele>
        <time>2021-12-23T10:52:31Z</time>
      </trkpt>
      <trkpt lat="45.25694" lon="6.1293">
        <ele>2151</ele>
        <time>2021-12-23T10:52:32Z</time>
      </trkpt>
      <trkpt lat="45.25694" lon="6.1293">
        <ele>2151</ele>
        <time>2021-12-23T10:52:33Z</time>
      </trkpt>
      <trkpt lat="45.25694" lon="6.1293">
        <ele>2151</ele>
        <time>2021-12-23T10:52:34Z</time>
      </trkpt>
      <trkpt lat="45.25694" lon="6.1293">
        <ele>2151</ele>
        <time>2021-12-23T10:52:35Z</time>
      </trkpt>
      <trkpt lat="45.25694" lon="6.1293">
        <ele>2151</ele>
        <time>2021-12-23T10:52:36Z</time>
      </trkpt>
      <trkpt lat="45.25694" lon="6.1293">
        <ele>2152</ele>
        <time>2021-12-23T10:52:37Z</time>
      </trkpt>
      <trkpt lat="45.25694" lon="6.1293">
        <ele>2152</ele>
        <time>2021-12-23T10:52:38Z</time>
      </trkpt>
      <trkpt lat="45.25694" lon="6.1293">
        <ele>2152</ele>
        <time>2021-12-23T10:52:39Z</time>
      </trkpt>
      <trkpt lat="45.25694" lon="6.1293">
        <ele>2152</ele>
        <time>2021-12-23T10:52:40Z</time>
      </trkpt>
      <trkpt lat="45.25694" lon="6.1293">
        <ele>2152</ele>
        <time>2021-12-23T10:52:41Z</time>
      </trkpt>
      <trkpt lat="45.25685" lon="6.12931">
        <ele>2152</ele>
        <time>2021-12-23T10:52:42Z</time>
      </trkpt>
      <trkpt lat="45.25685" lon="6.12931">
        <ele>2153</ele>
        <time>2021-12-23T10:52:44Z</time>
      </trkpt>
      <trkpt lat="45.25684" lon="6.12932">
        <ele>2153</ele>
        <time>2021-12-23T10:52:45Z</time>
      </trkpt>
      <trkpt lat="45.25684" lon="6.12933">
        <ele>2153</ele>
        <time>2021-12-23T10:52:46Z</time>
      </trkpt>
      <trkpt lat="45.25684" lon="6.12934">
        <ele>2154</ele>
        <time>2021-12-23T10:52:47Z</time>
      </trkpt>
      <trkpt lat="45.25684" lon="6.12935">
        <ele>2154</ele>
        <time>2021-12-23T10:52:48Z</time>
      </trkpt>
      <trkpt lat="45.25683" lon="6.12936">
        <ele>2153</ele>
        <time>2021-12-23T10:52:49Z</time>
      </trkpt>
      <trkpt lat="45.25683" lon="6.12937">
        <ele>2153</ele>
        <time>2021-12-23T10:52:50Z</time>
      </trkpt>
      <trkpt lat="45.25683" lon="6.12938">
        <ele>2153</ele>
        <time>2021-12-23T10:52:51Z</time>
      </trkpt>
      <trkpt lat="45.25682" lon="6.12939">
        <ele>2153</ele>
        <time>2021-12-23T10:52:52Z</time>
      </trkpt>
      <trkpt lat="45.25682" lon="6.1294">
        <ele>2153</ele>
        <time>2021-12-23T10:52:53Z</time>
      </trkpt>
      <trkpt lat="45.25682" lon="6.12941">
        <ele>2153</ele>
        <time>2021-12-23T10:52:54Z</time>
      </trkpt>
      <trkpt lat="45.25682" lon="6.12942">
        <ele>2153</ele>
        <time>2021-12-23T10:52:55Z</time>
      </trkpt>
      <trkpt lat="45.25681" lon="6.12943">
        <ele>2154</ele>
        <time>2021-12-23T10:52:56Z</time>
      </trkpt>
      <trkpt lat="45.2568" lon="6.12944">
        <ele>2154</ele>
        <time>2021-12-23T10:52:57Z</time>
      </trkpt>
      <trkpt lat="45.2568" lon="6.12946">
        <ele>2154</ele>
        <time>2021-12-23T10:52:58Z</time>
      </trkpt>
      <trkpt lat="45.25679" lon="6.12947">
        <ele>2154</ele>
        <time>2021-12-23T10:52:59Z</time>
      </trkpt>
      <trkpt lat="45.25678" lon="6.12949">
        <ele>2154</ele>
        <time>2021-12-23T10:53:00Z</time>
      </trkpt>
      <trkpt lat="45.25677" lon="6.1295">
        <ele>2154</ele>
        <time>2021-12-23T10:53:01Z</time>
      </trkpt>
      <trkpt lat="45.25676" lon="6.12951">
        <ele>2155</ele>
        <time>2021-12-23T10:53:03Z</time>
      </trkpt>
      <trkpt lat="45.25676" lon="6.12953">
        <ele>2155</ele>
        <time>2021-12-23T10:53:04Z</time>
      </trkpt>
      <trkpt lat="45.25676" lon="6.12953">
        <ele>2155</ele>
        <time>2021-12-23T10:53:05Z</time>
      </trkpt>
      <trkpt lat="45.25676" lon="6.12953">
        <ele>2155</ele>
        <time>2021-12-23T10:53:06Z</time>
      </trkpt>
      <trkpt lat="45.25676" lon="6.12953">
        <ele>2155</ele>
        <time>2021-12-23T10:53:07Z</time>
      </trkpt>
      <trkpt lat="45.25676" lon="6.12953">
        <ele>2155</ele>
        <time>2021-12-23T10:53:08Z</time>
      </trkpt>
      <trkpt lat="45.25676" lon="6.12953">
        <ele>2155</ele>
        <time>2021-12-23T10:53:09Z</time>
      </trkpt>
      <trkpt lat="45.25676" lon="6.12953">
        <ele>2155</ele>
        <time>2021-12-23T10:53:10Z</time>
      </trkpt>
      <trkpt lat="45.25676" lon="6.12953">
        <ele>2155</ele>
        <time>2021-12-23T10:53:11Z</time>
      </trkpt>
      <trkpt lat="45.25676" lon="6.12953">
        <ele>2155</ele>
        <time>2021-12-23T10:53:12Z</time>
      </trkpt>
      <trkpt lat="45.25671" lon="6.12964">
        <ele>2155</ele>
        <time>2021-12-23T10:53:13Z</time>
      </trkpt>
      <trkpt lat="45.25671" lon="6.12964">
        <ele>2156</ele>
        <time>2021-12-23T10:53:15Z</time>
      </trkpt>
      <trkpt lat="45.2567" lon="6.12964">
        <ele>2156</ele>
        <time>2021-12-23T10:53:16Z</time>
      </trkpt>
      <trkpt lat="45.2567" lon="6.12964">
        <ele>2156</ele>
        <time>2021-12-23T10:53:17Z</time>
      </trkpt>
      <trkpt lat="45.25669" lon="6.12964">
        <ele>2156</ele>
        <time>2021-12-23T10:53:18Z</time>
      </trkpt>
      <trkpt lat="45.25669" lon="6.12963">
        <ele>2156</ele>
        <time>2021-12-23T10:53:19Z</time>
      </trkpt>
      <trkpt lat="45.25668" lon="6.12963">
        <ele>2156</ele>
        <time>2021-12-23T10:53:20Z</time>
      </trkpt>
      <trkpt lat="45.25668" lon="6.12963">
        <ele>2156</ele>
        <time>2021-12-23T10:53:22Z</time>
      </trkpt>
      <trkpt lat="45.25667" lon="6.12963">
        <ele>2156</ele>
        <time>2021-12-23T10:53:23Z</time>
      </trkpt>
      <trkpt lat="45.25667" lon="6.12963">
        <ele>2156</ele>
        <time>2021-12-23T10:53:24Z</time>
      </trkpt>
      <trkpt lat="45.25666" lon="6.12962">
        <ele>2156</ele>
        <time>2021-12-23T10:53:25Z</time>
      </trkpt>
      <trkpt lat="45.25666" lon="6.12962">
        <ele>2157</ele>
        <time>2021-12-23T10:53:26Z</time>
      </trkpt>
      <trkpt lat="45.25665" lon="6.12962">
        <ele>2157</ele>
        <time>2021-12-23T10:53:27Z</time>
      </trkpt>
      <trkpt lat="45.25665" lon="6.12962">
        <ele>2157</ele>
        <time>2021-12-23T10:53:28Z</time>
      </trkpt>
      <trkpt lat="45.25664" lon="6.12961">
        <ele>2157</ele>
        <time>2021-12-23T10:53:29Z</time>
      </trkpt>
      <trkpt lat="45.25664" lon="6.12961">
        <ele>2157</ele>
        <time>2021-12-23T10:53:30Z</time>
      </trkpt>
      <trkpt lat="45.25663" lon="6.12961">
        <ele>2158</ele>
        <time>2021-12-23T10:53:31Z</time>
      </trkpt>
      <trkpt lat="45.25663" lon="6.12961">
        <ele>2158</ele>
        <time>2021-12-23T10:53:32Z</time>
      </trkpt>
      <trkpt lat="45.25662" lon="6.1296">
        <ele>2158</ele>
        <time>2021-12-23T10:53:33Z</time>
      </trkpt>
      <trkpt lat="45.25662" lon="6.1296">
        <ele>2158</ele>
        <time>2021-12-23T10:53:34Z</time>
      </trkpt>
      <trkpt lat="45.25662" lon="6.1296">
        <ele>2158</ele>
        <time>2021-12-23T10:53:35Z</time>
      </trkpt>
      <trkpt lat="45.25662" lon="6.1296">
        <ele>2158</ele>
        <time>2021-12-23T10:53:36Z</time>
      </trkpt>
      <trkpt lat="45.25662" lon="6.1296">
        <ele>2158</ele>
        <time>2021-12-23T10:53:37Z</time>
      </trkpt>
      <trkpt lat="45.25662" lon="6.1296">
        <ele>2158</ele>
        <time>2021-12-23T10:53:38Z</time>
      </trkpt>
      <trkpt lat="45.25654" lon="6.12967">
        <ele>2159</ele>
        <time>2021-12-23T10:53:39Z</time>
      </trkpt>
      <trkpt lat="45.25654" lon="6.12967">
        <ele>2159</ele>
        <time>2021-12-23T10:53:41Z</time>
      </trkpt>
      <trkpt lat="45.25653" lon="6.12967">
        <ele>2159</ele>
        <time>2021-12-23T10:53:42Z</time>
      </trkpt>
      <trkpt lat="45.25653" lon="6.12967">
        <ele>2159</ele>
        <time>2021-12-23T10:53:43Z</time>
      </trkpt>
      <trkpt lat="45.25652" lon="6.12967">
        <ele>2160</ele>
        <time>2021-12-23T10:53:44Z</time>
      </trkpt>
      <trkpt lat="45.25651" lon="6.12968">
        <ele>2160</ele>
        <time>2021-12-23T10:53:45Z</time>
      </trkpt>
      <trkpt lat="45.2565" lon="6.12968">
        <ele>2160</ele>
        <time>2021-12-23T10:53:46Z</time>
      </trkpt>
      <trkpt lat="45.2565" lon="6.12968">
        <ele>2160</ele>
        <time>2021-12-23T10:53:47Z</time>
      </trkpt>
      <trkpt lat="45.25649" lon="6.12968">
        <ele>2160</ele>
        <time>2021-12-23T10:53:48Z</time>
      </trkpt>
      <trkpt lat="45.25648" lon="6.12968">
        <ele>2160</ele>
        <time>2021-12-23T10:53:49Z</time>
      </trkpt>
      <trkpt lat="45.25648" lon="6.12969">
        <ele>2160</ele>
        <time>2021-12-23T10:53:50Z</time>
      </trkpt>
      <trkpt lat="45.25647" lon="6.12969">
        <ele>2160</ele>
        <time>2021-12-23T10:53:51Z</time>
      </trkpt>
      <trkpt lat="45.25646" lon="6.12969">
        <ele>2160</ele>
        <time>2021-12-23T10:53:52Z</time>
      </trkpt>
      <trkpt lat="45.25645" lon="6.12969">
        <ele>2161</ele>
        <time>2021-12-23T10:53:53Z</time>
      </trkpt>
      <trkpt lat="45.25645" lon="6.1297">
        <ele>2161</ele>
        <time>2021-12-23T10:53:54Z</time>
      </trkpt>
      <trkpt lat="45.25644" lon="6.1297">
        <ele>2161</ele>
        <time>2021-12-23T10:53:55Z</time>
      </trkpt>
      <trkpt lat="45.25643" lon="6.1297">
        <ele>2161</ele>
        <time>2021-12-23T10:53:56Z</time>
      </trkpt>
      <trkpt lat="45.25642" lon="6.12971">
        <ele>2161</ele>
        <time>2021-12-23T10:53:57Z</time>
      </trkpt>
      <trkpt lat="45.25641" lon="6.12971">
        <ele>2161</ele>
        <time>2021-12-23T10:53:58Z</time>
      </trkpt>
      <trkpt lat="45.2564" lon="6.12971">
        <ele>2161</ele>
        <time>2021-12-23T10:54:00Z</time>
      </trkpt>
      <trkpt lat="45.25639" lon="6.12972">
        <ele>2161</ele>
        <time>2021-12-23T10:54:01Z</time>
      </trkpt>
      <trkpt lat="45.25638" lon="6.12972">
        <ele>2161</ele>
        <time>2021-12-23T10:54:02Z</time>
      </trkpt>
      <trkpt lat="45.25637" lon="6.12973">
        <ele>2161</ele>
        <time>2021-12-23T10:54:03Z</time>
      </trkpt>
      <trkpt lat="45.25636" lon="6.12973">
        <ele>2161</ele>
        <time>2021-12-23T10:54:04Z</time>
      </trkpt>
      <trkpt lat="45.25636" lon="6.12973">
        <ele>2161</ele>
        <time>2021-12-23T10:54:05Z</time>
      </trkpt>
      <trkpt lat="45.25641" lon="6.12988">
        <ele>2162</ele>
        <time>2021-12-23T10:54:06Z</time>
      </trkpt>
      <trkpt lat="45.25641" lon="6.12988">
        <ele>2162</ele>
        <time>2021-12-23T10:54:08Z</time>
      </trkpt>
      <trkpt lat="45.25641" lon="6.12988">
        <ele>2162</ele>
        <time>2021-12-23T10:54:09Z</time>
      </trkpt>
      <trkpt lat="45.2564" lon="6.12988">
        <ele>2162</ele>
        <time>2021-12-23T10:54:10Z</time>
      </trkpt>
      <trkpt lat="45.2564" lon="6.12988">
        <ele>2162</ele>
        <time>2021-12-23T10:54:11Z</time>
      </trkpt>
      <trkpt lat="45.25639" lon="6.12988">
        <ele>2162</ele>
        <time>2021-12-23T10:54:12Z</time>
      </trkpt>
      <trkpt lat="45.25639" lon="6.12988">
        <ele>2163</ele>
        <time>2021-12-23T10:54:13Z</time>
      </trkpt>
      <trkpt lat="45.25638" lon="6.12988">
        <ele>2163</ele>
        <time>2021-12-23T10:54:14Z</time>
      </trkpt>
      <trkpt lat="45.25638" lon="6.12988">
        <ele>2163</ele>
        <time>2021-12-23T10:54:15Z</time>
      </trkpt>
      <trkpt lat="45.25637" lon="6.12988">
        <ele>2163</ele>
        <time>2021-12-23T10:54:16Z</time>
      </trkpt>
      <trkpt lat="45.25637" lon="6.12988">
        <ele>2163</ele>
        <time>2021-12-23T10:54:17Z</time>
      </trkpt>
      <trkpt lat="45.25636" lon="6.12987">
        <ele>2163</ele>
        <time>2021-12-23T10:54:19Z</time>
      </trkpt>
      <trkpt lat="45.25636" lon="6.12987">
        <ele>2163</ele>
        <time>2021-12-23T10:54:20Z</time>
      </trkpt>
      <trkpt lat="45.2563" lon="6.12986">
        <ele>2163</ele>
        <time>2021-12-23T10:54:21Z</time>
      </trkpt>
      <trkpt lat="45.2563" lon="6.12985">
        <ele>2164</ele>
        <time>2021-12-23T10:54:22Z</time>
      </trkpt>
      <trkpt lat="45.2563" lon="6.12984">
        <ele>2164</ele>
        <time>2021-12-23T10:54:23Z</time>
      </trkpt>
      <trkpt lat="45.2563" lon="6.12983">
        <ele>2165</ele>
        <time>2021-12-23T10:54:24Z</time>
      </trkpt>
      <trkpt lat="45.2563" lon="6.12981">
        <ele>2165</ele>
        <time>2021-12-23T10:54:25Z</time>
      </trkpt>
      <trkpt lat="45.2563" lon="6.1298">
        <ele>2165</ele>
        <time>2021-12-23T10:54:26Z</time>
      </trkpt>
      <trkpt lat="45.2563" lon="6.12979">
        <ele>2165</ele>
        <time>2021-12-23T10:54:27Z</time>
      </trkpt>
      <trkpt lat="45.2563" lon="6.12978">
        <ele>2165</ele>
        <time>2021-12-23T10:54:28Z</time>
      </trkpt>
      <trkpt lat="45.2563" lon="6.12977">
        <ele>2166</ele>
        <time>2021-12-23T10:54:29Z</time>
      </trkpt>
      <trkpt lat="45.25629" lon="6.12976">
        <ele>2166</ele>
        <time>2021-12-23T10:54:30Z</time>
      </trkpt>
      <trkpt lat="45.25629" lon="6.12975">
        <ele>2166</ele>
        <time>2021-12-23T10:54:31Z</time>
      </trkpt>
      <trkpt lat="45.25629" lon="6.12974">
        <ele>2166</ele>
        <time>2021-12-23T10:54:32Z</time>
      </trkpt>
      <trkpt lat="45.25629" lon="6.12973">
        <ele>2166</ele>
        <time>2021-12-23T10:54:33Z</time>
      </trkpt>
      <trkpt lat="45.25628" lon="6.12974">
        <ele>2166</ele>
        <time>2021-12-23T10:54:34Z</time>
      </trkpt>
      <trkpt lat="45.25627" lon="6.12975">
        <ele>2166</ele>
        <time>2021-12-23T10:54:35Z</time>
      </trkpt>
      <trkpt lat="45.25625" lon="6.12976">
        <ele>2166</ele>
        <time>2021-12-23T10:54:36Z</time>
      </trkpt>
      <trkpt lat="45.25624" lon="6.12977">
        <ele>2166</ele>
        <time>2021-12-23T10:54:38Z</time>
      </trkpt>
      <trkpt lat="45.25623" lon="6.12978">
        <ele>2166</ele>
        <time>2021-12-23T10:54:39Z</time>
      </trkpt>
      <trkpt lat="45.25622" lon="6.12979">
        <ele>2166</ele>
        <time>2021-12-23T10:54:40Z</time>
      </trkpt>
      <trkpt lat="45.25621" lon="6.12979">
        <ele>2166</ele>
        <time>2021-12-23T10:54:41Z</time>
      </trkpt>
      <trkpt lat="45.25621" lon="6.12978">
        <ele>2167</ele>
        <time>2021-12-23T10:54:42Z</time>
      </trkpt>
      <trkpt lat="45.2562" lon="6.12978">
        <ele>2167</ele>
        <time>2021-12-23T10:54:43Z</time>
      </trkpt>
      <trkpt lat="45.2562" lon="6.12977">
        <ele>2166</ele>
        <time>2021-12-23T10:54:44Z</time>
      </trkpt>
      <trkpt lat="45.25619" lon="6.12977">
        <ele>2166</ele>
        <time>2021-12-23T10:54:45Z</time>
      </trkpt>
      <trkpt lat="45.25619" lon="6.12976">
        <ele>2166</ele>
        <time>2021-12-23T10:54:46Z</time>
      </trkpt>
      <trkpt lat="45.25618" lon="6.12976">
        <ele>2166</ele>
        <time>2021-12-23T10:54:47Z</time>
      </trkpt>
      <trkpt lat="45.25618" lon="6.12975">
        <ele>2166</ele>
        <time>2021-12-23T10:54:48Z</time>
      </trkpt>
      <trkpt lat="45.25618" lon="6.12975">
        <ele>2166</ele>
        <time>2021-12-23T10:54:49Z</time>
      </trkpt>
      <trkpt lat="45.25617" lon="6.12974">
        <ele>2166</ele>
        <time>2021-12-23T10:54:50Z</time>
      </trkpt>
      <trkpt lat="45.25617" lon="6.12974">
        <ele>2166</ele>
        <time>2021-12-23T10:54:51Z</time>
      </trkpt>
      <trkpt lat="45.25616" lon="6.12974">
        <ele>2166</ele>
        <time>2021-12-23T10:54:52Z</time>
      </trkpt>
      <trkpt lat="45.25616" lon="6.12973">
        <ele>2166</ele>
        <time>2021-12-23T10:54:53Z</time>
      </trkpt>
      <trkpt lat="45.25615" lon="6.12973">
        <ele>2166</ele>
        <time>2021-12-23T10:54:54Z</time>
      </trkpt>
      <trkpt lat="45.25615" lon="6.12972">
        <ele>2167</ele>
        <time>2021-12-23T10:54:55Z</time>
      </trkpt>
      <trkpt lat="45.25614" lon="6.12972">
        <ele>2168</ele>
        <time>2021-12-23T10:54:57Z</time>
      </trkpt>
      <trkpt lat="45.25614" lon="6.12971">
        <ele>2168</ele>
        <time>2021-12-23T10:54:58Z</time>
      </trkpt>
      <trkpt lat="45.25614" lon="6.12971">
        <ele>2168</ele>
        <time>2021-12-23T10:54:59Z</time>
      </trkpt>
      <trkpt lat="45.25614" lon="6.12971">
        <ele>2168</ele>
        <time>2021-12-23T10:55:00Z</time>
      </trkpt>
      <trkpt lat="45.25614" lon="6.12971">
        <ele>2168</ele>
        <time>2021-12-23T10:55:01Z</time>
      </trkpt>
      <trkpt lat="45.25614" lon="6.12971">
        <ele>2168</ele>
        <time>2021-12-23T10:55:02Z</time>
      </trkpt>
      <trkpt lat="45.25614" lon="6.12971">
        <ele>2168</ele>
        <time>2021-12-23T10:55:03Z</time>
      </trkpt>
      <trkpt lat="45.25614" lon="6.12971">
        <ele>2168</ele>
        <time>2021-12-23T10:55:04Z</time>
      </trkpt>
      <trkpt lat="45.25614" lon="6.12971">
        <ele>2168</ele>
        <time>2021-12-23T10:55:05Z</time>
      </trkpt>
      <trkpt lat="45.25614" lon="6.12971">
        <ele>2168</ele>
        <time>2021-12-23T10:55:06Z</time>
      </trkpt>
      <trkpt lat="45.25614" lon="6.12971">
        <ele>2169</ele>
        <time>2021-12-23T10:55:07Z</time>
      </trkpt>
      <trkpt lat="45.25614" lon="6.12971">
        <ele>2169</ele>
        <time>2021-12-23T10:55:08Z</time>
      </trkpt>
      <trkpt lat="45.25614" lon="6.12971">
        <ele>2169</ele>
        <time>2021-12-23T10:55:09Z</time>
      </trkpt>
      <trkpt lat="45.25604" lon="6.12971">
        <ele>2170</ele>
        <time>2021-12-23T10:55:10Z</time>
      </trkpt>
      <trkpt lat="45.25604" lon="6.12971">
        <ele>2170</ele>
        <time>2021-12-23T10:55:12Z</time>
      </trkpt>
      <trkpt lat="45.25604" lon="6.12971">
        <ele>2170</ele>
        <time>2021-12-23T10:55:13Z</time>
      </trkpt>
      <trkpt lat="45.25603" lon="6.12972">
        <ele>2170</ele>
        <time>2021-12-23T10:55:14Z</time>
      </trkpt>
      <trkpt lat="45.25603" lon="6.12972">
        <ele>2170</ele>
        <time>2021-12-23T10:55:16Z</time>
      </trkpt>
      <trkpt lat="45.25602" lon="6.12972">
        <ele>2170</ele>
        <time>2021-12-23T10:55:17Z</time>
      </trkpt>
      <trkpt lat="45.25601" lon="6.12972">
        <ele>2172</ele>
        <time>2021-12-23T10:55:18Z</time>
      </trkpt>
      <trkpt lat="45.25601" lon="6.12973">
        <ele>2172</ele>
        <time>2021-12-23T10:55:19Z</time>
      </trkpt>
      <trkpt lat="45.256" lon="6.12973">
        <ele>2172</ele>
        <time>2021-12-23T10:55:20Z</time>
      </trkpt>
      <trkpt lat="45.256" lon="6.12973">
        <ele>2172</ele>
        <time>2021-12-23T10:55:21Z</time>
      </trkpt>
      <trkpt lat="45.25599" lon="6.12973">
        <ele>2172</ele>
        <time>2021-12-23T10:55:22Z</time>
      </trkpt>
      <trkpt lat="45.25599" lon="6.12974">
        <ele>2172</ele>
        <time>2021-12-23T10:55:23Z</time>
      </trkpt>
      <trkpt lat="45.25598" lon="6.12974">
        <ele>2172</ele>
        <time>2021-12-23T10:55:24Z</time>
      </trkpt>
      <trkpt lat="45.25598" lon="6.12974">
        <ele>2172</ele>
        <time>2021-12-23T10:55:25Z</time>
      </trkpt>
      <trkpt lat="45.25597" lon="6.12974">
        <ele>2172</ele>
        <time>2021-12-23T10:55:26Z</time>
      </trkpt>
      <trkpt lat="45.25596" lon="6.12974">
        <ele>2172</ele>
        <time>2021-12-23T10:55:27Z</time>
      </trkpt>
      <trkpt lat="45.25596" lon="6.12975">
        <ele>2172</ele>
        <time>2021-12-23T10:55:28Z</time>
      </trkpt>
      <trkpt lat="45.25595" lon="6.12975">
        <ele>2173</ele>
        <time>2021-12-23T10:55:29Z</time>
      </trkpt>
      <trkpt lat="45.25595" lon="6.12975">
        <ele>2173</ele>
        <time>2021-12-23T10:55:30Z</time>
      </trkpt>
      <trkpt lat="45.25594" lon="6.12975">
        <ele>2173</ele>
        <time>2021-12-23T10:55:31Z</time>
      </trkpt>
      <trkpt lat="45.25593" lon="6.12975">
        <ele>2173</ele>
        <time>2021-12-23T10:55:32Z</time>
      </trkpt>
      <trkpt lat="45.25592" lon="6.12976">
        <ele>2174</ele>
        <time>2021-12-23T10:55:33Z</time>
      </trkpt>
      <trkpt lat="45.25591" lon="6.12976">
        <ele>2174</ele>
        <time>2021-12-23T10:55:35Z</time>
      </trkpt>
      <trkpt lat="45.2559" lon="6.12976">
        <ele>2174</ele>
        <time>2021-12-23T10:55:36Z</time>
      </trkpt>
      <trkpt lat="45.25589" lon="6.12976">
        <ele>2174</ele>
        <time>2021-12-23T10:55:37Z</time>
      </trkpt>
      <trkpt lat="45.25588" lon="6.12976">
        <ele>2175</ele>
        <time>2021-12-23T10:55:38Z</time>
      </trkpt>
      <trkpt lat="45.25588" lon="6.12976">
        <ele>2175</ele>
        <time>2021-12-23T10:55:39Z</time>
      </trkpt>
      <trkpt lat="45.25587" lon="6.12976">
        <ele>2175</ele>
        <time>2021-12-23T10:55:40Z</time>
      </trkpt>
      <trkpt lat="45.25586" lon="6.12976">
        <ele>2175</ele>
        <time>2021-12-23T10:55:41Z</time>
      </trkpt>
      <trkpt lat="45.25586" lon="6.12976">
        <ele>2175</ele>
        <time>2021-12-23T10:55:42Z</time>
      </trkpt>
      <trkpt lat="45.25586" lon="6.12976">
        <ele>2175</ele>
        <time>2021-12-23T10:55:43Z</time>
      </trkpt>
      <trkpt lat="45.25586" lon="6.12976">
        <ele>2175</ele>
        <time>2021-12-23T10:55:44Z</time>
      </trkpt>
      <trkpt lat="45.25586" lon="6.12976">
        <ele>2176</ele>
        <time>2021-12-23T10:55:45Z</time>
      </trkpt>
      <trkpt lat="45.25586" lon="6.12976">
        <ele>2176</ele>
        <time>2021-12-23T10:55:46Z</time>
      </trkpt>
      <trkpt lat="45.25586" lon="6.12976">
        <ele>2177</ele>
        <time>2021-12-23T10:55:47Z</time>
      </trkpt>
      <trkpt lat="45.25586" lon="6.12976">
        <ele>2177</ele>
        <time>2021-12-23T10:55:48Z</time>
      </trkpt>
      <trkpt lat="45.25586" lon="6.12976">
        <ele>2177</ele>
        <time>2021-12-23T10:55:50Z</time>
      </trkpt>
      <trkpt lat="45.25586" lon="6.12976">
        <ele>2177</ele>
        <time>2021-12-23T10:55:51Z</time>
      </trkpt>
      <trkpt lat="45.25576" lon="6.12973">
        <ele>2177</ele>
        <time>2021-12-23T10:55:52Z</time>
      </trkpt>
      <trkpt lat="45.25576" lon="6.12973">
        <ele>2177</ele>
        <time>2021-12-23T10:55:54Z</time>
      </trkpt>
      <trkpt lat="45.25576" lon="6.12973">
        <ele>2177</ele>
        <time>2021-12-23T10:55:55Z</time>
      </trkpt>
      <trkpt lat="45.25575" lon="6.12973">
        <ele>2177</ele>
        <time>2021-12-23T10:55:56Z</time>
      </trkpt>
      <trkpt lat="45.25574" lon="6.12972">
        <ele>2177</ele>
        <time>2021-12-23T10:55:57Z</time>
      </trkpt>
      <trkpt lat="45.25574" lon="6.12972">
        <ele>2178</ele>
        <time>2021-12-23T10:55:58Z</time>
      </trkpt>
      <trkpt lat="45.25573" lon="6.12972">
        <ele>2178</ele>
        <time>2021-12-23T10:55:59Z</time>
      </trkpt>
      <trkpt lat="45.25572" lon="6.12972">
        <ele>2179</ele>
        <time>2021-12-23T10:56:00Z</time>
      </trkpt>
      <trkpt lat="45.25572" lon="6.12971">
        <ele>2179</ele>
        <time>2021-12-23T10:56:01Z</time>
      </trkpt>
      <trkpt lat="45.25571" lon="6.12971">
        <ele>2179</ele>
        <time>2021-12-23T10:56:02Z</time>
      </trkpt>
      <trkpt lat="45.2557" lon="6.12971">
        <ele>2179</ele>
        <time>2021-12-23T10:56:03Z</time>
      </trkpt>
      <trkpt lat="45.2557" lon="6.12971">
        <ele>2179</ele>
        <time>2021-12-23T10:56:04Z</time>
      </trkpt>
      <trkpt lat="45.25569" lon="6.12971">
        <ele>2180</ele>
        <time>2021-12-23T10:56:05Z</time>
      </trkpt>
      <trkpt lat="45.25568" lon="6.1297">
        <ele>2180</ele>
        <time>2021-12-23T10:56:06Z</time>
      </trkpt>
      <trkpt lat="45.25568" lon="6.1297">
        <ele>2180</ele>
        <time>2021-12-23T10:56:07Z</time>
      </trkpt>
      <trkpt lat="45.25568" lon="6.1297">
        <ele>2180</ele>
        <time>2021-12-23T10:56:08Z</time>
      </trkpt>
      <trkpt lat="45.25568" lon="6.1297">
        <ele>2180</ele>
        <time>2021-12-23T10:56:09Z</time>
      </trkpt>
      <trkpt lat="45.25568" lon="6.1297">
        <ele>2180</ele>
        <time>2021-12-23T10:56:10Z</time>
      </trkpt>
      <trkpt lat="45.25568" lon="6.1297">
        <ele>2180</ele>
        <time>2021-12-23T10:56:11Z</time>
      </trkpt>
      <trkpt lat="45.25568" lon="6.1297">
        <ele>2181</ele>
        <time>2021-12-23T10:56:13Z</time>
      </trkpt>
      <trkpt lat="45.25568" lon="6.1297">
        <ele>2181</ele>
        <time>2021-12-23T10:56:14Z</time>
      </trkpt>
      <trkpt lat="45.25568" lon="6.1297">
        <ele>2181</ele>
        <time>2021-12-23T10:56:15Z</time>
      </trkpt>
      <trkpt lat="45.25568" lon="6.1297">
        <ele>2181</ele>
        <time>2021-12-23T10:56:16Z</time>
      </trkpt>
      <trkpt lat="45.25568" lon="6.1297">
        <ele>2181</ele>
        <time>2021-12-23T10:56:17Z</time>
      </trkpt>
      <trkpt lat="45.25558" lon="6.12968">
        <ele>2181</ele>
        <time>2021-12-23T10:56:18Z</time>
      </trkpt>
      <trkpt lat="45.25558" lon="6.12968">
        <ele>2182</ele>
        <time>2021-12-23T10:56:20Z</time>
      </trkpt>
      <trkpt lat="45.25558" lon="6.12968">
        <ele>2182</ele>
        <time>2021-12-23T10:56:21Z</time>
      </trkpt>
      <trkpt lat="45.25558" lon="6.12968">
        <ele>2182</ele>
        <time>2021-12-23T10:56:22Z</time>
      </trkpt>
      <trkpt lat="45.25558" lon="6.12968">
        <ele>2182</ele>
        <time>2021-12-23T10:56:23Z</time>
      </trkpt>
      <trkpt lat="45.25558" lon="6.12968">
        <ele>2182</ele>
        <time>2021-12-23T10:56:24Z</time>
      </trkpt>
      <trkpt lat="45.25558" lon="6.12968">
        <ele>2182</ele>
        <time>2021-12-23T10:56:25Z</time>
      </trkpt>
      <trkpt lat="45.25558" lon="6.12968">
        <ele>2182</ele>
        <time>2021-12-23T10:56:26Z</time>
      </trkpt>
      <trkpt lat="45.25558" lon="6.12968">
        <ele>2182</ele>
        <time>2021-12-23T10:56:27Z</time>
      </trkpt>
      <trkpt lat="45.25558" lon="6.12968">
        <ele>2182</ele>
        <time>2021-12-23T10:56:28Z</time>
      </trkpt>
      <trkpt lat="45.25558" lon="6.12968">
        <ele>2183</ele>
        <time>2021-12-23T10:56:29Z</time>
      </trkpt>
      <trkpt lat="45.25558" lon="6.12968">
        <ele>2183</ele>
        <time>2021-12-23T10:56:30Z</time>
      </trkpt>
      <trkpt lat="45.25549" lon="6.12964">
        <ele>2184</ele>
        <time>2021-12-23T10:56:32Z</time>
      </trkpt>
      <trkpt lat="45.25549" lon="6.12964">
        <ele>2184</ele>
        <time>2021-12-23T10:56:33Z</time>
      </trkpt>
      <trkpt lat="45.25548" lon="6.12963">
        <ele>2184</ele>
        <time>2021-12-23T10:56:34Z</time>
      </trkpt>
      <trkpt lat="45.25547" lon="6.12963">
        <ele>2184</ele>
        <time>2021-12-23T10:56:35Z</time>
      </trkpt>
      <trkpt lat="45.25547" lon="6.12962">
        <ele>2184</ele>
        <time>2021-12-23T10:56:36Z</time>
      </trkpt>
      <trkpt lat="45.25546" lon="6.12961">
        <ele>2184</ele>
        <time>2021-12-23T10:56:37Z</time>
      </trkpt>
      <trkpt lat="45.25545" lon="6.12961">
        <ele>2184</ele>
        <time>2021-12-23T10:56:38Z</time>
      </trkpt>
      <trkpt lat="45.25545" lon="6.1296">
        <ele>2185</ele>
        <time>2021-12-23T10:56:39Z</time>
      </trkpt>
      <trkpt lat="45.25544" lon="6.1296">
        <ele>2185</ele>
        <time>2021-12-23T10:56:40Z</time>
      </trkpt>
      <trkpt lat="45.25543" lon="6.12959">
        <ele>2185</ele>
        <time>2021-12-23T10:56:41Z</time>
      </trkpt>
      <trkpt lat="45.25543" lon="6.12959">
        <ele>2186</ele>
        <time>2021-12-23T10:56:42Z</time>
      </trkpt>
      <trkpt lat="45.25542" lon="6.12958">
        <ele>2186</ele>
        <time>2021-12-23T10:56:43Z</time>
      </trkpt>
      <trkpt lat="45.25541" lon="6.12957">
        <ele>2186</ele>
        <time>2021-12-23T10:56:44Z</time>
      </trkpt>
      <trkpt lat="45.25541" lon="6.12957">
        <ele>2186</ele>
        <time>2021-12-23T10:56:45Z</time>
      </trkpt>
      <trkpt lat="45.2554" lon="6.12956">
        <ele>2186</ele>
        <time>2021-12-23T10:56:46Z</time>
      </trkpt>
      <trkpt lat="45.25539" lon="6.12955">
        <ele>2186</ele>
        <time>2021-12-23T10:56:47Z</time>
      </trkpt>
      <trkpt lat="45.25539" lon="6.12954">
        <ele>2186</ele>
        <time>2021-12-23T10:56:48Z</time>
      </trkpt>
      <trkpt lat="45.25538" lon="6.12953">
        <ele>2187</ele>
        <time>2021-12-23T10:56:49Z</time>
      </trkpt>
      <trkpt lat="45.25537" lon="6.12952">
        <ele>2187</ele>
        <time>2021-12-23T10:56:51Z</time>
      </trkpt>
      <trkpt lat="45.25537" lon="6.12952">
        <ele>2187</ele>
        <time>2021-12-23T10:56:52Z</time>
      </trkpt>
      <trkpt lat="45.25536" lon="6.12951">
        <ele>2187</ele>
        <time>2021-12-23T10:56:53Z</time>
      </trkpt>
      <trkpt lat="45.25535" lon="6.1295">
        <ele>2187</ele>
        <time>2021-12-23T10:56:54Z</time>
      </trkpt>
      <trkpt lat="45.25535" lon="6.12949">
        <ele>2188</ele>
        <time>2021-12-23T10:56:55Z</time>
      </trkpt>
      <trkpt lat="45.25535" lon="6.12949">
        <ele>2188</ele>
        <time>2021-12-23T10:56:56Z</time>
      </trkpt>
      <trkpt lat="45.25535" lon="6.12949">
        <ele>2188</ele>
        <time>2021-12-23T10:56:57Z</time>
      </trkpt>
      <trkpt lat="45.25535" lon="6.12949">
        <ele>2188</ele>
        <time>2021-12-23T10:56:58Z</time>
      </trkpt>
      <trkpt lat="45.25535" lon="6.12949">
        <ele>2188</ele>
        <time>2021-12-23T10:56:59Z</time>
      </trkpt>
      <trkpt lat="45.25535" lon="6.12949">
        <ele>2188</ele>
        <time>2021-12-23T10:57:00Z</time>
      </trkpt>
      <trkpt lat="45.25535" lon="6.12949">
        <ele>2188</ele>
        <time>2021-12-23T10:57:01Z</time>
      </trkpt>
      <trkpt lat="45.25535" lon="6.12949">
        <ele>2188</ele>
        <time>2021-12-23T10:57:02Z</time>
      </trkpt>
      <trkpt lat="45.25535" lon="6.12949">
        <ele>2188</ele>
        <time>2021-12-23T10:57:03Z</time>
      </trkpt>
      <trkpt lat="45.25535" lon="6.12949">
        <ele>2188</ele>
        <time>2021-12-23T10:57:04Z</time>
      </trkpt>
      <trkpt lat="45.25535" lon="6.12949">
        <ele>2189</ele>
        <time>2021-12-23T10:57:05Z</time>
      </trkpt>
      <trkpt lat="45.25535" lon="6.12949">
        <ele>2189</ele>
        <time>2021-12-23T10:57:06Z</time>
      </trkpt>
      <trkpt lat="45.25535" lon="6.12949">
        <ele>2189</ele>
        <time>2021-12-23T10:57:07Z</time>
      </trkpt>
      <trkpt lat="45.25526" lon="6.12943">
        <ele>2190</ele>
        <time>2021-12-23T10:57:08Z</time>
      </trkpt>
      <trkpt lat="45.25526" lon="6.12943">
        <ele>2190</ele>
        <time>2021-12-23T10:57:10Z</time>
      </trkpt>
      <trkpt lat="45.25526" lon="6.12943">
        <ele>2190</ele>
        <time>2021-12-23T10:57:11Z</time>
      </trkpt>
      <trkpt lat="45.25526" lon="6.12943">
        <ele>2191</ele>
        <time>2021-12-23T10:57:12Z</time>
      </trkpt>
      <trkpt lat="45.25526" lon="6.12943">
        <ele>2191</ele>
        <time>2021-12-23T10:57:13Z</time>
      </trkpt>
      <trkpt lat="45.25526" lon="6.12943">
        <ele>2191</ele>
        <time>2021-12-23T10:57:14Z</time>
      </trkpt>
      <trkpt lat="45.25526" lon="6.12943">
        <ele>2191</ele>
        <time>2021-12-23T10:57:15Z</time>
      </trkpt>
      <trkpt lat="45.25526" lon="6.12943">
        <ele>2191</ele>
        <time>2021-12-23T10:57:16Z</time>
      </trkpt>
      <trkpt lat="45.25526" lon="6.12943">
        <ele>2191</ele>
        <time>2021-12-23T10:57:17Z</time>
      </trkpt>
      <trkpt lat="45.25526" lon="6.12943">
        <ele>2192</ele>
        <time>2021-12-23T10:57:18Z</time>
      </trkpt>
      <trkpt lat="45.25526" lon="6.12943">
        <ele>2192</ele>
        <time>2021-12-23T10:57:19Z</time>
      </trkpt>
      <trkpt lat="45.25526" lon="6.12943">
        <ele>2192</ele>
        <time>2021-12-23T10:57:20Z</time>
      </trkpt>
      <trkpt lat="45.25526" lon="6.12943">
        <ele>2192</ele>
        <time>2021-12-23T10:57:21Z</time>
      </trkpt>
      <trkpt lat="45.25526" lon="6.12943">
        <ele>2192</ele>
        <time>2021-12-23T10:57:22Z</time>
      </trkpt>
      <trkpt lat="45.25526" lon="6.12943">
        <ele>2192</ele>
        <time>2021-12-23T10:57:23Z</time>
      </trkpt>
      <trkpt lat="45.25526" lon="6.12943">
        <ele>2192</ele>
        <time>2021-12-23T10:57:24Z</time>
      </trkpt>
      <trkpt lat="45.25526" lon="6.12943">
        <ele>2193</ele>
        <time>2021-12-23T10:57:25Z</time>
      </trkpt>
      <trkpt lat="45.25526" lon="6.12943">
        <ele>2193</ele>
        <time>2021-12-23T10:57:26Z</time>
      </trkpt>
      <trkpt lat="45.25526" lon="6.12943">
        <ele>2193</ele>
        <time>2021-12-23T10:57:27Z</time>
      </trkpt>
      <trkpt lat="45.25526" lon="6.12943">
        <ele>2194</ele>
        <time>2021-12-23T10:57:29Z</time>
      </trkpt>
      <trkpt lat="45.25526" lon="6.12943">
        <ele>2194</ele>
        <time>2021-12-23T10:57:30Z</time>
      </trkpt>
      <trkpt lat="45.25526" lon="6.12943">
        <ele>2194</ele>
        <time>2021-12-23T10:57:31Z</time>
      </trkpt>
      <trkpt lat="45.25526" lon="6.12943">
        <ele>2194</ele>
        <time>2021-12-23T10:57:32Z</time>
      </trkpt>
      <trkpt lat="45.25518" lon="6.12951">
        <ele>2195</ele>
        <time>2021-12-23T10:57:33Z</time>
      </trkpt>
      <trkpt lat="45.25518" lon="6.12951">
        <ele>2195</ele>
        <time>2021-12-23T10:57:35Z</time>
      </trkpt>
      <trkpt lat="45.25518" lon="6.12951">
        <ele>2195</ele>
        <time>2021-12-23T10:57:36Z</time>
      </trkpt>
      <trkpt lat="45.25517" lon="6.12951">
        <ele>2195</ele>
        <time>2021-12-23T10:57:37Z</time>
      </trkpt>
      <trkpt lat="45.25516" lon="6.12951">
        <ele>2195</ele>
        <time>2021-12-23T10:57:38Z</time>
      </trkpt>
      <trkpt lat="45.25516" lon="6.12951">
        <ele>2195</ele>
        <time>2021-12-23T10:57:39Z</time>
      </trkpt>
      <trkpt lat="45.25515" lon="6.12951">
        <ele>2195</ele>
        <time>2021-12-23T10:57:40Z</time>
      </trkpt>
      <trkpt lat="45.25514" lon="6.12951">
        <ele>2195</ele>
        <time>2021-12-23T10:57:41Z</time>
      </trkpt>
      <trkpt lat="45.25513" lon="6.12951">
        <ele>2195</ele>
        <time>2021-12-23T10:57:42Z</time>
      </trkpt>
      <trkpt lat="45.25513" lon="6.12951">
        <ele>2196</ele>
        <time>2021-12-23T10:57:43Z</time>
      </trkpt>
      <trkpt lat="45.25512" lon="6.12951">
        <ele>2196</ele>
        <time>2021-12-23T10:57:44Z</time>
      </trkpt>
      <trkpt lat="45.25511" lon="6.12951">
        <ele>2196</ele>
        <time>2021-12-23T10:57:45Z</time>
      </trkpt>
      <trkpt lat="45.25511" lon="6.12951">
        <ele>2196</ele>
        <time>2021-12-23T10:57:46Z</time>
      </trkpt>
      <trkpt lat="45.2551" lon="6.12951">
        <ele>2196</ele>
        <time>2021-12-23T10:57:48Z</time>
      </trkpt>
      <trkpt lat="45.25509" lon="6.12951">
        <ele>2196</ele>
        <time>2021-12-23T10:57:49Z</time>
      </trkpt>
      <trkpt lat="45.25508" lon="6.12951">
        <ele>2196</ele>
        <time>2021-12-23T10:57:50Z</time>
      </trkpt>
      <trkpt lat="45.25508" lon="6.12951">
        <ele>2196</ele>
        <time>2021-12-23T10:57:51Z</time>
      </trkpt>
      <trkpt lat="45.25508" lon="6.12951">
        <ele>2196</ele>
        <time>2021-12-23T10:57:52Z</time>
      </trkpt>
      <trkpt lat="45.25508" lon="6.12951">
        <ele>2196</ele>
        <time>2021-12-23T10:57:53Z</time>
      </trkpt>
      <trkpt lat="45.25508" lon="6.12951">
        <ele>2196</ele>
        <time>2021-12-23T10:57:54Z</time>
      </trkpt>
      <trkpt lat="45.25508" lon="6.12951">
        <ele>2197</ele>
        <time>2021-12-23T10:57:55Z</time>
      </trkpt>
      <trkpt lat="45.25508" lon="6.12951">
        <ele>2197</ele>
        <time>2021-12-23T10:57:56Z</time>
      </trkpt>
      <trkpt lat="45.25508" lon="6.12951">
        <ele>2198</ele>
        <time>2021-12-23T10:57:57Z</time>
      </trkpt>
      <trkpt lat="45.25508" lon="6.12951">
        <ele>2198</ele>
        <time>2021-12-23T10:57:58Z</time>
      </trkpt>
      <trkpt lat="45.25508" lon="6.12951">
        <ele>2198</ele>
        <time>2021-12-23T10:57:59Z</time>
      </trkpt>
      <trkpt lat="45.25508" lon="6.12951">
        <ele>2198</ele>
        <time>2021-12-23T10:58:00Z</time>
      </trkpt>
      <trkpt lat="45.25508" lon="6.12951">
        <ele>2198</ele>
        <time>2021-12-23T10:58:01Z</time>
      </trkpt>
      <trkpt lat="45.25508" lon="6.12951">
        <ele>2198</ele>
        <time>2021-12-23T10:58:02Z</time>
      </trkpt>
      <trkpt lat="45.25508" lon="6.12951">
        <ele>2198</ele>
        <time>2021-12-23T10:58:03Z</time>
      </trkpt>
      <trkpt lat="45.25508" lon="6.12951">
        <ele>2199</ele>
        <time>2021-12-23T10:58:04Z</time>
      </trkpt>
      <trkpt lat="45.25499" lon="6.12952">
        <ele>2199</ele>
        <time>2021-12-23T10:58:05Z</time>
      </trkpt>
      <trkpt lat="45.25499" lon="6.12952">
        <ele>2199</ele>
        <time>2021-12-23T10:58:07Z</time>
      </trkpt>
      <trkpt lat="45.25499" lon="6.12952">
        <ele>2199</ele>
        <time>2021-12-23T10:58:08Z</time>
      </trkpt>
      <trkpt lat="45.25498" lon="6.12952">
        <ele>2199</ele>
        <time>2021-12-23T10:58:09Z</time>
      </trkpt>
      <trkpt lat="45.25498" lon="6.12951">
        <ele>2200</ele>
        <time>2021-12-23T10:58:10Z</time>
      </trkpt>
      <trkpt lat="45.25497" lon="6.12951">
        <ele>2200</ele>
        <time>2021-12-23T10:58:11Z</time>
      </trkpt>
      <trkpt lat="45.25496" lon="6.12951">
        <ele>2200</ele>
        <time>2021-12-23T10:58:12Z</time>
      </trkpt>
      <trkpt lat="45.25496" lon="6.12951">
        <ele>2200</ele>
        <time>2021-12-23T10:58:13Z</time>
      </trkpt>
      <trkpt lat="45.25495" lon="6.1295">
        <ele>2200</ele>
        <time>2021-12-23T10:58:14Z</time>
      </trkpt>
      <trkpt lat="45.25495" lon="6.1295">
        <ele>2201</ele>
        <time>2021-12-23T10:58:15Z</time>
      </trkpt>
      <trkpt lat="45.25494" lon="6.1295">
        <ele>2201</ele>
        <time>2021-12-23T10:58:16Z</time>
      </trkpt>
      <trkpt lat="45.25494" lon="6.12949">
        <ele>2201</ele>
        <time>2021-12-23T10:58:17Z</time>
      </trkpt>
      <trkpt lat="45.25493" lon="6.12949">
        <ele>2201</ele>
        <time>2021-12-23T10:58:18Z</time>
      </trkpt>
      <trkpt lat="45.25493" lon="6.12949">
        <ele>2201</ele>
        <time>2021-12-23T10:58:19Z</time>
      </trkpt>
      <trkpt lat="45.25492" lon="6.12948">
        <ele>2201</ele>
        <time>2021-12-23T10:58:20Z</time>
      </trkpt>
      <trkpt lat="45.25492" lon="6.12948">
        <ele>2201</ele>
        <time>2021-12-23T10:58:21Z</time>
      </trkpt>
      <trkpt lat="45.25491" lon="6.12948">
        <ele>2201</ele>
        <time>2021-12-23T10:58:22Z</time>
      </trkpt>
      <trkpt lat="45.25491" lon="6.12948">
        <ele>2202</ele>
        <time>2021-12-23T10:58:23Z</time>
      </trkpt>
      <trkpt lat="45.2549" lon="6.12947">
        <ele>2202</ele>
        <time>2021-12-23T10:58:24Z</time>
      </trkpt>
      <trkpt lat="45.2549" lon="6.12947">
        <ele>2202</ele>
        <time>2021-12-23T10:58:26Z</time>
      </trkpt>
      <trkpt lat="45.25489" lon="6.12946">
        <ele>2202</ele>
        <time>2021-12-23T10:58:27Z</time>
      </trkpt>
      <trkpt lat="45.25489" lon="6.12946">
        <ele>2202</ele>
        <time>2021-12-23T10:58:28Z</time>
      </trkpt>
      <trkpt lat="45.25488" lon="6.12945">
        <ele>2203</ele>
        <time>2021-12-23T10:58:29Z</time>
      </trkpt>
      <trkpt lat="45.25488" lon="6.12945">
        <ele>2203</ele>
        <time>2021-12-23T10:58:30Z</time>
      </trkpt>
      <trkpt lat="45.25487" lon="6.12944">
        <ele>2203</ele>
        <time>2021-12-23T10:58:31Z</time>
      </trkpt>
      <trkpt lat="45.25487" lon="6.12944">
        <ele>2204</ele>
        <time>2021-12-23T10:58:32Z</time>
      </trkpt>
      <trkpt lat="45.25486" lon="6.12943">
        <ele>2204</ele>
        <time>2021-12-23T10:58:33Z</time>
      </trkpt>
      <trkpt lat="45.25486" lon="6.12943">
        <ele>2204</ele>
        <time>2021-12-23T10:58:34Z</time>
      </trkpt>
      <trkpt lat="45.25485" lon="6.12943">
        <ele>2204</ele>
        <time>2021-12-23T10:58:35Z</time>
      </trkpt>
      <trkpt lat="45.25485" lon="6.12942">
        <ele>2206</ele>
        <time>2021-12-23T10:58:36Z</time>
      </trkpt>
      <trkpt lat="45.25484" lon="6.12942">
        <ele>2206</ele>
        <time>2021-12-23T10:58:37Z</time>
      </trkpt>
      <trkpt lat="45.25484" lon="6.12941">
        <ele>2206</ele>
        <time>2021-12-23T10:58:38Z</time>
      </trkpt>
      <trkpt lat="45.25483" lon="6.12941">
        <ele>2206</ele>
        <time>2021-12-23T10:58:39Z</time>
      </trkpt>
      <trkpt lat="45.25482" lon="6.12941">
        <ele>2206</ele>
        <time>2021-12-23T10:58:40Z</time>
      </trkpt>
      <trkpt lat="45.25482" lon="6.12941">
        <ele>2207</ele>
        <time>2021-12-23T10:58:41Z</time>
      </trkpt>
      <trkpt lat="45.25481" lon="6.12941">
        <ele>2207</ele>
        <time>2021-12-23T10:58:42Z</time>
      </trkpt>
      <trkpt lat="45.25481" lon="6.12941">
        <ele>2208</ele>
        <time>2021-12-23T10:58:43Z</time>
      </trkpt>
      <trkpt lat="45.2548" lon="6.12941">
        <ele>2208</ele>
        <time>2021-12-23T10:58:45Z</time>
      </trkpt>
      <trkpt lat="45.25479" lon="6.12941">
        <ele>2208</ele>
        <time>2021-12-23T10:58:46Z</time>
      </trkpt>
      <trkpt lat="45.25479" lon="6.12941">
        <ele>2208</ele>
        <time>2021-12-23T10:58:47Z</time>
      </trkpt>
      <trkpt lat="45.25478" lon="6.12941">
        <ele>2208</ele>
        <time>2021-12-23T10:58:48Z</time>
      </trkpt>
      <trkpt lat="45.25477" lon="6.12941">
        <ele>2209</ele>
        <time>2021-12-23T10:58:49Z</time>
      </trkpt>
      <trkpt lat="45.25477" lon="6.12941">
        <ele>2209</ele>
        <time>2021-12-23T10:58:50Z</time>
      </trkpt>
      <trkpt lat="45.25476" lon="6.12941">
        <ele>2209</ele>
        <time>2021-12-23T10:58:51Z</time>
      </trkpt>
      <trkpt lat="45.25475" lon="6.12941">
        <ele>2209</ele>
        <time>2021-12-23T10:58:52Z</time>
      </trkpt>
      <trkpt lat="45.25475" lon="6.12941">
        <ele>2209</ele>
        <time>2021-12-23T10:58:53Z</time>
      </trkpt>
      <trkpt lat="45.25474" lon="6.1294">
        <ele>2209</ele>
        <time>2021-12-23T10:58:54Z</time>
      </trkpt>
      <trkpt lat="45.25474" lon="6.1294">
        <ele>2209</ele>
        <time>2021-12-23T10:58:55Z</time>
      </trkpt>
      <trkpt lat="45.25473" lon="6.12939">
        <ele>2210</ele>
        <time>2021-12-23T10:58:56Z</time>
      </trkpt>
      <trkpt lat="45.25473" lon="6.12939">
        <ele>2210</ele>
        <time>2021-12-23T10:58:57Z</time>
      </trkpt>
      <trkpt lat="45.25472" lon="6.12938">
        <ele>2210</ele>
        <time>2021-12-23T10:58:58Z</time>
      </trkpt>
      <trkpt lat="45.25471" lon="6.12938">
        <ele>2210</ele>
        <time>2021-12-23T10:58:59Z</time>
      </trkpt>
      <trkpt lat="45.25471" lon="6.12937">
        <ele>2210</ele>
        <time>2021-12-23T10:59:00Z</time>
      </trkpt>
      <trkpt lat="45.2547" lon="6.12937">
        <ele>2211</ele>
        <time>2021-12-23T10:59:01Z</time>
      </trkpt>
      <trkpt lat="45.2547" lon="6.12936">
        <ele>2211</ele>
        <time>2021-12-23T10:59:02Z</time>
      </trkpt>
      <trkpt lat="45.25469" lon="6.12936">
        <ele>2212</ele>
        <time>2021-12-23T10:59:04Z</time>
      </trkpt>
      <trkpt lat="45.25469" lon="6.12935">
        <ele>2212</ele>
        <time>2021-12-23T10:59:05Z</time>
      </trkpt>
      <trkpt lat="45.25468" lon="6.12935">
        <ele>2213</ele>
        <time>2021-12-23T10:59:06Z</time>
      </trkpt>
      <trkpt lat="45.25467" lon="6.12934">
        <ele>2213</ele>
        <time>2021-12-23T10:59:07Z</time>
      </trkpt>
      <trkpt lat="45.25467" lon="6.12934">
        <ele>2213</ele>
        <time>2021-12-23T10:59:08Z</time>
      </trkpt>
      <trkpt lat="45.25466" lon="6.12934">
        <ele>2213</ele>
        <time>2021-12-23T10:59:09Z</time>
      </trkpt>
      <trkpt lat="45.25466" lon="6.12934">
        <ele>2213</ele>
        <time>2021-12-23T10:59:10Z</time>
      </trkpt>
      <trkpt lat="45.25465" lon="6.12934">
        <ele>2213</ele>
        <time>2021-12-23T10:59:11Z</time>
      </trkpt>
      <trkpt lat="45.25465" lon="6.12934">
        <ele>2213</ele>
        <time>2021-12-23T10:59:12Z</time>
      </trkpt>
      <trkpt lat="45.25464" lon="6.12933">
        <ele>2214</ele>
        <time>2021-12-23T10:59:13Z</time>
      </trkpt>
      <trkpt lat="45.25463" lon="6.12933">
        <ele>2214</ele>
        <time>2021-12-23T10:59:14Z</time>
      </trkpt>
      <trkpt lat="45.25463" lon="6.12933">
        <ele>2214</ele>
        <time>2021-12-23T10:59:15Z</time>
      </trkpt>
      <trkpt lat="45.25462" lon="6.12933">
        <ele>2214</ele>
        <time>2021-12-23T10:59:16Z</time>
      </trkpt>
      <trkpt lat="45.25462" lon="6.12933">
        <ele>2214</ele>
        <time>2021-12-23T10:59:17Z</time>
      </trkpt>
      <trkpt lat="45.25461" lon="6.12933">
        <ele>2214</ele>
        <time>2021-12-23T10:59:18Z</time>
      </trkpt>
      <trkpt lat="45.25461" lon="6.12933">
        <ele>2214</ele>
        <time>2021-12-23T10:59:19Z</time>
      </trkpt>
      <trkpt lat="45.2546" lon="6.12932">
        <ele>2214</ele>
        <time>2021-12-23T10:59:20Z</time>
      </trkpt>
      <trkpt lat="45.25459" lon="6.12932">
        <ele>2214</ele>
        <time>2021-12-23T10:59:21Z</time>
      </trkpt>
      <trkpt lat="45.25459" lon="6.12932">
        <ele>2215</ele>
        <time>2021-12-23T10:59:23Z</time>
      </trkpt>
      <trkpt lat="45.25458" lon="6.12932">
        <ele>2215</ele>
        <time>2021-12-23T10:59:24Z</time>
      </trkpt>
      <trkpt lat="45.25458" lon="6.12931">
        <ele>2215</ele>
        <time>2021-12-23T10:59:25Z</time>
      </trkpt>
      <trkpt lat="45.25457" lon="6.12931">
        <ele>2215</ele>
        <time>2021-12-23T10:59:26Z</time>
      </trkpt>
      <trkpt lat="45.25456" lon="6.1293">
        <ele>2215</ele>
        <time>2021-12-23T10:59:27Z</time>
      </trkpt>
      <trkpt lat="45.25455" lon="6.12929">
        <ele>2215</ele>
        <time>2021-12-23T10:59:28Z</time>
      </trkpt>
      <trkpt lat="45.25455" lon="6.12929">
        <ele>2215</ele>
        <time>2021-12-23T10:59:29Z</time>
      </trkpt>
      <trkpt lat="45.25454" lon="6.12928">
        <ele>2215</ele>
        <time>2021-12-23T10:59:30Z</time>
      </trkpt>
      <trkpt lat="45.25453" lon="6.12928">
        <ele>2215</ele>
        <time>2021-12-23T10:59:31Z</time>
      </trkpt>
      <trkpt lat="45.25452" lon="6.12927">
        <ele>2215</ele>
        <time>2021-12-23T10:59:32Z</time>
      </trkpt>
      <trkpt lat="45.25451" lon="6.12926">
        <ele>2215</ele>
        <time>2021-12-23T10:59:33Z</time>
      </trkpt>
      <trkpt lat="45.25451" lon="6.12926">
        <ele>2216</ele>
        <time>2021-12-23T10:59:34Z</time>
      </trkpt>
      <trkpt lat="45.2545" lon="6.12925">
        <ele>2216</ele>
        <time>2021-12-23T10:59:35Z</time>
      </trkpt>
      <trkpt lat="45.25449" lon="6.12925">
        <ele>2216</ele>
        <time>2021-12-23T10:59:36Z</time>
      </trkpt>
      <trkpt lat="45.25448" lon="6.12924">
        <ele>2216</ele>
        <time>2021-12-23T10:59:37Z</time>
      </trkpt>
      <trkpt lat="45.25447" lon="6.12924">
        <ele>2216</ele>
        <time>2021-12-23T10:59:38Z</time>
      </trkpt>
      <trkpt lat="45.25446" lon="6.12924">
        <ele>2217</ele>
        <time>2021-12-23T10:59:39Z</time>
      </trkpt>
      <trkpt lat="45.25446" lon="6.12924">
        <ele>2217</ele>
        <time>2021-12-23T10:59:40Z</time>
      </trkpt>
      <trkpt lat="45.25445" lon="6.12923">
        <ele>2218</ele>
        <time>2021-12-23T10:59:42Z</time>
      </trkpt>
      <trkpt lat="45.25444" lon="6.12923">
        <ele>2218</ele>
        <time>2021-12-23T10:59:43Z</time>
      </trkpt>
      <trkpt lat="45.25443" lon="6.12923">
        <ele>2217</ele>
        <time>2021-12-23T10:59:44Z</time>
      </trkpt>
      <trkpt lat="45.25442" lon="6.12922">
        <ele>2217</ele>
        <time>2021-12-23T10:59:45Z</time>
      </trkpt>
      <trkpt lat="45.25441" lon="6.12922">
        <ele>2217</ele>
        <time>2021-12-23T10:59:46Z</time>
      </trkpt>
      <trkpt lat="45.2544" lon="6.12922">
        <ele>2218</ele>
        <time>2021-12-23T10:59:47Z</time>
      </trkpt>
      <trkpt lat="45.25438" lon="6.12921">
        <ele>2218</ele>
        <time>2021-12-23T10:59:48Z</time>
      </trkpt>
      <trkpt lat="45.25437" lon="6.1292">
        <ele>2218</ele>
        <time>2021-12-23T10:59:49Z</time>
      </trkpt>
      <trkpt lat="45.25436" lon="6.1292">
        <ele>2218</ele>
        <time>2021-12-23T10:59:50Z</time>
      </trkpt>
      <trkpt lat="45.25434" lon="6.12919">
        <ele>2218</ele>
        <time>2021-12-23T10:59:51Z</time>
      </trkpt>
      <trkpt lat="45.25433" lon="6.12919">
        <ele>2219</ele>
        <time>2021-12-23T10:59:52Z</time>
      </trkpt>
      <trkpt lat="45.25432" lon="6.12918">
        <ele>2219</ele>
        <time>2021-12-23T10:59:53Z</time>
      </trkpt>
      <trkpt lat="45.25432" lon="6.12918">
        <ele>2219</ele>
        <time>2021-12-23T10:59:54Z</time>
      </trkpt>
      <trkpt lat="45.25432" lon="6.12918">
        <ele>2219</ele>
        <time>2021-12-23T10:59:55Z</time>
      </trkpt>
      <trkpt lat="45.25432" lon="6.12918">
        <ele>2219</ele>
        <time>2021-12-23T10:59:56Z</time>
      </trkpt>
      <trkpt lat="45.25432" lon="6.12918">
        <ele>2219</ele>
        <time>2021-12-23T10:59:57Z</time>
      </trkpt>
      <trkpt lat="45.25432" lon="6.12918">
        <ele>2220</ele>
        <time>2021-12-23T10:59:58Z</time>
      </trkpt>
      <trkpt lat="45.25432" lon="6.12918">
        <ele>2220</ele>
        <time>2021-12-23T10:59:59Z</time>
      </trkpt>
      <trkpt lat="45.25432" lon="6.12918">
        <ele>2221</ele>
        <time>2021-12-23T11:00:01Z</time>
      </trkpt>
      <trkpt lat="45.25432" lon="6.12918">
        <ele>2221</ele>
        <time>2021-12-23T11:00:02Z</time>
      </trkpt>
      <trkpt lat="45.25423" lon="6.12921">
        <ele>2221</ele>
        <time>2021-12-23T11:00:03Z</time>
      </trkpt>
      <trkpt lat="45.25423" lon="6.12921">
        <ele>2221</ele>
        <time>2021-12-23T11:00:05Z</time>
      </trkpt>
      <trkpt lat="45.25423" lon="6.12921">
        <ele>2221</ele>
        <time>2021-12-23T11:00:06Z</time>
      </trkpt>
      <trkpt lat="45.25423" lon="6.12921">
        <ele>2221</ele>
        <time>2021-12-23T11:00:07Z</time>
      </trkpt>
      <trkpt lat="45.25423" lon="6.12921">
        <ele>2221</ele>
        <time>2021-12-23T11:00:08Z</time>
      </trkpt>
      <trkpt lat="45.25423" lon="6.12921">
        <ele>2222</ele>
        <time>2021-12-23T11:00:09Z</time>
      </trkpt>
      <trkpt lat="45.25423" lon="6.12921">
        <ele>2222</ele>
        <time>2021-12-23T11:00:10Z</time>
      </trkpt>
      <trkpt lat="45.25423" lon="6.12921">
        <ele>2222</ele>
        <time>2021-12-23T11:00:11Z</time>
      </trkpt>
      <trkpt lat="45.25423" lon="6.12921">
        <ele>2222</ele>
        <time>2021-12-23T11:00:12Z</time>
      </trkpt>
      <trkpt lat="45.25423" lon="6.12921">
        <ele>2222</ele>
        <time>2021-12-23T11:00:13Z</time>
      </trkpt>
      <trkpt lat="45.25423" lon="6.12921">
        <ele>2223</ele>
        <time>2021-12-23T11:00:14Z</time>
      </trkpt>
      <trkpt lat="45.25423" lon="6.12921">
        <ele>2223</ele>
        <time>2021-12-23T11:00:15Z</time>
      </trkpt>
      <trkpt lat="45.25423" lon="6.12921">
        <ele>2223</ele>
        <time>2021-12-23T11:00:16Z</time>
      </trkpt>
      <trkpt lat="45.25423" lon="6.12921">
        <ele>2223</ele>
        <time>2021-12-23T11:00:17Z</time>
      </trkpt>
      <trkpt lat="45.25423" lon="6.12921">
        <ele>2223</ele>
        <time>2021-12-23T11:00:18Z</time>
      </trkpt>
      <trkpt lat="45.25414" lon="6.12923">
        <ele>2224</ele>
        <time>2021-12-23T11:00:20Z</time>
      </trkpt>
      <trkpt lat="45.25413" lon="6.12924">
        <ele>2224</ele>
        <time>2021-12-23T11:00:21Z</time>
      </trkpt>
      <trkpt lat="45.25413" lon="6.12924">
        <ele>2224</ele>
        <time>2021-12-23T11:00:22Z</time>
      </trkpt>
      <trkpt lat="45.25412" lon="6.12925">
        <ele>2224</ele>
        <time>2021-12-23T11:00:23Z</time>
      </trkpt>
      <trkpt lat="45.25412" lon="6.12925">
        <ele>2224</ele>
        <time>2021-12-23T11:00:24Z</time>
      </trkpt>
      <trkpt lat="45.25411" lon="6.12926">
        <ele>2224</ele>
        <time>2021-12-23T11:00:25Z</time>
      </trkpt>
      <trkpt lat="45.25411" lon="6.12926">
        <ele>2224</ele>
        <time>2021-12-23T11:00:26Z</time>
      </trkpt>
      <trkpt lat="45.2541" lon="6.12927">
        <ele>2224</ele>
        <time>2021-12-23T11:00:27Z</time>
      </trkpt>
      <trkpt lat="45.2541" lon="6.12927">
        <ele>2224</ele>
        <time>2021-12-23T11:00:28Z</time>
      </trkpt>
      <trkpt lat="45.25409" lon="6.12928">
        <ele>2224</ele>
        <time>2021-12-23T11:00:29Z</time>
      </trkpt>
      <trkpt lat="45.25409" lon="6.12928">
        <ele>2224</ele>
        <time>2021-12-23T11:00:30Z</time>
      </trkpt>
      <trkpt lat="45.25408" lon="6.12929">
        <ele>2224</ele>
        <time>2021-12-23T11:00:31Z</time>
      </trkpt>
      <trkpt lat="45.25408" lon="6.12929">
        <ele>2224</ele>
        <time>2021-12-23T11:00:32Z</time>
      </trkpt>
      <trkpt lat="45.25407" lon="6.1293">
        <ele>2224</ele>
        <time>2021-12-23T11:00:33Z</time>
      </trkpt>
      <trkpt lat="45.25407" lon="6.1293">
        <ele>2224</ele>
        <time>2021-12-23T11:00:34Z</time>
      </trkpt>
      <trkpt lat="45.25406" lon="6.12931">
        <ele>2225</ele>
        <time>2021-12-23T11:00:35Z</time>
      </trkpt>
      <trkpt lat="45.25406" lon="6.12931">
        <ele>2225</ele>
        <time>2021-12-23T11:00:36Z</time>
      </trkpt>
      <trkpt lat="45.25405" lon="6.12932">
        <ele>2225</ele>
        <time>2021-12-23T11:00:37Z</time>
      </trkpt>
      <trkpt lat="45.25404" lon="6.12932">
        <ele>2226</ele>
        <time>2021-12-23T11:00:39Z</time>
      </trkpt>
      <trkpt lat="45.25403" lon="6.12933">
        <ele>2226</ele>
        <time>2021-12-23T11:00:40Z</time>
      </trkpt>
      <trkpt lat="45.25403" lon="6.12933">
        <ele>2226</ele>
        <time>2021-12-23T11:00:41Z</time>
      </trkpt>
      <trkpt lat="45.25402" lon="6.12934">
        <ele>2226</ele>
        <time>2021-12-23T11:00:42Z</time>
      </trkpt>
      <trkpt lat="45.25401" lon="6.12934">
        <ele>2227</ele>
        <time>2021-12-23T11:00:43Z</time>
      </trkpt>
      <trkpt lat="45.254" lon="6.12935">
        <ele>2227</ele>
        <time>2021-12-23T11:00:44Z</time>
      </trkpt>
      <trkpt lat="45.25399" lon="6.12935">
        <ele>2226</ele>
        <time>2021-12-23T11:00:45Z</time>
      </trkpt>
      <trkpt lat="45.25398" lon="6.12935">
        <ele>2227</ele>
        <time>2021-12-23T11:00:46Z</time>
      </trkpt>
      <trkpt lat="45.25398" lon="6.12936">
        <ele>2227</ele>
        <time>2021-12-23T11:00:47Z</time>
      </trkpt>
      <trkpt lat="45.25397" lon="6.12936">
        <ele>2228</ele>
        <time>2021-12-23T11:00:48Z</time>
      </trkpt>
      <trkpt lat="45.25396" lon="6.12936">
        <ele>2228</ele>
        <time>2021-12-23T11:00:49Z</time>
      </trkpt>
      <trkpt lat="45.25396" lon="6.12936">
        <ele>2228</ele>
        <time>2021-12-23T11:00:50Z</time>
      </trkpt>
      <trkpt lat="45.25395" lon="6.12936">
        <ele>2228</ele>
        <time>2021-12-23T11:00:51Z</time>
      </trkpt>
      <trkpt lat="45.25395" lon="6.12936">
        <ele>2228</ele>
        <time>2021-12-23T11:00:52Z</time>
      </trkpt>
      <trkpt lat="45.25394" lon="6.12936">
        <ele>2228</ele>
        <time>2021-12-23T11:00:53Z</time>
      </trkpt>
      <trkpt lat="45.25393" lon="6.12936">
        <ele>2228</ele>
        <time>2021-12-23T11:00:54Z</time>
      </trkpt>
      <trkpt lat="45.25393" lon="6.12936">
        <ele>2229</ele>
        <time>2021-12-23T11:00:55Z</time>
      </trkpt>
      <trkpt lat="45.25392" lon="6.12936">
        <ele>2230</ele>
        <time>2021-12-23T11:00:56Z</time>
      </trkpt>
      <trkpt lat="45.25392" lon="6.12936">
        <ele>2230</ele>
        <time>2021-12-23T11:00:58Z</time>
      </trkpt>
      <trkpt lat="45.25391" lon="6.12936">
        <ele>2230</ele>
        <time>2021-12-23T11:00:59Z</time>
      </trkpt>
      <trkpt lat="45.2539" lon="6.12935">
        <ele>2230</ele>
        <time>2021-12-23T11:01:00Z</time>
      </trkpt>
      <trkpt lat="45.2539" lon="6.12935">
        <ele>2232</ele>
        <time>2021-12-23T11:01:01Z</time>
      </trkpt>
      <trkpt lat="45.25389" lon="6.12935">
        <ele>2232</ele>
        <time>2021-12-23T11:01:02Z</time>
      </trkpt>
      <trkpt lat="45.25389" lon="6.12936">
        <ele>2232</ele>
        <time>2021-12-23T11:01:03Z</time>
      </trkpt>
      <trkpt lat="45.25388" lon="6.12936">
        <ele>2233</ele>
        <time>2021-12-23T11:01:04Z</time>
      </trkpt>
      <trkpt lat="45.25387" lon="6.12936">
        <ele>2233</ele>
        <time>2021-12-23T11:01:05Z</time>
      </trkpt>
      <trkpt lat="45.25387" lon="6.12936">
        <ele>2233</ele>
        <time>2021-12-23T11:01:06Z</time>
      </trkpt>
      <trkpt lat="45.25386" lon="6.12936">
        <ele>2233</ele>
        <time>2021-12-23T11:01:07Z</time>
      </trkpt>
      <trkpt lat="45.25386" lon="6.12937">
        <ele>2233</ele>
        <time>2021-12-23T11:01:08Z</time>
      </trkpt>
      <trkpt lat="45.25385" lon="6.12937">
        <ele>2233</ele>
        <time>2021-12-23T11:01:09Z</time>
      </trkpt>
      <trkpt lat="45.25385" lon="6.12937">
        <ele>2233</ele>
        <time>2021-12-23T11:01:10Z</time>
      </trkpt>
      <trkpt lat="45.25384" lon="6.12937">
        <ele>2233</ele>
        <time>2021-12-23T11:01:11Z</time>
      </trkpt>
      <trkpt lat="45.25383" lon="6.12937">
        <ele>2233</ele>
        <time>2021-12-23T11:01:12Z</time>
      </trkpt>
      <trkpt lat="45.25383" lon="6.12938">
        <ele>2233</ele>
        <time>2021-12-23T11:01:13Z</time>
      </trkpt>
      <trkpt lat="45.25382" lon="6.12938">
        <ele>2233</ele>
        <time>2021-12-23T11:01:14Z</time>
      </trkpt>
      <trkpt lat="45.25382" lon="6.12938">
        <ele>2234</ele>
        <time>2021-12-23T11:01:15Z</time>
      </trkpt>
      <trkpt lat="45.25381" lon="6.12938">
        <ele>2234</ele>
        <time>2021-12-23T11:01:17Z</time>
      </trkpt>
      <trkpt lat="45.2538" lon="6.12938">
        <ele>2234</ele>
        <time>2021-12-23T11:01:18Z</time>
      </trkpt>
      <trkpt lat="45.25379" lon="6.12939">
        <ele>2234</ele>
        <time>2021-12-23T11:01:19Z</time>
      </trkpt>
      <trkpt lat="45.25378" lon="6.12939">
        <ele>2234</ele>
        <time>2021-12-23T11:01:20Z</time>
      </trkpt>
      <trkpt lat="45.25377" lon="6.12939">
        <ele>2235</ele>
        <time>2021-12-23T11:01:21Z</time>
      </trkpt>
      <trkpt lat="45.25376" lon="6.12939">
        <ele>2235</ele>
        <time>2021-12-23T11:01:22Z</time>
      </trkpt>
      <trkpt lat="45.25375" lon="6.1294">
        <ele>2235</ele>
        <time>2021-12-23T11:01:23Z</time>
      </trkpt>
      <trkpt lat="45.25373" lon="6.1294">
        <ele>2235</ele>
        <time>2021-12-23T11:01:24Z</time>
      </trkpt>
      <trkpt lat="45.25372" lon="6.1294">
        <ele>2235</ele>
        <time>2021-12-23T11:01:25Z</time>
      </trkpt>
      <trkpt lat="45.25371" lon="6.1294">
        <ele>2236</ele>
        <time>2021-12-23T11:01:26Z</time>
      </trkpt>
      <trkpt lat="45.2537" lon="6.12941">
        <ele>2236</ele>
        <time>2021-12-23T11:01:27Z</time>
      </trkpt>
      <trkpt lat="45.25369" lon="6.12941">
        <ele>2236</ele>
        <time>2021-12-23T11:01:28Z</time>
      </trkpt>
      <trkpt lat="45.25368" lon="6.12941">
        <ele>2236</ele>
        <time>2021-12-23T11:01:29Z</time>
      </trkpt>
      <trkpt lat="45.25368" lon="6.12941">
        <ele>2236</ele>
        <time>2021-12-23T11:01:30Z</time>
      </trkpt>
      <trkpt lat="45.25367" lon="6.12942">
        <ele>2237</ele>
        <time>2021-12-23T11:01:31Z</time>
      </trkpt>
      <trkpt lat="45.25367" lon="6.12942">
        <ele>2237</ele>
        <time>2021-12-23T11:01:32Z</time>
      </trkpt>
      <trkpt lat="45.25366" lon="6.12942">
        <ele>2237</ele>
        <time>2021-12-23T11:01:33Z</time>
      </trkpt>
      <trkpt lat="45.25366" lon="6.12942">
        <ele>2237</ele>
        <time>2021-12-23T11:01:34Z</time>
      </trkpt>
      <trkpt lat="45.25365" lon="6.12942">
        <ele>2237</ele>
        <time>2021-12-23T11:01:36Z</time>
      </trkpt>
      <trkpt lat="45.25364" lon="6.12942">
        <ele>2237</ele>
        <time>2021-12-23T11:01:37Z</time>
      </trkpt>
      <trkpt lat="45.25364" lon="6.12943">
        <ele>2237</ele>
        <time>2021-12-23T11:01:38Z</time>
      </trkpt>
      <trkpt lat="45.25363" lon="6.12943">
        <ele>2238</ele>
        <time>2021-12-23T11:01:39Z</time>
      </trkpt>
      <trkpt lat="45.25363" lon="6.12943">
        <ele>2239</ele>
        <time>2021-12-23T11:01:40Z</time>
      </trkpt>
      <trkpt lat="45.25362" lon="6.12943">
        <ele>2239</ele>
        <time>2021-12-23T11:01:41Z</time>
      </trkpt>
      <trkpt lat="45.25362" lon="6.12943">
        <ele>2239</ele>
        <time>2021-12-23T11:01:42Z</time>
      </trkpt>
      <trkpt lat="45.25361" lon="6.12944">
        <ele>2239</ele>
        <time>2021-12-23T11:01:43Z</time>
      </trkpt>
      <trkpt lat="45.25361" lon="6.12944">
        <ele>2239</ele>
        <time>2021-12-23T11:01:44Z</time>
      </trkpt>
      <trkpt lat="45.2536" lon="6.12944">
        <ele>2239</ele>
        <time>2021-12-23T11:01:45Z</time>
      </trkpt>
      <trkpt lat="45.2536" lon="6.12944">
        <ele>2239</ele>
        <time>2021-12-23T11:01:46Z</time>
      </trkpt>
      <trkpt lat="45.25359" lon="6.12944">
        <ele>2239</ele>
        <time>2021-12-23T11:01:47Z</time>
      </trkpt>
      <trkpt lat="45.25358" lon="6.12944">
        <ele>2239</ele>
        <time>2021-12-23T11:01:48Z</time>
      </trkpt>
      <trkpt lat="45.25358" lon="6.12944">
        <ele>2239</ele>
        <time>2021-12-23T11:01:49Z</time>
      </trkpt>
      <trkpt lat="45.25357" lon="6.12944">
        <ele>2239</ele>
        <time>2021-12-23T11:01:50Z</time>
      </trkpt>
      <trkpt lat="45.25357" lon="6.12944">
        <ele>2239</ele>
        <time>2021-12-23T11:01:51Z</time>
      </trkpt>
      <trkpt lat="45.25356" lon="6.12944">
        <ele>2239</ele>
        <time>2021-12-23T11:01:52Z</time>
      </trkpt>
      <trkpt lat="45.25355" lon="6.12944">
        <ele>2240</ele>
        <time>2021-12-23T11:01:53Z</time>
      </trkpt>
      <trkpt lat="45.25355" lon="6.12943">
        <ele>2240</ele>
        <time>2021-12-23T11:01:55Z</time>
      </trkpt>
      <trkpt lat="45.25354" lon="6.12943">
        <ele>2240</ele>
        <time>2021-12-23T11:01:56Z</time>
      </trkpt>
      <trkpt lat="45.25353" lon="6.12943">
        <ele>2240</ele>
        <time>2021-12-23T11:01:57Z</time>
      </trkpt>
      <trkpt lat="45.25353" lon="6.12943">
        <ele>2240</ele>
        <time>2021-12-23T11:01:58Z</time>
      </trkpt>
      <trkpt lat="45.25352" lon="6.12943">
        <ele>2240</ele>
        <time>2021-12-23T11:01:59Z</time>
      </trkpt>
      <trkpt lat="45.25352" lon="6.12943">
        <ele>2240</ele>
        <time>2021-12-23T11:02:00Z</time>
      </trkpt>
      <trkpt lat="45.25351" lon="6.12943">
        <ele>2240</ele>
        <time>2021-12-23T11:02:01Z</time>
      </trkpt>
      <trkpt lat="45.2535" lon="6.12943">
        <ele>2240</ele>
        <time>2021-12-23T11:02:02Z</time>
      </trkpt>
      <trkpt lat="45.2535" lon="6.12943">
        <ele>2240</ele>
        <time>2021-12-23T11:02:03Z</time>
      </trkpt>
      <trkpt lat="45.25349" lon="6.12943">
        <ele>2240</ele>
        <time>2021-12-23T11:02:04Z</time>
      </trkpt>
      <trkpt lat="45.25348" lon="6.12943">
        <ele>2241</ele>
        <time>2021-12-23T11:02:05Z</time>
      </trkpt>
      <trkpt lat="45.25348" lon="6.12943">
        <ele>2241</ele>
        <time>2021-12-23T11:02:06Z</time>
      </trkpt>
      <trkpt lat="45.25347" lon="6.12942">
        <ele>2242</ele>
        <time>2021-12-23T11:02:07Z</time>
      </trkpt>
      <trkpt lat="45.25347" lon="6.12942">
        <ele>2242</ele>
        <time>2021-12-23T11:02:08Z</time>
      </trkpt>
      <trkpt lat="45.25347" lon="6.12942">
        <ele>2242</ele>
        <time>2021-12-23T11:02:09Z</time>
      </trkpt>
      <trkpt lat="45.25347" lon="6.12942">
        <ele>2242</ele>
        <time>2021-12-23T11:02:10Z</time>
      </trkpt>
      <trkpt lat="45.25347" lon="6.12942">
        <ele>2242</ele>
        <time>2021-12-23T11:02:11Z</time>
      </trkpt>
      <trkpt lat="45.25337" lon="6.12945">
        <ele>2242</ele>
        <time>2021-12-23T11:02:12Z</time>
      </trkpt>
      <trkpt lat="45.25337" lon="6.12945">
        <ele>2242</ele>
        <time>2021-12-23T11:02:14Z</time>
      </trkpt>
      <trkpt lat="45.25337" lon="6.12945">
        <ele>2242</ele>
        <time>2021-12-23T11:02:15Z</time>
      </trkpt>
      <trkpt lat="45.25337" lon="6.12945">
        <ele>2242</ele>
        <time>2021-12-23T11:02:16Z</time>
      </trkpt>
      <trkpt lat="45.25337" lon="6.12945">
        <ele>2242</ele>
        <time>2021-12-23T11:02:17Z</time>
      </trkpt>
      <trkpt lat="45.25337" lon="6.12945">
        <ele>2243</ele>
        <time>2021-12-23T11:02:18Z</time>
      </trkpt>
      <trkpt lat="45.25337" lon="6.12945">
        <ele>2243</ele>
        <time>2021-12-23T11:02:19Z</time>
      </trkpt>
      <trkpt lat="45.25337" lon="6.12945">
        <ele>2243</ele>
        <time>2021-12-23T11:02:20Z</time>
      </trkpt>
      <trkpt lat="45.25337" lon="6.12945">
        <ele>2243</ele>
        <time>2021-12-23T11:02:21Z</time>
      </trkpt>
      <trkpt lat="45.25337" lon="6.12945">
        <ele>2243</ele>
        <time>2021-12-23T11:02:22Z</time>
      </trkpt>
      <trkpt lat="45.25337" lon="6.12945">
        <ele>2244</ele>
        <time>2021-12-23T11:02:23Z</time>
      </trkpt>
      <trkpt lat="45.25337" lon="6.12945">
        <ele>2244</ele>
        <time>2021-12-23T11:02:24Z</time>
      </trkpt>
      <trkpt lat="45.25337" lon="6.12945">
        <ele>2244</ele>
        <time>2021-12-23T11:02:25Z</time>
      </trkpt>
      <trkpt lat="45.25337" lon="6.12945">
        <ele>2244</ele>
        <time>2021-12-23T11:02:26Z</time>
      </trkpt>
      <trkpt lat="45.25337" lon="6.12945">
        <ele>2244</ele>
        <time>2021-12-23T11:02:27Z</time>
      </trkpt>
      <trkpt lat="45.25337" lon="6.12945">
        <ele>2244</ele>
        <time>2021-12-23T11:02:28Z</time>
      </trkpt>
      <trkpt lat="45.25337" lon="6.12945">
        <ele>2244</ele>
        <time>2021-12-23T11:02:29Z</time>
      </trkpt>
      <trkpt lat="45.25337" lon="6.12945">
        <ele>2244</ele>
        <time>2021-12-23T11:02:30Z</time>
      </trkpt>
      <trkpt lat="45.25337" lon="6.12945">
        <ele>2244</ele>
        <time>2021-12-23T11:02:31Z</time>
      </trkpt>
      <trkpt lat="45.25337" lon="6.12945">
        <ele>2245</ele>
        <time>2021-12-23T11:02:33Z</time>
      </trkpt>
      <trkpt lat="45.25337" lon="6.12945">
        <ele>2245</ele>
        <time>2021-12-23T11:02:34Z</time>
      </trkpt>
      <trkpt lat="45.25337" lon="6.12945">
        <ele>2245</ele>
        <time>2021-12-23T11:02:35Z</time>
      </trkpt>
      <trkpt lat="45.25337" lon="6.12945">
        <ele>2246</ele>
        <time>2021-12-23T11:02:36Z</time>
      </trkpt>
      <trkpt lat="45.25329" lon="6.12944">
        <ele>2246</ele>
        <time>2021-12-23T11:02:37Z</time>
      </trkpt>
      <trkpt lat="45.25329" lon="6.12944">
        <ele>2246</ele>
        <time>2021-12-23T11:02:39Z</time>
      </trkpt>
      <trkpt lat="45.25327" lon="6.12944">
        <ele>2246</ele>
        <time>2021-12-23T11:02:40Z</time>
      </trkpt>
      <trkpt lat="45.25325" lon="6.12943">
        <ele>2246</ele>
        <time>2021-12-23T11:02:41Z</time>
      </trkpt>
      <trkpt lat="45.25323" lon="6.12943">
        <ele>2247</ele>
        <time>2021-12-23T11:02:42Z</time>
      </trkpt>
      <trkpt lat="45.25321" lon="6.12943">
        <ele>2247</ele>
        <time>2021-12-23T11:02:43Z</time>
      </trkpt>
      <trkpt lat="45.25319" lon="6.12943">
        <ele>2247</ele>
        <time>2021-12-23T11:02:44Z</time>
      </trkpt>
      <trkpt lat="45.25317" lon="6.12942">
        <ele>2247</ele>
        <time>2021-12-23T11:02:45Z</time>
      </trkpt>
      <trkpt lat="45.25316" lon="6.12942">
        <ele>2247</ele>
        <time>2021-12-23T11:02:46Z</time>
      </trkpt>
      <trkpt lat="45.25315" lon="6.12942">
        <ele>2247</ele>
        <time>2021-12-23T11:02:47Z</time>
      </trkpt>
      <trkpt lat="45.25315" lon="6.12941">
        <ele>2247</ele>
        <time>2021-12-23T11:02:48Z</time>
      </trkpt>
      <trkpt lat="45.25314" lon="6.12941">
        <ele>2247</ele>
        <time>2021-12-23T11:02:49Z</time>
      </trkpt>
      <trkpt lat="45.25314" lon="6.12941">
        <ele>2247</ele>
        <time>2021-12-23T11:02:50Z</time>
      </trkpt>
      <trkpt lat="45.25314" lon="6.1294">
        <ele>2248</ele>
        <time>2021-12-23T11:02:52Z</time>
      </trkpt>
      <trkpt lat="45.25313" lon="6.1294">
        <ele>2248</ele>
        <time>2021-12-23T11:02:53Z</time>
      </trkpt>
      <trkpt lat="45.25313" lon="6.1294">
        <ele>2248</ele>
        <time>2021-12-23T11:02:54Z</time>
      </trkpt>
      <trkpt lat="45.25312" lon="6.12939">
        <ele>2248</ele>
        <time>2021-12-23T11:02:55Z</time>
      </trkpt>
      <trkpt lat="45.25312" lon="6.12939">
        <ele>2248</ele>
        <time>2021-12-23T11:02:56Z</time>
      </trkpt>
      <trkpt lat="45.25312" lon="6.12939">
        <ele>2248</ele>
        <time>2021-12-23T11:02:57Z</time>
      </trkpt>
      <trkpt lat="45.25311" lon="6.12938">
        <ele>2249</ele>
        <time>2021-12-23T11:02:58Z</time>
      </trkpt>
      <trkpt lat="45.25311" lon="6.12938">
        <ele>2249</ele>
        <time>2021-12-23T11:02:59Z</time>
      </trkpt>
      <trkpt lat="45.25311" lon="6.12938">
        <ele>2249</ele>
        <time>2021-12-23T11:03:00Z</time>
      </trkpt>
      <trkpt lat="45.2531" lon="6.12937">
        <ele>2249</ele>
        <time>2021-12-23T11:03:01Z</time>
      </trkpt>
      <trkpt lat="45.2531" lon="6.12937">
        <ele>2249</ele>
        <time>2021-12-23T11:03:02Z</time>
      </trkpt>
      <trkpt lat="45.25309" lon="6.12937">
        <ele>2249</ele>
        <time>2021-12-23T11:03:03Z</time>
      </trkpt>
      <trkpt lat="45.25309" lon="6.12936">
        <ele>2249</ele>
        <time>2021-12-23T11:03:04Z</time>
      </trkpt>
      <trkpt lat="45.25309" lon="6.12936">
        <ele>2249</ele>
        <time>2021-12-23T11:03:05Z</time>
      </trkpt>
      <trkpt lat="45.25308" lon="6.12936">
        <ele>2249</ele>
        <time>2021-12-23T11:03:06Z</time>
      </trkpt>
      <trkpt lat="45.25308" lon="6.12935">
        <ele>2249</ele>
        <time>2021-12-23T11:03:07Z</time>
      </trkpt>
      <trkpt lat="45.25308" lon="6.12935">
        <ele>2249</ele>
        <time>2021-12-23T11:03:08Z</time>
      </trkpt>
      <trkpt lat="45.25306" lon="6.12935">
        <ele>2250</ele>
        <time>2021-12-23T11:03:09Z</time>
      </trkpt>
      <trkpt lat="45.25304" lon="6.12935">
        <ele>2250</ele>
        <time>2021-12-23T11:03:11Z</time>
      </trkpt>
      <trkpt lat="45.25302" lon="6.12935">
        <ele>2250</ele>
        <time>2021-12-23T11:03:12Z</time>
      </trkpt>
      <trkpt lat="45.253" lon="6.12935">
        <ele>2250</ele>
        <time>2021-12-23T11:03:13Z</time>
      </trkpt>
      <trkpt lat="45.25298" lon="6.12935">
        <ele>2250</ele>
        <time>2021-12-23T11:03:14Z</time>
      </trkpt>
      <trkpt lat="45.25296" lon="6.12935">
        <ele>2251</ele>
        <time>2021-12-23T11:03:15Z</time>
      </trkpt>
      <trkpt lat="45.25301" lon="6.12932">
        <ele>2251</ele>
        <time>2021-12-23T11:03:16Z</time>
      </trkpt>
      <trkpt lat="45.25301" lon="6.12932">
        <ele>2251</ele>
        <time>2021-12-23T11:03:18Z</time>
      </trkpt>
      <trkpt lat="45.25301" lon="6.12932">
        <ele>2251</ele>
        <time>2021-12-23T11:03:20Z</time>
      </trkpt>
      <trkpt lat="45.25301" lon="6.12932">
        <ele>2251</ele>
        <time>2021-12-23T11:03:21Z</time>
      </trkpt>
      <trkpt lat="45.25301" lon="6.12932">
        <ele>2251</ele>
        <time>2021-12-23T11:03:22Z</time>
      </trkpt>
      <trkpt lat="45.25301" lon="6.12932">
        <ele>2252</ele>
        <time>2021-12-23T11:03:23Z</time>
      </trkpt>
      <trkpt lat="45.25301" lon="6.12932">
        <ele>2252</ele>
        <time>2021-12-23T11:03:24Z</time>
      </trkpt>
      <trkpt lat="45.25301" lon="6.12932">
        <ele>2252</ele>
        <time>2021-12-23T11:03:25Z</time>
      </trkpt>
      <trkpt lat="45.25301" lon="6.12932">
        <ele>2252</ele>
        <time>2021-12-23T11:03:26Z</time>
      </trkpt>
      <trkpt lat="45.25301" lon="6.12932">
        <ele>2253</ele>
        <time>2021-12-23T11:03:27Z</time>
      </trkpt>
      <trkpt lat="45.25303" lon="6.12918">
        <ele>2253</ele>
        <time>2021-12-23T11:03:28Z</time>
      </trkpt>
      <trkpt lat="45.25303" lon="6.12918">
        <ele>2253</ele>
        <time>2021-12-23T11:03:30Z</time>
      </trkpt>
      <trkpt lat="45.25301" lon="6.12918">
        <ele>2253</ele>
        <time>2021-12-23T11:03:31Z</time>
      </trkpt>
      <trkpt lat="45.253" lon="6.12918">
        <ele>2253</ele>
        <time>2021-12-23T11:03:32Z</time>
      </trkpt>
      <trkpt lat="45.25299" lon="6.12918">
        <ele>2254</ele>
        <time>2021-12-23T11:03:33Z</time>
      </trkpt>
      <trkpt lat="45.25298" lon="6.12918">
        <ele>2254</ele>
        <time>2021-12-23T11:03:34Z</time>
      </trkpt>
      <trkpt lat="45.25297" lon="6.12918">
        <ele>2254</ele>
        <time>2021-12-23T11:03:35Z</time>
      </trkpt>
      <trkpt lat="45.25295" lon="6.12917">
        <ele>2254</ele>
        <time>2021-12-23T11:03:36Z</time>
      </trkpt>
      <trkpt lat="45.25294" lon="6.12917">
        <ele>2254</ele>
        <time>2021-12-23T11:03:37Z</time>
      </trkpt>
      <trkpt lat="45.25293" lon="6.12917">
        <ele>2254</ele>
        <time>2021-12-23T11:03:38Z</time>
      </trkpt>
      <trkpt lat="45.25292" lon="6.12917">
        <ele>2254</ele>
        <time>2021-12-23T11:03:39Z</time>
      </trkpt>
      <trkpt lat="45.25291" lon="6.12917">
        <ele>2255</ele>
        <time>2021-12-23T11:03:40Z</time>
      </trkpt>
      <trkpt lat="45.25291" lon="6.12917">
        <ele>2255</ele>
        <time>2021-12-23T11:03:41Z</time>
      </trkpt>
      <trkpt lat="45.25291" lon="6.12917">
        <ele>2255</ele>
        <time>2021-12-23T11:03:42Z</time>
      </trkpt>
      <trkpt lat="45.25291" lon="6.12917">
        <ele>2255</ele>
        <time>2021-12-23T11:03:43Z</time>
      </trkpt>
      <trkpt lat="45.25291" lon="6.12917">
        <ele>2255</ele>
        <time>2021-12-23T11:03:44Z</time>
      </trkpt>
      <trkpt lat="45.25291" lon="6.12917">
        <ele>2255</ele>
        <time>2021-12-23T11:03:45Z</time>
      </trkpt>
      <trkpt lat="45.25291" lon="6.12917">
        <ele>2255</ele>
        <time>2021-12-23T11:03:46Z</time>
      </trkpt>
      <trkpt lat="45.25281" lon="6.12913">
        <ele>2255</ele>
        <time>2021-12-23T11:03:47Z</time>
      </trkpt>
      <trkpt lat="45.25281" lon="6.12913">
        <ele>2255</ele>
        <time>2021-12-23T11:03:49Z</time>
      </trkpt>
      <trkpt lat="45.2528" lon="6.12913">
        <ele>2255</ele>
        <time>2021-12-23T11:03:50Z</time>
      </trkpt>
      <trkpt lat="45.25279" lon="6.12912">
        <ele>2255</ele>
        <time>2021-12-23T11:03:51Z</time>
      </trkpt>
      <trkpt lat="45.25278" lon="6.12912">
        <ele>2256</ele>
        <time>2021-12-23T11:03:52Z</time>
      </trkpt>
      <trkpt lat="45.25277" lon="6.12912">
        <ele>2256</ele>
        <time>2021-12-23T11:03:53Z</time>
      </trkpt>
      <trkpt lat="45.25276" lon="6.12912">
        <ele>2256</ele>
        <time>2021-12-23T11:03:54Z</time>
      </trkpt>
      <trkpt lat="45.25275" lon="6.12911">
        <ele>2256</ele>
        <time>2021-12-23T11:03:55Z</time>
      </trkpt>
      <trkpt lat="45.25274" lon="6.12911">
        <ele>2258</ele>
        <time>2021-12-23T11:03:56Z</time>
      </trkpt>
      <trkpt lat="45.25273" lon="6.12911">
        <ele>2258</ele>
        <time>2021-12-23T11:03:57Z</time>
      </trkpt>
      <trkpt lat="45.25272" lon="6.1291">
        <ele>2258</ele>
        <time>2021-12-23T11:03:58Z</time>
      </trkpt>
      <trkpt lat="45.25272" lon="6.1291">
        <ele>2258</ele>
        <time>2021-12-23T11:03:59Z</time>
      </trkpt>
      <trkpt lat="45.25272" lon="6.1291">
        <ele>2258</ele>
        <time>2021-12-23T11:04:00Z</time>
      </trkpt>
      <trkpt lat="45.25272" lon="6.1291">
        <ele>2258</ele>
        <time>2021-12-23T11:04:01Z</time>
      </trkpt>
      <trkpt lat="45.25272" lon="6.1291">
        <ele>2259</ele>
        <time>2021-12-23T11:04:02Z</time>
      </trkpt>
      <trkpt lat="45.25272" lon="6.1291">
        <ele>2259</ele>
        <time>2021-12-23T11:04:03Z</time>
      </trkpt>
      <trkpt lat="45.25272" lon="6.1291">
        <ele>2259</ele>
        <time>2021-12-23T11:04:04Z</time>
      </trkpt>
      <trkpt lat="45.25272" lon="6.1291">
        <ele>2259</ele>
        <time>2021-12-23T11:04:05Z</time>
      </trkpt>
      <trkpt lat="45.25272" lon="6.1291">
        <ele>2260</ele>
        <time>2021-12-23T11:04:06Z</time>
      </trkpt>
      <trkpt lat="45.25272" lon="6.1291">
        <ele>2260</ele>
        <time>2021-12-23T11:04:08Z</time>
      </trkpt>
      <trkpt lat="45.25272" lon="6.1291">
        <ele>2260</ele>
        <time>2021-12-23T11:04:09Z</time>
      </trkpt>
      <trkpt lat="45.25272" lon="6.1291">
        <ele>2260</ele>
        <time>2021-12-23T11:04:10Z</time>
      </trkpt>
      <trkpt lat="45.25272" lon="6.1291">
        <ele>2260</ele>
        <time>2021-12-23T11:04:11Z</time>
      </trkpt>
      <trkpt lat="45.25263" lon="6.12901">
        <ele>2260</ele>
        <time>2021-12-23T11:04:12Z</time>
      </trkpt>
      <trkpt lat="45.25263" lon="6.12901">
        <ele>2260</ele>
        <time>2021-12-23T11:04:14Z</time>
      </trkpt>
      <trkpt lat="45.25263" lon="6.12901">
        <ele>2260</ele>
        <time>2021-12-23T11:04:15Z</time>
      </trkpt>
      <trkpt lat="45.25263" lon="6.129">
        <ele>2261</ele>
        <time>2021-12-23T11:04:16Z</time>
      </trkpt>
      <trkpt lat="45.25263" lon="6.129">
        <ele>2261</ele>
        <time>2021-12-23T11:04:17Z</time>
      </trkpt>
      <trkpt lat="45.25263" lon="6.12899">
        <ele>2261</ele>
        <time>2021-12-23T11:04:18Z</time>
      </trkpt>
      <trkpt lat="45.25262" lon="6.12898">
        <ele>2261</ele>
        <time>2021-12-23T11:04:19Z</time>
      </trkpt>
      <trkpt lat="45.25262" lon="6.12898">
        <ele>2262</ele>
        <time>2021-12-23T11:04:20Z</time>
      </trkpt>
      <trkpt lat="45.25262" lon="6.12897">
        <ele>2262</ele>
        <time>2021-12-23T11:04:21Z</time>
      </trkpt>
      <trkpt lat="45.25262" lon="6.12896">
        <ele>2262</ele>
        <time>2021-12-23T11:04:22Z</time>
      </trkpt>
      <trkpt lat="45.25262" lon="6.12896">
        <ele>2262</ele>
        <time>2021-12-23T11:04:23Z</time>
      </trkpt>
      <trkpt lat="45.25261" lon="6.12895">
        <ele>2262</ele>
        <time>2021-12-23T11:04:24Z</time>
      </trkpt>
      <trkpt lat="45.25261" lon="6.12895">
        <ele>2262</ele>
        <time>2021-12-23T11:04:25Z</time>
      </trkpt>
      <trkpt lat="45.25261" lon="6.12894">
        <ele>2262</ele>
        <time>2021-12-23T11:04:27Z</time>
      </trkpt>
      <trkpt lat="45.25261" lon="6.12893">
        <ele>2262</ele>
        <time>2021-12-23T11:04:28Z</time>
      </trkpt>
      <trkpt lat="45.25261" lon="6.12893">
        <ele>2262</ele>
        <time>2021-12-23T11:04:29Z</time>
      </trkpt>
      <trkpt lat="45.25261" lon="6.12892">
        <ele>2262</ele>
        <time>2021-12-23T11:04:30Z</time>
      </trkpt>
      <trkpt lat="45.2526" lon="6.12891">
        <ele>2263</ele>
        <time>2021-12-23T11:04:31Z</time>
      </trkpt>
      <trkpt lat="45.2526" lon="6.12891">
        <ele>2263</ele>
        <time>2021-12-23T11:04:32Z</time>
      </trkpt>
      <trkpt lat="45.2526" lon="6.1289">
        <ele>2263</ele>
        <time>2021-12-23T11:04:33Z</time>
      </trkpt>
      <trkpt lat="45.2526" lon="6.1289">
        <ele>2263</ele>
        <time>2021-12-23T11:04:34Z</time>
      </trkpt>
      <trkpt lat="45.2526" lon="6.1289">
        <ele>2263</ele>
        <time>2021-12-23T11:04:35Z</time>
      </trkpt>
      <trkpt lat="45.2526" lon="6.1289">
        <ele>2263</ele>
        <time>2021-12-23T11:04:36Z</time>
      </trkpt>
      <trkpt lat="45.2526" lon="6.1289">
        <ele>2264</ele>
        <time>2021-12-23T11:04:37Z</time>
      </trkpt>
      <trkpt lat="45.2526" lon="6.1289">
        <ele>2264</ele>
        <time>2021-12-23T11:04:38Z</time>
      </trkpt>
      <trkpt lat="45.2526" lon="6.1289">
        <ele>2264</ele>
        <time>2021-12-23T11:04:39Z</time>
      </trkpt>
      <trkpt lat="45.2526" lon="6.1289">
        <ele>2264</ele>
        <time>2021-12-23T11:04:40Z</time>
      </trkpt>
      <trkpt lat="45.2526" lon="6.1289">
        <ele>2265</ele>
        <time>2021-12-23T11:04:41Z</time>
      </trkpt>
      <trkpt lat="45.2526" lon="6.1289">
        <ele>2265</ele>
        <time>2021-12-23T11:04:42Z</time>
      </trkpt>
      <trkpt lat="45.2526" lon="6.1289">
        <ele>2265</ele>
        <time>2021-12-23T11:04:43Z</time>
      </trkpt>
      <trkpt lat="45.2526" lon="6.1289">
        <ele>2265</ele>
        <time>2021-12-23T11:04:44Z</time>
      </trkpt>
      <trkpt lat="45.25254" lon="6.12876">
        <ele>2265</ele>
        <time>2021-12-23T11:04:46Z</time>
      </trkpt>
      <trkpt lat="45.25254" lon="6.12876">
        <ele>2265</ele>
        <time>2021-12-23T11:04:47Z</time>
      </trkpt>
      <trkpt lat="45.25254" lon="6.12875">
        <ele>2265</ele>
        <time>2021-12-23T11:04:48Z</time>
      </trkpt>
      <trkpt lat="45.25254" lon="6.12874">
        <ele>2265</ele>
        <time>2021-12-23T11:04:49Z</time>
      </trkpt>
      <trkpt lat="45.25254" lon="6.12874">
        <ele>2265</ele>
        <time>2021-12-23T11:04:50Z</time>
      </trkpt>
      <trkpt lat="45.25254" lon="6.12873">
        <ele>2266</ele>
        <time>2021-12-23T11:04:51Z</time>
      </trkpt>
      <trkpt lat="45.25254" lon="6.12873">
        <ele>2266</ele>
        <time>2021-12-23T11:04:52Z</time>
      </trkpt>
      <trkpt lat="45.25254" lon="6.12872">
        <ele>2266</ele>
        <time>2021-12-23T11:04:53Z</time>
      </trkpt>
      <trkpt lat="45.25254" lon="6.12872">
        <ele>2266</ele>
        <time>2021-12-23T11:04:54Z</time>
      </trkpt>
      <trkpt lat="45.25254" lon="6.12871">
        <ele>2266</ele>
        <time>2021-12-23T11:04:55Z</time>
      </trkpt>
      <trkpt lat="45.25254" lon="6.12871">
        <ele>2266</ele>
        <time>2021-12-23T11:04:56Z</time>
      </trkpt>
      <trkpt lat="45.25254" lon="6.1287">
        <ele>2266</ele>
        <time>2021-12-23T11:04:57Z</time>
      </trkpt>
      <trkpt lat="45.25254" lon="6.1287">
        <ele>2267</ele>
        <time>2021-12-23T11:04:58Z</time>
      </trkpt>
      <trkpt lat="45.25254" lon="6.12869">
        <ele>2267</ele>
        <time>2021-12-23T11:04:59Z</time>
      </trkpt>
      <trkpt lat="45.25254" lon="6.12869">
        <ele>2267</ele>
        <time>2021-12-23T11:05:00Z</time>
      </trkpt>
      <trkpt lat="45.25254" lon="6.12868">
        <ele>2266</ele>
        <time>2021-12-23T11:05:01Z</time>
      </trkpt>
      <trkpt lat="45.25254" lon="6.12868">
        <ele>2266</ele>
        <time>2021-12-23T11:05:02Z</time>
      </trkpt>
      <trkpt lat="45.25254" lon="6.12867">
        <ele>2266</ele>
        <time>2021-12-23T11:05:03Z</time>
      </trkpt>
      <trkpt lat="45.25254" lon="6.12867">
        <ele>2266</ele>
        <time>2021-12-23T11:05:05Z</time>
      </trkpt>
      <trkpt lat="45.25254" lon="6.12866">
        <ele>2266</ele>
        <time>2021-12-23T11:05:06Z</time>
      </trkpt>
      <trkpt lat="45.25254" lon="6.12866">
        <ele>2266</ele>
        <time>2021-12-23T11:05:07Z</time>
      </trkpt>
      <trkpt lat="45.25254" lon="6.12865">
        <ele>2266</ele>
        <time>2021-12-23T11:05:08Z</time>
      </trkpt>
      <trkpt lat="45.25254" lon="6.12865">
        <ele>2266</ele>
        <time>2021-12-23T11:05:09Z</time>
      </trkpt>
      <trkpt lat="45.25254" lon="6.12864">
        <ele>2266</ele>
        <time>2021-12-23T11:05:10Z</time>
      </trkpt>
      <trkpt lat="45.25254" lon="6.12864">
        <ele>2266</ele>
        <time>2021-12-23T11:05:11Z</time>
      </trkpt>
      <trkpt lat="45.25254" lon="6.12863">
        <ele>2266</ele>
        <time>2021-12-23T11:05:12Z</time>
      </trkpt>
      <trkpt lat="45.25255" lon="6.12863">
        <ele>2266</ele>
        <time>2021-12-23T11:05:13Z</time>
      </trkpt>
      <trkpt lat="45.25255" lon="6.12863">
        <ele>2266</ele>
        <time>2021-12-23T11:05:14Z</time>
      </trkpt>
      <trkpt lat="45.25255" lon="6.12863">
        <ele>2266</ele>
        <time>2021-12-23T11:05:15Z</time>
      </trkpt>
      <trkpt lat="45.25255" lon="6.12863">
        <ele>2266</ele>
        <time>2021-12-23T11:05:16Z</time>
      </trkpt>
      <trkpt lat="45.25255" lon="6.12863">
        <ele>2266</ele>
        <time>2021-12-23T11:05:17Z</time>
      </trkpt>
      <trkpt lat="45.25255" lon="6.12863">
        <ele>2266</ele>
        <time>2021-12-23T11:05:18Z</time>
      </trkpt>
      <trkpt lat="45.25245" lon="6.12872">
        <ele>2266</ele>
        <time>2021-12-23T11:05:19Z</time>
      </trkpt>
      <trkpt lat="45.25245" lon="6.12872">
        <ele>2267</ele>
        <time>2021-12-23T11:05:21Z</time>
      </trkpt>
      <trkpt lat="45.25246" lon="6.12869">
        <ele>2267</ele>
        <time>2021-12-23T11:05:22Z</time>
      </trkpt>
      <trkpt lat="45.25248" lon="6.12866">
        <ele>2267</ele>
        <time>2021-12-23T11:05:24Z</time>
      </trkpt>
      <trkpt lat="45.25249" lon="6.12864">
        <ele>2267</ele>
        <time>2021-12-23T11:05:25Z</time>
      </trkpt>
      <trkpt lat="45.2525" lon="6.12861">
        <ele>2267</ele>
        <time>2021-12-23T11:05:26Z</time>
      </trkpt>
      <trkpt lat="45.2525" lon="6.1286">
        <ele>2268</ele>
        <time>2021-12-23T11:05:27Z</time>
      </trkpt>
      <trkpt lat="45.2525" lon="6.1286">
        <ele>2268</ele>
        <time>2021-12-23T11:05:28Z</time>
      </trkpt>
      <trkpt lat="45.2525" lon="6.1286">
        <ele>2268</ele>
        <time>2021-12-23T11:05:29Z</time>
      </trkpt>
      <trkpt lat="45.25249" lon="6.1286">
        <ele>2268</ele>
        <time>2021-12-23T11:05:30Z</time>
      </trkpt>
      <trkpt lat="45.25249" lon="6.12859">
        <ele>2268</ele>
        <time>2021-12-23T11:05:31Z</time>
      </trkpt>
      <trkpt lat="45.25249" lon="6.12859">
        <ele>2269</ele>
        <time>2021-12-23T11:05:32Z</time>
      </trkpt>
      <trkpt lat="45.25249" lon="6.12859">
        <ele>2269</ele>
        <time>2021-12-23T11:05:33Z</time>
      </trkpt>
      <trkpt lat="45.25249" lon="6.12859">
        <ele>2269</ele>
        <time>2021-12-23T11:05:34Z</time>
      </trkpt>
      <trkpt lat="45.25248" lon="6.12858">
        <ele>2270</ele>
        <time>2021-12-23T11:05:35Z</time>
      </trkpt>
      <trkpt lat="45.25248" lon="6.12858">
        <ele>2270</ele>
        <time>2021-12-23T11:05:36Z</time>
      </trkpt>
      <trkpt lat="45.25248" lon="6.12858">
        <ele>2270</ele>
        <time>2021-12-23T11:05:37Z</time>
      </trkpt>
      <trkpt lat="45.25248" lon="6.12858">
        <ele>2270</ele>
        <time>2021-12-23T11:05:38Z</time>
      </trkpt>
      <trkpt lat="45.25248" lon="6.12857">
        <ele>2270</ele>
        <time>2021-12-23T11:05:39Z</time>
      </trkpt>
      <trkpt lat="45.25248" lon="6.12857">
        <ele>2270</ele>
        <time>2021-12-23T11:05:40Z</time>
      </trkpt>
      <trkpt lat="45.25247" lon="6.12857">
        <ele>2270</ele>
        <time>2021-12-23T11:05:41Z</time>
      </trkpt>
      <trkpt lat="45.25242" lon="6.12848">
        <ele>2270</ele>
        <time>2021-12-23T11:05:43Z</time>
      </trkpt>
      <trkpt lat="45.25242" lon="6.12847">
        <ele>2270</ele>
        <time>2021-12-23T11:05:44Z</time>
      </trkpt>
      <trkpt lat="45.25242" lon="6.12846">
        <ele>2270</ele>
        <time>2021-12-23T11:05:45Z</time>
      </trkpt>
      <trkpt lat="45.25242" lon="6.12845">
        <ele>2271</ele>
        <time>2021-12-23T11:05:46Z</time>
      </trkpt>
      <trkpt lat="45.25241" lon="6.12844">
        <ele>2271</ele>
        <time>2021-12-23T11:05:47Z</time>
      </trkpt>
      <trkpt lat="45.25241" lon="6.12843">
        <ele>2271</ele>
        <time>2021-12-23T11:05:48Z</time>
      </trkpt>
      <trkpt lat="45.25241" lon="6.12842">
        <ele>2271</ele>
        <time>2021-12-23T11:05:49Z</time>
      </trkpt>
      <trkpt lat="45.25241" lon="6.12841">
        <ele>2272</ele>
        <time>2021-12-23T11:05:50Z</time>
      </trkpt>
      <trkpt lat="45.25241" lon="6.12841">
        <ele>2272</ele>
        <time>2021-12-23T11:05:51Z</time>
      </trkpt>
      <trkpt lat="45.25241" lon="6.1284">
        <ele>2272</ele>
        <time>2021-12-23T11:05:52Z</time>
      </trkpt>
      <trkpt lat="45.25241" lon="6.12839">
        <ele>2272</ele>
        <time>2021-12-23T11:05:53Z</time>
      </trkpt>
      <trkpt lat="45.25241" lon="6.12838">
        <ele>2272</ele>
        <time>2021-12-23T11:05:54Z</time>
      </trkpt>
      <trkpt lat="45.25241" lon="6.12837">
        <ele>2273</ele>
        <time>2021-12-23T11:05:55Z</time>
      </trkpt>
      <trkpt lat="45.25241" lon="6.12836">
        <ele>2273</ele>
        <time>2021-12-23T11:05:56Z</time>
      </trkpt>
      <trkpt lat="45.25241" lon="6.12835">
        <ele>2273</ele>
        <time>2021-12-23T11:05:57Z</time>
      </trkpt>
      <trkpt lat="45.2524" lon="6.12834">
        <ele>2273</ele>
        <time>2021-12-23T11:05:58Z</time>
      </trkpt>
      <trkpt lat="45.2524" lon="6.12833">
        <ele>2274</ele>
        <time>2021-12-23T11:05:59Z</time>
      </trkpt>
      <trkpt lat="45.2524" lon="6.12833">
        <ele>2274</ele>
        <time>2021-12-23T11:06:00Z</time>
      </trkpt>
      <trkpt lat="45.2524" lon="6.12832">
        <ele>2274</ele>
        <time>2021-12-23T11:06:02Z</time>
      </trkpt>
      <trkpt lat="45.2524" lon="6.12831">
        <ele>2274</ele>
        <time>2021-12-23T11:06:03Z</time>
      </trkpt>
      <trkpt lat="45.2524" lon="6.1283">
        <ele>2274</ele>
        <time>2021-12-23T11:06:04Z</time>
      </trkpt>
      <trkpt lat="45.2524" lon="6.12829">
        <ele>2274</ele>
        <time>2021-12-23T11:06:05Z</time>
      </trkpt>
      <trkpt lat="45.2524" lon="6.12828">
        <ele>2274</ele>
        <time>2021-12-23T11:06:06Z</time>
      </trkpt>
      <trkpt lat="45.2524" lon="6.12827">
        <ele>2274</ele>
        <time>2021-12-23T11:06:07Z</time>
      </trkpt>
      <trkpt lat="45.25239" lon="6.12827">
        <ele>2274</ele>
        <time>2021-12-23T11:06:08Z</time>
      </trkpt>
      <trkpt lat="45.25239" lon="6.12826">
        <ele>2274</ele>
        <time>2021-12-23T11:06:09Z</time>
      </trkpt>
      <trkpt lat="45.25239" lon="6.12825">
        <ele>2274</ele>
        <time>2021-12-23T11:06:10Z</time>
      </trkpt>
      <trkpt lat="45.25239" lon="6.12824">
        <ele>2275</ele>
        <time>2021-12-23T11:06:11Z</time>
      </trkpt>
      <trkpt lat="45.25239" lon="6.12823">
        <ele>2275</ele>
        <time>2021-12-23T11:06:12Z</time>
      </trkpt>
      <trkpt lat="45.25239" lon="6.12822">
        <ele>2275</ele>
        <time>2021-12-23T11:06:13Z</time>
      </trkpt>
      <trkpt lat="45.25239" lon="6.12822">
        <ele>2275</ele>
        <time>2021-12-23T11:06:14Z</time>
      </trkpt>
      <trkpt lat="45.2524" lon="6.1282">
        <ele>2275</ele>
        <time>2021-12-23T11:06:15Z</time>
      </trkpt>
      <trkpt lat="45.25241" lon="6.12819">
        <ele>2276</ele>
        <time>2021-12-23T11:06:16Z</time>
      </trkpt>
      <trkpt lat="45.25242" lon="6.12818">
        <ele>2276</ele>
        <time>2021-12-23T11:06:17Z</time>
      </trkpt>
      <trkpt lat="45.25243" lon="6.12816">
        <ele>2276</ele>
        <time>2021-12-23T11:06:18Z</time>
      </trkpt>
      <trkpt lat="45.25244" lon="6.12815">
        <ele>2276</ele>
        <time>2021-12-23T11:06:19Z</time>
      </trkpt>
      <trkpt lat="45.25245" lon="6.12814">
        <ele>2276</ele>
        <time>2021-12-23T11:06:21Z</time>
      </trkpt>
      <trkpt lat="45.25246" lon="6.12813">
        <ele>2276</ele>
        <time>2021-12-23T11:06:22Z</time>
      </trkpt>
      <trkpt lat="45.25246" lon="6.12812">
        <ele>2276</ele>
        <time>2021-12-23T11:06:23Z</time>
      </trkpt>
      <trkpt lat="45.25247" lon="6.12811">
        <ele>2276</ele>
        <time>2021-12-23T11:06:24Z</time>
      </trkpt>
      <trkpt lat="45.25247" lon="6.1281">
        <ele>2276</ele>
        <time>2021-12-23T11:06:25Z</time>
      </trkpt>
      <trkpt lat="45.25247" lon="6.12809">
        <ele>2276</ele>
        <time>2021-12-23T11:06:26Z</time>
      </trkpt>
      <trkpt lat="45.25248" lon="6.12808">
        <ele>2276</ele>
        <time>2021-12-23T11:06:27Z</time>
      </trkpt>
      <trkpt lat="45.25248" lon="6.12807">
        <ele>2277</ele>
        <time>2021-12-23T11:06:28Z</time>
      </trkpt>
      <trkpt lat="45.25249" lon="6.12806">
        <ele>2277</ele>
        <time>2021-12-23T11:06:29Z</time>
      </trkpt>
      <trkpt lat="45.25249" lon="6.12805">
        <ele>2277</ele>
        <time>2021-12-23T11:06:30Z</time>
      </trkpt>
      <trkpt lat="45.25249" lon="6.12804">
        <ele>2278</ele>
        <time>2021-12-23T11:06:31Z</time>
      </trkpt>
      <trkpt lat="45.2525" lon="6.12803">
        <ele>2278</ele>
        <time>2021-12-23T11:06:32Z</time>
      </trkpt>
      <trkpt lat="45.2525" lon="6.12802">
        <ele>2278</ele>
        <time>2021-12-23T11:06:33Z</time>
      </trkpt>
      <trkpt lat="45.25251" lon="6.12801">
        <ele>2278</ele>
        <time>2021-12-23T11:06:34Z</time>
      </trkpt>
      <trkpt lat="45.2525" lon="6.12801">
        <ele>2278</ele>
        <time>2021-12-23T11:06:35Z</time>
      </trkpt>
      <trkpt lat="45.2525" lon="6.12802">
        <ele>2279</ele>
        <time>2021-12-23T11:06:36Z</time>
      </trkpt>
      <trkpt lat="45.25249" lon="6.12802">
        <ele>2279</ele>
        <time>2021-12-23T11:06:37Z</time>
      </trkpt>
      <trkpt lat="45.25249" lon="6.12802">
        <ele>2279</ele>
        <time>2021-12-23T11:06:38Z</time>
      </trkpt>
      <trkpt lat="45.25248" lon="6.12802">
        <ele>2279</ele>
        <time>2021-12-23T11:06:40Z</time>
      </trkpt>
      <trkpt lat="45.25248" lon="6.12802">
        <ele>2279</ele>
        <time>2021-12-23T11:06:41Z</time>
      </trkpt>
      <trkpt lat="45.25247" lon="6.12803">
        <ele>2279</ele>
        <time>2021-12-23T11:06:42Z</time>
      </trkpt>
      <trkpt lat="45.25247" lon="6.12803">
        <ele>2279</ele>
        <time>2021-12-23T11:06:43Z</time>
      </trkpt>
      <trkpt lat="45.25247" lon="6.12803">
        <ele>2279</ele>
        <time>2021-12-23T11:06:44Z</time>
      </trkpt>
      <trkpt lat="45.25246" lon="6.12803">
        <ele>2279</ele>
        <time>2021-12-23T11:06:45Z</time>
      </trkpt>
      <trkpt lat="45.25246" lon="6.12803">
        <ele>2279</ele>
        <time>2021-12-23T11:06:46Z</time>
      </trkpt>
      <trkpt lat="45.25245" lon="6.12804">
        <ele>2280</ele>
        <time>2021-12-23T11:06:47Z</time>
      </trkpt>
      <trkpt lat="45.25245" lon="6.12804">
        <ele>2280</ele>
        <time>2021-12-23T11:06:48Z</time>
      </trkpt>
      <trkpt lat="45.25244" lon="6.12804">
        <ele>2280</ele>
        <time>2021-12-23T11:06:49Z</time>
      </trkpt>
      <trkpt lat="45.25244" lon="6.12804">
        <ele>2280</ele>
        <time>2021-12-23T11:06:50Z</time>
      </trkpt>
      <trkpt lat="45.25243" lon="6.12804">
        <ele>2280</ele>
        <time>2021-12-23T11:06:51Z</time>
      </trkpt>
      <trkpt lat="45.25243" lon="6.12805">
        <ele>2280</ele>
        <time>2021-12-23T11:06:52Z</time>
      </trkpt>
      <trkpt lat="45.25242" lon="6.12805">
        <ele>2280</ele>
        <time>2021-12-23T11:06:53Z</time>
      </trkpt>
      <trkpt lat="45.25242" lon="6.12805">
        <ele>2280</ele>
        <time>2021-12-23T11:06:54Z</time>
      </trkpt>
      <trkpt lat="45.25241" lon="6.12805">
        <ele>2281</ele>
        <time>2021-12-23T11:06:55Z</time>
      </trkpt>
      <trkpt lat="45.25241" lon="6.12805">
        <ele>2281</ele>
        <time>2021-12-23T11:06:56Z</time>
      </trkpt>
      <trkpt lat="45.25241" lon="6.12806">
        <ele>2281</ele>
        <time>2021-12-23T11:06:57Z</time>
      </trkpt>
      <trkpt lat="45.2524" lon="6.12805">
        <ele>2282</ele>
        <time>2021-12-23T11:06:59Z</time>
      </trkpt>
      <trkpt lat="45.2524" lon="6.12804">
        <ele>2282</ele>
        <time>2021-12-23T11:07:00Z</time>
      </trkpt>
      <trkpt lat="45.25239" lon="6.12804">
        <ele>2282</ele>
        <time>2021-12-23T11:07:01Z</time>
      </trkpt>
      <trkpt lat="45.25239" lon="6.12803">
        <ele>2282</ele>
        <time>2021-12-23T11:07:02Z</time>
      </trkpt>
      <trkpt lat="45.25239" lon="6.12802">
        <ele>2284</ele>
        <time>2021-12-23T11:07:03Z</time>
      </trkpt>
      <trkpt lat="45.25238" lon="6.12802">
        <ele>2284</ele>
        <time>2021-12-23T11:07:04Z</time>
      </trkpt>
      <trkpt lat="45.25238" lon="6.12801">
        <ele>2284</ele>
        <time>2021-12-23T11:07:05Z</time>
      </trkpt>
      <trkpt lat="45.25237" lon="6.128">
        <ele>2284</ele>
        <time>2021-12-23T11:07:06Z</time>
      </trkpt>
      <trkpt lat="45.25237" lon="6.128">
        <ele>2284</ele>
        <time>2021-12-23T11:07:07Z</time>
      </trkpt>
      <trkpt lat="45.25237" lon="6.12799">
        <ele>2284</ele>
        <time>2021-12-23T11:07:08Z</time>
      </trkpt>
      <trkpt lat="45.25236" lon="6.12798">
        <ele>2284</ele>
        <time>2021-12-23T11:07:09Z</time>
      </trkpt>
      <trkpt lat="45.25236" lon="6.12798">
        <ele>2284</ele>
        <time>2021-12-23T11:07:10Z</time>
      </trkpt>
      <trkpt lat="45.25236" lon="6.12797">
        <ele>2284</ele>
        <time>2021-12-23T11:07:11Z</time>
      </trkpt>
      <trkpt lat="45.25235" lon="6.12796">
        <ele>2284</ele>
        <time>2021-12-23T11:07:12Z</time>
      </trkpt>
      <trkpt lat="45.25235" lon="6.12796">
        <ele>2284</ele>
        <time>2021-12-23T11:07:13Z</time>
      </trkpt>
      <trkpt lat="45.25234" lon="6.12797">
        <ele>2285</ele>
        <time>2021-12-23T11:07:14Z</time>
      </trkpt>
      <trkpt lat="45.25232" lon="6.12798">
        <ele>2285</ele>
        <time>2021-12-23T11:07:15Z</time>
      </trkpt>
      <trkpt lat="45.25231" lon="6.12799">
        <ele>2285</ele>
        <time>2021-12-23T11:07:16Z</time>
      </trkpt>
      <trkpt lat="45.2523" lon="6.128">
        <ele>2286</ele>
        <time>2021-12-23T11:07:18Z</time>
      </trkpt>
      <trkpt lat="45.25229" lon="6.12801">
        <ele>2286</ele>
        <time>2021-12-23T11:07:19Z</time>
      </trkpt>
      <trkpt lat="45.25227" lon="6.12803">
        <ele>2286</ele>
        <time>2021-12-23T11:07:20Z</time>
      </trkpt>
      <trkpt lat="45.25226" lon="6.12804">
        <ele>2286</ele>
        <time>2021-12-23T11:07:21Z</time>
      </trkpt>
      <trkpt lat="45.25225" lon="6.12805">
        <ele>2286</ele>
        <time>2021-12-23T11:07:22Z</time>
      </trkpt>
      <trkpt lat="45.25223" lon="6.12806">
        <ele>2286</ele>
        <time>2021-12-23T11:07:23Z</time>
      </trkpt>
      <trkpt lat="45.25223" lon="6.12806">
        <ele>2286</ele>
        <time>2021-12-23T11:07:24Z</time>
      </trkpt>
      <trkpt lat="45.25223" lon="6.12806">
        <ele>2286</ele>
        <time>2021-12-23T11:07:25Z</time>
      </trkpt>
      <trkpt lat="45.25223" lon="6.12806">
        <ele>2287</ele>
        <time>2021-12-23T11:07:26Z</time>
      </trkpt>
      <trkpt lat="45.25223" lon="6.12806">
        <ele>2287</ele>
        <time>2021-12-23T11:07:27Z</time>
      </trkpt>
      <trkpt lat="45.25223" lon="6.12806">
        <ele>2287</ele>
        <time>2021-12-23T11:07:28Z</time>
      </trkpt>
      <trkpt lat="45.25223" lon="6.12806">
        <ele>2287</ele>
        <time>2021-12-23T11:07:29Z</time>
      </trkpt>
      <trkpt lat="45.25223" lon="6.12806">
        <ele>2288</ele>
        <time>2021-12-23T11:07:30Z</time>
      </trkpt>
      <trkpt lat="45.25223" lon="6.12806">
        <ele>2288</ele>
        <time>2021-12-23T11:07:31Z</time>
      </trkpt>
      <trkpt lat="45.25223" lon="6.12806">
        <ele>2288</ele>
        <time>2021-12-23T11:07:32Z</time>
      </trkpt>
      <trkpt lat="45.25223" lon="6.12806">
        <ele>2288</ele>
        <time>2021-12-23T11:07:33Z</time>
      </trkpt>
      <trkpt lat="45.25214" lon="6.12805">
        <ele>2288</ele>
        <time>2021-12-23T11:07:34Z</time>
      </trkpt>
      <trkpt lat="45.25214" lon="6.12805">
        <ele>2288</ele>
        <time>2021-12-23T11:07:36Z</time>
      </trkpt>
      <trkpt lat="45.25214" lon="6.12804">
        <ele>2288</ele>
        <time>2021-12-23T11:07:37Z</time>
      </trkpt>
      <trkpt lat="45.25214" lon="6.12803">
        <ele>2288</ele>
        <time>2021-12-23T11:07:38Z</time>
      </trkpt>
      <trkpt lat="45.25215" lon="6.12802">
        <ele>2289</ele>
        <time>2021-12-23T11:07:39Z</time>
      </trkpt>
      <trkpt lat="45.25215" lon="6.12801">
        <ele>2289</ele>
        <time>2021-12-23T11:07:40Z</time>
      </trkpt>
      <trkpt lat="45.25215" lon="6.128">
        <ele>2289</ele>
        <time>2021-12-23T11:07:41Z</time>
      </trkpt>
      <trkpt lat="45.25215" lon="6.12799">
        <ele>2289</ele>
        <time>2021-12-23T11:07:42Z</time>
      </trkpt>
      <trkpt lat="45.25215" lon="6.12798">
        <ele>2290</ele>
        <time>2021-12-23T11:07:43Z</time>
      </trkpt>
      <trkpt lat="45.25215" lon="6.12797">
        <ele>2290</ele>
        <time>2021-12-23T11:07:44Z</time>
      </trkpt>
      <trkpt lat="45.25216" lon="6.12796">
        <ele>2290</ele>
        <time>2021-12-23T11:07:45Z</time>
      </trkpt>
      <trkpt lat="45.25216" lon="6.12795">
        <ele>2291</ele>
        <time>2021-12-23T11:07:46Z</time>
      </trkpt>
      <trkpt lat="45.25216" lon="6.12794">
        <ele>2291</ele>
        <time>2021-12-23T11:07:47Z</time>
      </trkpt>
      <trkpt lat="45.25216" lon="6.12793">
        <ele>2291</ele>
        <time>2021-12-23T11:07:48Z</time>
      </trkpt>
      <trkpt lat="45.25216" lon="6.12792">
        <ele>2290</ele>
        <time>2021-12-23T11:07:49Z</time>
      </trkpt>
      <trkpt lat="45.25216" lon="6.12791">
        <ele>2290</ele>
        <time>2021-12-23T11:07:50Z</time>
      </trkpt>
      <trkpt lat="45.25217" lon="6.1279">
        <ele>2290</ele>
        <time>2021-12-23T11:07:51Z</time>
      </trkpt>
      <trkpt lat="45.25217" lon="6.12789">
        <ele>2290</ele>
        <time>2021-12-23T11:07:52Z</time>
      </trkpt>
      <trkpt lat="45.25217" lon="6.12788">
        <ele>2290</ele>
        <time>2021-12-23T11:07:53Z</time>
      </trkpt>
      <trkpt lat="45.25217" lon="6.12788">
        <ele>2291</ele>
        <time>2021-12-23T11:07:54Z</time>
      </trkpt>
      <trkpt lat="45.25218" lon="6.12787">
        <ele>2291</ele>
        <time>2021-12-23T11:07:56Z</time>
      </trkpt>
      <trkpt lat="45.25218" lon="6.12786">
        <ele>2291</ele>
        <time>2021-12-23T11:07:57Z</time>
      </trkpt>
      <trkpt lat="45.25218" lon="6.12785">
        <ele>2291</ele>
        <time>2021-12-23T11:07:58Z</time>
      </trkpt>
      <trkpt lat="45.25219" lon="6.12784">
        <ele>2292</ele>
        <time>2021-12-23T11:07:59Z</time>
      </trkpt>
      <trkpt lat="45.25219" lon="6.12784">
        <ele>2292</ele>
        <time>2021-12-23T11:08:00Z</time>
      </trkpt>
      <trkpt lat="45.25219" lon="6.12783">
        <ele>2292</ele>
        <time>2021-12-23T11:08:01Z</time>
      </trkpt>
      <trkpt lat="45.25219" lon="6.12782">
        <ele>2292</ele>
        <time>2021-12-23T11:08:02Z</time>
      </trkpt>
      <trkpt lat="45.2522" lon="6.12781">
        <ele>2292</ele>
        <time>2021-12-23T11:08:03Z</time>
      </trkpt>
      <trkpt lat="45.2522" lon="6.1278">
        <ele>2293</ele>
        <time>2021-12-23T11:08:04Z</time>
      </trkpt>
      <trkpt lat="45.2522" lon="6.12779">
        <ele>2293</ele>
        <time>2021-12-23T11:08:05Z</time>
      </trkpt>
      <trkpt lat="45.2522" lon="6.12779">
        <ele>2293</ele>
        <time>2021-12-23T11:08:06Z</time>
      </trkpt>
      <trkpt lat="45.2522" lon="6.12779">
        <ele>2293</ele>
        <time>2021-12-23T11:08:07Z</time>
      </trkpt>
      <trkpt lat="45.2522" lon="6.12779">
        <ele>2293</ele>
        <time>2021-12-23T11:08:08Z</time>
      </trkpt>
      <trkpt lat="45.2522" lon="6.12779">
        <ele>2293</ele>
        <time>2021-12-23T11:08:09Z</time>
      </trkpt>
      <trkpt lat="45.2522" lon="6.12779">
        <ele>2293</ele>
        <time>2021-12-23T11:08:10Z</time>
      </trkpt>
      <trkpt lat="45.2522" lon="6.12779">
        <ele>2293</ele>
        <time>2021-12-23T11:08:11Z</time>
      </trkpt>
      <trkpt lat="45.2522" lon="6.12779">
        <ele>2293</ele>
        <time>2021-12-23T11:08:12Z</time>
      </trkpt>
      <trkpt lat="45.2522" lon="6.12779">
        <ele>2293</ele>
        <time>2021-12-23T11:08:13Z</time>
      </trkpt>
      <trkpt lat="45.2522" lon="6.12779">
        <ele>2294</ele>
        <time>2021-12-23T11:08:15Z</time>
      </trkpt>
      <trkpt lat="45.2522" lon="6.12779">
        <ele>2294</ele>
        <time>2021-12-23T11:08:16Z</time>
      </trkpt>
      <trkpt lat="45.2522" lon="6.12779">
        <ele>2294</ele>
        <time>2021-12-23T11:08:17Z</time>
      </trkpt>
      <trkpt lat="45.2522" lon="6.12779">
        <ele>2295</ele>
        <time>2021-12-23T11:08:18Z</time>
      </trkpt>
      <trkpt lat="45.2522" lon="6.12779">
        <ele>2295</ele>
        <time>2021-12-23T11:08:19Z</time>
      </trkpt>
      <trkpt lat="45.2522" lon="6.12779">
        <ele>2296</ele>
        <time>2021-12-23T11:08:20Z</time>
      </trkpt>
      <trkpt lat="45.2522" lon="6.12779">
        <ele>2296</ele>
        <time>2021-12-23T11:08:21Z</time>
      </trkpt>
      <trkpt lat="45.2522" lon="6.12779">
        <ele>2296</ele>
        <time>2021-12-23T11:08:22Z</time>
      </trkpt>
      <trkpt lat="45.2522" lon="6.12779">
        <ele>2296</ele>
        <time>2021-12-23T11:08:23Z</time>
      </trkpt>
      <trkpt lat="45.2522" lon="6.12779">
        <ele>2296</ele>
        <time>2021-12-23T11:08:24Z</time>
      </trkpt>
      <trkpt lat="45.2522" lon="6.12779">
        <ele>2296</ele>
        <time>2021-12-23T11:08:25Z</time>
      </trkpt>
      <trkpt lat="45.2522" lon="6.12779">
        <ele>2296</ele>
        <time>2021-12-23T11:08:26Z</time>
      </trkpt>
      <trkpt lat="45.2522" lon="6.12779">
        <ele>2296</ele>
        <time>2021-12-23T11:08:27Z</time>
      </trkpt>
      <trkpt lat="45.2522" lon="6.12779">
        <ele>2296</ele>
        <time>2021-12-23T11:08:28Z</time>
      </trkpt>
      <trkpt lat="45.2522" lon="6.12779">
        <ele>2296</ele>
        <time>2021-12-23T11:08:29Z</time>
      </trkpt>
      <trkpt lat="45.2522" lon="6.12779">
        <ele>2296</ele>
        <time>2021-12-23T11:08:30Z</time>
      </trkpt>
      <trkpt lat="45.2522" lon="6.12779">
        <ele>2296</ele>
        <time>2021-12-23T11:08:31Z</time>
      </trkpt>
      <trkpt lat="45.2521" lon="6.12781">
        <ele>2296</ele>
        <time>2021-12-23T11:08:32Z</time>
      </trkpt>
      <trkpt lat="45.2521" lon="6.12781">
        <ele>2297</ele>
        <time>2021-12-23T11:08:34Z</time>
      </trkpt>
      <trkpt lat="45.2521" lon="6.12781">
        <ele>2297</ele>
        <time>2021-12-23T11:08:35Z</time>
      </trkpt>
      <trkpt lat="45.25209" lon="6.12781">
        <ele>2297</ele>
        <time>2021-12-23T11:08:36Z</time>
      </trkpt>
      <trkpt lat="45.25209" lon="6.12782">
        <ele>2297</ele>
        <time>2021-12-23T11:08:37Z</time>
      </trkpt>
      <trkpt lat="45.25209" lon="6.12782">
        <ele>2297</ele>
        <time>2021-12-23T11:08:38Z</time>
      </trkpt>
      <trkpt lat="45.25208" lon="6.12782">
        <ele>2297</ele>
        <time>2021-12-23T11:08:39Z</time>
      </trkpt>
      <trkpt lat="45.25208" lon="6.12782">
        <ele>2298</ele>
        <time>2021-12-23T11:08:40Z</time>
      </trkpt>
      <trkpt lat="45.25208" lon="6.12782">
        <ele>2298</ele>
        <time>2021-12-23T11:08:41Z</time>
      </trkpt>
      <trkpt lat="45.25207" lon="6.12782">
        <ele>2298</ele>
        <time>2021-12-23T11:08:42Z</time>
      </trkpt>
      <trkpt lat="45.25207" lon="6.12782">
        <ele>2298</ele>
        <time>2021-12-23T11:08:43Z</time>
      </trkpt>
      <trkpt lat="45.25207" lon="6.12783">
        <ele>2298</ele>
        <time>2021-12-23T11:08:44Z</time>
      </trkpt>
      <trkpt lat="45.25206" lon="6.12783">
        <ele>2298</ele>
        <time>2021-12-23T11:08:45Z</time>
      </trkpt>
      <trkpt lat="45.25206" lon="6.12783">
        <ele>2298</ele>
        <time>2021-12-23T11:08:46Z</time>
      </trkpt>
      <trkpt lat="45.25206" lon="6.12783">
        <ele>2299</ele>
        <time>2021-12-23T11:08:47Z</time>
      </trkpt>
      <trkpt lat="45.25205" lon="6.12783">
        <ele>2299</ele>
        <time>2021-12-23T11:08:48Z</time>
      </trkpt>
      <trkpt lat="45.25205" lon="6.12783">
        <ele>2299</ele>
        <time>2021-12-23T11:08:49Z</time>
      </trkpt>
      <trkpt lat="45.25205" lon="6.12783">
        <ele>2299</ele>
        <time>2021-12-23T11:08:50Z</time>
      </trkpt>
      <trkpt lat="45.25204" lon="6.12784">
        <ele>2299</ele>
        <time>2021-12-23T11:08:51Z</time>
      </trkpt>
      <trkpt lat="45.25204" lon="6.12784">
        <ele>2300</ele>
        <time>2021-12-23T11:08:53Z</time>
      </trkpt>
      <trkpt lat="45.25204" lon="6.12784">
        <ele>2300</ele>
        <time>2021-12-23T11:08:54Z</time>
      </trkpt>
      <trkpt lat="45.25197" lon="6.12786">
        <ele>2301</ele>
        <time>2021-12-23T11:08:55Z</time>
      </trkpt>
      <trkpt lat="45.25197" lon="6.12786">
        <ele>2301</ele>
        <time>2021-12-23T11:08:56Z</time>
      </trkpt>
      <trkpt lat="45.25197" lon="6.12786">
        <ele>2301</ele>
        <time>2021-12-23T11:08:57Z</time>
      </trkpt>
      <trkpt lat="45.25197" lon="6.12786">
        <ele>2301</ele>
        <time>2021-12-23T11:08:58Z</time>
      </trkpt>
      <trkpt lat="45.25197" lon="6.12786">
        <ele>2301</ele>
        <time>2021-12-23T11:08:59Z</time>
      </trkpt>
      <trkpt lat="45.25197" lon="6.12786">
        <ele>2301</ele>
        <time>2021-12-23T11:09:00Z</time>
      </trkpt>
      <trkpt lat="45.25197" lon="6.12786">
        <ele>2301</ele>
        <time>2021-12-23T11:09:01Z</time>
      </trkpt>
      <trkpt lat="45.25197" lon="6.12786">
        <ele>2301</ele>
        <time>2021-12-23T11:09:02Z</time>
      </trkpt>
      <trkpt lat="45.25197" lon="6.12786">
        <ele>2301</ele>
        <time>2021-12-23T11:09:03Z</time>
      </trkpt>
      <trkpt lat="45.25197" lon="6.12786">
        <ele>2301</ele>
        <time>2021-12-23T11:09:04Z</time>
      </trkpt>
      <trkpt lat="45.25197" lon="6.12786">
        <ele>2301</ele>
        <time>2021-12-23T11:09:05Z</time>
      </trkpt>
      <trkpt lat="45.25197" lon="6.12786">
        <ele>2301</ele>
        <time>2021-12-23T11:09:06Z</time>
      </trkpt>
      <trkpt lat="45.25199" lon="6.12773">
        <ele>2302</ele>
        <time>2021-12-23T11:09:07Z</time>
      </trkpt>
      <trkpt lat="45.25199" lon="6.12773">
        <ele>2302</ele>
        <time>2021-12-23T11:09:09Z</time>
      </trkpt>
      <trkpt lat="45.25198" lon="6.12772">
        <ele>2302</ele>
        <time>2021-12-23T11:09:10Z</time>
      </trkpt>
      <trkpt lat="45.25198" lon="6.12771">
        <ele>2303</ele>
        <time>2021-12-23T11:09:12Z</time>
      </trkpt>
      <trkpt lat="45.25198" lon="6.12771">
        <ele>2303</ele>
        <time>2021-12-23T11:09:13Z</time>
      </trkpt>
      <trkpt lat="45.25198" lon="6.1277">
        <ele>2303</ele>
        <time>2021-12-23T11:09:14Z</time>
      </trkpt>
      <trkpt lat="45.25197" lon="6.12769">
        <ele>2303</ele>
        <time>2021-12-23T11:09:15Z</time>
      </trkpt>
      <trkpt lat="45.25197" lon="6.12768">
        <ele>2303</ele>
        <time>2021-12-23T11:09:16Z</time>
      </trkpt>
      <trkpt lat="45.25197" lon="6.12767">
        <ele>2303</ele>
        <time>2021-12-23T11:09:17Z</time>
      </trkpt>
      <trkpt lat="45.25197" lon="6.12766">
        <ele>2304</ele>
        <time>2021-12-23T11:09:18Z</time>
      </trkpt>
      <trkpt lat="45.25196" lon="6.12765">
        <ele>2304</ele>
        <time>2021-12-23T11:09:19Z</time>
      </trkpt>
      <trkpt lat="45.25196" lon="6.12764">
        <ele>2304</ele>
        <time>2021-12-23T11:09:20Z</time>
      </trkpt>
      <trkpt lat="45.25196" lon="6.12764">
        <ele>2304</ele>
        <time>2021-12-23T11:09:21Z</time>
      </trkpt>
      <trkpt lat="45.25196" lon="6.12763">
        <ele>2304</ele>
        <time>2021-12-23T11:09:22Z</time>
      </trkpt>
      <trkpt lat="45.25196" lon="6.12762">
        <ele>2304</ele>
        <time>2021-12-23T11:09:23Z</time>
      </trkpt>
      <trkpt lat="45.25195" lon="6.12761">
        <ele>2304</ele>
        <time>2021-12-23T11:09:24Z</time>
      </trkpt>
      <trkpt lat="45.25195" lon="6.12761">
        <ele>2304</ele>
        <time>2021-12-23T11:09:25Z</time>
      </trkpt>
      <trkpt lat="45.25195" lon="6.12761">
        <ele>2305</ele>
        <time>2021-12-23T11:09:26Z</time>
      </trkpt>
      <trkpt lat="45.25195" lon="6.12761">
        <ele>2305</ele>
        <time>2021-12-23T11:09:27Z</time>
      </trkpt>
      <trkpt lat="45.25195" lon="6.12761">
        <ele>2305</ele>
        <time>2021-12-23T11:09:28Z</time>
      </trkpt>
      <trkpt lat="45.25195" lon="6.12761">
        <ele>2305</ele>
        <time>2021-12-23T11:09:29Z</time>
      </trkpt>
      <trkpt lat="45.25195" lon="6.12761">
        <ele>2306</ele>
        <time>2021-12-23T11:09:31Z</time>
      </trkpt>
      <trkpt lat="45.25195" lon="6.12761">
        <ele>2306</ele>
        <time>2021-12-23T11:09:32Z</time>
      </trkpt>
      <trkpt lat="45.25195" lon="6.12761">
        <ele>2306</ele>
        <time>2021-12-23T11:09:33Z</time>
      </trkpt>
      <trkpt lat="45.25195" lon="6.12761">
        <ele>2307</ele>
        <time>2021-12-23T11:09:34Z</time>
      </trkpt>
      <trkpt lat="45.25195" lon="6.12761">
        <ele>2307</ele>
        <time>2021-12-23T11:09:35Z</time>
      </trkpt>
      <trkpt lat="45.25195" lon="6.12761">
        <ele>2307</ele>
        <time>2021-12-23T11:09:36Z</time>
      </trkpt>
      <trkpt lat="45.25195" lon="6.12761">
        <ele>2307</ele>
        <time>2021-12-23T11:09:37Z</time>
      </trkpt>
      <trkpt lat="45.25195" lon="6.12761">
        <ele>2307</ele>
        <time>2021-12-23T11:09:38Z</time>
      </trkpt>
      <trkpt lat="45.25195" lon="6.12761">
        <ele>2307</ele>
        <time>2021-12-23T11:09:39Z</time>
      </trkpt>
      <trkpt lat="45.25195" lon="6.12761">
        <ele>2307</ele>
        <time>2021-12-23T11:09:40Z</time>
      </trkpt>
      <trkpt lat="45.25195" lon="6.12761">
        <ele>2307</ele>
        <time>2021-12-23T11:09:41Z</time>
      </trkpt>
      <trkpt lat="45.25195" lon="6.12761">
        <ele>2307</ele>
        <time>2021-12-23T11:09:42Z</time>
      </trkpt>
      <trkpt lat="45.25195" lon="6.12761">
        <ele>2308</ele>
        <time>2021-12-23T11:09:43Z</time>
      </trkpt>
      <trkpt lat="45.25195" lon="6.12761">
        <ele>2308</ele>
        <time>2021-12-23T11:09:44Z</time>
      </trkpt>
      <trkpt lat="45.25195" lon="6.12761">
        <ele>2308</ele>
        <time>2021-12-23T11:09:45Z</time>
      </trkpt>
      <trkpt lat="45.25195" lon="6.12761">
        <ele>2308</ele>
        <time>2021-12-23T11:09:46Z</time>
      </trkpt>
      <trkpt lat="45.25195" lon="6.12761">
        <ele>2308</ele>
        <time>2021-12-23T11:09:47Z</time>
      </trkpt>
      <trkpt lat="45.25195" lon="6.12761">
        <ele>2310</ele>
        <time>2021-12-23T11:09:48Z</time>
      </trkpt>
      <trkpt lat="45.25195" lon="6.1275">
        <ele>2310</ele>
        <time>2021-12-23T11:09:50Z</time>
      </trkpt>
      <trkpt lat="45.25195" lon="6.12749">
        <ele>2310</ele>
        <time>2021-12-23T11:09:51Z</time>
      </trkpt>
      <trkpt lat="45.25195" lon="6.12748">
        <ele>2310</ele>
        <time>2021-12-23T11:09:52Z</time>
      </trkpt>
      <trkpt lat="45.25195" lon="6.12747">
        <ele>2310</ele>
        <time>2021-12-23T11:09:53Z</time>
      </trkpt>
      <trkpt lat="45.25195" lon="6.12747">
        <ele>2310</ele>
        <time>2021-12-23T11:09:54Z</time>
      </trkpt>
      <trkpt lat="45.25195" lon="6.12746">
        <ele>2310</ele>
        <time>2021-12-23T11:09:55Z</time>
      </trkpt>
      <trkpt lat="45.25195" lon="6.12745">
        <ele>2311</ele>
        <time>2021-12-23T11:09:56Z</time>
      </trkpt>
      <trkpt lat="45.25195" lon="6.12744">
        <ele>2311</ele>
        <time>2021-12-23T11:09:57Z</time>
      </trkpt>
      <trkpt lat="45.25195" lon="6.12744">
        <ele>2311</ele>
        <time>2021-12-23T11:09:58Z</time>
      </trkpt>
      <trkpt lat="45.25195" lon="6.12743">
        <ele>2312</ele>
        <time>2021-12-23T11:09:59Z</time>
      </trkpt>
      <trkpt lat="45.25195" lon="6.12742">
        <ele>2312</ele>
        <time>2021-12-23T11:10:00Z</time>
      </trkpt>
      <trkpt lat="45.25195" lon="6.12741">
        <ele>2312</ele>
        <time>2021-12-23T11:10:01Z</time>
      </trkpt>
      <trkpt lat="45.25195" lon="6.12741">
        <ele>2312</ele>
        <time>2021-12-23T11:10:02Z</time>
      </trkpt>
      <trkpt lat="45.25195" lon="6.1274">
        <ele>2312</ele>
        <time>2021-12-23T11:10:03Z</time>
      </trkpt>
      <trkpt lat="45.25195" lon="6.12739">
        <ele>2313</ele>
        <time>2021-12-23T11:10:04Z</time>
      </trkpt>
      <trkpt lat="45.25195" lon="6.12738">
        <ele>2313</ele>
        <time>2021-12-23T11:10:05Z</time>
      </trkpt>
      <trkpt lat="45.25195" lon="6.12738">
        <ele>2313</ele>
        <time>2021-12-23T11:10:06Z</time>
      </trkpt>
      <trkpt lat="45.25195" lon="6.12737">
        <ele>2313</ele>
        <time>2021-12-23T11:10:07Z</time>
      </trkpt>
      <trkpt lat="45.25194" lon="6.12737">
        <ele>2313</ele>
        <time>2021-12-23T11:10:09Z</time>
      </trkpt>
      <trkpt lat="45.25194" lon="6.12737">
        <ele>2313</ele>
        <time>2021-12-23T11:10:10Z</time>
      </trkpt>
      <trkpt lat="45.25194" lon="6.12737">
        <ele>2313</ele>
        <time>2021-12-23T11:10:11Z</time>
      </trkpt>
      <trkpt lat="45.25193" lon="6.12737">
        <ele>2313</ele>
        <time>2021-12-23T11:10:12Z</time>
      </trkpt>
      <trkpt lat="45.25193" lon="6.12737">
        <ele>2313</ele>
        <time>2021-12-23T11:10:13Z</time>
      </trkpt>
      <trkpt lat="45.25192" lon="6.12737">
        <ele>2313</ele>
        <time>2021-12-23T11:10:14Z</time>
      </trkpt>
      <trkpt lat="45.25192" lon="6.12737">
        <ele>2314</ele>
        <time>2021-12-23T11:10:15Z</time>
      </trkpt>
      <trkpt lat="45.25191" lon="6.12737">
        <ele>2314</ele>
        <time>2021-12-23T11:10:16Z</time>
      </trkpt>
      <trkpt lat="45.25191" lon="6.12738">
        <ele>2315</ele>
        <time>2021-12-23T11:10:17Z</time>
      </trkpt>
      <trkpt lat="45.25191" lon="6.12738">
        <ele>2315</ele>
        <time>2021-12-23T11:10:18Z</time>
      </trkpt>
      <trkpt lat="45.2519" lon="6.12738">
        <ele>2315</ele>
        <time>2021-12-23T11:10:19Z</time>
      </trkpt>
      <trkpt lat="45.2519" lon="6.12738">
        <ele>2315</ele>
        <time>2021-12-23T11:10:20Z</time>
      </trkpt>
      <trkpt lat="45.25189" lon="6.12738">
        <ele>2315</ele>
        <time>2021-12-23T11:10:21Z</time>
      </trkpt>
      <trkpt lat="45.25189" lon="6.12738">
        <ele>2315</ele>
        <time>2021-12-23T11:10:22Z</time>
      </trkpt>
      <trkpt lat="45.25189" lon="6.12738">
        <ele>2316</ele>
        <time>2021-12-23T11:10:23Z</time>
      </trkpt>
      <trkpt lat="45.25188" lon="6.12738">
        <ele>2316</ele>
        <time>2021-12-23T11:10:24Z</time>
      </trkpt>
      <trkpt lat="45.25188" lon="6.12738">
        <ele>2316</ele>
        <time>2021-12-23T11:10:25Z</time>
      </trkpt>
      <trkpt lat="45.25187" lon="6.12738">
        <ele>2316</ele>
        <time>2021-12-23T11:10:26Z</time>
      </trkpt>
      <trkpt lat="45.25187" lon="6.12738">
        <ele>2317</ele>
        <time>2021-12-23T11:10:28Z</time>
      </trkpt>
      <trkpt lat="45.25186" lon="6.12738">
        <ele>2317</ele>
        <time>2021-12-23T11:10:29Z</time>
      </trkpt>
      <trkpt lat="45.25186" lon="6.12738">
        <ele>2317</ele>
        <time>2021-12-23T11:10:30Z</time>
      </trkpt>
      <trkpt lat="45.25186" lon="6.12738">
        <ele>2317</ele>
        <time>2021-12-23T11:10:31Z</time>
      </trkpt>
      <trkpt lat="45.25186" lon="6.12738">
        <ele>2317</ele>
        <time>2021-12-23T11:10:32Z</time>
      </trkpt>
      <trkpt lat="45.25186" lon="6.12738">
        <ele>2317</ele>
        <time>2021-12-23T11:10:33Z</time>
      </trkpt>
      <trkpt lat="45.25186" lon="6.12738">
        <ele>2318</ele>
        <time>2021-12-23T11:10:34Z</time>
      </trkpt>
      <trkpt lat="45.25186" lon="6.12738">
        <ele>2318</ele>
        <time>2021-12-23T11:10:35Z</time>
      </trkpt>
      <trkpt lat="45.25186" lon="6.12738">
        <ele>2318</ele>
        <time>2021-12-23T11:10:36Z</time>
      </trkpt>
      <trkpt lat="45.25186" lon="6.12738">
        <ele>2318</ele>
        <time>2021-12-23T11:10:37Z</time>
      </trkpt>
      <trkpt lat="45.25186" lon="6.12738">
        <ele>2318</ele>
        <time>2021-12-23T11:10:38Z</time>
      </trkpt>
      <trkpt lat="45.25186" lon="6.12738">
        <ele>2319</ele>
        <time>2021-12-23T11:10:39Z</time>
      </trkpt>
      <trkpt lat="45.25186" lon="6.12738">
        <ele>2319</ele>
        <time>2021-12-23T11:10:40Z</time>
      </trkpt>
      <trkpt lat="45.25186" lon="6.12738">
        <ele>2319</ele>
        <time>2021-12-23T11:10:41Z</time>
      </trkpt>
      <trkpt lat="45.25186" lon="6.12738">
        <ele>2319</ele>
        <time>2021-12-23T11:10:42Z</time>
      </trkpt>
      <trkpt lat="45.25186" lon="6.12738">
        <ele>2319</ele>
        <time>2021-12-23T11:10:43Z</time>
      </trkpt>
      <trkpt lat="45.25186" lon="6.12738">
        <ele>2319</ele>
        <time>2021-12-23T11:10:44Z</time>
      </trkpt>
      <trkpt lat="45.25186" lon="6.12738">
        <ele>2319</ele>
        <time>2021-12-23T11:10:45Z</time>
      </trkpt>
      <trkpt lat="45.25186" lon="6.12738">
        <ele>2319</ele>
        <time>2021-12-23T11:10:47Z</time>
      </trkpt>
      <trkpt lat="45.25186" lon="6.12738">
        <ele>2319</ele>
        <time>2021-12-23T11:10:48Z</time>
      </trkpt>
      <trkpt lat="45.25186" lon="6.12738">
        <ele>2320</ele>
        <time>2021-12-23T11:10:50Z</time>
      </trkpt>
      <trkpt lat="45.25186" lon="6.12738">
        <ele>2320</ele>
        <time>2021-12-23T11:10:51Z</time>
      </trkpt>
      <trkpt lat="45.25186" lon="6.12738">
        <ele>2320</ele>
        <time>2021-12-23T11:10:52Z</time>
      </trkpt>
      <trkpt lat="45.25177" lon="6.12742">
        <ele>2320</ele>
        <time>2021-12-23T11:10:53Z</time>
      </trkpt>
      <trkpt lat="45.25177" lon="6.12742">
        <ele>2321</ele>
        <time>2021-12-23T11:10:55Z</time>
      </trkpt>
      <trkpt lat="45.25177" lon="6.12742">
        <ele>2321</ele>
        <time>2021-12-23T11:10:56Z</time>
      </trkpt>
      <trkpt lat="45.25177" lon="6.12742">
        <ele>2321</ele>
        <time>2021-12-23T11:10:57Z</time>
      </trkpt>
      <trkpt lat="45.25177" lon="6.12742">
        <ele>2321</ele>
        <time>2021-12-23T11:10:58Z</time>
      </trkpt>
      <trkpt lat="45.25177" lon="6.12742">
        <ele>2322</ele>
        <time>2021-12-23T11:10:59Z</time>
      </trkpt>
      <trkpt lat="45.25177" lon="6.12742">
        <ele>2322</ele>
        <time>2021-12-23T11:11:00Z</time>
      </trkpt>
      <trkpt lat="45.25177" lon="6.12742">
        <ele>2322</ele>
        <time>2021-12-23T11:11:01Z</time>
      </trkpt>
      <trkpt lat="45.25177" lon="6.12742">
        <ele>2322</ele>
        <time>2021-12-23T11:11:02Z</time>
      </trkpt>
      <trkpt lat="45.25177" lon="6.12742">
        <ele>2322</ele>
        <time>2021-12-23T11:11:03Z</time>
      </trkpt>
      <trkpt lat="45.25177" lon="6.12742">
        <ele>2322</ele>
        <time>2021-12-23T11:11:04Z</time>
      </trkpt>
      <trkpt lat="45.25177" lon="6.12742">
        <ele>2323</ele>
        <time>2021-12-23T11:11:06Z</time>
      </trkpt>
      <trkpt lat="45.25177" lon="6.12742">
        <ele>2323</ele>
        <time>2021-12-23T11:11:07Z</time>
      </trkpt>
      <trkpt lat="45.25177" lon="6.12742">
        <ele>2323</ele>
        <time>2021-12-23T11:11:08Z</time>
      </trkpt>
      <trkpt lat="45.25177" lon="6.12742">
        <ele>2323</ele>
        <time>2021-12-23T11:11:09Z</time>
      </trkpt>
      <trkpt lat="45.25177" lon="6.12742">
        <ele>2323</ele>
        <time>2021-12-23T11:11:10Z</time>
      </trkpt>
      <trkpt lat="45.25177" lon="6.12742">
        <ele>2323</ele>
        <time>2021-12-23T11:11:11Z</time>
      </trkpt>
      <trkpt lat="45.25177" lon="6.12742">
        <ele>2323</ele>
        <time>2021-12-23T11:11:12Z</time>
      </trkpt>
      <trkpt lat="45.25177" lon="6.12742">
        <ele>2323</ele>
        <time>2021-12-23T11:11:13Z</time>
      </trkpt>
      <trkpt lat="45.25177" lon="6.12742">
        <ele>2322</ele>
        <time>2021-12-23T11:11:14Z</time>
      </trkpt>
      <trkpt lat="45.25177" lon="6.12742">
        <ele>2322</ele>
        <time>2021-12-23T11:11:15Z</time>
      </trkpt>
      <trkpt lat="45.25177" lon="6.12742">
        <ele>2322</ele>
        <time>2021-12-23T11:11:16Z</time>
      </trkpt>
      <trkpt lat="45.25177" lon="6.12742">
        <ele>2322</ele>
        <time>2021-12-23T11:11:17Z</time>
      </trkpt>
      <trkpt lat="45.25177" lon="6.12742">
        <ele>2322</ele>
        <time>2021-12-23T11:11:18Z</time>
      </trkpt>
      <trkpt lat="45.25177" lon="6.12742">
        <ele>2322</ele>
        <time>2021-12-23T11:11:19Z</time>
      </trkpt>
      <trkpt lat="45.25177" lon="6.12742">
        <ele>2322</ele>
        <time>2021-12-23T11:11:20Z</time>
      </trkpt>
      <trkpt lat="45.25177" lon="6.12742">
        <ele>2322</ele>
        <time>2021-12-23T11:11:21Z</time>
      </trkpt>
      <trkpt lat="45.25177" lon="6.12742">
        <ele>2322</ele>
        <time>2021-12-23T11:11:22Z</time>
      </trkpt>
      <trkpt lat="45.25177" lon="6.12742">
        <ele>2322</ele>
        <time>2021-12-23T11:11:23Z</time>
      </trkpt>
      <trkpt lat="45.25177" lon="6.12742">
        <ele>2322</ele>
        <time>2021-12-23T11:11:25Z</time>
      </trkpt>
      <trkpt lat="45.25177" lon="6.12742">
        <ele>2322</ele>
        <time>2021-12-23T11:11:26Z</time>
      </trkpt>
      <trkpt lat="45.25177" lon="6.12742">
        <ele>2322</ele>
        <time>2021-12-23T11:11:27Z</time>
      </trkpt>
      <trkpt lat="45.25177" lon="6.12742">
        <ele>2323</ele>
        <time>2021-12-23T11:11:28Z</time>
      </trkpt>
      <trkpt lat="45.25177" lon="6.12742">
        <ele>2323</ele>
        <time>2021-12-23T11:11:29Z</time>
      </trkpt>
      <trkpt lat="45.25177" lon="6.12742">
        <ele>2323</ele>
        <time>2021-12-23T11:11:30Z</time>
      </trkpt>
      <trkpt lat="45.25177" lon="6.12742">
        <ele>2322</ele>
        <time>2021-12-23T11:11:31Z</time>
      </trkpt>
      <trkpt lat="45.25177" lon="6.12742">
        <ele>2323</ele>
        <time>2021-12-23T11:11:32Z</time>
      </trkpt>
      <trkpt lat="45.25177" lon="6.12742">
        <ele>2323</ele>
        <time>2021-12-23T11:11:33Z</time>
      </trkpt>
      <trkpt lat="45.25177" lon="6.12742">
        <ele>2323</ele>
        <time>2021-12-23T11:11:34Z</time>
      </trkpt>
      <trkpt lat="45.25177" lon="6.12742">
        <ele>2323</ele>
        <time>2021-12-23T11:11:35Z</time>
      </trkpt>
      <trkpt lat="45.25177" lon="6.12742">
        <ele>2323</ele>
        <time>2021-12-23T11:11:36Z</time>
      </trkpt>
      <trkpt lat="45.25177" lon="6.12742">
        <ele>2323</ele>
        <time>2021-12-23T11:11:37Z</time>
      </trkpt>
      <trkpt lat="45.25177" lon="6.12742">
        <ele>2323</ele>
        <time>2021-12-23T11:11:38Z</time>
      </trkpt>
      <trkpt lat="45.25177" lon="6.12742">
        <ele>2323</ele>
        <time>2021-12-23T11:11:39Z</time>
      </trkpt>
      <trkpt lat="45.25177" lon="6.12742">
        <ele>2323</ele>
        <time>2021-12-23T11:11:40Z</time>
      </trkpt>
      <trkpt lat="45.25177" lon="6.12742">
        <ele>2324</ele>
        <time>2021-12-23T11:11:41Z</time>
      </trkpt>
      <trkpt lat="45.25175" lon="6.12731">
        <ele>2324</ele>
        <time>2021-12-23T11:11:42Z</time>
      </trkpt>
      <trkpt lat="45.25175" lon="6.12731">
        <ele>2325</ele>
        <time>2021-12-23T11:11:44Z</time>
      </trkpt>
      <trkpt lat="45.25175" lon="6.1273">
        <ele>2325</ele>
        <time>2021-12-23T11:11:45Z</time>
      </trkpt>
      <trkpt lat="45.25175" lon="6.12729">
        <ele>2325</ele>
        <time>2021-12-23T11:11:46Z</time>
      </trkpt>
      <trkpt lat="45.25175" lon="6.12729">
        <ele>2326</ele>
        <time>2021-12-23T11:11:47Z</time>
      </trkpt>
      <trkpt lat="45.25175" lon="6.12728">
        <ele>2326</ele>
        <time>2021-12-23T11:11:48Z</time>
      </trkpt>
      <trkpt lat="45.25175" lon="6.12727">
        <ele>2326</ele>
        <time>2021-12-23T11:11:49Z</time>
      </trkpt>
      <trkpt lat="45.25175" lon="6.12727">
        <ele>2326</ele>
        <time>2021-12-23T11:11:50Z</time>
      </trkpt>
      <trkpt lat="45.25175" lon="6.12726">
        <ele>2326</ele>
        <time>2021-12-23T11:11:51Z</time>
      </trkpt>
      <trkpt lat="45.25175" lon="6.12725">
        <ele>2326</ele>
        <time>2021-12-23T11:11:52Z</time>
      </trkpt>
      <trkpt lat="45.25175" lon="6.12725">
        <ele>2326</ele>
        <time>2021-12-23T11:11:53Z</time>
      </trkpt>
      <trkpt lat="45.25175" lon="6.12724">
        <ele>2326</ele>
        <time>2021-12-23T11:11:54Z</time>
      </trkpt>
      <trkpt lat="45.25175" lon="6.12723">
        <ele>2326</ele>
        <time>2021-12-23T11:11:55Z</time>
      </trkpt>
      <trkpt lat="45.25175" lon="6.12723">
        <ele>2326</ele>
        <time>2021-12-23T11:11:56Z</time>
      </trkpt>
      <trkpt lat="45.25175" lon="6.12722">
        <ele>2326</ele>
        <time>2021-12-23T11:11:57Z</time>
      </trkpt>
      <trkpt lat="45.25175" lon="6.12721">
        <ele>2326</ele>
        <time>2021-12-23T11:11:58Z</time>
      </trkpt>
      <trkpt lat="45.25175" lon="6.12721">
        <ele>2326</ele>
        <time>2021-12-23T11:11:59Z</time>
      </trkpt>
      <trkpt lat="45.25175" lon="6.1272">
        <ele>2327</ele>
        <time>2021-12-23T11:12:00Z</time>
      </trkpt>
      <trkpt lat="45.25175" lon="6.12719">
        <ele>2328</ele>
        <time>2021-12-23T11:12:01Z</time>
      </trkpt>
      <trkpt lat="45.25175" lon="6.12719">
        <ele>2328</ele>
        <time>2021-12-23T11:12:03Z</time>
      </trkpt>
      <trkpt lat="45.25175" lon="6.12718">
        <ele>2328</ele>
        <time>2021-12-23T11:12:04Z</time>
      </trkpt>
      <trkpt lat="45.25175" lon="6.12717">
        <ele>2328</ele>
        <time>2021-12-23T11:12:05Z</time>
      </trkpt>
      <trkpt lat="45.25175" lon="6.12717">
        <ele>2328</ele>
        <time>2021-12-23T11:12:06Z</time>
      </trkpt>
      <trkpt lat="45.25175" lon="6.12716">
        <ele>2328</ele>
        <time>2021-12-23T11:12:07Z</time>
      </trkpt>
      <trkpt lat="45.25175" lon="6.12715">
        <ele>2328</ele>
        <time>2021-12-23T11:12:08Z</time>
      </trkpt>
      <trkpt lat="45.25174" lon="6.12715">
        <ele>2328</ele>
        <time>2021-12-23T11:12:09Z</time>
      </trkpt>
      <trkpt lat="45.25174" lon="6.12714">
        <ele>2328</ele>
        <time>2021-12-23T11:12:10Z</time>
      </trkpt>
      <trkpt lat="45.25174" lon="6.12714">
        <ele>2328</ele>
        <time>2021-12-23T11:12:11Z</time>
      </trkpt>
      <trkpt lat="45.25174" lon="6.12713">
        <ele>2328</ele>
        <time>2021-12-23T11:12:12Z</time>
      </trkpt>
      <trkpt lat="45.25174" lon="6.12713">
        <ele>2328</ele>
        <time>2021-12-23T11:12:13Z</time>
      </trkpt>
      <trkpt lat="45.25174" lon="6.12712">
        <ele>2328</ele>
        <time>2021-12-23T11:12:14Z</time>
      </trkpt>
      <trkpt lat="45.25173" lon="6.12711">
        <ele>2329</ele>
        <time>2021-12-23T11:12:15Z</time>
      </trkpt>
      <trkpt lat="45.25173" lon="6.12711">
        <ele>2329</ele>
        <time>2021-12-23T11:12:16Z</time>
      </trkpt>
      <trkpt lat="45.25173" lon="6.1271">
        <ele>2329</ele>
        <time>2021-12-23T11:12:17Z</time>
      </trkpt>
      <trkpt lat="45.25173" lon="6.1271">
        <ele>2330</ele>
        <time>2021-12-23T11:12:18Z</time>
      </trkpt>
      <trkpt lat="45.25173" lon="6.12709">
        <ele>2330</ele>
        <time>2021-12-23T11:12:19Z</time>
      </trkpt>
      <trkpt lat="45.25173" lon="6.12708">
        <ele>2330</ele>
        <time>2021-12-23T11:12:20Z</time>
      </trkpt>
      <trkpt lat="45.25173" lon="6.12708">
        <ele>2330</ele>
        <time>2021-12-23T11:12:22Z</time>
      </trkpt>
      <trkpt lat="45.25172" lon="6.12707">
        <ele>2330</ele>
        <time>2021-12-23T11:12:23Z</time>
      </trkpt>
      <trkpt lat="45.25172" lon="6.12707">
        <ele>2330</ele>
        <time>2021-12-23T11:12:24Z</time>
      </trkpt>
      <trkpt lat="45.25172" lon="6.12706">
        <ele>2330</ele>
        <time>2021-12-23T11:12:25Z</time>
      </trkpt>
      <trkpt lat="45.25172" lon="6.12706">
        <ele>2331</ele>
        <time>2021-12-23T11:12:26Z</time>
      </trkpt>
      <trkpt lat="45.25172" lon="6.12705">
        <ele>2331</ele>
        <time>2021-12-23T11:12:27Z</time>
      </trkpt>
      <trkpt lat="45.25172" lon="6.12704">
        <ele>2332</ele>
        <time>2021-12-23T11:12:28Z</time>
      </trkpt>
      <trkpt lat="45.25171" lon="6.12703">
        <ele>2332</ele>
        <time>2021-12-23T11:12:29Z</time>
      </trkpt>
      <trkpt lat="45.25171" lon="6.12702">
        <ele>2332</ele>
        <time>2021-12-23T11:12:30Z</time>
      </trkpt>
      <trkpt lat="45.25171" lon="6.12701">
        <ele>2332</ele>
        <time>2021-12-23T11:12:31Z</time>
      </trkpt>
      <trkpt lat="45.25171" lon="6.12701">
        <ele>2332</ele>
        <time>2021-12-23T11:12:32Z</time>
      </trkpt>
      <trkpt lat="45.25171" lon="6.127">
        <ele>2332</ele>
        <time>2021-12-23T11:12:33Z</time>
      </trkpt>
      <trkpt lat="45.25171" lon="6.12699">
        <ele>2332</ele>
        <time>2021-12-23T11:12:34Z</time>
      </trkpt>
      <trkpt lat="45.25171" lon="6.12698">
        <ele>2332</ele>
        <time>2021-12-23T11:12:35Z</time>
      </trkpt>
      <trkpt lat="45.2517" lon="6.12697">
        <ele>2332</ele>
        <time>2021-12-23T11:12:36Z</time>
      </trkpt>
      <trkpt lat="45.2517" lon="6.12696">
        <ele>2332</ele>
        <time>2021-12-23T11:12:37Z</time>
      </trkpt>
      <trkpt lat="45.2517" lon="6.12695">
        <ele>2332</ele>
        <time>2021-12-23T11:12:38Z</time>
      </trkpt>
      <trkpt lat="45.2517" lon="6.12694">
        <ele>2332</ele>
        <time>2021-12-23T11:12:39Z</time>
      </trkpt>
      <trkpt lat="45.2517" lon="6.12694">
        <ele>2333</ele>
        <time>2021-12-23T11:12:41Z</time>
      </trkpt>
      <trkpt lat="45.2517" lon="6.12693">
        <ele>2333</ele>
        <time>2021-12-23T11:12:42Z</time>
      </trkpt>
      <trkpt lat="45.2517" lon="6.12693">
        <ele>2333</ele>
        <time>2021-12-23T11:12:43Z</time>
      </trkpt>
      <trkpt lat="45.2517" lon="6.12693">
        <ele>2333</ele>
        <time>2021-12-23T11:12:44Z</time>
      </trkpt>
      <trkpt lat="45.2517" lon="6.12693">
        <ele>2333</ele>
        <time>2021-12-23T11:12:45Z</time>
      </trkpt>
      <trkpt lat="45.2517" lon="6.12693">
        <ele>2333</ele>
        <time>2021-12-23T11:12:46Z</time>
      </trkpt>
      <trkpt lat="45.2517" lon="6.12693">
        <ele>2333</ele>
        <time>2021-12-23T11:12:47Z</time>
      </trkpt>
      <trkpt lat="45.2517" lon="6.12693">
        <ele>2333</ele>
        <time>2021-12-23T11:12:48Z</time>
      </trkpt>
      <trkpt lat="45.2517" lon="6.12693">
        <ele>2333</ele>
        <time>2021-12-23T11:12:49Z</time>
      </trkpt>
      <trkpt lat="45.2517" lon="6.12693">
        <ele>2333</ele>
        <time>2021-12-23T11:12:50Z</time>
      </trkpt>
      <trkpt lat="45.2517" lon="6.12693">
        <ele>2333</ele>
        <time>2021-12-23T11:12:51Z</time>
      </trkpt>
      <trkpt lat="45.2517" lon="6.12693">
        <ele>2333</ele>
        <time>2021-12-23T11:12:52Z</time>
      </trkpt>
      <trkpt lat="45.2517" lon="6.12693">
        <ele>2334</ele>
        <time>2021-12-23T11:12:53Z</time>
      </trkpt>
      <trkpt lat="45.2517" lon="6.12693">
        <ele>2334</ele>
        <time>2021-12-23T11:12:54Z</time>
      </trkpt>
      <trkpt lat="45.2517" lon="6.12693">
        <ele>2334</ele>
        <time>2021-12-23T11:12:55Z</time>
      </trkpt>
      <trkpt lat="45.2517" lon="6.12693">
        <ele>2334</ele>
        <time>2021-12-23T11:12:56Z</time>
      </trkpt>
      <trkpt lat="45.2517" lon="6.12693">
        <ele>2334</ele>
        <time>2021-12-23T11:12:57Z</time>
      </trkpt>
      <trkpt lat="45.2517" lon="6.12693">
        <ele>2334</ele>
        <time>2021-12-23T11:12:58Z</time>
      </trkpt>
      <trkpt lat="45.2517" lon="6.12693">
        <ele>2337</ele>
        <time>2021-12-23T11:13:00Z</time>
      </trkpt>
      <trkpt lat="45.2517" lon="6.12693">
        <ele>2337</ele>
        <time>2021-12-23T11:13:01Z</time>
      </trkpt>
      <trkpt lat="45.2517" lon="6.12693">
        <ele>2337</ele>
        <time>2021-12-23T11:13:02Z</time>
      </trkpt>
      <trkpt lat="45.2517" lon="6.12693">
        <ele>2336</ele>
        <time>2021-12-23T11:13:03Z</time>
      </trkpt>
      <trkpt lat="45.2517" lon="6.12693">
        <ele>2336</ele>
        <time>2021-12-23T11:13:04Z</time>
      </trkpt>
      <trkpt lat="45.2517" lon="6.12693">
        <ele>2336</ele>
        <time>2021-12-23T11:13:05Z</time>
      </trkpt>
      <trkpt lat="45.2517" lon="6.12693">
        <ele>2336</ele>
        <time>2021-12-23T11:13:06Z</time>
      </trkpt>
      <trkpt lat="45.2517" lon="6.12693">
        <ele>2336</ele>
        <time>2021-12-23T11:13:07Z</time>
      </trkpt>
      <trkpt lat="45.2517" lon="6.12693">
        <ele>2336</ele>
        <time>2021-12-23T11:13:08Z</time>
      </trkpt>
      <trkpt lat="45.2517" lon="6.12693">
        <ele>2336</ele>
        <time>2021-12-23T11:13:09Z</time>
      </trkpt>
      <trkpt lat="45.2517" lon="6.12693">
        <ele>2336</ele>
        <time>2021-12-23T11:13:10Z</time>
      </trkpt>
      <trkpt lat="45.2517" lon="6.12693">
        <ele>2337</ele>
        <time>2021-12-23T11:13:11Z</time>
      </trkpt>
      <trkpt lat="45.2517" lon="6.12693">
        <ele>2337</ele>
        <time>2021-12-23T11:13:12Z</time>
      </trkpt>
      <trkpt lat="45.2517" lon="6.12693">
        <ele>2338</ele>
        <time>2021-12-23T11:13:13Z</time>
      </trkpt>
      <trkpt lat="45.2517" lon="6.12693">
        <ele>2338</ele>
        <time>2021-12-23T11:13:14Z</time>
      </trkpt>
      <trkpt lat="45.2517" lon="6.12693">
        <ele>2338</ele>
        <time>2021-12-23T11:13:15Z</time>
      </trkpt>
      <trkpt lat="45.2517" lon="6.12693">
        <ele>2338</ele>
        <time>2021-12-23T11:13:16Z</time>
      </trkpt>
      <trkpt lat="45.2517" lon="6.12693">
        <ele>2338</ele>
        <time>2021-12-23T11:13:17Z</time>
      </trkpt>
      <trkpt lat="45.25161" lon="6.12687">
        <ele>2339</ele>
        <time>2021-12-23T11:13:19Z</time>
      </trkpt>
      <trkpt lat="45.25161" lon="6.12687">
        <ele>2339</ele>
        <time>2021-12-23T11:13:21Z</time>
      </trkpt>
      <trkpt lat="45.25161" lon="6.12688">
        <ele>2339</ele>
        <time>2021-12-23T11:13:22Z</time>
      </trkpt>
      <trkpt lat="45.25161" lon="6.12689">
        <ele>2339</ele>
        <time>2021-12-23T11:13:23Z</time>
      </trkpt>
      <trkpt lat="45.25161" lon="6.1269">
        <ele>2339</ele>
        <time>2021-12-23T11:13:24Z</time>
      </trkpt>
      <trkpt lat="45.25161" lon="6.1269">
        <ele>2339</ele>
        <time>2021-12-23T11:13:25Z</time>
      </trkpt>
      <trkpt lat="45.25161" lon="6.12691">
        <ele>2339</ele>
        <time>2021-12-23T11:13:26Z</time>
      </trkpt>
      <trkpt lat="45.25161" lon="6.12692">
        <ele>2339</ele>
        <time>2021-12-23T11:13:27Z</time>
      </trkpt>
      <trkpt lat="45.2516" lon="6.12693">
        <ele>2339</ele>
        <time>2021-12-23T11:13:28Z</time>
      </trkpt>
      <trkpt lat="45.2516" lon="6.12693">
        <ele>2339</ele>
        <time>2021-12-23T11:13:29Z</time>
      </trkpt>
      <trkpt lat="45.2516" lon="6.12694">
        <ele>2339</ele>
        <time>2021-12-23T11:13:30Z</time>
      </trkpt>
      <trkpt lat="45.2516" lon="6.12695">
        <ele>2340</ele>
        <time>2021-12-23T11:13:31Z</time>
      </trkpt>
      <trkpt lat="45.2516" lon="6.12696">
        <ele>2340</ele>
        <time>2021-12-23T11:13:32Z</time>
      </trkpt>
      <trkpt lat="45.2516" lon="6.12696">
        <ele>2340</ele>
        <time>2021-12-23T11:13:33Z</time>
      </trkpt>
      <trkpt lat="45.2516" lon="6.12697">
        <ele>2341</ele>
        <time>2021-12-23T11:13:34Z</time>
      </trkpt>
      <trkpt lat="45.2516" lon="6.12698">
        <ele>2341</ele>
        <time>2021-12-23T11:13:35Z</time>
      </trkpt>
      <trkpt lat="45.2516" lon="6.12699">
        <ele>2342</ele>
        <time>2021-12-23T11:13:36Z</time>
      </trkpt>
      <trkpt lat="45.25159" lon="6.127">
        <ele>2342</ele>
        <time>2021-12-23T11:13:38Z</time>
      </trkpt>
      <trkpt lat="45.25159" lon="6.127">
        <ele>2342</ele>
        <time>2021-12-23T11:13:39Z</time>
      </trkpt>
      <trkpt lat="45.25159" lon="6.12701">
        <ele>2342</ele>
        <time>2021-12-23T11:13:40Z</time>
      </trkpt>
      <trkpt lat="45.25158" lon="6.12701">
        <ele>2342</ele>
        <time>2021-12-23T11:13:41Z</time>
      </trkpt>
      <trkpt lat="45.25157" lon="6.12701">
        <ele>2342</ele>
        <time>2021-12-23T11:13:42Z</time>
      </trkpt>
      <trkpt lat="45.25157" lon="6.12702">
        <ele>2342</ele>
        <time>2021-12-23T11:13:43Z</time>
      </trkpt>
      <trkpt lat="45.25156" lon="6.12702">
        <ele>2343</ele>
        <time>2021-12-23T11:13:44Z</time>
      </trkpt>
      <trkpt lat="45.25155" lon="6.12702">
        <ele>2343</ele>
        <time>2021-12-23T11:13:45Z</time>
      </trkpt>
      <trkpt lat="45.25154" lon="6.12703">
        <ele>2343</ele>
        <time>2021-12-23T11:13:46Z</time>
      </trkpt>
      <trkpt lat="45.25154" lon="6.12703">
        <ele>2343</ele>
        <time>2021-12-23T11:13:47Z</time>
      </trkpt>
      <trkpt lat="45.25153" lon="6.12703">
        <ele>2344</ele>
        <time>2021-12-23T11:13:48Z</time>
      </trkpt>
      <trkpt lat="45.25152" lon="6.12704">
        <ele>2344</ele>
        <time>2021-12-23T11:13:49Z</time>
      </trkpt>
      <trkpt lat="45.25152" lon="6.12704">
        <ele>2344</ele>
        <time>2021-12-23T11:13:50Z</time>
      </trkpt>
      <trkpt lat="45.25151" lon="6.12704">
        <ele>2344</ele>
        <time>2021-12-23T11:13:51Z</time>
      </trkpt>
      <trkpt lat="45.2515" lon="6.12705">
        <ele>2344</ele>
        <time>2021-12-23T11:13:52Z</time>
      </trkpt>
      <trkpt lat="45.2515" lon="6.12705">
        <ele>2344</ele>
        <time>2021-12-23T11:13:53Z</time>
      </trkpt>
      <trkpt lat="45.25149" lon="6.12705">
        <ele>2344</ele>
        <time>2021-12-23T11:13:54Z</time>
      </trkpt>
      <trkpt lat="45.25149" lon="6.12705">
        <ele>2344</ele>
        <time>2021-12-23T11:13:55Z</time>
      </trkpt>
      <trkpt lat="45.25149" lon="6.12705">
        <ele>2344</ele>
        <time>2021-12-23T11:13:57Z</time>
      </trkpt>
      <trkpt lat="45.25148" lon="6.12705">
        <ele>2344</ele>
        <time>2021-12-23T11:13:58Z</time>
      </trkpt>
      <trkpt lat="45.25148" lon="6.12705">
        <ele>2345</ele>
        <time>2021-12-23T11:13:59Z</time>
      </trkpt>
      <trkpt lat="45.25147" lon="6.12705">
        <ele>2345</ele>
        <time>2021-12-23T11:14:00Z</time>
      </trkpt>
      <trkpt lat="45.25147" lon="6.12705">
        <ele>2345</ele>
        <time>2021-12-23T11:14:01Z</time>
      </trkpt>
      <trkpt lat="45.25147" lon="6.12705">
        <ele>2345</ele>
        <time>2021-12-23T11:14:02Z</time>
      </trkpt>
      <trkpt lat="45.25146" lon="6.12705">
        <ele>2345</ele>
        <time>2021-12-23T11:14:03Z</time>
      </trkpt>
      <trkpt lat="45.25146" lon="6.12705">
        <ele>2345</ele>
        <time>2021-12-23T11:14:04Z</time>
      </trkpt>
      <trkpt lat="45.25145" lon="6.12705">
        <ele>2345</ele>
        <time>2021-12-23T11:14:05Z</time>
      </trkpt>
      <trkpt lat="45.25145" lon="6.12705">
        <ele>2346</ele>
        <time>2021-12-23T11:14:06Z</time>
      </trkpt>
      <trkpt lat="45.25144" lon="6.12705">
        <ele>2346</ele>
        <time>2021-12-23T11:14:07Z</time>
      </trkpt>
      <trkpt lat="45.25144" lon="6.12705">
        <ele>2346</ele>
        <time>2021-12-23T11:14:08Z</time>
      </trkpt>
      <trkpt lat="45.25144" lon="6.12705">
        <ele>2346</ele>
        <time>2021-12-23T11:14:09Z</time>
      </trkpt>
      <trkpt lat="45.25143" lon="6.12705">
        <ele>2346</ele>
        <time>2021-12-23T11:14:10Z</time>
      </trkpt>
      <trkpt lat="45.25143" lon="6.12705">
        <ele>2347</ele>
        <time>2021-12-23T11:14:11Z</time>
      </trkpt>
      <trkpt lat="45.25142" lon="6.12705">
        <ele>2347</ele>
        <time>2021-12-23T11:14:12Z</time>
      </trkpt>
      <trkpt lat="45.25142" lon="6.12705">
        <ele>2347</ele>
        <time>2021-12-23T11:14:13Z</time>
      </trkpt>
      <trkpt lat="45.25142" lon="6.12706">
        <ele>2347</ele>
        <time>2021-12-23T11:14:14Z</time>
      </trkpt>
      <trkpt lat="45.25142" lon="6.12704">
        <ele>2348</ele>
        <time>2021-12-23T11:14:16Z</time>
      </trkpt>
      <trkpt lat="45.25142" lon="6.12702">
        <ele>2348</ele>
        <time>2021-12-23T11:14:17Z</time>
      </trkpt>
      <trkpt lat="45.25142" lon="6.12701">
        <ele>2348</ele>
        <time>2021-12-23T11:14:18Z</time>
      </trkpt>
      <trkpt lat="45.25143" lon="6.12699">
        <ele>2348</ele>
        <time>2021-12-23T11:14:19Z</time>
      </trkpt>
      <trkpt lat="45.25143" lon="6.12698">
        <ele>2348</ele>
        <time>2021-12-23T11:14:20Z</time>
      </trkpt>
      <trkpt lat="45.25143" lon="6.12696">
        <ele>2348</ele>
        <time>2021-12-23T11:14:21Z</time>
      </trkpt>
      <trkpt lat="45.25143" lon="6.12695">
        <ele>2348</ele>
        <time>2021-12-23T11:14:22Z</time>
      </trkpt>
      <trkpt lat="45.25144" lon="6.12693">
        <ele>2349</ele>
        <time>2021-12-23T11:14:23Z</time>
      </trkpt>
      <trkpt lat="45.25144" lon="6.12693">
        <ele>2349</ele>
        <time>2021-12-23T11:14:24Z</time>
      </trkpt>
      <trkpt lat="45.25144" lon="6.12693">
        <ele>2349</ele>
        <time>2021-12-23T11:14:25Z</time>
      </trkpt>
      <trkpt lat="45.25144" lon="6.12693">
        <ele>2349</ele>
        <time>2021-12-23T11:14:26Z</time>
      </trkpt>
      <trkpt lat="45.25144" lon="6.12693">
        <ele>2349</ele>
        <time>2021-12-23T11:14:27Z</time>
      </trkpt>
      <trkpt lat="45.25144" lon="6.12693">
        <ele>2349</ele>
        <time>2021-12-23T11:14:28Z</time>
      </trkpt>
      <trkpt lat="45.25144" lon="6.12693">
        <ele>2349</ele>
        <time>2021-12-23T11:14:29Z</time>
      </trkpt>
      <trkpt lat="45.25144" lon="6.12693">
        <ele>2349</ele>
        <time>2021-12-23T11:14:30Z</time>
      </trkpt>
      <trkpt lat="45.25144" lon="6.12693">
        <ele>2350</ele>
        <time>2021-12-23T11:14:31Z</time>
      </trkpt>
      <trkpt lat="45.25144" lon="6.12693">
        <ele>2350</ele>
        <time>2021-12-23T11:14:32Z</time>
      </trkpt>
      <trkpt lat="45.25144" lon="6.12693">
        <ele>2350</ele>
        <time>2021-12-23T11:14:33Z</time>
      </trkpt>
      <trkpt lat="45.25144" lon="6.12693">
        <ele>2350</ele>
        <time>2021-12-23T11:14:35Z</time>
      </trkpt>
      <trkpt lat="45.25144" lon="6.12693">
        <ele>2350</ele>
        <time>2021-12-23T11:14:36Z</time>
      </trkpt>
      <trkpt lat="45.25144" lon="6.12693">
        <ele>2350</ele>
        <time>2021-12-23T11:14:37Z</time>
      </trkpt>
      <trkpt lat="45.25144" lon="6.12693">
        <ele>2350</ele>
        <time>2021-12-23T11:14:38Z</time>
      </trkpt>
      <trkpt lat="45.25144" lon="6.12693">
        <ele>2350</ele>
        <time>2021-12-23T11:14:39Z</time>
      </trkpt>
      <trkpt lat="45.25144" lon="6.12693">
        <ele>2351</ele>
        <time>2021-12-23T11:14:40Z</time>
      </trkpt>
      <trkpt lat="45.25144" lon="6.12693">
        <ele>2351</ele>
        <time>2021-12-23T11:14:41Z</time>
      </trkpt>
      <trkpt lat="45.25144" lon="6.12693">
        <ele>2351</ele>
        <time>2021-12-23T11:14:42Z</time>
      </trkpt>
      <trkpt lat="45.25144" lon="6.12693">
        <ele>2351</ele>
        <time>2021-12-23T11:14:43Z</time>
      </trkpt>
      <trkpt lat="45.25146" lon="6.1268">
        <ele>2351</ele>
        <time>2021-12-23T11:14:44Z</time>
      </trkpt>
      <trkpt lat="45.25146" lon="6.1268">
        <ele>2352</ele>
        <time>2021-12-23T11:14:46Z</time>
      </trkpt>
      <trkpt lat="45.25146" lon="6.12678">
        <ele>2352</ele>
        <time>2021-12-23T11:14:47Z</time>
      </trkpt>
      <trkpt lat="45.25146" lon="6.12677">
        <ele>2352</ele>
        <time>2021-12-23T11:14:48Z</time>
      </trkpt>
      <trkpt lat="45.25146" lon="6.12675">
        <ele>2353</ele>
        <time>2021-12-23T11:14:49Z</time>
      </trkpt>
      <trkpt lat="45.25146" lon="6.12674">
        <ele>2353</ele>
        <time>2021-12-23T11:14:50Z</time>
      </trkpt>
      <trkpt lat="45.25146" lon="6.12672">
        <ele>2353</ele>
        <time>2021-12-23T11:14:51Z</time>
      </trkpt>
      <trkpt lat="45.25146" lon="6.12671">
        <ele>2353</ele>
        <time>2021-12-23T11:14:52Z</time>
      </trkpt>
      <trkpt lat="45.25146" lon="6.12669">
        <ele>2353</ele>
        <time>2021-12-23T11:14:54Z</time>
      </trkpt>
      <trkpt lat="45.25146" lon="6.12668">
        <ele>2353</ele>
        <time>2021-12-23T11:14:55Z</time>
      </trkpt>
      <trkpt lat="45.25146" lon="6.12666">
        <ele>2353</ele>
        <time>2021-12-23T11:14:56Z</time>
      </trkpt>
      <trkpt lat="45.25146" lon="6.12665">
        <ele>2353</ele>
        <time>2021-12-23T11:14:57Z</time>
      </trkpt>
      <trkpt lat="45.25146" lon="6.12663">
        <ele>2353</ele>
        <time>2021-12-23T11:14:58Z</time>
      </trkpt>
      <trkpt lat="45.25146" lon="6.12661">
        <ele>2353</ele>
        <time>2021-12-23T11:14:59Z</time>
      </trkpt>
      <trkpt lat="45.25145" lon="6.12659">
        <ele>2354</ele>
        <time>2021-12-23T11:15:00Z</time>
      </trkpt>
      <trkpt lat="45.25145" lon="6.12657">
        <ele>2354</ele>
        <time>2021-12-23T11:15:01Z</time>
      </trkpt>
      <trkpt lat="45.25145" lon="6.12655">
        <ele>2354</ele>
        <time>2021-12-23T11:15:02Z</time>
      </trkpt>
      <trkpt lat="45.25145" lon="6.12653">
        <ele>2354</ele>
        <time>2021-12-23T11:15:03Z</time>
      </trkpt>
      <trkpt lat="45.25145" lon="6.12651">
        <ele>2354</ele>
        <time>2021-12-23T11:15:04Z</time>
      </trkpt>
      <trkpt lat="45.25145" lon="6.1265">
        <ele>2354</ele>
        <time>2021-12-23T11:15:05Z</time>
      </trkpt>
      <trkpt lat="45.25145" lon="6.1265">
        <ele>2355</ele>
        <time>2021-12-23T11:15:06Z</time>
      </trkpt>
      <trkpt lat="45.25145" lon="6.12649">
        <ele>2355</ele>
        <time>2021-12-23T11:15:07Z</time>
      </trkpt>
      <trkpt lat="45.25145" lon="6.12649">
        <ele>2355</ele>
        <time>2021-12-23T11:15:08Z</time>
      </trkpt>
      <trkpt lat="45.25145" lon="6.12648">
        <ele>2355</ele>
        <time>2021-12-23T11:15:09Z</time>
      </trkpt>
      <trkpt lat="45.25145" lon="6.12647">
        <ele>2355</ele>
        <time>2021-12-23T11:15:10Z</time>
      </trkpt>
      <trkpt lat="45.25144" lon="6.12647">
        <ele>2355</ele>
        <time>2021-12-23T11:15:11Z</time>
      </trkpt>
      <trkpt lat="45.25144" lon="6.12646">
        <ele>2356</ele>
        <time>2021-12-23T11:15:13Z</time>
      </trkpt>
      <trkpt lat="45.25144" lon="6.12645">
        <ele>2356</ele>
        <time>2021-12-23T11:15:14Z</time>
      </trkpt>
      <trkpt lat="45.25144" lon="6.12645">
        <ele>2356</ele>
        <time>2021-12-23T11:15:15Z</time>
      </trkpt>
      <trkpt lat="45.25144" lon="6.12644">
        <ele>2356</ele>
        <time>2021-12-23T11:15:16Z</time>
      </trkpt>
      <trkpt lat="45.25144" lon="6.12644">
        <ele>2356</ele>
        <time>2021-12-23T11:15:17Z</time>
      </trkpt>
      <trkpt lat="45.25144" lon="6.12643">
        <ele>2356</ele>
        <time>2021-12-23T11:15:18Z</time>
      </trkpt>
      <trkpt lat="45.25144" lon="6.12642">
        <ele>2356</ele>
        <time>2021-12-23T11:15:19Z</time>
      </trkpt>
      <trkpt lat="45.25143" lon="6.12642">
        <ele>2356</ele>
        <time>2021-12-23T11:15:20Z</time>
      </trkpt>
      <trkpt lat="45.25143" lon="6.12641">
        <ele>2356</ele>
        <time>2021-12-23T11:15:21Z</time>
      </trkpt>
      <trkpt lat="45.25143" lon="6.12641">
        <ele>2356</ele>
        <time>2021-12-23T11:15:22Z</time>
      </trkpt>
      <trkpt lat="45.25143" lon="6.1264">
        <ele>2356</ele>
        <time>2021-12-23T11:15:23Z</time>
      </trkpt>
      <trkpt lat="45.25143" lon="6.12639">
        <ele>2357</ele>
        <time>2021-12-23T11:15:24Z</time>
      </trkpt>
      <trkpt lat="45.25143" lon="6.12639">
        <ele>2357</ele>
        <time>2021-12-23T11:15:25Z</time>
      </trkpt>
      <trkpt lat="45.25142" lon="6.12638">
        <ele>2357</ele>
        <time>2021-12-23T11:15:26Z</time>
      </trkpt>
      <trkpt lat="45.25142" lon="6.12638">
        <ele>2357</ele>
        <time>2021-12-23T11:15:27Z</time>
      </trkpt>
      <trkpt lat="45.25142" lon="6.12637">
        <ele>2358</ele>
        <time>2021-12-23T11:15:28Z</time>
      </trkpt>
      <trkpt lat="45.25142" lon="6.12636">
        <ele>2358</ele>
        <time>2021-12-23T11:15:29Z</time>
      </trkpt>
      <trkpt lat="45.25141" lon="6.12636">
        <ele>2358</ele>
        <time>2021-12-23T11:15:30Z</time>
      </trkpt>
      <trkpt lat="45.25141" lon="6.12635">
        <ele>2358</ele>
        <time>2021-12-23T11:15:32Z</time>
      </trkpt>
      <trkpt lat="45.25141" lon="6.12634">
        <ele>2358</ele>
        <time>2021-12-23T11:15:33Z</time>
      </trkpt>
      <trkpt lat="45.2514" lon="6.12634">
        <ele>2358</ele>
        <time>2021-12-23T11:15:34Z</time>
      </trkpt>
      <trkpt lat="45.2514" lon="6.12633">
        <ele>2358</ele>
        <time>2021-12-23T11:15:35Z</time>
      </trkpt>
      <trkpt lat="45.2514" lon="6.12632">
        <ele>2358</ele>
        <time>2021-12-23T11:15:36Z</time>
      </trkpt>
      <trkpt lat="45.2514" lon="6.12632">
        <ele>2359</ele>
        <time>2021-12-23T11:15:37Z</time>
      </trkpt>
      <trkpt lat="45.25139" lon="6.12631">
        <ele>2359</ele>
        <time>2021-12-23T11:15:38Z</time>
      </trkpt>
      <trkpt lat="45.25139" lon="6.1263">
        <ele>2359</ele>
        <time>2021-12-23T11:15:39Z</time>
      </trkpt>
      <trkpt lat="45.25139" lon="6.1263">
        <ele>2359</ele>
        <time>2021-12-23T11:15:40Z</time>
      </trkpt>
      <trkpt lat="45.25138" lon="6.12629">
        <ele>2359</ele>
        <time>2021-12-23T11:15:41Z</time>
      </trkpt>
      <trkpt lat="45.25138" lon="6.12629">
        <ele>2359</ele>
        <time>2021-12-23T11:15:42Z</time>
      </trkpt>
      <trkpt lat="45.25138" lon="6.12628">
        <ele>2359</ele>
        <time>2021-12-23T11:15:43Z</time>
      </trkpt>
      <trkpt lat="45.25138" lon="6.12628">
        <ele>2359</ele>
        <time>2021-12-23T11:15:44Z</time>
      </trkpt>
      <trkpt lat="45.25138" lon="6.12628">
        <ele>2360</ele>
        <time>2021-12-23T11:15:45Z</time>
      </trkpt>
      <trkpt lat="45.25138" lon="6.12628">
        <ele>2360</ele>
        <time>2021-12-23T11:15:46Z</time>
      </trkpt>
      <trkpt lat="45.25138" lon="6.12628">
        <ele>2360</ele>
        <time>2021-12-23T11:15:47Z</time>
      </trkpt>
      <trkpt lat="45.25138" lon="6.12628">
        <ele>2360</ele>
        <time>2021-12-23T11:15:48Z</time>
      </trkpt>
      <trkpt lat="45.25138" lon="6.12628">
        <ele>2362</ele>
        <time>2021-12-23T11:15:49Z</time>
      </trkpt>
      <trkpt lat="45.25138" lon="6.12628">
        <ele>2362</ele>
        <time>2021-12-23T11:15:51Z</time>
      </trkpt>
      <trkpt lat="45.25138" lon="6.12628">
        <ele>2362</ele>
        <time>2021-12-23T11:15:52Z</time>
      </trkpt>
      <trkpt lat="45.25138" lon="6.12628">
        <ele>2363</ele>
        <time>2021-12-23T11:15:53Z</time>
      </trkpt>
      <trkpt lat="45.25138" lon="6.12628">
        <ele>2363</ele>
        <time>2021-12-23T11:15:54Z</time>
      </trkpt>
      <trkpt lat="45.25138" lon="6.12628">
        <ele>2363</ele>
        <time>2021-12-23T11:15:55Z</time>
      </trkpt>
      <trkpt lat="45.25138" lon="6.12628">
        <ele>2363</ele>
        <time>2021-12-23T11:15:56Z</time>
      </trkpt>
      <trkpt lat="45.25138" lon="6.12628">
        <ele>2363</ele>
        <time>2021-12-23T11:15:57Z</time>
      </trkpt>
      <trkpt lat="45.25138" lon="6.12628">
        <ele>2363</ele>
        <time>2021-12-23T11:15:58Z</time>
      </trkpt>
      <trkpt lat="45.25138" lon="6.12628">
        <ele>2364</ele>
        <time>2021-12-23T11:15:59Z</time>
      </trkpt>
      <trkpt lat="45.25138" lon="6.12628">
        <ele>2364</ele>
        <time>2021-12-23T11:16:00Z</time>
      </trkpt>
      <trkpt lat="45.25138" lon="6.12628">
        <ele>2364</ele>
        <time>2021-12-23T11:16:01Z</time>
      </trkpt>
      <trkpt lat="45.25138" lon="6.12628">
        <ele>2365</ele>
        <time>2021-12-23T11:16:02Z</time>
      </trkpt>
      <trkpt lat="45.25138" lon="6.12628">
        <ele>2365</ele>
        <time>2021-12-23T11:16:03Z</time>
      </trkpt>
      <trkpt lat="45.25132" lon="6.1262">
        <ele>2365</ele>
        <time>2021-12-23T11:16:04Z</time>
      </trkpt>
      <trkpt lat="45.25132" lon="6.1262">
        <ele>2365</ele>
        <time>2021-12-23T11:16:06Z</time>
      </trkpt>
      <trkpt lat="45.25132" lon="6.12619">
        <ele>2365</ele>
        <time>2021-12-23T11:16:07Z</time>
      </trkpt>
      <trkpt lat="45.25131" lon="6.12618">
        <ele>2365</ele>
        <time>2021-12-23T11:16:08Z</time>
      </trkpt>
      <trkpt lat="45.25131" lon="6.12617">
        <ele>2366</ele>
        <time>2021-12-23T11:16:10Z</time>
      </trkpt>
      <trkpt lat="45.25131" lon="6.12616">
        <ele>2366</ele>
        <time>2021-12-23T11:16:11Z</time>
      </trkpt>
      <trkpt lat="45.25131" lon="6.12616">
        <ele>2366</ele>
        <time>2021-12-23T11:16:12Z</time>
      </trkpt>
      <trkpt lat="45.25131" lon="6.12615">
        <ele>2366</ele>
        <time>2021-12-23T11:16:13Z</time>
      </trkpt>
      <trkpt lat="45.2513" lon="6.12614">
        <ele>2366</ele>
        <time>2021-12-23T11:16:14Z</time>
      </trkpt>
      <trkpt lat="45.2513" lon="6.12613">
        <ele>2366</ele>
        <time>2021-12-23T11:16:15Z</time>
      </trkpt>
      <trkpt lat="45.2513" lon="6.12612">
        <ele>2367</ele>
        <time>2021-12-23T11:16:16Z</time>
      </trkpt>
      <trkpt lat="45.2513" lon="6.12611">
        <ele>2367</ele>
        <time>2021-12-23T11:16:17Z</time>
      </trkpt>
      <trkpt lat="45.2513" lon="6.12611">
        <ele>2367</ele>
        <time>2021-12-23T11:16:18Z</time>
      </trkpt>
      <trkpt lat="45.25129" lon="6.1261">
        <ele>2367</ele>
        <time>2021-12-23T11:16:19Z</time>
      </trkpt>
      <trkpt lat="45.25129" lon="6.12609">
        <ele>2367</ele>
        <time>2021-12-23T11:16:20Z</time>
      </trkpt>
      <trkpt lat="45.25129" lon="6.12608">
        <ele>2368</ele>
        <time>2021-12-23T11:16:21Z</time>
      </trkpt>
      <trkpt lat="45.25129" lon="6.12607">
        <ele>2368</ele>
        <time>2021-12-23T11:16:22Z</time>
      </trkpt>
      <trkpt lat="45.25128" lon="6.12606">
        <ele>2368</ele>
        <time>2021-12-23T11:16:23Z</time>
      </trkpt>
      <trkpt lat="45.25128" lon="6.12606">
        <ele>2368</ele>
        <time>2021-12-23T11:16:24Z</time>
      </trkpt>
      <trkpt lat="45.25128" lon="6.12605">
        <ele>2368</ele>
        <time>2021-12-23T11:16:25Z</time>
      </trkpt>
      <trkpt lat="45.25127" lon="6.12604">
        <ele>2368</ele>
        <time>2021-12-23T11:16:26Z</time>
      </trkpt>
      <trkpt lat="45.25127" lon="6.12603">
        <ele>2368</ele>
        <time>2021-12-23T11:16:27Z</time>
      </trkpt>
      <trkpt lat="45.25127" lon="6.12602">
        <ele>2368</ele>
        <time>2021-12-23T11:16:29Z</time>
      </trkpt>
      <trkpt lat="45.25126" lon="6.12601">
        <ele>2368</ele>
        <time>2021-12-23T11:16:30Z</time>
      </trkpt>
      <trkpt lat="45.25126" lon="6.126">
        <ele>2368</ele>
        <time>2021-12-23T11:16:31Z</time>
      </trkpt>
      <trkpt lat="45.25125" lon="6.126">
        <ele>2369</ele>
        <time>2021-12-23T11:16:32Z</time>
      </trkpt>
      <trkpt lat="45.25125" lon="6.12599">
        <ele>2369</ele>
        <time>2021-12-23T11:16:33Z</time>
      </trkpt>
      <trkpt lat="45.25125" lon="6.12598">
        <ele>2369</ele>
        <time>2021-12-23T11:16:34Z</time>
      </trkpt>
      <trkpt lat="45.25124" lon="6.12597">
        <ele>2369</ele>
        <time>2021-12-23T11:16:35Z</time>
      </trkpt>
      <trkpt lat="45.25124" lon="6.12596">
        <ele>2369</ele>
        <time>2021-12-23T11:16:36Z</time>
      </trkpt>
      <trkpt lat="45.25123" lon="6.12595">
        <ele>2369</ele>
        <time>2021-12-23T11:16:37Z</time>
      </trkpt>
      <trkpt lat="45.25123" lon="6.12594">
        <ele>2369</ele>
        <time>2021-12-23T11:16:38Z</time>
      </trkpt>
      <trkpt lat="45.25122" lon="6.12594">
        <ele>2369</ele>
        <time>2021-12-23T11:16:39Z</time>
      </trkpt>
      <trkpt lat="45.25121" lon="6.12593">
        <ele>2369</ele>
        <time>2021-12-23T11:16:40Z</time>
      </trkpt>
      <trkpt lat="45.25119" lon="6.12592">
        <ele>2369</ele>
        <time>2021-12-23T11:16:41Z</time>
      </trkpt>
      <trkpt lat="45.25118" lon="6.12592">
        <ele>2369</ele>
        <time>2021-12-23T11:16:42Z</time>
      </trkpt>
      <trkpt lat="45.25117" lon="6.12591">
        <ele>2370</ele>
        <time>2021-12-23T11:16:43Z</time>
      </trkpt>
      <trkpt lat="45.25116" lon="6.12591">
        <ele>2370</ele>
        <time>2021-12-23T11:16:44Z</time>
      </trkpt>
      <trkpt lat="45.25115" lon="6.1259">
        <ele>2370</ele>
        <time>2021-12-23T11:16:45Z</time>
      </trkpt>
      <trkpt lat="45.25114" lon="6.12589">
        <ele>2370</ele>
        <time>2021-12-23T11:16:46Z</time>
      </trkpt>
      <trkpt lat="45.25113" lon="6.12587">
        <ele>2370</ele>
        <time>2021-12-23T11:16:48Z</time>
      </trkpt>
      <trkpt lat="45.25112" lon="6.12586">
        <ele>2370</ele>
        <time>2021-12-23T11:16:49Z</time>
      </trkpt>
      <trkpt lat="45.25112" lon="6.12585">
        <ele>2371</ele>
        <time>2021-12-23T11:16:50Z</time>
      </trkpt>
      <trkpt lat="45.25111" lon="6.12583">
        <ele>2371</ele>
        <time>2021-12-23T11:16:51Z</time>
      </trkpt>
      <trkpt lat="45.2511" lon="6.12582">
        <ele>2371</ele>
        <time>2021-12-23T11:16:52Z</time>
      </trkpt>
      <trkpt lat="45.2511" lon="6.12581">
        <ele>2372</ele>
        <time>2021-12-23T11:16:53Z</time>
      </trkpt>
      <trkpt lat="45.25109" lon="6.12579">
        <ele>2372</ele>
        <time>2021-12-23T11:16:54Z</time>
      </trkpt>
      <trkpt lat="45.25109" lon="6.12579">
        <ele>2372</ele>
        <time>2021-12-23T11:16:55Z</time>
      </trkpt>
      <trkpt lat="45.25109" lon="6.12579">
        <ele>2372</ele>
        <time>2021-12-23T11:16:56Z</time>
      </trkpt>
      <trkpt lat="45.25109" lon="6.12579">
        <ele>2372</ele>
        <time>2021-12-23T11:16:57Z</time>
      </trkpt>
      <trkpt lat="45.25109" lon="6.12579">
        <ele>2371</ele>
        <time>2021-12-23T11:16:58Z</time>
      </trkpt>
      <trkpt lat="45.25109" lon="6.12579">
        <ele>2371</ele>
        <time>2021-12-23T11:16:59Z</time>
      </trkpt>
      <trkpt lat="45.25109" lon="6.12579">
        <ele>2371</ele>
        <time>2021-12-23T11:17:00Z</time>
      </trkpt>
      <trkpt lat="45.25109" lon="6.12579">
        <ele>2371</ele>
        <time>2021-12-23T11:17:01Z</time>
      </trkpt>
      <trkpt lat="45.25109" lon="6.12579">
        <ele>2372</ele>
        <time>2021-12-23T11:17:02Z</time>
      </trkpt>
      <trkpt lat="45.25109" lon="6.12579">
        <ele>2372</ele>
        <time>2021-12-23T11:17:03Z</time>
      </trkpt>
      <trkpt lat="45.25109" lon="6.12579">
        <ele>2372</ele>
        <time>2021-12-23T11:17:04Z</time>
      </trkpt>
      <trkpt lat="45.25109" lon="6.12579">
        <ele>2372</ele>
        <time>2021-12-23T11:17:05Z</time>
      </trkpt>
      <trkpt lat="45.25109" lon="6.12579">
        <ele>2373</ele>
        <time>2021-12-23T11:17:07Z</time>
      </trkpt>
      <trkpt lat="45.25109" lon="6.12579">
        <ele>2373</ele>
        <time>2021-12-23T11:17:08Z</time>
      </trkpt>
      <trkpt lat="45.25109" lon="6.12579">
        <ele>2373</ele>
        <time>2021-12-23T11:17:09Z</time>
      </trkpt>
      <trkpt lat="45.25106" lon="6.12568">
        <ele>2374</ele>
        <time>2021-12-23T11:17:10Z</time>
      </trkpt>
      <trkpt lat="45.25106" lon="6.12568">
        <ele>2374</ele>
        <time>2021-12-23T11:17:12Z</time>
      </trkpt>
      <trkpt lat="45.25106" lon="6.12566">
        <ele>2374</ele>
        <time>2021-12-23T11:17:13Z</time>
      </trkpt>
      <trkpt lat="45.25106" lon="6.12565">
        <ele>2374</ele>
        <time>2021-12-23T11:17:14Z</time>
      </trkpt>
      <trkpt lat="45.25106" lon="6.12564">
        <ele>2374</ele>
        <time>2021-12-23T11:17:15Z</time>
      </trkpt>
      <trkpt lat="45.25105" lon="6.12563">
        <ele>2374</ele>
        <time>2021-12-23T11:17:16Z</time>
      </trkpt>
      <trkpt lat="45.25105" lon="6.12562">
        <ele>2374</ele>
        <time>2021-12-23T11:17:17Z</time>
      </trkpt>
      <trkpt lat="45.25105" lon="6.12561">
        <ele>2374</ele>
        <time>2021-12-23T11:17:18Z</time>
      </trkpt>
      <trkpt lat="45.25105" lon="6.1256">
        <ele>2374</ele>
        <time>2021-12-23T11:17:19Z</time>
      </trkpt>
      <trkpt lat="45.25105" lon="6.12559">
        <ele>2374</ele>
        <time>2021-12-23T11:17:20Z</time>
      </trkpt>
      <trkpt lat="45.25105" lon="6.12558">
        <ele>2374</ele>
        <time>2021-12-23T11:17:21Z</time>
      </trkpt>
      <trkpt lat="45.25105" lon="6.12557">
        <ele>2374</ele>
        <time>2021-12-23T11:17:22Z</time>
      </trkpt>
      <trkpt lat="45.25104" lon="6.12556">
        <ele>2375</ele>
        <time>2021-12-23T11:17:23Z</time>
      </trkpt>
      <trkpt lat="45.25104" lon="6.12554">
        <ele>2375</ele>
        <time>2021-12-23T11:17:24Z</time>
      </trkpt>
      <trkpt lat="45.25104" lon="6.12553">
        <ele>2375</ele>
        <time>2021-12-23T11:17:26Z</time>
      </trkpt>
      <trkpt lat="45.25103" lon="6.12552">
        <ele>2375</ele>
        <time>2021-12-23T11:17:27Z</time>
      </trkpt>
      <trkpt lat="45.25103" lon="6.1255">
        <ele>2375</ele>
        <time>2021-12-23T11:17:28Z</time>
      </trkpt>
      <trkpt lat="45.25102" lon="6.12549">
        <ele>2375</ele>
        <time>2021-12-23T11:17:29Z</time>
      </trkpt>
      <trkpt lat="45.25102" lon="6.12547">
        <ele>2375</ele>
        <time>2021-12-23T11:17:30Z</time>
      </trkpt>
      <trkpt lat="45.25101" lon="6.12546">
        <ele>2375</ele>
        <time>2021-12-23T11:17:31Z</time>
      </trkpt>
      <trkpt lat="45.25101" lon="6.12544">
        <ele>2375</ele>
        <time>2021-12-23T11:17:32Z</time>
      </trkpt>
      <trkpt lat="45.251" lon="6.12543">
        <ele>2375</ele>
        <time>2021-12-23T11:17:33Z</time>
      </trkpt>
      <trkpt lat="45.251" lon="6.12541">
        <ele>2375</ele>
        <time>2021-12-23T11:17:34Z</time>
      </trkpt>
      <trkpt lat="45.251" lon="6.12541">
        <ele>2375</ele>
        <time>2021-12-23T11:17:35Z</time>
      </trkpt>
      <trkpt lat="45.251" lon="6.12541">
        <ele>2375</ele>
        <time>2021-12-23T11:17:36Z</time>
      </trkpt>
      <trkpt lat="45.251" lon="6.12541">
        <ele>2375</ele>
        <time>2021-12-23T11:17:37Z</time>
      </trkpt>
      <trkpt lat="45.251" lon="6.12541">
        <ele>2375</ele>
        <time>2021-12-23T11:17:38Z</time>
      </trkpt>
      <trkpt lat="45.251" lon="6.12541">
        <ele>2375</ele>
        <time>2021-12-23T11:17:39Z</time>
      </trkpt>
      <trkpt lat="45.251" lon="6.12541">
        <ele>2375</ele>
        <time>2021-12-23T11:17:40Z</time>
      </trkpt>
      <trkpt lat="45.251" lon="6.12541">
        <ele>2376</ele>
        <time>2021-12-23T11:17:41Z</time>
      </trkpt>
      <trkpt lat="45.251" lon="6.12541">
        <ele>2376</ele>
        <time>2021-12-23T11:17:42Z</time>
      </trkpt>
      <trkpt lat="45.251" lon="6.12541">
        <ele>2376</ele>
        <time>2021-12-23T11:17:43Z</time>
      </trkpt>
      <trkpt lat="45.25093" lon="6.12532">
        <ele>2376</ele>
        <time>2021-12-23T11:17:45Z</time>
      </trkpt>
      <trkpt lat="45.25093" lon="6.12532">
        <ele>2376</ele>
        <time>2021-12-23T11:17:46Z</time>
      </trkpt>
      <trkpt lat="45.25093" lon="6.12532">
        <ele>2376</ele>
        <time>2021-12-23T11:17:47Z</time>
      </trkpt>
      <trkpt lat="45.25093" lon="6.12532">
        <ele>2376</ele>
        <time>2021-12-23T11:17:48Z</time>
      </trkpt>
      <trkpt lat="45.25093" lon="6.12532">
        <ele>2377</ele>
        <time>2021-12-23T11:17:49Z</time>
      </trkpt>
      <trkpt lat="45.25093" lon="6.12532">
        <ele>2377</ele>
        <time>2021-12-23T11:17:50Z</time>
      </trkpt>
      <trkpt lat="45.25093" lon="6.12532">
        <ele>2377</ele>
        <time>2021-12-23T11:17:51Z</time>
      </trkpt>
      <trkpt lat="45.25093" lon="6.12532">
        <ele>2377</ele>
        <time>2021-12-23T11:17:52Z</time>
      </trkpt>
      <trkpt lat="45.25093" lon="6.12532">
        <ele>2377</ele>
        <time>2021-12-23T11:17:53Z</time>
      </trkpt>
      <trkpt lat="45.25093" lon="6.12532">
        <ele>2377</ele>
        <time>2021-12-23T11:17:54Z</time>
      </trkpt>
      <trkpt lat="45.25093" lon="6.12532">
        <ele>2379</ele>
        <time>2021-12-23T11:17:55Z</time>
      </trkpt>
      <trkpt lat="45.25093" lon="6.12532">
        <ele>2379</ele>
        <time>2021-12-23T11:17:56Z</time>
      </trkpt>
      <trkpt lat="45.25093" lon="6.12532">
        <ele>2379</ele>
        <time>2021-12-23T11:17:57Z</time>
      </trkpt>
      <trkpt lat="45.25093" lon="6.12532">
        <ele>2379</ele>
        <time>2021-12-23T11:17:58Z</time>
      </trkpt>
      <trkpt lat="45.25093" lon="6.12532">
        <ele>2379</ele>
        <time>2021-12-23T11:17:59Z</time>
      </trkpt>
      <trkpt lat="45.25093" lon="6.12532">
        <ele>2380</ele>
        <time>2021-12-23T11:18:00Z</time>
      </trkpt>
      <trkpt lat="45.25093" lon="6.12532">
        <ele>2380</ele>
        <time>2021-12-23T11:18:01Z</time>
      </trkpt>
      <trkpt lat="45.2509" lon="6.12519">
        <ele>2380</ele>
        <time>2021-12-23T11:18:02Z</time>
      </trkpt>
      <trkpt lat="45.2509" lon="6.12519">
        <ele>2380</ele>
        <time>2021-12-23T11:18:04Z</time>
      </trkpt>
      <trkpt lat="45.2509" lon="6.12517">
        <ele>2380</ele>
        <time>2021-12-23T11:18:05Z</time>
      </trkpt>
      <trkpt lat="45.25089" lon="6.12516">
        <ele>2380</ele>
        <time>2021-12-23T11:18:06Z</time>
      </trkpt>
      <trkpt lat="45.25088" lon="6.12514">
        <ele>2380</ele>
        <time>2021-12-23T11:18:07Z</time>
      </trkpt>
      <trkpt lat="45.25088" lon="6.12513">
        <ele>2380</ele>
        <time>2021-12-23T11:18:08Z</time>
      </trkpt>
      <trkpt lat="45.25087" lon="6.12511">
        <ele>2381</ele>
        <time>2021-12-23T11:18:09Z</time>
      </trkpt>
      <trkpt lat="45.25086" lon="6.12509">
        <ele>2381</ele>
        <time>2021-12-23T11:18:10Z</time>
      </trkpt>
      <trkpt lat="45.25086" lon="6.12508">
        <ele>2381</ele>
        <time>2021-12-23T11:18:11Z</time>
      </trkpt>
      <trkpt lat="45.25086" lon="6.12508">
        <ele>2381</ele>
        <time>2021-12-23T11:18:12Z</time>
      </trkpt>
      <trkpt lat="45.25086" lon="6.12508">
        <ele>2381</ele>
        <time>2021-12-23T11:18:13Z</time>
      </trkpt>
      <trkpt lat="45.25086" lon="6.12508">
        <ele>2382</ele>
        <time>2021-12-23T11:18:14Z</time>
      </trkpt>
      <trkpt lat="45.25086" lon="6.12508">
        <ele>2382</ele>
        <time>2021-12-23T11:18:15Z</time>
      </trkpt>
      <trkpt lat="45.25086" lon="6.12508">
        <ele>2382</ele>
        <time>2021-12-23T11:18:16Z</time>
      </trkpt>
      <trkpt lat="45.25086" lon="6.12508">
        <ele>2382</ele>
        <time>2021-12-23T11:18:17Z</time>
      </trkpt>
      <trkpt lat="45.25086" lon="6.12508">
        <ele>2382</ele>
        <time>2021-12-23T11:18:18Z</time>
      </trkpt>
      <trkpt lat="45.25086" lon="6.12508">
        <ele>2382</ele>
        <time>2021-12-23T11:18:20Z</time>
      </trkpt>
      <trkpt lat="45.25086" lon="6.12508">
        <ele>2382</ele>
        <time>2021-12-23T11:18:21Z</time>
      </trkpt>
      <trkpt lat="45.25086" lon="6.12508">
        <ele>2382</ele>
        <time>2021-12-23T11:18:23Z</time>
      </trkpt>
      <trkpt lat="45.25086" lon="6.12508">
        <ele>2383</ele>
        <time>2021-12-23T11:18:24Z</time>
      </trkpt>
      <trkpt lat="45.25086" lon="6.12508">
        <ele>2383</ele>
        <time>2021-12-23T11:18:25Z</time>
      </trkpt>
      <trkpt lat="45.25083" lon="6.12495">
        <ele>2383</ele>
        <time>2021-12-23T11:18:26Z</time>
      </trkpt>
      <trkpt lat="45.25083" lon="6.12495">
        <ele>2383</ele>
        <time>2021-12-23T11:18:28Z</time>
      </trkpt>
      <trkpt lat="45.25083" lon="6.12492">
        <ele>2383</ele>
        <time>2021-12-23T11:18:29Z</time>
      </trkpt>
      <trkpt lat="45.25084" lon="6.1249">
        <ele>2383</ele>
        <time>2021-12-23T11:18:30Z</time>
      </trkpt>
      <trkpt lat="45.25084" lon="6.12488">
        <ele>2384</ele>
        <time>2021-12-23T11:18:31Z</time>
      </trkpt>
      <trkpt lat="45.25085" lon="6.12485">
        <ele>2384</ele>
        <time>2021-12-23T11:18:32Z</time>
      </trkpt>
      <trkpt lat="45.25085" lon="6.12483">
        <ele>2384</ele>
        <time>2021-12-23T11:18:33Z</time>
      </trkpt>
      <trkpt lat="45.25086" lon="6.12481">
        <ele>2384</ele>
        <time>2021-12-23T11:18:34Z</time>
      </trkpt>
      <trkpt lat="45.25086" lon="6.12481">
        <ele>2384</ele>
        <time>2021-12-23T11:18:35Z</time>
      </trkpt>
      <trkpt lat="45.25086" lon="6.12481">
        <ele>2385</ele>
        <time>2021-12-23T11:18:36Z</time>
      </trkpt>
      <trkpt lat="45.25086" lon="6.12481">
        <ele>2386</ele>
        <time>2021-12-23T11:18:37Z</time>
      </trkpt>
      <trkpt lat="45.25086" lon="6.12481">
        <ele>2386</ele>
        <time>2021-12-23T11:18:38Z</time>
      </trkpt>
      <trkpt lat="45.25086" lon="6.12481">
        <ele>2386</ele>
        <time>2021-12-23T11:18:39Z</time>
      </trkpt>
      <trkpt lat="45.25086" lon="6.12481">
        <ele>2386</ele>
        <time>2021-12-23T11:18:40Z</time>
      </trkpt>
      <trkpt lat="45.25086" lon="6.12481">
        <ele>2386</ele>
        <time>2021-12-23T11:18:42Z</time>
      </trkpt>
      <trkpt lat="45.25086" lon="6.12481">
        <ele>2386</ele>
        <time>2021-12-23T11:18:43Z</time>
      </trkpt>
      <trkpt lat="45.25086" lon="6.12481">
        <ele>2386</ele>
        <time>2021-12-23T11:18:44Z</time>
      </trkpt>
      <trkpt lat="45.25086" lon="6.12481">
        <ele>2386</ele>
        <time>2021-12-23T11:18:45Z</time>
      </trkpt>
      <trkpt lat="45.25086" lon="6.12481">
        <ele>2386</ele>
        <time>2021-12-23T11:18:46Z</time>
      </trkpt>
      <trkpt lat="45.25086" lon="6.12481">
        <ele>2386</ele>
        <time>2021-12-23T11:18:47Z</time>
      </trkpt>
      <trkpt lat="45.25086" lon="6.12481">
        <ele>2386</ele>
        <time>2021-12-23T11:18:48Z</time>
      </trkpt>
      <trkpt lat="45.25086" lon="6.12481">
        <ele>2386</ele>
        <time>2021-12-23T11:18:49Z</time>
      </trkpt>
      <trkpt lat="45.25086" lon="6.12481">
        <ele>2386</ele>
        <time>2021-12-23T11:18:50Z</time>
      </trkpt>
      <trkpt lat="45.25086" lon="6.12481">
        <ele>2385</ele>
        <time>2021-12-23T11:18:51Z</time>
      </trkpt>
      <trkpt lat="45.25086" lon="6.12481">
        <ele>2385</ele>
        <time>2021-12-23T11:18:52Z</time>
      </trkpt>
      <trkpt lat="45.25086" lon="6.12481">
        <ele>2385</ele>
        <time>2021-12-23T11:18:53Z</time>
      </trkpt>
      <trkpt lat="45.25086" lon="6.12481">
        <ele>2385</ele>
        <time>2021-12-23T11:18:54Z</time>
      </trkpt>
      <trkpt lat="45.25086" lon="6.12481">
        <ele>2384</ele>
        <time>2021-12-23T11:18:55Z</time>
      </trkpt>
      <trkpt lat="45.25086" lon="6.12481">
        <ele>2384</ele>
        <time>2021-12-23T11:18:56Z</time>
      </trkpt>
      <trkpt lat="45.25086" lon="6.12481">
        <ele>2384</ele>
        <time>2021-12-23T11:18:57Z</time>
      </trkpt>
      <trkpt lat="45.25086" lon="6.12481">
        <ele>2384</ele>
        <time>2021-12-23T11:18:58Z</time>
      </trkpt>
      <trkpt lat="45.25086" lon="6.12481">
        <ele>2384</ele>
        <time>2021-12-23T11:18:59Z</time>
      </trkpt>
      <trkpt lat="45.25086" lon="6.12481">
        <ele>2384</ele>
        <time>2021-12-23T11:19:01Z</time>
      </trkpt>
      <trkpt lat="45.25086" lon="6.12481">
        <ele>2384</ele>
        <time>2021-12-23T11:19:02Z</time>
      </trkpt>
      <trkpt lat="45.25086" lon="6.12481">
        <ele>2384</ele>
        <time>2021-12-23T11:19:03Z</time>
      </trkpt>
      <trkpt lat="45.25086" lon="6.12481">
        <ele>2384</ele>
        <time>2021-12-23T11:19:04Z</time>
      </trkpt>
      <trkpt lat="45.25086" lon="6.12481">
        <ele>2384</ele>
        <time>2021-12-23T11:19:05Z</time>
      </trkpt>
      <trkpt lat="45.25086" lon="6.12481">
        <ele>2384</ele>
        <time>2021-12-23T11:19:06Z</time>
      </trkpt>
      <trkpt lat="45.25086" lon="6.12481">
        <ele>2384</ele>
        <time>2021-12-23T11:19:07Z</time>
      </trkpt>
      <trkpt lat="45.25086" lon="6.12481">
        <ele>2384</ele>
        <time>2021-12-23T11:19:08Z</time>
      </trkpt>
      <trkpt lat="45.25086" lon="6.12481">
        <ele>2384</ele>
        <time>2021-12-23T11:19:09Z</time>
      </trkpt>
      <trkpt lat="45.25086" lon="6.12481">
        <ele>2384</ele>
        <time>2021-12-23T11:19:10Z</time>
      </trkpt>
      <trkpt lat="45.25086" lon="6.12481">
        <ele>2384</ele>
        <time>2021-12-23T11:19:11Z</time>
      </trkpt>
      <trkpt lat="45.25086" lon="6.12481">
        <ele>2384</ele>
        <time>2021-12-23T11:19:12Z</time>
      </trkpt>
      <trkpt lat="45.25086" lon="6.12481">
        <ele>2384</ele>
        <time>2021-12-23T11:19:13Z</time>
      </trkpt>
      <trkpt lat="45.25086" lon="6.12481">
        <ele>2384</ele>
        <time>2021-12-23T11:19:14Z</time>
      </trkpt>
      <trkpt lat="45.25086" lon="6.12481">
        <ele>2384</ele>
        <time>2021-12-23T11:19:15Z</time>
      </trkpt>
      <trkpt lat="45.25086" lon="6.12481">
        <ele>2384</ele>
        <time>2021-12-23T11:19:16Z</time>
      </trkpt>
      <trkpt lat="45.25086" lon="6.12481">
        <ele>2384</ele>
        <time>2021-12-23T11:19:17Z</time>
      </trkpt>
      <trkpt lat="45.25086" lon="6.12481">
        <ele>2385</ele>
        <time>2021-12-23T11:19:18Z</time>
      </trkpt>
      <trkpt lat="45.25086" lon="6.12481">
        <ele>2385</ele>
        <time>2021-12-23T11:19:20Z</time>
      </trkpt>
      <trkpt lat="45.25086" lon="6.12481">
        <ele>2385</ele>
        <time>2021-12-23T11:19:21Z</time>
      </trkpt>
      <trkpt lat="45.25086" lon="6.12481">
        <ele>2385</ele>
        <time>2021-12-23T11:19:22Z</time>
      </trkpt>
      <trkpt lat="45.25086" lon="6.12481">
        <ele>2385</ele>
        <time>2021-12-23T11:19:23Z</time>
      </trkpt>
      <trkpt lat="45.25086" lon="6.12481">
        <ele>2384</ele>
        <time>2021-12-23T11:19:24Z</time>
      </trkpt>
      <trkpt lat="45.25086" lon="6.12481">
        <ele>2385</ele>
        <time>2021-12-23T11:19:25Z</time>
      </trkpt>
      <trkpt lat="45.25086" lon="6.12481">
        <ele>2385</ele>
        <time>2021-12-23T11:19:26Z</time>
      </trkpt>
      <trkpt lat="45.25086" lon="6.12481">
        <ele>2385</ele>
        <time>2021-12-23T11:19:27Z</time>
      </trkpt>
      <trkpt lat="45.25086" lon="6.12481">
        <ele>2385</ele>
        <time>2021-12-23T11:19:28Z</time>
      </trkpt>
      <trkpt lat="45.25086" lon="6.12481">
        <ele>2385</ele>
        <time>2021-12-23T11:19:29Z</time>
      </trkpt>
      <trkpt lat="45.25086" lon="6.12481">
        <ele>2384</ele>
        <time>2021-12-23T11:19:30Z</time>
      </trkpt>
      <trkpt lat="45.25086" lon="6.12481">
        <ele>2384</ele>
        <time>2021-12-23T11:19:31Z</time>
      </trkpt>
      <trkpt lat="45.25086" lon="6.12481">
        <ele>2384</ele>
        <time>2021-12-23T11:19:32Z</time>
      </trkpt>
      <trkpt lat="45.25086" lon="6.12481">
        <ele>2385</ele>
        <time>2021-12-23T11:19:33Z</time>
      </trkpt>
      <trkpt lat="45.25086" lon="6.12481">
        <ele>2385</ele>
        <time>2021-12-23T11:19:34Z</time>
      </trkpt>
      <trkpt lat="45.25086" lon="6.12481">
        <ele>2385</ele>
        <time>2021-12-23T11:19:35Z</time>
      </trkpt>
      <trkpt lat="45.25086" lon="6.12481">
        <ele>2385</ele>
        <time>2021-12-23T11:19:36Z</time>
      </trkpt>
      <trkpt lat="45.25086" lon="6.12494">
        <ele>2385</ele>
        <time>2021-12-23T11:19:37Z</time>
      </trkpt>
      <trkpt lat="45.25086" lon="6.12494">
        <ele>2385</ele>
        <time>2021-12-23T11:19:39Z</time>
      </trkpt>
      <trkpt lat="45.25086" lon="6.12494">
        <ele>2385</ele>
        <time>2021-12-23T11:19:40Z</time>
      </trkpt>
      <trkpt lat="45.25085" lon="6.12494">
        <ele>2385</ele>
        <time>2021-12-23T11:19:41Z</time>
      </trkpt>
      <trkpt lat="45.25085" lon="6.12493">
        <ele>2384</ele>
        <time>2021-12-23T11:19:42Z</time>
      </trkpt>
      <trkpt lat="45.25085" lon="6.12493">
        <ele>2384</ele>
        <time>2021-12-23T11:19:43Z</time>
      </trkpt>
      <trkpt lat="45.25085" lon="6.12493">
        <ele>2384</ele>
        <time>2021-12-23T11:19:44Z</time>
      </trkpt>
      <trkpt lat="45.25084" lon="6.12492">
        <ele>2384</ele>
        <time>2021-12-23T11:19:45Z</time>
      </trkpt>
      <trkpt lat="45.25084" lon="6.12492">
        <ele>2384</ele>
        <time>2021-12-23T11:19:46Z</time>
      </trkpt>
      <trkpt lat="45.25084" lon="6.12492">
        <ele>2384</ele>
        <time>2021-12-23T11:19:47Z</time>
      </trkpt>
      <trkpt lat="45.25084" lon="6.12491">
        <ele>2384</ele>
        <time>2021-12-23T11:19:48Z</time>
      </trkpt>
      <trkpt lat="45.25083" lon="6.12491">
        <ele>2384</ele>
        <time>2021-12-23T11:19:49Z</time>
      </trkpt>
      <trkpt lat="45.25083" lon="6.12491">
        <ele>2384</ele>
        <time>2021-12-23T11:19:50Z</time>
      </trkpt>
      <trkpt lat="45.25083" lon="6.1249">
        <ele>2384</ele>
        <time>2021-12-23T11:19:51Z</time>
      </trkpt>
      <trkpt lat="45.25083" lon="6.1249">
        <ele>2384</ele>
        <time>2021-12-23T11:19:52Z</time>
      </trkpt>
      <trkpt lat="45.25082" lon="6.1249">
        <ele>2384</ele>
        <time>2021-12-23T11:19:53Z</time>
      </trkpt>
      <trkpt lat="45.25082" lon="6.12489">
        <ele>2384</ele>
        <time>2021-12-23T11:19:54Z</time>
      </trkpt>
      <trkpt lat="45.25082" lon="6.12489">
        <ele>2384</ele>
        <time>2021-12-23T11:19:55Z</time>
      </trkpt>
      <trkpt lat="45.25081" lon="6.12489">
        <ele>2384</ele>
        <time>2021-12-23T11:19:56Z</time>
      </trkpt>
      <trkpt lat="45.25081" lon="6.12489">
        <ele>2384</ele>
        <time>2021-12-23T11:19:58Z</time>
      </trkpt>
      <trkpt lat="45.25081" lon="6.12488">
        <ele>2384</ele>
        <time>2021-12-23T11:19:59Z</time>
      </trkpt>
      <trkpt lat="45.25081" lon="6.12488">
        <ele>2384</ele>
        <time>2021-12-23T11:20:00Z</time>
      </trkpt>
      <trkpt lat="45.2508" lon="6.12488">
        <ele>2384</ele>
        <time>2021-12-23T11:20:01Z</time>
      </trkpt>
      <trkpt lat="45.2508" lon="6.12487">
        <ele>2384</ele>
        <time>2021-12-23T11:20:02Z</time>
      </trkpt>
      <trkpt lat="45.2508" lon="6.12487">
        <ele>2384</ele>
        <time>2021-12-23T11:20:03Z</time>
      </trkpt>
      <trkpt lat="45.2508" lon="6.12487">
        <ele>2384</ele>
        <time>2021-12-23T11:20:04Z</time>
      </trkpt>
      <trkpt lat="45.25079" lon="6.12486">
        <ele>2384</ele>
        <time>2021-12-23T11:20:05Z</time>
      </trkpt>
      <trkpt lat="45.25079" lon="6.12486">
        <ele>2384</ele>
        <time>2021-12-23T11:20:06Z</time>
      </trkpt>
      <trkpt lat="45.25079" lon="6.12486">
        <ele>2384</ele>
        <time>2021-12-23T11:20:07Z</time>
      </trkpt>
      <trkpt lat="45.25079" lon="6.12485">
        <ele>2384</ele>
        <time>2021-12-23T11:20:08Z</time>
      </trkpt>
      <trkpt lat="45.25078" lon="6.12485">
        <ele>2385</ele>
        <time>2021-12-23T11:20:09Z</time>
      </trkpt>
      <trkpt lat="45.25078" lon="6.12485">
        <ele>2385</ele>
        <time>2021-12-23T11:20:10Z</time>
      </trkpt>
      <trkpt lat="45.25078" lon="6.12485">
        <ele>2385</ele>
        <time>2021-12-23T11:20:11Z</time>
      </trkpt>
      <trkpt lat="45.25079" lon="6.12485">
        <ele>2385</ele>
        <time>2021-12-23T11:20:12Z</time>
      </trkpt>
      <trkpt lat="45.25079" lon="6.12485">
        <ele>2385</ele>
        <time>2021-12-23T11:20:13Z</time>
      </trkpt>
      <trkpt lat="45.25079" lon="6.12485">
        <ele>2385</ele>
        <time>2021-12-23T11:20:14Z</time>
      </trkpt>
      <trkpt lat="45.25079" lon="6.12485">
        <ele>2385</ele>
        <time>2021-12-23T11:20:15Z</time>
      </trkpt>
      <trkpt lat="45.2508" lon="6.12485">
        <ele>2385</ele>
        <time>2021-12-23T11:20:17Z</time>
      </trkpt>
      <trkpt lat="45.2508" lon="6.12485">
        <ele>2385</ele>
        <time>2021-12-23T11:20:18Z</time>
      </trkpt>
      <trkpt lat="45.2508" lon="6.12485">
        <ele>2384</ele>
        <time>2021-12-23T11:20:19Z</time>
      </trkpt>
      <trkpt lat="45.2508" lon="6.12485">
        <ele>2384</ele>
        <time>2021-12-23T11:20:20Z</time>
      </trkpt>
      <trkpt lat="45.25081" lon="6.12485">
        <ele>2384</ele>
        <time>2021-12-23T11:20:21Z</time>
      </trkpt>
      <trkpt lat="45.25081" lon="6.12486">
        <ele>2384</ele>
        <time>2021-12-23T11:20:22Z</time>
      </trkpt>
      <trkpt lat="45.25081" lon="6.12486">
        <ele>2384</ele>
        <time>2021-12-23T11:20:23Z</time>
      </trkpt>
      <trkpt lat="45.25081" lon="6.12486">
        <ele>2384</ele>
        <time>2021-12-23T11:20:24Z</time>
      </trkpt>
      <trkpt lat="45.25082" lon="6.12486">
        <ele>2384</ele>
        <time>2021-12-23T11:20:25Z</time>
      </trkpt>
      <trkpt lat="45.25082" lon="6.12486">
        <ele>2384</ele>
        <time>2021-12-23T11:20:26Z</time>
      </trkpt>
      <trkpt lat="45.25082" lon="6.12486">
        <ele>2384</ele>
        <time>2021-12-23T11:20:27Z</time>
      </trkpt>
      <trkpt lat="45.25082" lon="6.12486">
        <ele>2384</ele>
        <time>2021-12-23T11:20:28Z</time>
      </trkpt>
      <trkpt lat="45.25083" lon="6.12486">
        <ele>2383</ele>
        <time>2021-12-23T11:20:29Z</time>
      </trkpt>
      <trkpt lat="45.25083" lon="6.12486">
        <ele>2383</ele>
        <time>2021-12-23T11:20:30Z</time>
      </trkpt>
      <trkpt lat="45.25083" lon="6.12486">
        <ele>2384</ele>
        <time>2021-12-23T11:20:31Z</time>
      </trkpt>
      <trkpt lat="45.25084" lon="6.12486">
        <ele>2384</ele>
        <time>2021-12-23T11:20:32Z</time>
      </trkpt>
      <trkpt lat="45.25084" lon="6.12486">
        <ele>2384</ele>
        <time>2021-12-23T11:20:33Z</time>
      </trkpt>
      <trkpt lat="45.25084" lon="6.12486">
        <ele>2384</ele>
        <time>2021-12-23T11:20:34Z</time>
      </trkpt>
      <trkpt lat="45.25084" lon="6.12486">
        <ele>2385</ele>
        <time>2021-12-23T11:20:36Z</time>
      </trkpt>
      <trkpt lat="45.25085" lon="6.12486">
        <ele>2385</ele>
        <time>2021-12-23T11:20:37Z</time>
      </trkpt>
      <trkpt lat="45.25085" lon="6.12487">
        <ele>2385</ele>
        <time>2021-12-23T11:20:38Z</time>
      </trkpt>
      <trkpt lat="45.25085" lon="6.12487">
        <ele>2384</ele>
        <time>2021-12-23T11:20:39Z</time>
      </trkpt>
      <trkpt lat="45.25085" lon="6.12487">
        <ele>2384</ele>
        <time>2021-12-23T11:20:40Z</time>
      </trkpt>
      <trkpt lat="45.25086" lon="6.12487">
        <ele>2384</ele>
        <time>2021-12-23T11:20:41Z</time>
      </trkpt>
      <trkpt lat="45.25086" lon="6.12487">
        <ele>2384</ele>
        <time>2021-12-23T11:20:42Z</time>
      </trkpt>
      <trkpt lat="45.25086" lon="6.12487">
        <ele>2384</ele>
        <time>2021-12-23T11:20:43Z</time>
      </trkpt>
      <trkpt lat="45.25086" lon="6.12487">
        <ele>2384</ele>
        <time>2021-12-23T11:20:44Z</time>
      </trkpt>
      <trkpt lat="45.25087" lon="6.12487">
        <ele>2384</ele>
        <time>2021-12-23T11:20:45Z</time>
      </trkpt>
      <trkpt lat="45.25087" lon="6.12487">
        <ele>2384</ele>
        <time>2021-12-23T11:20:46Z</time>
      </trkpt>
      <trkpt lat="45.25087" lon="6.12487">
        <ele>2384</ele>
        <time>2021-12-23T11:20:47Z</time>
      </trkpt>
      <trkpt lat="45.25087" lon="6.12487">
        <ele>2384</ele>
        <time>2021-12-23T11:20:48Z</time>
      </trkpt>
      <trkpt lat="45.25087" lon="6.12487">
        <ele>2384</ele>
        <time>2021-12-23T11:20:49Z</time>
      </trkpt>
      <trkpt lat="45.25087" lon="6.12487">
        <ele>2384</ele>
        <time>2021-12-23T11:20:50Z</time>
      </trkpt>
      <trkpt lat="45.25087" lon="6.12487">
        <ele>2384</ele>
        <time>2021-12-23T11:20:51Z</time>
      </trkpt>
      <trkpt lat="45.25087" lon="6.12487">
        <ele>2384</ele>
        <time>2021-12-23T11:20:52Z</time>
      </trkpt>
      <trkpt lat="45.25087" lon="6.12487">
        <ele>2384</ele>
        <time>2021-12-23T11:20:53Z</time>
      </trkpt>
      <trkpt lat="45.25087" lon="6.12487">
        <ele>2384</ele>
        <time>2021-12-23T11:20:55Z</time>
      </trkpt>
      <trkpt lat="45.25087" lon="6.12487">
        <ele>2384</ele>
        <time>2021-12-23T11:20:56Z</time>
      </trkpt>
      <trkpt lat="45.25087" lon="6.12487">
        <ele>2384</ele>
        <time>2021-12-23T11:20:57Z</time>
      </trkpt>
      <trkpt lat="45.25087" lon="6.12487">
        <ele>2384</ele>
        <time>2021-12-23T11:20:58Z</time>
      </trkpt>
      <trkpt lat="45.25087" lon="6.12487">
        <ele>2384</ele>
        <time>2021-12-23T11:20:59Z</time>
      </trkpt>
      <trkpt lat="45.25087" lon="6.12487">
        <ele>2384</ele>
        <time>2021-12-23T11:21:00Z</time>
      </trkpt>
      <trkpt lat="45.25087" lon="6.12487">
        <ele>2384</ele>
        <time>2021-12-23T11:21:01Z</time>
      </trkpt>
      <trkpt lat="45.25087" lon="6.12487">
        <ele>2384</ele>
        <time>2021-12-23T11:21:02Z</time>
      </trkpt>
      <trkpt lat="45.25087" lon="6.12487">
        <ele>2384</ele>
        <time>2021-12-23T11:21:03Z</time>
      </trkpt>
      <trkpt lat="45.25087" lon="6.12487">
        <ele>2384</ele>
        <time>2021-12-23T11:21:04Z</time>
      </trkpt>
      <trkpt lat="45.25087" lon="6.12487">
        <ele>2384</ele>
        <time>2021-12-23T11:21:05Z</time>
      </trkpt>
      <trkpt lat="45.25087" lon="6.12487">
        <ele>2384</ele>
        <time>2021-12-23T11:21:06Z</time>
      </trkpt>
      <trkpt lat="45.25087" lon="6.12487">
        <ele>2384</ele>
        <time>2021-12-23T11:21:07Z</time>
      </trkpt>
      <trkpt lat="45.25087" lon="6.12487">
        <ele>2384</ele>
        <time>2021-12-23T11:21:08Z</time>
      </trkpt>
      <trkpt lat="45.25087" lon="6.12487">
        <ele>2384</ele>
        <time>2021-12-23T11:21:09Z</time>
      </trkpt>
      <trkpt lat="45.25087" lon="6.12487">
        <ele>2384</ele>
        <time>2021-12-23T11:21:10Z</time>
      </trkpt>
      <trkpt lat="45.25087" lon="6.12487">
        <ele>2384</ele>
        <time>2021-12-23T11:21:11Z</time>
      </trkpt>
      <trkpt lat="45.25087" lon="6.12487">
        <ele>2384</ele>
        <time>2021-12-23T11:21:12Z</time>
      </trkpt>
      <trkpt lat="45.25087" lon="6.12487">
        <ele>2384</ele>
        <time>2021-12-23T11:21:14Z</time>
      </trkpt>
      <trkpt lat="45.25087" lon="6.12487">
        <ele>2384</ele>
        <time>2021-12-23T11:21:15Z</time>
      </trkpt>
      <trkpt lat="45.25087" lon="6.12487">
        <ele>2384</ele>
        <time>2021-12-23T11:21:16Z</time>
      </trkpt>
      <trkpt lat="45.25087" lon="6.12487">
        <ele>2384</ele>
        <time>2021-12-23T11:21:17Z</time>
      </trkpt>
      <trkpt lat="45.25087" lon="6.12487">
        <ele>2384</ele>
        <time>2021-12-23T11:21:18Z</time>
      </trkpt>
      <trkpt lat="45.25087" lon="6.12487">
        <ele>2384</ele>
        <time>2021-12-23T11:21:19Z</time>
      </trkpt>
      <trkpt lat="45.25087" lon="6.12487">
        <ele>2384</ele>
        <time>2021-12-23T11:21:20Z</time>
      </trkpt>
      <trkpt lat="45.25087" lon="6.12487">
        <ele>2384</ele>
        <time>2021-12-23T11:21:21Z</time>
      </trkpt>
      <trkpt lat="45.25087" lon="6.12487">
        <ele>2384</ele>
        <time>2021-12-23T11:21:22Z</time>
      </trkpt>
      <trkpt lat="45.25087" lon="6.12487">
        <ele>2384</ele>
        <time>2021-12-23T11:21:23Z</time>
      </trkpt>
      <trkpt lat="45.25087" lon="6.12487">
        <ele>2385</ele>
        <time>2021-12-23T11:21:24Z</time>
      </trkpt>
      <trkpt lat="45.25079" lon="6.12481">
        <ele>2385</ele>
        <time>2021-12-23T11:21:25Z</time>
      </trkpt>
      <trkpt lat="45.25079" lon="6.12481">
        <ele>2385</ele>
        <time>2021-12-23T11:21:27Z</time>
      </trkpt>
      <trkpt lat="45.25079" lon="6.12481">
        <ele>2385</ele>
        <time>2021-12-23T11:21:28Z</time>
      </trkpt>
      <trkpt lat="45.25079" lon="6.12481">
        <ele>2385</ele>
        <time>2021-12-23T11:21:29Z</time>
      </trkpt>
      <trkpt lat="45.25079" lon="6.12481">
        <ele>2385</ele>
        <time>2021-12-23T11:21:30Z</time>
      </trkpt>
      <trkpt lat="45.2508" lon="6.12481">
        <ele>2385</ele>
        <time>2021-12-23T11:21:31Z</time>
      </trkpt>
      <trkpt lat="45.2508" lon="6.12482">
        <ele>2385</ele>
        <time>2021-12-23T11:21:33Z</time>
      </trkpt>
      <trkpt lat="45.2508" lon="6.12482">
        <ele>2385</ele>
        <time>2021-12-23T11:21:34Z</time>
      </trkpt>
      <trkpt lat="45.2508" lon="6.12482">
        <ele>2385</ele>
        <time>2021-12-23T11:21:35Z</time>
      </trkpt>
      <trkpt lat="45.2508" lon="6.12482">
        <ele>2385</ele>
        <time>2021-12-23T11:21:36Z</time>
      </trkpt>
      <trkpt lat="45.2508" lon="6.12483">
        <ele>2385</ele>
        <time>2021-12-23T11:21:37Z</time>
      </trkpt>
      <trkpt lat="45.2508" lon="6.12483">
        <ele>2385</ele>
        <time>2021-12-23T11:21:38Z</time>
      </trkpt>
      <trkpt lat="45.25081" lon="6.12483">
        <ele>2385</ele>
        <time>2021-12-23T11:21:39Z</time>
      </trkpt>
      <trkpt lat="45.25081" lon="6.12483">
        <ele>2385</ele>
        <time>2021-12-23T11:21:40Z</time>
      </trkpt>
      <trkpt lat="45.25081" lon="6.12483">
        <ele>2385</ele>
        <time>2021-12-23T11:21:41Z</time>
      </trkpt>
      <trkpt lat="45.25081" lon="6.12484">
        <ele>2385</ele>
        <time>2021-12-23T11:21:42Z</time>
      </trkpt>
      <trkpt lat="45.25081" lon="6.12484">
        <ele>2385</ele>
        <time>2021-12-23T11:21:43Z</time>
      </trkpt>
      <trkpt lat="45.25081" lon="6.12484">
        <ele>2385</ele>
        <time>2021-12-23T11:21:44Z</time>
      </trkpt>
      <trkpt lat="45.25082" lon="6.12484">
        <ele>2385</ele>
        <time>2021-12-23T11:21:45Z</time>
      </trkpt>
      <trkpt lat="45.25082" lon="6.12484">
        <ele>2385</ele>
        <time>2021-12-23T11:21:46Z</time>
      </trkpt>
      <trkpt lat="45.25082" lon="6.12485">
        <ele>2385</ele>
        <time>2021-12-23T11:21:47Z</time>
      </trkpt>
      <trkpt lat="45.25082" lon="6.12485">
        <ele>2385</ele>
        <time>2021-12-23T11:21:48Z</time>
      </trkpt>
      <trkpt lat="45.25082" lon="6.12485">
        <ele>2385</ele>
        <time>2021-12-23T11:21:49Z</time>
      </trkpt>
      <trkpt lat="45.25082" lon="6.12485">
        <ele>2385</ele>
        <time>2021-12-23T11:21:50Z</time>
      </trkpt>
      <trkpt lat="45.25083" lon="6.12486">
        <ele>2385</ele>
        <time>2021-12-23T11:21:52Z</time>
      </trkpt>
      <trkpt lat="45.25083" lon="6.12486">
        <ele>2385</ele>
        <time>2021-12-23T11:21:53Z</time>
      </trkpt>
      <trkpt lat="45.25083" lon="6.12486">
        <ele>2385</ele>
        <time>2021-12-23T11:21:54Z</time>
      </trkpt>
      <trkpt lat="45.25083" lon="6.12486">
        <ele>2385</ele>
        <time>2021-12-23T11:21:55Z</time>
      </trkpt>
      <trkpt lat="45.25083" lon="6.12486">
        <ele>2385</ele>
        <time>2021-12-23T11:21:56Z</time>
      </trkpt>
      <trkpt lat="45.25083" lon="6.12487">
        <ele>2385</ele>
        <time>2021-12-23T11:21:57Z</time>
      </trkpt>
      <trkpt lat="45.25084" lon="6.12487">
        <ele>2385</ele>
        <time>2021-12-23T11:21:58Z</time>
      </trkpt>
      <trkpt lat="45.25084" lon="6.12487">
        <ele>2385</ele>
        <time>2021-12-23T11:21:59Z</time>
      </trkpt>
      <trkpt lat="45.25084" lon="6.12487">
        <ele>2385</ele>
        <time>2021-12-23T11:22:00Z</time>
      </trkpt>
      <trkpt lat="45.25084" lon="6.12487">
        <ele>2385</ele>
        <time>2021-12-23T11:22:01Z</time>
      </trkpt>
      <trkpt lat="45.25084" lon="6.12488">
        <ele>2385</ele>
        <time>2021-12-23T11:22:02Z</time>
      </trkpt>
      <trkpt lat="45.25084" lon="6.12488">
        <ele>2385</ele>
        <time>2021-12-23T11:22:03Z</time>
      </trkpt>
      <trkpt lat="45.25084" lon="6.12488">
        <ele>2385</ele>
        <time>2021-12-23T11:22:04Z</time>
      </trkpt>
      <trkpt lat="45.25085" lon="6.12488">
        <ele>2385</ele>
        <time>2021-12-23T11:22:05Z</time>
      </trkpt>
      <trkpt lat="45.25085" lon="6.12489">
        <ele>2385</ele>
        <time>2021-12-23T11:22:06Z</time>
      </trkpt>
      <trkpt lat="45.25085" lon="6.12489">
        <ele>2385</ele>
        <time>2021-12-23T11:22:07Z</time>
      </trkpt>
      <trkpt lat="45.25085" lon="6.12489">
        <ele>2385</ele>
        <time>2021-12-23T11:22:08Z</time>
      </trkpt>
      <trkpt lat="45.25085" lon="6.12489">
        <ele>2385</ele>
        <time>2021-12-23T11:22:09Z</time>
      </trkpt>
      <trkpt lat="45.25085" lon="6.12489">
        <ele>2384</ele>
        <time>2021-12-23T11:22:11Z</time>
      </trkpt>
      <trkpt lat="45.25086" lon="6.1249">
        <ele>2384</ele>
        <time>2021-12-23T11:22:12Z</time>
      </trkpt>
      <trkpt lat="45.25085" lon="6.1249">
        <ele>2384</ele>
        <time>2021-12-23T11:22:13Z</time>
      </trkpt>
      <trkpt lat="45.25085" lon="6.12489">
        <ele>2385</ele>
        <time>2021-12-23T11:22:14Z</time>
      </trkpt>
      <trkpt lat="45.25085" lon="6.12489">
        <ele>2385</ele>
        <time>2021-12-23T11:22:15Z</time>
      </trkpt>
      <trkpt lat="45.25085" lon="6.12489">
        <ele>2385</ele>
        <time>2021-12-23T11:22:16Z</time>
      </trkpt>
      <trkpt lat="45.25085" lon="6.12489">
        <ele>2385</ele>
        <time>2021-12-23T11:22:17Z</time>
      </trkpt>
      <trkpt lat="45.25085" lon="6.12489">
        <ele>2386</ele>
        <time>2021-12-23T11:22:18Z</time>
      </trkpt>
      <trkpt lat="45.25085" lon="6.12489">
        <ele>2386</ele>
        <time>2021-12-23T11:22:19Z</time>
      </trkpt>
      <trkpt lat="45.25084" lon="6.12489">
        <ele>2386</ele>
        <time>2021-12-23T11:22:20Z</time>
      </trkpt>
      <trkpt lat="45.25084" lon="6.12489">
        <ele>2386</ele>
        <time>2021-12-23T11:22:21Z</time>
      </trkpt>
      <trkpt lat="45.25084" lon="6.12489">
        <ele>2387</ele>
        <time>2021-12-23T11:22:22Z</time>
      </trkpt>
      <trkpt lat="45.25084" lon="6.12489">
        <ele>2387</ele>
        <time>2021-12-23T11:22:23Z</time>
      </trkpt>
      <trkpt lat="45.25084" lon="6.12488">
        <ele>2386</ele>
        <time>2021-12-23T11:22:24Z</time>
      </trkpt>
      <trkpt lat="45.25084" lon="6.12488">
        <ele>2386</ele>
        <time>2021-12-23T11:22:25Z</time>
      </trkpt>
      <trkpt lat="45.25083" lon="6.12488">
        <ele>2386</ele>
        <time>2021-12-23T11:22:26Z</time>
      </trkpt>
      <trkpt lat="45.25083" lon="6.12488">
        <ele>2386</ele>
        <time>2021-12-23T11:22:27Z</time>
      </trkpt>
      <trkpt lat="45.25083" lon="6.12488">
        <ele>2386</ele>
        <time>2021-12-23T11:22:28Z</time>
      </trkpt>
      <trkpt lat="45.25083" lon="6.12488">
        <ele>2386</ele>
        <time>2021-12-23T11:22:30Z</time>
      </trkpt>
      <trkpt lat="45.25083" lon="6.12488">
        <ele>2386</ele>
        <time>2021-12-23T11:22:31Z</time>
      </trkpt>
      <trkpt lat="45.25083" lon="6.12488">
        <ele>2386</ele>
        <time>2021-12-23T11:22:32Z</time>
      </trkpt>
      <trkpt lat="45.25083" lon="6.12488">
        <ele>2386</ele>
        <time>2021-12-23T11:22:33Z</time>
      </trkpt>
      <trkpt lat="45.25082" lon="6.12488">
        <ele>2386</ele>
        <time>2021-12-23T11:22:34Z</time>
      </trkpt>
      <trkpt lat="45.25082" lon="6.12488">
        <ele>2386</ele>
        <time>2021-12-23T11:22:35Z</time>
      </trkpt>
      <trkpt lat="45.25082" lon="6.12487">
        <ele>2386</ele>
        <time>2021-12-23T11:22:36Z</time>
      </trkpt>
      <trkpt lat="45.25082" lon="6.12487">
        <ele>2386</ele>
        <time>2021-12-23T11:22:37Z</time>
      </trkpt>
      <trkpt lat="45.25082" lon="6.12487">
        <ele>2386</ele>
        <time>2021-12-23T11:22:38Z</time>
      </trkpt>
      <trkpt lat="45.25082" lon="6.12487">
        <ele>2386</ele>
        <time>2021-12-23T11:22:39Z</time>
      </trkpt>
      <trkpt lat="45.25081" lon="6.12487">
        <ele>2386</ele>
        <time>2021-12-23T11:22:40Z</time>
      </trkpt>
      <trkpt lat="45.25081" lon="6.12487">
        <ele>2386</ele>
        <time>2021-12-23T11:22:41Z</time>
      </trkpt>
      <trkpt lat="45.25081" lon="6.12487">
        <ele>2386</ele>
        <time>2021-12-23T11:22:42Z</time>
      </trkpt>
      <trkpt lat="45.25081" lon="6.12487">
        <ele>2386</ele>
        <time>2021-12-23T11:22:43Z</time>
      </trkpt>
      <trkpt lat="45.25081" lon="6.12487">
        <ele>2386</ele>
        <time>2021-12-23T11:22:44Z</time>
      </trkpt>
      <trkpt lat="45.25081" lon="6.12487">
        <ele>2386</ele>
        <time>2021-12-23T11:22:45Z</time>
      </trkpt>
      <trkpt lat="45.25081" lon="6.12487">
        <ele>2386</ele>
        <time>2021-12-23T11:22:46Z</time>
      </trkpt>
      <trkpt lat="45.2508" lon="6.12486">
        <ele>2386</ele>
        <time>2021-12-23T11:22:47Z</time>
      </trkpt>
      <trkpt lat="45.2508" lon="6.12486">
        <ele>2386</ele>
        <time>2021-12-23T11:22:49Z</time>
      </trkpt>
      <trkpt lat="45.2508" lon="6.12486">
        <ele>2386</ele>
        <time>2021-12-23T11:22:50Z</time>
      </trkpt>
      <trkpt lat="45.2508" lon="6.12486">
        <ele>2386</ele>
        <time>2021-12-23T11:22:51Z</time>
      </trkpt>
      <trkpt lat="45.2508" lon="6.12486">
        <ele>2386</ele>
        <time>2021-12-23T11:22:52Z</time>
      </trkpt>
      <trkpt lat="45.2508" lon="6.12486">
        <ele>2386</ele>
        <time>2021-12-23T11:22:53Z</time>
      </trkpt>
      <trkpt lat="45.2508" lon="6.12486">
        <ele>2386</ele>
        <time>2021-12-23T11:22:54Z</time>
      </trkpt>
      <trkpt lat="45.25079" lon="6.12486">
        <ele>2386</ele>
        <time>2021-12-23T11:22:55Z</time>
      </trkpt>
      <trkpt lat="45.25079" lon="6.12486">
        <ele>2386</ele>
        <time>2021-12-23T11:22:56Z</time>
      </trkpt>
      <trkpt lat="45.25079" lon="6.12486">
        <ele>2386</ele>
        <time>2021-12-23T11:22:57Z</time>
      </trkpt>
      <trkpt lat="45.25079" lon="6.12485">
        <ele>2386</ele>
        <time>2021-12-23T11:22:58Z</time>
      </trkpt>
      <trkpt lat="45.25079" lon="6.12485">
        <ele>2387</ele>
        <time>2021-12-23T11:22:59Z</time>
      </trkpt>
      <trkpt lat="45.25079" lon="6.12485">
        <ele>2387</ele>
        <time>2021-12-23T11:23:00Z</time>
      </trkpt>
      <trkpt lat="45.25078" lon="6.12485">
        <ele>2388</ele>
        <time>2021-12-23T11:23:01Z</time>
      </trkpt>
      <trkpt lat="45.25078" lon="6.12485">
        <ele>2388</ele>
        <time>2021-12-23T11:23:02Z</time>
      </trkpt>
      <trkpt lat="45.25078" lon="6.12485">
        <ele>2388</ele>
        <time>2021-12-23T11:23:03Z</time>
      </trkpt>
      <trkpt lat="45.25078" lon="6.12485">
        <ele>2388</ele>
        <time>2021-12-23T11:23:04Z</time>
      </trkpt>
      <trkpt lat="45.25078" lon="6.12485">
        <ele>2388</ele>
        <time>2021-12-23T11:23:05Z</time>
      </trkpt>
      <trkpt lat="45.25078" lon="6.12485">
        <ele>2388</ele>
        <time>2021-12-23T11:23:06Z</time>
      </trkpt>
      <trkpt lat="45.25078" lon="6.12485">
        <ele>2387</ele>
        <time>2021-12-23T11:23:08Z</time>
      </trkpt>
      <trkpt lat="45.25077" lon="6.12485">
        <ele>2387</ele>
        <time>2021-12-23T11:23:09Z</time>
      </trkpt>
      <trkpt lat="45.25077" lon="6.12484">
        <ele>2388</ele>
        <time>2021-12-23T11:23:10Z</time>
      </trkpt>
      <trkpt lat="45.25077" lon="6.12484">
        <ele>2388</ele>
        <time>2021-12-23T11:23:11Z</time>
      </trkpt>
      <trkpt lat="45.25076" lon="6.12483">
        <ele>2389</ele>
        <time>2021-12-23T11:23:12Z</time>
      </trkpt>
      <trkpt lat="45.25075" lon="6.12483">
        <ele>2389</ele>
        <time>2021-12-23T11:23:13Z</time>
      </trkpt>
      <trkpt lat="45.25074" lon="6.12482">
        <ele>2389</ele>
        <time>2021-12-23T11:23:14Z</time>
      </trkpt>
      <trkpt lat="45.25074" lon="6.12481">
        <ele>2389</ele>
        <time>2021-12-23T11:23:15Z</time>
      </trkpt>
      <trkpt lat="45.25073" lon="6.12481">
        <ele>2389</ele>
        <time>2021-12-23T11:23:16Z</time>
      </trkpt>
      <trkpt lat="45.25072" lon="6.1248">
        <ele>2389</ele>
        <time>2021-12-23T11:23:17Z</time>
      </trkpt>
      <trkpt lat="45.25072" lon="6.12479">
        <ele>2389</ele>
        <time>2021-12-23T11:23:18Z</time>
      </trkpt>
      <trkpt lat="45.25071" lon="6.12479">
        <ele>2390</ele>
        <time>2021-12-23T11:23:19Z</time>
      </trkpt>
      <trkpt lat="45.2507" lon="6.12478">
        <ele>2390</ele>
        <time>2021-12-23T11:23:20Z</time>
      </trkpt>
      <trkpt lat="45.2507" lon="6.12477">
        <ele>2390</ele>
        <time>2021-12-23T11:23:21Z</time>
      </trkpt>
      <trkpt lat="45.25069" lon="6.12477">
        <ele>2390</ele>
        <time>2021-12-23T11:23:22Z</time>
      </trkpt>
      <trkpt lat="45.25069" lon="6.12476">
        <ele>2390</ele>
        <time>2021-12-23T11:23:23Z</time>
      </trkpt>
      <trkpt lat="45.25068" lon="6.12476">
        <ele>2390</ele>
        <time>2021-12-23T11:23:24Z</time>
      </trkpt>
      <trkpt lat="45.25067" lon="6.12475">
        <ele>2390</ele>
        <time>2021-12-23T11:23:25Z</time>
      </trkpt>
      <trkpt lat="45.25067" lon="6.12475">
        <ele>2390</ele>
        <time>2021-12-23T11:23:27Z</time>
      </trkpt>
      <trkpt lat="45.25066" lon="6.12474">
        <ele>2390</ele>
        <time>2021-12-23T11:23:28Z</time>
      </trkpt>
      <trkpt lat="45.25066" lon="6.12474">
        <ele>2391</ele>
        <time>2021-12-23T11:23:29Z</time>
      </trkpt>
      <trkpt lat="45.25065" lon="6.12473">
        <ele>2391</ele>
        <time>2021-12-23T11:23:30Z</time>
      </trkpt>
      <trkpt lat="45.25065" lon="6.12473">
        <ele>2391</ele>
        <time>2021-12-23T11:23:31Z</time>
      </trkpt>
      <trkpt lat="45.25064" lon="6.12472">
        <ele>2391</ele>
        <time>2021-12-23T11:23:32Z</time>
      </trkpt>
      <trkpt lat="45.25064" lon="6.12472">
        <ele>2391</ele>
        <time>2021-12-23T11:23:33Z</time>
      </trkpt>
      <trkpt lat="45.25063" lon="6.12471">
        <ele>2391</ele>
        <time>2021-12-23T11:23:34Z</time>
      </trkpt>
      <trkpt lat="45.25063" lon="6.12471">
        <ele>2391</ele>
        <time>2021-12-23T11:23:35Z</time>
      </trkpt>
      <trkpt lat="45.25062" lon="6.1247">
        <ele>2391</ele>
        <time>2021-12-23T11:23:36Z</time>
      </trkpt>
      <trkpt lat="45.25062" lon="6.1247">
        <ele>2392</ele>
        <time>2021-12-23T11:23:37Z</time>
      </trkpt>
      <trkpt lat="45.25062" lon="6.1247">
        <ele>2392</ele>
        <time>2021-12-23T11:23:38Z</time>
      </trkpt>
      <trkpt lat="45.25062" lon="6.1247">
        <ele>2392</ele>
        <time>2021-12-23T11:23:39Z</time>
      </trkpt>
      <trkpt lat="45.25062" lon="6.1247">
        <ele>2392</ele>
        <time>2021-12-23T11:23:40Z</time>
      </trkpt>
      <trkpt lat="45.25062" lon="6.1247">
        <ele>2392</ele>
        <time>2021-12-23T11:23:41Z</time>
      </trkpt>
      <trkpt lat="45.25062" lon="6.1247">
        <ele>2393</ele>
        <time>2021-12-23T11:23:42Z</time>
      </trkpt>
      <trkpt lat="45.25062" lon="6.1247">
        <ele>2393</ele>
        <time>2021-12-23T11:23:43Z</time>
      </trkpt>
      <trkpt lat="45.25062" lon="6.1247">
        <ele>2393</ele>
        <time>2021-12-23T11:23:44Z</time>
      </trkpt>
      <trkpt lat="45.25062" lon="6.1247">
        <ele>2393</ele>
        <time>2021-12-23T11:23:46Z</time>
      </trkpt>
      <trkpt lat="45.25062" lon="6.1247">
        <ele>2393</ele>
        <time>2021-12-23T11:23:47Z</time>
      </trkpt>
      <trkpt lat="45.25062" lon="6.1247">
        <ele>2393</ele>
        <time>2021-12-23T11:23:48Z</time>
      </trkpt>
      <trkpt lat="45.25062" lon="6.1247">
        <ele>2394</ele>
        <time>2021-12-23T11:23:49Z</time>
      </trkpt>
      <trkpt lat="45.25062" lon="6.1247">
        <ele>2394</ele>
        <time>2021-12-23T11:23:50Z</time>
      </trkpt>
      <trkpt lat="45.25056" lon="6.12461">
        <ele>2395</ele>
        <time>2021-12-23T11:23:51Z</time>
      </trkpt>
      <trkpt lat="45.25056" lon="6.12461">
        <ele>2395</ele>
        <time>2021-12-23T11:23:53Z</time>
      </trkpt>
      <trkpt lat="45.25056" lon="6.1246">
        <ele>2396</ele>
        <time>2021-12-23T11:23:54Z</time>
      </trkpt>
      <trkpt lat="45.25055" lon="6.12459">
        <ele>2396</ele>
        <time>2021-12-23T11:23:55Z</time>
      </trkpt>
      <trkpt lat="45.25055" lon="6.12458">
        <ele>2396</ele>
        <time>2021-12-23T11:23:56Z</time>
      </trkpt>
      <trkpt lat="45.25054" lon="6.12457">
        <ele>2397</ele>
        <time>2021-12-23T11:23:57Z</time>
      </trkpt>
      <trkpt lat="45.25053" lon="6.12455">
        <ele>2397</ele>
        <time>2021-12-23T11:23:58Z</time>
      </trkpt>
      <trkpt lat="45.25053" lon="6.12454">
        <ele>2397</ele>
        <time>2021-12-23T11:23:59Z</time>
      </trkpt>
      <trkpt lat="45.25052" lon="6.12453">
        <ele>2397</ele>
        <time>2021-12-23T11:24:00Z</time>
      </trkpt>
      <trkpt lat="45.25052" lon="6.12452">
        <ele>2397</ele>
        <time>2021-12-23T11:24:01Z</time>
      </trkpt>
      <trkpt lat="45.25051" lon="6.12451">
        <ele>2398</ele>
        <time>2021-12-23T11:24:02Z</time>
      </trkpt>
      <trkpt lat="45.2505" lon="6.1245">
        <ele>2398</ele>
        <time>2021-12-23T11:24:03Z</time>
      </trkpt>
      <trkpt lat="45.25049" lon="6.1245">
        <ele>2398</ele>
        <time>2021-12-23T11:24:05Z</time>
      </trkpt>
      <trkpt lat="45.25048" lon="6.12449">
        <ele>2398</ele>
        <time>2021-12-23T11:24:06Z</time>
      </trkpt>
      <trkpt lat="45.25047" lon="6.12448">
        <ele>2398</ele>
        <time>2021-12-23T11:24:07Z</time>
      </trkpt>
      <trkpt lat="45.25046" lon="6.12448">
        <ele>2398</ele>
        <time>2021-12-23T11:24:08Z</time>
      </trkpt>
      <trkpt lat="45.25046" lon="6.12447">
        <ele>2398</ele>
        <time>2021-12-23T11:24:09Z</time>
      </trkpt>
      <trkpt lat="45.25045" lon="6.12447">
        <ele>2398</ele>
        <time>2021-12-23T11:24:10Z</time>
      </trkpt>
      <trkpt lat="45.25044" lon="6.12446">
        <ele>2398</ele>
        <time>2021-12-23T11:24:11Z</time>
      </trkpt>
      <trkpt lat="45.25043" lon="6.12445">
        <ele>2399</ele>
        <time>2021-12-23T11:24:12Z</time>
      </trkpt>
      <trkpt lat="45.25042" lon="6.12445">
        <ele>2399</ele>
        <time>2021-12-23T11:24:13Z</time>
      </trkpt>
      <trkpt lat="45.25042" lon="6.12445">
        <ele>2399</ele>
        <time>2021-12-23T11:24:14Z</time>
      </trkpt>
      <trkpt lat="45.25042" lon="6.12445">
        <ele>2400</ele>
        <time>2021-12-23T11:24:15Z</time>
      </trkpt>
      <trkpt lat="45.25042" lon="6.12445">
        <ele>2400</ele>
        <time>2021-12-23T11:24:16Z</time>
      </trkpt>
      <trkpt lat="45.25042" lon="6.12445">
        <ele>2400</ele>
        <time>2021-12-23T11:24:17Z</time>
      </trkpt>
      <trkpt lat="45.25042" lon="6.12445">
        <ele>2400</ele>
        <time>2021-12-23T11:24:18Z</time>
      </trkpt>
      <trkpt lat="45.25042" lon="6.12445">
        <ele>2400</ele>
        <time>2021-12-23T11:24:19Z</time>
      </trkpt>
      <trkpt lat="45.25042" lon="6.12445">
        <ele>2400</ele>
        <time>2021-12-23T11:24:20Z</time>
      </trkpt>
      <trkpt lat="45.25042" lon="6.12445">
        <ele>2400</ele>
        <time>2021-12-23T11:24:21Z</time>
      </trkpt>
      <trkpt lat="45.25042" lon="6.12445">
        <ele>2400</ele>
        <time>2021-12-23T11:24:22Z</time>
      </trkpt>
      <trkpt lat="45.25036" lon="6.12434">
        <ele>2401</ele>
        <time>2021-12-23T11:24:24Z</time>
      </trkpt>
      <trkpt lat="45.25036" lon="6.12434">
        <ele>2401</ele>
        <time>2021-12-23T11:24:25Z</time>
      </trkpt>
      <trkpt lat="45.25036" lon="6.12434">
        <ele>2401</ele>
        <time>2021-12-23T11:24:26Z</time>
      </trkpt>
      <trkpt lat="45.25036" lon="6.12434">
        <ele>2401</ele>
        <time>2021-12-23T11:24:27Z</time>
      </trkpt>
      <trkpt lat="45.25036" lon="6.12434">
        <ele>2401</ele>
        <time>2021-12-23T11:24:28Z</time>
      </trkpt>
      <trkpt lat="45.25036" lon="6.12434">
        <ele>2401</ele>
        <time>2021-12-23T11:24:29Z</time>
      </trkpt>
      <trkpt lat="45.25036" lon="6.12434">
        <ele>2402</ele>
        <time>2021-12-23T11:24:30Z</time>
      </trkpt>
      <trkpt lat="45.25036" lon="6.12434">
        <ele>2402</ele>
        <time>2021-12-23T11:24:31Z</time>
      </trkpt>
      <trkpt lat="45.25036" lon="6.12434">
        <ele>2402</ele>
        <time>2021-12-23T11:24:32Z</time>
      </trkpt>
      <trkpt lat="45.25036" lon="6.12434">
        <ele>2403</ele>
        <time>2021-12-23T11:24:33Z</time>
      </trkpt>
      <trkpt lat="45.25036" lon="6.12434">
        <ele>2403</ele>
        <time>2021-12-23T11:24:34Z</time>
      </trkpt>
      <trkpt lat="45.25036" lon="6.12434">
        <ele>2402</ele>
        <time>2021-12-23T11:24:35Z</time>
      </trkpt>
      <trkpt lat="45.25036" lon="6.12434">
        <ele>2402</ele>
        <time>2021-12-23T11:24:36Z</time>
      </trkpt>
      <trkpt lat="45.25036" lon="6.12434">
        <ele>2402</ele>
        <time>2021-12-23T11:24:37Z</time>
      </trkpt>
      <trkpt lat="45.25036" lon="6.12434">
        <ele>2403</ele>
        <time>2021-12-23T11:24:38Z</time>
      </trkpt>
      <trkpt lat="45.25036" lon="6.12434">
        <ele>2403</ele>
        <time>2021-12-23T11:24:39Z</time>
      </trkpt>
      <trkpt lat="45.25036" lon="6.12434">
        <ele>2403</ele>
        <time>2021-12-23T11:24:40Z</time>
      </trkpt>
      <trkpt lat="45.25031" lon="6.12423">
        <ele>2403</ele>
        <time>2021-12-23T11:24:41Z</time>
      </trkpt>
      <trkpt lat="45.25031" lon="6.12423">
        <ele>2403</ele>
        <time>2021-12-23T11:24:43Z</time>
      </trkpt>
      <trkpt lat="45.25031" lon="6.12423">
        <ele>2403</ele>
        <time>2021-12-23T11:24:44Z</time>
      </trkpt>
      <trkpt lat="45.25031" lon="6.12423">
        <ele>2405</ele>
        <time>2021-12-23T11:24:45Z</time>
      </trkpt>
      <trkpt lat="45.25031" lon="6.12423">
        <ele>2405</ele>
        <time>2021-12-23T11:24:46Z</time>
      </trkpt>
      <trkpt lat="45.25031" lon="6.12423">
        <ele>2405</ele>
        <time>2021-12-23T11:24:47Z</time>
      </trkpt>
      <trkpt lat="45.25031" lon="6.12423">
        <ele>2405</ele>
        <time>2021-12-23T11:24:48Z</time>
      </trkpt>
      <trkpt lat="45.25031" lon="6.12423">
        <ele>2405</ele>
        <time>2021-12-23T11:24:49Z</time>
      </trkpt>
      <trkpt lat="45.25031" lon="6.12423">
        <ele>2405</ele>
        <time>2021-12-23T11:24:50Z</time>
      </trkpt>
      <trkpt lat="45.25031" lon="6.12423">
        <ele>2405</ele>
        <time>2021-12-23T11:24:51Z</time>
      </trkpt>
      <trkpt lat="45.25031" lon="6.12423">
        <ele>2405</ele>
        <time>2021-12-23T11:24:52Z</time>
      </trkpt>
      <trkpt lat="45.25031" lon="6.12423">
        <ele>2406</ele>
        <time>2021-12-23T11:24:53Z</time>
      </trkpt>
      <trkpt lat="45.25031" lon="6.12423">
        <ele>2406</ele>
        <time>2021-12-23T11:24:54Z</time>
      </trkpt>
      <trkpt lat="45.25031" lon="6.12423">
        <ele>2405</ele>
        <time>2021-12-23T11:24:55Z</time>
      </trkpt>
      <trkpt lat="45.25031" lon="6.12423">
        <ele>2406</ele>
        <time>2021-12-23T11:24:56Z</time>
      </trkpt>
      <trkpt lat="45.25031" lon="6.12423">
        <ele>2406</ele>
        <time>2021-12-23T11:24:57Z</time>
      </trkpt>
      <trkpt lat="45.25031" lon="6.12423">
        <ele>2406</ele>
        <time>2021-12-23T11:24:58Z</time>
      </trkpt>
      <trkpt lat="45.25027" lon="6.12411">
        <ele>2406</ele>
        <time>2021-12-23T11:24:59Z</time>
      </trkpt>
      <trkpt lat="45.25027" lon="6.12411">
        <ele>2406</ele>
        <time>2021-12-23T11:25:01Z</time>
      </trkpt>
      <trkpt lat="45.25026" lon="6.1241">
        <ele>2405</ele>
        <time>2021-12-23T11:25:02Z</time>
      </trkpt>
      <trkpt lat="45.25025" lon="6.1241">
        <ele>2407</ele>
        <time>2021-12-23T11:25:03Z</time>
      </trkpt>
      <trkpt lat="45.25024" lon="6.12409">
        <ele>2407</ele>
        <time>2021-12-23T11:25:04Z</time>
      </trkpt>
      <trkpt lat="45.25024" lon="6.12408">
        <ele>2407</ele>
        <time>2021-12-23T11:25:05Z</time>
      </trkpt>
      <trkpt lat="45.25023" lon="6.12407">
        <ele>2406</ele>
        <time>2021-12-23T11:25:06Z</time>
      </trkpt>
      <trkpt lat="45.25022" lon="6.12407">
        <ele>2408</ele>
        <time>2021-12-23T11:25:07Z</time>
      </trkpt>
      <trkpt lat="45.25021" lon="6.12406">
        <ele>2408</ele>
        <time>2021-12-23T11:25:08Z</time>
      </trkpt>
      <trkpt lat="45.25021" lon="6.12405">
        <ele>2408</ele>
        <time>2021-12-23T11:25:09Z</time>
      </trkpt>
      <trkpt lat="45.2502" lon="6.12404">
        <ele>2408</ele>
        <time>2021-12-23T11:25:10Z</time>
      </trkpt>
      <trkpt lat="45.25019" lon="6.12404">
        <ele>2408</ele>
        <time>2021-12-23T11:25:11Z</time>
      </trkpt>
      <trkpt lat="45.25019" lon="6.12403">
        <ele>2408</ele>
        <time>2021-12-23T11:25:12Z</time>
      </trkpt>
      <trkpt lat="45.25019" lon="6.12402">
        <ele>2408</ele>
        <time>2021-12-23T11:25:13Z</time>
      </trkpt>
      <trkpt lat="45.25019" lon="6.12401">
        <ele>2408</ele>
        <time>2021-12-23T11:25:14Z</time>
      </trkpt>
      <trkpt lat="45.25018" lon="6.124">
        <ele>2409</ele>
        <time>2021-12-23T11:25:15Z</time>
      </trkpt>
      <trkpt lat="45.25018" lon="6.12399">
        <ele>2409</ele>
        <time>2021-12-23T11:25:16Z</time>
      </trkpt>
      <trkpt lat="45.25018" lon="6.12398">
        <ele>2409</ele>
        <time>2021-12-23T11:25:17Z</time>
      </trkpt>
      <trkpt lat="45.25018" lon="6.12396">
        <ele>2409</ele>
        <time>2021-12-23T11:25:18Z</time>
      </trkpt>
      <trkpt lat="45.25017" lon="6.12395">
        <ele>2409</ele>
        <time>2021-12-23T11:25:19Z</time>
      </trkpt>
      <trkpt lat="45.25017" lon="6.12394">
        <ele>2409</ele>
        <time>2021-12-23T11:25:21Z</time>
      </trkpt>
      <trkpt lat="45.25017" lon="6.12393">
        <ele>2409</ele>
        <time>2021-12-23T11:25:22Z</time>
      </trkpt>
      <trkpt lat="45.25017" lon="6.12392">
        <ele>2409</ele>
        <time>2021-12-23T11:25:23Z</time>
      </trkpt>
      <trkpt lat="45.25017" lon="6.12391">
        <ele>2409</ele>
        <time>2021-12-23T11:25:24Z</time>
      </trkpt>
      <trkpt lat="45.25016" lon="6.1239">
        <ele>2409</ele>
        <time>2021-12-23T11:25:25Z</time>
      </trkpt>
      <trkpt lat="45.25017" lon="6.12389">
        <ele>2409</ele>
        <time>2021-12-23T11:25:26Z</time>
      </trkpt>
      <trkpt lat="45.25017" lon="6.12388">
        <ele>2409</ele>
        <time>2021-12-23T11:25:27Z</time>
      </trkpt>
      <trkpt lat="45.25017" lon="6.12386">
        <ele>2409</ele>
        <time>2021-12-23T11:25:28Z</time>
      </trkpt>
      <trkpt lat="45.25017" lon="6.12385">
        <ele>2409</ele>
        <time>2021-12-23T11:25:29Z</time>
      </trkpt>
      <trkpt lat="45.25018" lon="6.12383">
        <ele>2409</ele>
        <time>2021-12-23T11:25:30Z</time>
      </trkpt>
      <trkpt lat="45.25018" lon="6.12382">
        <ele>2409</ele>
        <time>2021-12-23T11:25:31Z</time>
      </trkpt>
      <trkpt lat="45.25018" lon="6.12381">
        <ele>2409</ele>
        <time>2021-12-23T11:25:32Z</time>
      </trkpt>
      <trkpt lat="45.25018" lon="6.12379">
        <ele>2409</ele>
        <time>2021-12-23T11:25:33Z</time>
      </trkpt>
      <trkpt lat="45.25019" lon="6.12378">
        <ele>2410</ele>
        <time>2021-12-23T11:25:34Z</time>
      </trkpt>
      <trkpt lat="45.25019" lon="6.12376">
        <ele>2410</ele>
        <time>2021-12-23T11:25:35Z</time>
      </trkpt>
      <trkpt lat="45.25019" lon="6.12375">
        <ele>2410</ele>
        <time>2021-12-23T11:25:36Z</time>
      </trkpt>
      <trkpt lat="45.25018" lon="6.12374">
        <ele>2411</ele>
        <time>2021-12-23T11:25:37Z</time>
      </trkpt>
      <trkpt lat="45.25017" lon="6.12372">
        <ele>2411</ele>
        <time>2021-12-23T11:25:38Z</time>
      </trkpt>
      <trkpt lat="45.25016" lon="6.12371">
        <ele>2411</ele>
        <time>2021-12-23T11:25:40Z</time>
      </trkpt>
      <trkpt lat="45.25015" lon="6.12369">
        <ele>2411</ele>
        <time>2021-12-23T11:25:41Z</time>
      </trkpt>
      <trkpt lat="45.25014" lon="6.12368">
        <ele>2412</ele>
        <time>2021-12-23T11:25:42Z</time>
      </trkpt>
      <trkpt lat="45.25013" lon="6.12367">
        <ele>2412</ele>
        <time>2021-12-23T11:25:43Z</time>
      </trkpt>
      <trkpt lat="45.25012" lon="6.12365">
        <ele>2412</ele>
        <time>2021-12-23T11:25:44Z</time>
      </trkpt>
      <trkpt lat="45.25012" lon="6.12364">
        <ele>2412</ele>
        <time>2021-12-23T11:25:45Z</time>
      </trkpt>
      <trkpt lat="45.25011" lon="6.12364">
        <ele>2412</ele>
        <time>2021-12-23T11:25:46Z</time>
      </trkpt>
      <trkpt lat="45.25011" lon="6.12363">
        <ele>2412</ele>
        <time>2021-12-23T11:25:47Z</time>
      </trkpt>
      <trkpt lat="45.25011" lon="6.12362">
        <ele>2412</ele>
        <time>2021-12-23T11:25:48Z</time>
      </trkpt>
      <trkpt lat="45.25011" lon="6.12361">
        <ele>2412</ele>
        <time>2021-12-23T11:25:50Z</time>
      </trkpt>
      <trkpt lat="45.2501" lon="6.1236">
        <ele>2412</ele>
        <time>2021-12-23T11:25:51Z</time>
      </trkpt>
      <trkpt lat="45.2501" lon="6.12359">
        <ele>2412</ele>
        <time>2021-12-23T11:25:52Z</time>
      </trkpt>
      <trkpt lat="45.2501" lon="6.12359">
        <ele>2412</ele>
        <time>2021-12-23T11:25:53Z</time>
      </trkpt>
      <trkpt lat="45.25009" lon="6.12358">
        <ele>2412</ele>
        <time>2021-12-23T11:25:54Z</time>
      </trkpt>
      <trkpt lat="45.25009" lon="6.12357">
        <ele>2412</ele>
        <time>2021-12-23T11:25:55Z</time>
      </trkpt>
      <trkpt lat="45.25009" lon="6.12356">
        <ele>2413</ele>
        <time>2021-12-23T11:25:56Z</time>
      </trkpt>
      <trkpt lat="45.25009" lon="6.12355">
        <ele>2413</ele>
        <time>2021-12-23T11:25:57Z</time>
      </trkpt>
      <trkpt lat="45.25008" lon="6.12355">
        <ele>2413</ele>
        <time>2021-12-23T11:25:59Z</time>
      </trkpt>
      <trkpt lat="45.25008" lon="6.12354">
        <ele>2413</ele>
        <time>2021-12-23T11:26:00Z</time>
      </trkpt>
      <trkpt lat="45.25007" lon="6.12353">
        <ele>2413</ele>
        <time>2021-12-23T11:26:01Z</time>
      </trkpt>
      <trkpt lat="45.25007" lon="6.12353">
        <ele>2413</ele>
        <time>2021-12-23T11:26:02Z</time>
      </trkpt>
      <trkpt lat="45.25006" lon="6.12352">
        <ele>2413</ele>
        <time>2021-12-23T11:26:03Z</time>
      </trkpt>
      <trkpt lat="45.25005" lon="6.12352">
        <ele>2413</ele>
        <time>2021-12-23T11:26:04Z</time>
      </trkpt>
      <trkpt lat="45.25005" lon="6.12352">
        <ele>2413</ele>
        <time>2021-12-23T11:26:05Z</time>
      </trkpt>
      <trkpt lat="45.25004" lon="6.12351">
        <ele>2414</ele>
        <time>2021-12-23T11:26:06Z</time>
      </trkpt>
      <trkpt lat="45.25003" lon="6.12351">
        <ele>2414</ele>
        <time>2021-12-23T11:26:07Z</time>
      </trkpt>
      <trkpt lat="45.25003" lon="6.1235">
        <ele>2415</ele>
        <time>2021-12-23T11:26:08Z</time>
      </trkpt>
      <trkpt lat="45.25002" lon="6.1235">
        <ele>2415</ele>
        <time>2021-12-23T11:26:09Z</time>
      </trkpt>
      <trkpt lat="45.25001" lon="6.1235">
        <ele>2415</ele>
        <time>2021-12-23T11:26:10Z</time>
      </trkpt>
      <trkpt lat="45.25001" lon="6.12349">
        <ele>2415</ele>
        <time>2021-12-23T11:26:11Z</time>
      </trkpt>
      <trkpt lat="45.25" lon="6.12349">
        <ele>2415</ele>
        <time>2021-12-23T11:26:12Z</time>
      </trkpt>
      <trkpt lat="45.25" lon="6.12348">
        <ele>2415</ele>
        <time>2021-12-23T11:26:13Z</time>
      </trkpt>
      <trkpt lat="45.24999" lon="6.12348">
        <ele>2415</ele>
        <time>2021-12-23T11:26:14Z</time>
      </trkpt>
      <trkpt lat="45.24999" lon="6.12348">
        <ele>2416</ele>
        <time>2021-12-23T11:26:15Z</time>
      </trkpt>
      <trkpt lat="45.24999" lon="6.12347">
        <ele>2416</ele>
        <time>2021-12-23T11:26:16Z</time>
      </trkpt>
      <trkpt lat="45.24998" lon="6.12347">
        <ele>2416</ele>
        <time>2021-12-23T11:26:18Z</time>
      </trkpt>
      <trkpt lat="45.24998" lon="6.12346">
        <ele>2416</ele>
        <time>2021-12-23T11:26:19Z</time>
      </trkpt>
      <trkpt lat="45.24998" lon="6.12346">
        <ele>2416</ele>
        <time>2021-12-23T11:26:20Z</time>
      </trkpt>
      <trkpt lat="45.24997" lon="6.12346">
        <ele>2417</ele>
        <time>2021-12-23T11:26:21Z</time>
      </trkpt>
      <trkpt lat="45.24997" lon="6.12345">
        <ele>2417</ele>
        <time>2021-12-23T11:26:22Z</time>
      </trkpt>
      <trkpt lat="45.24997" lon="6.12345">
        <ele>2416</ele>
        <time>2021-12-23T11:26:23Z</time>
      </trkpt>
      <trkpt lat="45.24996" lon="6.12344">
        <ele>2416</ele>
        <time>2021-12-23T11:26:24Z</time>
      </trkpt>
      <trkpt lat="45.24996" lon="6.12344">
        <ele>2416</ele>
        <time>2021-12-23T11:26:25Z</time>
      </trkpt>
      <trkpt lat="45.24996" lon="6.12344">
        <ele>2417</ele>
        <time>2021-12-23T11:26:26Z</time>
      </trkpt>
      <trkpt lat="45.24995" lon="6.12343">
        <ele>2417</ele>
        <time>2021-12-23T11:26:27Z</time>
      </trkpt>
      <trkpt lat="45.24995" lon="6.12343">
        <ele>2417</ele>
        <time>2021-12-23T11:26:28Z</time>
      </trkpt>
      <trkpt lat="45.24995" lon="6.12342">
        <ele>2417</ele>
        <time>2021-12-23T11:26:29Z</time>
      </trkpt>
      <trkpt lat="45.24994" lon="6.12342">
        <ele>2418</ele>
        <time>2021-12-23T11:26:30Z</time>
      </trkpt>
      <trkpt lat="45.24994" lon="6.12342">
        <ele>2418</ele>
        <time>2021-12-23T11:26:31Z</time>
      </trkpt>
      <trkpt lat="45.24994" lon="6.12341">
        <ele>2419</ele>
        <time>2021-12-23T11:26:32Z</time>
      </trkpt>
      <trkpt lat="45.24993" lon="6.12341">
        <ele>2419</ele>
        <time>2021-12-23T11:26:33Z</time>
      </trkpt>
      <trkpt lat="45.24993" lon="6.1234">
        <ele>2419</ele>
        <time>2021-12-23T11:26:34Z</time>
      </trkpt>
      <trkpt lat="45.24992" lon="6.1234">
        <ele>2419</ele>
        <time>2021-12-23T11:26:35Z</time>
      </trkpt>
      <trkpt lat="45.2499" lon="6.12339">
        <ele>2419</ele>
        <time>2021-12-23T11:26:37Z</time>
      </trkpt>
      <trkpt lat="45.24989" lon="6.12338">
        <ele>2419</ele>
        <time>2021-12-23T11:26:38Z</time>
      </trkpt>
      <trkpt lat="45.24987" lon="6.12337">
        <ele>2419</ele>
        <time>2021-12-23T11:26:39Z</time>
      </trkpt>
      <trkpt lat="45.24986" lon="6.12336">
        <ele>2420</ele>
        <time>2021-12-23T11:26:40Z</time>
      </trkpt>
      <trkpt lat="45.24984" lon="6.12336">
        <ele>2420</ele>
        <time>2021-12-23T11:26:41Z</time>
      </trkpt>
      <trkpt lat="45.24982" lon="6.12335">
        <ele>2420</ele>
        <time>2021-12-23T11:26:42Z</time>
      </trkpt>
      <trkpt lat="45.2498" lon="6.12335">
        <ele>2420</ele>
        <time>2021-12-23T11:26:43Z</time>
      </trkpt>
      <trkpt lat="45.24978" lon="6.12334">
        <ele>2420</ele>
        <time>2021-12-23T11:26:44Z</time>
      </trkpt>
      <trkpt lat="45.24976" lon="6.12334">
        <ele>2421</ele>
        <time>2021-12-23T11:26:45Z</time>
      </trkpt>
      <trkpt lat="45.24974" lon="6.12333">
        <ele>2421</ele>
        <time>2021-12-23T11:26:46Z</time>
      </trkpt>
      <trkpt lat="45.24972" lon="6.12333">
        <ele>2421</ele>
        <time>2021-12-23T11:26:47Z</time>
      </trkpt>
      <trkpt lat="45.24972" lon="6.12333">
        <ele>2421</ele>
        <time>2021-12-23T11:26:48Z</time>
      </trkpt>
      <trkpt lat="45.24972" lon="6.12333">
        <ele>2421</ele>
        <time>2021-12-23T11:26:49Z</time>
      </trkpt>
      <trkpt lat="45.24972" lon="6.12333">
        <ele>2421</ele>
        <time>2021-12-23T11:26:50Z</time>
      </trkpt>
      <trkpt lat="45.24972" lon="6.12333">
        <ele>2421</ele>
        <time>2021-12-23T11:26:51Z</time>
      </trkpt>
      <trkpt lat="45.24972" lon="6.12333">
        <ele>2421</ele>
        <time>2021-12-23T11:26:52Z</time>
      </trkpt>
      <trkpt lat="45.24972" lon="6.12333">
        <ele>2421</ele>
        <time>2021-12-23T11:26:53Z</time>
      </trkpt>
      <trkpt lat="45.24972" lon="6.12333">
        <ele>2421</ele>
        <time>2021-12-23T11:26:54Z</time>
      </trkpt>
      <trkpt lat="45.24972" lon="6.12333">
        <ele>2421</ele>
        <time>2021-12-23T11:26:56Z</time>
      </trkpt>
      <trkpt lat="45.24972" lon="6.12333">
        <ele>2421</ele>
        <time>2021-12-23T11:26:57Z</time>
      </trkpt>
      <trkpt lat="45.24972" lon="6.12333">
        <ele>2421</ele>
        <time>2021-12-23T11:26:58Z</time>
      </trkpt>
      <trkpt lat="45.24972" lon="6.12333">
        <ele>2422</ele>
        <time>2021-12-23T11:26:59Z</time>
      </trkpt>
      <trkpt lat="45.24972" lon="6.12333">
        <ele>2422</ele>
        <time>2021-12-23T11:27:00Z</time>
      </trkpt>
      <trkpt lat="45.24968" lon="6.12321">
        <ele>2422</ele>
        <time>2021-12-23T11:27:01Z</time>
      </trkpt>
      <trkpt lat="45.24968" lon="6.12321">
        <ele>2422</ele>
        <time>2021-12-23T11:27:03Z</time>
      </trkpt>
      <trkpt lat="45.24968" lon="6.1232">
        <ele>2422</ele>
        <time>2021-12-23T11:27:04Z</time>
      </trkpt>
      <trkpt lat="45.24968" lon="6.12319">
        <ele>2423</ele>
        <time>2021-12-23T11:27:05Z</time>
      </trkpt>
      <trkpt lat="45.24968" lon="6.12318">
        <ele>2424</ele>
        <time>2021-12-23T11:27:06Z</time>
      </trkpt>
      <trkpt lat="45.24968" lon="6.12318">
        <ele>2424</ele>
        <time>2021-12-23T11:27:07Z</time>
      </trkpt>
      <trkpt lat="45.24967" lon="6.12317">
        <ele>2425</ele>
        <time>2021-12-23T11:27:08Z</time>
      </trkpt>
      <trkpt lat="45.24967" lon="6.12316">
        <ele>2425</ele>
        <time>2021-12-23T11:27:09Z</time>
      </trkpt>
      <trkpt lat="45.24967" lon="6.12315">
        <ele>2425</ele>
        <time>2021-12-23T11:27:10Z</time>
      </trkpt>
      <trkpt lat="45.24967" lon="6.12314">
        <ele>2425</ele>
        <time>2021-12-23T11:27:11Z</time>
      </trkpt>
      <trkpt lat="45.24966" lon="6.12313">
        <ele>2425</ele>
        <time>2021-12-23T11:27:12Z</time>
      </trkpt>
      <trkpt lat="45.24966" lon="6.12313">
        <ele>2425</ele>
        <time>2021-12-23T11:27:13Z</time>
      </trkpt>
      <trkpt lat="45.24966" lon="6.12312">
        <ele>2425</ele>
        <time>2021-12-23T11:27:15Z</time>
      </trkpt>
      <trkpt lat="45.24966" lon="6.12311">
        <ele>2425</ele>
        <time>2021-12-23T11:27:16Z</time>
      </trkpt>
      <trkpt lat="45.24966" lon="6.1231">
        <ele>2425</ele>
        <time>2021-12-23T11:27:17Z</time>
      </trkpt>
      <trkpt lat="45.24965" lon="6.12309">
        <ele>2426</ele>
        <time>2021-12-23T11:27:18Z</time>
      </trkpt>
      <trkpt lat="45.24965" lon="6.12309">
        <ele>2426</ele>
        <time>2021-12-23T11:27:19Z</time>
      </trkpt>
      <trkpt lat="45.24965" lon="6.12308">
        <ele>2426</ele>
        <time>2021-12-23T11:27:20Z</time>
      </trkpt>
      <trkpt lat="45.24965" lon="6.12307">
        <ele>2426</ele>
        <time>2021-12-23T11:27:21Z</time>
      </trkpt>
      <trkpt lat="45.24966" lon="6.12307">
        <ele>2426</ele>
        <time>2021-12-23T11:27:22Z</time>
      </trkpt>
      <trkpt lat="45.24966" lon="6.12306">
        <ele>2426</ele>
        <time>2021-12-23T11:27:23Z</time>
      </trkpt>
      <trkpt lat="45.24966" lon="6.12306">
        <ele>2427</ele>
        <time>2021-12-23T11:27:24Z</time>
      </trkpt>
      <trkpt lat="45.24966" lon="6.12305">
        <ele>2427</ele>
        <time>2021-12-23T11:27:25Z</time>
      </trkpt>
      <trkpt lat="45.24966" lon="6.12304">
        <ele>2427</ele>
        <time>2021-12-23T11:27:26Z</time>
      </trkpt>
      <trkpt lat="45.24966" lon="6.12304">
        <ele>2427</ele>
        <time>2021-12-23T11:27:27Z</time>
      </trkpt>
      <trkpt lat="45.24966" lon="6.12303">
        <ele>2427</ele>
        <time>2021-12-23T11:27:28Z</time>
      </trkpt>
      <trkpt lat="45.24966" lon="6.12302">
        <ele>2427</ele>
        <time>2021-12-23T11:27:29Z</time>
      </trkpt>
      <trkpt lat="45.24966" lon="6.12302">
        <ele>2427</ele>
        <time>2021-12-23T11:27:30Z</time>
      </trkpt>
      <trkpt lat="45.24966" lon="6.12301">
        <ele>2427</ele>
        <time>2021-12-23T11:27:31Z</time>
      </trkpt>
      <trkpt lat="45.24966" lon="6.12301">
        <ele>2428</ele>
        <time>2021-12-23T11:27:32Z</time>
      </trkpt>
      <trkpt lat="45.24966" lon="6.123">
        <ele>2428</ele>
        <time>2021-12-23T11:27:34Z</time>
      </trkpt>
      <trkpt lat="45.24966" lon="6.12299">
        <ele>2428</ele>
        <time>2021-12-23T11:27:35Z</time>
      </trkpt>
      <trkpt lat="45.24966" lon="6.12299">
        <ele>2428</ele>
        <time>2021-12-23T11:27:36Z</time>
      </trkpt>
      <trkpt lat="45.24966" lon="6.12298">
        <ele>2428</ele>
        <time>2021-12-23T11:27:37Z</time>
      </trkpt>
      <trkpt lat="45.24966" lon="6.12297">
        <ele>2428</ele>
        <time>2021-12-23T11:27:38Z</time>
      </trkpt>
      <trkpt lat="45.24966" lon="6.12297">
        <ele>2429</ele>
        <time>2021-12-23T11:27:39Z</time>
      </trkpt>
      <trkpt lat="45.24966" lon="6.12296">
        <ele>2429</ele>
        <time>2021-12-23T11:27:40Z</time>
      </trkpt>
      <trkpt lat="45.24965" lon="6.12296">
        <ele>2429</ele>
        <time>2021-12-23T11:27:41Z</time>
      </trkpt>
      <trkpt lat="45.24965" lon="6.12295">
        <ele>2430</ele>
        <time>2021-12-23T11:27:42Z</time>
      </trkpt>
      <trkpt lat="45.24964" lon="6.12294">
        <ele>2430</ele>
        <time>2021-12-23T11:27:43Z</time>
      </trkpt>
      <trkpt lat="45.24964" lon="6.12294">
        <ele>2430</ele>
        <time>2021-12-23T11:27:44Z</time>
      </trkpt>
      <trkpt lat="45.24964" lon="6.12293">
        <ele>2430</ele>
        <time>2021-12-23T11:27:45Z</time>
      </trkpt>
      <trkpt lat="45.24963" lon="6.12293">
        <ele>2430</ele>
        <time>2021-12-23T11:27:46Z</time>
      </trkpt>
      <trkpt lat="45.24963" lon="6.12292">
        <ele>2430</ele>
        <time>2021-12-23T11:27:47Z</time>
      </trkpt>
      <trkpt lat="45.24962" lon="6.12292">
        <ele>2430</ele>
        <time>2021-12-23T11:27:48Z</time>
      </trkpt>
      <trkpt lat="45.24962" lon="6.12291">
        <ele>2431</ele>
        <time>2021-12-23T11:27:49Z</time>
      </trkpt>
      <trkpt lat="45.24962" lon="6.12291">
        <ele>2431</ele>
        <time>2021-12-23T11:27:50Z</time>
      </trkpt>
      <trkpt lat="45.24961" lon="6.1229">
        <ele>2432</ele>
        <time>2021-12-23T11:27:51Z</time>
      </trkpt>
      <trkpt lat="45.24961" lon="6.12289">
        <ele>2432</ele>
        <time>2021-12-23T11:27:53Z</time>
      </trkpt>
      <trkpt lat="45.24961" lon="6.12289">
        <ele>2432</ele>
        <time>2021-12-23T11:27:54Z</time>
      </trkpt>
      <trkpt lat="45.2496" lon="6.12288">
        <ele>2432</ele>
        <time>2021-12-23T11:27:55Z</time>
      </trkpt>
      <trkpt lat="45.24959" lon="6.12287">
        <ele>2433</ele>
        <time>2021-12-23T11:27:56Z</time>
      </trkpt>
      <trkpt lat="45.24958" lon="6.12286">
        <ele>2433</ele>
        <time>2021-12-23T11:27:57Z</time>
      </trkpt>
      <trkpt lat="45.24958" lon="6.12285">
        <ele>2433</ele>
        <time>2021-12-23T11:27:58Z</time>
      </trkpt>
      <trkpt lat="45.24957" lon="6.12284">
        <ele>2433</ele>
        <time>2021-12-23T11:27:59Z</time>
      </trkpt>
      <trkpt lat="45.24956" lon="6.12283">
        <ele>2433</ele>
        <time>2021-12-23T11:28:00Z</time>
      </trkpt>
      <trkpt lat="45.24955" lon="6.12282">
        <ele>2433</ele>
        <time>2021-12-23T11:28:01Z</time>
      </trkpt>
      <trkpt lat="45.24954" lon="6.1228">
        <ele>2433</ele>
        <time>2021-12-23T11:28:02Z</time>
      </trkpt>
      <trkpt lat="45.24953" lon="6.12279">
        <ele>2433</ele>
        <time>2021-12-23T11:28:03Z</time>
      </trkpt>
      <trkpt lat="45.24953" lon="6.12279">
        <ele>2433</ele>
        <time>2021-12-23T11:28:04Z</time>
      </trkpt>
      <trkpt lat="45.24952" lon="6.12279">
        <ele>2434</ele>
        <time>2021-12-23T11:28:05Z</time>
      </trkpt>
      <trkpt lat="45.24952" lon="6.12278">
        <ele>2434</ele>
        <time>2021-12-23T11:28:06Z</time>
      </trkpt>
      <trkpt lat="45.24951" lon="6.12278">
        <ele>2434</ele>
        <time>2021-12-23T11:28:07Z</time>
      </trkpt>
      <trkpt lat="45.24951" lon="6.12278">
        <ele>2434</ele>
        <time>2021-12-23T11:28:08Z</time>
      </trkpt>
      <trkpt lat="45.2495" lon="6.12277">
        <ele>2434</ele>
        <time>2021-12-23T11:28:09Z</time>
      </trkpt>
      <trkpt lat="45.2495" lon="6.12277">
        <ele>2434</ele>
        <time>2021-12-23T11:28:10Z</time>
      </trkpt>
      <trkpt lat="45.24949" lon="6.12277">
        <ele>2434</ele>
        <time>2021-12-23T11:28:12Z</time>
      </trkpt>
      <trkpt lat="45.24949" lon="6.12276">
        <ele>2434</ele>
        <time>2021-12-23T11:28:13Z</time>
      </trkpt>
      <trkpt lat="45.24948" lon="6.12276">
        <ele>2434</ele>
        <time>2021-12-23T11:28:14Z</time>
      </trkpt>
      <trkpt lat="45.24948" lon="6.12276">
        <ele>2435</ele>
        <time>2021-12-23T11:28:15Z</time>
      </trkpt>
      <trkpt lat="45.24947" lon="6.12275">
        <ele>2435</ele>
        <time>2021-12-23T11:28:16Z</time>
      </trkpt>
      <trkpt lat="45.24946" lon="6.12275">
        <ele>2435</ele>
        <time>2021-12-23T11:28:17Z</time>
      </trkpt>
      <trkpt lat="45.24946" lon="6.12275">
        <ele>2435</ele>
        <time>2021-12-23T11:28:18Z</time>
      </trkpt>
      <trkpt lat="45.24945" lon="6.12274">
        <ele>2435</ele>
        <time>2021-12-23T11:28:19Z</time>
      </trkpt>
      <trkpt lat="45.24945" lon="6.12274">
        <ele>2436</ele>
        <time>2021-12-23T11:28:20Z</time>
      </trkpt>
      <trkpt lat="45.24944" lon="6.12273">
        <ele>2436</ele>
        <time>2021-12-23T11:28:21Z</time>
      </trkpt>
      <trkpt lat="45.24944" lon="6.12273">
        <ele>2436</ele>
        <time>2021-12-23T11:28:22Z</time>
      </trkpt>
      <trkpt lat="45.24944" lon="6.12273">
        <ele>2436</ele>
        <time>2021-12-23T11:28:23Z</time>
      </trkpt>
      <trkpt lat="45.24944" lon="6.12273">
        <ele>2436</ele>
        <time>2021-12-23T11:28:24Z</time>
      </trkpt>
      <trkpt lat="45.24944" lon="6.12273">
        <ele>2436</ele>
        <time>2021-12-23T11:28:25Z</time>
      </trkpt>
      <trkpt lat="45.24944" lon="6.12273">
        <ele>2436</ele>
        <time>2021-12-23T11:28:26Z</time>
      </trkpt>
      <trkpt lat="45.24944" lon="6.12273">
        <ele>2437</ele>
        <time>2021-12-23T11:28:27Z</time>
      </trkpt>
      <trkpt lat="45.24944" lon="6.12273">
        <ele>2437</ele>
        <time>2021-12-23T11:28:28Z</time>
      </trkpt>
      <trkpt lat="45.24944" lon="6.12273">
        <ele>2437</ele>
        <time>2021-12-23T11:28:29Z</time>
      </trkpt>
      <trkpt lat="45.24944" lon="6.12273">
        <ele>2437</ele>
        <time>2021-12-23T11:28:31Z</time>
      </trkpt>
      <trkpt lat="45.24944" lon="6.12273">
        <ele>2437</ele>
        <time>2021-12-23T11:28:32Z</time>
      </trkpt>
      <trkpt lat="45.24944" lon="6.12273">
        <ele>2436</ele>
        <time>2021-12-23T11:28:33Z</time>
      </trkpt>
      <trkpt lat="45.24944" lon="6.12273">
        <ele>2436</ele>
        <time>2021-12-23T11:28:34Z</time>
      </trkpt>
      <trkpt lat="45.24944" lon="6.12273">
        <ele>2436</ele>
        <time>2021-12-23T11:28:35Z</time>
      </trkpt>
      <trkpt lat="45.24944" lon="6.12273">
        <ele>2436</ele>
        <time>2021-12-23T11:28:36Z</time>
      </trkpt>
      <trkpt lat="45.24944" lon="6.12273">
        <ele>2436</ele>
        <time>2021-12-23T11:28:37Z</time>
      </trkpt>
      <trkpt lat="45.24944" lon="6.12273">
        <ele>2436</ele>
        <time>2021-12-23T11:28:38Z</time>
      </trkpt>
      <trkpt lat="45.24944" lon="6.12273">
        <ele>2436</ele>
        <time>2021-12-23T11:28:39Z</time>
      </trkpt>
      <trkpt lat="45.24944" lon="6.12273">
        <ele>2436</ele>
        <time>2021-12-23T11:28:40Z</time>
      </trkpt>
      <trkpt lat="45.24944" lon="6.12273">
        <ele>2436</ele>
        <time>2021-12-23T11:28:41Z</time>
      </trkpt>
      <trkpt lat="45.24944" lon="6.12273">
        <ele>2436</ele>
        <time>2021-12-23T11:28:42Z</time>
      </trkpt>
      <trkpt lat="45.24944" lon="6.12273">
        <ele>2436</ele>
        <time>2021-12-23T11:28:43Z</time>
      </trkpt>
      <trkpt lat="45.24944" lon="6.12273">
        <ele>2436</ele>
        <time>2021-12-23T11:28:44Z</time>
      </trkpt>
      <trkpt lat="45.24944" lon="6.12273">
        <ele>2436</ele>
        <time>2021-12-23T11:28:45Z</time>
      </trkpt>
      <trkpt lat="45.24944" lon="6.12273">
        <ele>2436</ele>
        <time>2021-12-23T11:28:46Z</time>
      </trkpt>
      <trkpt lat="45.24944" lon="6.12273">
        <ele>2436</ele>
        <time>2021-12-23T11:28:47Z</time>
      </trkpt>
      <trkpt lat="45.24944" lon="6.12273">
        <ele>2436</ele>
        <time>2021-12-23T11:28:48Z</time>
      </trkpt>
      <trkpt lat="45.24944" lon="6.12273">
        <ele>2436</ele>
        <time>2021-12-23T11:28:50Z</time>
      </trkpt>
      <trkpt lat="45.24944" lon="6.12273">
        <ele>2436</ele>
        <time>2021-12-23T11:28:51Z</time>
      </trkpt>
      <trkpt lat="45.24944" lon="6.12273">
        <ele>2437</ele>
        <time>2021-12-23T11:28:52Z</time>
      </trkpt>
      <trkpt lat="45.24944" lon="6.12273">
        <ele>2437</ele>
        <time>2021-12-23T11:28:53Z</time>
      </trkpt>
      <trkpt lat="45.24944" lon="6.12273">
        <ele>2438</ele>
        <time>2021-12-23T11:28:54Z</time>
      </trkpt>
      <trkpt lat="45.24944" lon="6.12273">
        <ele>2438</ele>
        <time>2021-12-23T11:28:55Z</time>
      </trkpt>
      <trkpt lat="45.24944" lon="6.12273">
        <ele>2438</ele>
        <time>2021-12-23T11:28:56Z</time>
      </trkpt>
      <trkpt lat="45.24944" lon="6.12273">
        <ele>2438</ele>
        <time>2021-12-23T11:28:57Z</time>
      </trkpt>
      <trkpt lat="45.24944" lon="6.12273">
        <ele>2438</ele>
        <time>2021-12-23T11:28:58Z</time>
      </trkpt>
      <trkpt lat="45.24944" lon="6.12273">
        <ele>2438</ele>
        <time>2021-12-23T11:28:59Z</time>
      </trkpt>
      <trkpt lat="45.24944" lon="6.12273">
        <ele>2439</ele>
        <time>2021-12-23T11:29:00Z</time>
      </trkpt>
      <trkpt lat="45.24944" lon="6.12273">
        <ele>2439</ele>
        <time>2021-12-23T11:29:01Z</time>
      </trkpt>
      <trkpt lat="45.24944" lon="6.12273">
        <ele>2439</ele>
        <time>2021-12-23T11:29:02Z</time>
      </trkpt>
      <trkpt lat="45.24944" lon="6.12273">
        <ele>2439</ele>
        <time>2021-12-23T11:29:03Z</time>
      </trkpt>
      <trkpt lat="45.24944" lon="6.12273">
        <ele>2440</ele>
        <time>2021-12-23T11:29:04Z</time>
      </trkpt>
      <trkpt lat="45.24944" lon="6.12273">
        <ele>2440</ele>
        <time>2021-12-23T11:29:05Z</time>
      </trkpt>
      <trkpt lat="45.24944" lon="6.12273">
        <ele>2440</ele>
        <time>2021-12-23T11:29:06Z</time>
      </trkpt>
      <trkpt lat="45.24944" lon="6.12273">
        <ele>2441</ele>
        <time>2021-12-23T11:29:07Z</time>
      </trkpt>
      <trkpt lat="45.24944" lon="6.12273">
        <ele>2441</ele>
        <time>2021-12-23T11:29:09Z</time>
      </trkpt>
      <trkpt lat="45.24944" lon="6.12273">
        <ele>2441</ele>
        <time>2021-12-23T11:29:10Z</time>
      </trkpt>
      <trkpt lat="45.24939" lon="6.12265">
        <ele>2441</ele>
        <time>2021-12-23T11:29:11Z</time>
      </trkpt>
      <trkpt lat="45.24939" lon="6.12265">
        <ele>2441</ele>
        <time>2021-12-23T11:29:13Z</time>
      </trkpt>
      <trkpt lat="45.24938" lon="6.12263">
        <ele>2441</ele>
        <time>2021-12-23T11:29:14Z</time>
      </trkpt>
      <trkpt lat="45.24938" lon="6.12261">
        <ele>2441</ele>
        <time>2021-12-23T11:29:15Z</time>
      </trkpt>
      <trkpt lat="45.24937" lon="6.1226">
        <ele>2441</ele>
        <time>2021-12-23T11:29:16Z</time>
      </trkpt>
      <trkpt lat="45.24937" lon="6.12258">
        <ele>2442</ele>
        <time>2021-12-23T11:29:17Z</time>
      </trkpt>
      <trkpt lat="45.24937" lon="6.12256">
        <ele>2442</ele>
        <time>2021-12-23T11:29:18Z</time>
      </trkpt>
      <trkpt lat="45.24936" lon="6.12254">
        <ele>2442</ele>
        <time>2021-12-23T11:29:19Z</time>
      </trkpt>
      <trkpt lat="45.24936" lon="6.12253">
        <ele>2442</ele>
        <time>2021-12-23T11:29:20Z</time>
      </trkpt>
      <trkpt lat="45.24935" lon="6.12251">
        <ele>2443</ele>
        <time>2021-12-23T11:29:21Z</time>
      </trkpt>
      <trkpt lat="45.24935" lon="6.12251">
        <ele>2443</ele>
        <time>2021-12-23T11:29:22Z</time>
      </trkpt>
      <trkpt lat="45.24934" lon="6.12251">
        <ele>2443</ele>
        <time>2021-12-23T11:29:23Z</time>
      </trkpt>
      <trkpt lat="45.24933" lon="6.12251">
        <ele>2443</ele>
        <time>2021-12-23T11:29:24Z</time>
      </trkpt>
      <trkpt lat="45.24932" lon="6.12251">
        <ele>2443</ele>
        <time>2021-12-23T11:29:25Z</time>
      </trkpt>
      <trkpt lat="45.24932" lon="6.12251">
        <ele>2444</ele>
        <time>2021-12-23T11:29:26Z</time>
      </trkpt>
      <trkpt lat="45.24931" lon="6.12251">
        <ele>2444</ele>
        <time>2021-12-23T11:29:28Z</time>
      </trkpt>
      <trkpt lat="45.2493" lon="6.12251">
        <ele>2444</ele>
        <time>2021-12-23T11:29:29Z</time>
      </trkpt>
      <trkpt lat="45.24929" lon="6.12251">
        <ele>2444</ele>
        <time>2021-12-23T11:29:30Z</time>
      </trkpt>
      <trkpt lat="45.24929" lon="6.12251">
        <ele>2444</ele>
        <time>2021-12-23T11:29:31Z</time>
      </trkpt>
      <trkpt lat="45.24928" lon="6.12251">
        <ele>2445</ele>
        <time>2021-12-23T11:29:32Z</time>
      </trkpt>
      <trkpt lat="45.24927" lon="6.12251">
        <ele>2445</ele>
        <time>2021-12-23T11:29:33Z</time>
      </trkpt>
      <trkpt lat="45.24926" lon="6.12251">
        <ele>2445</ele>
        <time>2021-12-23T11:29:34Z</time>
      </trkpt>
      <trkpt lat="45.24926" lon="6.12251">
        <ele>2445</ele>
        <time>2021-12-23T11:29:35Z</time>
      </trkpt>
      <trkpt lat="45.24925" lon="6.12251">
        <ele>2445</ele>
        <time>2021-12-23T11:29:36Z</time>
      </trkpt>
      <trkpt lat="45.24925" lon="6.1225">
        <ele>2445</ele>
        <time>2021-12-23T11:29:37Z</time>
      </trkpt>
      <trkpt lat="45.24925" lon="6.1225">
        <ele>2445</ele>
        <time>2021-12-23T11:29:38Z</time>
      </trkpt>
      <trkpt lat="45.24925" lon="6.12249">
        <ele>2445</ele>
        <time>2021-12-23T11:29:39Z</time>
      </trkpt>
      <trkpt lat="45.24925" lon="6.12249">
        <ele>2445</ele>
        <time>2021-12-23T11:29:40Z</time>
      </trkpt>
      <trkpt lat="45.24925" lon="6.12248">
        <ele>2445</ele>
        <time>2021-12-23T11:29:41Z</time>
      </trkpt>
      <trkpt lat="45.24924" lon="6.12248">
        <ele>2446</ele>
        <time>2021-12-23T11:29:42Z</time>
      </trkpt>
      <trkpt lat="45.24924" lon="6.12247">
        <ele>2446</ele>
        <time>2021-12-23T11:29:43Z</time>
      </trkpt>
      <trkpt lat="45.24924" lon="6.12247">
        <ele>2446</ele>
        <time>2021-12-23T11:29:44Z</time>
      </trkpt>
      <trkpt lat="45.24924" lon="6.12246">
        <ele>2446</ele>
        <time>2021-12-23T11:29:45Z</time>
      </trkpt>
      <trkpt lat="45.24924" lon="6.12246">
        <ele>2446</ele>
        <time>2021-12-23T11:29:47Z</time>
      </trkpt>
      <trkpt lat="45.24924" lon="6.12245">
        <ele>2446</ele>
        <time>2021-12-23T11:29:48Z</time>
      </trkpt>
      <trkpt lat="45.24923" lon="6.12245">
        <ele>2446</ele>
        <time>2021-12-23T11:29:49Z</time>
      </trkpt>
      <trkpt lat="45.24923" lon="6.12244">
        <ele>2446</ele>
        <time>2021-12-23T11:29:50Z</time>
      </trkpt>
      <trkpt lat="45.24923" lon="6.12244">
        <ele>2447</ele>
        <time>2021-12-23T11:29:51Z</time>
      </trkpt>
      <trkpt lat="45.24923" lon="6.12243">
        <ele>2447</ele>
        <time>2021-12-23T11:29:52Z</time>
      </trkpt>
      <trkpt lat="45.24923" lon="6.12243">
        <ele>2447</ele>
        <time>2021-12-23T11:29:53Z</time>
      </trkpt>
      <trkpt lat="45.24923" lon="6.12242">
        <ele>2447</ele>
        <time>2021-12-23T11:29:54Z</time>
      </trkpt>
      <trkpt lat="45.24922" lon="6.12242">
        <ele>2447</ele>
        <time>2021-12-23T11:29:55Z</time>
      </trkpt>
      <trkpt lat="45.24922" lon="6.12241">
        <ele>2448</ele>
        <time>2021-12-23T11:29:56Z</time>
      </trkpt>
      <trkpt lat="45.24922" lon="6.12241">
        <ele>2448</ele>
        <time>2021-12-23T11:29:57Z</time>
      </trkpt>
      <trkpt lat="45.24922" lon="6.1224">
        <ele>2448</ele>
        <time>2021-12-23T11:29:58Z</time>
      </trkpt>
      <trkpt lat="45.24921" lon="6.1224">
        <ele>2448</ele>
        <time>2021-12-23T11:29:59Z</time>
      </trkpt>
      <trkpt lat="45.24921" lon="6.12239">
        <ele>2448</ele>
        <time>2021-12-23T11:30:00Z</time>
      </trkpt>
      <trkpt lat="45.24921" lon="6.12239">
        <ele>2448</ele>
        <time>2021-12-23T11:30:01Z</time>
      </trkpt>
      <trkpt lat="45.2492" lon="6.12239">
        <ele>2449</ele>
        <time>2021-12-23T11:30:02Z</time>
      </trkpt>
      <trkpt lat="45.2492" lon="6.12239">
        <ele>2449</ele>
        <time>2021-12-23T11:30:03Z</time>
      </trkpt>
      <trkpt lat="45.24919" lon="6.12238">
        <ele>2449</ele>
        <time>2021-12-23T11:30:04Z</time>
      </trkpt>
      <trkpt lat="45.24919" lon="6.12238">
        <ele>2449</ele>
        <time>2021-12-23T11:30:06Z</time>
      </trkpt>
      <trkpt lat="45.24918" lon="6.12238">
        <ele>2451</ele>
        <time>2021-12-23T11:30:07Z</time>
      </trkpt>
      <trkpt lat="45.24918" lon="6.12238">
        <ele>2451</ele>
        <time>2021-12-23T11:30:08Z</time>
      </trkpt>
      <trkpt lat="45.24918" lon="6.12237">
        <ele>2451</ele>
        <time>2021-12-23T11:30:09Z</time>
      </trkpt>
      <trkpt lat="45.24917" lon="6.12237">
        <ele>2451</ele>
        <time>2021-12-23T11:30:10Z</time>
      </trkpt>
      <trkpt lat="45.24917" lon="6.12237">
        <ele>2452</ele>
        <time>2021-12-23T11:30:11Z</time>
      </trkpt>
      <trkpt lat="45.24916" lon="6.12236">
        <ele>2452</ele>
        <time>2021-12-23T11:30:12Z</time>
      </trkpt>
      <trkpt lat="45.24916" lon="6.12236">
        <ele>2452</ele>
        <time>2021-12-23T11:30:13Z</time>
      </trkpt>
      <trkpt lat="45.24915" lon="6.12236">
        <ele>2452</ele>
        <time>2021-12-23T11:30:14Z</time>
      </trkpt>
      <trkpt lat="45.24915" lon="6.12236">
        <ele>2452</ele>
        <time>2021-12-23T11:30:15Z</time>
      </trkpt>
      <trkpt lat="45.24915" lon="6.12235">
        <ele>2452</ele>
        <time>2021-12-23T11:30:16Z</time>
      </trkpt>
      <trkpt lat="45.24914" lon="6.12235">
        <ele>2452</ele>
        <time>2021-12-23T11:30:17Z</time>
      </trkpt>
      <trkpt lat="45.24914" lon="6.12235">
        <ele>2453</ele>
        <time>2021-12-23T11:30:18Z</time>
      </trkpt>
      <trkpt lat="45.24914" lon="6.12235">
        <ele>2453</ele>
        <time>2021-12-23T11:30:19Z</time>
      </trkpt>
      <trkpt lat="45.24914" lon="6.12235">
        <ele>2454</ele>
        <time>2021-12-23T11:30:20Z</time>
      </trkpt>
      <trkpt lat="45.24914" lon="6.12235">
        <ele>2454</ele>
        <time>2021-12-23T11:30:21Z</time>
      </trkpt>
      <trkpt lat="45.24914" lon="6.12235">
        <ele>2454</ele>
        <time>2021-12-23T11:30:22Z</time>
      </trkpt>
      <trkpt lat="45.24914" lon="6.12235">
        <ele>2454</ele>
        <time>2021-12-23T11:30:23Z</time>
      </trkpt>
      <trkpt lat="45.24914" lon="6.12235">
        <ele>2454</ele>
        <time>2021-12-23T11:30:25Z</time>
      </trkpt>
      <trkpt lat="45.24914" lon="6.12235">
        <ele>2454</ele>
        <time>2021-12-23T11:30:26Z</time>
      </trkpt>
      <trkpt lat="45.24914" lon="6.12235">
        <ele>2454</ele>
        <time>2021-12-23T11:30:27Z</time>
      </trkpt>
      <trkpt lat="45.24914" lon="6.12235">
        <ele>2454</ele>
        <time>2021-12-23T11:30:28Z</time>
      </trkpt>
      <trkpt lat="45.24914" lon="6.12235">
        <ele>2454</ele>
        <time>2021-12-23T11:30:29Z</time>
      </trkpt>
      <trkpt lat="45.24914" lon="6.12235">
        <ele>2454</ele>
        <time>2021-12-23T11:30:30Z</time>
      </trkpt>
      <trkpt lat="45.24914" lon="6.12235">
        <ele>2454</ele>
        <time>2021-12-23T11:30:31Z</time>
      </trkpt>
      <trkpt lat="45.24914" lon="6.12235">
        <ele>2455</ele>
        <time>2021-12-23T11:30:32Z</time>
      </trkpt>
      <trkpt lat="45.24914" lon="6.12235">
        <ele>2455</ele>
        <time>2021-12-23T11:30:33Z</time>
      </trkpt>
      <trkpt lat="45.24914" lon="6.12235">
        <ele>2455</ele>
        <time>2021-12-23T11:30:34Z</time>
      </trkpt>
      <trkpt lat="45.24906" lon="6.12229">
        <ele>2456</ele>
        <time>2021-12-23T11:30:35Z</time>
      </trkpt>
      <trkpt lat="45.24906" lon="6.12229">
        <ele>2456</ele>
        <time>2021-12-23T11:30:37Z</time>
      </trkpt>
      <trkpt lat="45.24905" lon="6.12228">
        <ele>2456</ele>
        <time>2021-12-23T11:30:38Z</time>
      </trkpt>
      <trkpt lat="45.24905" lon="6.12227">
        <ele>2456</ele>
        <time>2021-12-23T11:30:39Z</time>
      </trkpt>
      <trkpt lat="45.24904" lon="6.12225">
        <ele>2456</ele>
        <time>2021-12-23T11:30:40Z</time>
      </trkpt>
      <trkpt lat="45.24903" lon="6.12224">
        <ele>2457</ele>
        <time>2021-12-23T11:30:41Z</time>
      </trkpt>
      <trkpt lat="45.24903" lon="6.12223">
        <ele>2457</ele>
        <time>2021-12-23T11:30:42Z</time>
      </trkpt>
      <trkpt lat="45.24902" lon="6.12222">
        <ele>2457</ele>
        <time>2021-12-23T11:30:44Z</time>
      </trkpt>
      <trkpt lat="45.24901" lon="6.12221">
        <ele>2457</ele>
        <time>2021-12-23T11:30:45Z</time>
      </trkpt>
      <trkpt lat="45.24901" lon="6.1222">
        <ele>2457</ele>
        <time>2021-12-23T11:30:46Z</time>
      </trkpt>
      <trkpt lat="45.249" lon="6.12218">
        <ele>2457</ele>
        <time>2021-12-23T11:30:47Z</time>
      </trkpt>
      <trkpt lat="45.24899" lon="6.12218">
        <ele>2457</ele>
        <time>2021-12-23T11:30:48Z</time>
      </trkpt>
      <trkpt lat="45.24899" lon="6.12217">
        <ele>2457</ele>
        <time>2021-12-23T11:30:49Z</time>
      </trkpt>
      <trkpt lat="45.24898" lon="6.12217">
        <ele>2457</ele>
        <time>2021-12-23T11:30:50Z</time>
      </trkpt>
      <trkpt lat="45.24898" lon="6.12216">
        <ele>2458</ele>
        <time>2021-12-23T11:30:51Z</time>
      </trkpt>
      <trkpt lat="45.24897" lon="6.12216">
        <ele>2458</ele>
        <time>2021-12-23T11:30:52Z</time>
      </trkpt>
      <trkpt lat="45.24896" lon="6.12215">
        <ele>2458</ele>
        <time>2021-12-23T11:30:53Z</time>
      </trkpt>
      <trkpt lat="45.24896" lon="6.12215">
        <ele>2459</ele>
        <time>2021-12-23T11:30:54Z</time>
      </trkpt>
      <trkpt lat="45.24895" lon="6.12214">
        <ele>2459</ele>
        <time>2021-12-23T11:30:55Z</time>
      </trkpt>
      <trkpt lat="45.24895" lon="6.12214">
        <ele>2459</ele>
        <time>2021-12-23T11:30:56Z</time>
      </trkpt>
      <trkpt lat="45.24894" lon="6.12213">
        <ele>2459</ele>
        <time>2021-12-23T11:30:57Z</time>
      </trkpt>
      <trkpt lat="45.24893" lon="6.12213">
        <ele>2459</ele>
        <time>2021-12-23T11:30:58Z</time>
      </trkpt>
      <trkpt lat="45.24893" lon="6.12212">
        <ele>2460</ele>
        <time>2021-12-23T11:30:59Z</time>
      </trkpt>
      <trkpt lat="45.24892" lon="6.12212">
        <ele>2460</ele>
        <time>2021-12-23T11:31:00Z</time>
      </trkpt>
      <trkpt lat="45.24892" lon="6.12211">
        <ele>2460</ele>
        <time>2021-12-23T11:31:01Z</time>
      </trkpt>
      <trkpt lat="45.24891" lon="6.12211">
        <ele>2460</ele>
        <time>2021-12-23T11:31:03Z</time>
      </trkpt>
      <trkpt lat="45.2489" lon="6.1221">
        <ele>2460</ele>
        <time>2021-12-23T11:31:04Z</time>
      </trkpt>
      <trkpt lat="45.24889" lon="6.12209">
        <ele>2460</ele>
        <time>2021-12-23T11:31:05Z</time>
      </trkpt>
      <trkpt lat="45.24889" lon="6.12209">
        <ele>2460</ele>
        <time>2021-12-23T11:31:06Z</time>
      </trkpt>
      <trkpt lat="45.24888" lon="6.12208">
        <ele>2460</ele>
        <time>2021-12-23T11:31:07Z</time>
      </trkpt>
      <trkpt lat="45.24887" lon="6.12208">
        <ele>2460</ele>
        <time>2021-12-23T11:31:08Z</time>
      </trkpt>
      <trkpt lat="45.24887" lon="6.12207">
        <ele>2460</ele>
        <time>2021-12-23T11:31:09Z</time>
      </trkpt>
      <trkpt lat="45.24886" lon="6.12207">
        <ele>2460</ele>
        <time>2021-12-23T11:31:10Z</time>
      </trkpt>
      <trkpt lat="45.24885" lon="6.12206">
        <ele>2461</ele>
        <time>2021-12-23T11:31:11Z</time>
      </trkpt>
      <trkpt lat="45.24885" lon="6.12206">
        <ele>2461</ele>
        <time>2021-12-23T11:31:12Z</time>
      </trkpt>
      <trkpt lat="45.24884" lon="6.12205">
        <ele>2461</ele>
        <time>2021-12-23T11:31:13Z</time>
      </trkpt>
      <trkpt lat="45.24883" lon="6.12205">
        <ele>2461</ele>
        <time>2021-12-23T11:31:14Z</time>
      </trkpt>
      <trkpt lat="45.24883" lon="6.12204">
        <ele>2461</ele>
        <time>2021-12-23T11:31:15Z</time>
      </trkpt>
      <trkpt lat="45.24882" lon="6.12203">
        <ele>2461</ele>
        <time>2021-12-23T11:31:16Z</time>
      </trkpt>
      <trkpt lat="45.24882" lon="6.12202">
        <ele>2461</ele>
        <time>2021-12-23T11:31:17Z</time>
      </trkpt>
      <trkpt lat="45.24881" lon="6.12201">
        <ele>2461</ele>
        <time>2021-12-23T11:31:18Z</time>
      </trkpt>
      <trkpt lat="45.2488" lon="6.122">
        <ele>2462</ele>
        <time>2021-12-23T11:31:19Z</time>
      </trkpt>
      <trkpt lat="45.2488" lon="6.12199">
        <ele>2462</ele>
        <time>2021-12-23T11:31:20Z</time>
      </trkpt>
      <trkpt lat="45.24879" lon="6.12198">
        <ele>2462</ele>
        <time>2021-12-23T11:31:22Z</time>
      </trkpt>
      <trkpt lat="45.24879" lon="6.12197">
        <ele>2462</ele>
        <time>2021-12-23T11:31:23Z</time>
      </trkpt>
      <trkpt lat="45.24878" lon="6.12196">
        <ele>2462</ele>
        <time>2021-12-23T11:31:24Z</time>
      </trkpt>
      <trkpt lat="45.24878" lon="6.12195">
        <ele>2462</ele>
        <time>2021-12-23T11:31:25Z</time>
      </trkpt>
      <trkpt lat="45.24878" lon="6.12195">
        <ele>2463</ele>
        <time>2021-12-23T11:31:26Z</time>
      </trkpt>
      <trkpt lat="45.24878" lon="6.12195">
        <ele>2463</ele>
        <time>2021-12-23T11:31:27Z</time>
      </trkpt>
      <trkpt lat="45.24878" lon="6.12195">
        <ele>2463</ele>
        <time>2021-12-23T11:31:28Z</time>
      </trkpt>
      <trkpt lat="45.24878" lon="6.12195">
        <ele>2463</ele>
        <time>2021-12-23T11:31:29Z</time>
      </trkpt>
      <trkpt lat="45.24878" lon="6.12195">
        <ele>2463</ele>
        <time>2021-12-23T11:31:30Z</time>
      </trkpt>
      <trkpt lat="45.24878" lon="6.12195">
        <ele>2463</ele>
        <time>2021-12-23T11:31:31Z</time>
      </trkpt>
      <trkpt lat="45.24878" lon="6.12195">
        <ele>2463</ele>
        <time>2021-12-23T11:31:32Z</time>
      </trkpt>
      <trkpt lat="45.24878" lon="6.12195">
        <ele>2464</ele>
        <time>2021-12-23T11:31:33Z</time>
      </trkpt>
      <trkpt lat="45.24878" lon="6.12195">
        <ele>2464</ele>
        <time>2021-12-23T11:31:34Z</time>
      </trkpt>
      <trkpt lat="45.24878" lon="6.12195">
        <ele>2464</ele>
        <time>2021-12-23T11:31:35Z</time>
      </trkpt>
      <trkpt lat="45.24878" lon="6.12195">
        <ele>2464</ele>
        <time>2021-12-23T11:31:36Z</time>
      </trkpt>
      <trkpt lat="45.24878" lon="6.12195">
        <ele>2464</ele>
        <time>2021-12-23T11:31:37Z</time>
      </trkpt>
      <trkpt lat="45.24868" lon="6.12189">
        <ele>2464</ele>
        <time>2021-12-23T11:31:38Z</time>
      </trkpt>
      <trkpt lat="45.24868" lon="6.12189">
        <ele>2465</ele>
        <time>2021-12-23T11:31:40Z</time>
      </trkpt>
      <trkpt lat="45.24868" lon="6.12189">
        <ele>2465</ele>
        <time>2021-12-23T11:31:41Z</time>
      </trkpt>
      <trkpt lat="45.24867" lon="6.12188">
        <ele>2465</ele>
        <time>2021-12-23T11:31:42Z</time>
      </trkpt>
      <trkpt lat="45.24866" lon="6.12188">
        <ele>2465</ele>
        <time>2021-12-23T11:31:43Z</time>
      </trkpt>
      <trkpt lat="45.24866" lon="6.12187">
        <ele>2465</ele>
        <time>2021-12-23T11:31:44Z</time>
      </trkpt>
      <trkpt lat="45.24865" lon="6.12187">
        <ele>2465</ele>
        <time>2021-12-23T11:31:45Z</time>
      </trkpt>
      <trkpt lat="45.24865" lon="6.12187">
        <ele>2466</ele>
        <time>2021-12-23T11:31:46Z</time>
      </trkpt>
      <trkpt lat="45.24864" lon="6.12186">
        <ele>2466</ele>
        <time>2021-12-23T11:31:47Z</time>
      </trkpt>
      <trkpt lat="45.24864" lon="6.12186">
        <ele>2466</ele>
        <time>2021-12-23T11:31:48Z</time>
      </trkpt>
      <trkpt lat="45.24863" lon="6.12185">
        <ele>2466</ele>
        <time>2021-12-23T11:31:49Z</time>
      </trkpt>
      <trkpt lat="45.24863" lon="6.12185">
        <ele>2466</ele>
        <time>2021-12-23T11:31:50Z</time>
      </trkpt>
      <trkpt lat="45.24862" lon="6.12184">
        <ele>2466</ele>
        <time>2021-12-23T11:31:51Z</time>
      </trkpt>
      <trkpt lat="45.24862" lon="6.12184">
        <ele>2466</ele>
        <time>2021-12-23T11:31:52Z</time>
      </trkpt>
      <trkpt lat="45.24861" lon="6.12184">
        <ele>2467</ele>
        <time>2021-12-23T11:31:53Z</time>
      </trkpt>
      <trkpt lat="45.24861" lon="6.12183">
        <ele>2467</ele>
        <time>2021-12-23T11:31:54Z</time>
      </trkpt>
      <trkpt lat="45.2486" lon="6.12183">
        <ele>2467</ele>
        <time>2021-12-23T11:31:55Z</time>
      </trkpt>
      <trkpt lat="45.24859" lon="6.12182">
        <ele>2467</ele>
        <time>2021-12-23T11:31:56Z</time>
      </trkpt>
      <trkpt lat="45.24859" lon="6.12182">
        <ele>2467</ele>
        <time>2021-12-23T11:31:57Z</time>
      </trkpt>
      <trkpt lat="45.24858" lon="6.12181">
        <ele>2467</ele>
        <time>2021-12-23T11:31:58Z</time>
      </trkpt>
      <trkpt lat="45.24858" lon="6.12181">
        <ele>2467</ele>
        <time>2021-12-23T11:32:00Z</time>
      </trkpt>
      <trkpt lat="45.24858" lon="6.12181">
        <ele>2467</ele>
        <time>2021-12-23T11:32:01Z</time>
      </trkpt>
      <trkpt lat="45.24858" lon="6.12181">
        <ele>2467</ele>
        <time>2021-12-23T11:32:02Z</time>
      </trkpt>
      <trkpt lat="45.24858" lon="6.12181">
        <ele>2467</ele>
        <time>2021-12-23T11:32:03Z</time>
      </trkpt>
      <trkpt lat="45.24858" lon="6.12181">
        <ele>2468</ele>
        <time>2021-12-23T11:32:04Z</time>
      </trkpt>
      <trkpt lat="45.24858" lon="6.12181">
        <ele>2468</ele>
        <time>2021-12-23T11:32:05Z</time>
      </trkpt>
      <trkpt lat="45.24858" lon="6.12181">
        <ele>2469</ele>
        <time>2021-12-23T11:32:06Z</time>
      </trkpt>
      <trkpt lat="45.24858" lon="6.12181">
        <ele>2469</ele>
        <time>2021-12-23T11:32:07Z</time>
      </trkpt>
      <trkpt lat="45.24858" lon="6.12181">
        <ele>2469</ele>
        <time>2021-12-23T11:32:08Z</time>
      </trkpt>
      <trkpt lat="45.24858" lon="6.12181">
        <ele>2469</ele>
        <time>2021-12-23T11:32:09Z</time>
      </trkpt>
      <trkpt lat="45.24858" lon="6.12181">
        <ele>2469</ele>
        <time>2021-12-23T11:32:10Z</time>
      </trkpt>
      <trkpt lat="45.24858" lon="6.12181">
        <ele>2469</ele>
        <time>2021-12-23T11:32:11Z</time>
      </trkpt>
      <trkpt lat="45.24858" lon="6.12181">
        <ele>2469</ele>
        <time>2021-12-23T11:32:12Z</time>
      </trkpt>
      <trkpt lat="45.24858" lon="6.12181">
        <ele>2469</ele>
        <time>2021-12-23T11:32:13Z</time>
      </trkpt>
      <trkpt lat="45.24858" lon="6.12181">
        <ele>2469</ele>
        <time>2021-12-23T11:32:14Z</time>
      </trkpt>
      <trkpt lat="45.24858" lon="6.12181">
        <ele>2470</ele>
        <time>2021-12-23T11:32:15Z</time>
      </trkpt>
      <trkpt lat="45.24858" lon="6.12181">
        <ele>2470</ele>
        <time>2021-12-23T11:32:16Z</time>
      </trkpt>
      <trkpt lat="45.24858" lon="6.12181">
        <ele>2470</ele>
        <time>2021-12-23T11:32:17Z</time>
      </trkpt>
      <trkpt lat="45.24854" lon="6.1217">
        <ele>2471</ele>
        <time>2021-12-23T11:32:19Z</time>
      </trkpt>
      <trkpt lat="45.24854" lon="6.1217">
        <ele>2471</ele>
        <time>2021-12-23T11:32:20Z</time>
      </trkpt>
      <trkpt lat="45.24854" lon="6.12169">
        <ele>2471</ele>
        <time>2021-12-23T11:32:21Z</time>
      </trkpt>
      <trkpt lat="45.24853" lon="6.12168">
        <ele>2471</ele>
        <time>2021-12-23T11:32:22Z</time>
      </trkpt>
      <trkpt lat="45.24853" lon="6.12168">
        <ele>2472</ele>
        <time>2021-12-23T11:32:23Z</time>
      </trkpt>
      <trkpt lat="45.24852" lon="6.12167">
        <ele>2472</ele>
        <time>2021-12-23T11:32:24Z</time>
      </trkpt>
      <trkpt lat="45.24852" lon="6.12166">
        <ele>2472</ele>
        <time>2021-12-23T11:32:25Z</time>
      </trkpt>
      <trkpt lat="45.24851" lon="6.12166">
        <ele>2472</ele>
        <time>2021-12-23T11:32:26Z</time>
      </trkpt>
      <trkpt lat="45.24851" lon="6.12165">
        <ele>2472</ele>
        <time>2021-12-23T11:32:27Z</time>
      </trkpt>
      <trkpt lat="45.2485" lon="6.12164">
        <ele>2472</ele>
        <time>2021-12-23T11:32:28Z</time>
      </trkpt>
      <trkpt lat="45.2485" lon="6.12164">
        <ele>2472</ele>
        <time>2021-12-23T11:32:29Z</time>
      </trkpt>
      <trkpt lat="45.24849" lon="6.12163">
        <ele>2472</ele>
        <time>2021-12-23T11:32:30Z</time>
      </trkpt>
      <trkpt lat="45.24849" lon="6.12163">
        <ele>2472</ele>
        <time>2021-12-23T11:32:31Z</time>
      </trkpt>
      <trkpt lat="45.24848" lon="6.12162">
        <ele>2472</ele>
        <time>2021-12-23T11:32:32Z</time>
      </trkpt>
      <trkpt lat="45.24848" lon="6.12161">
        <ele>2473</ele>
        <time>2021-12-23T11:32:33Z</time>
      </trkpt>
      <trkpt lat="45.24847" lon="6.12161">
        <ele>2473</ele>
        <time>2021-12-23T11:32:34Z</time>
      </trkpt>
      <trkpt lat="45.24846" lon="6.1216">
        <ele>2473</ele>
        <time>2021-12-23T11:32:35Z</time>
      </trkpt>
      <trkpt lat="45.24845" lon="6.1216">
        <ele>2473</ele>
        <time>2021-12-23T11:32:36Z</time>
      </trkpt>
      <trkpt lat="45.24845" lon="6.12159">
        <ele>2474</ele>
        <time>2021-12-23T11:32:38Z</time>
      </trkpt>
      <trkpt lat="45.24844" lon="6.12159">
        <ele>2474</ele>
        <time>2021-12-23T11:32:39Z</time>
      </trkpt>
      <trkpt lat="45.24843" lon="6.12159">
        <ele>2474</ele>
        <time>2021-12-23T11:32:40Z</time>
      </trkpt>
      <trkpt lat="45.24842" lon="6.12158">
        <ele>2474</ele>
        <time>2021-12-23T11:32:41Z</time>
      </trkpt>
      <trkpt lat="45.24841" lon="6.12158">
        <ele>2474</ele>
        <time>2021-12-23T11:32:42Z</time>
      </trkpt>
      <trkpt lat="45.2484" lon="6.12157">
        <ele>2475</ele>
        <time>2021-12-23T11:32:43Z</time>
      </trkpt>
      <trkpt lat="45.2484" lon="6.12157">
        <ele>2475</ele>
        <time>2021-12-23T11:32:44Z</time>
      </trkpt>
      <trkpt lat="45.24839" lon="6.12156">
        <ele>2475</ele>
        <time>2021-12-23T11:32:45Z</time>
      </trkpt>
      <trkpt lat="45.24839" lon="6.12156">
        <ele>2475</ele>
        <time>2021-12-23T11:32:46Z</time>
      </trkpt>
      <trkpt lat="45.24839" lon="6.12156">
        <ele>2475</ele>
        <time>2021-12-23T11:32:47Z</time>
      </trkpt>
      <trkpt lat="45.24839" lon="6.12156">
        <ele>2475</ele>
        <time>2021-12-23T11:32:48Z</time>
      </trkpt>
      <trkpt lat="45.24839" lon="6.12156">
        <ele>2475</ele>
        <time>2021-12-23T11:32:49Z</time>
      </trkpt>
      <trkpt lat="45.24839" lon="6.12156">
        <ele>2475</ele>
        <time>2021-12-23T11:32:50Z</time>
      </trkpt>
      <trkpt lat="45.24839" lon="6.12156">
        <ele>2475</ele>
        <time>2021-12-23T11:32:51Z</time>
      </trkpt>
      <trkpt lat="45.24839" lon="6.12156">
        <ele>2475</ele>
        <time>2021-12-23T11:32:52Z</time>
      </trkpt>
      <trkpt lat="45.24839" lon="6.12156">
        <ele>2475</ele>
        <time>2021-12-23T11:32:53Z</time>
      </trkpt>
      <trkpt lat="45.24839" lon="6.12156">
        <ele>2475</ele>
        <time>2021-12-23T11:32:54Z</time>
      </trkpt>
      <trkpt lat="45.24839" lon="6.12156">
        <ele>2475</ele>
        <time>2021-12-23T11:32:55Z</time>
      </trkpt>
      <trkpt lat="45.24839" lon="6.12156">
        <ele>2475</ele>
        <time>2021-12-23T11:32:57Z</time>
      </trkpt>
      <trkpt lat="45.24839" lon="6.12156">
        <ele>2475</ele>
        <time>2021-12-23T11:32:58Z</time>
      </trkpt>
      <trkpt lat="45.24839" lon="6.12156">
        <ele>2475</ele>
        <time>2021-12-23T11:32:59Z</time>
      </trkpt>
      <trkpt lat="45.24839" lon="6.12156">
        <ele>2475</ele>
        <time>2021-12-23T11:33:00Z</time>
      </trkpt>
      <trkpt lat="45.24839" lon="6.12156">
        <ele>2475</ele>
        <time>2021-12-23T11:33:01Z</time>
      </trkpt>
      <trkpt lat="45.24839" lon="6.12156">
        <ele>2475</ele>
        <time>2021-12-23T11:33:02Z</time>
      </trkpt>
      <trkpt lat="45.24839" lon="6.12156">
        <ele>2475</ele>
        <time>2021-12-23T11:33:03Z</time>
      </trkpt>
      <trkpt lat="45.24839" lon="6.12156">
        <ele>2475</ele>
        <time>2021-12-23T11:33:04Z</time>
      </trkpt>
      <trkpt lat="45.24839" lon="6.12156">
        <ele>2475</ele>
        <time>2021-12-23T11:33:05Z</time>
      </trkpt>
      <trkpt lat="45.2483" lon="6.12151">
        <ele>2475</ele>
        <time>2021-12-23T11:33:06Z</time>
      </trkpt>
      <trkpt lat="45.2483" lon="6.12151">
        <ele>2476</ele>
        <time>2021-12-23T11:33:08Z</time>
      </trkpt>
      <trkpt lat="45.2483" lon="6.12151">
        <ele>2476</ele>
        <time>2021-12-23T11:33:09Z</time>
      </trkpt>
      <trkpt lat="45.2483" lon="6.12151">
        <ele>2476</ele>
        <time>2021-12-23T11:33:10Z</time>
      </trkpt>
      <trkpt lat="45.2483" lon="6.12151">
        <ele>2476</ele>
        <time>2021-12-23T11:33:11Z</time>
      </trkpt>
      <trkpt lat="45.2483" lon="6.12151">
        <ele>2476</ele>
        <time>2021-12-23T11:33:12Z</time>
      </trkpt>
      <trkpt lat="45.2483" lon="6.12151">
        <ele>2476</ele>
        <time>2021-12-23T11:33:13Z</time>
      </trkpt>
      <trkpt lat="45.2483" lon="6.12151">
        <ele>2477</ele>
        <time>2021-12-23T11:33:14Z</time>
      </trkpt>
      <trkpt lat="45.2483" lon="6.12151">
        <ele>2478</ele>
        <time>2021-12-23T11:33:16Z</time>
      </trkpt>
      <trkpt lat="45.2483" lon="6.12151">
        <ele>2478</ele>
        <time>2021-12-23T11:33:17Z</time>
      </trkpt>
      <trkpt lat="45.2483" lon="6.12151">
        <ele>2478</ele>
        <time>2021-12-23T11:33:18Z</time>
      </trkpt>
      <trkpt lat="45.24823" lon="6.12144">
        <ele>2478</ele>
        <time>2021-12-23T11:33:20Z</time>
      </trkpt>
      <trkpt lat="45.24822" lon="6.12144">
        <ele>2478</ele>
        <time>2021-12-23T11:33:21Z</time>
      </trkpt>
      <trkpt lat="45.24821" lon="6.12143">
        <ele>2478</ele>
        <time>2021-12-23T11:33:22Z</time>
      </trkpt>
      <trkpt lat="45.24821" lon="6.12142">
        <ele>2478</ele>
        <time>2021-12-23T11:33:23Z</time>
      </trkpt>
      <trkpt lat="45.2482" lon="6.12141">
        <ele>2478</ele>
        <time>2021-12-23T11:33:24Z</time>
      </trkpt>
      <trkpt lat="45.2482" lon="6.12141">
        <ele>2480</ele>
        <time>2021-12-23T11:33:25Z</time>
      </trkpt>
      <trkpt lat="45.24819" lon="6.1214">
        <ele>2480</ele>
        <time>2021-12-23T11:33:26Z</time>
      </trkpt>
      <trkpt lat="45.24819" lon="6.12139">
        <ele>2480</ele>
        <time>2021-12-23T11:33:27Z</time>
      </trkpt>
      <trkpt lat="45.24818" lon="6.12138">
        <ele>2479</ele>
        <time>2021-12-23T11:33:28Z</time>
      </trkpt>
      <trkpt lat="45.24817" lon="6.12138">
        <ele>2479</ele>
        <time>2021-12-23T11:33:29Z</time>
      </trkpt>
      <trkpt lat="45.24817" lon="6.12137">
        <ele>2481</ele>
        <time>2021-12-23T11:33:30Z</time>
      </trkpt>
      <trkpt lat="45.24816" lon="6.12136">
        <ele>2481</ele>
        <time>2021-12-23T11:33:31Z</time>
      </trkpt>
      <trkpt lat="45.24816" lon="6.12135">
        <ele>2481</ele>
        <time>2021-12-23T11:33:32Z</time>
      </trkpt>
      <trkpt lat="45.24815" lon="6.12135">
        <ele>2481</ele>
        <time>2021-12-23T11:33:33Z</time>
      </trkpt>
      <trkpt lat="45.24814" lon="6.12135">
        <ele>2482</ele>
        <time>2021-12-23T11:33:35Z</time>
      </trkpt>
      <trkpt lat="45.24813" lon="6.12135">
        <ele>2482</ele>
        <time>2021-12-23T11:33:36Z</time>
      </trkpt>
      <trkpt lat="45.24813" lon="6.12135">
        <ele>2482</ele>
        <time>2021-12-23T11:33:37Z</time>
      </trkpt>
      <trkpt lat="45.24812" lon="6.12135">
        <ele>2482</ele>
        <time>2021-12-23T11:33:38Z</time>
      </trkpt>
      <trkpt lat="45.24811" lon="6.12135">
        <ele>2482</ele>
        <time>2021-12-23T11:33:39Z</time>
      </trkpt>
      <trkpt lat="45.2481" lon="6.12135">
        <ele>2482</ele>
        <time>2021-12-23T11:33:40Z</time>
      </trkpt>
      <trkpt lat="45.2481" lon="6.12135">
        <ele>2482</ele>
        <time>2021-12-23T11:33:41Z</time>
      </trkpt>
      <trkpt lat="45.24809" lon="6.12135">
        <ele>2482</ele>
        <time>2021-12-23T11:33:42Z</time>
      </trkpt>
      <trkpt lat="45.24808" lon="6.12134">
        <ele>2482</ele>
        <time>2021-12-23T11:33:43Z</time>
      </trkpt>
      <trkpt lat="45.24807" lon="6.12134">
        <ele>2483</ele>
        <time>2021-12-23T11:33:44Z</time>
      </trkpt>
      <trkpt lat="45.24807" lon="6.12134">
        <ele>2483</ele>
        <time>2021-12-23T11:33:45Z</time>
      </trkpt>
      <trkpt lat="45.24806" lon="6.12134">
        <ele>2483</ele>
        <time>2021-12-23T11:33:46Z</time>
      </trkpt>
      <trkpt lat="45.24805" lon="6.12134">
        <ele>2483</ele>
        <time>2021-12-23T11:33:47Z</time>
      </trkpt>
      <trkpt lat="45.24805" lon="6.12133">
        <ele>2483</ele>
        <time>2021-12-23T11:33:48Z</time>
      </trkpt>
      <trkpt lat="45.24804" lon="6.12132">
        <ele>2483</ele>
        <time>2021-12-23T11:33:49Z</time>
      </trkpt>
      <trkpt lat="45.24804" lon="6.12132">
        <ele>2483</ele>
        <time>2021-12-23T11:33:50Z</time>
      </trkpt>
      <trkpt lat="45.24803" lon="6.12131">
        <ele>2483</ele>
        <time>2021-12-23T11:33:51Z</time>
      </trkpt>
      <trkpt lat="45.24803" lon="6.12131">
        <ele>2483</ele>
        <time>2021-12-23T11:33:52Z</time>
      </trkpt>
      <trkpt lat="45.24802" lon="6.1213">
        <ele>2484</ele>
        <time>2021-12-23T11:33:54Z</time>
      </trkpt>
      <trkpt lat="45.24801" lon="6.12129">
        <ele>2484</ele>
        <time>2021-12-23T11:33:55Z</time>
      </trkpt>
      <trkpt lat="45.24801" lon="6.12129">
        <ele>2485</ele>
        <time>2021-12-23T11:33:56Z</time>
      </trkpt>
      <trkpt lat="45.248" lon="6.12128">
        <ele>2485</ele>
        <time>2021-12-23T11:33:57Z</time>
      </trkpt>
      <trkpt lat="45.248" lon="6.12127">
        <ele>2485</ele>
        <time>2021-12-23T11:33:58Z</time>
      </trkpt>
      <trkpt lat="45.24799" lon="6.12127">
        <ele>2485</ele>
        <time>2021-12-23T11:33:59Z</time>
      </trkpt>
      <trkpt lat="45.24799" lon="6.12126">
        <ele>2485</ele>
        <time>2021-12-23T11:34:00Z</time>
      </trkpt>
      <trkpt lat="45.24799" lon="6.12126">
        <ele>2485</ele>
        <time>2021-12-23T11:34:01Z</time>
      </trkpt>
      <trkpt lat="45.24799" lon="6.12126">
        <ele>2485</ele>
        <time>2021-12-23T11:34:02Z</time>
      </trkpt>
      <trkpt lat="45.24799" lon="6.12126">
        <ele>2485</ele>
        <time>2021-12-23T11:34:03Z</time>
      </trkpt>
      <trkpt lat="45.24799" lon="6.12126">
        <ele>2486</ele>
        <time>2021-12-23T11:34:04Z</time>
      </trkpt>
      <trkpt lat="45.24799" lon="6.12126">
        <ele>2486</ele>
        <time>2021-12-23T11:34:05Z</time>
      </trkpt>
      <trkpt lat="45.24799" lon="6.12126">
        <ele>2486</ele>
        <time>2021-12-23T11:34:06Z</time>
      </trkpt>
      <trkpt lat="45.24799" lon="6.12126">
        <ele>2486</ele>
        <time>2021-12-23T11:34:07Z</time>
      </trkpt>
      <trkpt lat="45.24799" lon="6.12126">
        <ele>2486</ele>
        <time>2021-12-23T11:34:08Z</time>
      </trkpt>
      <trkpt lat="45.24799" lon="6.12126">
        <ele>2486</ele>
        <time>2021-12-23T11:34:09Z</time>
      </trkpt>
      <trkpt lat="45.24799" lon="6.12126">
        <ele>2486</ele>
        <time>2021-12-23T11:34:10Z</time>
      </trkpt>
      <trkpt lat="45.24799" lon="6.12126">
        <ele>2486</ele>
        <time>2021-12-23T11:34:11Z</time>
      </trkpt>
      <trkpt lat="45.24799" lon="6.12126">
        <ele>2487</ele>
        <time>2021-12-23T11:34:13Z</time>
      </trkpt>
      <trkpt lat="45.24799" lon="6.12126">
        <ele>2487</ele>
        <time>2021-12-23T11:34:14Z</time>
      </trkpt>
      <trkpt lat="45.24793" lon="6.12111">
        <ele>2487</ele>
        <time>2021-12-23T11:34:15Z</time>
      </trkpt>
      <trkpt lat="45.24793" lon="6.12111">
        <ele>2486</ele>
        <time>2021-12-23T11:34:17Z</time>
      </trkpt>
      <trkpt lat="45.24792" lon="6.12111">
        <ele>2487</ele>
        <time>2021-12-23T11:34:18Z</time>
      </trkpt>
      <trkpt lat="45.24791" lon="6.12111">
        <ele>2487</ele>
        <time>2021-12-23T11:34:19Z</time>
      </trkpt>
      <trkpt lat="45.2479" lon="6.1211">
        <ele>2488</ele>
        <time>2021-12-23T11:34:20Z</time>
      </trkpt>
      <trkpt lat="45.24789" lon="6.1211">
        <ele>2488</ele>
        <time>2021-12-23T11:34:21Z</time>
      </trkpt>
      <trkpt lat="45.24788" lon="6.12109">
        <ele>2488</ele>
        <time>2021-12-23T11:34:22Z</time>
      </trkpt>
      <trkpt lat="45.24787" lon="6.12109">
        <ele>2488</ele>
        <time>2021-12-23T11:34:23Z</time>
      </trkpt>
      <trkpt lat="45.24786" lon="6.12109">
        <ele>2488</ele>
        <time>2021-12-23T11:34:24Z</time>
      </trkpt>
      <trkpt lat="45.24785" lon="6.12108">
        <ele>2489</ele>
        <time>2021-12-23T11:34:25Z</time>
      </trkpt>
      <trkpt lat="45.24784" lon="6.12108">
        <ele>2489</ele>
        <time>2021-12-23T11:34:26Z</time>
      </trkpt>
      <trkpt lat="45.24783" lon="6.12107">
        <ele>2489</ele>
        <time>2021-12-23T11:34:27Z</time>
      </trkpt>
      <trkpt lat="45.24783" lon="6.12107">
        <ele>2489</ele>
        <time>2021-12-23T11:34:28Z</time>
      </trkpt>
      <trkpt lat="45.24782" lon="6.12106">
        <ele>2489</ele>
        <time>2021-12-23T11:34:29Z</time>
      </trkpt>
      <trkpt lat="45.24782" lon="6.12105">
        <ele>2489</ele>
        <time>2021-12-23T11:34:30Z</time>
      </trkpt>
      <trkpt lat="45.24781" lon="6.12105">
        <ele>2489</ele>
        <time>2021-12-23T11:34:32Z</time>
      </trkpt>
      <trkpt lat="45.24781" lon="6.12104">
        <ele>2489</ele>
        <time>2021-12-23T11:34:33Z</time>
      </trkpt>
      <trkpt lat="45.24781" lon="6.12103">
        <ele>2489</ele>
        <time>2021-12-23T11:34:34Z</time>
      </trkpt>
      <trkpt lat="45.2478" lon="6.12103">
        <ele>2488</ele>
        <time>2021-12-23T11:34:35Z</time>
      </trkpt>
      <trkpt lat="45.2478" lon="6.12102">
        <ele>2488</ele>
        <time>2021-12-23T11:34:36Z</time>
      </trkpt>
      <trkpt lat="45.24779" lon="6.12101">
        <ele>2489</ele>
        <time>2021-12-23T11:34:37Z</time>
      </trkpt>
      <trkpt lat="45.24779" lon="6.12101">
        <ele>2490</ele>
        <time>2021-12-23T11:34:38Z</time>
      </trkpt>
      <trkpt lat="45.24778" lon="6.121">
        <ele>2490</ele>
        <time>2021-12-23T11:34:39Z</time>
      </trkpt>
      <trkpt lat="45.24778" lon="6.12099">
        <ele>2490</ele>
        <time>2021-12-23T11:34:40Z</time>
      </trkpt>
      <trkpt lat="45.24778" lon="6.12099">
        <ele>2490</ele>
        <time>2021-12-23T11:34:41Z</time>
      </trkpt>
      <trkpt lat="45.24777" lon="6.12098">
        <ele>2490</ele>
        <time>2021-12-23T11:34:42Z</time>
      </trkpt>
      <trkpt lat="45.24777" lon="6.12097">
        <ele>2490</ele>
        <time>2021-12-23T11:34:43Z</time>
      </trkpt>
      <trkpt lat="45.24776" lon="6.12097">
        <ele>2490</ele>
        <time>2021-12-23T11:34:44Z</time>
      </trkpt>
      <trkpt lat="45.24776" lon="6.12096">
        <ele>2490</ele>
        <time>2021-12-23T11:34:45Z</time>
      </trkpt>
      <trkpt lat="45.24776" lon="6.12095">
        <ele>2490</ele>
        <time>2021-12-23T11:34:46Z</time>
      </trkpt>
      <trkpt lat="45.24776" lon="6.12094">
        <ele>2490</ele>
        <time>2021-12-23T11:34:47Z</time>
      </trkpt>
      <trkpt lat="45.24776" lon="6.12093">
        <ele>2491</ele>
        <time>2021-12-23T11:34:48Z</time>
      </trkpt>
      <trkpt lat="45.24776" lon="6.12092">
        <ele>2491</ele>
        <time>2021-12-23T11:34:49Z</time>
      </trkpt>
      <trkpt lat="45.24776" lon="6.12091">
        <ele>2491</ele>
        <time>2021-12-23T11:34:51Z</time>
      </trkpt>
      <trkpt lat="45.24776" lon="6.1209">
        <ele>2491</ele>
        <time>2021-12-23T11:34:52Z</time>
      </trkpt>
      <trkpt lat="45.24776" lon="6.12089">
        <ele>2491</ele>
        <time>2021-12-23T11:34:53Z</time>
      </trkpt>
      <trkpt lat="45.24776" lon="6.12088">
        <ele>2492</ele>
        <time>2021-12-23T11:34:54Z</time>
      </trkpt>
      <trkpt lat="45.24776" lon="6.12087">
        <ele>2492</ele>
        <time>2021-12-23T11:34:55Z</time>
      </trkpt>
      <trkpt lat="45.24776" lon="6.12086">
        <ele>2492</ele>
        <time>2021-12-23T11:34:56Z</time>
      </trkpt>
      <trkpt lat="45.24776" lon="6.12085">
        <ele>2492</ele>
        <time>2021-12-23T11:34:57Z</time>
      </trkpt>
      <trkpt lat="45.24776" lon="6.12084">
        <ele>2492</ele>
        <time>2021-12-23T11:34:58Z</time>
      </trkpt>
      <trkpt lat="45.24776" lon="6.12083">
        <ele>2492</ele>
        <time>2021-12-23T11:34:59Z</time>
      </trkpt>
      <trkpt lat="45.24776" lon="6.12082">
        <ele>2492</ele>
        <time>2021-12-23T11:35:00Z</time>
      </trkpt>
      <trkpt lat="45.24776" lon="6.12081">
        <ele>2492</ele>
        <time>2021-12-23T11:35:01Z</time>
      </trkpt>
      <trkpt lat="45.24776" lon="6.1208">
        <ele>2493</ele>
        <time>2021-12-23T11:35:02Z</time>
      </trkpt>
      <trkpt lat="45.24776" lon="6.12079">
        <ele>2493</ele>
        <time>2021-12-23T11:35:03Z</time>
      </trkpt>
      <trkpt lat="45.24776" lon="6.12078">
        <ele>2493</ele>
        <time>2021-12-23T11:35:04Z</time>
      </trkpt>
      <trkpt lat="45.24776" lon="6.12077">
        <ele>2493</ele>
        <time>2021-12-23T11:35:05Z</time>
      </trkpt>
      <trkpt lat="45.24776" lon="6.12076">
        <ele>2493</ele>
        <time>2021-12-23T11:35:06Z</time>
      </trkpt>
      <trkpt lat="45.24776" lon="6.12075">
        <ele>2493</ele>
        <time>2021-12-23T11:35:07Z</time>
      </trkpt>
      <trkpt lat="45.24776" lon="6.12074">
        <ele>2494</ele>
        <time>2021-12-23T11:35:08Z</time>
      </trkpt>
      <trkpt lat="45.24776" lon="6.12073">
        <ele>2494</ele>
        <time>2021-12-23T11:35:10Z</time>
      </trkpt>
      <trkpt lat="45.24775" lon="6.12072">
        <ele>2494</ele>
        <time>2021-12-23T11:35:11Z</time>
      </trkpt>
      <trkpt lat="45.24775" lon="6.12071">
        <ele>2495</ele>
        <time>2021-12-23T11:35:12Z</time>
      </trkpt>
      <trkpt lat="45.24775" lon="6.12071">
        <ele>2495</ele>
        <time>2021-12-23T11:35:13Z</time>
      </trkpt>
      <trkpt lat="45.24775" lon="6.12071">
        <ele>2495</ele>
        <time>2021-12-23T11:35:14Z</time>
      </trkpt>
      <trkpt lat="45.24775" lon="6.12071">
        <ele>2495</ele>
        <time>2021-12-23T11:35:15Z</time>
      </trkpt>
      <trkpt lat="45.24775" lon="6.12071">
        <ele>2495</ele>
        <time>2021-12-23T11:35:16Z</time>
      </trkpt>
      <trkpt lat="45.24775" lon="6.12071">
        <ele>2495</ele>
        <time>2021-12-23T11:35:17Z</time>
      </trkpt>
      <trkpt lat="45.24775" lon="6.12071">
        <ele>2495</ele>
        <time>2021-12-23T11:35:18Z</time>
      </trkpt>
      <trkpt lat="45.24775" lon="6.12071">
        <ele>2495</ele>
        <time>2021-12-23T11:35:19Z</time>
      </trkpt>
      <trkpt lat="45.24775" lon="6.12071">
        <ele>2496</ele>
        <time>2021-12-23T11:35:20Z</time>
      </trkpt>
      <trkpt lat="45.24775" lon="6.12071">
        <ele>2496</ele>
        <time>2021-12-23T11:35:21Z</time>
      </trkpt>
      <trkpt lat="45.24775" lon="6.12071">
        <ele>2496</ele>
        <time>2021-12-23T11:35:22Z</time>
      </trkpt>
      <trkpt lat="45.24775" lon="6.12071">
        <ele>2496</ele>
        <time>2021-12-23T11:35:23Z</time>
      </trkpt>
      <trkpt lat="45.24775" lon="6.12071">
        <ele>2496</ele>
        <time>2021-12-23T11:35:24Z</time>
      </trkpt>
      <trkpt lat="45.24775" lon="6.12071">
        <ele>2496</ele>
        <time>2021-12-23T11:35:25Z</time>
      </trkpt>
      <trkpt lat="45.24775" lon="6.12071">
        <ele>2496</ele>
        <time>2021-12-23T11:35:26Z</time>
      </trkpt>
      <trkpt lat="45.24775" lon="6.12058">
        <ele>2498</ele>
        <time>2021-12-23T11:35:27Z</time>
      </trkpt>
      <trkpt lat="45.24775" lon="6.12058">
        <ele>2497</ele>
        <time>2021-12-23T11:35:29Z</time>
      </trkpt>
      <trkpt lat="45.24775" lon="6.12057">
        <ele>2497</ele>
        <time>2021-12-23T11:35:30Z</time>
      </trkpt>
      <trkpt lat="45.24775" lon="6.12057">
        <ele>2497</ele>
        <time>2021-12-23T11:35:31Z</time>
      </trkpt>
      <trkpt lat="45.24775" lon="6.12056">
        <ele>2497</ele>
        <time>2021-12-23T11:35:32Z</time>
      </trkpt>
      <trkpt lat="45.24775" lon="6.12056">
        <ele>2497</ele>
        <time>2021-12-23T11:35:33Z</time>
      </trkpt>
      <trkpt lat="45.24775" lon="6.12055">
        <ele>2497</ele>
        <time>2021-12-23T11:35:34Z</time>
      </trkpt>
      <trkpt lat="45.24774" lon="6.12054">
        <ele>2497</ele>
        <time>2021-12-23T11:35:35Z</time>
      </trkpt>
      <trkpt lat="45.24774" lon="6.12054">
        <ele>2497</ele>
        <time>2021-12-23T11:35:36Z</time>
      </trkpt>
      <trkpt lat="45.24774" lon="6.12053">
        <ele>2497</ele>
        <time>2021-12-23T11:35:37Z</time>
      </trkpt>
      <trkpt lat="45.24774" lon="6.12053">
        <ele>2497</ele>
        <time>2021-12-23T11:35:38Z</time>
      </trkpt>
      <trkpt lat="45.24774" lon="6.12052">
        <ele>2497</ele>
        <time>2021-12-23T11:35:39Z</time>
      </trkpt>
      <trkpt lat="45.24774" lon="6.12051">
        <ele>2497</ele>
        <time>2021-12-23T11:35:40Z</time>
      </trkpt>
      <trkpt lat="45.24774" lon="6.12051">
        <ele>2497</ele>
        <time>2021-12-23T11:35:41Z</time>
      </trkpt>
      <trkpt lat="45.24773" lon="6.1205">
        <ele>2497</ele>
        <time>2021-12-23T11:35:42Z</time>
      </trkpt>
      <trkpt lat="45.24773" lon="6.1205">
        <ele>2497</ele>
        <time>2021-12-23T11:35:43Z</time>
      </trkpt>
      <trkpt lat="45.24773" lon="6.12049">
        <ele>2497</ele>
        <time>2021-12-23T11:35:44Z</time>
      </trkpt>
      <trkpt lat="45.24773" lon="6.12048">
        <ele>2497</ele>
        <time>2021-12-23T11:35:45Z</time>
      </trkpt>
      <trkpt lat="45.24773" lon="6.12048">
        <ele>2498</ele>
        <time>2021-12-23T11:35:46Z</time>
      </trkpt>
      <trkpt lat="45.24773" lon="6.12047">
        <ele>2498</ele>
        <time>2021-12-23T11:35:48Z</time>
      </trkpt>
      <trkpt lat="45.24773" lon="6.12047">
        <ele>2498</ele>
        <time>2021-12-23T11:35:49Z</time>
      </trkpt>
      <trkpt lat="45.24773" lon="6.12046">
        <ele>2498</ele>
        <time>2021-12-23T11:35:50Z</time>
      </trkpt>
      <trkpt lat="45.24772" lon="6.12045">
        <ele>2500</ele>
        <time>2021-12-23T11:35:51Z</time>
      </trkpt>
      <trkpt lat="45.24772" lon="6.12045">
        <ele>2500</ele>
        <time>2021-12-23T11:35:52Z</time>
      </trkpt>
      <trkpt lat="45.24772" lon="6.12045">
        <ele>2500</ele>
        <time>2021-12-23T11:35:53Z</time>
      </trkpt>
      <trkpt lat="45.24771" lon="6.12044">
        <ele>2500</ele>
        <time>2021-12-23T11:35:54Z</time>
      </trkpt>
      <trkpt lat="45.24771" lon="6.12044">
        <ele>2501</ele>
        <time>2021-12-23T11:35:55Z</time>
      </trkpt>
      <trkpt lat="45.2477" lon="6.12044">
        <ele>2501</ele>
        <time>2021-12-23T11:35:56Z</time>
      </trkpt>
      <trkpt lat="45.2477" lon="6.12044">
        <ele>2501</ele>
        <time>2021-12-23T11:35:57Z</time>
      </trkpt>
      <trkpt lat="45.2477" lon="6.12044">
        <ele>2501</ele>
        <time>2021-12-23T11:35:58Z</time>
      </trkpt>
      <trkpt lat="45.24769" lon="6.12043">
        <ele>2502</ele>
        <time>2021-12-23T11:35:59Z</time>
      </trkpt>
      <trkpt lat="45.24769" lon="6.12043">
        <ele>2502</ele>
        <time>2021-12-23T11:36:00Z</time>
      </trkpt>
      <trkpt lat="45.24768" lon="6.12043">
        <ele>2502</ele>
        <time>2021-12-23T11:36:01Z</time>
      </trkpt>
      <trkpt lat="45.24768" lon="6.12043">
        <ele>2502</ele>
        <time>2021-12-23T11:36:02Z</time>
      </trkpt>
      <trkpt lat="45.24767" lon="6.12043">
        <ele>2502</ele>
        <time>2021-12-23T11:36:03Z</time>
      </trkpt>
      <trkpt lat="45.24767" lon="6.12043">
        <ele>2503</ele>
        <time>2021-12-23T11:36:04Z</time>
      </trkpt>
      <trkpt lat="45.24767" lon="6.12042">
        <ele>2503</ele>
        <time>2021-12-23T11:36:05Z</time>
      </trkpt>
      <trkpt lat="45.24766" lon="6.12042">
        <ele>2503</ele>
        <time>2021-12-23T11:36:07Z</time>
      </trkpt>
      <trkpt lat="45.24766" lon="6.12042">
        <ele>2503</ele>
        <time>2021-12-23T11:36:08Z</time>
      </trkpt>
      <trkpt lat="45.24765" lon="6.12042">
        <ele>2503</ele>
        <time>2021-12-23T11:36:09Z</time>
      </trkpt>
      <trkpt lat="45.24765" lon="6.12042">
        <ele>2504</ele>
        <time>2021-12-23T11:36:10Z</time>
      </trkpt>
      <trkpt lat="45.24764" lon="6.12041">
        <ele>2504</ele>
        <time>2021-12-23T11:36:11Z</time>
      </trkpt>
      <trkpt lat="45.24764" lon="6.12041">
        <ele>2504</ele>
        <time>2021-12-23T11:36:12Z</time>
      </trkpt>
      <trkpt lat="45.24763" lon="6.12041">
        <ele>2504</ele>
        <time>2021-12-23T11:36:13Z</time>
      </trkpt>
      <trkpt lat="45.24763" lon="6.12041">
        <ele>2504</ele>
        <time>2021-12-23T11:36:14Z</time>
      </trkpt>
      <trkpt lat="45.24763" lon="6.12041">
        <ele>2505</ele>
        <time>2021-12-23T11:36:15Z</time>
      </trkpt>
      <trkpt lat="45.24763" lon="6.12041">
        <ele>2505</ele>
        <time>2021-12-23T11:36:16Z</time>
      </trkpt>
      <trkpt lat="45.24763" lon="6.12041">
        <ele>2505</ele>
        <time>2021-12-23T11:36:17Z</time>
      </trkpt>
      <trkpt lat="45.24763" lon="6.12041">
        <ele>2505</ele>
        <time>2021-12-23T11:36:18Z</time>
      </trkpt>
      <trkpt lat="45.24763" lon="6.12041">
        <ele>2505</ele>
        <time>2021-12-23T11:36:19Z</time>
      </trkpt>
      <trkpt lat="45.24763" lon="6.12041">
        <ele>2505</ele>
        <time>2021-12-23T11:36:20Z</time>
      </trkpt>
      <trkpt lat="45.24763" lon="6.12041">
        <ele>2505</ele>
        <time>2021-12-23T11:36:21Z</time>
      </trkpt>
      <trkpt lat="45.24763" lon="6.12041">
        <ele>2506</ele>
        <time>2021-12-23T11:36:22Z</time>
      </trkpt>
      <trkpt lat="45.24763" lon="6.12041">
        <ele>2506</ele>
        <time>2021-12-23T11:36:23Z</time>
      </trkpt>
      <trkpt lat="45.24763" lon="6.12041">
        <ele>2506</ele>
        <time>2021-12-23T11:36:24Z</time>
      </trkpt>
      <trkpt lat="45.24763" lon="6.12041">
        <ele>2506</ele>
        <time>2021-12-23T11:36:26Z</time>
      </trkpt>
      <trkpt lat="45.24763" lon="6.12041">
        <ele>2507</ele>
        <time>2021-12-23T11:36:27Z</time>
      </trkpt>
      <trkpt lat="45.24763" lon="6.12041">
        <ele>2507</ele>
        <time>2021-12-23T11:36:28Z</time>
      </trkpt>
      <trkpt lat="45.24763" lon="6.12041">
        <ele>2507</ele>
        <time>2021-12-23T11:36:29Z</time>
      </trkpt>
      <trkpt lat="45.24763" lon="6.12041">
        <ele>2507</ele>
        <time>2021-12-23T11:36:30Z</time>
      </trkpt>
      <trkpt lat="45.24763" lon="6.12041">
        <ele>2508</ele>
        <time>2021-12-23T11:36:31Z</time>
      </trkpt>
      <trkpt lat="45.24763" lon="6.12041">
        <ele>2508</ele>
        <time>2021-12-23T11:36:32Z</time>
      </trkpt>
      <trkpt lat="45.24763" lon="6.12041">
        <ele>2508</ele>
        <time>2021-12-23T11:36:33Z</time>
      </trkpt>
      <trkpt lat="45.24763" lon="6.12041">
        <ele>2508</ele>
        <time>2021-12-23T11:36:34Z</time>
      </trkpt>
      <trkpt lat="45.24763" lon="6.12041">
        <ele>2508</ele>
        <time>2021-12-23T11:36:35Z</time>
      </trkpt>
      <trkpt lat="45.24763" lon="6.12041">
        <ele>2508</ele>
        <time>2021-12-23T11:36:36Z</time>
      </trkpt>
      <trkpt lat="45.24763" lon="6.12041">
        <ele>2508</ele>
        <time>2021-12-23T11:36:37Z</time>
      </trkpt>
      <trkpt lat="45.24763" lon="6.12041">
        <ele>2508</ele>
        <time>2021-12-23T11:36:38Z</time>
      </trkpt>
      <trkpt lat="45.24763" lon="6.12041">
        <ele>2509</ele>
        <time>2021-12-23T11:36:39Z</time>
      </trkpt>
      <trkpt lat="45.24763" lon="6.12041">
        <ele>2509</ele>
        <time>2021-12-23T11:36:40Z</time>
      </trkpt>
      <trkpt lat="45.24763" lon="6.12041">
        <ele>2509</ele>
        <time>2021-12-23T11:36:41Z</time>
      </trkpt>
      <trkpt lat="45.24763" lon="6.12041">
        <ele>2509</ele>
        <time>2021-12-23T11:36:42Z</time>
      </trkpt>
      <trkpt lat="45.24759" lon="6.1203">
        <ele>2509</ele>
        <time>2021-12-23T11:36:43Z</time>
      </trkpt>
      <trkpt lat="45.24759" lon="6.1203">
        <ele>2509</ele>
        <time>2021-12-23T11:36:45Z</time>
      </trkpt>
      <trkpt lat="45.24758" lon="6.1203">
        <ele>2509</ele>
        <time>2021-12-23T11:36:46Z</time>
      </trkpt>
      <trkpt lat="45.24758" lon="6.1203">
        <ele>2509</ele>
        <time>2021-12-23T11:36:47Z</time>
      </trkpt>
      <trkpt lat="45.24757" lon="6.1203">
        <ele>2509</ele>
        <time>2021-12-23T11:36:48Z</time>
      </trkpt>
      <trkpt lat="45.24756" lon="6.1203">
        <ele>2510</ele>
        <time>2021-12-23T11:36:49Z</time>
      </trkpt>
      <trkpt lat="45.24756" lon="6.1203">
        <ele>2510</ele>
        <time>2021-12-23T11:36:50Z</time>
      </trkpt>
      <trkpt lat="45.24755" lon="6.1203">
        <ele>2510</ele>
        <time>2021-12-23T11:36:51Z</time>
      </trkpt>
      <trkpt lat="45.24754" lon="6.1203">
        <ele>2510</ele>
        <time>2021-12-23T11:36:52Z</time>
      </trkpt>
      <trkpt lat="45.24754" lon="6.1203">
        <ele>2510</ele>
        <time>2021-12-23T11:36:53Z</time>
      </trkpt>
      <trkpt lat="45.24753" lon="6.1203">
        <ele>2511</ele>
        <time>2021-12-23T11:36:54Z</time>
      </trkpt>
      <trkpt lat="45.24752" lon="6.1203">
        <ele>2511</ele>
        <time>2021-12-23T11:36:55Z</time>
      </trkpt>
      <trkpt lat="45.24752" lon="6.1203">
        <ele>2511</ele>
        <time>2021-12-23T11:36:56Z</time>
      </trkpt>
      <trkpt lat="45.24751" lon="6.1203">
        <ele>2511</ele>
        <time>2021-12-23T11:36:57Z</time>
      </trkpt>
      <trkpt lat="45.2475" lon="6.1203">
        <ele>2511</ele>
        <time>2021-12-23T11:36:58Z</time>
      </trkpt>
      <trkpt lat="45.2475" lon="6.1203">
        <ele>2511</ele>
        <time>2021-12-23T11:36:59Z</time>
      </trkpt>
      <trkpt lat="45.24749" lon="6.1203">
        <ele>2511</ele>
        <time>2021-12-23T11:37:00Z</time>
      </trkpt>
      <trkpt lat="45.24749" lon="6.12031">
        <ele>2512</ele>
        <time>2021-12-23T11:37:01Z</time>
      </trkpt>
      <trkpt lat="45.24749" lon="6.12031">
        <ele>2512</ele>
        <time>2021-12-23T11:37:02Z</time>
      </trkpt>
      <trkpt lat="45.24748" lon="6.12031">
        <ele>2512</ele>
        <time>2021-12-23T11:37:04Z</time>
      </trkpt>
      <trkpt lat="45.24748" lon="6.12031">
        <ele>2512</ele>
        <time>2021-12-23T11:37:05Z</time>
      </trkpt>
      <trkpt lat="45.24748" lon="6.12032">
        <ele>2512</ele>
        <time>2021-12-23T11:37:06Z</time>
      </trkpt>
      <trkpt lat="45.24747" lon="6.12032">
        <ele>2512</ele>
        <time>2021-12-23T11:37:07Z</time>
      </trkpt>
      <trkpt lat="45.24747" lon="6.12032">
        <ele>2513</ele>
        <time>2021-12-23T11:37:08Z</time>
      </trkpt>
      <trkpt lat="45.24747" lon="6.12033">
        <ele>2513</ele>
        <time>2021-12-23T11:37:09Z</time>
      </trkpt>
      <trkpt lat="45.24747" lon="6.12033">
        <ele>2513</ele>
        <time>2021-12-23T11:37:10Z</time>
      </trkpt>
      <trkpt lat="45.24746" lon="6.12033">
        <ele>2513</ele>
        <time>2021-12-23T11:37:11Z</time>
      </trkpt>
      <trkpt lat="45.24746" lon="6.12034">
        <ele>2514</ele>
        <time>2021-12-23T11:37:12Z</time>
      </trkpt>
      <trkpt lat="45.24746" lon="6.12034">
        <ele>2514</ele>
        <time>2021-12-23T11:37:13Z</time>
      </trkpt>
      <trkpt lat="45.24745" lon="6.12034">
        <ele>2514</ele>
        <time>2021-12-23T11:37:14Z</time>
      </trkpt>
      <trkpt lat="45.24745" lon="6.12035">
        <ele>2514</ele>
        <time>2021-12-23T11:37:15Z</time>
      </trkpt>
      <trkpt lat="45.24745" lon="6.12035">
        <ele>2514</ele>
        <time>2021-12-23T11:37:16Z</time>
      </trkpt>
      <trkpt lat="45.24744" lon="6.12035">
        <ele>2514</ele>
        <time>2021-12-23T11:37:17Z</time>
      </trkpt>
      <trkpt lat="45.24744" lon="6.12035">
        <ele>2514</ele>
        <time>2021-12-23T11:37:18Z</time>
      </trkpt>
      <trkpt lat="45.24744" lon="6.12036">
        <ele>2514</ele>
        <time>2021-12-23T11:37:19Z</time>
      </trkpt>
      <trkpt lat="45.24743" lon="6.12036">
        <ele>2514</ele>
        <time>2021-12-23T11:37:20Z</time>
      </trkpt>
      <trkpt lat="45.24743" lon="6.12036">
        <ele>2514</ele>
        <time>2021-12-23T11:37:21Z</time>
      </trkpt>
      <trkpt lat="45.24743" lon="6.12037">
        <ele>2514</ele>
        <time>2021-12-23T11:37:23Z</time>
      </trkpt>
      <trkpt lat="45.24743" lon="6.12037">
        <ele>2514</ele>
        <time>2021-12-23T11:37:24Z</time>
      </trkpt>
      <trkpt lat="45.24741" lon="6.12039">
        <ele>2514</ele>
        <time>2021-12-23T11:37:25Z</time>
      </trkpt>
      <trkpt lat="45.2474" lon="6.1204">
        <ele>2514</ele>
        <time>2021-12-23T11:37:26Z</time>
      </trkpt>
      <trkpt lat="45.24739" lon="6.12042">
        <ele>2515</ele>
        <time>2021-12-23T11:37:27Z</time>
      </trkpt>
      <trkpt lat="45.24738" lon="6.12043">
        <ele>2515</ele>
        <time>2021-12-23T11:37:28Z</time>
      </trkpt>
      <trkpt lat="45.24737" lon="6.12045">
        <ele>2515</ele>
        <time>2021-12-23T11:37:29Z</time>
      </trkpt>
      <trkpt lat="45.24736" lon="6.12046">
        <ele>2515</ele>
        <time>2021-12-23T11:37:30Z</time>
      </trkpt>
      <trkpt lat="45.24735" lon="6.12048">
        <ele>2515</ele>
        <time>2021-12-23T11:37:31Z</time>
      </trkpt>
      <trkpt lat="45.24735" lon="6.12047">
        <ele>2515</ele>
        <time>2021-12-23T11:37:32Z</time>
      </trkpt>
      <trkpt lat="45.24735" lon="6.12047">
        <ele>2515</ele>
        <time>2021-12-23T11:37:33Z</time>
      </trkpt>
      <trkpt lat="45.24735" lon="6.12046">
        <ele>2516</ele>
        <time>2021-12-23T11:37:34Z</time>
      </trkpt>
      <trkpt lat="45.24735" lon="6.12046">
        <ele>2516</ele>
        <time>2021-12-23T11:37:35Z</time>
      </trkpt>
      <trkpt lat="45.24735" lon="6.12045">
        <ele>2516</ele>
        <time>2021-12-23T11:37:36Z</time>
      </trkpt>
      <trkpt lat="45.24736" lon="6.12045">
        <ele>2516</ele>
        <time>2021-12-23T11:37:37Z</time>
      </trkpt>
      <trkpt lat="45.24736" lon="6.12044">
        <ele>2516</ele>
        <time>2021-12-23T11:37:38Z</time>
      </trkpt>
      <trkpt lat="45.24736" lon="6.12044">
        <ele>2516</ele>
        <time>2021-12-23T11:37:39Z</time>
      </trkpt>
      <trkpt lat="45.24736" lon="6.12043">
        <ele>2516</ele>
        <time>2021-12-23T11:37:40Z</time>
      </trkpt>
      <trkpt lat="45.24736" lon="6.12042">
        <ele>2516</ele>
        <time>2021-12-23T11:37:42Z</time>
      </trkpt>
      <trkpt lat="45.24736" lon="6.12042">
        <ele>2516</ele>
        <time>2021-12-23T11:37:43Z</time>
      </trkpt>
      <trkpt lat="45.24736" lon="6.12041">
        <ele>2516</ele>
        <time>2021-12-23T11:37:44Z</time>
      </trkpt>
      <trkpt lat="45.24736" lon="6.12041">
        <ele>2516</ele>
        <time>2021-12-23T11:37:45Z</time>
      </trkpt>
      <trkpt lat="45.24736" lon="6.1204">
        <ele>2516</ele>
        <time>2021-12-23T11:37:46Z</time>
      </trkpt>
      <trkpt lat="45.24736" lon="6.1204">
        <ele>2518</ele>
        <time>2021-12-23T11:37:47Z</time>
      </trkpt>
      <trkpt lat="45.24736" lon="6.12039">
        <ele>2519</ele>
        <time>2021-12-23T11:37:48Z</time>
      </trkpt>
      <trkpt lat="45.24736" lon="6.12039">
        <ele>2519</ele>
        <time>2021-12-23T11:37:49Z</time>
      </trkpt>
      <trkpt lat="45.24736" lon="6.12038">
        <ele>2519</ele>
        <time>2021-12-23T11:37:50Z</time>
      </trkpt>
      <trkpt lat="45.24736" lon="6.12038">
        <ele>2519</ele>
        <time>2021-12-23T11:37:51Z</time>
      </trkpt>
      <trkpt lat="45.24737" lon="6.12037">
        <ele>2519</ele>
        <time>2021-12-23T11:37:52Z</time>
      </trkpt>
      <trkpt lat="45.24737" lon="6.12036">
        <ele>2519</ele>
        <time>2021-12-23T11:37:53Z</time>
      </trkpt>
      <trkpt lat="45.24737" lon="6.12036">
        <ele>2519</ele>
        <time>2021-12-23T11:37:54Z</time>
      </trkpt>
      <trkpt lat="45.24736" lon="6.12035">
        <ele>2519</ele>
        <time>2021-12-23T11:37:55Z</time>
      </trkpt>
      <trkpt lat="45.24735" lon="6.12034">
        <ele>2519</ele>
        <time>2021-12-23T11:37:56Z</time>
      </trkpt>
      <trkpt lat="45.24735" lon="6.12033">
        <ele>2519</ele>
        <time>2021-12-23T11:37:57Z</time>
      </trkpt>
      <trkpt lat="45.24734" lon="6.12033">
        <ele>2519</ele>
        <time>2021-12-23T11:37:58Z</time>
      </trkpt>
      <trkpt lat="45.24733" lon="6.12032">
        <ele>2519</ele>
        <time>2021-12-23T11:37:59Z</time>
      </trkpt>
      <trkpt lat="45.24733" lon="6.12031">
        <ele>2519</ele>
        <time>2021-12-23T11:38:01Z</time>
      </trkpt>
      <trkpt lat="45.24732" lon="6.1203">
        <ele>2519</ele>
        <time>2021-12-23T11:38:02Z</time>
      </trkpt>
      <trkpt lat="45.24732" lon="6.12029">
        <ele>2520</ele>
        <time>2021-12-23T11:38:03Z</time>
      </trkpt>
      <trkpt lat="45.24731" lon="6.12028">
        <ele>2521</ele>
        <time>2021-12-23T11:38:04Z</time>
      </trkpt>
      <trkpt lat="45.2473" lon="6.12027">
        <ele>2521</ele>
        <time>2021-12-23T11:38:05Z</time>
      </trkpt>
      <trkpt lat="45.2473" lon="6.12028">
        <ele>2521</ele>
        <time>2021-12-23T11:38:06Z</time>
      </trkpt>
      <trkpt lat="45.2473" lon="6.12028">
        <ele>2521</ele>
        <time>2021-12-23T11:38:07Z</time>
      </trkpt>
      <trkpt lat="45.24729" lon="6.12029">
        <ele>2521</ele>
        <time>2021-12-23T11:38:08Z</time>
      </trkpt>
      <trkpt lat="45.24729" lon="6.12029">
        <ele>2521</ele>
        <time>2021-12-23T11:38:09Z</time>
      </trkpt>
      <trkpt lat="45.24729" lon="6.1203">
        <ele>2521</ele>
        <time>2021-12-23T11:38:10Z</time>
      </trkpt>
      <trkpt lat="45.24729" lon="6.1203">
        <ele>2521</ele>
        <time>2021-12-23T11:38:11Z</time>
      </trkpt>
      <trkpt lat="45.24728" lon="6.12031">
        <ele>2521</ele>
        <time>2021-12-23T11:38:12Z</time>
      </trkpt>
      <trkpt lat="45.24728" lon="6.12031">
        <ele>2521</ele>
        <time>2021-12-23T11:38:13Z</time>
      </trkpt>
      <trkpt lat="45.24728" lon="6.12032">
        <ele>2521</ele>
        <time>2021-12-23T11:38:14Z</time>
      </trkpt>
      <trkpt lat="45.24728" lon="6.12032">
        <ele>2522</ele>
        <time>2021-12-23T11:38:15Z</time>
      </trkpt>
      <trkpt lat="45.24727" lon="6.12032">
        <ele>2522</ele>
        <time>2021-12-23T11:38:16Z</time>
      </trkpt>
      <trkpt lat="45.24727" lon="6.12033">
        <ele>2522</ele>
        <time>2021-12-23T11:38:17Z</time>
      </trkpt>
      <trkpt lat="45.24727" lon="6.12033">
        <ele>2522</ele>
        <time>2021-12-23T11:38:18Z</time>
      </trkpt>
      <trkpt lat="45.24726" lon="6.12034">
        <ele>2522</ele>
        <time>2021-12-23T11:38:20Z</time>
      </trkpt>
      <trkpt lat="45.24726" lon="6.12034">
        <ele>2522</ele>
        <time>2021-12-23T11:38:21Z</time>
      </trkpt>
      <trkpt lat="45.24726" lon="6.12035">
        <ele>2522</ele>
        <time>2021-12-23T11:38:22Z</time>
      </trkpt>
      <trkpt lat="45.24726" lon="6.12035">
        <ele>2523</ele>
        <time>2021-12-23T11:38:23Z</time>
      </trkpt>
      <trkpt lat="45.24725" lon="6.12036">
        <ele>2523</ele>
        <time>2021-12-23T11:38:24Z</time>
      </trkpt>
      <trkpt lat="45.24725" lon="6.12036">
        <ele>2523</ele>
        <time>2021-12-23T11:38:25Z</time>
      </trkpt>
      <trkpt lat="45.24725" lon="6.12036">
        <ele>2523</ele>
        <time>2021-12-23T11:38:26Z</time>
      </trkpt>
      <trkpt lat="45.24724" lon="6.12037">
        <ele>2523</ele>
        <time>2021-12-23T11:38:27Z</time>
      </trkpt>
      <trkpt lat="45.24724" lon="6.12037">
        <ele>2523</ele>
        <time>2021-12-23T11:38:28Z</time>
      </trkpt>
      <trkpt lat="45.24724" lon="6.12037">
        <ele>2524</ele>
        <time>2021-12-23T11:38:29Z</time>
      </trkpt>
      <trkpt lat="45.24724" lon="6.12037">
        <ele>2524</ele>
        <time>2021-12-23T11:38:30Z</time>
      </trkpt>
      <trkpt lat="45.24724" lon="6.12037">
        <ele>2524</ele>
        <time>2021-12-23T11:38:31Z</time>
      </trkpt>
      <trkpt lat="45.24724" lon="6.12037">
        <ele>2524</ele>
        <time>2021-12-23T11:38:32Z</time>
      </trkpt>
      <trkpt lat="45.24724" lon="6.12037">
        <ele>2524</ele>
        <time>2021-12-23T11:38:33Z</time>
      </trkpt>
      <trkpt lat="45.24724" lon="6.12037">
        <ele>2524</ele>
        <time>2021-12-23T11:38:34Z</time>
      </trkpt>
      <trkpt lat="45.24724" lon="6.12037">
        <ele>2524</ele>
        <time>2021-12-23T11:38:35Z</time>
      </trkpt>
      <trkpt lat="45.24724" lon="6.12037">
        <ele>2525</ele>
        <time>2021-12-23T11:38:36Z</time>
      </trkpt>
      <trkpt lat="45.24724" lon="6.12037">
        <ele>2525</ele>
        <time>2021-12-23T11:38:37Z</time>
      </trkpt>
      <trkpt lat="45.24724" lon="6.12037">
        <ele>2525</ele>
        <time>2021-12-23T11:38:39Z</time>
      </trkpt>
      <trkpt lat="45.24724" lon="6.12037">
        <ele>2525</ele>
        <time>2021-12-23T11:38:40Z</time>
      </trkpt>
      <trkpt lat="45.24719" lon="6.12046">
        <ele>2525</ele>
        <time>2021-12-23T11:38:41Z</time>
      </trkpt>
      <trkpt lat="45.24719" lon="6.12046">
        <ele>2526</ele>
        <time>2021-12-23T11:38:43Z</time>
      </trkpt>
      <trkpt lat="45.24718" lon="6.12046">
        <ele>2526</ele>
        <time>2021-12-23T11:38:44Z</time>
      </trkpt>
      <trkpt lat="45.24718" lon="6.12046">
        <ele>2526</ele>
        <time>2021-12-23T11:38:45Z</time>
      </trkpt>
      <trkpt lat="45.24718" lon="6.12046">
        <ele>2526</ele>
        <time>2021-12-23T11:38:46Z</time>
      </trkpt>
      <trkpt lat="45.24718" lon="6.12045">
        <ele>2526</ele>
        <time>2021-12-23T11:38:47Z</time>
      </trkpt>
      <trkpt lat="45.24718" lon="6.12045">
        <ele>2526</ele>
        <time>2021-12-23T11:38:48Z</time>
      </trkpt>
      <trkpt lat="45.24717" lon="6.12045">
        <ele>2526</ele>
        <time>2021-12-23T11:38:49Z</time>
      </trkpt>
      <trkpt lat="45.24717" lon="6.12045">
        <ele>2526</ele>
        <time>2021-12-23T11:38:50Z</time>
      </trkpt>
      <trkpt lat="45.24717" lon="6.12044">
        <ele>2527</ele>
        <time>2021-12-23T11:38:51Z</time>
      </trkpt>
      <trkpt lat="45.24717" lon="6.12044">
        <ele>2527</ele>
        <time>2021-12-23T11:38:52Z</time>
      </trkpt>
      <trkpt lat="45.24717" lon="6.12044">
        <ele>2527</ele>
        <time>2021-12-23T11:38:53Z</time>
      </trkpt>
      <trkpt lat="45.24717" lon="6.12044">
        <ele>2527</ele>
        <time>2021-12-23T11:38:54Z</time>
      </trkpt>
      <trkpt lat="45.24716" lon="6.12043">
        <ele>2527</ele>
        <time>2021-12-23T11:38:55Z</time>
      </trkpt>
      <trkpt lat="45.24716" lon="6.12043">
        <ele>2527</ele>
        <time>2021-12-23T11:38:56Z</time>
      </trkpt>
      <trkpt lat="45.24716" lon="6.12043">
        <ele>2527</ele>
        <time>2021-12-23T11:38:58Z</time>
      </trkpt>
      <trkpt lat="45.24716" lon="6.12042">
        <ele>2527</ele>
        <time>2021-12-23T11:38:59Z</time>
      </trkpt>
      <trkpt lat="45.24716" lon="6.12042">
        <ele>2527</ele>
        <time>2021-12-23T11:39:00Z</time>
      </trkpt>
      <trkpt lat="45.24716" lon="6.12042">
        <ele>2528</ele>
        <time>2021-12-23T11:39:01Z</time>
      </trkpt>
      <trkpt lat="45.24715" lon="6.12042">
        <ele>2528</ele>
        <time>2021-12-23T11:39:02Z</time>
      </trkpt>
      <trkpt lat="45.24715" lon="6.12041">
        <ele>2528</ele>
        <time>2021-12-23T11:39:03Z</time>
      </trkpt>
      <trkpt lat="45.24715" lon="6.12041">
        <ele>2528</ele>
        <time>2021-12-23T11:39:04Z</time>
      </trkpt>
      <trkpt lat="45.24715" lon="6.12041">
        <ele>2528</ele>
        <time>2021-12-23T11:39:05Z</time>
      </trkpt>
      <trkpt lat="45.24715" lon="6.12041">
        <ele>2528</ele>
        <time>2021-12-23T11:39:06Z</time>
      </trkpt>
      <trkpt lat="45.24714" lon="6.1204">
        <ele>2528</ele>
        <time>2021-12-23T11:39:07Z</time>
      </trkpt>
      <trkpt lat="45.24714" lon="6.1204">
        <ele>2528</ele>
        <time>2021-12-23T11:39:08Z</time>
      </trkpt>
      <trkpt lat="45.24714" lon="6.1204">
        <ele>2528</ele>
        <time>2021-12-23T11:39:09Z</time>
      </trkpt>
      <trkpt lat="45.24714" lon="6.1204">
        <ele>2528</ele>
        <time>2021-12-23T11:39:10Z</time>
      </trkpt>
      <trkpt lat="45.24714" lon="6.12039">
        <ele>2528</ele>
        <time>2021-12-23T11:39:11Z</time>
      </trkpt>
      <trkpt lat="45.24714" lon="6.12039">
        <ele>2528</ele>
        <time>2021-12-23T11:39:12Z</time>
      </trkpt>
      <trkpt lat="45.24713" lon="6.12039">
        <ele>2528</ele>
        <time>2021-12-23T11:39:13Z</time>
      </trkpt>
      <trkpt lat="45.24713" lon="6.12038">
        <ele>2528</ele>
        <time>2021-12-23T11:39:14Z</time>
      </trkpt>
      <trkpt lat="45.24713" lon="6.12038">
        <ele>2530</ele>
        <time>2021-12-23T11:39:15Z</time>
      </trkpt>
      <trkpt lat="45.24713" lon="6.12038">
        <ele>2530</ele>
        <time>2021-12-23T11:39:17Z</time>
      </trkpt>
      <trkpt lat="45.24713" lon="6.12038">
        <ele>2530</ele>
        <time>2021-12-23T11:39:18Z</time>
      </trkpt>
      <trkpt lat="45.24712" lon="6.12037">
        <ele>2530</ele>
        <time>2021-12-23T11:39:19Z</time>
      </trkpt>
      <trkpt lat="45.24712" lon="6.12037">
        <ele>2530</ele>
        <time>2021-12-23T11:39:20Z</time>
      </trkpt>
      <trkpt lat="45.24712" lon="6.12036">
        <ele>2530</ele>
        <time>2021-12-23T11:39:21Z</time>
      </trkpt>
      <trkpt lat="45.24712" lon="6.12035">
        <ele>2530</ele>
        <time>2021-12-23T11:39:22Z</time>
      </trkpt>
      <trkpt lat="45.24711" lon="6.12034">
        <ele>2531</ele>
        <time>2021-12-23T11:39:23Z</time>
      </trkpt>
      <trkpt lat="45.24711" lon="6.12033">
        <ele>2531</ele>
        <time>2021-12-23T11:39:24Z</time>
      </trkpt>
      <trkpt lat="45.2471" lon="6.12031">
        <ele>2532</ele>
        <time>2021-12-23T11:39:25Z</time>
      </trkpt>
      <trkpt lat="45.2471" lon="6.1203">
        <ele>2532</ele>
        <time>2021-12-23T11:39:26Z</time>
      </trkpt>
      <trkpt lat="45.2471" lon="6.12029">
        <ele>2532</ele>
        <time>2021-12-23T11:39:27Z</time>
      </trkpt>
      <trkpt lat="45.24709" lon="6.12028">
        <ele>2532</ele>
        <time>2021-12-23T11:39:28Z</time>
      </trkpt>
      <trkpt lat="45.24709" lon="6.12027">
        <ele>2532</ele>
        <time>2021-12-23T11:39:29Z</time>
      </trkpt>
      <trkpt lat="45.24709" lon="6.12026">
        <ele>2533</ele>
        <time>2021-12-23T11:39:30Z</time>
      </trkpt>
      <trkpt lat="45.24708" lon="6.12026">
        <ele>2533</ele>
        <time>2021-12-23T11:39:31Z</time>
      </trkpt>
      <trkpt lat="45.24708" lon="6.12027">
        <ele>2533</ele>
        <time>2021-12-23T11:39:32Z</time>
      </trkpt>
      <trkpt lat="45.24708" lon="6.12027">
        <ele>2533</ele>
        <time>2021-12-23T11:39:33Z</time>
      </trkpt>
      <trkpt lat="45.24708" lon="6.12027">
        <ele>2533</ele>
        <time>2021-12-23T11:39:34Z</time>
      </trkpt>
      <trkpt lat="45.24708" lon="6.12028">
        <ele>2534</ele>
        <time>2021-12-23T11:39:36Z</time>
      </trkpt>
      <trkpt lat="45.24708" lon="6.12028">
        <ele>2534</ele>
        <time>2021-12-23T11:39:37Z</time>
      </trkpt>
      <trkpt lat="45.24708" lon="6.12028">
        <ele>2534</ele>
        <time>2021-12-23T11:39:38Z</time>
      </trkpt>
      <trkpt lat="45.24708" lon="6.12029">
        <ele>2535</ele>
        <time>2021-12-23T11:39:39Z</time>
      </trkpt>
      <trkpt lat="45.24708" lon="6.12029">
        <ele>2535</ele>
        <time>2021-12-23T11:39:40Z</time>
      </trkpt>
      <trkpt lat="45.24707" lon="6.12029">
        <ele>2535</ele>
        <time>2021-12-23T11:39:41Z</time>
      </trkpt>
      <trkpt lat="45.24707" lon="6.1203">
        <ele>2535</ele>
        <time>2021-12-23T11:39:42Z</time>
      </trkpt>
      <trkpt lat="45.24707" lon="6.1203">
        <ele>2535</ele>
        <time>2021-12-23T11:39:43Z</time>
      </trkpt>
      <trkpt lat="45.24707" lon="6.1203">
        <ele>2535</ele>
        <time>2021-12-23T11:39:44Z</time>
      </trkpt>
      <trkpt lat="45.24707" lon="6.12031">
        <ele>2535</ele>
        <time>2021-12-23T11:39:45Z</time>
      </trkpt>
      <trkpt lat="45.24707" lon="6.12031">
        <ele>2535</ele>
        <time>2021-12-23T11:39:46Z</time>
      </trkpt>
      <trkpt lat="45.24707" lon="6.12031">
        <ele>2535</ele>
        <time>2021-12-23T11:39:47Z</time>
      </trkpt>
      <trkpt lat="45.24707" lon="6.12032">
        <ele>2535</ele>
        <time>2021-12-23T11:39:48Z</time>
      </trkpt>
      <trkpt lat="45.24707" lon="6.12032">
        <ele>2536</ele>
        <time>2021-12-23T11:39:49Z</time>
      </trkpt>
      <trkpt lat="45.24707" lon="6.12032">
        <ele>2536</ele>
        <time>2021-12-23T11:39:50Z</time>
      </trkpt>
      <trkpt lat="45.24706" lon="6.12033">
        <ele>2536</ele>
        <time>2021-12-23T11:39:51Z</time>
      </trkpt>
      <trkpt lat="45.24706" lon="6.12033">
        <ele>2537</ele>
        <time>2021-12-23T11:39:52Z</time>
      </trkpt>
      <trkpt lat="45.24706" lon="6.12033">
        <ele>2537</ele>
        <time>2021-12-23T11:39:53Z</time>
      </trkpt>
      <trkpt lat="45.24706" lon="6.12034">
        <ele>2536</ele>
        <time>2021-12-23T11:39:55Z</time>
      </trkpt>
      <trkpt lat="45.24706" lon="6.12034">
        <ele>2536</ele>
        <time>2021-12-23T11:39:56Z</time>
      </trkpt>
      <trkpt lat="45.24706" lon="6.12034">
        <ele>2537</ele>
        <time>2021-12-23T11:39:57Z</time>
      </trkpt>
      <trkpt lat="45.24706" lon="6.12035">
        <ele>2537</ele>
        <time>2021-12-23T11:39:58Z</time>
      </trkpt>
      <trkpt lat="45.24706" lon="6.12035">
        <ele>2537</ele>
        <time>2021-12-23T11:39:59Z</time>
      </trkpt>
      <trkpt lat="45.24706" lon="6.12035">
        <ele>2537</ele>
        <time>2021-12-23T11:40:00Z</time>
      </trkpt>
      <trkpt lat="45.24705" lon="6.12036">
        <ele>2537</ele>
        <time>2021-12-23T11:40:01Z</time>
      </trkpt>
      <trkpt lat="45.24705" lon="6.12036">
        <ele>2538</ele>
        <time>2021-12-23T11:40:02Z</time>
      </trkpt>
      <trkpt lat="45.24705" lon="6.12036">
        <ele>2538</ele>
        <time>2021-12-23T11:40:03Z</time>
      </trkpt>
      <trkpt lat="45.24705" lon="6.12036">
        <ele>2538</ele>
        <time>2021-12-23T11:40:04Z</time>
      </trkpt>
      <trkpt lat="45.24705" lon="6.12036">
        <ele>2539</ele>
        <time>2021-12-23T11:40:05Z</time>
      </trkpt>
      <trkpt lat="45.24705" lon="6.12036">
        <ele>2539</ele>
        <time>2021-12-23T11:40:06Z</time>
      </trkpt>
      <trkpt lat="45.24705" lon="6.12036">
        <ele>2539</ele>
        <time>2021-12-23T11:40:07Z</time>
      </trkpt>
      <trkpt lat="45.24705" lon="6.12036">
        <ele>2539</ele>
        <time>2021-12-23T11:40:08Z</time>
      </trkpt>
      <trkpt lat="45.24705" lon="6.12036">
        <ele>2539</ele>
        <time>2021-12-23T11:40:09Z</time>
      </trkpt>
      <trkpt lat="45.24705" lon="6.12036">
        <ele>2540</ele>
        <time>2021-12-23T11:40:10Z</time>
      </trkpt>
      <trkpt lat="45.24705" lon="6.12036">
        <ele>2540</ele>
        <time>2021-12-23T11:40:11Z</time>
      </trkpt>
      <trkpt lat="45.24705" lon="6.12036">
        <ele>2539</ele>
        <time>2021-12-23T11:40:12Z</time>
      </trkpt>
      <trkpt lat="45.24699" lon="6.12046">
        <ele>2539</ele>
        <time>2021-12-23T11:40:14Z</time>
      </trkpt>
      <trkpt lat="45.24699" lon="6.12045">
        <ele>2539</ele>
        <time>2021-12-23T11:40:15Z</time>
      </trkpt>
      <trkpt lat="45.24698" lon="6.12044">
        <ele>2539</ele>
        <time>2021-12-23T11:40:16Z</time>
      </trkpt>
      <trkpt lat="45.24698" lon="6.12043">
        <ele>2540</ele>
        <time>2021-12-23T11:40:17Z</time>
      </trkpt>
      <trkpt lat="45.24698" lon="6.12042">
        <ele>2540</ele>
        <time>2021-12-23T11:40:18Z</time>
      </trkpt>
      <trkpt lat="45.24698" lon="6.12042">
        <ele>2540</ele>
        <time>2021-12-23T11:40:19Z</time>
      </trkpt>
      <trkpt lat="45.24697" lon="6.12041">
        <ele>2540</ele>
        <time>2021-12-23T11:40:20Z</time>
      </trkpt>
      <trkpt lat="45.24697" lon="6.1204">
        <ele>2540</ele>
        <time>2021-12-23T11:40:21Z</time>
      </trkpt>
      <trkpt lat="45.24697" lon="6.12039">
        <ele>2540</ele>
        <time>2021-12-23T11:40:22Z</time>
      </trkpt>
      <trkpt lat="45.24696" lon="6.12038">
        <ele>2540</ele>
        <time>2021-12-23T11:40:23Z</time>
      </trkpt>
      <trkpt lat="45.24696" lon="6.12037">
        <ele>2541</ele>
        <time>2021-12-23T11:40:24Z</time>
      </trkpt>
      <trkpt lat="45.24696" lon="6.12036">
        <ele>2541</ele>
        <time>2021-12-23T11:40:25Z</time>
      </trkpt>
      <trkpt lat="45.24696" lon="6.12035">
        <ele>2541</ele>
        <time>2021-12-23T11:40:26Z</time>
      </trkpt>
      <trkpt lat="45.24695" lon="6.12035">
        <ele>2541</ele>
        <time>2021-12-23T11:40:27Z</time>
      </trkpt>
      <trkpt lat="45.24695" lon="6.12034">
        <ele>2541</ele>
        <time>2021-12-23T11:40:28Z</time>
      </trkpt>
      <trkpt lat="45.24695" lon="6.12034">
        <ele>2542</ele>
        <time>2021-12-23T11:40:29Z</time>
      </trkpt>
      <trkpt lat="45.24695" lon="6.12034">
        <ele>2542</ele>
        <time>2021-12-23T11:40:30Z</time>
      </trkpt>
      <trkpt lat="45.24695" lon="6.12034">
        <ele>2542</ele>
        <time>2021-12-23T11:40:31Z</time>
      </trkpt>
      <trkpt lat="45.24695" lon="6.12034">
        <ele>2542</ele>
        <time>2021-12-23T11:40:33Z</time>
      </trkpt>
      <trkpt lat="45.24695" lon="6.12034">
        <ele>2542</ele>
        <time>2021-12-23T11:40:34Z</time>
      </trkpt>
      <trkpt lat="45.24695" lon="6.12034">
        <ele>2542</ele>
        <time>2021-12-23T11:40:35Z</time>
      </trkpt>
      <trkpt lat="45.24695" lon="6.12034">
        <ele>2542</ele>
        <time>2021-12-23T11:40:36Z</time>
      </trkpt>
      <trkpt lat="45.24695" lon="6.12034">
        <ele>2543</ele>
        <time>2021-12-23T11:40:37Z</time>
      </trkpt>
      <trkpt lat="45.24695" lon="6.12034">
        <ele>2543</ele>
        <time>2021-12-23T11:40:38Z</time>
      </trkpt>
      <trkpt lat="45.24695" lon="6.12034">
        <ele>2543</ele>
        <time>2021-12-23T11:40:39Z</time>
      </trkpt>
      <trkpt lat="45.24695" lon="6.12034">
        <ele>2544</ele>
        <time>2021-12-23T11:40:40Z</time>
      </trkpt>
      <trkpt lat="45.24695" lon="6.12034">
        <ele>2544</ele>
        <time>2021-12-23T11:40:41Z</time>
      </trkpt>
      <trkpt lat="45.24695" lon="6.12034">
        <ele>2544</ele>
        <time>2021-12-23T11:40:42Z</time>
      </trkpt>
      <trkpt lat="45.24693" lon="6.12022">
        <ele>2544</ele>
        <time>2021-12-23T11:40:43Z</time>
      </trkpt>
      <trkpt lat="45.24693" lon="6.12022">
        <ele>2544</ele>
        <time>2021-12-23T11:40:45Z</time>
      </trkpt>
      <trkpt lat="45.24692" lon="6.12021">
        <ele>2544</ele>
        <time>2021-12-23T11:40:46Z</time>
      </trkpt>
      <trkpt lat="45.24692" lon="6.1202">
        <ele>2544</ele>
        <time>2021-12-23T11:40:47Z</time>
      </trkpt>
      <trkpt lat="45.24692" lon="6.12019">
        <ele>2546</ele>
        <time>2021-12-23T11:40:48Z</time>
      </trkpt>
      <trkpt lat="45.24691" lon="6.12018">
        <ele>2546</ele>
        <time>2021-12-23T11:40:50Z</time>
      </trkpt>
      <trkpt lat="45.24691" lon="6.12017">
        <ele>2546</ele>
        <time>2021-12-23T11:40:52Z</time>
      </trkpt>
      <trkpt lat="45.24691" lon="6.12016">
        <ele>2546</ele>
        <time>2021-12-23T11:40:53Z</time>
      </trkpt>
      <trkpt lat="45.24691" lon="6.12015">
        <ele>2546</ele>
        <time>2021-12-23T11:40:54Z</time>
      </trkpt>
      <trkpt lat="45.2469" lon="6.12014">
        <ele>2546</ele>
        <time>2021-12-23T11:40:55Z</time>
      </trkpt>
      <trkpt lat="45.2469" lon="6.12013">
        <ele>2546</ele>
        <time>2021-12-23T11:40:56Z</time>
      </trkpt>
      <trkpt lat="45.2469" lon="6.12012">
        <ele>2547</ele>
        <time>2021-12-23T11:40:57Z</time>
      </trkpt>
      <trkpt lat="45.2469" lon="6.12011">
        <ele>2547</ele>
        <time>2021-12-23T11:40:58Z</time>
      </trkpt>
      <trkpt lat="45.24689" lon="6.1201">
        <ele>2547</ele>
        <time>2021-12-23T11:40:59Z</time>
      </trkpt>
      <trkpt lat="45.24689" lon="6.12009">
        <ele>2547</ele>
        <time>2021-12-23T11:41:00Z</time>
      </trkpt>
      <trkpt lat="45.24689" lon="6.12008">
        <ele>2547</ele>
        <time>2021-12-23T11:41:01Z</time>
      </trkpt>
      <trkpt lat="45.24689" lon="6.12007">
        <ele>2548</ele>
        <time>2021-12-23T11:41:02Z</time>
      </trkpt>
      <trkpt lat="45.24689" lon="6.12006">
        <ele>2548</ele>
        <time>2021-12-23T11:41:03Z</time>
      </trkpt>
      <trkpt lat="45.24689" lon="6.12005">
        <ele>2548</ele>
        <time>2021-12-23T11:41:04Z</time>
      </trkpt>
      <trkpt lat="45.24689" lon="6.12004">
        <ele>2548</ele>
        <time>2021-12-23T11:41:05Z</time>
      </trkpt>
      <trkpt lat="45.2469" lon="6.12003">
        <ele>2548</ele>
        <time>2021-12-23T11:41:06Z</time>
      </trkpt>
      <trkpt lat="45.2469" lon="6.12002">
        <ele>2548</ele>
        <time>2021-12-23T11:41:07Z</time>
      </trkpt>
      <trkpt lat="45.2469" lon="6.12001">
        <ele>2548</ele>
        <time>2021-12-23T11:41:08Z</time>
      </trkpt>
      <trkpt lat="45.2469" lon="6.12">
        <ele>2548</ele>
        <time>2021-12-23T11:41:09Z</time>
      </trkpt>
      <trkpt lat="45.2469" lon="6.11999">
        <ele>2549</ele>
        <time>2021-12-23T11:41:11Z</time>
      </trkpt>
      <trkpt lat="45.2469" lon="6.11998">
        <ele>2549</ele>
        <time>2021-12-23T11:41:12Z</time>
      </trkpt>
      <trkpt lat="45.2469" lon="6.11997">
        <ele>2549</ele>
        <time>2021-12-23T11:41:13Z</time>
      </trkpt>
      <trkpt lat="45.24689" lon="6.11996">
        <ele>2549</ele>
        <time>2021-12-23T11:41:14Z</time>
      </trkpt>
      <trkpt lat="45.24689" lon="6.11995">
        <ele>2550</ele>
        <time>2021-12-23T11:41:15Z</time>
      </trkpt>
      <trkpt lat="45.24688" lon="6.11995">
        <ele>2550</ele>
        <time>2021-12-23T11:41:16Z</time>
      </trkpt>
      <trkpt lat="45.24687" lon="6.11994">
        <ele>2550</ele>
        <time>2021-12-23T11:41:17Z</time>
      </trkpt>
      <trkpt lat="45.24687" lon="6.11993">
        <ele>2550</ele>
        <time>2021-12-23T11:41:18Z</time>
      </trkpt>
      <trkpt lat="45.24686" lon="6.11993">
        <ele>2550</ele>
        <time>2021-12-23T11:41:19Z</time>
      </trkpt>
      <trkpt lat="45.24686" lon="6.11992">
        <ele>2550</ele>
        <time>2021-12-23T11:41:20Z</time>
      </trkpt>
      <trkpt lat="45.24685" lon="6.11991">
        <ele>2550</ele>
        <time>2021-12-23T11:41:21Z</time>
      </trkpt>
      <trkpt lat="45.24685" lon="6.11991">
        <ele>2551</ele>
        <time>2021-12-23T11:41:22Z</time>
      </trkpt>
      <trkpt lat="45.24684" lon="6.1199">
        <ele>2551</ele>
        <time>2021-12-23T11:41:23Z</time>
      </trkpt>
      <trkpt lat="45.24684" lon="6.11989">
        <ele>2551</ele>
        <time>2021-12-23T11:41:24Z</time>
      </trkpt>
      <trkpt lat="45.24683" lon="6.11988">
        <ele>2551</ele>
        <time>2021-12-23T11:41:25Z</time>
      </trkpt>
      <trkpt lat="45.24683" lon="6.11988">
        <ele>2551</ele>
        <time>2021-12-23T11:41:26Z</time>
      </trkpt>
      <trkpt lat="45.24682" lon="6.11987">
        <ele>2551</ele>
        <time>2021-12-23T11:41:27Z</time>
      </trkpt>
      <trkpt lat="45.24682" lon="6.11986">
        <ele>2552</ele>
        <time>2021-12-23T11:41:28Z</time>
      </trkpt>
      <trkpt lat="45.24682" lon="6.11985">
        <ele>2552</ele>
        <time>2021-12-23T11:41:30Z</time>
      </trkpt>
      <trkpt lat="45.24682" lon="6.11985">
        <ele>2552</ele>
        <time>2021-12-23T11:41:31Z</time>
      </trkpt>
      <trkpt lat="45.24681" lon="6.11984">
        <ele>2552</ele>
        <time>2021-12-23T11:41:32Z</time>
      </trkpt>
      <trkpt lat="45.24681" lon="6.11983">
        <ele>2553</ele>
        <time>2021-12-23T11:41:33Z</time>
      </trkpt>
      <trkpt lat="45.24681" lon="6.11982">
        <ele>2553</ele>
        <time>2021-12-23T11:41:34Z</time>
      </trkpt>
      <trkpt lat="45.24681" lon="6.11981">
        <ele>2553</ele>
        <time>2021-12-23T11:41:35Z</time>
      </trkpt>
      <trkpt lat="45.2468" lon="6.11981">
        <ele>2553</ele>
        <time>2021-12-23T11:41:36Z</time>
      </trkpt>
      <trkpt lat="45.2468" lon="6.1198">
        <ele>2554</ele>
        <time>2021-12-23T11:41:37Z</time>
      </trkpt>
      <trkpt lat="45.2468" lon="6.11979">
        <ele>2554</ele>
        <time>2021-12-23T11:41:38Z</time>
      </trkpt>
      <trkpt lat="45.2468" lon="6.11978">
        <ele>2554</ele>
        <time>2021-12-23T11:41:39Z</time>
      </trkpt>
      <trkpt lat="45.24679" lon="6.11978">
        <ele>2554</ele>
        <time>2021-12-23T11:41:40Z</time>
      </trkpt>
      <trkpt lat="45.24679" lon="6.11977">
        <ele>2554</ele>
        <time>2021-12-23T11:41:41Z</time>
      </trkpt>
      <trkpt lat="45.24679" lon="6.11976">
        <ele>2554</ele>
        <time>2021-12-23T11:41:42Z</time>
      </trkpt>
      <trkpt lat="45.24678" lon="6.11975">
        <ele>2554</ele>
        <time>2021-12-23T11:41:43Z</time>
      </trkpt>
      <trkpt lat="45.24678" lon="6.11975">
        <ele>2554</ele>
        <time>2021-12-23T11:41:44Z</time>
      </trkpt>
      <trkpt lat="45.24678" lon="6.11975">
        <ele>2554</ele>
        <time>2021-12-23T11:41:45Z</time>
      </trkpt>
      <trkpt lat="45.24678" lon="6.11975">
        <ele>2555</ele>
        <time>2021-12-23T11:41:46Z</time>
      </trkpt>
      <trkpt lat="45.24678" lon="6.11975">
        <ele>2555</ele>
        <time>2021-12-23T11:41:47Z</time>
      </trkpt>
      <trkpt lat="45.24678" lon="6.11975">
        <ele>2555</ele>
        <time>2021-12-23T11:41:49Z</time>
      </trkpt>
      <trkpt lat="45.24678" lon="6.11975">
        <ele>2555</ele>
        <time>2021-12-23T11:41:50Z</time>
      </trkpt>
      <trkpt lat="45.24678" lon="6.11975">
        <ele>2556</ele>
        <time>2021-12-23T11:41:51Z</time>
      </trkpt>
      <trkpt lat="45.24678" lon="6.11975">
        <ele>2558</ele>
        <time>2021-12-23T11:41:52Z</time>
      </trkpt>
      <trkpt lat="45.24678" lon="6.11975">
        <ele>2558</ele>
        <time>2021-12-23T11:41:53Z</time>
      </trkpt>
      <trkpt lat="45.24678" lon="6.11975">
        <ele>2558</ele>
        <time>2021-12-23T11:41:54Z</time>
      </trkpt>
      <trkpt lat="45.24678" lon="6.11975">
        <ele>2558</ele>
        <time>2021-12-23T11:41:55Z</time>
      </trkpt>
      <trkpt lat="45.24678" lon="6.11963">
        <ele>2558</ele>
        <time>2021-12-23T11:41:56Z</time>
      </trkpt>
      <trkpt lat="45.24678" lon="6.11963">
        <ele>2558</ele>
        <time>2021-12-23T11:41:58Z</time>
      </trkpt>
      <trkpt lat="45.24678" lon="6.11963">
        <ele>2558</ele>
        <time>2021-12-23T11:41:59Z</time>
      </trkpt>
      <trkpt lat="45.24678" lon="6.11963">
        <ele>2558</ele>
        <time>2021-12-23T11:42:00Z</time>
      </trkpt>
      <trkpt lat="45.24678" lon="6.11963">
        <ele>2558</ele>
        <time>2021-12-23T11:42:01Z</time>
      </trkpt>
      <trkpt lat="45.24677" lon="6.11963">
        <ele>2558</ele>
        <time>2021-12-23T11:42:02Z</time>
      </trkpt>
      <trkpt lat="45.24677" lon="6.11964">
        <ele>2558</ele>
        <time>2021-12-23T11:42:03Z</time>
      </trkpt>
      <trkpt lat="45.24677" lon="6.11964">
        <ele>2558</ele>
        <time>2021-12-23T11:42:04Z</time>
      </trkpt>
      <trkpt lat="45.24676" lon="6.11964">
        <ele>2558</ele>
        <time>2021-12-23T11:42:05Z</time>
      </trkpt>
      <trkpt lat="45.24676" lon="6.11964">
        <ele>2558</ele>
        <time>2021-12-23T11:42:06Z</time>
      </trkpt>
      <trkpt lat="45.24676" lon="6.11964">
        <ele>2558</ele>
        <time>2021-12-23T11:42:08Z</time>
      </trkpt>
      <trkpt lat="45.24676" lon="6.11965">
        <ele>2558</ele>
        <time>2021-12-23T11:42:09Z</time>
      </trkpt>
      <trkpt lat="45.24675" lon="6.11965">
        <ele>2558</ele>
        <time>2021-12-23T11:42:10Z</time>
      </trkpt>
      <trkpt lat="45.24675" lon="6.11965">
        <ele>2558</ele>
        <time>2021-12-23T11:42:11Z</time>
      </trkpt>
      <trkpt lat="45.24675" lon="6.11965">
        <ele>2558</ele>
        <time>2021-12-23T11:42:12Z</time>
      </trkpt>
      <trkpt lat="45.24674" lon="6.11965">
        <ele>2558</ele>
        <time>2021-12-23T11:42:13Z</time>
      </trkpt>
      <trkpt lat="45.24674" lon="6.11965">
        <ele>2558</ele>
        <time>2021-12-23T11:42:14Z</time>
      </trkpt>
      <trkpt lat="45.24674" lon="6.11966">
        <ele>2558</ele>
        <time>2021-12-23T11:42:15Z</time>
      </trkpt>
      <trkpt lat="45.24674" lon="6.11966">
        <ele>2559</ele>
        <time>2021-12-23T11:42:16Z</time>
      </trkpt>
      <trkpt lat="45.24673" lon="6.11966">
        <ele>2559</ele>
        <time>2021-12-23T11:42:17Z</time>
      </trkpt>
      <trkpt lat="45.24673" lon="6.11966">
        <ele>2559</ele>
        <time>2021-12-23T11:42:18Z</time>
      </trkpt>
      <trkpt lat="45.24673" lon="6.11966">
        <ele>2559</ele>
        <time>2021-12-23T11:42:19Z</time>
      </trkpt>
      <trkpt lat="45.24672" lon="6.11967">
        <ele>2559</ele>
        <time>2021-12-23T11:42:20Z</time>
      </trkpt>
      <trkpt lat="45.24672" lon="6.11967">
        <ele>2559</ele>
        <time>2021-12-23T11:42:21Z</time>
      </trkpt>
      <trkpt lat="45.24672" lon="6.11967">
        <ele>2559</ele>
        <time>2021-12-23T11:42:22Z</time>
      </trkpt>
      <trkpt lat="45.24672" lon="6.11967">
        <ele>2559</ele>
        <time>2021-12-23T11:42:23Z</time>
      </trkpt>
      <trkpt lat="45.24671" lon="6.11967">
        <ele>2558</ele>
        <time>2021-12-23T11:42:24Z</time>
      </trkpt>
      <trkpt lat="45.24671" lon="6.11967">
        <ele>2558</ele>
        <time>2021-12-23T11:42:25Z</time>
      </trkpt>
      <trkpt lat="45.24671" lon="6.11968">
        <ele>2558</ele>
        <time>2021-12-23T11:42:27Z</time>
      </trkpt>
      <trkpt lat="45.2467" lon="6.11968">
        <ele>2558</ele>
        <time>2021-12-23T11:42:28Z</time>
      </trkpt>
      <trkpt lat="45.2467" lon="6.11968">
        <ele>2558</ele>
        <time>2021-12-23T11:42:29Z</time>
      </trkpt>
      <trkpt lat="45.2467" lon="6.11968">
        <ele>2558</ele>
        <time>2021-12-23T11:42:30Z</time>
      </trkpt>
      <trkpt lat="45.2467" lon="6.11968">
        <ele>2558</ele>
        <time>2021-12-23T11:42:31Z</time>
      </trkpt>
      <trkpt lat="45.24669" lon="6.11969">
        <ele>2559</ele>
        <time>2021-12-23T11:42:32Z</time>
      </trkpt>
      <trkpt lat="45.24669" lon="6.11969">
        <ele>2559</ele>
        <time>2021-12-23T11:42:33Z</time>
      </trkpt>
      <trkpt lat="45.24669" lon="6.11969">
        <ele>2559</ele>
        <time>2021-12-23T11:42:34Z</time>
      </trkpt>
      <trkpt lat="45.24669" lon="6.11969">
        <ele>2559</ele>
        <time>2021-12-23T11:42:35Z</time>
      </trkpt>
      <trkpt lat="45.24669" lon="6.11969">
        <ele>2560</ele>
        <time>2021-12-23T11:42:36Z</time>
      </trkpt>
      <trkpt lat="45.24669" lon="6.11969">
        <ele>2560</ele>
        <time>2021-12-23T11:42:37Z</time>
      </trkpt>
      <trkpt lat="45.24669" lon="6.11969">
        <ele>2560</ele>
        <time>2021-12-23T11:42:38Z</time>
      </trkpt>
      <trkpt lat="45.24669" lon="6.11969">
        <ele>2560</ele>
        <time>2021-12-23T11:42:39Z</time>
      </trkpt>
      <trkpt lat="45.24669" lon="6.11969">
        <ele>2561</ele>
        <time>2021-12-23T11:42:40Z</time>
      </trkpt>
      <trkpt lat="45.24669" lon="6.11969">
        <ele>2561</ele>
        <time>2021-12-23T11:42:41Z</time>
      </trkpt>
      <trkpt lat="45.24669" lon="6.11969">
        <ele>2561</ele>
        <time>2021-12-23T11:42:42Z</time>
      </trkpt>
      <trkpt lat="45.24669" lon="6.11969">
        <ele>2561</ele>
        <time>2021-12-23T11:42:43Z</time>
      </trkpt>
      <trkpt lat="45.24669" lon="6.11969">
        <ele>2561</ele>
        <time>2021-12-23T11:42:44Z</time>
      </trkpt>
      <trkpt lat="45.24668" lon="6.11956">
        <ele>2562</ele>
        <time>2021-12-23T11:42:46Z</time>
      </trkpt>
      <trkpt lat="45.24668" lon="6.11955">
        <ele>2562</ele>
        <time>2021-12-23T11:42:47Z</time>
      </trkpt>
      <trkpt lat="45.24668" lon="6.11954">
        <ele>2562</ele>
        <time>2021-12-23T11:42:48Z</time>
      </trkpt>
      <trkpt lat="45.24668" lon="6.11953">
        <ele>2562</ele>
        <time>2021-12-23T11:42:49Z</time>
      </trkpt>
      <trkpt lat="45.24668" lon="6.11952">
        <ele>2562</ele>
        <time>2021-12-23T11:42:50Z</time>
      </trkpt>
      <trkpt lat="45.24668" lon="6.11951">
        <ele>2562</ele>
        <time>2021-12-23T11:42:51Z</time>
      </trkpt>
      <trkpt lat="45.24668" lon="6.1195">
        <ele>2562</ele>
        <time>2021-12-23T11:42:52Z</time>
      </trkpt>
      <trkpt lat="45.24668" lon="6.11949">
        <ele>2562</ele>
        <time>2021-12-23T11:42:53Z</time>
      </trkpt>
      <trkpt lat="45.24668" lon="6.11948">
        <ele>2562</ele>
        <time>2021-12-23T11:42:54Z</time>
      </trkpt>
      <trkpt lat="45.24668" lon="6.11946">
        <ele>2562</ele>
        <time>2021-12-23T11:42:55Z</time>
      </trkpt>
      <trkpt lat="45.24668" lon="6.11945">
        <ele>2562</ele>
        <time>2021-12-23T11:42:56Z</time>
      </trkpt>
      <trkpt lat="45.24668" lon="6.11944">
        <ele>2562</ele>
        <time>2021-12-23T11:42:57Z</time>
      </trkpt>
      <trkpt lat="45.24668" lon="6.11943">
        <ele>2563</ele>
        <time>2021-12-23T11:42:58Z</time>
      </trkpt>
      <trkpt lat="45.24668" lon="6.11943">
        <ele>2563</ele>
        <time>2021-12-23T11:42:59Z</time>
      </trkpt>
      <trkpt lat="45.24668" lon="6.11942">
        <ele>2563</ele>
        <time>2021-12-23T11:43:00Z</time>
      </trkpt>
      <trkpt lat="45.24668" lon="6.11941">
        <ele>2563</ele>
        <time>2021-12-23T11:43:01Z</time>
      </trkpt>
      <trkpt lat="45.24669" lon="6.11941">
        <ele>2564</ele>
        <time>2021-12-23T11:43:02Z</time>
      </trkpt>
      <trkpt lat="45.24669" lon="6.1194">
        <ele>2564</ele>
        <time>2021-12-23T11:43:03Z</time>
      </trkpt>
      <trkpt lat="45.24669" lon="6.1194">
        <ele>2565</ele>
        <time>2021-12-23T11:43:05Z</time>
      </trkpt>
      <trkpt lat="45.24669" lon="6.11939">
        <ele>2565</ele>
        <time>2021-12-23T11:43:06Z</time>
      </trkpt>
      <trkpt lat="45.24669" lon="6.11939">
        <ele>2565</ele>
        <time>2021-12-23T11:43:07Z</time>
      </trkpt>
      <trkpt lat="45.24669" lon="6.11938">
        <ele>2565</ele>
        <time>2021-12-23T11:43:08Z</time>
      </trkpt>
      <trkpt lat="45.2467" lon="6.11937">
        <ele>2565</ele>
        <time>2021-12-23T11:43:09Z</time>
      </trkpt>
      <trkpt lat="45.2467" lon="6.11937">
        <ele>2566</ele>
        <time>2021-12-23T11:43:10Z</time>
      </trkpt>
      <trkpt lat="45.2467" lon="6.11936">
        <ele>2566</ele>
        <time>2021-12-23T11:43:11Z</time>
      </trkpt>
      <trkpt lat="45.2467" lon="6.11936">
        <ele>2566</ele>
        <time>2021-12-23T11:43:12Z</time>
      </trkpt>
      <trkpt lat="45.2467" lon="6.11935">
        <ele>2566</ele>
        <time>2021-12-23T11:43:13Z</time>
      </trkpt>
      <trkpt lat="45.2467" lon="6.11934">
        <ele>2566</ele>
        <time>2021-12-23T11:43:14Z</time>
      </trkpt>
      <trkpt lat="45.24671" lon="6.11934">
        <ele>2566</ele>
        <time>2021-12-23T11:43:15Z</time>
      </trkpt>
      <trkpt lat="45.24671" lon="6.11933">
        <ele>2567</ele>
        <time>2021-12-23T11:43:16Z</time>
      </trkpt>
      <trkpt lat="45.24671" lon="6.11933">
        <ele>2567</ele>
        <time>2021-12-23T11:43:17Z</time>
      </trkpt>
      <trkpt lat="45.24671" lon="6.11932">
        <ele>2567</ele>
        <time>2021-12-23T11:43:18Z</time>
      </trkpt>
      <trkpt lat="45.24671" lon="6.11932">
        <ele>2567</ele>
        <time>2021-12-23T11:43:19Z</time>
      </trkpt>
      <trkpt lat="45.24671" lon="6.11932">
        <ele>2567</ele>
        <time>2021-12-23T11:43:20Z</time>
      </trkpt>
      <trkpt lat="45.24671" lon="6.11932">
        <ele>2567</ele>
        <time>2021-12-23T11:43:21Z</time>
      </trkpt>
      <trkpt lat="45.24671" lon="6.11932">
        <ele>2568</ele>
        <time>2021-12-23T11:43:22Z</time>
      </trkpt>
      <trkpt lat="45.24671" lon="6.11932">
        <ele>2568</ele>
        <time>2021-12-23T11:43:24Z</time>
      </trkpt>
      <trkpt lat="45.24674" lon="6.11919">
        <ele>2568</ele>
        <time>2021-12-23T11:43:25Z</time>
      </trkpt>
      <trkpt lat="45.24674" lon="6.11919">
        <ele>2568</ele>
        <time>2021-12-23T11:43:27Z</time>
      </trkpt>
      <trkpt lat="45.24673" lon="6.11919">
        <ele>2568</ele>
        <time>2021-12-23T11:43:28Z</time>
      </trkpt>
      <trkpt lat="45.24672" lon="6.11919">
        <ele>2568</ele>
        <time>2021-12-23T11:43:29Z</time>
      </trkpt>
      <trkpt lat="45.24671" lon="6.11918">
        <ele>2568</ele>
        <time>2021-12-23T11:43:30Z</time>
      </trkpt>
      <trkpt lat="45.24671" lon="6.11918">
        <ele>2568</ele>
        <time>2021-12-23T11:43:31Z</time>
      </trkpt>
      <trkpt lat="45.2467" lon="6.11917">
        <ele>2570</ele>
        <time>2021-12-23T11:43:32Z</time>
      </trkpt>
      <trkpt lat="45.24669" lon="6.11917">
        <ele>2571</ele>
        <time>2021-12-23T11:43:33Z</time>
      </trkpt>
      <trkpt lat="45.24668" lon="6.11917">
        <ele>2571</ele>
        <time>2021-12-23T11:43:34Z</time>
      </trkpt>
      <trkpt lat="45.24667" lon="6.11916">
        <ele>2571</ele>
        <time>2021-12-23T11:43:35Z</time>
      </trkpt>
      <trkpt lat="45.24666" lon="6.11916">
        <ele>2571</ele>
        <time>2021-12-23T11:43:36Z</time>
      </trkpt>
      <trkpt lat="45.24666" lon="6.11916">
        <ele>2571</ele>
        <time>2021-12-23T11:43:37Z</time>
      </trkpt>
      <trkpt lat="45.24665" lon="6.11916">
        <ele>2571</ele>
        <time>2021-12-23T11:43:38Z</time>
      </trkpt>
      <trkpt lat="45.24664" lon="6.11915">
        <ele>2571</ele>
        <time>2021-12-23T11:43:39Z</time>
      </trkpt>
      <trkpt lat="45.24664" lon="6.11915">
        <ele>2571</ele>
        <time>2021-12-23T11:43:40Z</time>
      </trkpt>
      <trkpt lat="45.24663" lon="6.11915">
        <ele>2572</ele>
        <time>2021-12-23T11:43:41Z</time>
      </trkpt>
      <trkpt lat="45.24662" lon="6.11915">
        <ele>2573</ele>
        <time>2021-12-23T11:43:43Z</time>
      </trkpt>
      <trkpt lat="45.24662" lon="6.11915">
        <ele>2573</ele>
        <time>2021-12-23T11:43:44Z</time>
      </trkpt>
      <trkpt lat="45.24661" lon="6.11914">
        <ele>2573</ele>
        <time>2021-12-23T11:43:45Z</time>
      </trkpt>
      <trkpt lat="45.24661" lon="6.11914">
        <ele>2573</ele>
        <time>2021-12-23T11:43:46Z</time>
      </trkpt>
      <trkpt lat="45.2466" lon="6.11914">
        <ele>2573</ele>
        <time>2021-12-23T11:43:47Z</time>
      </trkpt>
      <trkpt lat="45.24659" lon="6.11914">
        <ele>2573</ele>
        <time>2021-12-23T11:43:48Z</time>
      </trkpt>
      <trkpt lat="45.24659" lon="6.11914">
        <ele>2573</ele>
        <time>2021-12-23T11:43:49Z</time>
      </trkpt>
      <trkpt lat="45.24658" lon="6.11914">
        <ele>2573</ele>
        <time>2021-12-23T11:43:50Z</time>
      </trkpt>
      <trkpt lat="45.24657" lon="6.11913">
        <ele>2573</ele>
        <time>2021-12-23T11:43:51Z</time>
      </trkpt>
      <trkpt lat="45.24657" lon="6.11913">
        <ele>2573</ele>
        <time>2021-12-23T11:43:52Z</time>
      </trkpt>
      <trkpt lat="45.24656" lon="6.11913">
        <ele>2574</ele>
        <time>2021-12-23T11:43:53Z</time>
      </trkpt>
      <trkpt lat="45.24656" lon="6.11912">
        <ele>2574</ele>
        <time>2021-12-23T11:43:54Z</time>
      </trkpt>
      <trkpt lat="45.24655" lon="6.11911">
        <ele>2574</ele>
        <time>2021-12-23T11:43:55Z</time>
      </trkpt>
      <trkpt lat="45.24655" lon="6.1191">
        <ele>2574</ele>
        <time>2021-12-23T11:43:56Z</time>
      </trkpt>
      <trkpt lat="45.24654" lon="6.11909">
        <ele>2574</ele>
        <time>2021-12-23T11:43:57Z</time>
      </trkpt>
      <trkpt lat="45.24654" lon="6.11908">
        <ele>2575</ele>
        <time>2021-12-23T11:43:58Z</time>
      </trkpt>
      <trkpt lat="45.24653" lon="6.11907">
        <ele>2575</ele>
        <time>2021-12-23T11:43:59Z</time>
      </trkpt>
      <trkpt lat="45.24653" lon="6.11905">
        <ele>2575</ele>
        <time>2021-12-23T11:44:00Z</time>
      </trkpt>
      <trkpt lat="45.24652" lon="6.11904">
        <ele>2576</ele>
        <time>2021-12-23T11:44:02Z</time>
      </trkpt>
      <trkpt lat="45.24652" lon="6.11903">
        <ele>2576</ele>
        <time>2021-12-23T11:44:03Z</time>
      </trkpt>
      <trkpt lat="45.24651" lon="6.11902">
        <ele>2576</ele>
        <time>2021-12-23T11:44:04Z</time>
      </trkpt>
      <trkpt lat="45.24651" lon="6.11901">
        <ele>2576</ele>
        <time>2021-12-23T11:44:05Z</time>
      </trkpt>
      <trkpt lat="45.2465" lon="6.11901">
        <ele>2576</ele>
        <time>2021-12-23T11:44:06Z</time>
      </trkpt>
      <trkpt lat="45.2465" lon="6.119">
        <ele>2576</ele>
        <time>2021-12-23T11:44:07Z</time>
      </trkpt>
      <trkpt lat="45.24649" lon="6.11899">
        <ele>2576</ele>
        <time>2021-12-23T11:44:08Z</time>
      </trkpt>
      <trkpt lat="45.24649" lon="6.11898">
        <ele>2576</ele>
        <time>2021-12-23T11:44:09Z</time>
      </trkpt>
      <trkpt lat="45.24648" lon="6.11898">
        <ele>2576</ele>
        <time>2021-12-23T11:44:10Z</time>
      </trkpt>
      <trkpt lat="45.24648" lon="6.11897">
        <ele>2576</ele>
        <time>2021-12-23T11:44:11Z</time>
      </trkpt>
      <trkpt lat="45.24647" lon="6.11896">
        <ele>2576</ele>
        <time>2021-12-23T11:44:12Z</time>
      </trkpt>
      <trkpt lat="45.24647" lon="6.11895">
        <ele>2577</ele>
        <time>2021-12-23T11:44:13Z</time>
      </trkpt>
      <trkpt lat="45.24646" lon="6.11895">
        <ele>2577</ele>
        <time>2021-12-23T11:44:14Z</time>
      </trkpt>
      <trkpt lat="45.24645" lon="6.11894">
        <ele>2577</ele>
        <time>2021-12-23T11:44:15Z</time>
      </trkpt>
      <trkpt lat="45.24645" lon="6.11893">
        <ele>2577</ele>
        <time>2021-12-23T11:44:16Z</time>
      </trkpt>
      <trkpt lat="45.24645" lon="6.11893">
        <ele>2578</ele>
        <time>2021-12-23T11:44:17Z</time>
      </trkpt>
      <trkpt lat="45.24645" lon="6.11893">
        <ele>2578</ele>
        <time>2021-12-23T11:44:18Z</time>
      </trkpt>
      <trkpt lat="45.24645" lon="6.11893">
        <ele>2578</ele>
        <time>2021-12-23T11:44:19Z</time>
      </trkpt>
      <trkpt lat="45.24645" lon="6.11893">
        <ele>2578</ele>
        <time>2021-12-23T11:44:21Z</time>
      </trkpt>
      <trkpt lat="45.24645" lon="6.11893">
        <ele>2578</ele>
        <time>2021-12-23T11:44:22Z</time>
      </trkpt>
      <trkpt lat="45.24645" lon="6.11893">
        <ele>2578</ele>
        <time>2021-12-23T11:44:23Z</time>
      </trkpt>
      <trkpt lat="45.24645" lon="6.11893">
        <ele>2578</ele>
        <time>2021-12-23T11:44:24Z</time>
      </trkpt>
      <trkpt lat="45.24645" lon="6.11893">
        <ele>2579</ele>
        <time>2021-12-23T11:44:25Z</time>
      </trkpt>
      <trkpt lat="45.24645" lon="6.11893">
        <ele>2579</ele>
        <time>2021-12-23T11:44:26Z</time>
      </trkpt>
      <trkpt lat="45.24645" lon="6.11893">
        <ele>2579</ele>
        <time>2021-12-23T11:44:27Z</time>
      </trkpt>
      <trkpt lat="45.24645" lon="6.11893">
        <ele>2579</ele>
        <time>2021-12-23T11:44:28Z</time>
      </trkpt>
      <trkpt lat="45.24634" lon="6.11897">
        <ele>2579</ele>
        <time>2021-12-23T11:44:29Z</time>
      </trkpt>
      <trkpt lat="45.24634" lon="6.11897">
        <ele>2579</ele>
        <time>2021-12-23T11:44:31Z</time>
      </trkpt>
      <trkpt lat="45.24633" lon="6.11896">
        <ele>2579</ele>
        <time>2021-12-23T11:44:32Z</time>
      </trkpt>
      <trkpt lat="45.24633" lon="6.11895">
        <ele>2579</ele>
        <time>2021-12-23T11:44:33Z</time>
      </trkpt>
      <trkpt lat="45.24633" lon="6.11894">
        <ele>2579</ele>
        <time>2021-12-23T11:44:34Z</time>
      </trkpt>
      <trkpt lat="45.24632" lon="6.11893">
        <ele>2580</ele>
        <time>2021-12-23T11:44:35Z</time>
      </trkpt>
      <trkpt lat="45.24632" lon="6.11892">
        <ele>2580</ele>
        <time>2021-12-23T11:44:36Z</time>
      </trkpt>
      <trkpt lat="45.24632" lon="6.11891">
        <ele>2580</ele>
        <time>2021-12-23T11:44:37Z</time>
      </trkpt>
      <trkpt lat="45.24632" lon="6.1189">
        <ele>2580</ele>
        <time>2021-12-23T11:44:38Z</time>
      </trkpt>
      <trkpt lat="45.24631" lon="6.11888">
        <ele>2581</ele>
        <time>2021-12-23T11:44:40Z</time>
      </trkpt>
      <trkpt lat="45.24631" lon="6.11887">
        <ele>2581</ele>
        <time>2021-12-23T11:44:41Z</time>
      </trkpt>
      <trkpt lat="45.24631" lon="6.11886">
        <ele>2581</ele>
        <time>2021-12-23T11:44:42Z</time>
      </trkpt>
      <trkpt lat="45.2463" lon="6.11885">
        <ele>2581</ele>
        <time>2021-12-23T11:44:43Z</time>
      </trkpt>
      <trkpt lat="45.2463" lon="6.11884">
        <ele>2581</ele>
        <time>2021-12-23T11:44:44Z</time>
      </trkpt>
      <trkpt lat="45.2463" lon="6.11884">
        <ele>2581</ele>
        <time>2021-12-23T11:44:45Z</time>
      </trkpt>
      <trkpt lat="45.24629" lon="6.11883">
        <ele>2582</ele>
        <time>2021-12-23T11:44:46Z</time>
      </trkpt>
      <trkpt lat="45.24629" lon="6.11883">
        <ele>2582</ele>
        <time>2021-12-23T11:44:47Z</time>
      </trkpt>
      <trkpt lat="45.24628" lon="6.11882">
        <ele>2582</ele>
        <time>2021-12-23T11:44:48Z</time>
      </trkpt>
      <trkpt lat="45.24628" lon="6.11881">
        <ele>2582</ele>
        <time>2021-12-23T11:44:49Z</time>
      </trkpt>
      <trkpt lat="45.24627" lon="6.11881">
        <ele>2582</ele>
        <time>2021-12-23T11:44:50Z</time>
      </trkpt>
      <trkpt lat="45.24627" lon="6.1188">
        <ele>2582</ele>
        <time>2021-12-23T11:44:51Z</time>
      </trkpt>
      <trkpt lat="45.24626" lon="6.1188">
        <ele>2582</ele>
        <time>2021-12-23T11:44:52Z</time>
      </trkpt>
      <trkpt lat="45.24626" lon="6.11879">
        <ele>2583</ele>
        <time>2021-12-23T11:44:53Z</time>
      </trkpt>
      <trkpt lat="45.24626" lon="6.11879">
        <ele>2583</ele>
        <time>2021-12-23T11:44:54Z</time>
      </trkpt>
      <trkpt lat="45.24625" lon="6.11878">
        <ele>2583</ele>
        <time>2021-12-23T11:44:55Z</time>
      </trkpt>
      <trkpt lat="45.24625" lon="6.11877">
        <ele>2583</ele>
        <time>2021-12-23T11:44:56Z</time>
      </trkpt>
      <trkpt lat="45.24624" lon="6.11877">
        <ele>2583</ele>
        <time>2021-12-23T11:44:57Z</time>
      </trkpt>
      <trkpt lat="45.24624" lon="6.11876">
        <ele>2583</ele>
        <time>2021-12-23T11:44:58Z</time>
      </trkpt>
      <trkpt lat="45.24623" lon="6.11876">
        <ele>2583</ele>
        <time>2021-12-23T11:44:59Z</time>
      </trkpt>
      <trkpt lat="45.24623" lon="6.11875">
        <ele>2583</ele>
        <time>2021-12-23T11:45:00Z</time>
      </trkpt>
      <trkpt lat="45.24623" lon="6.11875">
        <ele>2583</ele>
        <time>2021-12-23T11:45:01Z</time>
      </trkpt>
      <trkpt lat="45.24623" lon="6.11874">
        <ele>2583</ele>
        <time>2021-12-23T11:45:02Z</time>
      </trkpt>
      <trkpt lat="45.24623" lon="6.11874">
        <ele>2583</ele>
        <time>2021-12-23T11:45:03Z</time>
      </trkpt>
      <trkpt lat="45.24622" lon="6.11873">
        <ele>2584</ele>
        <time>2021-12-23T11:45:04Z</time>
      </trkpt>
      <trkpt lat="45.24622" lon="6.11873">
        <ele>2584</ele>
        <time>2021-12-23T11:45:05Z</time>
      </trkpt>
      <trkpt lat="45.24622" lon="6.11872">
        <ele>2584</ele>
        <time>2021-12-23T11:45:06Z</time>
      </trkpt>
      <trkpt lat="45.24622" lon="6.11872">
        <ele>2584</ele>
        <time>2021-12-23T11:45:07Z</time>
      </trkpt>
      <trkpt lat="45.24622" lon="6.11871">
        <ele>2584</ele>
        <time>2021-12-23T11:45:08Z</time>
      </trkpt>
      <trkpt lat="45.24621" lon="6.11871">
        <ele>2584</ele>
        <time>2021-12-23T11:45:09Z</time>
      </trkpt>
      <trkpt lat="45.24621" lon="6.1187">
        <ele>2584</ele>
        <time>2021-12-23T11:45:10Z</time>
      </trkpt>
      <trkpt lat="45.24621" lon="6.1187">
        <ele>2584</ele>
        <time>2021-12-23T11:45:11Z</time>
      </trkpt>
      <trkpt lat="45.24621" lon="6.1187">
        <ele>2584</ele>
        <time>2021-12-23T11:45:12Z</time>
      </trkpt>
      <trkpt lat="45.24621" lon="6.11869">
        <ele>2584</ele>
        <time>2021-12-23T11:45:13Z</time>
      </trkpt>
      <trkpt lat="45.24621" lon="6.11869">
        <ele>2584</ele>
        <time>2021-12-23T11:45:14Z</time>
      </trkpt>
      <trkpt lat="45.2462" lon="6.11868">
        <ele>2584</ele>
        <time>2021-12-23T11:45:15Z</time>
      </trkpt>
      <trkpt lat="45.2462" lon="6.11868">
        <ele>2585</ele>
        <time>2021-12-23T11:45:16Z</time>
      </trkpt>
      <trkpt lat="45.2462" lon="6.11867">
        <ele>2585</ele>
        <time>2021-12-23T11:45:18Z</time>
      </trkpt>
      <trkpt lat="45.2462" lon="6.11867">
        <ele>2585</ele>
        <time>2021-12-23T11:45:19Z</time>
      </trkpt>
      <trkpt lat="45.2462" lon="6.11866">
        <ele>2585</ele>
        <time>2021-12-23T11:45:20Z</time>
      </trkpt>
      <trkpt lat="45.2462" lon="6.11866">
        <ele>2586</ele>
        <time>2021-12-23T11:45:21Z</time>
      </trkpt>
      <trkpt lat="45.24619" lon="6.11865">
        <ele>2586</ele>
        <time>2021-12-23T11:45:22Z</time>
      </trkpt>
      <trkpt lat="45.24619" lon="6.11865">
        <ele>2586</ele>
        <time>2021-12-23T11:45:23Z</time>
      </trkpt>
      <trkpt lat="45.24619" lon="6.11864">
        <ele>2586</ele>
        <time>2021-12-23T11:45:24Z</time>
      </trkpt>
      <trkpt lat="45.24618" lon="6.11864">
        <ele>2586</ele>
        <time>2021-12-23T11:45:25Z</time>
      </trkpt>
      <trkpt lat="45.24618" lon="6.11864">
        <ele>2586</ele>
        <time>2021-12-23T11:45:26Z</time>
      </trkpt>
      <trkpt lat="45.24617" lon="6.11864">
        <ele>2587</ele>
        <time>2021-12-23T11:45:27Z</time>
      </trkpt>
      <trkpt lat="45.24616" lon="6.11864">
        <ele>2587</ele>
        <time>2021-12-23T11:45:28Z</time>
      </trkpt>
      <trkpt lat="45.24615" lon="6.11863">
        <ele>2587</ele>
        <time>2021-12-23T11:45:29Z</time>
      </trkpt>
      <trkpt lat="45.24615" lon="6.11863">
        <ele>2588</ele>
        <time>2021-12-23T11:45:30Z</time>
      </trkpt>
      <trkpt lat="45.24614" lon="6.11863">
        <ele>2588</ele>
        <time>2021-12-23T11:45:31Z</time>
      </trkpt>
      <trkpt lat="45.24613" lon="6.11863">
        <ele>2588</ele>
        <time>2021-12-23T11:45:32Z</time>
      </trkpt>
      <trkpt lat="45.24613" lon="6.11863">
        <ele>2588</ele>
        <time>2021-12-23T11:45:33Z</time>
      </trkpt>
      <trkpt lat="45.24612" lon="6.11862">
        <ele>2588</ele>
        <time>2021-12-23T11:45:34Z</time>
      </trkpt>
      <trkpt lat="45.24611" lon="6.11862">
        <ele>2588</ele>
        <time>2021-12-23T11:45:35Z</time>
      </trkpt>
      <trkpt lat="45.2461" lon="6.11862">
        <ele>2588</ele>
        <time>2021-12-23T11:45:37Z</time>
      </trkpt>
      <trkpt lat="45.2461" lon="6.11862">
        <ele>2588</ele>
        <time>2021-12-23T11:45:38Z</time>
      </trkpt>
      <trkpt lat="45.24609" lon="6.11862">
        <ele>2588</ele>
        <time>2021-12-23T11:45:39Z</time>
      </trkpt>
      <trkpt lat="45.24608" lon="6.11862">
        <ele>2589</ele>
        <time>2021-12-23T11:45:40Z</time>
      </trkpt>
      <trkpt lat="45.24608" lon="6.11862">
        <ele>2589</ele>
        <time>2021-12-23T11:45:41Z</time>
      </trkpt>
      <trkpt lat="45.24607" lon="6.11862">
        <ele>2589</ele>
        <time>2021-12-23T11:45:42Z</time>
      </trkpt>
      <trkpt lat="45.24606" lon="6.11862">
        <ele>2589</ele>
        <time>2021-12-23T11:45:43Z</time>
      </trkpt>
      <trkpt lat="45.24606" lon="6.11862">
        <ele>2589</ele>
        <time>2021-12-23T11:45:44Z</time>
      </trkpt>
      <trkpt lat="45.24605" lon="6.11862">
        <ele>2589</ele>
        <time>2021-12-23T11:45:45Z</time>
      </trkpt>
      <trkpt lat="45.24605" lon="6.11862">
        <ele>2589</ele>
        <time>2021-12-23T11:45:46Z</time>
      </trkpt>
      <trkpt lat="45.24604" lon="6.11862">
        <ele>2590</ele>
        <time>2021-12-23T11:45:47Z</time>
      </trkpt>
      <trkpt lat="45.24603" lon="6.11862">
        <ele>2590</ele>
        <time>2021-12-23T11:45:48Z</time>
      </trkpt>
      <trkpt lat="45.24603" lon="6.11862">
        <ele>2590</ele>
        <time>2021-12-23T11:45:49Z</time>
      </trkpt>
      <trkpt lat="45.24602" lon="6.11862">
        <ele>2590</ele>
        <time>2021-12-23T11:45:50Z</time>
      </trkpt>
      <trkpt lat="45.24601" lon="6.11862">
        <ele>2590</ele>
        <time>2021-12-23T11:45:51Z</time>
      </trkpt>
      <trkpt lat="45.24601" lon="6.11862">
        <ele>2590</ele>
        <time>2021-12-23T11:45:52Z</time>
      </trkpt>
      <trkpt lat="45.24601" lon="6.11862">
        <ele>2590</ele>
        <time>2021-12-23T11:45:53Z</time>
      </trkpt>
      <trkpt lat="45.24601" lon="6.11862">
        <ele>2590</ele>
        <time>2021-12-23T11:45:54Z</time>
      </trkpt>
      <trkpt lat="45.24601" lon="6.11862">
        <ele>2591</ele>
        <time>2021-12-23T11:45:56Z</time>
      </trkpt>
      <trkpt lat="45.24601" lon="6.11862">
        <ele>2591</ele>
        <time>2021-12-23T11:45:57Z</time>
      </trkpt>
      <trkpt lat="45.24601" lon="6.11862">
        <ele>2591</ele>
        <time>2021-12-23T11:45:58Z</time>
      </trkpt>
      <trkpt lat="45.24592" lon="6.11861">
        <ele>2591</ele>
        <time>2021-12-23T11:45:59Z</time>
      </trkpt>
      <trkpt lat="45.24592" lon="6.11861">
        <ele>2591</ele>
        <time>2021-12-23T11:46:01Z</time>
      </trkpt>
      <trkpt lat="45.24591" lon="6.11861">
        <ele>2591</ele>
        <time>2021-12-23T11:46:02Z</time>
      </trkpt>
      <trkpt lat="45.2459" lon="6.1186">
        <ele>2593</ele>
        <time>2021-12-23T11:46:03Z</time>
      </trkpt>
      <trkpt lat="45.2459" lon="6.11859">
        <ele>2593</ele>
        <time>2021-12-23T11:46:04Z</time>
      </trkpt>
      <trkpt lat="45.24589" lon="6.11859">
        <ele>2593</ele>
        <time>2021-12-23T11:46:05Z</time>
      </trkpt>
      <trkpt lat="45.24588" lon="6.11858">
        <ele>2593</ele>
        <time>2021-12-23T11:46:06Z</time>
      </trkpt>
      <trkpt lat="45.24588" lon="6.11857">
        <ele>2594</ele>
        <time>2021-12-23T11:46:07Z</time>
      </trkpt>
      <trkpt lat="45.24587" lon="6.11856">
        <ele>2594</ele>
        <time>2021-12-23T11:46:08Z</time>
      </trkpt>
      <trkpt lat="45.24586" lon="6.11856">
        <ele>2594</ele>
        <time>2021-12-23T11:46:09Z</time>
      </trkpt>
      <trkpt lat="45.24585" lon="6.11855">
        <ele>2594</ele>
        <time>2021-12-23T11:46:10Z</time>
      </trkpt>
      <trkpt lat="45.24585" lon="6.11854">
        <ele>2594</ele>
        <time>2021-12-23T11:46:11Z</time>
      </trkpt>
      <trkpt lat="45.24584" lon="6.11854">
        <ele>2594</ele>
        <time>2021-12-23T11:46:12Z</time>
      </trkpt>
      <trkpt lat="45.24584" lon="6.11854">
        <ele>2594</ele>
        <time>2021-12-23T11:46:13Z</time>
      </trkpt>
      <trkpt lat="45.24584" lon="6.11854">
        <ele>2594</ele>
        <time>2021-12-23T11:46:15Z</time>
      </trkpt>
      <trkpt lat="45.24584" lon="6.11854">
        <ele>2594</ele>
        <time>2021-12-23T11:46:16Z</time>
      </trkpt>
      <trkpt lat="45.24584" lon="6.11854">
        <ele>2594</ele>
        <time>2021-12-23T11:46:17Z</time>
      </trkpt>
      <trkpt lat="45.24584" lon="6.11854">
        <ele>2594</ele>
        <time>2021-12-23T11:46:18Z</time>
      </trkpt>
      <trkpt lat="45.24584" lon="6.11854">
        <ele>2594</ele>
        <time>2021-12-23T11:46:19Z</time>
      </trkpt>
      <trkpt lat="45.24584" lon="6.11854">
        <ele>2594</ele>
        <time>2021-12-23T11:46:20Z</time>
      </trkpt>
      <trkpt lat="45.24584" lon="6.11854">
        <ele>2594</ele>
        <time>2021-12-23T11:46:21Z</time>
      </trkpt>
      <trkpt lat="45.24584" lon="6.11854">
        <ele>2594</ele>
        <time>2021-12-23T11:46:22Z</time>
      </trkpt>
      <trkpt lat="45.24584" lon="6.11854">
        <ele>2595</ele>
        <time>2021-12-23T11:46:23Z</time>
      </trkpt>
      <trkpt lat="45.24584" lon="6.11854">
        <ele>2595</ele>
        <time>2021-12-23T11:46:24Z</time>
      </trkpt>
      <trkpt lat="45.24584" lon="6.11854">
        <ele>2595</ele>
        <time>2021-12-23T11:46:25Z</time>
      </trkpt>
      <trkpt lat="45.24584" lon="6.11854">
        <ele>2595</ele>
        <time>2021-12-23T11:46:26Z</time>
      </trkpt>
      <trkpt lat="45.24584" lon="6.11854">
        <ele>2595</ele>
        <time>2021-12-23T11:46:27Z</time>
      </trkpt>
      <trkpt lat="45.24584" lon="6.11854">
        <ele>2595</ele>
        <time>2021-12-23T11:46:28Z</time>
      </trkpt>
      <trkpt lat="45.24584" lon="6.11854">
        <ele>2596</ele>
        <time>2021-12-23T11:46:29Z</time>
      </trkpt>
      <trkpt lat="45.24584" lon="6.11854">
        <ele>2596</ele>
        <time>2021-12-23T11:46:30Z</time>
      </trkpt>
      <trkpt lat="45.24584" lon="6.11854">
        <ele>2597</ele>
        <time>2021-12-23T11:46:31Z</time>
      </trkpt>
      <trkpt lat="45.24584" lon="6.11854">
        <ele>2597</ele>
        <time>2021-12-23T11:46:32Z</time>
      </trkpt>
      <trkpt lat="45.24578" lon="6.11844">
        <ele>2598</ele>
        <time>2021-12-23T11:46:34Z</time>
      </trkpt>
      <trkpt lat="45.24577" lon="6.11844">
        <ele>2598</ele>
        <time>2021-12-23T11:46:35Z</time>
      </trkpt>
      <trkpt lat="45.24576" lon="6.11843">
        <ele>2598</ele>
        <time>2021-12-23T11:46:36Z</time>
      </trkpt>
      <trkpt lat="45.24576" lon="6.11843">
        <ele>2598</ele>
        <time>2021-12-23T11:46:37Z</time>
      </trkpt>
      <trkpt lat="45.24575" lon="6.11842">
        <ele>2598</ele>
        <time>2021-12-23T11:46:38Z</time>
      </trkpt>
      <trkpt lat="45.24574" lon="6.11842">
        <ele>2598</ele>
        <time>2021-12-23T11:46:39Z</time>
      </trkpt>
      <trkpt lat="45.24574" lon="6.11842">
        <ele>2598</ele>
        <time>2021-12-23T11:46:40Z</time>
      </trkpt>
      <trkpt lat="45.24573" lon="6.11841">
        <ele>2598</ele>
        <time>2021-12-23T11:46:41Z</time>
      </trkpt>
      <trkpt lat="45.24573" lon="6.11841">
        <ele>2598</ele>
        <time>2021-12-23T11:46:42Z</time>
      </trkpt>
      <trkpt lat="45.24572" lon="6.1184">
        <ele>2598</ele>
        <time>2021-12-23T11:46:43Z</time>
      </trkpt>
      <trkpt lat="45.24571" lon="6.1184">
        <ele>2598</ele>
        <time>2021-12-23T11:46:44Z</time>
      </trkpt>
      <trkpt lat="45.24571" lon="6.11839">
        <ele>2599</ele>
        <time>2021-12-23T11:46:45Z</time>
      </trkpt>
      <trkpt lat="45.2457" lon="6.11839">
        <ele>2599</ele>
        <time>2021-12-23T11:46:46Z</time>
      </trkpt>
      <trkpt lat="45.24569" lon="6.11838">
        <ele>2599</ele>
        <time>2021-12-23T11:46:47Z</time>
      </trkpt>
      <trkpt lat="45.24569" lon="6.11837">
        <ele>2599</ele>
        <time>2021-12-23T11:46:48Z</time>
      </trkpt>
      <trkpt lat="45.24569" lon="6.11837">
        <ele>2599</ele>
        <time>2021-12-23T11:46:49Z</time>
      </trkpt>
      <trkpt lat="45.24569" lon="6.11836">
        <ele>2599</ele>
        <time>2021-12-23T11:46:50Z</time>
      </trkpt>
      <trkpt lat="45.24569" lon="6.11835">
        <ele>2599</ele>
        <time>2021-12-23T11:46:51Z</time>
      </trkpt>
      <trkpt lat="45.24568" lon="6.11834">
        <ele>2599</ele>
        <time>2021-12-23T11:46:53Z</time>
      </trkpt>
      <trkpt lat="45.24568" lon="6.11833">
        <ele>2599</ele>
        <time>2021-12-23T11:46:54Z</time>
      </trkpt>
      <trkpt lat="45.24568" lon="6.11832">
        <ele>2600</ele>
        <time>2021-12-23T11:46:55Z</time>
      </trkpt>
      <trkpt lat="45.24568" lon="6.11831">
        <ele>2600</ele>
        <time>2021-12-23T11:46:56Z</time>
      </trkpt>
      <trkpt lat="45.24568" lon="6.1183">
        <ele>2600</ele>
        <time>2021-12-23T11:46:57Z</time>
      </trkpt>
      <trkpt lat="45.24568" lon="6.11829">
        <ele>2600</ele>
        <time>2021-12-23T11:46:58Z</time>
      </trkpt>
      <trkpt lat="45.24567" lon="6.11828">
        <ele>2601</ele>
        <time>2021-12-23T11:46:59Z</time>
      </trkpt>
      <trkpt lat="45.24567" lon="6.11827">
        <ele>2601</ele>
        <time>2021-12-23T11:47:00Z</time>
      </trkpt>
      <trkpt lat="45.24567" lon="6.11826">
        <ele>2601</ele>
        <time>2021-12-23T11:47:01Z</time>
      </trkpt>
      <trkpt lat="45.24567" lon="6.11826">
        <ele>2601</ele>
        <time>2021-12-23T11:47:02Z</time>
      </trkpt>
      <trkpt lat="45.24567" lon="6.11826">
        <ele>2602</ele>
        <time>2021-12-23T11:47:03Z</time>
      </trkpt>
      <trkpt lat="45.24567" lon="6.11826">
        <ele>2602</ele>
        <time>2021-12-23T11:47:04Z</time>
      </trkpt>
      <trkpt lat="45.24567" lon="6.11826">
        <ele>2602</ele>
        <time>2021-12-23T11:47:05Z</time>
      </trkpt>
      <trkpt lat="45.24567" lon="6.11826">
        <ele>2602</ele>
        <time>2021-12-23T11:47:06Z</time>
      </trkpt>
      <trkpt lat="45.24567" lon="6.11826">
        <ele>2603</ele>
        <time>2021-12-23T11:47:07Z</time>
      </trkpt>
      <trkpt lat="45.24567" lon="6.11826">
        <ele>2603</ele>
        <time>2021-12-23T11:47:08Z</time>
      </trkpt>
      <trkpt lat="45.24567" lon="6.11826">
        <ele>2603</ele>
        <time>2021-12-23T11:47:09Z</time>
      </trkpt>
      <trkpt lat="45.24567" lon="6.11826">
        <ele>2603</ele>
        <time>2021-12-23T11:47:10Z</time>
      </trkpt>
      <trkpt lat="45.24567" lon="6.11826">
        <ele>2603</ele>
        <time>2021-12-23T11:47:12Z</time>
      </trkpt>
      <trkpt lat="45.24558" lon="6.11829">
        <ele>2603</ele>
        <time>2021-12-23T11:47:13Z</time>
      </trkpt>
      <trkpt lat="45.24558" lon="6.11829">
        <ele>2605</ele>
        <time>2021-12-23T11:47:15Z</time>
      </trkpt>
      <trkpt lat="45.24557" lon="6.11828">
        <ele>2605</ele>
        <time>2021-12-23T11:47:16Z</time>
      </trkpt>
      <trkpt lat="45.24557" lon="6.11828">
        <ele>2605</ele>
        <time>2021-12-23T11:47:17Z</time>
      </trkpt>
      <trkpt lat="45.24556" lon="6.11827">
        <ele>2605</ele>
        <time>2021-12-23T11:47:18Z</time>
      </trkpt>
      <trkpt lat="45.24555" lon="6.11826">
        <ele>2605</ele>
        <time>2021-12-23T11:47:19Z</time>
      </trkpt>
      <trkpt lat="45.24555" lon="6.11826">
        <ele>2605</ele>
        <time>2021-12-23T11:47:20Z</time>
      </trkpt>
      <trkpt lat="45.24554" lon="6.11825">
        <ele>2605</ele>
        <time>2021-12-23T11:47:21Z</time>
      </trkpt>
      <trkpt lat="45.24553" lon="6.11824">
        <ele>2605</ele>
        <time>2021-12-23T11:47:22Z</time>
      </trkpt>
      <trkpt lat="45.24553" lon="6.11824">
        <ele>2606</ele>
        <time>2021-12-23T11:47:23Z</time>
      </trkpt>
      <trkpt lat="45.24552" lon="6.11823">
        <ele>2606</ele>
        <time>2021-12-23T11:47:24Z</time>
      </trkpt>
      <trkpt lat="45.24551" lon="6.11822">
        <ele>2606</ele>
        <time>2021-12-23T11:47:25Z</time>
      </trkpt>
      <trkpt lat="45.24551" lon="6.11822">
        <ele>2607</ele>
        <time>2021-12-23T11:47:26Z</time>
      </trkpt>
      <trkpt lat="45.2455" lon="6.11821">
        <ele>2607</ele>
        <time>2021-12-23T11:47:27Z</time>
      </trkpt>
      <trkpt lat="45.2455" lon="6.11821">
        <ele>2607</ele>
        <time>2021-12-23T11:47:28Z</time>
      </trkpt>
      <trkpt lat="45.2455" lon="6.11821">
        <ele>2607</ele>
        <time>2021-12-23T11:47:29Z</time>
      </trkpt>
      <trkpt lat="45.2455" lon="6.11821">
        <ele>2607</ele>
        <time>2021-12-23T11:47:31Z</time>
      </trkpt>
      <trkpt lat="45.2455" lon="6.1182">
        <ele>2607</ele>
        <time>2021-12-23T11:47:32Z</time>
      </trkpt>
      <trkpt lat="45.2455" lon="6.1182">
        <ele>2607</ele>
        <time>2021-12-23T11:47:33Z</time>
      </trkpt>
      <trkpt lat="45.2455" lon="6.1182">
        <ele>2607</ele>
        <time>2021-12-23T11:47:34Z</time>
      </trkpt>
      <trkpt lat="45.2455" lon="6.1182">
        <ele>2607</ele>
        <time>2021-12-23T11:47:35Z</time>
      </trkpt>
      <trkpt lat="45.2455" lon="6.1182">
        <ele>2607</ele>
        <time>2021-12-23T11:47:36Z</time>
      </trkpt>
      <trkpt lat="45.2455" lon="6.1182">
        <ele>2607</ele>
        <time>2021-12-23T11:47:37Z</time>
      </trkpt>
      <trkpt lat="45.2455" lon="6.1182">
        <ele>2607</ele>
        <time>2021-12-23T11:47:38Z</time>
      </trkpt>
      <trkpt lat="45.2455" lon="6.1182">
        <ele>2607</ele>
        <time>2021-12-23T11:47:39Z</time>
      </trkpt>
      <trkpt lat="45.2455" lon="6.1182">
        <ele>2607</ele>
        <time>2021-12-23T11:47:40Z</time>
      </trkpt>
      <trkpt lat="45.2455" lon="6.11819">
        <ele>2606</ele>
        <time>2021-12-23T11:47:41Z</time>
      </trkpt>
      <trkpt lat="45.2455" lon="6.11819">
        <ele>2606</ele>
        <time>2021-12-23T11:47:42Z</time>
      </trkpt>
      <trkpt lat="45.2455" lon="6.11819">
        <ele>2606</ele>
        <time>2021-12-23T11:47:43Z</time>
      </trkpt>
      <trkpt lat="45.2455" lon="6.11819">
        <ele>2607</ele>
        <time>2021-12-23T11:47:44Z</time>
      </trkpt>
      <trkpt lat="45.2455" lon="6.11819">
        <ele>2607</ele>
        <time>2021-12-23T11:47:45Z</time>
      </trkpt>
      <trkpt lat="45.2455" lon="6.11819">
        <ele>2607</ele>
        <time>2021-12-23T11:47:46Z</time>
      </trkpt>
      <trkpt lat="45.2455" lon="6.11819">
        <ele>2607</ele>
        <time>2021-12-23T11:47:47Z</time>
      </trkpt>
      <trkpt lat="45.2455" lon="6.11819">
        <ele>2607</ele>
        <time>2021-12-23T11:47:48Z</time>
      </trkpt>
      <trkpt lat="45.2455" lon="6.11819">
        <ele>2607</ele>
        <time>2021-12-23T11:47:50Z</time>
      </trkpt>
      <trkpt lat="45.2455" lon="6.11819">
        <ele>2607</ele>
        <time>2021-12-23T11:47:51Z</time>
      </trkpt>
      <trkpt lat="45.2455" lon="6.11818">
        <ele>2607</ele>
        <time>2021-12-23T11:47:52Z</time>
      </trkpt>
      <trkpt lat="45.2455" lon="6.11818">
        <ele>2607</ele>
        <time>2021-12-23T11:47:53Z</time>
      </trkpt>
      <trkpt lat="45.2455" lon="6.11818">
        <ele>2607</ele>
        <time>2021-12-23T11:47:54Z</time>
      </trkpt>
      <trkpt lat="45.2455" lon="6.11818">
        <ele>2607</ele>
        <time>2021-12-23T11:47:55Z</time>
      </trkpt>
      <trkpt lat="45.2455" lon="6.11818">
        <ele>2607</ele>
        <time>2021-12-23T11:47:56Z</time>
      </trkpt>
      <trkpt lat="45.2455" lon="6.11818">
        <ele>2607</ele>
        <time>2021-12-23T11:47:57Z</time>
      </trkpt>
      <trkpt lat="45.2455" lon="6.11818">
        <ele>2607</ele>
        <time>2021-12-23T11:47:58Z</time>
      </trkpt>
      <trkpt lat="45.2455" lon="6.11818">
        <ele>2607</ele>
        <time>2021-12-23T11:47:59Z</time>
      </trkpt>
      <trkpt lat="45.2455" lon="6.11818">
        <ele>2607</ele>
        <time>2021-12-23T11:48:00Z</time>
      </trkpt>
      <trkpt lat="45.2455" lon="6.11817">
        <ele>2607</ele>
        <time>2021-12-23T11:48:01Z</time>
      </trkpt>
      <trkpt lat="45.2455" lon="6.11817">
        <ele>2607</ele>
        <time>2021-12-23T11:48:02Z</time>
      </trkpt>
      <trkpt lat="45.2455" lon="6.11817">
        <ele>2607</ele>
        <time>2021-12-23T11:48:03Z</time>
      </trkpt>
      <trkpt lat="45.2455" lon="6.11817">
        <ele>2607</ele>
        <time>2021-12-23T11:48:04Z</time>
      </trkpt>
      <trkpt lat="45.2455" lon="6.11817">
        <ele>2607</ele>
        <time>2021-12-23T11:48:05Z</time>
      </trkpt>
      <trkpt lat="45.2455" lon="6.11817">
        <ele>2607</ele>
        <time>2021-12-23T11:48:06Z</time>
      </trkpt>
      <trkpt lat="45.2455" lon="6.11817">
        <ele>2607</ele>
        <time>2021-12-23T11:48:07Z</time>
      </trkpt>
      <trkpt lat="45.2455" lon="6.11817">
        <ele>2607</ele>
        <time>2021-12-23T11:48:09Z</time>
      </trkpt>
      <trkpt lat="45.2455" lon="6.11817">
        <ele>2607</ele>
        <time>2021-12-23T11:48:10Z</time>
      </trkpt>
      <trkpt lat="45.2455" lon="6.11816">
        <ele>2607</ele>
        <time>2021-12-23T11:48:11Z</time>
      </trkpt>
      <trkpt lat="45.2455" lon="6.11816">
        <ele>2607</ele>
        <time>2021-12-23T11:48:12Z</time>
      </trkpt>
      <trkpt lat="45.2455" lon="6.11816">
        <ele>2607</ele>
        <time>2021-12-23T11:48:13Z</time>
      </trkpt>
      <trkpt lat="45.2455" lon="6.11816">
        <ele>2607</ele>
        <time>2021-12-23T11:48:14Z</time>
      </trkpt>
      <trkpt lat="45.2455" lon="6.11816">
        <ele>2607</ele>
        <time>2021-12-23T11:48:15Z</time>
      </trkpt>
      <trkpt lat="45.24549" lon="6.11816">
        <ele>2607</ele>
        <time>2021-12-23T11:48:16Z</time>
      </trkpt>
      <trkpt lat="45.24549" lon="6.11816">
        <ele>2607</ele>
        <time>2021-12-23T11:48:17Z</time>
      </trkpt>
      <trkpt lat="45.24549" lon="6.11816">
        <ele>2607</ele>
        <time>2021-12-23T11:48:18Z</time>
      </trkpt>
      <trkpt lat="45.24549" lon="6.11816">
        <ele>2607</ele>
        <time>2021-12-23T11:48:20Z</time>
      </trkpt>
      <trkpt lat="45.24549" lon="6.11815">
        <ele>2607</ele>
        <time>2021-12-23T11:48:21Z</time>
      </trkpt>
      <trkpt lat="45.24549" lon="6.11815">
        <ele>2607</ele>
        <time>2021-12-23T11:48:22Z</time>
      </trkpt>
      <trkpt lat="45.24549" lon="6.11815">
        <ele>2607</ele>
        <time>2021-12-23T11:48:23Z</time>
      </trkpt>
      <trkpt lat="45.24549" lon="6.11815">
        <ele>2607</ele>
        <time>2021-12-23T11:48:24Z</time>
      </trkpt>
      <trkpt lat="45.24549" lon="6.11815">
        <ele>2607</ele>
        <time>2021-12-23T11:48:25Z</time>
      </trkpt>
      <trkpt lat="45.24549" lon="6.11815">
        <ele>2607</ele>
        <time>2021-12-23T11:48:26Z</time>
      </trkpt>
      <trkpt lat="45.24549" lon="6.11815">
        <ele>2607</ele>
        <time>2021-12-23T11:48:28Z</time>
      </trkpt>
      <trkpt lat="45.24549" lon="6.11815">
        <ele>2607</ele>
        <time>2021-12-23T11:48:29Z</time>
      </trkpt>
      <trkpt lat="45.24549" lon="6.11815">
        <ele>2607</ele>
        <time>2021-12-23T11:48:30Z</time>
      </trkpt>
      <trkpt lat="45.24549" lon="6.11814">
        <ele>2607</ele>
        <time>2021-12-23T11:48:31Z</time>
      </trkpt>
      <trkpt lat="45.24549" lon="6.11814">
        <ele>2607</ele>
        <time>2021-12-23T11:48:32Z</time>
      </trkpt>
      <trkpt lat="45.24549" lon="6.11814">
        <ele>2607</ele>
        <time>2021-12-23T11:48:33Z</time>
      </trkpt>
      <trkpt lat="45.24549" lon="6.11814">
        <ele>2607</ele>
        <time>2021-12-23T11:48:34Z</time>
      </trkpt>
      <trkpt lat="45.24549" lon="6.11814">
        <ele>2607</ele>
        <time>2021-12-23T11:48:35Z</time>
      </trkpt>
      <trkpt lat="45.24549" lon="6.11814">
        <ele>2607</ele>
        <time>2021-12-23T11:48:36Z</time>
      </trkpt>
      <trkpt lat="45.24549" lon="6.11814">
        <ele>2607</ele>
        <time>2021-12-23T11:48:37Z</time>
      </trkpt>
      <trkpt lat="45.24549" lon="6.11814">
        <ele>2607</ele>
        <time>2021-12-23T11:48:38Z</time>
      </trkpt>
      <trkpt lat="45.24549" lon="6.11814">
        <ele>2607</ele>
        <time>2021-12-23T11:48:39Z</time>
      </trkpt>
      <trkpt lat="45.24549" lon="6.11813">
        <ele>2607</ele>
        <time>2021-12-23T11:48:40Z</time>
      </trkpt>
      <trkpt lat="45.24549" lon="6.11813">
        <ele>2607</ele>
        <time>2021-12-23T11:48:41Z</time>
      </trkpt>
      <trkpt lat="45.24549" lon="6.11813">
        <ele>2606</ele>
        <time>2021-12-23T11:48:42Z</time>
      </trkpt>
      <trkpt lat="45.24549" lon="6.11813">
        <ele>2606</ele>
        <time>2021-12-23T11:48:43Z</time>
      </trkpt>
      <trkpt lat="45.24549" lon="6.11813">
        <ele>2606</ele>
        <time>2021-12-23T11:48:44Z</time>
      </trkpt>
      <trkpt lat="45.24549" lon="6.11813">
        <ele>2606</ele>
        <time>2021-12-23T11:48:45Z</time>
      </trkpt>
      <trkpt lat="45.24549" lon="6.11813">
        <ele>2606</ele>
        <time>2021-12-23T11:48:47Z</time>
      </trkpt>
      <trkpt lat="45.24549" lon="6.11813">
        <ele>2606</ele>
        <time>2021-12-23T11:48:48Z</time>
      </trkpt>
      <trkpt lat="45.24549" lon="6.11813">
        <ele>2606</ele>
        <time>2021-12-23T11:48:49Z</time>
      </trkpt>
      <trkpt lat="45.24549" lon="6.11813">
        <ele>2606</ele>
        <time>2021-12-23T11:48:50Z</time>
      </trkpt>
      <trkpt lat="45.24549" lon="6.11812">
        <ele>2606</ele>
        <time>2021-12-23T11:48:51Z</time>
      </trkpt>
      <trkpt lat="45.24549" lon="6.11812">
        <ele>2606</ele>
        <time>2021-12-23T11:48:52Z</time>
      </trkpt>
      <trkpt lat="45.24549" lon="6.11812">
        <ele>2606</ele>
        <time>2021-12-23T11:48:53Z</time>
      </trkpt>
      <trkpt lat="45.24549" lon="6.11812">
        <ele>2606</ele>
        <time>2021-12-23T11:48:54Z</time>
      </trkpt>
      <trkpt lat="45.24549" lon="6.11812">
        <ele>2606</ele>
        <time>2021-12-23T11:48:55Z</time>
      </trkpt>
      <trkpt lat="45.24549" lon="6.11812">
        <ele>2606</ele>
        <time>2021-12-23T11:48:56Z</time>
      </trkpt>
      <trkpt lat="45.24549" lon="6.11812">
        <ele>2606</ele>
        <time>2021-12-23T11:48:57Z</time>
      </trkpt>
      <trkpt lat="45.24549" lon="6.11812">
        <ele>2607</ele>
        <time>2021-12-23T11:48:58Z</time>
      </trkpt>
      <trkpt lat="45.24549" lon="6.11812">
        <ele>2607</ele>
        <time>2021-12-23T11:48:59Z</time>
      </trkpt>
      <trkpt lat="45.24549" lon="6.11811">
        <ele>2607</ele>
        <time>2021-12-23T11:49:00Z</time>
      </trkpt>
      <trkpt lat="45.24549" lon="6.11811">
        <ele>2607</ele>
        <time>2021-12-23T11:49:01Z</time>
      </trkpt>
      <trkpt lat="45.24549" lon="6.11811">
        <ele>2607</ele>
        <time>2021-12-23T11:49:02Z</time>
      </trkpt>
      <trkpt lat="45.24549" lon="6.11811">
        <ele>2607</ele>
        <time>2021-12-23T11:49:03Z</time>
      </trkpt>
      <trkpt lat="45.24549" lon="6.11811">
        <ele>2607</ele>
        <time>2021-12-23T11:49:04Z</time>
      </trkpt>
      <trkpt lat="45.24549" lon="6.11811">
        <ele>2607</ele>
        <time>2021-12-23T11:49:06Z</time>
      </trkpt>
      <trkpt lat="45.24549" lon="6.11811">
        <ele>2607</ele>
        <time>2021-12-23T11:49:07Z</time>
      </trkpt>
      <trkpt lat="45.24549" lon="6.11811">
        <ele>2607</ele>
        <time>2021-12-23T11:49:08Z</time>
      </trkpt>
      <trkpt lat="45.24549" lon="6.11811">
        <ele>2607</ele>
        <time>2021-12-23T11:49:09Z</time>
      </trkpt>
      <trkpt lat="45.24549" lon="6.1181">
        <ele>2607</ele>
        <time>2021-12-23T11:49:10Z</time>
      </trkpt>
      <trkpt lat="45.24549" lon="6.1181">
        <ele>2607</ele>
        <time>2021-12-23T11:49:11Z</time>
      </trkpt>
      <trkpt lat="45.24549" lon="6.1181">
        <ele>2607</ele>
        <time>2021-12-23T11:49:12Z</time>
      </trkpt>
      <trkpt lat="45.24549" lon="6.1181">
        <ele>2607</ele>
        <time>2021-12-23T11:49:13Z</time>
      </trkpt>
      <trkpt lat="45.24549" lon="6.1181">
        <ele>2607</ele>
        <time>2021-12-23T11:49:14Z</time>
      </trkpt>
      <trkpt lat="45.24549" lon="6.1181">
        <ele>2607</ele>
        <time>2021-12-23T11:49:15Z</time>
      </trkpt>
      <trkpt lat="45.24549" lon="6.1181">
        <ele>2607</ele>
        <time>2021-12-23T11:49:16Z</time>
      </trkpt>
      <trkpt lat="45.24549" lon="6.1181">
        <ele>2607</ele>
        <time>2021-12-23T11:49:17Z</time>
      </trkpt>
      <trkpt lat="45.24549" lon="6.1181">
        <ele>2607</ele>
        <time>2021-12-23T11:49:18Z</time>
      </trkpt>
      <trkpt lat="45.24549" lon="6.11809">
        <ele>2607</ele>
        <time>2021-12-23T11:49:19Z</time>
      </trkpt>
      <trkpt lat="45.24549" lon="6.11809">
        <ele>2607</ele>
        <time>2021-12-23T11:49:20Z</time>
      </trkpt>
      <trkpt lat="45.24549" lon="6.11809">
        <ele>2607</ele>
        <time>2021-12-23T11:49:21Z</time>
      </trkpt>
      <trkpt lat="45.24549" lon="6.11809">
        <ele>2607</ele>
        <time>2021-12-23T11:49:22Z</time>
      </trkpt>
      <trkpt lat="45.24549" lon="6.11809">
        <ele>2607</ele>
        <time>2021-12-23T11:49:23Z</time>
      </trkpt>
      <trkpt lat="45.24549" lon="6.11809">
        <ele>2607</ele>
        <time>2021-12-23T11:49:25Z</time>
      </trkpt>
      <trkpt lat="45.24549" lon="6.11809">
        <ele>2607</ele>
        <time>2021-12-23T11:49:26Z</time>
      </trkpt>
      <trkpt lat="45.24549" lon="6.11809">
        <ele>2607</ele>
        <time>2021-12-23T11:49:27Z</time>
      </trkpt>
      <trkpt lat="45.24549" lon="6.11809">
        <ele>2607</ele>
        <time>2021-12-23T11:49:28Z</time>
      </trkpt>
      <trkpt lat="45.24549" lon="6.11808">
        <ele>2607</ele>
        <time>2021-12-23T11:49:29Z</time>
      </trkpt>
      <trkpt lat="45.24549" lon="6.11808">
        <ele>2607</ele>
        <time>2021-12-23T11:49:30Z</time>
      </trkpt>
      <trkpt lat="45.24548" lon="6.11808">
        <ele>2607</ele>
        <time>2021-12-23T11:49:31Z</time>
      </trkpt>
      <trkpt lat="45.24548" lon="6.11808">
        <ele>2608</ele>
        <time>2021-12-23T11:49:32Z</time>
      </trkpt>
      <trkpt lat="45.24548" lon="6.11808">
        <ele>2608</ele>
        <time>2021-12-23T11:49:33Z</time>
      </trkpt>
      <trkpt lat="45.24548" lon="6.11808">
        <ele>2608</ele>
        <time>2021-12-23T11:49:34Z</time>
      </trkpt>
      <trkpt lat="45.24548" lon="6.11808">
        <ele>2608</ele>
        <time>2021-12-23T11:49:35Z</time>
      </trkpt>
      <trkpt lat="45.24548" lon="6.11807">
        <ele>2608</ele>
        <time>2021-12-23T11:49:36Z</time>
      </trkpt>
      <trkpt lat="45.24548" lon="6.11807">
        <ele>2609</ele>
        <time>2021-12-23T11:49:37Z</time>
      </trkpt>
      <trkpt lat="45.24548" lon="6.11807">
        <ele>2609</ele>
        <time>2021-12-23T11:49:38Z</time>
      </trkpt>
      <trkpt lat="45.24547" lon="6.11806">
        <ele>2609</ele>
        <time>2021-12-23T11:49:39Z</time>
      </trkpt>
      <trkpt lat="45.24547" lon="6.11806">
        <ele>2609</ele>
        <time>2021-12-23T11:49:40Z</time>
      </trkpt>
      <trkpt lat="45.24547" lon="6.11806">
        <ele>2609</ele>
        <time>2021-12-23T11:49:41Z</time>
      </trkpt>
      <trkpt lat="45.24546" lon="6.11805">
        <ele>2609</ele>
        <time>2021-12-23T11:49:42Z</time>
      </trkpt>
      <trkpt lat="45.24546" lon="6.11805">
        <ele>2609</ele>
        <time>2021-12-23T11:49:44Z</time>
      </trkpt>
      <trkpt lat="45.24546" lon="6.11805">
        <ele>2609</ele>
        <time>2021-12-23T11:49:45Z</time>
      </trkpt>
      <trkpt lat="45.24545" lon="6.11804">
        <ele>2609</ele>
        <time>2021-12-23T11:49:46Z</time>
      </trkpt>
      <trkpt lat="45.24545" lon="6.11804">
        <ele>2609</ele>
        <time>2021-12-23T11:49:47Z</time>
      </trkpt>
      <trkpt lat="45.24545" lon="6.11804">
        <ele>2610</ele>
        <time>2021-12-23T11:49:48Z</time>
      </trkpt>
      <trkpt lat="45.24544" lon="6.11803">
        <ele>2610</ele>
        <time>2021-12-23T11:49:49Z</time>
      </trkpt>
      <trkpt lat="45.24544" lon="6.11803">
        <ele>2610</ele>
        <time>2021-12-23T11:49:50Z</time>
      </trkpt>
      <trkpt lat="45.24544" lon="6.11802">
        <ele>2610</ele>
        <time>2021-12-23T11:49:51Z</time>
      </trkpt>
      <trkpt lat="45.24543" lon="6.11802">
        <ele>2610</ele>
        <time>2021-12-23T11:49:52Z</time>
      </trkpt>
      <trkpt lat="45.24543" lon="6.11802">
        <ele>2610</ele>
        <time>2021-12-23T11:49:53Z</time>
      </trkpt>
      <trkpt lat="45.24543" lon="6.11801">
        <ele>2611</ele>
        <time>2021-12-23T11:49:54Z</time>
      </trkpt>
      <trkpt lat="45.24543" lon="6.11801">
        <ele>2611</ele>
        <time>2021-12-23T11:49:55Z</time>
      </trkpt>
      <trkpt lat="45.24542" lon="6.11801">
        <ele>2611</ele>
        <time>2021-12-23T11:49:56Z</time>
      </trkpt>
      <trkpt lat="45.24542" lon="6.118">
        <ele>2612</ele>
        <time>2021-12-23T11:49:57Z</time>
      </trkpt>
      <trkpt lat="45.24542" lon="6.118">
        <ele>2612</ele>
        <time>2021-12-23T11:49:58Z</time>
      </trkpt>
      <trkpt lat="45.24541" lon="6.118">
        <ele>2612</ele>
        <time>2021-12-23T11:49:59Z</time>
      </trkpt>
      <trkpt lat="45.2454" lon="6.11799">
        <ele>2612</ele>
        <time>2021-12-23T11:50:00Z</time>
      </trkpt>
      <trkpt lat="45.2454" lon="6.11799">
        <ele>2612</ele>
        <time>2021-12-23T11:50:01Z</time>
      </trkpt>
      <trkpt lat="45.24539" lon="6.11798">
        <ele>2613</ele>
        <time>2021-12-23T11:50:03Z</time>
      </trkpt>
      <trkpt lat="45.24539" lon="6.11798">
        <ele>2613</ele>
        <time>2021-12-23T11:50:04Z</time>
      </trkpt>
      <trkpt lat="45.24538" lon="6.11797">
        <ele>2613</ele>
        <time>2021-12-23T11:50:05Z</time>
      </trkpt>
      <trkpt lat="45.24538" lon="6.11797">
        <ele>2613</ele>
        <time>2021-12-23T11:50:06Z</time>
      </trkpt>
      <trkpt lat="45.24537" lon="6.11796">
        <ele>2613</ele>
        <time>2021-12-23T11:50:07Z</time>
      </trkpt>
      <trkpt lat="45.24536" lon="6.11796">
        <ele>2614</ele>
        <time>2021-12-23T11:50:08Z</time>
      </trkpt>
      <trkpt lat="45.24536" lon="6.11795">
        <ele>2614</ele>
        <time>2021-12-23T11:50:09Z</time>
      </trkpt>
      <trkpt lat="45.24535" lon="6.11795">
        <ele>2614</ele>
        <time>2021-12-23T11:50:10Z</time>
      </trkpt>
      <trkpt lat="45.24535" lon="6.11794">
        <ele>2614</ele>
        <time>2021-12-23T11:50:11Z</time>
      </trkpt>
      <trkpt lat="45.24534" lon="6.11794">
        <ele>2614</ele>
        <time>2021-12-23T11:50:12Z</time>
      </trkpt>
      <trkpt lat="45.24533" lon="6.11794">
        <ele>2615</ele>
        <time>2021-12-23T11:50:13Z</time>
      </trkpt>
      <trkpt lat="45.24533" lon="6.11793">
        <ele>2615</ele>
        <time>2021-12-23T11:50:14Z</time>
      </trkpt>
      <trkpt lat="45.24533" lon="6.11792">
        <ele>2615</ele>
        <time>2021-12-23T11:50:15Z</time>
      </trkpt>
      <trkpt lat="45.24533" lon="6.11791">
        <ele>2615</ele>
        <time>2021-12-23T11:50:16Z</time>
      </trkpt>
      <trkpt lat="45.24532" lon="6.11791">
        <ele>2615</ele>
        <time>2021-12-23T11:50:17Z</time>
      </trkpt>
      <trkpt lat="45.24532" lon="6.1179">
        <ele>2615</ele>
        <time>2021-12-23T11:50:18Z</time>
      </trkpt>
      <trkpt lat="45.24532" lon="6.11789">
        <ele>2615</ele>
        <time>2021-12-23T11:50:19Z</time>
      </trkpt>
      <trkpt lat="45.24531" lon="6.11788">
        <ele>2616</ele>
        <time>2021-12-23T11:50:20Z</time>
      </trkpt>
      <trkpt lat="45.24531" lon="6.11787">
        <ele>2616</ele>
        <time>2021-12-23T11:50:22Z</time>
      </trkpt>
      <trkpt lat="45.24531" lon="6.11787">
        <ele>2617</ele>
        <time>2021-12-23T11:50:23Z</time>
      </trkpt>
      <trkpt lat="45.2453" lon="6.11786">
        <ele>2617</ele>
        <time>2021-12-23T11:50:24Z</time>
      </trkpt>
      <trkpt lat="45.2453" lon="6.11785">
        <ele>2617</ele>
        <time>2021-12-23T11:50:25Z</time>
      </trkpt>
      <trkpt lat="45.2453" lon="6.11784">
        <ele>2617</ele>
        <time>2021-12-23T11:50:26Z</time>
      </trkpt>
      <trkpt lat="45.24529" lon="6.11784">
        <ele>2617</ele>
        <time>2021-12-23T11:50:27Z</time>
      </trkpt>
      <trkpt lat="45.24529" lon="6.11783">
        <ele>2617</ele>
        <time>2021-12-23T11:50:28Z</time>
      </trkpt>
      <trkpt lat="45.24529" lon="6.11783">
        <ele>2617</ele>
        <time>2021-12-23T11:50:29Z</time>
      </trkpt>
      <trkpt lat="45.24529" lon="6.11783">
        <ele>2619</ele>
        <time>2021-12-23T11:50:30Z</time>
      </trkpt>
      <trkpt lat="45.24529" lon="6.11783">
        <ele>2619</ele>
        <time>2021-12-23T11:50:31Z</time>
      </trkpt>
      <trkpt lat="45.24529" lon="6.11783">
        <ele>2619</ele>
        <time>2021-12-23T11:50:32Z</time>
      </trkpt>
      <trkpt lat="45.24529" lon="6.11783">
        <ele>2619</ele>
        <time>2021-12-23T11:50:33Z</time>
      </trkpt>
      <trkpt lat="45.24529" lon="6.11783">
        <ele>2620</ele>
        <time>2021-12-23T11:50:34Z</time>
      </trkpt>
      <trkpt lat="45.24529" lon="6.11783">
        <ele>2620</ele>
        <time>2021-12-23T11:50:35Z</time>
      </trkpt>
      <trkpt lat="45.24529" lon="6.11783">
        <ele>2620</ele>
        <time>2021-12-23T11:50:36Z</time>
      </trkpt>
      <trkpt lat="45.24529" lon="6.11783">
        <ele>2620</ele>
        <time>2021-12-23T11:50:37Z</time>
      </trkpt>
      <trkpt lat="45.24529" lon="6.11783">
        <ele>2620</ele>
        <time>2021-12-23T11:50:38Z</time>
      </trkpt>
      <trkpt lat="45.24529" lon="6.11783">
        <ele>2621</ele>
        <time>2021-12-23T11:50:39Z</time>
      </trkpt>
      <trkpt lat="45.24524" lon="6.11772">
        <ele>2621</ele>
        <time>2021-12-23T11:50:41Z</time>
      </trkpt>
      <trkpt lat="45.24523" lon="6.11771">
        <ele>2621</ele>
        <time>2021-12-23T11:50:42Z</time>
      </trkpt>
      <trkpt lat="45.24523" lon="6.11771">
        <ele>2621</ele>
        <time>2021-12-23T11:50:43Z</time>
      </trkpt>
      <trkpt lat="45.24522" lon="6.1177">
        <ele>2621</ele>
        <time>2021-12-23T11:50:44Z</time>
      </trkpt>
      <trkpt lat="45.24521" lon="6.1177">
        <ele>2621</ele>
        <time>2021-12-23T11:50:45Z</time>
      </trkpt>
      <trkpt lat="45.24521" lon="6.11769">
        <ele>2622</ele>
        <time>2021-12-23T11:50:46Z</time>
      </trkpt>
      <trkpt lat="45.2452" lon="6.11768">
        <ele>2622</ele>
        <time>2021-12-23T11:50:47Z</time>
      </trkpt>
      <trkpt lat="45.24519" lon="6.11768">
        <ele>2622</ele>
        <time>2021-12-23T11:50:48Z</time>
      </trkpt>
      <trkpt lat="45.24519" lon="6.11767">
        <ele>2622</ele>
        <time>2021-12-23T11:50:49Z</time>
      </trkpt>
      <trkpt lat="45.24518" lon="6.11767">
        <ele>2622</ele>
        <time>2021-12-23T11:50:50Z</time>
      </trkpt>
      <trkpt lat="45.24517" lon="6.11766">
        <ele>2623</ele>
        <time>2021-12-23T11:50:51Z</time>
      </trkpt>
      <trkpt lat="45.24516" lon="6.11766">
        <ele>2623</ele>
        <time>2021-12-23T11:50:52Z</time>
      </trkpt>
      <trkpt lat="45.24516" lon="6.11765">
        <ele>2623</ele>
        <time>2021-12-23T11:50:53Z</time>
      </trkpt>
      <trkpt lat="45.24515" lon="6.11765">
        <ele>2623</ele>
        <time>2021-12-23T11:50:54Z</time>
      </trkpt>
      <trkpt lat="45.24515" lon="6.11764">
        <ele>2623</ele>
        <time>2021-12-23T11:50:55Z</time>
      </trkpt>
      <trkpt lat="45.24514" lon="6.11763">
        <ele>2623</ele>
        <time>2021-12-23T11:50:56Z</time>
      </trkpt>
      <trkpt lat="45.24513" lon="6.11763">
        <ele>2623</ele>
        <time>2021-12-23T11:50:57Z</time>
      </trkpt>
      <trkpt lat="45.24513" lon="6.11762">
        <ele>2624</ele>
        <time>2021-12-23T11:50:58Z</time>
      </trkpt>
      <trkpt lat="45.24512" lon="6.11762">
        <ele>2624</ele>
        <time>2021-12-23T11:51:00Z</time>
      </trkpt>
      <trkpt lat="45.24511" lon="6.11761">
        <ele>2624</ele>
        <time>2021-12-23T11:51:01Z</time>
      </trkpt>
      <trkpt lat="45.24511" lon="6.11761">
        <ele>2624</ele>
        <time>2021-12-23T11:51:02Z</time>
      </trkpt>
      <trkpt lat="45.2451" lon="6.1176">
        <ele>2624</ele>
        <time>2021-12-23T11:51:03Z</time>
      </trkpt>
      <trkpt lat="45.2451" lon="6.1176">
        <ele>2625</ele>
        <time>2021-12-23T11:51:04Z</time>
      </trkpt>
      <trkpt lat="45.24509" lon="6.11759">
        <ele>2625</ele>
        <time>2021-12-23T11:51:05Z</time>
      </trkpt>
      <trkpt lat="45.24508" lon="6.11759">
        <ele>2625</ele>
        <time>2021-12-23T11:51:06Z</time>
      </trkpt>
      <trkpt lat="45.24508" lon="6.11758">
        <ele>2625</ele>
        <time>2021-12-23T11:51:07Z</time>
      </trkpt>
      <trkpt lat="45.24507" lon="6.11757">
        <ele>2626</ele>
        <time>2021-12-23T11:51:08Z</time>
      </trkpt>
      <trkpt lat="45.24507" lon="6.11757">
        <ele>2626</ele>
        <time>2021-12-23T11:51:09Z</time>
      </trkpt>
      <trkpt lat="45.24506" lon="6.11756">
        <ele>2626</ele>
        <time>2021-12-23T11:51:10Z</time>
      </trkpt>
      <trkpt lat="45.24506" lon="6.11755">
        <ele>2626</ele>
        <time>2021-12-23T11:51:11Z</time>
      </trkpt>
      <trkpt lat="45.24506" lon="6.11755">
        <ele>2626</ele>
        <time>2021-12-23T11:51:12Z</time>
      </trkpt>
      <trkpt lat="45.24505" lon="6.11754">
        <ele>2626</ele>
        <time>2021-12-23T11:51:13Z</time>
      </trkpt>
      <trkpt lat="45.24505" lon="6.11753">
        <ele>2626</ele>
        <time>2021-12-23T11:51:14Z</time>
      </trkpt>
      <trkpt lat="45.24504" lon="6.11753">
        <ele>2626</ele>
        <time>2021-12-23T11:51:15Z</time>
      </trkpt>
      <trkpt lat="45.24504" lon="6.11752">
        <ele>2626</ele>
        <time>2021-12-23T11:51:16Z</time>
      </trkpt>
      <trkpt lat="45.24503" lon="6.11752">
        <ele>2626</ele>
        <time>2021-12-23T11:51:17Z</time>
      </trkpt>
      <trkpt lat="45.24503" lon="6.11751">
        <ele>2627</ele>
        <time>2021-12-23T11:51:19Z</time>
      </trkpt>
      <trkpt lat="45.24502" lon="6.1175">
        <ele>2627</ele>
        <time>2021-12-23T11:51:20Z</time>
      </trkpt>
      <trkpt lat="45.24502" lon="6.1175">
        <ele>2627</ele>
        <time>2021-12-23T11:51:21Z</time>
      </trkpt>
      <trkpt lat="45.24501" lon="6.11749">
        <ele>2627</ele>
        <time>2021-12-23T11:51:22Z</time>
      </trkpt>
      <trkpt lat="45.24501" lon="6.11748">
        <ele>2627</ele>
        <time>2021-12-23T11:51:23Z</time>
      </trkpt>
      <trkpt lat="45.24501" lon="6.11748">
        <ele>2627</ele>
        <time>2021-12-23T11:51:24Z</time>
      </trkpt>
      <trkpt lat="45.245" lon="6.11747">
        <ele>2627</ele>
        <time>2021-12-23T11:51:25Z</time>
      </trkpt>
      <trkpt lat="45.245" lon="6.11747">
        <ele>2627</ele>
        <time>2021-12-23T11:51:26Z</time>
      </trkpt>
      <trkpt lat="45.245" lon="6.11747">
        <ele>2628</ele>
        <time>2021-12-23T11:51:27Z</time>
      </trkpt>
      <trkpt lat="45.245" lon="6.11747">
        <ele>2628</ele>
        <time>2021-12-23T11:51:28Z</time>
      </trkpt>
      <trkpt lat="45.245" lon="6.11747">
        <ele>2628</ele>
        <time>2021-12-23T11:51:29Z</time>
      </trkpt>
      <trkpt lat="45.245" lon="6.11747">
        <ele>2628</ele>
        <time>2021-12-23T11:51:30Z</time>
      </trkpt>
      <trkpt lat="45.245" lon="6.11747">
        <ele>2628</ele>
        <time>2021-12-23T11:51:31Z</time>
      </trkpt>
      <trkpt lat="45.245" lon="6.11747">
        <ele>2628</ele>
        <time>2021-12-23T11:51:32Z</time>
      </trkpt>
      <trkpt lat="45.245" lon="6.11747">
        <ele>2629</ele>
        <time>2021-12-23T11:51:33Z</time>
      </trkpt>
      <trkpt lat="45.245" lon="6.11747">
        <ele>2629</ele>
        <time>2021-12-23T11:51:34Z</time>
      </trkpt>
      <trkpt lat="45.245" lon="6.11747">
        <ele>2629</ele>
        <time>2021-12-23T11:51:35Z</time>
      </trkpt>
      <trkpt lat="45.245" lon="6.11747">
        <ele>2631</ele>
        <time>2021-12-23T11:51:36Z</time>
      </trkpt>
      <trkpt lat="45.245" lon="6.11747">
        <ele>2631</ele>
        <time>2021-12-23T11:51:38Z</time>
      </trkpt>
      <trkpt lat="45.245" lon="6.11747">
        <ele>2631</ele>
        <time>2021-12-23T11:51:39Z</time>
      </trkpt>
      <trkpt lat="45.245" lon="6.11747">
        <ele>2631</ele>
        <time>2021-12-23T11:51:40Z</time>
      </trkpt>
      <trkpt lat="45.245" lon="6.11747">
        <ele>2632</ele>
        <time>2021-12-23T11:51:41Z</time>
      </trkpt>
      <trkpt lat="45.24499" lon="6.11734">
        <ele>2632</ele>
        <time>2021-12-23T11:51:42Z</time>
      </trkpt>
      <trkpt lat="45.24499" lon="6.11734">
        <ele>2632</ele>
        <time>2021-12-23T11:51:44Z</time>
      </trkpt>
      <trkpt lat="45.24498" lon="6.11733">
        <ele>2632</ele>
        <time>2021-12-23T11:51:45Z</time>
      </trkpt>
      <trkpt lat="45.24498" lon="6.11732">
        <ele>2633</ele>
        <time>2021-12-23T11:51:46Z</time>
      </trkpt>
      <trkpt lat="45.24497" lon="6.11731">
        <ele>2633</ele>
        <time>2021-12-23T11:51:47Z</time>
      </trkpt>
      <trkpt lat="45.24497" lon="6.1173">
        <ele>2633</ele>
        <time>2021-12-23T11:51:48Z</time>
      </trkpt>
      <trkpt lat="45.24496" lon="6.11729">
        <ele>2633</ele>
        <time>2021-12-23T11:51:49Z</time>
      </trkpt>
      <trkpt lat="45.24496" lon="6.11728">
        <ele>2633</ele>
        <time>2021-12-23T11:51:50Z</time>
      </trkpt>
      <trkpt lat="45.24496" lon="6.11727">
        <ele>2633</ele>
        <time>2021-12-23T11:51:51Z</time>
      </trkpt>
      <trkpt lat="45.24495" lon="6.11726">
        <ele>2633</ele>
        <time>2021-12-23T11:51:52Z</time>
      </trkpt>
      <trkpt lat="45.24495" lon="6.11725">
        <ele>2633</ele>
        <time>2021-12-23T11:51:53Z</time>
      </trkpt>
      <trkpt lat="45.24494" lon="6.11724">
        <ele>2633</ele>
        <time>2021-12-23T11:51:54Z</time>
      </trkpt>
      <trkpt lat="45.24494" lon="6.11723">
        <ele>2634</ele>
        <time>2021-12-23T11:51:55Z</time>
      </trkpt>
      <trkpt lat="45.24494" lon="6.11723">
        <ele>2634</ele>
        <time>2021-12-23T11:51:57Z</time>
      </trkpt>
      <trkpt lat="45.24494" lon="6.11723">
        <ele>2634</ele>
        <time>2021-12-23T11:51:58Z</time>
      </trkpt>
      <trkpt lat="45.24494" lon="6.11723">
        <ele>2634</ele>
        <time>2021-12-23T11:51:59Z</time>
      </trkpt>
      <trkpt lat="45.24494" lon="6.11723">
        <ele>2635</ele>
        <time>2021-12-23T11:52:00Z</time>
      </trkpt>
      <trkpt lat="45.24494" lon="6.11723">
        <ele>2635</ele>
        <time>2021-12-23T11:52:01Z</time>
      </trkpt>
      <trkpt lat="45.24494" lon="6.11723">
        <ele>2636</ele>
        <time>2021-12-23T11:52:02Z</time>
      </trkpt>
      <trkpt lat="45.24494" lon="6.11723">
        <ele>2636</ele>
        <time>2021-12-23T11:52:03Z</time>
      </trkpt>
      <trkpt lat="45.24494" lon="6.11723">
        <ele>2636</ele>
        <time>2021-12-23T11:52:04Z</time>
      </trkpt>
      <trkpt lat="45.24494" lon="6.11723">
        <ele>2636</ele>
        <time>2021-12-23T11:52:05Z</time>
      </trkpt>
      <trkpt lat="45.24494" lon="6.11723">
        <ele>2636</ele>
        <time>2021-12-23T11:52:06Z</time>
      </trkpt>
      <trkpt lat="45.24494" lon="6.11723">
        <ele>2636</ele>
        <time>2021-12-23T11:52:07Z</time>
      </trkpt>
      <trkpt lat="45.24494" lon="6.11723">
        <ele>2636</ele>
        <time>2021-12-23T11:52:08Z</time>
      </trkpt>
      <trkpt lat="45.24494" lon="6.11723">
        <ele>2636</ele>
        <time>2021-12-23T11:52:09Z</time>
      </trkpt>
      <trkpt lat="45.24494" lon="6.11723">
        <ele>2636</ele>
        <time>2021-12-23T11:52:10Z</time>
      </trkpt>
      <trkpt lat="45.24494" lon="6.11723">
        <ele>2637</ele>
        <time>2021-12-23T11:52:11Z</time>
      </trkpt>
      <trkpt lat="45.24494" lon="6.11723">
        <ele>2637</ele>
        <time>2021-12-23T11:52:12Z</time>
      </trkpt>
      <trkpt lat="45.24494" lon="6.11723">
        <ele>2637</ele>
        <time>2021-12-23T11:52:13Z</time>
      </trkpt>
      <trkpt lat="45.24488" lon="6.11714">
        <ele>2637</ele>
        <time>2021-12-23T11:52:14Z</time>
      </trkpt>
      <trkpt lat="45.24488" lon="6.11714">
        <ele>2637</ele>
        <time>2021-12-23T11:52:16Z</time>
      </trkpt>
      <trkpt lat="45.24487" lon="6.11713">
        <ele>2637</ele>
        <time>2021-12-23T11:52:17Z</time>
      </trkpt>
      <trkpt lat="45.24486" lon="6.11712">
        <ele>2638</ele>
        <time>2021-12-23T11:52:18Z</time>
      </trkpt>
      <trkpt lat="45.24485" lon="6.11712">
        <ele>2638</ele>
        <time>2021-12-23T11:52:19Z</time>
      </trkpt>
      <trkpt lat="45.24485" lon="6.11711">
        <ele>2638</ele>
        <time>2021-12-23T11:52:20Z</time>
      </trkpt>
      <trkpt lat="45.24484" lon="6.11711">
        <ele>2638</ele>
        <time>2021-12-23T11:52:21Z</time>
      </trkpt>
      <trkpt lat="45.24483" lon="6.1171">
        <ele>2639</ele>
        <time>2021-12-23T11:52:22Z</time>
      </trkpt>
      <trkpt lat="45.24483" lon="6.11709">
        <ele>2639</ele>
        <time>2021-12-23T11:52:23Z</time>
      </trkpt>
      <trkpt lat="45.24482" lon="6.11709">
        <ele>2639</ele>
        <time>2021-12-23T11:52:24Z</time>
      </trkpt>
      <trkpt lat="45.24481" lon="6.11708">
        <ele>2639</ele>
        <time>2021-12-23T11:52:25Z</time>
      </trkpt>
      <trkpt lat="45.24481" lon="6.11707">
        <ele>2639</ele>
        <time>2021-12-23T11:52:26Z</time>
      </trkpt>
      <trkpt lat="45.2448" lon="6.11707">
        <ele>2640</ele>
        <time>2021-12-23T11:52:27Z</time>
      </trkpt>
      <trkpt lat="45.24479" lon="6.11706">
        <ele>2640</ele>
        <time>2021-12-23T11:52:28Z</time>
      </trkpt>
      <trkpt lat="45.24479" lon="6.11706">
        <ele>2641</ele>
        <time>2021-12-23T11:52:29Z</time>
      </trkpt>
      <trkpt lat="45.24478" lon="6.11705">
        <ele>2641</ele>
        <time>2021-12-23T11:52:30Z</time>
      </trkpt>
      <trkpt lat="45.24477" lon="6.11705">
        <ele>2641</ele>
        <time>2021-12-23T11:52:31Z</time>
      </trkpt>
      <trkpt lat="45.24477" lon="6.11704">
        <ele>2641</ele>
        <time>2021-12-23T11:52:32Z</time>
      </trkpt>
      <trkpt lat="45.24476" lon="6.11704">
        <ele>2641</ele>
        <time>2021-12-23T11:52:33Z</time>
      </trkpt>
      <trkpt lat="45.24476" lon="6.11703">
        <ele>2641</ele>
        <time>2021-12-23T11:52:35Z</time>
      </trkpt>
      <trkpt lat="45.24475" lon="6.11702">
        <ele>2641</ele>
        <time>2021-12-23T11:52:36Z</time>
      </trkpt>
      <trkpt lat="45.24474" lon="6.11702">
        <ele>2641</ele>
        <time>2021-12-23T11:52:37Z</time>
      </trkpt>
      <trkpt lat="45.24474" lon="6.11701">
        <ele>2643</ele>
        <time>2021-12-23T11:52:38Z</time>
      </trkpt>
      <trkpt lat="45.24473" lon="6.11701">
        <ele>2643</ele>
        <time>2021-12-23T11:52:39Z</time>
      </trkpt>
      <trkpt lat="45.24473" lon="6.117">
        <ele>2643</ele>
        <time>2021-12-23T11:52:40Z</time>
      </trkpt>
      <trkpt lat="45.24472" lon="6.117">
        <ele>2643</ele>
        <time>2021-12-23T11:52:41Z</time>
      </trkpt>
      <trkpt lat="45.24471" lon="6.117">
        <ele>2643</ele>
        <time>2021-12-23T11:52:42Z</time>
      </trkpt>
      <trkpt lat="45.2447" lon="6.117">
        <ele>2643</ele>
        <time>2021-12-23T11:52:43Z</time>
      </trkpt>
      <trkpt lat="45.2447" lon="6.117">
        <ele>2643</ele>
        <time>2021-12-23T11:52:44Z</time>
      </trkpt>
      <trkpt lat="45.24469" lon="6.117">
        <ele>2643</ele>
        <time>2021-12-23T11:52:45Z</time>
      </trkpt>
      <trkpt lat="45.24468" lon="6.11699">
        <ele>2643</ele>
        <time>2021-12-23T11:52:46Z</time>
      </trkpt>
      <trkpt lat="45.24468" lon="6.11699">
        <ele>2643</ele>
        <time>2021-12-23T11:52:47Z</time>
      </trkpt>
      <trkpt lat="45.24467" lon="6.11699">
        <ele>2643</ele>
        <time>2021-12-23T11:52:48Z</time>
      </trkpt>
      <trkpt lat="45.24466" lon="6.11699">
        <ele>2643</ele>
        <time>2021-12-23T11:52:49Z</time>
      </trkpt>
      <trkpt lat="45.24465" lon="6.11699">
        <ele>2643</ele>
        <time>2021-12-23T11:52:50Z</time>
      </trkpt>
      <trkpt lat="45.24465" lon="6.11699">
        <ele>2643</ele>
        <time>2021-12-23T11:52:51Z</time>
      </trkpt>
      <trkpt lat="45.24464" lon="6.11699">
        <ele>2644</ele>
        <time>2021-12-23T11:52:52Z</time>
      </trkpt>
      <trkpt lat="45.24463" lon="6.11698">
        <ele>2644</ele>
        <time>2021-12-23T11:52:54Z</time>
      </trkpt>
      <trkpt lat="45.24462" lon="6.11698">
        <ele>2645</ele>
        <time>2021-12-23T11:52:55Z</time>
      </trkpt>
      <trkpt lat="45.24462" lon="6.11697">
        <ele>2645</ele>
        <time>2021-12-23T11:52:56Z</time>
      </trkpt>
      <trkpt lat="45.24462" lon="6.11697">
        <ele>2645</ele>
        <time>2021-12-23T11:52:57Z</time>
      </trkpt>
      <trkpt lat="45.24462" lon="6.11696">
        <ele>2645</ele>
        <time>2021-12-23T11:52:58Z</time>
      </trkpt>
      <trkpt lat="45.24462" lon="6.11695">
        <ele>2645</ele>
        <time>2021-12-23T11:52:59Z</time>
      </trkpt>
      <trkpt lat="45.24462" lon="6.11694">
        <ele>2645</ele>
        <time>2021-12-23T11:53:00Z</time>
      </trkpt>
      <trkpt lat="45.24462" lon="6.11693">
        <ele>2646</ele>
        <time>2021-12-23T11:53:01Z</time>
      </trkpt>
      <trkpt lat="45.24462" lon="6.11693">
        <ele>2646</ele>
        <time>2021-12-23T11:53:02Z</time>
      </trkpt>
      <trkpt lat="45.24462" lon="6.11692">
        <ele>2647</ele>
        <time>2021-12-23T11:53:03Z</time>
      </trkpt>
      <trkpt lat="45.24462" lon="6.11691">
        <ele>2647</ele>
        <time>2021-12-23T11:53:04Z</time>
      </trkpt>
      <trkpt lat="45.24462" lon="6.1169">
        <ele>2647</ele>
        <time>2021-12-23T11:53:05Z</time>
      </trkpt>
      <trkpt lat="45.24462" lon="6.11689">
        <ele>2647</ele>
        <time>2021-12-23T11:53:06Z</time>
      </trkpt>
      <trkpt lat="45.24462" lon="6.11688">
        <ele>2648</ele>
        <time>2021-12-23T11:53:07Z</time>
      </trkpt>
      <trkpt lat="45.24462" lon="6.11688">
        <ele>2648</ele>
        <time>2021-12-23T11:53:08Z</time>
      </trkpt>
      <trkpt lat="45.24462" lon="6.11687">
        <ele>2648</ele>
        <time>2021-12-23T11:53:09Z</time>
      </trkpt>
      <trkpt lat="45.24461" lon="6.11687">
        <ele>2648</ele>
        <time>2021-12-23T11:53:10Z</time>
      </trkpt>
      <trkpt lat="45.24461" lon="6.11686">
        <ele>2648</ele>
        <time>2021-12-23T11:53:11Z</time>
      </trkpt>
      <trkpt lat="45.24461" lon="6.11686">
        <ele>2648</ele>
        <time>2021-12-23T11:53:13Z</time>
      </trkpt>
      <trkpt lat="45.24461" lon="6.11686">
        <ele>2648</ele>
        <time>2021-12-23T11:53:14Z</time>
      </trkpt>
      <trkpt lat="45.24461" lon="6.11686">
        <ele>2648</ele>
        <time>2021-12-23T11:53:15Z</time>
      </trkpt>
      <trkpt lat="45.24461" lon="6.11685">
        <ele>2648</ele>
        <time>2021-12-23T11:53:16Z</time>
      </trkpt>
      <trkpt lat="45.2446" lon="6.11685">
        <ele>2649</ele>
        <time>2021-12-23T11:53:17Z</time>
      </trkpt>
      <trkpt lat="45.2446" lon="6.11685">
        <ele>2649</ele>
        <time>2021-12-23T11:53:18Z</time>
      </trkpt>
      <trkpt lat="45.2446" lon="6.11685">
        <ele>2649</ele>
        <time>2021-12-23T11:53:19Z</time>
      </trkpt>
      <trkpt lat="45.2446" lon="6.11684">
        <ele>2650</ele>
        <time>2021-12-23T11:53:20Z</time>
      </trkpt>
      <trkpt lat="45.2446" lon="6.11684">
        <ele>2650</ele>
        <time>2021-12-23T11:53:21Z</time>
      </trkpt>
      <trkpt lat="45.2446" lon="6.11684">
        <ele>2650</ele>
        <time>2021-12-23T11:53:22Z</time>
      </trkpt>
      <trkpt lat="45.24459" lon="6.11684">
        <ele>2650</ele>
        <time>2021-12-23T11:53:23Z</time>
      </trkpt>
      <trkpt lat="45.24459" lon="6.11684">
        <ele>2650</ele>
        <time>2021-12-23T11:53:24Z</time>
      </trkpt>
      <trkpt lat="45.24459" lon="6.11683">
        <ele>2650</ele>
        <time>2021-12-23T11:53:25Z</time>
      </trkpt>
      <trkpt lat="45.24459" lon="6.11683">
        <ele>2650</ele>
        <time>2021-12-23T11:53:26Z</time>
      </trkpt>
      <trkpt lat="45.24459" lon="6.11683">
        <ele>2650</ele>
        <time>2021-12-23T11:53:27Z</time>
      </trkpt>
      <trkpt lat="45.24459" lon="6.11683">
        <ele>2650</ele>
        <time>2021-12-23T11:53:28Z</time>
      </trkpt>
      <trkpt lat="45.24458" lon="6.11682">
        <ele>2650</ele>
        <time>2021-12-23T11:53:29Z</time>
      </trkpt>
      <trkpt lat="45.24458" lon="6.11682">
        <ele>2650</ele>
        <time>2021-12-23T11:53:30Z</time>
      </trkpt>
      <trkpt lat="45.24458" lon="6.11682">
        <ele>2650</ele>
        <time>2021-12-23T11:53:32Z</time>
      </trkpt>
      <trkpt lat="45.24458" lon="6.11682">
        <ele>2650</ele>
        <time>2021-12-23T11:53:33Z</time>
      </trkpt>
      <trkpt lat="45.24458" lon="6.11681">
        <ele>2650</ele>
        <time>2021-12-23T11:53:34Z</time>
      </trkpt>
      <trkpt lat="45.24457" lon="6.11681">
        <ele>2650</ele>
        <time>2021-12-23T11:53:35Z</time>
      </trkpt>
      <trkpt lat="45.24457" lon="6.11681">
        <ele>2650</ele>
        <time>2021-12-23T11:53:36Z</time>
      </trkpt>
      <trkpt lat="45.24457" lon="6.11681">
        <ele>2650</ele>
        <time>2021-12-23T11:53:37Z</time>
      </trkpt>
      <trkpt lat="45.24457" lon="6.1168">
        <ele>2650</ele>
        <time>2021-12-23T11:53:38Z</time>
      </trkpt>
      <trkpt lat="45.24457" lon="6.1168">
        <ele>2650</ele>
        <time>2021-12-23T11:53:39Z</time>
      </trkpt>
      <trkpt lat="45.24457" lon="6.1168">
        <ele>2650</ele>
        <time>2021-12-23T11:53:40Z</time>
      </trkpt>
      <trkpt lat="45.24456" lon="6.1168">
        <ele>2650</ele>
        <time>2021-12-23T11:53:41Z</time>
      </trkpt>
      <trkpt lat="45.24456" lon="6.1168">
        <ele>2650</ele>
        <time>2021-12-23T11:53:42Z</time>
      </trkpt>
      <trkpt lat="45.24456" lon="6.11679">
        <ele>2650</ele>
        <time>2021-12-23T11:53:43Z</time>
      </trkpt>
      <trkpt lat="45.24456" lon="6.11679">
        <ele>2650</ele>
        <time>2021-12-23T11:53:44Z</time>
      </trkpt>
      <trkpt lat="45.24456" lon="6.11679">
        <ele>2650</ele>
        <time>2021-12-23T11:53:45Z</time>
      </trkpt>
      <trkpt lat="45.24456" lon="6.11679">
        <ele>2650</ele>
        <time>2021-12-23T11:53:46Z</time>
      </trkpt>
      <trkpt lat="45.24455" lon="6.11678">
        <ele>2650</ele>
        <time>2021-12-23T11:53:47Z</time>
      </trkpt>
      <trkpt lat="45.24455" lon="6.11678">
        <ele>2651</ele>
        <time>2021-12-23T11:53:48Z</time>
      </trkpt>
      <trkpt lat="45.24455" lon="6.11677">
        <ele>2651</ele>
        <time>2021-12-23T11:53:49Z</time>
      </trkpt>
      <trkpt lat="45.24455" lon="6.11677">
        <ele>2652</ele>
        <time>2021-12-23T11:53:51Z</time>
      </trkpt>
      <trkpt lat="45.24454" lon="6.11676">
        <ele>2652</ele>
        <time>2021-12-23T11:53:52Z</time>
      </trkpt>
      <trkpt lat="45.24454" lon="6.11676">
        <ele>2652</ele>
        <time>2021-12-23T11:53:53Z</time>
      </trkpt>
      <trkpt lat="45.24454" lon="6.11675">
        <ele>2652</ele>
        <time>2021-12-23T11:53:54Z</time>
      </trkpt>
      <trkpt lat="45.24453" lon="6.11674">
        <ele>2653</ele>
        <time>2021-12-23T11:53:55Z</time>
      </trkpt>
      <trkpt lat="45.24453" lon="6.11674">
        <ele>2653</ele>
        <time>2021-12-23T11:53:56Z</time>
      </trkpt>
      <trkpt lat="45.24453" lon="6.11673">
        <ele>2653</ele>
        <time>2021-12-23T11:53:57Z</time>
      </trkpt>
      <trkpt lat="45.24452" lon="6.11672">
        <ele>2653</ele>
        <time>2021-12-23T11:53:58Z</time>
      </trkpt>
      <trkpt lat="45.24452" lon="6.11672">
        <ele>2653</ele>
        <time>2021-12-23T11:53:59Z</time>
      </trkpt>
      <trkpt lat="45.24452" lon="6.11671">
        <ele>2653</ele>
        <time>2021-12-23T11:54:00Z</time>
      </trkpt>
      <trkpt lat="45.24451" lon="6.11671">
        <ele>2655</ele>
        <time>2021-12-23T11:54:01Z</time>
      </trkpt>
      <trkpt lat="45.24451" lon="6.1167">
        <ele>2655</ele>
        <time>2021-12-23T11:54:02Z</time>
      </trkpt>
      <trkpt lat="45.24451" lon="6.11669">
        <ele>2655</ele>
        <time>2021-12-23T11:54:03Z</time>
      </trkpt>
      <trkpt lat="45.2445" lon="6.11669">
        <ele>2655</ele>
        <time>2021-12-23T11:54:04Z</time>
      </trkpt>
      <trkpt lat="45.2445" lon="6.11669">
        <ele>2655</ele>
        <time>2021-12-23T11:54:05Z</time>
      </trkpt>
      <trkpt lat="45.2445" lon="6.11669">
        <ele>2656</ele>
        <time>2021-12-23T11:54:06Z</time>
      </trkpt>
      <trkpt lat="45.2445" lon="6.11669">
        <ele>2656</ele>
        <time>2021-12-23T11:54:07Z</time>
      </trkpt>
      <trkpt lat="45.2445" lon="6.11669">
        <ele>2656</ele>
        <time>2021-12-23T11:54:08Z</time>
      </trkpt>
      <trkpt lat="45.2445" lon="6.11669">
        <ele>2656</ele>
        <time>2021-12-23T11:54:10Z</time>
      </trkpt>
      <trkpt lat="45.2445" lon="6.11669">
        <ele>2656</ele>
        <time>2021-12-23T11:54:11Z</time>
      </trkpt>
      <trkpt lat="45.2445" lon="6.11669">
        <ele>2656</ele>
        <time>2021-12-23T11:54:12Z</time>
      </trkpt>
      <trkpt lat="45.2445" lon="6.11669">
        <ele>2657</ele>
        <time>2021-12-23T11:54:13Z</time>
      </trkpt>
      <trkpt lat="45.2445" lon="6.11669">
        <ele>2657</ele>
        <time>2021-12-23T11:54:14Z</time>
      </trkpt>
      <trkpt lat="45.2445" lon="6.11669">
        <ele>2657</ele>
        <time>2021-12-23T11:54:15Z</time>
      </trkpt>
      <trkpt lat="45.2445" lon="6.11669">
        <ele>2657</ele>
        <time>2021-12-23T11:54:16Z</time>
      </trkpt>
      <trkpt lat="45.2445" lon="6.11669">
        <ele>2657</ele>
        <time>2021-12-23T11:54:17Z</time>
      </trkpt>
      <trkpt lat="45.2445" lon="6.11669">
        <ele>2657</ele>
        <time>2021-12-23T11:54:18Z</time>
      </trkpt>
      <trkpt lat="45.2445" lon="6.11669">
        <ele>2657</ele>
        <time>2021-12-23T11:54:19Z</time>
      </trkpt>
      <trkpt lat="45.2445" lon="6.11669">
        <ele>2657</ele>
        <time>2021-12-23T11:54:20Z</time>
      </trkpt>
      <trkpt lat="45.2445" lon="6.11669">
        <ele>2657</ele>
        <time>2021-12-23T11:54:21Z</time>
      </trkpt>
      <trkpt lat="45.2445" lon="6.11669">
        <ele>2657</ele>
        <time>2021-12-23T11:54:22Z</time>
      </trkpt>
      <trkpt lat="45.2445" lon="6.11669">
        <ele>2658</ele>
        <time>2021-12-23T11:54:23Z</time>
      </trkpt>
      <trkpt lat="45.2445" lon="6.11669">
        <ele>2658</ele>
        <time>2021-12-23T11:54:24Z</time>
      </trkpt>
      <trkpt lat="45.2445" lon="6.11669">
        <ele>2659</ele>
        <time>2021-12-23T11:54:25Z</time>
      </trkpt>
      <trkpt lat="45.2445" lon="6.11669">
        <ele>2659</ele>
        <time>2021-12-23T11:54:26Z</time>
      </trkpt>
      <trkpt lat="45.24444" lon="6.11659">
        <ele>2659</ele>
        <time>2021-12-23T11:54:27Z</time>
      </trkpt>
      <trkpt lat="45.24444" lon="6.11659">
        <ele>2659</ele>
        <time>2021-12-23T11:54:29Z</time>
      </trkpt>
      <trkpt lat="45.24444" lon="6.11659">
        <ele>2659</ele>
        <time>2021-12-23T11:54:30Z</time>
      </trkpt>
      <trkpt lat="45.24444" lon="6.11659">
        <ele>2659</ele>
        <time>2021-12-23T11:54:31Z</time>
      </trkpt>
      <trkpt lat="45.24444" lon="6.11659">
        <ele>2659</ele>
        <time>2021-12-23T11:54:32Z</time>
      </trkpt>
      <trkpt lat="45.24444" lon="6.11659">
        <ele>2660</ele>
        <time>2021-12-23T11:54:33Z</time>
      </trkpt>
      <trkpt lat="45.24444" lon="6.11659">
        <ele>2660</ele>
        <time>2021-12-23T11:54:34Z</time>
      </trkpt>
      <trkpt lat="45.24444" lon="6.11659">
        <ele>2660</ele>
        <time>2021-12-23T11:54:35Z</time>
      </trkpt>
      <trkpt lat="45.24444" lon="6.11659">
        <ele>2660</ele>
        <time>2021-12-23T11:54:36Z</time>
      </trkpt>
      <trkpt lat="45.24444" lon="6.11659">
        <ele>2660</ele>
        <time>2021-12-23T11:54:37Z</time>
      </trkpt>
      <trkpt lat="45.24444" lon="6.11659">
        <ele>2660</ele>
        <time>2021-12-23T11:54:38Z</time>
      </trkpt>
      <trkpt lat="45.24444" lon="6.11659">
        <ele>2660</ele>
        <time>2021-12-23T11:54:39Z</time>
      </trkpt>
      <trkpt lat="45.24444" lon="6.11659">
        <ele>2661</ele>
        <time>2021-12-23T11:54:40Z</time>
      </trkpt>
      <trkpt lat="45.24444" lon="6.11659">
        <ele>2661</ele>
        <time>2021-12-23T11:54:41Z</time>
      </trkpt>
      <trkpt lat="45.24444" lon="6.11659">
        <ele>2662</ele>
        <time>2021-12-23T11:54:42Z</time>
      </trkpt>
      <trkpt lat="45.24444" lon="6.11659">
        <ele>2662</ele>
        <time>2021-12-23T11:54:43Z</time>
      </trkpt>
      <trkpt lat="45.24444" lon="6.11659">
        <ele>2662</ele>
        <time>2021-12-23T11:54:44Z</time>
      </trkpt>
      <trkpt lat="45.24444" lon="6.11659">
        <ele>2662</ele>
        <time>2021-12-23T11:54:45Z</time>
      </trkpt>
      <trkpt lat="45.24444" lon="6.11659">
        <ele>2662</ele>
        <time>2021-12-23T11:54:46Z</time>
      </trkpt>
      <trkpt lat="45.24438" lon="6.1165">
        <ele>2663</ele>
        <time>2021-12-23T11:54:48Z</time>
      </trkpt>
      <trkpt lat="45.24438" lon="6.1165">
        <ele>2663</ele>
        <time>2021-12-23T11:54:49Z</time>
      </trkpt>
      <trkpt lat="45.24438" lon="6.1165">
        <ele>2663</ele>
        <time>2021-12-23T11:54:50Z</time>
      </trkpt>
      <trkpt lat="45.24438" lon="6.1165">
        <ele>2663</ele>
        <time>2021-12-23T11:54:51Z</time>
      </trkpt>
      <trkpt lat="45.24438" lon="6.1165">
        <ele>2663</ele>
        <time>2021-12-23T11:54:52Z</time>
      </trkpt>
      <trkpt lat="45.24438" lon="6.1165">
        <ele>2664</ele>
        <time>2021-12-23T11:54:53Z</time>
      </trkpt>
      <trkpt lat="45.24438" lon="6.1165">
        <ele>2664</ele>
        <time>2021-12-23T11:54:54Z</time>
      </trkpt>
      <trkpt lat="45.24438" lon="6.1165">
        <ele>2664</ele>
        <time>2021-12-23T11:54:55Z</time>
      </trkpt>
      <trkpt lat="45.24438" lon="6.1165">
        <ele>2664</ele>
        <time>2021-12-23T11:54:56Z</time>
      </trkpt>
      <trkpt lat="45.24438" lon="6.1165">
        <ele>2664</ele>
        <time>2021-12-23T11:54:57Z</time>
      </trkpt>
      <trkpt lat="45.24438" lon="6.1165">
        <ele>2664</ele>
        <time>2021-12-23T11:54:58Z</time>
      </trkpt>
      <trkpt lat="45.2443" lon="6.11643">
        <ele>2664</ele>
        <time>2021-12-23T11:54:59Z</time>
      </trkpt>
      <trkpt lat="45.2443" lon="6.11643">
        <ele>2665</ele>
        <time>2021-12-23T11:55:01Z</time>
      </trkpt>
      <trkpt lat="45.2443" lon="6.11642">
        <ele>2665</ele>
        <time>2021-12-23T11:55:02Z</time>
      </trkpt>
      <trkpt lat="45.2443" lon="6.11642">
        <ele>2665</ele>
        <time>2021-12-23T11:55:03Z</time>
      </trkpt>
      <trkpt lat="45.2443" lon="6.11641">
        <ele>2665</ele>
        <time>2021-12-23T11:55:04Z</time>
      </trkpt>
      <trkpt lat="45.2443" lon="6.11641">
        <ele>2665</ele>
        <time>2021-12-23T11:55:05Z</time>
      </trkpt>
      <trkpt lat="45.2443" lon="6.1164">
        <ele>2667</ele>
        <time>2021-12-23T11:55:07Z</time>
      </trkpt>
      <trkpt lat="45.2443" lon="6.1164">
        <ele>2667</ele>
        <time>2021-12-23T11:55:08Z</time>
      </trkpt>
      <trkpt lat="45.24429" lon="6.11639">
        <ele>2667</ele>
        <time>2021-12-23T11:55:09Z</time>
      </trkpt>
      <trkpt lat="45.24429" lon="6.11639">
        <ele>2667</ele>
        <time>2021-12-23T11:55:10Z</time>
      </trkpt>
      <trkpt lat="45.24429" lon="6.11638">
        <ele>2668</ele>
        <time>2021-12-23T11:55:11Z</time>
      </trkpt>
      <trkpt lat="45.24429" lon="6.11638">
        <ele>2668</ele>
        <time>2021-12-23T11:55:12Z</time>
      </trkpt>
      <trkpt lat="45.24429" lon="6.11637">
        <ele>2668</ele>
        <time>2021-12-23T11:55:13Z</time>
      </trkpt>
      <trkpt lat="45.24429" lon="6.11637">
        <ele>2668</ele>
        <time>2021-12-23T11:55:14Z</time>
      </trkpt>
      <trkpt lat="45.24429" lon="6.11636">
        <ele>2668</ele>
        <time>2021-12-23T11:55:15Z</time>
      </trkpt>
      <trkpt lat="45.24429" lon="6.11636">
        <ele>2668</ele>
        <time>2021-12-23T11:55:16Z</time>
      </trkpt>
      <trkpt lat="45.24429" lon="6.11635">
        <ele>2668</ele>
        <time>2021-12-23T11:55:17Z</time>
      </trkpt>
      <trkpt lat="45.24427" lon="6.11628">
        <ele>2668</ele>
        <time>2021-12-23T11:55:18Z</time>
      </trkpt>
      <trkpt lat="45.24427" lon="6.11627">
        <ele>2668</ele>
        <time>2021-12-23T11:55:19Z</time>
      </trkpt>
      <trkpt lat="45.24427" lon="6.11627">
        <ele>2668</ele>
        <time>2021-12-23T11:55:20Z</time>
      </trkpt>
      <trkpt lat="45.24427" lon="6.11626">
        <ele>2669</ele>
        <time>2021-12-23T11:55:21Z</time>
      </trkpt>
      <trkpt lat="45.24427" lon="6.11625">
        <ele>2669</ele>
        <time>2021-12-23T11:55:22Z</time>
      </trkpt>
      <trkpt lat="45.24427" lon="6.11625">
        <ele>2669</ele>
        <time>2021-12-23T11:55:23Z</time>
      </trkpt>
      <trkpt lat="45.24427" lon="6.11624">
        <ele>2669</ele>
        <time>2021-12-23T11:55:24Z</time>
      </trkpt>
      <trkpt lat="45.24428" lon="6.11624">
        <ele>2669</ele>
        <time>2021-12-23T11:55:26Z</time>
      </trkpt>
      <trkpt lat="45.24428" lon="6.11623">
        <ele>2669</ele>
        <time>2021-12-23T11:55:27Z</time>
      </trkpt>
      <trkpt lat="45.24428" lon="6.11622">
        <ele>2669</ele>
        <time>2021-12-23T11:55:28Z</time>
      </trkpt>
      <trkpt lat="45.24428" lon="6.11622">
        <ele>2669</ele>
        <time>2021-12-23T11:55:29Z</time>
      </trkpt>
      <trkpt lat="45.24428" lon="6.11621">
        <ele>2669</ele>
        <time>2021-12-23T11:55:30Z</time>
      </trkpt>
      <trkpt lat="45.24428" lon="6.1162">
        <ele>2669</ele>
        <time>2021-12-23T11:55:31Z</time>
      </trkpt>
      <trkpt lat="45.24428" lon="6.1162">
        <ele>2669</ele>
        <time>2021-12-23T11:55:32Z</time>
      </trkpt>
      <trkpt lat="45.24428" lon="6.11619">
        <ele>2670</ele>
        <time>2021-12-23T11:55:33Z</time>
      </trkpt>
      <trkpt lat="45.24428" lon="6.11619">
        <ele>2670</ele>
        <time>2021-12-23T11:55:34Z</time>
      </trkpt>
      <trkpt lat="45.24429" lon="6.11618">
        <ele>2670</ele>
        <time>2021-12-23T11:55:35Z</time>
      </trkpt>
      <trkpt lat="45.24429" lon="6.11617">
        <ele>2670</ele>
        <time>2021-12-23T11:55:36Z</time>
      </trkpt>
      <trkpt lat="45.24429" lon="6.11617">
        <ele>2671</ele>
        <time>2021-12-23T11:55:37Z</time>
      </trkpt>
      <trkpt lat="45.24429" lon="6.11616">
        <ele>2671</ele>
        <time>2021-12-23T11:55:38Z</time>
      </trkpt>
      <trkpt lat="45.24429" lon="6.11616">
        <ele>2671</ele>
        <time>2021-12-23T11:55:39Z</time>
      </trkpt>
      <trkpt lat="45.24429" lon="6.11615">
        <ele>2671</ele>
        <time>2021-12-23T11:55:40Z</time>
      </trkpt>
      <trkpt lat="45.2443" lon="6.11614">
        <ele>2671</ele>
        <time>2021-12-23T11:55:41Z</time>
      </trkpt>
      <trkpt lat="45.2443" lon="6.11613">
        <ele>2671</ele>
        <time>2021-12-23T11:55:42Z</time>
      </trkpt>
      <trkpt lat="45.24431" lon="6.11612">
        <ele>2671</ele>
        <time>2021-12-23T11:55:43Z</time>
      </trkpt>
      <trkpt lat="45.24432" lon="6.11611">
        <ele>2671</ele>
        <time>2021-12-23T11:55:45Z</time>
      </trkpt>
      <trkpt lat="45.24432" lon="6.1161">
        <ele>2671</ele>
        <time>2021-12-23T11:55:46Z</time>
      </trkpt>
      <trkpt lat="45.24433" lon="6.11609">
        <ele>2671</ele>
        <time>2021-12-23T11:55:47Z</time>
      </trkpt>
      <trkpt lat="45.24434" lon="6.11609">
        <ele>2672</ele>
        <time>2021-12-23T11:55:48Z</time>
      </trkpt>
      <trkpt lat="45.24434" lon="6.11608">
        <ele>2672</ele>
        <time>2021-12-23T11:55:50Z</time>
      </trkpt>
      <trkpt lat="45.24435" lon="6.11607">
        <ele>2672</ele>
        <time>2021-12-23T11:55:51Z</time>
      </trkpt>
      <trkpt lat="45.24435" lon="6.11606">
        <ele>2673</ele>
        <time>2021-12-23T11:55:52Z</time>
      </trkpt>
      <trkpt lat="45.24435" lon="6.11605">
        <ele>2673</ele>
        <time>2021-12-23T11:55:53Z</time>
      </trkpt>
      <trkpt lat="45.24435" lon="6.11605">
        <ele>2673</ele>
        <time>2021-12-23T11:55:54Z</time>
      </trkpt>
      <trkpt lat="45.24435" lon="6.11604">
        <ele>2673</ele>
        <time>2021-12-23T11:55:55Z</time>
      </trkpt>
      <trkpt lat="45.24435" lon="6.11603">
        <ele>2673</ele>
        <time>2021-12-23T11:55:56Z</time>
      </trkpt>
      <trkpt lat="45.24434" lon="6.11603">
        <ele>2673</ele>
        <time>2021-12-23T11:55:57Z</time>
      </trkpt>
      <trkpt lat="45.24434" lon="6.11602">
        <ele>2674</ele>
        <time>2021-12-23T11:55:58Z</time>
      </trkpt>
      <trkpt lat="45.24434" lon="6.11601">
        <ele>2674</ele>
        <time>2021-12-23T11:55:59Z</time>
      </trkpt>
      <trkpt lat="45.24434" lon="6.11601">
        <ele>2674</ele>
        <time>2021-12-23T11:56:00Z</time>
      </trkpt>
      <trkpt lat="45.24434" lon="6.116">
        <ele>2675</ele>
        <time>2021-12-23T11:56:01Z</time>
      </trkpt>
      <trkpt lat="45.24433" lon="6.116">
        <ele>2675</ele>
        <time>2021-12-23T11:56:02Z</time>
      </trkpt>
      <trkpt lat="45.24433" lon="6.11599">
        <ele>2675</ele>
        <time>2021-12-23T11:56:04Z</time>
      </trkpt>
      <trkpt lat="45.24433" lon="6.11598">
        <ele>2675</ele>
        <time>2021-12-23T11:56:05Z</time>
      </trkpt>
      <trkpt lat="45.24433" lon="6.11598">
        <ele>2675</ele>
        <time>2021-12-23T11:56:06Z</time>
      </trkpt>
      <trkpt lat="45.24433" lon="6.11597">
        <ele>2675</ele>
        <time>2021-12-23T11:56:07Z</time>
      </trkpt>
      <trkpt lat="45.24433" lon="6.11596">
        <ele>2675</ele>
        <time>2021-12-23T11:56:08Z</time>
      </trkpt>
      <trkpt lat="45.24432" lon="6.11596">
        <ele>2676</ele>
        <time>2021-12-23T11:56:09Z</time>
      </trkpt>
      <trkpt lat="45.24432" lon="6.11595">
        <ele>2676</ele>
        <time>2021-12-23T11:56:10Z</time>
      </trkpt>
      <trkpt lat="45.24432" lon="6.11595">
        <ele>2676</ele>
        <time>2021-12-23T11:56:11Z</time>
      </trkpt>
      <trkpt lat="45.24432" lon="6.11594">
        <ele>2676</ele>
        <time>2021-12-23T11:56:12Z</time>
      </trkpt>
      <trkpt lat="45.24432" lon="6.11593">
        <ele>2676</ele>
        <time>2021-12-23T11:56:13Z</time>
      </trkpt>
      <trkpt lat="45.24432" lon="6.11592">
        <ele>2676</ele>
        <time>2021-12-23T11:56:14Z</time>
      </trkpt>
      <trkpt lat="45.24432" lon="6.11591">
        <ele>2677</ele>
        <time>2021-12-23T11:56:15Z</time>
      </trkpt>
      <trkpt lat="45.24432" lon="6.11589">
        <ele>2677</ele>
        <time>2021-12-23T11:56:16Z</time>
      </trkpt>
      <trkpt lat="45.24432" lon="6.11588">
        <ele>2677</ele>
        <time>2021-12-23T11:56:17Z</time>
      </trkpt>
      <trkpt lat="45.24432" lon="6.11587">
        <ele>2677</ele>
        <time>2021-12-23T11:56:18Z</time>
      </trkpt>
      <trkpt lat="45.24432" lon="6.11585">
        <ele>2677</ele>
        <time>2021-12-23T11:56:19Z</time>
      </trkpt>
      <trkpt lat="45.24432" lon="6.11584">
        <ele>2677</ele>
        <time>2021-12-23T11:56:20Z</time>
      </trkpt>
      <trkpt lat="45.24432" lon="6.11583">
        <ele>2677</ele>
        <time>2021-12-23T11:56:21Z</time>
      </trkpt>
      <trkpt lat="45.24432" lon="6.11581">
        <ele>2677</ele>
        <time>2021-12-23T11:56:23Z</time>
      </trkpt>
      <trkpt lat="45.24432" lon="6.1158">
        <ele>2677</ele>
        <time>2021-12-23T11:56:24Z</time>
      </trkpt>
      <trkpt lat="45.24432" lon="6.11579">
        <ele>2677</ele>
        <time>2021-12-23T11:56:25Z</time>
      </trkpt>
      <trkpt lat="45.24432" lon="6.11579">
        <ele>2677</ele>
        <time>2021-12-23T11:56:26Z</time>
      </trkpt>
      <trkpt lat="45.24432" lon="6.11579">
        <ele>2679</ele>
        <time>2021-12-23T11:56:27Z</time>
      </trkpt>
      <trkpt lat="45.24433" lon="6.11578">
        <ele>2679</ele>
        <time>2021-12-23T11:56:28Z</time>
      </trkpt>
      <trkpt lat="45.24433" lon="6.11578">
        <ele>2679</ele>
        <time>2021-12-23T11:56:29Z</time>
      </trkpt>
      <trkpt lat="45.24433" lon="6.11577">
        <ele>2679</ele>
        <time>2021-12-23T11:56:30Z</time>
      </trkpt>
      <trkpt lat="45.24433" lon="6.11577">
        <ele>2679</ele>
        <time>2021-12-23T11:56:31Z</time>
      </trkpt>
      <trkpt lat="45.24433" lon="6.11576">
        <ele>2679</ele>
        <time>2021-12-23T11:56:32Z</time>
      </trkpt>
      <trkpt lat="45.24433" lon="6.11576">
        <ele>2679</ele>
        <time>2021-12-23T11:56:33Z</time>
      </trkpt>
      <trkpt lat="45.24433" lon="6.11575">
        <ele>2679</ele>
        <time>2021-12-23T11:56:34Z</time>
      </trkpt>
      <trkpt lat="45.24433" lon="6.11575">
        <ele>2679</ele>
        <time>2021-12-23T11:56:35Z</time>
      </trkpt>
      <trkpt lat="45.24433" lon="6.11574">
        <ele>2679</ele>
        <time>2021-12-23T11:56:36Z</time>
      </trkpt>
      <trkpt lat="45.24433" lon="6.11574">
        <ele>2679</ele>
        <time>2021-12-23T11:56:37Z</time>
      </trkpt>
      <trkpt lat="45.24433" lon="6.11573">
        <ele>2680</ele>
        <time>2021-12-23T11:56:38Z</time>
      </trkpt>
      <trkpt lat="45.24433" lon="6.11573">
        <ele>2680</ele>
        <time>2021-12-23T11:56:39Z</time>
      </trkpt>
      <trkpt lat="45.24434" lon="6.11572">
        <ele>2680</ele>
        <time>2021-12-23T11:56:40Z</time>
      </trkpt>
      <trkpt lat="45.24434" lon="6.11572">
        <ele>2680</ele>
        <time>2021-12-23T11:56:42Z</time>
      </trkpt>
      <trkpt lat="45.24434" lon="6.11572">
        <ele>2680</ele>
        <time>2021-12-23T11:56:43Z</time>
      </trkpt>
      <trkpt lat="45.24434" lon="6.11571">
        <ele>2680</ele>
        <time>2021-12-23T11:56:44Z</time>
      </trkpt>
      <trkpt lat="45.24434" lon="6.11571">
        <ele>2681</ele>
        <time>2021-12-23T11:56:45Z</time>
      </trkpt>
      <trkpt lat="45.24434" lon="6.1157">
        <ele>2681</ele>
        <time>2021-12-23T11:56:46Z</time>
      </trkpt>
      <trkpt lat="45.24434" lon="6.1157">
        <ele>2681</ele>
        <time>2021-12-23T11:56:47Z</time>
      </trkpt>
      <trkpt lat="45.24434" lon="6.11569">
        <ele>2681</ele>
        <time>2021-12-23T11:56:48Z</time>
      </trkpt>
      <trkpt lat="45.24434" lon="6.11569">
        <ele>2681</ele>
        <time>2021-12-23T11:56:49Z</time>
      </trkpt>
      <trkpt lat="45.24434" lon="6.11568">
        <ele>2681</ele>
        <time>2021-12-23T11:56:50Z</time>
      </trkpt>
      <trkpt lat="45.24434" lon="6.11568">
        <ele>2681</ele>
        <time>2021-12-23T11:56:51Z</time>
      </trkpt>
      <trkpt lat="45.24434" lon="6.11567">
        <ele>2681</ele>
        <time>2021-12-23T11:56:52Z</time>
      </trkpt>
      <trkpt lat="45.24435" lon="6.11567">
        <ele>2682</ele>
        <time>2021-12-23T11:56:53Z</time>
      </trkpt>
      <trkpt lat="45.24435" lon="6.11566">
        <ele>2682</ele>
        <time>2021-12-23T11:56:54Z</time>
      </trkpt>
      <trkpt lat="45.24435" lon="6.11566">
        <ele>2682</ele>
        <time>2021-12-23T11:56:55Z</time>
      </trkpt>
      <trkpt lat="45.24435" lon="6.11565">
        <ele>2682</ele>
        <time>2021-12-23T11:56:56Z</time>
      </trkpt>
      <trkpt lat="45.24435" lon="6.11565">
        <ele>2682</ele>
        <time>2021-12-23T11:56:57Z</time>
      </trkpt>
      <trkpt lat="45.24435" lon="6.11564">
        <ele>2683</ele>
        <time>2021-12-23T11:56:58Z</time>
      </trkpt>
      <trkpt lat="45.24436" lon="6.11564">
        <ele>2683</ele>
        <time>2021-12-23T11:56:59Z</time>
      </trkpt>
      <trkpt lat="45.24436" lon="6.11563">
        <ele>2683</ele>
        <time>2021-12-23T11:57:01Z</time>
      </trkpt>
      <trkpt lat="45.24436" lon="6.11563">
        <ele>2683</ele>
        <time>2021-12-23T11:57:02Z</time>
      </trkpt>
      <trkpt lat="45.24436" lon="6.11562">
        <ele>2683</ele>
        <time>2021-12-23T11:57:03Z</time>
      </trkpt>
      <trkpt lat="45.24436" lon="6.11562">
        <ele>2684</ele>
        <time>2021-12-23T11:57:04Z</time>
      </trkpt>
      <trkpt lat="45.24436" lon="6.11561">
        <ele>2684</ele>
        <time>2021-12-23T11:57:05Z</time>
      </trkpt>
      <trkpt lat="45.24439" lon="6.11555">
        <ele>2684</ele>
        <time>2021-12-23T11:57:06Z</time>
      </trkpt>
      <trkpt lat="45.24439" lon="6.11555">
        <ele>2684</ele>
        <time>2021-12-23T11:57:07Z</time>
      </trkpt>
      <trkpt lat="45.24439" lon="6.11555">
        <ele>2684</ele>
        <time>2021-12-23T11:57:08Z</time>
      </trkpt>
      <trkpt lat="45.24439" lon="6.11555">
        <ele>2684</ele>
        <time>2021-12-23T11:57:09Z</time>
      </trkpt>
      <trkpt lat="45.24439" lon="6.11555">
        <ele>2685</ele>
        <time>2021-12-23T11:57:10Z</time>
      </trkpt>
      <trkpt lat="45.24439" lon="6.11555">
        <ele>2685</ele>
        <time>2021-12-23T11:57:11Z</time>
      </trkpt>
      <trkpt lat="45.24439" lon="6.11555">
        <ele>2685</ele>
        <time>2021-12-23T11:57:12Z</time>
      </trkpt>
      <trkpt lat="45.24439" lon="6.11555">
        <ele>2685</ele>
        <time>2021-12-23T11:57:13Z</time>
      </trkpt>
      <trkpt lat="45.24439" lon="6.11555">
        <ele>2685</ele>
        <time>2021-12-23T11:57:14Z</time>
      </trkpt>
      <trkpt lat="45.24439" lon="6.11555">
        <ele>2685</ele>
        <time>2021-12-23T11:57:15Z</time>
      </trkpt>
      <trkpt lat="45.24439" lon="6.11555">
        <ele>2685</ele>
        <time>2021-12-23T11:57:16Z</time>
      </trkpt>
      <trkpt lat="45.24439" lon="6.11555">
        <ele>2685</ele>
        <time>2021-12-23T11:57:17Z</time>
      </trkpt>
      <trkpt lat="45.24439" lon="6.11555">
        <ele>2685</ele>
        <time>2021-12-23T11:57:18Z</time>
      </trkpt>
      <trkpt lat="45.24441" lon="6.11542">
        <ele>2685</ele>
        <time>2021-12-23T11:57:20Z</time>
      </trkpt>
      <trkpt lat="45.24441" lon="6.11541">
        <ele>2685</ele>
        <time>2021-12-23T11:57:21Z</time>
      </trkpt>
      <trkpt lat="45.24441" lon="6.11539">
        <ele>2685</ele>
        <time>2021-12-23T11:57:22Z</time>
      </trkpt>
      <trkpt lat="45.24442" lon="6.11538">
        <ele>2686</ele>
        <time>2021-12-23T11:57:23Z</time>
      </trkpt>
      <trkpt lat="45.24442" lon="6.11536">
        <ele>2687</ele>
        <time>2021-12-23T11:57:24Z</time>
      </trkpt>
      <trkpt lat="45.24442" lon="6.11535">
        <ele>2687</ele>
        <time>2021-12-23T11:57:25Z</time>
      </trkpt>
      <trkpt lat="45.24443" lon="6.11533">
        <ele>2687</ele>
        <time>2021-12-23T11:57:26Z</time>
      </trkpt>
      <trkpt lat="45.24443" lon="6.11532">
        <ele>2687</ele>
        <time>2021-12-23T11:57:27Z</time>
      </trkpt>
      <trkpt lat="45.24443" lon="6.1153">
        <ele>2687</ele>
        <time>2021-12-23T11:57:28Z</time>
      </trkpt>
      <trkpt lat="45.24444" lon="6.11529">
        <ele>2688</ele>
        <time>2021-12-23T11:57:29Z</time>
      </trkpt>
      <trkpt lat="45.24444" lon="6.11529">
        <ele>2688</ele>
        <time>2021-12-23T11:57:30Z</time>
      </trkpt>
      <trkpt lat="45.24444" lon="6.11529">
        <ele>2688</ele>
        <time>2021-12-23T11:57:31Z</time>
      </trkpt>
      <trkpt lat="45.24444" lon="6.11529">
        <ele>2688</ele>
        <time>2021-12-23T11:57:32Z</time>
      </trkpt>
      <trkpt lat="45.24444" lon="6.11529">
        <ele>2689</ele>
        <time>2021-12-23T11:57:33Z</time>
      </trkpt>
      <trkpt lat="45.24444" lon="6.11529">
        <ele>2689</ele>
        <time>2021-12-23T11:57:34Z</time>
      </trkpt>
      <trkpt lat="45.24444" lon="6.11529">
        <ele>2689</ele>
        <time>2021-12-23T11:57:35Z</time>
      </trkpt>
      <trkpt lat="45.24444" lon="6.11529">
        <ele>2689</ele>
        <time>2021-12-23T11:57:36Z</time>
      </trkpt>
      <trkpt lat="45.24444" lon="6.11529">
        <ele>2689</ele>
        <time>2021-12-23T11:57:37Z</time>
      </trkpt>
      <trkpt lat="45.24444" lon="6.11529">
        <ele>2689</ele>
        <time>2021-12-23T11:57:39Z</time>
      </trkpt>
      <trkpt lat="45.24443" lon="6.11514">
        <ele>2689</ele>
        <time>2021-12-23T11:57:40Z</time>
      </trkpt>
      <trkpt lat="45.24443" lon="6.11514">
        <ele>2689</ele>
        <time>2021-12-23T11:57:42Z</time>
      </trkpt>
      <trkpt lat="45.24443" lon="6.11514">
        <ele>2689</ele>
        <time>2021-12-23T11:57:43Z</time>
      </trkpt>
      <trkpt lat="45.24443" lon="6.11514">
        <ele>2689</ele>
        <time>2021-12-23T11:57:44Z</time>
      </trkpt>
      <trkpt lat="45.24443" lon="6.11514">
        <ele>2689</ele>
        <time>2021-12-23T11:57:45Z</time>
      </trkpt>
      <trkpt lat="45.24443" lon="6.11514">
        <ele>2689</ele>
        <time>2021-12-23T11:57:46Z</time>
      </trkpt>
      <trkpt lat="45.24443" lon="6.11514">
        <ele>2691</ele>
        <time>2021-12-23T11:57:47Z</time>
      </trkpt>
      <trkpt lat="45.24443" lon="6.11514">
        <ele>2691</ele>
        <time>2021-12-23T11:57:48Z</time>
      </trkpt>
      <trkpt lat="45.24443" lon="6.11514">
        <ele>2691</ele>
        <time>2021-12-23T11:57:49Z</time>
      </trkpt>
      <trkpt lat="45.24443" lon="6.11514">
        <ele>2691</ele>
        <time>2021-12-23T11:57:50Z</time>
      </trkpt>
      <trkpt lat="45.24443" lon="6.11514">
        <ele>2691</ele>
        <time>2021-12-23T11:57:51Z</time>
      </trkpt>
      <trkpt lat="45.24443" lon="6.11514">
        <ele>2692</ele>
        <time>2021-12-23T11:57:52Z</time>
      </trkpt>
      <trkpt lat="45.24443" lon="6.11514">
        <ele>2692</ele>
        <time>2021-12-23T11:57:53Z</time>
      </trkpt>
      <trkpt lat="45.24443" lon="6.11514">
        <ele>2692</ele>
        <time>2021-12-23T11:57:54Z</time>
      </trkpt>
      <trkpt lat="45.24443" lon="6.11514">
        <ele>2692</ele>
        <time>2021-12-23T11:57:55Z</time>
      </trkpt>
      <trkpt lat="45.24443" lon="6.11514">
        <ele>2693</ele>
        <time>2021-12-23T11:57:56Z</time>
      </trkpt>
      <trkpt lat="45.24447" lon="6.11503">
        <ele>2693</ele>
        <time>2021-12-23T11:57:58Z</time>
      </trkpt>
      <trkpt lat="45.24447" lon="6.11502">
        <ele>2693</ele>
        <time>2021-12-23T11:57:59Z</time>
      </trkpt>
      <trkpt lat="45.24447" lon="6.11502">
        <ele>2693</ele>
        <time>2021-12-23T11:58:00Z</time>
      </trkpt>
      <trkpt lat="45.24446" lon="6.11501">
        <ele>2693</ele>
        <time>2021-12-23T11:58:01Z</time>
      </trkpt>
      <trkpt lat="45.24446" lon="6.115">
        <ele>2693</ele>
        <time>2021-12-23T11:58:02Z</time>
      </trkpt>
      <trkpt lat="45.24446" lon="6.115">
        <ele>2693</ele>
        <time>2021-12-23T11:58:03Z</time>
      </trkpt>
      <trkpt lat="45.24446" lon="6.11499">
        <ele>2693</ele>
        <time>2021-12-23T11:58:04Z</time>
      </trkpt>
      <trkpt lat="45.24445" lon="6.11498">
        <ele>2694</ele>
        <time>2021-12-23T11:58:05Z</time>
      </trkpt>
      <trkpt lat="45.24445" lon="6.11498">
        <ele>2694</ele>
        <time>2021-12-23T11:58:06Z</time>
      </trkpt>
      <trkpt lat="45.24445" lon="6.11497">
        <ele>2694</ele>
        <time>2021-12-23T11:58:07Z</time>
      </trkpt>
      <trkpt lat="45.24444" lon="6.11496">
        <ele>2694</ele>
        <time>2021-12-23T11:58:08Z</time>
      </trkpt>
      <trkpt lat="45.24444" lon="6.11496">
        <ele>2694</ele>
        <time>2021-12-23T11:58:09Z</time>
      </trkpt>
      <trkpt lat="45.24444" lon="6.11495">
        <ele>2694</ele>
        <time>2021-12-23T11:58:10Z</time>
      </trkpt>
      <trkpt lat="45.24444" lon="6.11494">
        <ele>2693</ele>
        <time>2021-12-23T11:58:11Z</time>
      </trkpt>
      <trkpt lat="45.24443" lon="6.11494">
        <ele>2693</ele>
        <time>2021-12-23T11:58:12Z</time>
      </trkpt>
      <trkpt lat="45.24443" lon="6.11493">
        <ele>2693</ele>
        <time>2021-12-23T11:58:13Z</time>
      </trkpt>
      <trkpt lat="45.24443" lon="6.11493">
        <ele>2693</ele>
        <time>2021-12-23T11:58:14Z</time>
      </trkpt>
      <trkpt lat="45.24442" lon="6.11492">
        <ele>2693</ele>
        <time>2021-12-23T11:58:15Z</time>
      </trkpt>
      <trkpt lat="45.24442" lon="6.11491">
        <ele>2693</ele>
        <time>2021-12-23T11:58:17Z</time>
      </trkpt>
      <trkpt lat="45.24442" lon="6.11491">
        <ele>2693</ele>
        <time>2021-12-23T11:58:18Z</time>
      </trkpt>
      <trkpt lat="45.24442" lon="6.1149">
        <ele>2693</ele>
        <time>2021-12-23T11:58:19Z</time>
      </trkpt>
      <trkpt lat="45.24441" lon="6.11489">
        <ele>2693</ele>
        <time>2021-12-23T11:58:20Z</time>
      </trkpt>
      <trkpt lat="45.24441" lon="6.11489">
        <ele>2693</ele>
        <time>2021-12-23T11:58:21Z</time>
      </trkpt>
      <trkpt lat="45.24441" lon="6.11489">
        <ele>2693</ele>
        <time>2021-12-23T11:58:22Z</time>
      </trkpt>
      <trkpt lat="45.24441" lon="6.11489">
        <ele>2693</ele>
        <time>2021-12-23T11:58:23Z</time>
      </trkpt>
      <trkpt lat="45.24441" lon="6.11489">
        <ele>2693</ele>
        <time>2021-12-23T11:58:24Z</time>
      </trkpt>
      <trkpt lat="45.24441" lon="6.11489">
        <ele>2693</ele>
        <time>2021-12-23T11:58:25Z</time>
      </trkpt>
      <trkpt lat="45.24441" lon="6.11489">
        <ele>2693</ele>
        <time>2021-12-23T11:58:26Z</time>
      </trkpt>
      <trkpt lat="45.24441" lon="6.11489">
        <ele>2694</ele>
        <time>2021-12-23T11:58:27Z</time>
      </trkpt>
      <trkpt lat="45.24441" lon="6.11489">
        <ele>2694</ele>
        <time>2021-12-23T11:58:28Z</time>
      </trkpt>
      <trkpt lat="45.24441" lon="6.11489">
        <ele>2694</ele>
        <time>2021-12-23T11:58:29Z</time>
      </trkpt>
      <trkpt lat="45.24441" lon="6.11489">
        <ele>2694</ele>
        <time>2021-12-23T11:58:30Z</time>
      </trkpt>
      <trkpt lat="45.24441" lon="6.11489">
        <ele>2694</ele>
        <time>2021-12-23T11:58:31Z</time>
      </trkpt>
      <trkpt lat="45.24441" lon="6.11489">
        <ele>2694</ele>
        <time>2021-12-23T11:58:32Z</time>
      </trkpt>
      <trkpt lat="45.24441" lon="6.11489">
        <ele>2694</ele>
        <time>2021-12-23T11:58:33Z</time>
      </trkpt>
      <trkpt lat="45.24439" lon="6.11503">
        <ele>2694</ele>
        <time>2021-12-23T11:58:34Z</time>
      </trkpt>
      <trkpt lat="45.24439" lon="6.11503">
        <ele>2694</ele>
        <time>2021-12-23T11:58:36Z</time>
      </trkpt>
      <trkpt lat="45.24439" lon="6.11503">
        <ele>2694</ele>
        <time>2021-12-23T11:58:37Z</time>
      </trkpt>
      <trkpt lat="45.24439" lon="6.11503">
        <ele>2694</ele>
        <time>2021-12-23T11:58:38Z</time>
      </trkpt>
      <trkpt lat="45.24439" lon="6.11502">
        <ele>2694</ele>
        <time>2021-12-23T11:58:39Z</time>
      </trkpt>
      <trkpt lat="45.24439" lon="6.11502">
        <ele>2694</ele>
        <time>2021-12-23T11:58:40Z</time>
      </trkpt>
      <trkpt lat="45.24439" lon="6.11502">
        <ele>2694</ele>
        <time>2021-12-23T11:58:41Z</time>
      </trkpt>
      <trkpt lat="45.24439" lon="6.11502">
        <ele>2694</ele>
        <time>2021-12-23T11:58:42Z</time>
      </trkpt>
      <trkpt lat="45.24439" lon="6.11502">
        <ele>2694</ele>
        <time>2021-12-23T11:58:43Z</time>
      </trkpt>
      <trkpt lat="45.24439" lon="6.11502">
        <ele>2694</ele>
        <time>2021-12-23T11:58:44Z</time>
      </trkpt>
      <trkpt lat="45.24439" lon="6.11501">
        <ele>2694</ele>
        <time>2021-12-23T11:58:45Z</time>
      </trkpt>
      <trkpt lat="45.2444" lon="6.11501">
        <ele>2694</ele>
        <time>2021-12-23T11:58:46Z</time>
      </trkpt>
      <trkpt lat="45.2444" lon="6.11501">
        <ele>2694</ele>
        <time>2021-12-23T11:58:47Z</time>
      </trkpt>
      <trkpt lat="45.2444" lon="6.11501">
        <ele>2694</ele>
        <time>2021-12-23T11:58:48Z</time>
      </trkpt>
      <trkpt lat="45.2444" lon="6.11501">
        <ele>2694</ele>
        <time>2021-12-23T11:58:49Z</time>
      </trkpt>
      <trkpt lat="45.2444" lon="6.11501">
        <ele>2694</ele>
        <time>2021-12-23T11:58:50Z</time>
      </trkpt>
      <trkpt lat="45.2444" lon="6.11501">
        <ele>2694</ele>
        <time>2021-12-23T11:58:51Z</time>
      </trkpt>
      <trkpt lat="45.2444" lon="6.115">
        <ele>2694</ele>
        <time>2021-12-23T11:58:52Z</time>
      </trkpt>
      <trkpt lat="45.2444" lon="6.115">
        <ele>2694</ele>
        <time>2021-12-23T11:58:53Z</time>
      </trkpt>
      <trkpt lat="45.2444" lon="6.115">
        <ele>2694</ele>
        <time>2021-12-23T11:58:55Z</time>
      </trkpt>
      <trkpt lat="45.2444" lon="6.115">
        <ele>2694</ele>
        <time>2021-12-23T11:58:56Z</time>
      </trkpt>
      <trkpt lat="45.2444" lon="6.115">
        <ele>2694</ele>
        <time>2021-12-23T11:58:57Z</time>
      </trkpt>
      <trkpt lat="45.2444" lon="6.115">
        <ele>2694</ele>
        <time>2021-12-23T11:58:58Z</time>
      </trkpt>
      <trkpt lat="45.2444" lon="6.115">
        <ele>2694</ele>
        <time>2021-12-23T11:58:59Z</time>
      </trkpt>
      <trkpt lat="45.2444" lon="6.11499">
        <ele>2694</ele>
        <time>2021-12-23T11:59:00Z</time>
      </trkpt>
      <trkpt lat="45.2444" lon="6.11499">
        <ele>2694</ele>
        <time>2021-12-23T11:59:01Z</time>
      </trkpt>
      <trkpt lat="45.2444" lon="6.11499">
        <ele>2694</ele>
        <time>2021-12-23T11:59:02Z</time>
      </trkpt>
      <trkpt lat="45.2444" lon="6.11499">
        <ele>2694</ele>
        <time>2021-12-23T11:59:03Z</time>
      </trkpt>
      <trkpt lat="45.2444" lon="6.11499">
        <ele>2694</ele>
        <time>2021-12-23T11:59:04Z</time>
      </trkpt>
      <trkpt lat="45.2444" lon="6.11499">
        <ele>2694</ele>
        <time>2021-12-23T11:59:05Z</time>
      </trkpt>
      <trkpt lat="45.2444" lon="6.11498">
        <ele>2694</ele>
        <time>2021-12-23T11:59:06Z</time>
      </trkpt>
      <trkpt lat="45.24441" lon="6.11498">
        <ele>2694</ele>
        <time>2021-12-23T11:59:07Z</time>
      </trkpt>
      <trkpt lat="45.24441" lon="6.11498">
        <ele>2694</ele>
        <time>2021-12-23T11:59:08Z</time>
      </trkpt>
      <trkpt lat="45.24441" lon="6.11498">
        <ele>2694</ele>
        <time>2021-12-23T11:59:09Z</time>
      </trkpt>
      <trkpt lat="45.24441" lon="6.11498">
        <ele>2694</ele>
        <time>2021-12-23T11:59:10Z</time>
      </trkpt>
      <trkpt lat="45.24441" lon="6.11498">
        <ele>2694</ele>
        <time>2021-12-23T11:59:11Z</time>
      </trkpt>
      <trkpt lat="45.24441" lon="6.11498">
        <ele>2694</ele>
        <time>2021-12-23T11:59:12Z</time>
      </trkpt>
      <trkpt lat="45.24441" lon="6.11497">
        <ele>2694</ele>
        <time>2021-12-23T11:59:14Z</time>
      </trkpt>
      <trkpt lat="45.24441" lon="6.11497">
        <ele>2694</ele>
        <time>2021-12-23T11:59:15Z</time>
      </trkpt>
      <trkpt lat="45.24441" lon="6.11497">
        <ele>2694</ele>
        <time>2021-12-23T11:59:16Z</time>
      </trkpt>
      <trkpt lat="45.24441" lon="6.11497">
        <ele>2694</ele>
        <time>2021-12-23T11:59:17Z</time>
      </trkpt>
      <trkpt lat="45.24441" lon="6.11497">
        <ele>2694</ele>
        <time>2021-12-23T11:59:18Z</time>
      </trkpt>
      <trkpt lat="45.24441" lon="6.11497">
        <ele>2694</ele>
        <time>2021-12-23T11:59:19Z</time>
      </trkpt>
      <trkpt lat="45.24441" lon="6.11496">
        <ele>2694</ele>
        <time>2021-12-23T11:59:20Z</time>
      </trkpt>
      <trkpt lat="45.24441" lon="6.11496">
        <ele>2694</ele>
        <time>2021-12-23T11:59:21Z</time>
      </trkpt>
      <trkpt lat="45.24441" lon="6.11496">
        <ele>2694</ele>
        <time>2021-12-23T11:59:22Z</time>
      </trkpt>
      <trkpt lat="45.24441" lon="6.11496">
        <ele>2694</ele>
        <time>2021-12-23T11:59:23Z</time>
      </trkpt>
      <trkpt lat="45.24441" lon="6.11496">
        <ele>2695</ele>
        <time>2021-12-23T11:59:24Z</time>
      </trkpt>
      <trkpt lat="45.24441" lon="6.11496">
        <ele>2695</ele>
        <time>2021-12-23T11:59:25Z</time>
      </trkpt>
      <trkpt lat="45.24441" lon="6.11496">
        <ele>2695</ele>
        <time>2021-12-23T11:59:26Z</time>
      </trkpt>
      <trkpt lat="45.24441" lon="6.11495">
        <ele>2694</ele>
        <time>2021-12-23T11:59:27Z</time>
      </trkpt>
      <trkpt lat="45.24441" lon="6.11495">
        <ele>2694</ele>
        <time>2021-12-23T11:59:28Z</time>
      </trkpt>
      <trkpt lat="45.24442" lon="6.11495">
        <ele>2694</ele>
        <time>2021-12-23T11:59:29Z</time>
      </trkpt>
      <trkpt lat="45.24442" lon="6.11495">
        <ele>2694</ele>
        <time>2021-12-23T11:59:30Z</time>
      </trkpt>
      <trkpt lat="45.24442" lon="6.11495">
        <ele>2694</ele>
        <time>2021-12-23T11:59:31Z</time>
      </trkpt>
      <trkpt lat="45.24442" lon="6.11495">
        <ele>2694</ele>
        <time>2021-12-23T11:59:33Z</time>
      </trkpt>
      <trkpt lat="45.24442" lon="6.11495">
        <ele>2694</ele>
        <time>2021-12-23T11:59:34Z</time>
      </trkpt>
      <trkpt lat="45.24442" lon="6.11494">
        <ele>2694</ele>
        <time>2021-12-23T11:59:35Z</time>
      </trkpt>
      <trkpt lat="45.24442" lon="6.11494">
        <ele>2694</ele>
        <time>2021-12-23T11:59:36Z</time>
      </trkpt>
      <trkpt lat="45.24442" lon="6.11494">
        <ele>2694</ele>
        <time>2021-12-23T11:59:37Z</time>
      </trkpt>
      <trkpt lat="45.24442" lon="6.11494">
        <ele>2694</ele>
        <time>2021-12-23T11:59:38Z</time>
      </trkpt>
      <trkpt lat="45.24442" lon="6.11494">
        <ele>2694</ele>
        <time>2021-12-23T11:59:40Z</time>
      </trkpt>
      <trkpt lat="45.24442" lon="6.11494">
        <ele>2695</ele>
        <time>2021-12-23T11:59:41Z</time>
      </trkpt>
      <trkpt lat="45.24442" lon="6.11493">
        <ele>2695</ele>
        <time>2021-12-23T11:59:42Z</time>
      </trkpt>
      <trkpt lat="45.24442" lon="6.11493">
        <ele>2695</ele>
        <time>2021-12-23T11:59:43Z</time>
      </trkpt>
      <trkpt lat="45.24442" lon="6.11493">
        <ele>2695</ele>
        <time>2021-12-23T11:59:44Z</time>
      </trkpt>
      <trkpt lat="45.24442" lon="6.11493">
        <ele>2695</ele>
        <time>2021-12-23T11:59:45Z</time>
      </trkpt>
      <trkpt lat="45.24442" lon="6.11493">
        <ele>2695</ele>
        <time>2021-12-23T11:59:46Z</time>
      </trkpt>
      <trkpt lat="45.24442" lon="6.11493">
        <ele>2696</ele>
        <time>2021-12-23T11:59:47Z</time>
      </trkpt>
      <trkpt lat="45.24442" lon="6.11493">
        <ele>2696</ele>
        <time>2021-12-23T11:59:48Z</time>
      </trkpt>
      <trkpt lat="45.24442" lon="6.11492">
        <ele>2696</ele>
        <time>2021-12-23T11:59:49Z</time>
      </trkpt>
      <trkpt lat="45.24442" lon="6.11492">
        <ele>2697</ele>
        <time>2021-12-23T11:59:50Z</time>
      </trkpt>
      <trkpt lat="45.24443" lon="6.11492">
        <ele>2697</ele>
        <time>2021-12-23T11:59:52Z</time>
      </trkpt>
      <trkpt lat="45.24443" lon="6.11492">
        <ele>2697</ele>
        <time>2021-12-23T11:59:53Z</time>
      </trkpt>
      <trkpt lat="45.24443" lon="6.11492">
        <ele>2697</ele>
        <time>2021-12-23T11:59:54Z</time>
      </trkpt>
      <trkpt lat="45.24443" lon="6.11492">
        <ele>2697</ele>
        <time>2021-12-23T11:59:55Z</time>
      </trkpt>
      <trkpt lat="45.24443" lon="6.11492">
        <ele>2697</ele>
        <time>2021-12-23T11:59:56Z</time>
      </trkpt>
      <trkpt lat="45.24443" lon="6.11492">
        <ele>2697</ele>
        <time>2021-12-23T11:59:57Z</time>
      </trkpt>
      <trkpt lat="45.24443" lon="6.11492">
        <ele>2697</ele>
        <time>2021-12-23T11:59:58Z</time>
      </trkpt>
      <trkpt lat="45.24443" lon="6.11492">
        <ele>2697</ele>
        <time>2021-12-23T11:59:59Z</time>
      </trkpt>
      <trkpt lat="45.24443" lon="6.11492">
        <ele>2697</ele>
        <time>2021-12-23T12:00:00Z</time>
      </trkpt>
      <trkpt lat="45.24443" lon="6.11492">
        <ele>2697</ele>
        <time>2021-12-23T12:00:01Z</time>
      </trkpt>
      <trkpt lat="45.24443" lon="6.11492">
        <ele>2698</ele>
        <time>2021-12-23T12:00:02Z</time>
      </trkpt>
      <trkpt lat="45.24443" lon="6.11492">
        <ele>2698</ele>
        <time>2021-12-23T12:00:03Z</time>
      </trkpt>
      <trkpt lat="45.24443" lon="6.11492">
        <ele>2698</ele>
        <time>2021-12-23T12:00:04Z</time>
      </trkpt>
      <trkpt lat="45.24443" lon="6.11492">
        <ele>2698</ele>
        <time>2021-12-23T12:00:05Z</time>
      </trkpt>
      <trkpt lat="45.24443" lon="6.11492">
        <ele>2698</ele>
        <time>2021-12-23T12:00:06Z</time>
      </trkpt>
      <trkpt lat="45.24443" lon="6.11492">
        <ele>2699</ele>
        <time>2021-12-23T12:00:07Z</time>
      </trkpt>
      <trkpt lat="45.24443" lon="6.11492">
        <ele>2699</ele>
        <time>2021-12-23T12:00:08Z</time>
      </trkpt>
      <trkpt lat="45.24443" lon="6.11492">
        <ele>2699</ele>
        <time>2021-12-23T12:00:09Z</time>
      </trkpt>
      <trkpt lat="45.24443" lon="6.11492">
        <ele>2700</ele>
        <time>2021-12-23T12:00:11Z</time>
      </trkpt>
      <trkpt lat="45.24443" lon="6.11492">
        <ele>2700</ele>
        <time>2021-12-23T12:00:12Z</time>
      </trkpt>
      <trkpt lat="45.24443" lon="6.11492">
        <ele>2700</ele>
        <time>2021-12-23T12:00:13Z</time>
      </trkpt>
      <trkpt lat="45.24443" lon="6.11492">
        <ele>2701</ele>
        <time>2021-12-23T12:00:14Z</time>
      </trkpt>
      <trkpt lat="45.24447" lon="6.11481">
        <ele>2701</ele>
        <time>2021-12-23T12:00:15Z</time>
      </trkpt>
      <trkpt lat="45.24447" lon="6.11481">
        <ele>2701</ele>
        <time>2021-12-23T12:00:17Z</time>
      </trkpt>
      <trkpt lat="45.24447" lon="6.1148">
        <ele>2701</ele>
        <time>2021-12-23T12:00:18Z</time>
      </trkpt>
      <trkpt lat="45.24447" lon="6.11479">
        <ele>2701</ele>
        <time>2021-12-23T12:00:19Z</time>
      </trkpt>
      <trkpt lat="45.24448" lon="6.11478">
        <ele>2701</ele>
        <time>2021-12-23T12:00:20Z</time>
      </trkpt>
      <trkpt lat="45.24448" lon="6.11477">
        <ele>2701</ele>
        <time>2021-12-23T12:00:21Z</time>
      </trkpt>
      <trkpt lat="45.24449" lon="6.11476">
        <ele>2701</ele>
        <time>2021-12-23T12:00:22Z</time>
      </trkpt>
      <trkpt lat="45.24449" lon="6.11475">
        <ele>2701</ele>
        <time>2021-12-23T12:00:23Z</time>
      </trkpt>
      <trkpt lat="45.24449" lon="6.11474">
        <ele>2701</ele>
        <time>2021-12-23T12:00:24Z</time>
      </trkpt>
      <trkpt lat="45.2445" lon="6.11473">
        <ele>2701</ele>
        <time>2021-12-23T12:00:25Z</time>
      </trkpt>
      <trkpt lat="45.2445" lon="6.11472">
        <ele>2701</ele>
        <time>2021-12-23T12:00:26Z</time>
      </trkpt>
      <trkpt lat="45.24451" lon="6.11471">
        <ele>2703</ele>
        <time>2021-12-23T12:00:27Z</time>
      </trkpt>
      <trkpt lat="45.24451" lon="6.1147">
        <ele>2703</ele>
        <time>2021-12-23T12:00:28Z</time>
      </trkpt>
      <trkpt lat="45.24452" lon="6.11469">
        <ele>2703</ele>
        <time>2021-12-23T12:00:29Z</time>
      </trkpt>
      <trkpt lat="45.24452" lon="6.11468">
        <ele>2703</ele>
        <time>2021-12-23T12:00:30Z</time>
      </trkpt>
      <trkpt lat="45.24453" lon="6.11467">
        <ele>2703</ele>
        <time>2021-12-23T12:00:31Z</time>
      </trkpt>
      <trkpt lat="45.24453" lon="6.11466">
        <ele>2703</ele>
        <time>2021-12-23T12:00:32Z</time>
      </trkpt>
      <trkpt lat="45.24454" lon="6.11465">
        <ele>2703</ele>
        <time>2021-12-23T12:00:33Z</time>
      </trkpt>
      <trkpt lat="45.24454" lon="6.11464">
        <ele>2703</ele>
        <time>2021-12-23T12:00:34Z</time>
      </trkpt>
      <trkpt lat="45.24455" lon="6.11463">
        <ele>2703</ele>
        <time>2021-12-23T12:00:35Z</time>
      </trkpt>
      <trkpt lat="45.24455" lon="6.11462">
        <ele>2704</ele>
        <time>2021-12-23T12:00:36Z</time>
      </trkpt>
      <trkpt lat="45.24456" lon="6.11461">
        <ele>2704</ele>
        <time>2021-12-23T12:00:37Z</time>
      </trkpt>
      <trkpt lat="45.24457" lon="6.1146">
        <ele>2704</ele>
        <time>2021-12-23T12:00:38Z</time>
      </trkpt>
      <trkpt lat="45.24457" lon="6.11459">
        <ele>2704</ele>
        <time>2021-12-23T12:00:39Z</time>
      </trkpt>
      <trkpt lat="45.24458" lon="6.11458">
        <ele>2704</ele>
        <time>2021-12-23T12:00:40Z</time>
      </trkpt>
      <trkpt lat="45.24457" lon="6.11457">
        <ele>2704</ele>
        <time>2021-12-23T12:00:41Z</time>
      </trkpt>
      <trkpt lat="45.24457" lon="6.11456">
        <ele>2704</ele>
        <time>2021-12-23T12:00:42Z</time>
      </trkpt>
      <trkpt lat="45.24456" lon="6.11455">
        <ele>2704</ele>
        <time>2021-12-23T12:00:43Z</time>
      </trkpt>
      <trkpt lat="45.24456" lon="6.11454">
        <ele>2704</ele>
        <time>2021-12-23T12:00:44Z</time>
      </trkpt>
      <trkpt lat="45.24455" lon="6.11453">
        <ele>2704</ele>
        <time>2021-12-23T12:00:45Z</time>
      </trkpt>
      <trkpt lat="45.24455" lon="6.11452">
        <ele>2705</ele>
        <time>2021-12-23T12:00:46Z</time>
      </trkpt>
      <trkpt lat="45.24454" lon="6.11452">
        <ele>2705</ele>
        <time>2021-12-23T12:00:47Z</time>
      </trkpt>
      <trkpt lat="45.24454" lon="6.11451">
        <ele>2705</ele>
        <time>2021-12-23T12:00:49Z</time>
      </trkpt>
      <trkpt lat="45.24453" lon="6.1145">
        <ele>2705</ele>
        <time>2021-12-23T12:00:50Z</time>
      </trkpt>
      <trkpt lat="45.24453" lon="6.11449">
        <ele>2705</ele>
        <time>2021-12-23T12:00:51Z</time>
      </trkpt>
      <trkpt lat="45.24452" lon="6.11448">
        <ele>2705</ele>
        <time>2021-12-23T12:00:52Z</time>
      </trkpt>
      <trkpt lat="45.24452" lon="6.11447">
        <ele>2706</ele>
        <time>2021-12-23T12:00:53Z</time>
      </trkpt>
      <trkpt lat="45.24452" lon="6.11446">
        <ele>2706</ele>
        <time>2021-12-23T12:00:54Z</time>
      </trkpt>
      <trkpt lat="45.24453" lon="6.11444">
        <ele>2706</ele>
        <time>2021-12-23T12:00:55Z</time>
      </trkpt>
      <trkpt lat="45.24454" lon="6.11443">
        <ele>2705</ele>
        <time>2021-12-23T12:00:56Z</time>
      </trkpt>
      <trkpt lat="45.24454" lon="6.11441">
        <ele>2706</ele>
        <time>2021-12-23T12:00:57Z</time>
      </trkpt>
      <trkpt lat="45.24455" lon="6.1144">
        <ele>2706</ele>
        <time>2021-12-23T12:00:58Z</time>
      </trkpt>
      <trkpt lat="45.24456" lon="6.11438">
        <ele>2706</ele>
        <time>2021-12-23T12:00:59Z</time>
      </trkpt>
      <trkpt lat="45.24456" lon="6.11437">
        <ele>2706</ele>
        <time>2021-12-23T12:01:00Z</time>
      </trkpt>
      <trkpt lat="45.24457" lon="6.11435">
        <ele>2706</ele>
        <time>2021-12-23T12:01:01Z</time>
      </trkpt>
      <trkpt lat="45.24457" lon="6.11435">
        <ele>2706</ele>
        <time>2021-12-23T12:01:02Z</time>
      </trkpt>
      <trkpt lat="45.24457" lon="6.11435">
        <ele>2706</ele>
        <time>2021-12-23T12:01:03Z</time>
      </trkpt>
      <trkpt lat="45.24457" lon="6.11435">
        <ele>2707</ele>
        <time>2021-12-23T12:01:04Z</time>
      </trkpt>
      <trkpt lat="45.24457" lon="6.11435">
        <ele>2707</ele>
        <time>2021-12-23T12:01:05Z</time>
      </trkpt>
      <trkpt lat="45.24457" lon="6.11435">
        <ele>2707</ele>
        <time>2021-12-23T12:01:06Z</time>
      </trkpt>
      <trkpt lat="45.24457" lon="6.11435">
        <ele>2707</ele>
        <time>2021-12-23T12:01:08Z</time>
      </trkpt>
      <trkpt lat="45.24463" lon="6.11425">
        <ele>2707</ele>
        <time>2021-12-23T12:01:09Z</time>
      </trkpt>
      <trkpt lat="45.24463" lon="6.11425">
        <ele>2707</ele>
        <time>2021-12-23T12:01:11Z</time>
      </trkpt>
      <trkpt lat="45.24463" lon="6.11424">
        <ele>2707</ele>
        <time>2021-12-23T12:01:12Z</time>
      </trkpt>
      <trkpt lat="45.24462" lon="6.11424">
        <ele>2707</ele>
        <time>2021-12-23T12:01:13Z</time>
      </trkpt>
      <trkpt lat="45.24462" lon="6.11423">
        <ele>2707</ele>
        <time>2021-12-23T12:01:14Z</time>
      </trkpt>
      <trkpt lat="45.24462" lon="6.11423">
        <ele>2707</ele>
        <time>2021-12-23T12:01:15Z</time>
      </trkpt>
      <trkpt lat="45.24462" lon="6.11422">
        <ele>2707</ele>
        <time>2021-12-23T12:01:16Z</time>
      </trkpt>
      <trkpt lat="45.24461" lon="6.11422">
        <ele>2707</ele>
        <time>2021-12-23T12:01:17Z</time>
      </trkpt>
      <trkpt lat="45.24461" lon="6.11421">
        <ele>2707</ele>
        <time>2021-12-23T12:01:18Z</time>
      </trkpt>
      <trkpt lat="45.24461" lon="6.11421">
        <ele>2707</ele>
        <time>2021-12-23T12:01:19Z</time>
      </trkpt>
      <trkpt lat="45.2446" lon="6.1142">
        <ele>2707</ele>
        <time>2021-12-23T12:01:20Z</time>
      </trkpt>
      <trkpt lat="45.2446" lon="6.1142">
        <ele>2707</ele>
        <time>2021-12-23T12:01:21Z</time>
      </trkpt>
      <trkpt lat="45.2446" lon="6.11419">
        <ele>2707</ele>
        <time>2021-12-23T12:01:22Z</time>
      </trkpt>
      <trkpt lat="45.2446" lon="6.11419">
        <ele>2707</ele>
        <time>2021-12-23T12:01:23Z</time>
      </trkpt>
      <trkpt lat="45.24459" lon="6.11418">
        <ele>2707</ele>
        <time>2021-12-23T12:01:24Z</time>
      </trkpt>
      <trkpt lat="45.24459" lon="6.11418">
        <ele>2707</ele>
        <time>2021-12-23T12:01:25Z</time>
      </trkpt>
      <trkpt lat="45.24459" lon="6.11417">
        <ele>2707</ele>
        <time>2021-12-23T12:01:27Z</time>
      </trkpt>
      <trkpt lat="45.24458" lon="6.11417">
        <ele>2707</ele>
        <time>2021-12-23T12:01:28Z</time>
      </trkpt>
      <trkpt lat="45.24458" lon="6.11416">
        <ele>2706</ele>
        <time>2021-12-23T12:01:29Z</time>
      </trkpt>
      <trkpt lat="45.24458" lon="6.11416">
        <ele>2706</ele>
        <time>2021-12-23T12:01:30Z</time>
      </trkpt>
      <trkpt lat="45.24458" lon="6.11415">
        <ele>2706</ele>
        <time>2021-12-23T12:01:31Z</time>
      </trkpt>
      <trkpt lat="45.24457" lon="6.11415">
        <ele>2706</ele>
        <time>2021-12-23T12:01:32Z</time>
      </trkpt>
      <trkpt lat="45.24457" lon="6.11413">
        <ele>2706</ele>
        <time>2021-12-23T12:01:33Z</time>
      </trkpt>
      <trkpt lat="45.24457" lon="6.11412">
        <ele>2706</ele>
        <time>2021-12-23T12:01:34Z</time>
      </trkpt>
      <trkpt lat="45.24457" lon="6.1141">
        <ele>2706</ele>
        <time>2021-12-23T12:01:35Z</time>
      </trkpt>
      <trkpt lat="45.24457" lon="6.11408">
        <ele>2706</ele>
        <time>2021-12-23T12:01:36Z</time>
      </trkpt>
      <trkpt lat="45.24457" lon="6.11407">
        <ele>2706</ele>
        <time>2021-12-23T12:01:37Z</time>
      </trkpt>
      <trkpt lat="45.24457" lon="6.11405">
        <ele>2706</ele>
        <time>2021-12-23T12:01:38Z</time>
      </trkpt>
      <trkpt lat="45.24457" lon="6.11403">
        <ele>2706</ele>
        <time>2021-12-23T12:01:39Z</time>
      </trkpt>
      <trkpt lat="45.24457" lon="6.11402">
        <ele>2706</ele>
        <time>2021-12-23T12:01:40Z</time>
      </trkpt>
      <trkpt lat="45.24458" lon="6.11401">
        <ele>2707</ele>
        <time>2021-12-23T12:01:41Z</time>
      </trkpt>
      <trkpt lat="45.24458" lon="6.114">
        <ele>2707</ele>
        <time>2021-12-23T12:01:42Z</time>
      </trkpt>
      <trkpt lat="45.24459" lon="6.11399">
        <ele>2707</ele>
        <time>2021-12-23T12:01:43Z</time>
      </trkpt>
      <trkpt lat="45.24459" lon="6.11398">
        <ele>2707</ele>
        <time>2021-12-23T12:01:44Z</time>
      </trkpt>
      <trkpt lat="45.2446" lon="6.11397">
        <ele>2707</ele>
        <time>2021-12-23T12:01:46Z</time>
      </trkpt>
      <trkpt lat="45.24461" lon="6.11396">
        <ele>2707</ele>
        <time>2021-12-23T12:01:47Z</time>
      </trkpt>
      <trkpt lat="45.24461" lon="6.11395">
        <ele>2707</ele>
        <time>2021-12-23T12:01:48Z</time>
      </trkpt>
      <trkpt lat="45.24462" lon="6.11394">
        <ele>2707</ele>
        <time>2021-12-23T12:01:49Z</time>
      </trkpt>
      <trkpt lat="45.24462" lon="6.11393">
        <ele>2707</ele>
        <time>2021-12-23T12:01:50Z</time>
      </trkpt>
      <trkpt lat="45.24463" lon="6.11392">
        <ele>2707</ele>
        <time>2021-12-23T12:01:51Z</time>
      </trkpt>
      <trkpt lat="45.24463" lon="6.11391">
        <ele>2707</ele>
        <time>2021-12-23T12:01:52Z</time>
      </trkpt>
      <trkpt lat="45.24464" lon="6.11391">
        <ele>2707</ele>
        <time>2021-12-23T12:01:53Z</time>
      </trkpt>
      <trkpt lat="45.24464" lon="6.1139">
        <ele>2707</ele>
        <time>2021-12-23T12:01:54Z</time>
      </trkpt>
      <trkpt lat="45.24464" lon="6.1139">
        <ele>2707</ele>
        <time>2021-12-23T12:01:55Z</time>
      </trkpt>
      <trkpt lat="45.24464" lon="6.11389">
        <ele>2707</ele>
        <time>2021-12-23T12:01:56Z</time>
      </trkpt>
      <trkpt lat="45.24465" lon="6.11389">
        <ele>2707</ele>
        <time>2021-12-23T12:01:57Z</time>
      </trkpt>
      <trkpt lat="45.24465" lon="6.11388">
        <ele>2707</ele>
        <time>2021-12-23T12:01:58Z</time>
      </trkpt>
      <trkpt lat="45.24465" lon="6.11388">
        <ele>2707</ele>
        <time>2021-12-23T12:01:59Z</time>
      </trkpt>
      <trkpt lat="45.24466" lon="6.11388">
        <ele>2707</ele>
        <time>2021-12-23T12:02:00Z</time>
      </trkpt>
      <trkpt lat="45.24466" lon="6.11387">
        <ele>2708</ele>
        <time>2021-12-23T12:02:01Z</time>
      </trkpt>
      <trkpt lat="45.24466" lon="6.11387">
        <ele>2708</ele>
        <time>2021-12-23T12:02:02Z</time>
      </trkpt>
      <trkpt lat="45.2447" lon="6.11381">
        <ele>2708</ele>
        <time>2021-12-23T12:02:03Z</time>
      </trkpt>
      <trkpt lat="45.2447" lon="6.11381">
        <ele>2709</ele>
        <time>2021-12-23T12:02:05Z</time>
      </trkpt>
      <trkpt lat="45.2447" lon="6.11381">
        <ele>2709</ele>
        <time>2021-12-23T12:02:06Z</time>
      </trkpt>
      <trkpt lat="45.2447" lon="6.11381">
        <ele>2709</ele>
        <time>2021-12-23T12:02:07Z</time>
      </trkpt>
      <trkpt lat="45.2447" lon="6.11381">
        <ele>2710</ele>
        <time>2021-12-23T12:02:08Z</time>
      </trkpt>
      <trkpt lat="45.2447" lon="6.11381">
        <ele>2710</ele>
        <time>2021-12-23T12:02:09Z</time>
      </trkpt>
      <trkpt lat="45.2447" lon="6.11381">
        <ele>2710</ele>
        <time>2021-12-23T12:02:10Z</time>
      </trkpt>
      <trkpt lat="45.2447" lon="6.11381">
        <ele>2710</ele>
        <time>2021-12-23T12:02:11Z</time>
      </trkpt>
      <trkpt lat="45.2447" lon="6.11381">
        <ele>2710</ele>
        <time>2021-12-23T12:02:12Z</time>
      </trkpt>
      <trkpt lat="45.2447" lon="6.11381">
        <ele>2710</ele>
        <time>2021-12-23T12:02:13Z</time>
      </trkpt>
      <trkpt lat="45.2447" lon="6.11381">
        <ele>2711</ele>
        <time>2021-12-23T12:02:14Z</time>
      </trkpt>
      <trkpt lat="45.2447" lon="6.11381">
        <ele>2711</ele>
        <time>2021-12-23T12:02:15Z</time>
      </trkpt>
      <trkpt lat="45.2447" lon="6.11381">
        <ele>2711</ele>
        <time>2021-12-23T12:02:16Z</time>
      </trkpt>
      <trkpt lat="45.2447" lon="6.11381">
        <ele>2711</ele>
        <time>2021-12-23T12:02:17Z</time>
      </trkpt>
      <trkpt lat="45.24474" lon="6.1137">
        <ele>2711</ele>
        <time>2021-12-23T12:02:18Z</time>
      </trkpt>
      <trkpt lat="45.24474" lon="6.1137">
        <ele>2711</ele>
        <time>2021-12-23T12:02:20Z</time>
      </trkpt>
      <trkpt lat="45.24474" lon="6.11369">
        <ele>2711</ele>
        <time>2021-12-23T12:02:21Z</time>
      </trkpt>
      <trkpt lat="45.24474" lon="6.11369">
        <ele>2712</ele>
        <time>2021-12-23T12:02:22Z</time>
      </trkpt>
      <trkpt lat="45.24474" lon="6.11368">
        <ele>2712</ele>
        <time>2021-12-23T12:02:24Z</time>
      </trkpt>
      <trkpt lat="45.24474" lon="6.11367">
        <ele>2712</ele>
        <time>2021-12-23T12:02:25Z</time>
      </trkpt>
      <trkpt lat="45.24473" lon="6.11366">
        <ele>2712</ele>
        <time>2021-12-23T12:02:26Z</time>
      </trkpt>
      <trkpt lat="45.24473" lon="6.11365">
        <ele>2712</ele>
        <time>2021-12-23T12:02:27Z</time>
      </trkpt>
      <trkpt lat="45.24473" lon="6.11364">
        <ele>2712</ele>
        <time>2021-12-23T12:02:28Z</time>
      </trkpt>
      <trkpt lat="45.24473" lon="6.11363">
        <ele>2712</ele>
        <time>2021-12-23T12:02:29Z</time>
      </trkpt>
      <trkpt lat="45.24473" lon="6.11362">
        <ele>2712</ele>
        <time>2021-12-23T12:02:30Z</time>
      </trkpt>
      <trkpt lat="45.24473" lon="6.11361">
        <ele>2712</ele>
        <time>2021-12-23T12:02:31Z</time>
      </trkpt>
      <trkpt lat="45.24473" lon="6.1136">
        <ele>2712</ele>
        <time>2021-12-23T12:02:32Z</time>
      </trkpt>
      <trkpt lat="45.24473" lon="6.11359">
        <ele>2712</ele>
        <time>2021-12-23T12:02:33Z</time>
      </trkpt>
      <trkpt lat="45.24472" lon="6.11358">
        <ele>2712</ele>
        <time>2021-12-23T12:02:34Z</time>
      </trkpt>
      <trkpt lat="45.24472" lon="6.11359">
        <ele>2712</ele>
        <time>2021-12-23T12:02:35Z</time>
      </trkpt>
      <trkpt lat="45.24471" lon="6.1136">
        <ele>2713</ele>
        <time>2021-12-23T12:02:36Z</time>
      </trkpt>
      <trkpt lat="45.2447" lon="6.11361">
        <ele>2713</ele>
        <time>2021-12-23T12:02:37Z</time>
      </trkpt>
      <trkpt lat="45.24469" lon="6.11362">
        <ele>2713</ele>
        <time>2021-12-23T12:02:38Z</time>
      </trkpt>
      <trkpt lat="45.24468" lon="6.11363">
        <ele>2713</ele>
        <time>2021-12-23T12:02:39Z</time>
      </trkpt>
      <trkpt lat="45.24468" lon="6.11364">
        <ele>2713</ele>
        <time>2021-12-23T12:02:40Z</time>
      </trkpt>
      <trkpt lat="45.24467" lon="6.11365">
        <ele>2713</ele>
        <time>2021-12-23T12:02:41Z</time>
      </trkpt>
      <trkpt lat="45.24466" lon="6.11366">
        <ele>2713</ele>
        <time>2021-12-23T12:02:43Z</time>
      </trkpt>
      <trkpt lat="45.24465" lon="6.11367">
        <ele>2713</ele>
        <time>2021-12-23T12:02:44Z</time>
      </trkpt>
      <trkpt lat="45.24464" lon="6.11368">
        <ele>2713</ele>
        <time>2021-12-23T12:02:45Z</time>
      </trkpt>
      <trkpt lat="45.24463" lon="6.11369">
        <ele>2713</ele>
        <time>2021-12-23T12:02:46Z</time>
      </trkpt>
      <trkpt lat="45.24464" lon="6.11367">
        <ele>2713</ele>
        <time>2021-12-23T12:02:47Z</time>
      </trkpt>
      <trkpt lat="45.24465" lon="6.11365">
        <ele>2713</ele>
        <time>2021-12-23T12:02:48Z</time>
      </trkpt>
      <trkpt lat="45.24466" lon="6.11363">
        <ele>2713</ele>
        <time>2021-12-23T12:02:49Z</time>
      </trkpt>
      <trkpt lat="45.24467" lon="6.11361">
        <ele>2713</ele>
        <time>2021-12-23T12:02:50Z</time>
      </trkpt>
      <trkpt lat="45.24468" lon="6.11359">
        <ele>2713</ele>
        <time>2021-12-23T12:02:51Z</time>
      </trkpt>
      <trkpt lat="45.24468" lon="6.11357">
        <ele>2713</ele>
        <time>2021-12-23T12:02:52Z</time>
      </trkpt>
      <trkpt lat="45.24469" lon="6.11355">
        <ele>2713</ele>
        <time>2021-12-23T12:02:53Z</time>
      </trkpt>
      <trkpt lat="45.2447" lon="6.11354">
        <ele>2713</ele>
        <time>2021-12-23T12:02:54Z</time>
      </trkpt>
      <trkpt lat="45.24471" lon="6.11352">
        <ele>2715</ele>
        <time>2021-12-23T12:02:55Z</time>
      </trkpt>
      <trkpt lat="45.24471" lon="6.11352">
        <ele>2715</ele>
        <time>2021-12-23T12:02:56Z</time>
      </trkpt>
      <trkpt lat="45.24471" lon="6.11352">
        <ele>2715</ele>
        <time>2021-12-23T12:02:57Z</time>
      </trkpt>
      <trkpt lat="45.24471" lon="6.11352">
        <ele>2715</ele>
        <time>2021-12-23T12:02:58Z</time>
      </trkpt>
      <trkpt lat="45.24471" lon="6.11352">
        <ele>2715</ele>
        <time>2021-12-23T12:02:59Z</time>
      </trkpt>
      <trkpt lat="45.24471" lon="6.11352">
        <ele>2715</ele>
        <time>2021-12-23T12:03:00Z</time>
      </trkpt>
      <trkpt lat="45.24475" lon="6.11339">
        <ele>2715</ele>
        <time>2021-12-23T12:03:02Z</time>
      </trkpt>
      <trkpt lat="45.24475" lon="6.11339">
        <ele>2715</ele>
        <time>2021-12-23T12:03:03Z</time>
      </trkpt>
      <trkpt lat="45.24475" lon="6.11339">
        <ele>2715</ele>
        <time>2021-12-23T12:03:04Z</time>
      </trkpt>
      <trkpt lat="45.24475" lon="6.11339">
        <ele>2715</ele>
        <time>2021-12-23T12:03:05Z</time>
      </trkpt>
      <trkpt lat="45.24475" lon="6.11339">
        <ele>2715</ele>
        <time>2021-12-23T12:03:06Z</time>
      </trkpt>
      <trkpt lat="45.24475" lon="6.11339">
        <ele>2715</ele>
        <time>2021-12-23T12:03:07Z</time>
      </trkpt>
      <trkpt lat="45.24475" lon="6.11339">
        <ele>2715</ele>
        <time>2021-12-23T12:03:08Z</time>
      </trkpt>
      <trkpt lat="45.24475" lon="6.11339">
        <ele>2715</ele>
        <time>2021-12-23T12:03:09Z</time>
      </trkpt>
      <trkpt lat="45.24475" lon="6.11339">
        <ele>2715</ele>
        <time>2021-12-23T12:03:10Z</time>
      </trkpt>
      <trkpt lat="45.24473" lon="6.11357">
        <ele>2715</ele>
        <time>2021-12-23T12:03:11Z</time>
      </trkpt>
      <trkpt lat="45.24473" lon="6.11357">
        <ele>2715</ele>
        <time>2021-12-23T12:03:13Z</time>
      </trkpt>
      <trkpt lat="45.24473" lon="6.11357">
        <ele>2715</ele>
        <time>2021-12-23T12:03:14Z</time>
      </trkpt>
      <trkpt lat="45.24473" lon="6.11356">
        <ele>2715</ele>
        <time>2021-12-23T12:03:15Z</time>
      </trkpt>
      <trkpt lat="45.24473" lon="6.11355">
        <ele>2715</ele>
        <time>2021-12-23T12:03:16Z</time>
      </trkpt>
      <trkpt lat="45.24473" lon="6.11355">
        <ele>2715</ele>
        <time>2021-12-23T12:03:17Z</time>
      </trkpt>
      <trkpt lat="45.24473" lon="6.11354">
        <ele>2715</ele>
        <time>2021-12-23T12:03:18Z</time>
      </trkpt>
      <trkpt lat="45.24472" lon="6.11353">
        <ele>2715</ele>
        <time>2021-12-23T12:03:20Z</time>
      </trkpt>
      <trkpt lat="45.24472" lon="6.11352">
        <ele>2715</ele>
        <time>2021-12-23T12:03:21Z</time>
      </trkpt>
      <trkpt lat="45.24472" lon="6.11352">
        <ele>2715</ele>
        <time>2021-12-23T12:03:22Z</time>
      </trkpt>
      <trkpt lat="45.24472" lon="6.11351">
        <ele>2715</ele>
        <time>2021-12-23T12:03:23Z</time>
      </trkpt>
      <trkpt lat="45.24472" lon="6.1135">
        <ele>2715</ele>
        <time>2021-12-23T12:03:24Z</time>
      </trkpt>
      <trkpt lat="45.24472" lon="6.11349">
        <ele>2715</ele>
        <time>2021-12-23T12:03:25Z</time>
      </trkpt>
      <trkpt lat="45.24472" lon="6.11349">
        <ele>2715</ele>
        <time>2021-12-23T12:03:26Z</time>
      </trkpt>
      <trkpt lat="45.24472" lon="6.11348">
        <ele>2715</ele>
        <time>2021-12-23T12:03:27Z</time>
      </trkpt>
      <trkpt lat="45.24472" lon="6.11347">
        <ele>2715</ele>
        <time>2021-12-23T12:03:28Z</time>
      </trkpt>
      <trkpt lat="45.24472" lon="6.11346">
        <ele>2715</ele>
        <time>2021-12-23T12:03:29Z</time>
      </trkpt>
      <trkpt lat="45.24471" lon="6.11346">
        <ele>2715</ele>
        <time>2021-12-23T12:03:30Z</time>
      </trkpt>
      <trkpt lat="45.24471" lon="6.11345">
        <ele>2715</ele>
        <time>2021-12-23T12:03:31Z</time>
      </trkpt>
      <trkpt lat="45.24471" lon="6.11344">
        <ele>2716</ele>
        <time>2021-12-23T12:03:32Z</time>
      </trkpt>
      <trkpt lat="45.24471" lon="6.11343">
        <ele>2716</ele>
        <time>2021-12-23T12:03:33Z</time>
      </trkpt>
      <trkpt lat="45.24471" lon="6.11342">
        <ele>2716</ele>
        <time>2021-12-23T12:03:34Z</time>
      </trkpt>
      <trkpt lat="45.24471" lon="6.11342">
        <ele>2716</ele>
        <time>2021-12-23T12:03:35Z</time>
      </trkpt>
      <trkpt lat="45.2447" lon="6.11341">
        <ele>2716</ele>
        <time>2021-12-23T12:03:36Z</time>
      </trkpt>
      <trkpt lat="45.2447" lon="6.1134">
        <ele>2717</ele>
        <time>2021-12-23T12:03:37Z</time>
      </trkpt>
      <trkpt lat="45.2447" lon="6.11339">
        <ele>2717</ele>
        <time>2021-12-23T12:03:38Z</time>
      </trkpt>
      <trkpt lat="45.2447" lon="6.11338">
        <ele>2717</ele>
        <time>2021-12-23T12:03:40Z</time>
      </trkpt>
      <trkpt lat="45.2447" lon="6.11338">
        <ele>2717</ele>
        <time>2021-12-23T12:03:41Z</time>
      </trkpt>
      <trkpt lat="45.2447" lon="6.11337">
        <ele>2717</ele>
        <time>2021-12-23T12:03:42Z</time>
      </trkpt>
      <trkpt lat="45.24469" lon="6.11336">
        <ele>2717</ele>
        <time>2021-12-23T12:03:43Z</time>
      </trkpt>
      <trkpt lat="45.24469" lon="6.11335">
        <ele>2717</ele>
        <time>2021-12-23T12:03:44Z</time>
      </trkpt>
      <trkpt lat="45.24467" lon="6.11325">
        <ele>2717</ele>
        <time>2021-12-23T12:03:45Z</time>
      </trkpt>
      <trkpt lat="45.24466" lon="6.11324">
        <ele>2717</ele>
        <time>2021-12-23T12:03:46Z</time>
      </trkpt>
      <trkpt lat="45.24466" lon="6.11323">
        <ele>2717</ele>
        <time>2021-12-23T12:03:47Z</time>
      </trkpt>
      <trkpt lat="45.24466" lon="6.11322">
        <ele>2717</ele>
        <time>2021-12-23T12:03:48Z</time>
      </trkpt>
      <trkpt lat="45.24465" lon="6.11322">
        <ele>2717</ele>
        <time>2021-12-23T12:03:49Z</time>
      </trkpt>
      <trkpt lat="45.24465" lon="6.11321">
        <ele>2718</ele>
        <time>2021-12-23T12:03:50Z</time>
      </trkpt>
      <trkpt lat="45.24465" lon="6.1132">
        <ele>2718</ele>
        <time>2021-12-23T12:03:51Z</time>
      </trkpt>
      <trkpt lat="45.24464" lon="6.11319">
        <ele>2718</ele>
        <time>2021-12-23T12:03:52Z</time>
      </trkpt>
      <trkpt lat="45.24464" lon="6.11318">
        <ele>2718</ele>
        <time>2021-12-23T12:03:53Z</time>
      </trkpt>
      <trkpt lat="45.24463" lon="6.11318">
        <ele>2718</ele>
        <time>2021-12-23T12:03:54Z</time>
      </trkpt>
      <trkpt lat="45.24463" lon="6.11317">
        <ele>2718</ele>
        <time>2021-12-23T12:03:55Z</time>
      </trkpt>
      <trkpt lat="45.24463" lon="6.11316">
        <ele>2718</ele>
        <time>2021-12-23T12:03:56Z</time>
      </trkpt>
      <trkpt lat="45.24462" lon="6.11315">
        <ele>2718</ele>
        <time>2021-12-23T12:03:57Z</time>
      </trkpt>
      <trkpt lat="45.24462" lon="6.11314">
        <ele>2718</ele>
        <time>2021-12-23T12:03:59Z</time>
      </trkpt>
      <trkpt lat="45.24462" lon="6.11314">
        <ele>2718</ele>
        <time>2021-12-23T12:04:00Z</time>
      </trkpt>
      <trkpt lat="45.24461" lon="6.11313">
        <ele>2718</ele>
        <time>2021-12-23T12:04:01Z</time>
      </trkpt>
      <trkpt lat="45.24461" lon="6.11313">
        <ele>2718</ele>
        <time>2021-12-23T12:04:02Z</time>
      </trkpt>
      <trkpt lat="45.24461" lon="6.11313">
        <ele>2718</ele>
        <time>2021-12-23T12:04:03Z</time>
      </trkpt>
      <trkpt lat="45.24461" lon="6.11313">
        <ele>2718</ele>
        <time>2021-12-23T12:04:04Z</time>
      </trkpt>
      <trkpt lat="45.24461" lon="6.11313">
        <ele>2718</ele>
        <time>2021-12-23T12:04:05Z</time>
      </trkpt>
      <trkpt lat="45.24461" lon="6.11313">
        <ele>2718</ele>
        <time>2021-12-23T12:04:06Z</time>
      </trkpt>
      <trkpt lat="45.24461" lon="6.11313">
        <ele>2718</ele>
        <time>2021-12-23T12:04:07Z</time>
      </trkpt>
      <trkpt lat="45.24461" lon="6.11313">
        <ele>2718</ele>
        <time>2021-12-23T12:04:08Z</time>
      </trkpt>
      <trkpt lat="45.24462" lon="6.11299">
        <ele>2718</ele>
        <time>2021-12-23T12:04:09Z</time>
      </trkpt>
      <trkpt lat="45.24462" lon="6.11299">
        <ele>2718</ele>
        <time>2021-12-23T12:04:11Z</time>
      </trkpt>
      <trkpt lat="45.24462" lon="6.11299">
        <ele>2718</ele>
        <time>2021-12-23T12:04:12Z</time>
      </trkpt>
      <trkpt lat="45.24462" lon="6.11299">
        <ele>2718</ele>
        <time>2021-12-23T12:04:13Z</time>
      </trkpt>
      <trkpt lat="45.24462" lon="6.11299">
        <ele>2718</ele>
        <time>2021-12-23T12:04:14Z</time>
      </trkpt>
      <trkpt lat="45.24462" lon="6.11298">
        <ele>2718</ele>
        <time>2021-12-23T12:04:15Z</time>
      </trkpt>
      <trkpt lat="45.24462" lon="6.11298">
        <ele>2718</ele>
        <time>2021-12-23T12:04:16Z</time>
      </trkpt>
      <trkpt lat="45.24462" lon="6.11298">
        <ele>2718</ele>
        <time>2021-12-23T12:04:18Z</time>
      </trkpt>
      <trkpt lat="45.24462" lon="6.11298">
        <ele>2718</ele>
        <time>2021-12-23T12:04:19Z</time>
      </trkpt>
      <trkpt lat="45.24462" lon="6.11298">
        <ele>2718</ele>
        <time>2021-12-23T12:04:20Z</time>
      </trkpt>
      <trkpt lat="45.24462" lon="6.11298">
        <ele>2718</ele>
        <time>2021-12-23T12:04:21Z</time>
      </trkpt>
      <trkpt lat="45.24462" lon="6.11298">
        <ele>2718</ele>
        <time>2021-12-23T12:04:22Z</time>
      </trkpt>
      <trkpt lat="45.24462" lon="6.11298">
        <ele>2718</ele>
        <time>2021-12-23T12:04:23Z</time>
      </trkpt>
      <trkpt lat="45.24462" lon="6.11298">
        <ele>2718</ele>
        <time>2021-12-23T12:04:24Z</time>
      </trkpt>
      <trkpt lat="45.24462" lon="6.11297">
        <ele>2718</ele>
        <time>2021-12-23T12:04:25Z</time>
      </trkpt>
      <trkpt lat="45.24462" lon="6.11297">
        <ele>2718</ele>
        <time>2021-12-23T12:04:26Z</time>
      </trkpt>
      <trkpt lat="45.24462" lon="6.11297">
        <ele>2718</ele>
        <time>2021-12-23T12:04:27Z</time>
      </trkpt>
      <trkpt lat="45.24462" lon="6.11297">
        <ele>2718</ele>
        <time>2021-12-23T12:04:28Z</time>
      </trkpt>
      <trkpt lat="45.24462" lon="6.11297">
        <ele>2718</ele>
        <time>2021-12-23T12:04:29Z</time>
      </trkpt>
      <trkpt lat="45.24462" lon="6.11297">
        <ele>2718</ele>
        <time>2021-12-23T12:04:30Z</time>
      </trkpt>
      <trkpt lat="45.24462" lon="6.11297">
        <ele>2718</ele>
        <time>2021-12-23T12:04:31Z</time>
      </trkpt>
      <trkpt lat="45.24462" lon="6.11297">
        <ele>2718</ele>
        <time>2021-12-23T12:04:32Z</time>
      </trkpt>
      <trkpt lat="45.24462" lon="6.11297">
        <ele>2718</ele>
        <time>2021-12-23T12:04:33Z</time>
      </trkpt>
      <trkpt lat="45.24462" lon="6.11296">
        <ele>2718</ele>
        <time>2021-12-23T12:04:34Z</time>
      </trkpt>
      <trkpt lat="45.24462" lon="6.11296">
        <ele>2717</ele>
        <time>2021-12-23T12:04:35Z</time>
      </trkpt>
      <trkpt lat="45.24462" lon="6.11296">
        <ele>2717</ele>
        <time>2021-12-23T12:04:37Z</time>
      </trkpt>
      <trkpt lat="45.24462" lon="6.11296">
        <ele>2717</ele>
        <time>2021-12-23T12:04:38Z</time>
      </trkpt>
      <trkpt lat="45.24462" lon="6.11296">
        <ele>2717</ele>
        <time>2021-12-23T12:04:39Z</time>
      </trkpt>
      <trkpt lat="45.24462" lon="6.11296">
        <ele>2717</ele>
        <time>2021-12-23T12:04:40Z</time>
      </trkpt>
      <trkpt lat="45.24462" lon="6.11296">
        <ele>2717</ele>
        <time>2021-12-23T12:04:41Z</time>
      </trkpt>
      <trkpt lat="45.24462" lon="6.11296">
        <ele>2717</ele>
        <time>2021-12-23T12:04:42Z</time>
      </trkpt>
      <trkpt lat="45.24462" lon="6.11295">
        <ele>2717</ele>
        <time>2021-12-23T12:04:43Z</time>
      </trkpt>
      <trkpt lat="45.24462" lon="6.11295">
        <ele>2717</ele>
        <time>2021-12-23T12:04:44Z</time>
      </trkpt>
      <trkpt lat="45.24462" lon="6.11295">
        <ele>2717</ele>
        <time>2021-12-23T12:04:45Z</time>
      </trkpt>
      <trkpt lat="45.24462" lon="6.11295">
        <ele>2717</ele>
        <time>2021-12-23T12:04:46Z</time>
      </trkpt>
      <trkpt lat="45.24462" lon="6.11295">
        <ele>2717</ele>
        <time>2021-12-23T12:04:47Z</time>
      </trkpt>
      <trkpt lat="45.24462" lon="6.11295">
        <ele>2717</ele>
        <time>2021-12-23T12:04:48Z</time>
      </trkpt>
      <trkpt lat="45.24461" lon="6.11295">
        <ele>2717</ele>
        <time>2021-12-23T12:04:49Z</time>
      </trkpt>
      <trkpt lat="45.24461" lon="6.11295">
        <ele>2717</ele>
        <time>2021-12-23T12:04:50Z</time>
      </trkpt>
      <trkpt lat="45.24461" lon="6.11295">
        <ele>2717</ele>
        <time>2021-12-23T12:04:51Z</time>
      </trkpt>
      <trkpt lat="45.24461" lon="6.11294">
        <ele>2717</ele>
        <time>2021-12-23T12:04:52Z</time>
      </trkpt>
      <trkpt lat="45.24461" lon="6.11294">
        <ele>2717</ele>
        <time>2021-12-23T12:04:53Z</time>
      </trkpt>
      <trkpt lat="45.24461" lon="6.11294">
        <ele>2717</ele>
        <time>2021-12-23T12:04:54Z</time>
      </trkpt>
      <trkpt lat="45.24461" lon="6.11294">
        <ele>2717</ele>
        <time>2021-12-23T12:04:56Z</time>
      </trkpt>
      <trkpt lat="45.24461" lon="6.11294">
        <ele>2717</ele>
        <time>2021-12-23T12:04:57Z</time>
      </trkpt>
      <trkpt lat="45.24461" lon="6.11294">
        <ele>2717</ele>
        <time>2021-12-23T12:04:58Z</time>
      </trkpt>
      <trkpt lat="45.24461" lon="6.11294">
        <ele>2717</ele>
        <time>2021-12-23T12:04:59Z</time>
      </trkpt>
      <trkpt lat="45.24461" lon="6.11294">
        <ele>2717</ele>
        <time>2021-12-23T12:05:00Z</time>
      </trkpt>
      <trkpt lat="45.24461" lon="6.11294">
        <ele>2717</ele>
        <time>2021-12-23T12:05:01Z</time>
      </trkpt>
      <trkpt lat="45.24461" lon="6.11293">
        <ele>2717</ele>
        <time>2021-12-23T12:05:02Z</time>
      </trkpt>
      <trkpt lat="45.24461" lon="6.11293">
        <ele>2717</ele>
        <time>2021-12-23T12:05:03Z</time>
      </trkpt>
      <trkpt lat="45.24461" lon="6.11293">
        <ele>2717</ele>
        <time>2021-12-23T12:05:04Z</time>
      </trkpt>
      <trkpt lat="45.24461" lon="6.11293">
        <ele>2717</ele>
        <time>2021-12-23T12:05:05Z</time>
      </trkpt>
      <trkpt lat="45.24461" lon="6.11293">
        <ele>2717</ele>
        <time>2021-12-23T12:05:06Z</time>
      </trkpt>
      <trkpt lat="45.24461" lon="6.11293">
        <ele>2718</ele>
        <time>2021-12-23T12:05:07Z</time>
      </trkpt>
      <trkpt lat="45.24461" lon="6.11293">
        <ele>2718</ele>
        <time>2021-12-23T12:05:08Z</time>
      </trkpt>
      <trkpt lat="45.24461" lon="6.11293">
        <ele>2718</ele>
        <time>2021-12-23T12:05:09Z</time>
      </trkpt>
      <trkpt lat="45.24461" lon="6.11293">
        <ele>2718</ele>
        <time>2021-12-23T12:05:10Z</time>
      </trkpt>
      <trkpt lat="45.24461" lon="6.11292">
        <ele>2718</ele>
        <time>2021-12-23T12:05:11Z</time>
      </trkpt>
      <trkpt lat="45.24461" lon="6.11292">
        <ele>2718</ele>
        <time>2021-12-23T12:05:12Z</time>
      </trkpt>
      <trkpt lat="45.24461" lon="6.11292">
        <ele>2718</ele>
        <time>2021-12-23T12:05:13Z</time>
      </trkpt>
      <trkpt lat="45.24461" lon="6.11292">
        <ele>2718</ele>
        <time>2021-12-23T12:05:15Z</time>
      </trkpt>
      <trkpt lat="45.24461" lon="6.11292">
        <ele>2718</ele>
        <time>2021-12-23T12:05:16Z</time>
      </trkpt>
      <trkpt lat="45.24461" lon="6.11292">
        <ele>2718</ele>
        <time>2021-12-23T12:05:17Z</time>
      </trkpt>
      <trkpt lat="45.24461" lon="6.11292">
        <ele>2718</ele>
        <time>2021-12-23T12:05:18Z</time>
      </trkpt>
      <trkpt lat="45.24461" lon="6.11292">
        <ele>2718</ele>
        <time>2021-12-23T12:05:19Z</time>
      </trkpt>
      <trkpt lat="45.24461" lon="6.11291">
        <ele>2718</ele>
        <time>2021-12-23T12:05:20Z</time>
      </trkpt>
      <trkpt lat="45.24461" lon="6.11291">
        <ele>2718</ele>
        <time>2021-12-23T12:05:21Z</time>
      </trkpt>
      <trkpt lat="45.24461" lon="6.11291">
        <ele>2718</ele>
        <time>2021-12-23T12:05:22Z</time>
      </trkpt>
      <trkpt lat="45.24461" lon="6.11291">
        <ele>2719</ele>
        <time>2021-12-23T12:05:23Z</time>
      </trkpt>
      <trkpt lat="45.24461" lon="6.11291">
        <ele>2719</ele>
        <time>2021-12-23T12:05:24Z</time>
      </trkpt>
      <trkpt lat="45.24461" lon="6.11291">
        <ele>2719</ele>
        <time>2021-12-23T12:05:25Z</time>
      </trkpt>
      <trkpt lat="45.24461" lon="6.11291">
        <ele>2718</ele>
        <time>2021-12-23T12:05:26Z</time>
      </trkpt>
      <trkpt lat="45.24461" lon="6.11291">
        <ele>2718</ele>
        <time>2021-12-23T12:05:27Z</time>
      </trkpt>
      <trkpt lat="45.24461" lon="6.11291">
        <ele>2718</ele>
        <time>2021-12-23T12:05:28Z</time>
      </trkpt>
      <trkpt lat="45.24461" lon="6.1129">
        <ele>2718</ele>
        <time>2021-12-23T12:05:29Z</time>
      </trkpt>
      <trkpt lat="45.24461" lon="6.1129">
        <ele>2718</ele>
        <time>2021-12-23T12:05:30Z</time>
      </trkpt>
      <trkpt lat="45.24461" lon="6.1129">
        <ele>2718</ele>
        <time>2021-12-23T12:05:31Z</time>
      </trkpt>
      <trkpt lat="45.24461" lon="6.1129">
        <ele>2718</ele>
        <time>2021-12-23T12:05:32Z</time>
      </trkpt>
      <trkpt lat="45.24461" lon="6.1129">
        <ele>2718</ele>
        <time>2021-12-23T12:05:34Z</time>
      </trkpt>
      <trkpt lat="45.24461" lon="6.1129">
        <ele>2718</ele>
        <time>2021-12-23T12:05:35Z</time>
      </trkpt>
      <trkpt lat="45.24461" lon="6.1129">
        <ele>2718</ele>
        <time>2021-12-23T12:05:36Z</time>
      </trkpt>
      <trkpt lat="45.24461" lon="6.1129">
        <ele>2718</ele>
        <time>2021-12-23T12:05:37Z</time>
      </trkpt>
      <trkpt lat="45.24461" lon="6.1129">
        <ele>2718</ele>
        <time>2021-12-23T12:05:38Z</time>
      </trkpt>
      <trkpt lat="45.24461" lon="6.11289">
        <ele>2718</ele>
        <time>2021-12-23T12:05:39Z</time>
      </trkpt>
      <trkpt lat="45.24461" lon="6.11289">
        <ele>2718</ele>
        <time>2021-12-23T12:05:40Z</time>
      </trkpt>
      <trkpt lat="45.24461" lon="6.11289">
        <ele>2718</ele>
        <time>2021-12-23T12:05:41Z</time>
      </trkpt>
      <trkpt lat="45.24461" lon="6.11289">
        <ele>2718</ele>
        <time>2021-12-23T12:05:42Z</time>
      </trkpt>
      <trkpt lat="45.24461" lon="6.11289">
        <ele>2718</ele>
        <time>2021-12-23T12:05:43Z</time>
      </trkpt>
      <trkpt lat="45.24461" lon="6.11289">
        <ele>2717</ele>
        <time>2021-12-23T12:05:44Z</time>
      </trkpt>
      <trkpt lat="45.24461" lon="6.11289">
        <ele>2717</ele>
        <time>2021-12-23T12:05:45Z</time>
      </trkpt>
      <trkpt lat="45.24461" lon="6.11289">
        <ele>2716</ele>
        <time>2021-12-23T12:05:47Z</time>
      </trkpt>
      <trkpt lat="45.24461" lon="6.11288">
        <ele>2717</ele>
        <time>2021-12-23T12:05:48Z</time>
      </trkpt>
      <trkpt lat="45.24461" lon="6.11288">
        <ele>2717</ele>
        <time>2021-12-23T12:05:49Z</time>
      </trkpt>
      <trkpt lat="45.24461" lon="6.11288">
        <ele>2717</ele>
        <time>2021-12-23T12:05:50Z</time>
      </trkpt>
      <trkpt lat="45.24461" lon="6.11288">
        <ele>2717</ele>
        <time>2021-12-23T12:05:51Z</time>
      </trkpt>
      <trkpt lat="45.24461" lon="6.11288">
        <ele>2717</ele>
        <time>2021-12-23T12:05:53Z</time>
      </trkpt>
      <trkpt lat="45.24461" lon="6.11288">
        <ele>2717</ele>
        <time>2021-12-23T12:05:54Z</time>
      </trkpt>
      <trkpt lat="45.24461" lon="6.11288">
        <ele>2717</ele>
        <time>2021-12-23T12:05:55Z</time>
      </trkpt>
      <trkpt lat="45.24461" lon="6.11288">
        <ele>2717</ele>
        <time>2021-12-23T12:05:56Z</time>
      </trkpt>
      <trkpt lat="45.24461" lon="6.11288">
        <ele>2717</ele>
        <time>2021-12-23T12:05:57Z</time>
      </trkpt>
      <trkpt lat="45.24461" lon="6.11287">
        <ele>2717</ele>
        <time>2021-12-23T12:05:58Z</time>
      </trkpt>
      <trkpt lat="45.24461" lon="6.11287">
        <ele>2717</ele>
        <time>2021-12-23T12:05:59Z</time>
      </trkpt>
      <trkpt lat="45.24461" lon="6.11287">
        <ele>2717</ele>
        <time>2021-12-23T12:06:00Z</time>
      </trkpt>
      <trkpt lat="45.24461" lon="6.11287">
        <ele>2717</ele>
        <time>2021-12-23T12:06:01Z</time>
      </trkpt>
      <trkpt lat="45.24461" lon="6.11287">
        <ele>2717</ele>
        <time>2021-12-23T12:06:02Z</time>
      </trkpt>
      <trkpt lat="45.24461" lon="6.11287">
        <ele>2717</ele>
        <time>2021-12-23T12:06:03Z</time>
      </trkpt>
      <trkpt lat="45.24461" lon="6.11287">
        <ele>2717</ele>
        <time>2021-12-23T12:06:04Z</time>
      </trkpt>
      <trkpt lat="45.24461" lon="6.11287">
        <ele>2717</ele>
        <time>2021-12-23T12:06:05Z</time>
      </trkpt>
      <trkpt lat="45.24461" lon="6.11287">
        <ele>2717</ele>
        <time>2021-12-23T12:06:06Z</time>
      </trkpt>
      <trkpt lat="45.24461" lon="6.11286">
        <ele>2717</ele>
        <time>2021-12-23T12:06:07Z</time>
      </trkpt>
      <trkpt lat="45.24461" lon="6.11286">
        <ele>2717</ele>
        <time>2021-12-23T12:06:08Z</time>
      </trkpt>
      <trkpt lat="45.24461" lon="6.11286">
        <ele>2717</ele>
        <time>2021-12-23T12:06:09Z</time>
      </trkpt>
      <trkpt lat="45.24461" lon="6.11286">
        <ele>2717</ele>
        <time>2021-12-23T12:06:10Z</time>
      </trkpt>
      <trkpt lat="45.24461" lon="6.11286">
        <ele>2717</ele>
        <time>2021-12-23T12:06:12Z</time>
      </trkpt>
      <trkpt lat="45.24461" lon="6.11286">
        <ele>2717</ele>
        <time>2021-12-23T12:06:13Z</time>
      </trkpt>
      <trkpt lat="45.24461" lon="6.11286">
        <ele>2718</ele>
        <time>2021-12-23T12:06:14Z</time>
      </trkpt>
      <trkpt lat="45.24461" lon="6.11286">
        <ele>2718</ele>
        <time>2021-12-23T12:06:15Z</time>
      </trkpt>
      <trkpt lat="45.24461" lon="6.11286">
        <ele>2718</ele>
        <time>2021-12-23T12:06:16Z</time>
      </trkpt>
      <trkpt lat="45.24461" lon="6.11285">
        <ele>2718</ele>
        <time>2021-12-23T12:06:17Z</time>
      </trkpt>
      <trkpt lat="45.24461" lon="6.11285">
        <ele>2718</ele>
        <time>2021-12-23T12:06:18Z</time>
      </trkpt>
      <trkpt lat="45.24461" lon="6.11285">
        <ele>2718</ele>
        <time>2021-12-23T12:06:19Z</time>
      </trkpt>
      <trkpt lat="45.24461" lon="6.11285">
        <ele>2718</ele>
        <time>2021-12-23T12:06:20Z</time>
      </trkpt>
      <trkpt lat="45.24461" lon="6.11285">
        <ele>2717</ele>
        <time>2021-12-23T12:06:21Z</time>
      </trkpt>
      <trkpt lat="45.24461" lon="6.11285">
        <ele>2717</ele>
        <time>2021-12-23T12:06:22Z</time>
      </trkpt>
      <trkpt lat="45.24461" lon="6.11285">
        <ele>2717</ele>
        <time>2021-12-23T12:06:23Z</time>
      </trkpt>
      <trkpt lat="45.24461" lon="6.11285">
        <ele>2717</ele>
        <time>2021-12-23T12:06:24Z</time>
      </trkpt>
      <trkpt lat="45.24461" lon="6.11285">
        <ele>2717</ele>
        <time>2021-12-23T12:06:25Z</time>
      </trkpt>
      <trkpt lat="45.24461" lon="6.11285">
        <ele>2717</ele>
        <time>2021-12-23T12:06:26Z</time>
      </trkpt>
      <trkpt lat="45.24461" lon="6.11285">
        <ele>2717</ele>
        <time>2021-12-23T12:06:27Z</time>
      </trkpt>
      <trkpt lat="45.24461" lon="6.11285">
        <ele>2717</ele>
        <time>2021-12-23T12:06:28Z</time>
      </trkpt>
      <trkpt lat="45.24461" lon="6.11285">
        <ele>2717</ele>
        <time>2021-12-23T12:06:29Z</time>
      </trkpt>
      <trkpt lat="45.24461" lon="6.11285">
        <ele>2717</ele>
        <time>2021-12-23T12:06:31Z</time>
      </trkpt>
      <trkpt lat="45.24461" lon="6.11285">
        <ele>2717</ele>
        <time>2021-12-23T12:06:32Z</time>
      </trkpt>
      <trkpt lat="45.24461" lon="6.11285">
        <ele>2717</ele>
        <time>2021-12-23T12:06:33Z</time>
      </trkpt>
      <trkpt lat="45.24462" lon="6.11285">
        <ele>2717</ele>
        <time>2021-12-23T12:06:34Z</time>
      </trkpt>
      <trkpt lat="45.24462" lon="6.11285">
        <ele>2717</ele>
        <time>2021-12-23T12:06:35Z</time>
      </trkpt>
      <trkpt lat="45.24462" lon="6.11285">
        <ele>2717</ele>
        <time>2021-12-23T12:06:36Z</time>
      </trkpt>
      <trkpt lat="45.24462" lon="6.11285">
        <ele>2717</ele>
        <time>2021-12-23T12:06:37Z</time>
      </trkpt>
      <trkpt lat="45.24462" lon="6.11285">
        <ele>2717</ele>
        <time>2021-12-23T12:06:38Z</time>
      </trkpt>
      <trkpt lat="45.24462" lon="6.11285">
        <ele>2717</ele>
        <time>2021-12-23T12:06:39Z</time>
      </trkpt>
      <trkpt lat="45.24462" lon="6.11285">
        <ele>2718</ele>
        <time>2021-12-23T12:06:40Z</time>
      </trkpt>
      <trkpt lat="45.24462" lon="6.11285">
        <ele>2718</ele>
        <time>2021-12-23T12:06:41Z</time>
      </trkpt>
      <trkpt lat="45.24462" lon="6.11285">
        <ele>2718</ele>
        <time>2021-12-23T12:06:42Z</time>
      </trkpt>
      <trkpt lat="45.24462" lon="6.11285">
        <ele>2718</ele>
        <time>2021-12-23T12:06:43Z</time>
      </trkpt>
      <trkpt lat="45.24462" lon="6.11285">
        <ele>2718</ele>
        <time>2021-12-23T12:06:44Z</time>
      </trkpt>
      <trkpt lat="45.24462" lon="6.11285">
        <ele>2718</ele>
        <time>2021-12-23T12:06:45Z</time>
      </trkpt>
      <trkpt lat="45.24462" lon="6.11285">
        <ele>2718</ele>
        <time>2021-12-23T12:06:46Z</time>
      </trkpt>
      <trkpt lat="45.24462" lon="6.11285">
        <ele>2718</ele>
        <time>2021-12-23T12:06:47Z</time>
      </trkpt>
      <trkpt lat="45.24462" lon="6.11284">
        <ele>2718</ele>
        <time>2021-12-23T12:06:48Z</time>
      </trkpt>
      <trkpt lat="45.24462" lon="6.11284">
        <ele>2718</ele>
        <time>2021-12-23T12:06:50Z</time>
      </trkpt>
      <trkpt lat="45.24462" lon="6.11284">
        <ele>2718</ele>
        <time>2021-12-23T12:06:51Z</time>
      </trkpt>
      <trkpt lat="45.24462" lon="6.11284">
        <ele>2718</ele>
        <time>2021-12-23T12:06:52Z</time>
      </trkpt>
      <trkpt lat="45.24462" lon="6.11284">
        <ele>2718</ele>
        <time>2021-12-23T12:06:53Z</time>
      </trkpt>
      <trkpt lat="45.24462" lon="6.11284">
        <ele>2718</ele>
        <time>2021-12-23T12:06:54Z</time>
      </trkpt>
      <trkpt lat="45.24462" lon="6.11284">
        <ele>2718</ele>
        <time>2021-12-23T12:06:55Z</time>
      </trkpt>
      <trkpt lat="45.24462" lon="6.11284">
        <ele>2718</ele>
        <time>2021-12-23T12:06:56Z</time>
      </trkpt>
      <trkpt lat="45.24462" lon="6.11284">
        <ele>2718</ele>
        <time>2021-12-23T12:06:57Z</time>
      </trkpt>
      <trkpt lat="45.24462" lon="6.11284">
        <ele>2718</ele>
        <time>2021-12-23T12:06:58Z</time>
      </trkpt>
      <trkpt lat="45.24462" lon="6.11284">
        <ele>2718</ele>
        <time>2021-12-23T12:06:59Z</time>
      </trkpt>
      <trkpt lat="45.24462" lon="6.11284">
        <ele>2718</ele>
        <time>2021-12-23T12:07:00Z</time>
      </trkpt>
      <trkpt lat="45.24462" lon="6.11284">
        <ele>2718</ele>
        <time>2021-12-23T12:07:01Z</time>
      </trkpt>
      <trkpt lat="45.24462" lon="6.11284">
        <ele>2718</ele>
        <time>2021-12-23T12:07:02Z</time>
      </trkpt>
      <trkpt lat="45.24462" lon="6.11284">
        <ele>2718</ele>
        <time>2021-12-23T12:07:03Z</time>
      </trkpt>
      <trkpt lat="45.24462" lon="6.11284">
        <ele>2718</ele>
        <time>2021-12-23T12:07:04Z</time>
      </trkpt>
      <trkpt lat="45.24462" lon="6.11284">
        <ele>2718</ele>
        <time>2021-12-23T12:07:05Z</time>
      </trkpt>
      <trkpt lat="45.24462" lon="6.11284">
        <ele>2718</ele>
        <time>2021-12-23T12:07:06Z</time>
      </trkpt>
      <trkpt lat="45.24462" lon="6.11284">
        <ele>2718</ele>
        <time>2021-12-23T12:07:07Z</time>
      </trkpt>
      <trkpt lat="45.24462" lon="6.11284">
        <ele>2718</ele>
        <time>2021-12-23T12:07:09Z</time>
      </trkpt>
      <trkpt lat="45.24462" lon="6.11284">
        <ele>2718</ele>
        <time>2021-12-23T12:07:10Z</time>
      </trkpt>
      <trkpt lat="45.24462" lon="6.11284">
        <ele>2718</ele>
        <time>2021-12-23T12:07:11Z</time>
      </trkpt>
      <trkpt lat="45.24462" lon="6.11284">
        <ele>2718</ele>
        <time>2021-12-23T12:07:12Z</time>
      </trkpt>
      <trkpt lat="45.24462" lon="6.11284">
        <ele>2718</ele>
        <time>2021-12-23T12:07:13Z</time>
      </trkpt>
      <trkpt lat="45.24462" lon="6.11284">
        <ele>2718</ele>
        <time>2021-12-23T12:07:14Z</time>
      </trkpt>
      <trkpt lat="45.24462" lon="6.11284">
        <ele>2718</ele>
        <time>2021-12-23T12:07:15Z</time>
      </trkpt>
      <trkpt lat="45.24462" lon="6.11284">
        <ele>2718</ele>
        <time>2021-12-23T12:07:16Z</time>
      </trkpt>
      <trkpt lat="45.24462" lon="6.11284">
        <ele>2718</ele>
        <time>2021-12-23T12:07:17Z</time>
      </trkpt>
      <trkpt lat="45.24462" lon="6.11284">
        <ele>2718</ele>
        <time>2021-12-23T12:07:18Z</time>
      </trkpt>
      <trkpt lat="45.24462" lon="6.11284">
        <ele>2718</ele>
        <time>2021-12-23T12:07:19Z</time>
      </trkpt>
      <trkpt lat="45.24462" lon="6.11284">
        <ele>2718</ele>
        <time>2021-12-23T12:07:20Z</time>
      </trkpt>
      <trkpt lat="45.24463" lon="6.11284">
        <ele>2718</ele>
        <time>2021-12-23T12:07:21Z</time>
      </trkpt>
      <trkpt lat="45.24463" lon="6.11284">
        <ele>2718</ele>
        <time>2021-12-23T12:07:22Z</time>
      </trkpt>
      <trkpt lat="45.24463" lon="6.11284">
        <ele>2718</ele>
        <time>2021-12-23T12:07:23Z</time>
      </trkpt>
      <trkpt lat="45.24463" lon="6.11284">
        <ele>2718</ele>
        <time>2021-12-23T12:07:24Z</time>
      </trkpt>
      <trkpt lat="45.24463" lon="6.11284">
        <ele>2718</ele>
        <time>2021-12-23T12:07:25Z</time>
      </trkpt>
      <trkpt lat="45.24463" lon="6.11284">
        <ele>2718</ele>
        <time>2021-12-23T12:07:26Z</time>
      </trkpt>
      <trkpt lat="45.24463" lon="6.11284">
        <ele>2718</ele>
        <time>2021-12-23T12:07:28Z</time>
      </trkpt>
      <trkpt lat="45.24463" lon="6.11284">
        <ele>2718</ele>
        <time>2021-12-23T12:07:29Z</time>
      </trkpt>
      <trkpt lat="45.24463" lon="6.11284">
        <ele>2718</ele>
        <time>2021-12-23T12:07:30Z</time>
      </trkpt>
      <trkpt lat="45.24463" lon="6.11284">
        <ele>2718</ele>
        <time>2021-12-23T12:07:31Z</time>
      </trkpt>
      <trkpt lat="45.24463" lon="6.11284">
        <ele>2718</ele>
        <time>2021-12-23T12:07:32Z</time>
      </trkpt>
      <trkpt lat="45.24463" lon="6.11284">
        <ele>2718</ele>
        <time>2021-12-23T12:07:33Z</time>
      </trkpt>
      <trkpt lat="45.24463" lon="6.11284">
        <ele>2718</ele>
        <time>2021-12-23T12:07:34Z</time>
      </trkpt>
      <trkpt lat="45.24463" lon="6.11284">
        <ele>2718</ele>
        <time>2021-12-23T12:07:35Z</time>
      </trkpt>
      <trkpt lat="45.24463" lon="6.11284">
        <ele>2718</ele>
        <time>2021-12-23T12:07:36Z</time>
      </trkpt>
      <trkpt lat="45.24463" lon="6.11284">
        <ele>2718</ele>
        <time>2021-12-23T12:07:37Z</time>
      </trkpt>
      <trkpt lat="45.24463" lon="6.11284">
        <ele>2718</ele>
        <time>2021-12-23T12:07:38Z</time>
      </trkpt>
      <trkpt lat="45.24463" lon="6.11284">
        <ele>2718</ele>
        <time>2021-12-23T12:07:39Z</time>
      </trkpt>
      <trkpt lat="45.24463" lon="6.11284">
        <ele>2718</ele>
        <time>2021-12-23T12:07:40Z</time>
      </trkpt>
      <trkpt lat="45.24463" lon="6.11284">
        <ele>2718</ele>
        <time>2021-12-23T12:07:41Z</time>
      </trkpt>
      <trkpt lat="45.24463" lon="6.11284">
        <ele>2718</ele>
        <time>2021-12-23T12:07:42Z</time>
      </trkpt>
      <trkpt lat="45.24463" lon="6.11284">
        <ele>2718</ele>
        <time>2021-12-23T12:07:43Z</time>
      </trkpt>
      <trkpt lat="45.24463" lon="6.11284">
        <ele>2718</ele>
        <time>2021-12-23T12:07:44Z</time>
      </trkpt>
      <trkpt lat="45.24463" lon="6.11284">
        <ele>2718</ele>
        <time>2021-12-23T12:07:45Z</time>
      </trkpt>
      <trkpt lat="45.24463" lon="6.11284">
        <ele>2718</ele>
        <time>2021-12-23T12:07:47Z</time>
      </trkpt>
      <trkpt lat="45.24463" lon="6.11284">
        <ele>2718</ele>
        <time>2021-12-23T12:07:48Z</time>
      </trkpt>
      <trkpt lat="45.24463" lon="6.11284">
        <ele>2718</ele>
        <time>2021-12-23T12:07:49Z</time>
      </trkpt>
      <trkpt lat="45.24463" lon="6.11284">
        <ele>2718</ele>
        <time>2021-12-23T12:07:50Z</time>
      </trkpt>
      <trkpt lat="45.24463" lon="6.11283">
        <ele>2718</ele>
        <time>2021-12-23T12:07:51Z</time>
      </trkpt>
      <trkpt lat="45.24463" lon="6.11283">
        <ele>2718</ele>
        <time>2021-12-23T12:07:52Z</time>
      </trkpt>
      <trkpt lat="45.24463" lon="6.11283">
        <ele>2718</ele>
        <time>2021-12-23T12:07:53Z</time>
      </trkpt>
      <trkpt lat="45.24463" lon="6.11283">
        <ele>2718</ele>
        <time>2021-12-23T12:07:54Z</time>
      </trkpt>
      <trkpt lat="45.24463" lon="6.11283">
        <ele>2718</ele>
        <time>2021-12-23T12:07:55Z</time>
      </trkpt>
      <trkpt lat="45.24463" lon="6.11283">
        <ele>2718</ele>
        <time>2021-12-23T12:07:56Z</time>
      </trkpt>
      <trkpt lat="45.24463" lon="6.11283">
        <ele>2718</ele>
        <time>2021-12-23T12:07:57Z</time>
      </trkpt>
      <trkpt lat="45.24463" lon="6.11283">
        <ele>2718</ele>
        <time>2021-12-23T12:07:58Z</time>
      </trkpt>
      <trkpt lat="45.24463" lon="6.11283">
        <ele>2718</ele>
        <time>2021-12-23T12:07:59Z</time>
      </trkpt>
      <trkpt lat="45.24463" lon="6.11283">
        <ele>2718</ele>
        <time>2021-12-23T12:08:00Z</time>
      </trkpt>
      <trkpt lat="45.24463" lon="6.11283">
        <ele>2718</ele>
        <time>2021-12-23T12:08:01Z</time>
      </trkpt>
      <trkpt lat="45.24463" lon="6.11283">
        <ele>2718</ele>
        <time>2021-12-23T12:08:02Z</time>
      </trkpt>
      <trkpt lat="45.24463" lon="6.11283">
        <ele>2718</ele>
        <time>2021-12-23T12:08:03Z</time>
      </trkpt>
      <trkpt lat="45.24463" lon="6.11283">
        <ele>2718</ele>
        <time>2021-12-23T12:08:04Z</time>
      </trkpt>
      <trkpt lat="45.24463" lon="6.11283">
        <ele>2720</ele>
        <time>2021-12-23T12:08:06Z</time>
      </trkpt>
      <trkpt lat="45.24463" lon="6.11283">
        <ele>2718</ele>
        <time>2021-12-23T12:08:07Z</time>
      </trkpt>
      <trkpt lat="45.24463" lon="6.11283">
        <ele>2718</ele>
        <time>2021-12-23T12:08:08Z</time>
      </trkpt>
      <trkpt lat="45.24464" lon="6.11283">
        <ele>2718</ele>
        <time>2021-12-23T12:08:09Z</time>
      </trkpt>
      <trkpt lat="45.24464" lon="6.11283">
        <ele>2718</ele>
        <time>2021-12-23T12:08:10Z</time>
      </trkpt>
      <trkpt lat="45.24464" lon="6.11283">
        <ele>2718</ele>
        <time>2021-12-23T12:08:11Z</time>
      </trkpt>
      <trkpt lat="45.24464" lon="6.11283">
        <ele>2718</ele>
        <time>2021-12-23T12:08:12Z</time>
      </trkpt>
      <trkpt lat="45.24464" lon="6.11283">
        <ele>2718</ele>
        <time>2021-12-23T12:08:13Z</time>
      </trkpt>
      <trkpt lat="45.24464" lon="6.11283">
        <ele>2718</ele>
        <time>2021-12-23T12:08:14Z</time>
      </trkpt>
      <trkpt lat="45.24464" lon="6.11283">
        <ele>2718</ele>
        <time>2021-12-23T12:08:15Z</time>
      </trkpt>
      <trkpt lat="45.24464" lon="6.11283">
        <ele>2718</ele>
        <time>2021-12-23T12:08:16Z</time>
      </trkpt>
      <trkpt lat="45.24464" lon="6.11283">
        <ele>2718</ele>
        <time>2021-12-23T12:08:17Z</time>
      </trkpt>
      <trkpt lat="45.24464" lon="6.11283">
        <ele>2718</ele>
        <time>2021-12-23T12:08:18Z</time>
      </trkpt>
      <trkpt lat="45.24464" lon="6.11283">
        <ele>2718</ele>
        <time>2021-12-23T12:08:19Z</time>
      </trkpt>
      <trkpt lat="45.24464" lon="6.11283">
        <ele>2720</ele>
        <time>2021-12-23T12:08:20Z</time>
      </trkpt>
      <trkpt lat="45.24464" lon="6.11283">
        <ele>2720</ele>
        <time>2021-12-23T12:08:21Z</time>
      </trkpt>
      <trkpt lat="45.24464" lon="6.11283">
        <ele>2720</ele>
        <time>2021-12-23T12:08:22Z</time>
      </trkpt>
      <trkpt lat="45.24464" lon="6.11283">
        <ele>2720</ele>
        <time>2021-12-23T12:08:23Z</time>
      </trkpt>
      <trkpt lat="45.24464" lon="6.11283">
        <ele>2720</ele>
        <time>2021-12-23T12:08:25Z</time>
      </trkpt>
      <trkpt lat="45.24464" lon="6.11283">
        <ele>2720</ele>
        <time>2021-12-23T12:08:26Z</time>
      </trkpt>
      <trkpt lat="45.24464" lon="6.11283">
        <ele>2720</ele>
        <time>2021-12-23T12:08:27Z</time>
      </trkpt>
      <trkpt lat="45.24464" lon="6.11283">
        <ele>2720</ele>
        <time>2021-12-23T12:08:28Z</time>
      </trkpt>
      <trkpt lat="45.24464" lon="6.11283">
        <ele>2720</ele>
        <time>2021-12-23T12:08:29Z</time>
      </trkpt>
      <trkpt lat="45.24464" lon="6.11283">
        <ele>2720</ele>
        <time>2021-12-23T12:08:30Z</time>
      </trkpt>
      <trkpt lat="45.24464" lon="6.11283">
        <ele>2720</ele>
        <time>2021-12-23T12:08:31Z</time>
      </trkpt>
      <trkpt lat="45.24464" lon="6.11283">
        <ele>2720</ele>
        <time>2021-12-23T12:08:32Z</time>
      </trkpt>
      <trkpt lat="45.24464" lon="6.11283">
        <ele>2720</ele>
        <time>2021-12-23T12:08:33Z</time>
      </trkpt>
      <trkpt lat="45.24464" lon="6.11283">
        <ele>2720</ele>
        <time>2021-12-23T12:08:34Z</time>
      </trkpt>
      <trkpt lat="45.24464" lon="6.11283">
        <ele>2720</ele>
        <time>2021-12-23T12:08:35Z</time>
      </trkpt>
      <trkpt lat="45.24464" lon="6.11283">
        <ele>2720</ele>
        <time>2021-12-23T12:08:36Z</time>
      </trkpt>
      <trkpt lat="45.24464" lon="6.11283">
        <ele>2720</ele>
        <time>2021-12-23T12:08:37Z</time>
      </trkpt>
      <trkpt lat="45.24464" lon="6.11283">
        <ele>2720</ele>
        <time>2021-12-23T12:08:38Z</time>
      </trkpt>
      <trkpt lat="45.24464" lon="6.11283">
        <ele>2720</ele>
        <time>2021-12-23T12:08:39Z</time>
      </trkpt>
      <trkpt lat="45.24464" lon="6.11283">
        <ele>2720</ele>
        <time>2021-12-23T12:08:40Z</time>
      </trkpt>
      <trkpt lat="45.24464" lon="6.11283">
        <ele>2718</ele>
        <time>2021-12-23T12:08:41Z</time>
      </trkpt>
      <trkpt lat="45.24464" lon="6.11283">
        <ele>2718</ele>
        <time>2021-12-23T12:08:42Z</time>
      </trkpt>
      <trkpt lat="45.24464" lon="6.11283">
        <ele>2718</ele>
        <time>2021-12-23T12:08:44Z</time>
      </trkpt>
      <trkpt lat="45.24464" lon="6.11283">
        <ele>2718</ele>
        <time>2021-12-23T12:08:45Z</time>
      </trkpt>
      <trkpt lat="45.24464" lon="6.11283">
        <ele>2718</ele>
        <time>2021-12-23T12:08:46Z</time>
      </trkpt>
      <trkpt lat="45.24464" lon="6.11283">
        <ele>2718</ele>
        <time>2021-12-23T12:08:47Z</time>
      </trkpt>
      <trkpt lat="45.24464" lon="6.11283">
        <ele>2718</ele>
        <time>2021-12-23T12:08:48Z</time>
      </trkpt>
      <trkpt lat="45.24464" lon="6.11283">
        <ele>2718</ele>
        <time>2021-12-23T12:08:49Z</time>
      </trkpt>
      <trkpt lat="45.24464" lon="6.11283">
        <ele>2718</ele>
        <time>2021-12-23T12:08:50Z</time>
      </trkpt>
      <trkpt lat="45.24464" lon="6.11283">
        <ele>2718</ele>
        <time>2021-12-23T12:08:51Z</time>
      </trkpt>
      <trkpt lat="45.24464" lon="6.11283">
        <ele>2718</ele>
        <time>2021-12-23T12:08:52Z</time>
      </trkpt>
      <trkpt lat="45.24464" lon="6.11283">
        <ele>2718</ele>
        <time>2021-12-23T12:08:53Z</time>
      </trkpt>
      <trkpt lat="45.24464" lon="6.11282">
        <ele>2718</ele>
        <time>2021-12-23T12:08:54Z</time>
      </trkpt>
      <trkpt lat="45.24464" lon="6.11282">
        <ele>2718</ele>
        <time>2021-12-23T12:08:55Z</time>
      </trkpt>
      <trkpt lat="45.24464" lon="6.11282">
        <ele>2719</ele>
        <time>2021-12-23T12:08:56Z</time>
      </trkpt>
      <trkpt lat="45.24465" lon="6.11282">
        <ele>2719</ele>
        <time>2021-12-23T12:08:57Z</time>
      </trkpt>
      <trkpt lat="45.24465" lon="6.11282">
        <ele>2719</ele>
        <time>2021-12-23T12:08:58Z</time>
      </trkpt>
      <trkpt lat="45.24465" lon="6.11282">
        <ele>2719</ele>
        <time>2021-12-23T12:08:59Z</time>
      </trkpt>
      <trkpt lat="45.24465" lon="6.11282">
        <ele>2719</ele>
        <time>2021-12-23T12:09:00Z</time>
      </trkpt>
      <trkpt lat="45.24465" lon="6.11282">
        <ele>2719</ele>
        <time>2021-12-23T12:09:01Z</time>
      </trkpt>
      <trkpt lat="45.24465" lon="6.11282">
        <ele>2719</ele>
        <time>2021-12-23T12:09:03Z</time>
      </trkpt>
      <trkpt lat="45.24465" lon="6.11282">
        <ele>2719</ele>
        <time>2021-12-23T12:09:04Z</time>
      </trkpt>
      <trkpt lat="45.24465" lon="6.11282">
        <ele>2719</ele>
        <time>2021-12-23T12:09:05Z</time>
      </trkpt>
      <trkpt lat="45.24465" lon="6.11282">
        <ele>2719</ele>
        <time>2021-12-23T12:09:06Z</time>
      </trkpt>
      <trkpt lat="45.24465" lon="6.11282">
        <ele>2719</ele>
        <time>2021-12-23T12:09:07Z</time>
      </trkpt>
      <trkpt lat="45.24465" lon="6.11282">
        <ele>2719</ele>
        <time>2021-12-23T12:09:08Z</time>
      </trkpt>
      <trkpt lat="45.24465" lon="6.11282">
        <ele>2719</ele>
        <time>2021-12-23T12:09:09Z</time>
      </trkpt>
      <trkpt lat="45.24465" lon="6.11282">
        <ele>2719</ele>
        <time>2021-12-23T12:09:10Z</time>
      </trkpt>
      <trkpt lat="45.24465" lon="6.11282">
        <ele>2719</ele>
        <time>2021-12-23T12:09:11Z</time>
      </trkpt>
      <trkpt lat="45.24465" lon="6.11282">
        <ele>2719</ele>
        <time>2021-12-23T12:09:12Z</time>
      </trkpt>
      <trkpt lat="45.24465" lon="6.11282">
        <ele>2719</ele>
        <time>2021-12-23T12:09:13Z</time>
      </trkpt>
      <trkpt lat="45.24465" lon="6.11282">
        <ele>2719</ele>
        <time>2021-12-23T12:09:14Z</time>
      </trkpt>
      <trkpt lat="45.24465" lon="6.11282">
        <ele>2719</ele>
        <time>2021-12-23T12:09:15Z</time>
      </trkpt>
      <trkpt lat="45.24465" lon="6.11282">
        <ele>2719</ele>
        <time>2021-12-23T12:09:16Z</time>
      </trkpt>
      <trkpt lat="45.24465" lon="6.11282">
        <ele>2719</ele>
        <time>2021-12-23T12:09:17Z</time>
      </trkpt>
      <trkpt lat="45.24465" lon="6.11282">
        <ele>2719</ele>
        <time>2021-12-23T12:09:18Z</time>
      </trkpt>
      <trkpt lat="45.24465" lon="6.11282">
        <ele>2719</ele>
        <time>2021-12-23T12:09:19Z</time>
      </trkpt>
      <trkpt lat="45.24465" lon="6.11282">
        <ele>2719</ele>
        <time>2021-12-23T12:09:20Z</time>
      </trkpt>
      <trkpt lat="45.24465" lon="6.11282">
        <ele>2720</ele>
        <time>2021-12-23T12:09:22Z</time>
      </trkpt>
      <trkpt lat="45.24465" lon="6.11282">
        <ele>2720</ele>
        <time>2021-12-23T12:09:23Z</time>
      </trkpt>
      <trkpt lat="45.24465" lon="6.11282">
        <ele>2720</ele>
        <time>2021-12-23T12:09:24Z</time>
      </trkpt>
      <trkpt lat="45.24465" lon="6.11282">
        <ele>2720</ele>
        <time>2021-12-23T12:09:25Z</time>
      </trkpt>
      <trkpt lat="45.24465" lon="6.11282">
        <ele>2720</ele>
        <time>2021-12-23T12:09:26Z</time>
      </trkpt>
      <trkpt lat="45.24465" lon="6.11282">
        <ele>2720</ele>
        <time>2021-12-23T12:09:27Z</time>
      </trkpt>
      <trkpt lat="45.24465" lon="6.11282">
        <ele>2720</ele>
        <time>2021-12-23T12:09:28Z</time>
      </trkpt>
      <trkpt lat="45.24465" lon="6.11282">
        <ele>2719</ele>
        <time>2021-12-23T12:09:29Z</time>
      </trkpt>
      <trkpt lat="45.24465" lon="6.11282">
        <ele>2719</ele>
        <time>2021-12-23T12:09:30Z</time>
      </trkpt>
      <trkpt lat="45.24465" lon="6.11282">
        <ele>2719</ele>
        <time>2021-12-23T12:09:31Z</time>
      </trkpt>
      <trkpt lat="45.24465" lon="6.11282">
        <ele>2719</ele>
        <time>2021-12-23T12:09:32Z</time>
      </trkpt>
      <trkpt lat="45.24465" lon="6.11282">
        <ele>2719</ele>
        <time>2021-12-23T12:09:33Z</time>
      </trkpt>
      <trkpt lat="45.24465" lon="6.11282">
        <ele>2719</ele>
        <time>2021-12-23T12:09:34Z</time>
      </trkpt>
      <trkpt lat="45.24465" lon="6.11282">
        <ele>2719</ele>
        <time>2021-12-23T12:09:35Z</time>
      </trkpt>
      <trkpt lat="45.24465" lon="6.11282">
        <ele>2719</ele>
        <time>2021-12-23T12:09:36Z</time>
      </trkpt>
      <trkpt lat="45.24465" lon="6.11282">
        <ele>2719</ele>
        <time>2021-12-23T12:09:37Z</time>
      </trkpt>
      <trkpt lat="45.24465" lon="6.11282">
        <ele>2719</ele>
        <time>2021-12-23T12:09:38Z</time>
      </trkpt>
      <trkpt lat="45.24465" lon="6.11282">
        <ele>2719</ele>
        <time>2021-12-23T12:09:39Z</time>
      </trkpt>
      <trkpt lat="45.24465" lon="6.11282">
        <ele>2719</ele>
        <time>2021-12-23T12:09:41Z</time>
      </trkpt>
      <trkpt lat="45.24465" lon="6.11282">
        <ele>2719</ele>
        <time>2021-12-23T12:09:42Z</time>
      </trkpt>
      <trkpt lat="45.24465" lon="6.11282">
        <ele>2718</ele>
        <time>2021-12-23T12:09:43Z</time>
      </trkpt>
      <trkpt lat="45.24465" lon="6.11282">
        <ele>2719</ele>
        <time>2021-12-23T12:09:44Z</time>
      </trkpt>
      <trkpt lat="45.24466" lon="6.11282">
        <ele>2719</ele>
        <time>2021-12-23T12:09:45Z</time>
      </trkpt>
      <trkpt lat="45.24466" lon="6.11282">
        <ele>2719</ele>
        <time>2021-12-23T12:09:46Z</time>
      </trkpt>
      <trkpt lat="45.24466" lon="6.11282">
        <ele>2719</ele>
        <time>2021-12-23T12:09:47Z</time>
      </trkpt>
      <trkpt lat="45.24466" lon="6.11282">
        <ele>2719</ele>
        <time>2021-12-23T12:09:48Z</time>
      </trkpt>
      <trkpt lat="45.24466" lon="6.11282">
        <ele>2719</ele>
        <time>2021-12-23T12:09:49Z</time>
      </trkpt>
      <trkpt lat="45.24466" lon="6.11282">
        <ele>2719</ele>
        <time>2021-12-23T12:09:50Z</time>
      </trkpt>
      <trkpt lat="45.24466" lon="6.11282">
        <ele>2719</ele>
        <time>2021-12-23T12:09:51Z</time>
      </trkpt>
      <trkpt lat="45.24466" lon="6.11282">
        <ele>2719</ele>
        <time>2021-12-23T12:09:52Z</time>
      </trkpt>
      <trkpt lat="45.24466" lon="6.11282">
        <ele>2719</ele>
        <time>2021-12-23T12:09:53Z</time>
      </trkpt>
      <trkpt lat="45.24466" lon="6.11282">
        <ele>2719</ele>
        <time>2021-12-23T12:09:54Z</time>
      </trkpt>
      <trkpt lat="45.24466" lon="6.11282">
        <ele>2719</ele>
        <time>2021-12-23T12:09:55Z</time>
      </trkpt>
      <trkpt lat="45.24466" lon="6.11281">
        <ele>2719</ele>
        <time>2021-12-23T12:09:56Z</time>
      </trkpt>
      <trkpt lat="45.24466" lon="6.11281">
        <ele>2719</ele>
        <time>2021-12-23T12:09:57Z</time>
      </trkpt>
      <trkpt lat="45.24466" lon="6.11281">
        <ele>2719</ele>
        <time>2021-12-23T12:09:58Z</time>
      </trkpt>
      <trkpt lat="45.24466" lon="6.11281">
        <ele>2719</ele>
        <time>2021-12-23T12:10:00Z</time>
      </trkpt>
      <trkpt lat="45.24466" lon="6.11281">
        <ele>2719</ele>
        <time>2021-12-23T12:10:01Z</time>
      </trkpt>
      <trkpt lat="45.24466" lon="6.11281">
        <ele>2719</ele>
        <time>2021-12-23T12:10:02Z</time>
      </trkpt>
      <trkpt lat="45.24466" lon="6.11281">
        <ele>2719</ele>
        <time>2021-12-23T12:10:03Z</time>
      </trkpt>
      <trkpt lat="45.24466" lon="6.11281">
        <ele>2719</ele>
        <time>2021-12-23T12:10:04Z</time>
      </trkpt>
      <trkpt lat="45.24466" lon="6.11281">
        <ele>2719</ele>
        <time>2021-12-23T12:10:05Z</time>
      </trkpt>
      <trkpt lat="45.24466" lon="6.11281">
        <ele>2719</ele>
        <time>2021-12-23T12:10:06Z</time>
      </trkpt>
      <trkpt lat="45.24466" lon="6.11281">
        <ele>2719</ele>
        <time>2021-12-23T12:10:07Z</time>
      </trkpt>
      <trkpt lat="45.24466" lon="6.11281">
        <ele>2719</ele>
        <time>2021-12-23T12:10:08Z</time>
      </trkpt>
      <trkpt lat="45.24466" lon="6.11281">
        <ele>2719</ele>
        <time>2021-12-23T12:10:09Z</time>
      </trkpt>
      <trkpt lat="45.24466" lon="6.11281">
        <ele>2719</ele>
        <time>2021-12-23T12:10:10Z</time>
      </trkpt>
      <trkpt lat="45.24466" lon="6.11281">
        <ele>2719</ele>
        <time>2021-12-23T12:10:11Z</time>
      </trkpt>
      <trkpt lat="45.24466" lon="6.11281">
        <ele>2719</ele>
        <time>2021-12-23T12:10:12Z</time>
      </trkpt>
      <trkpt lat="45.24466" lon="6.11281">
        <ele>2719</ele>
        <time>2021-12-23T12:10:13Z</time>
      </trkpt>
      <trkpt lat="45.24466" lon="6.11281">
        <ele>2719</ele>
        <time>2021-12-23T12:10:14Z</time>
      </trkpt>
      <trkpt lat="45.24466" lon="6.11281">
        <ele>2719</ele>
        <time>2021-12-23T12:10:15Z</time>
      </trkpt>
      <trkpt lat="45.24466" lon="6.11281">
        <ele>2719</ele>
        <time>2021-12-23T12:10:16Z</time>
      </trkpt>
      <trkpt lat="45.24466" lon="6.11281">
        <ele>2719</ele>
        <time>2021-12-23T12:10:17Z</time>
      </trkpt>
      <trkpt lat="45.24466" lon="6.11281">
        <ele>2719</ele>
        <time>2021-12-23T12:10:19Z</time>
      </trkpt>
      <trkpt lat="45.24466" lon="6.11281">
        <ele>2719</ele>
        <time>2021-12-23T12:10:20Z</time>
      </trkpt>
      <trkpt lat="45.24466" lon="6.11281">
        <ele>2719</ele>
        <time>2021-12-23T12:10:21Z</time>
      </trkpt>
      <trkpt lat="45.24466" lon="6.11281">
        <ele>2719</ele>
        <time>2021-12-23T12:10:22Z</time>
      </trkpt>
      <trkpt lat="45.24466" lon="6.11281">
        <ele>2719</ele>
        <time>2021-12-23T12:10:23Z</time>
      </trkpt>
      <trkpt lat="45.24466" lon="6.11281">
        <ele>2719</ele>
        <time>2021-12-23T12:10:24Z</time>
      </trkpt>
      <trkpt lat="45.24466" lon="6.11281">
        <ele>2719</ele>
        <time>2021-12-23T12:10:25Z</time>
      </trkpt>
      <trkpt lat="45.24466" lon="6.11281">
        <ele>2719</ele>
        <time>2021-12-23T12:10:26Z</time>
      </trkpt>
      <trkpt lat="45.24466" lon="6.11281">
        <ele>2719</ele>
        <time>2021-12-23T12:10:27Z</time>
      </trkpt>
      <trkpt lat="45.24466" lon="6.11281">
        <ele>2719</ele>
        <time>2021-12-23T12:10:28Z</time>
      </trkpt>
      <trkpt lat="45.24466" lon="6.11281">
        <ele>2719</ele>
        <time>2021-12-23T12:10:29Z</time>
      </trkpt>
      <trkpt lat="45.24466" lon="6.11281">
        <ele>2719</ele>
        <time>2021-12-23T12:10:30Z</time>
      </trkpt>
      <trkpt lat="45.24466" lon="6.11281">
        <ele>2719</ele>
        <time>2021-12-23T12:10:31Z</time>
      </trkpt>
      <trkpt lat="45.24467" lon="6.11281">
        <ele>2719</ele>
        <time>2021-12-23T12:10:32Z</time>
      </trkpt>
      <trkpt lat="45.24467" lon="6.11281">
        <ele>2719</ele>
        <time>2021-12-23T12:10:33Z</time>
      </trkpt>
      <trkpt lat="45.24467" lon="6.11281">
        <ele>2719</ele>
        <time>2021-12-23T12:10:34Z</time>
      </trkpt>
      <trkpt lat="45.24467" lon="6.11281">
        <ele>2719</ele>
        <time>2021-12-23T12:10:35Z</time>
      </trkpt>
      <trkpt lat="45.24467" lon="6.11281">
        <ele>2719</ele>
        <time>2021-12-23T12:10:36Z</time>
      </trkpt>
      <trkpt lat="45.24467" lon="6.11281">
        <ele>2719</ele>
        <time>2021-12-23T12:10:38Z</time>
      </trkpt>
      <trkpt lat="45.24467" lon="6.11281">
        <ele>2719</ele>
        <time>2021-12-23T12:10:39Z</time>
      </trkpt>
      <trkpt lat="45.24467" lon="6.11281">
        <ele>2719</ele>
        <time>2021-12-23T12:10:40Z</time>
      </trkpt>
      <trkpt lat="45.24467" lon="6.11281">
        <ele>2719</ele>
        <time>2021-12-23T12:10:41Z</time>
      </trkpt>
      <trkpt lat="45.24467" lon="6.11281">
        <ele>2719</ele>
        <time>2021-12-23T12:10:42Z</time>
      </trkpt>
      <trkpt lat="45.24467" lon="6.11281">
        <ele>2719</ele>
        <time>2021-12-23T12:10:43Z</time>
      </trkpt>
      <trkpt lat="45.24467" lon="6.11281">
        <ele>2719</ele>
        <time>2021-12-23T12:10:44Z</time>
      </trkpt>
      <trkpt lat="45.24467" lon="6.11281">
        <ele>2719</ele>
        <time>2021-12-23T12:10:45Z</time>
      </trkpt>
      <trkpt lat="45.24467" lon="6.11281">
        <ele>2719</ele>
        <time>2021-12-23T12:10:46Z</time>
      </trkpt>
      <trkpt lat="45.24467" lon="6.11281">
        <ele>2719</ele>
        <time>2021-12-23T12:10:47Z</time>
      </trkpt>
      <trkpt lat="45.24467" lon="6.11281">
        <ele>2719</ele>
        <time>2021-12-23T12:10:48Z</time>
      </trkpt>
      <trkpt lat="45.24467" lon="6.11281">
        <ele>2719</ele>
        <time>2021-12-23T12:10:50Z</time>
      </trkpt>
      <trkpt lat="45.24467" lon="6.11281">
        <ele>2719</ele>
        <time>2021-12-23T12:10:51Z</time>
      </trkpt>
      <trkpt lat="45.24467" lon="6.11281">
        <ele>2719</ele>
        <time>2021-12-23T12:10:52Z</time>
      </trkpt>
      <trkpt lat="45.24467" lon="6.11281">
        <ele>2719</ele>
        <time>2021-12-23T12:10:53Z</time>
      </trkpt>
      <trkpt lat="45.24467" lon="6.11281">
        <ele>2719</ele>
        <time>2021-12-23T12:10:54Z</time>
      </trkpt>
      <trkpt lat="45.24467" lon="6.11281">
        <ele>2719</ele>
        <time>2021-12-23T12:10:55Z</time>
      </trkpt>
      <trkpt lat="45.24467" lon="6.11281">
        <ele>2719</ele>
        <time>2021-12-23T12:10:57Z</time>
      </trkpt>
      <trkpt lat="45.24467" lon="6.11281">
        <ele>2719</ele>
        <time>2021-12-23T12:10:58Z</time>
      </trkpt>
      <trkpt lat="45.24467" lon="6.11281">
        <ele>2719</ele>
        <time>2021-12-23T12:10:59Z</time>
      </trkpt>
      <trkpt lat="45.24467" lon="6.1128">
        <ele>2719</ele>
        <time>2021-12-23T12:11:00Z</time>
      </trkpt>
      <trkpt lat="45.24467" lon="6.1128">
        <ele>2719</ele>
        <time>2021-12-23T12:11:01Z</time>
      </trkpt>
      <trkpt lat="45.24467" lon="6.1128">
        <ele>2719</ele>
        <time>2021-12-23T12:11:02Z</time>
      </trkpt>
      <trkpt lat="45.24467" lon="6.1128">
        <ele>2719</ele>
        <time>2021-12-23T12:11:03Z</time>
      </trkpt>
      <trkpt lat="45.24467" lon="6.1128">
        <ele>2719</ele>
        <time>2021-12-23T12:11:04Z</time>
      </trkpt>
      <trkpt lat="45.24467" lon="6.1128">
        <ele>2719</ele>
        <time>2021-12-23T12:11:05Z</time>
      </trkpt>
      <trkpt lat="45.24467" lon="6.1128">
        <ele>2720</ele>
        <time>2021-12-23T12:11:06Z</time>
      </trkpt>
      <trkpt lat="45.24467" lon="6.1128">
        <ele>2720</ele>
        <time>2021-12-23T12:11:07Z</time>
      </trkpt>
      <trkpt lat="45.24467" lon="6.1128">
        <ele>2719</ele>
        <time>2021-12-23T12:11:08Z</time>
      </trkpt>
      <trkpt lat="45.24467" lon="6.1128">
        <ele>2719</ele>
        <time>2021-12-23T12:11:09Z</time>
      </trkpt>
      <trkpt lat="45.24467" lon="6.1128">
        <ele>2719</ele>
        <time>2021-12-23T12:11:10Z</time>
      </trkpt>
      <trkpt lat="45.24467" lon="6.1128">
        <ele>2719</ele>
        <time>2021-12-23T12:11:11Z</time>
      </trkpt>
      <trkpt lat="45.24467" lon="6.1128">
        <ele>2719</ele>
        <time>2021-12-23T12:11:12Z</time>
      </trkpt>
      <trkpt lat="45.24467" lon="6.1128">
        <ele>2719</ele>
        <time>2021-12-23T12:11:13Z</time>
      </trkpt>
      <trkpt lat="45.24467" lon="6.1128">
        <ele>2719</ele>
        <time>2021-12-23T12:11:14Z</time>
      </trkpt>
      <trkpt lat="45.24467" lon="6.1128">
        <ele>2719</ele>
        <time>2021-12-23T12:11:16Z</time>
      </trkpt>
      <trkpt lat="45.24467" lon="6.1128">
        <ele>2719</ele>
        <time>2021-12-23T12:11:17Z</time>
      </trkpt>
      <trkpt lat="45.24467" lon="6.1128">
        <ele>2719</ele>
        <time>2021-12-23T12:11:18Z</time>
      </trkpt>
      <trkpt lat="45.24467" lon="6.1128">
        <ele>2719</ele>
        <time>2021-12-23T12:11:19Z</time>
      </trkpt>
      <trkpt lat="45.24467" lon="6.1128">
        <ele>2719</ele>
        <time>2021-12-23T12:11:20Z</time>
      </trkpt>
      <trkpt lat="45.24467" lon="6.1128">
        <ele>2719</ele>
        <time>2021-12-23T12:11:21Z</time>
      </trkpt>
      <trkpt lat="45.24468" lon="6.1128">
        <ele>2719</ele>
        <time>2021-12-23T12:11:22Z</time>
      </trkpt>
      <trkpt lat="45.24468" lon="6.1128">
        <ele>2719</ele>
        <time>2021-12-23T12:11:23Z</time>
      </trkpt>
      <trkpt lat="45.24468" lon="6.1128">
        <ele>2719</ele>
        <time>2021-12-23T12:11:24Z</time>
      </trkpt>
      <trkpt lat="45.24468" lon="6.1128">
        <ele>2719</ele>
        <time>2021-12-23T12:11:25Z</time>
      </trkpt>
      <trkpt lat="45.24468" lon="6.1128">
        <ele>2719</ele>
        <time>2021-12-23T12:11:26Z</time>
      </trkpt>
      <trkpt lat="45.24468" lon="6.1128">
        <ele>2719</ele>
        <time>2021-12-23T12:11:27Z</time>
      </trkpt>
      <trkpt lat="45.24468" lon="6.1128">
        <ele>2719</ele>
        <time>2021-12-23T12:11:28Z</time>
      </trkpt>
      <trkpt lat="45.24468" lon="6.1128">
        <ele>2720</ele>
        <time>2021-12-23T12:11:29Z</time>
      </trkpt>
      <trkpt lat="45.24468" lon="6.1128">
        <ele>2720</ele>
        <time>2021-12-23T12:11:30Z</time>
      </trkpt>
      <trkpt lat="45.24468" lon="6.1128">
        <ele>2720</ele>
        <time>2021-12-23T12:11:31Z</time>
      </trkpt>
      <trkpt lat="45.24468" lon="6.1128">
        <ele>2720</ele>
        <time>2021-12-23T12:11:32Z</time>
      </trkpt>
      <trkpt lat="45.24468" lon="6.1128">
        <ele>2719</ele>
        <time>2021-12-23T12:11:33Z</time>
      </trkpt>
      <trkpt lat="45.24468" lon="6.1128">
        <ele>2719</ele>
        <time>2021-12-23T12:11:35Z</time>
      </trkpt>
      <trkpt lat="45.24468" lon="6.1128">
        <ele>2719</ele>
        <time>2021-12-23T12:11:36Z</time>
      </trkpt>
      <trkpt lat="45.24468" lon="6.1128">
        <ele>2719</ele>
        <time>2021-12-23T12:11:37Z</time>
      </trkpt>
      <trkpt lat="45.24468" lon="6.1128">
        <ele>2719</ele>
        <time>2021-12-23T12:11:38Z</time>
      </trkpt>
      <trkpt lat="45.24468" lon="6.1128">
        <ele>2719</ele>
        <time>2021-12-23T12:11:39Z</time>
      </trkpt>
      <trkpt lat="45.24468" lon="6.1128">
        <ele>2719</ele>
        <time>2021-12-23T12:11:40Z</time>
      </trkpt>
      <trkpt lat="45.24468" lon="6.1128">
        <ele>2719</ele>
        <time>2021-12-23T12:11:41Z</time>
      </trkpt>
      <trkpt lat="45.24468" lon="6.1128">
        <ele>2719</ele>
        <time>2021-12-23T12:11:42Z</time>
      </trkpt>
      <trkpt lat="45.24468" lon="6.1128">
        <ele>2719</ele>
        <time>2021-12-23T12:11:43Z</time>
      </trkpt>
      <trkpt lat="45.24468" lon="6.1128">
        <ele>2719</ele>
        <time>2021-12-23T12:11:44Z</time>
      </trkpt>
      <trkpt lat="45.24468" lon="6.1128">
        <ele>2719</ele>
        <time>2021-12-23T12:11:45Z</time>
      </trkpt>
      <trkpt lat="45.24468" lon="6.1128">
        <ele>2719</ele>
        <time>2021-12-23T12:11:46Z</time>
      </trkpt>
      <trkpt lat="45.24468" lon="6.1128">
        <ele>2719</ele>
        <time>2021-12-23T12:11:47Z</time>
      </trkpt>
      <trkpt lat="45.24468" lon="6.1128">
        <ele>2719</ele>
        <time>2021-12-23T12:11:48Z</time>
      </trkpt>
      <trkpt lat="45.24468" lon="6.1128">
        <ele>2719</ele>
        <time>2021-12-23T12:11:49Z</time>
      </trkpt>
      <trkpt lat="45.24468" lon="6.1128">
        <ele>2719</ele>
        <time>2021-12-23T12:11:50Z</time>
      </trkpt>
      <trkpt lat="45.24468" lon="6.1128">
        <ele>2719</ele>
        <time>2021-12-23T12:11:51Z</time>
      </trkpt>
      <trkpt lat="45.24468" lon="6.1128">
        <ele>2718</ele>
        <time>2021-12-23T12:11:52Z</time>
      </trkpt>
      <trkpt lat="45.24468" lon="6.1128">
        <ele>2718</ele>
        <time>2021-12-23T12:11:54Z</time>
      </trkpt>
      <trkpt lat="45.24468" lon="6.1128">
        <ele>2718</ele>
        <time>2021-12-23T12:11:55Z</time>
      </trkpt>
      <trkpt lat="45.24468" lon="6.1128">
        <ele>2718</ele>
        <time>2021-12-23T12:11:56Z</time>
      </trkpt>
      <trkpt lat="45.24468" lon="6.1128">
        <ele>2718</ele>
        <time>2021-12-23T12:11:57Z</time>
      </trkpt>
      <trkpt lat="45.24468" lon="6.1128">
        <ele>2719</ele>
        <time>2021-12-23T12:11:58Z</time>
      </trkpt>
      <trkpt lat="45.24468" lon="6.1128">
        <ele>2719</ele>
        <time>2021-12-23T12:11:59Z</time>
      </trkpt>
      <trkpt lat="45.24468" lon="6.1128">
        <ele>2719</ele>
        <time>2021-12-23T12:12:00Z</time>
      </trkpt>
      <trkpt lat="45.24468" lon="6.1128">
        <ele>2719</ele>
        <time>2021-12-23T12:12:01Z</time>
      </trkpt>
      <trkpt lat="45.24468" lon="6.11279">
        <ele>2718</ele>
        <time>2021-12-23T12:12:02Z</time>
      </trkpt>
      <trkpt lat="45.24468" lon="6.11279">
        <ele>2718</ele>
        <time>2021-12-23T12:12:03Z</time>
      </trkpt>
      <trkpt lat="45.24468" lon="6.11279">
        <ele>2718</ele>
        <time>2021-12-23T12:12:04Z</time>
      </trkpt>
      <trkpt lat="45.24468" lon="6.11279">
        <ele>2719</ele>
        <time>2021-12-23T12:12:05Z</time>
      </trkpt>
      <trkpt lat="45.24468" lon="6.11279">
        <ele>2719</ele>
        <time>2021-12-23T12:12:06Z</time>
      </trkpt>
      <trkpt lat="45.24468" lon="6.11279">
        <ele>2719</ele>
        <time>2021-12-23T12:12:07Z</time>
      </trkpt>
      <trkpt lat="45.24468" lon="6.11279">
        <ele>2719</ele>
        <time>2021-12-23T12:12:08Z</time>
      </trkpt>
      <trkpt lat="45.24469" lon="6.11279">
        <ele>2719</ele>
        <time>2021-12-23T12:12:09Z</time>
      </trkpt>
      <trkpt lat="45.24469" lon="6.11279">
        <ele>2719</ele>
        <time>2021-12-23T12:12:10Z</time>
      </trkpt>
      <trkpt lat="45.24469" lon="6.11279">
        <ele>2719</ele>
        <time>2021-12-23T12:12:11Z</time>
      </trkpt>
      <trkpt lat="45.24469" lon="6.11279">
        <ele>2719</ele>
        <time>2021-12-23T12:12:13Z</time>
      </trkpt>
      <trkpt lat="45.24469" lon="6.11279">
        <ele>2719</ele>
        <time>2021-12-23T12:12:14Z</time>
      </trkpt>
      <trkpt lat="45.24469" lon="6.11279">
        <ele>2719</ele>
        <time>2021-12-23T12:12:15Z</time>
      </trkpt>
      <trkpt lat="45.24469" lon="6.11279">
        <ele>2719</ele>
        <time>2021-12-23T12:12:16Z</time>
      </trkpt>
      <trkpt lat="45.24469" lon="6.11279">
        <ele>2719</ele>
        <time>2021-12-23T12:12:17Z</time>
      </trkpt>
      <trkpt lat="45.24469" lon="6.11279">
        <ele>2719</ele>
        <time>2021-12-23T12:12:18Z</time>
      </trkpt>
      <trkpt lat="45.24469" lon="6.11279">
        <ele>2719</ele>
        <time>2021-12-23T12:12:19Z</time>
      </trkpt>
      <trkpt lat="45.24469" lon="6.11279">
        <ele>2719</ele>
        <time>2021-12-23T12:12:20Z</time>
      </trkpt>
      <trkpt lat="45.24469" lon="6.11279">
        <ele>2718</ele>
        <time>2021-12-23T12:12:21Z</time>
      </trkpt>
      <trkpt lat="45.24469" lon="6.11279">
        <ele>2718</ele>
        <time>2021-12-23T12:12:22Z</time>
      </trkpt>
      <trkpt lat="45.24469" lon="6.11279">
        <ele>2718</ele>
        <time>2021-12-23T12:12:23Z</time>
      </trkpt>
      <trkpt lat="45.24469" lon="6.11279">
        <ele>2718</ele>
        <time>2021-12-23T12:12:24Z</time>
      </trkpt>
      <trkpt lat="45.24469" lon="6.11279">
        <ele>2718</ele>
        <time>2021-12-23T12:12:25Z</time>
      </trkpt>
      <trkpt lat="45.24469" lon="6.11279">
        <ele>2718</ele>
        <time>2021-12-23T12:12:26Z</time>
      </trkpt>
      <trkpt lat="45.24469" lon="6.11279">
        <ele>2718</ele>
        <time>2021-12-23T12:12:27Z</time>
      </trkpt>
      <trkpt lat="45.24469" lon="6.11279">
        <ele>2718</ele>
        <time>2021-12-23T12:12:28Z</time>
      </trkpt>
      <trkpt lat="45.24469" lon="6.11279">
        <ele>2718</ele>
        <time>2021-12-23T12:12:29Z</time>
      </trkpt>
      <trkpt lat="45.24469" lon="6.11279">
        <ele>2717</ele>
        <time>2021-12-23T12:12:30Z</time>
      </trkpt>
      <trkpt lat="45.24469" lon="6.11279">
        <ele>2717</ele>
        <time>2021-12-23T12:12:32Z</time>
      </trkpt>
      <trkpt lat="45.24469" lon="6.11279">
        <ele>2717</ele>
        <time>2021-12-23T12:12:33Z</time>
      </trkpt>
      <trkpt lat="45.24469" lon="6.11279">
        <ele>2717</ele>
        <time>2021-12-23T12:12:34Z</time>
      </trkpt>
      <trkpt lat="45.24469" lon="6.11279">
        <ele>2717</ele>
        <time>2021-12-23T12:12:35Z</time>
      </trkpt>
      <trkpt lat="45.24469" lon="6.11279">
        <ele>2717</ele>
        <time>2021-12-23T12:12:36Z</time>
      </trkpt>
      <trkpt lat="45.24469" lon="6.11279">
        <ele>2718</ele>
        <time>2021-12-23T12:12:37Z</time>
      </trkpt>
      <trkpt lat="45.24469" lon="6.11279">
        <ele>2718</ele>
        <time>2021-12-23T12:12:38Z</time>
      </trkpt>
      <trkpt lat="45.24469" lon="6.11279">
        <ele>2718</ele>
        <time>2021-12-23T12:12:39Z</time>
      </trkpt>
      <trkpt lat="45.24469" lon="6.11279">
        <ele>2718</ele>
        <time>2021-12-23T12:12:40Z</time>
      </trkpt>
      <trkpt lat="45.24469" lon="6.11279">
        <ele>2718</ele>
        <time>2021-12-23T12:12:41Z</time>
      </trkpt>
      <trkpt lat="45.24469" lon="6.11279">
        <ele>2718</ele>
        <time>2021-12-23T12:12:42Z</time>
      </trkpt>
      <trkpt lat="45.24469" lon="6.11279">
        <ele>2718</ele>
        <time>2021-12-23T12:12:43Z</time>
      </trkpt>
      <trkpt lat="45.24469" lon="6.11279">
        <ele>2718</ele>
        <time>2021-12-23T12:12:44Z</time>
      </trkpt>
      <trkpt lat="45.24469" lon="6.11279">
        <ele>2718</ele>
        <time>2021-12-23T12:12:45Z</time>
      </trkpt>
      <trkpt lat="45.24469" lon="6.11279">
        <ele>2718</ele>
        <time>2021-12-23T12:12:46Z</time>
      </trkpt>
      <trkpt lat="45.24469" lon="6.11279">
        <ele>2718</ele>
        <time>2021-12-23T12:12:47Z</time>
      </trkpt>
      <trkpt lat="45.24469" lon="6.11279">
        <ele>2718</ele>
        <time>2021-12-23T12:12:48Z</time>
      </trkpt>
      <trkpt lat="45.24469" lon="6.11279">
        <ele>2718</ele>
        <time>2021-12-23T12:12:50Z</time>
      </trkpt>
      <trkpt lat="45.24469" lon="6.11279">
        <ele>2718</ele>
        <time>2021-12-23T12:12:51Z</time>
      </trkpt>
      <trkpt lat="45.24469" lon="6.11279">
        <ele>2718</ele>
        <time>2021-12-23T12:12:52Z</time>
      </trkpt>
      <trkpt lat="45.24469" lon="6.11279">
        <ele>2718</ele>
        <time>2021-12-23T12:12:53Z</time>
      </trkpt>
      <trkpt lat="45.24469" lon="6.11279">
        <ele>2718</ele>
        <time>2021-12-23T12:12:54Z</time>
      </trkpt>
      <trkpt lat="45.24469" lon="6.11279">
        <ele>2718</ele>
        <time>2021-12-23T12:12:55Z</time>
      </trkpt>
      <trkpt lat="45.24469" lon="6.11279">
        <ele>2718</ele>
        <time>2021-12-23T12:12:56Z</time>
      </trkpt>
      <trkpt lat="45.2447" lon="6.11279">
        <ele>2718</ele>
        <time>2021-12-23T12:12:57Z</time>
      </trkpt>
      <trkpt lat="45.2447" lon="6.11279">
        <ele>2718</ele>
        <time>2021-12-23T12:12:58Z</time>
      </trkpt>
      <trkpt lat="45.2447" lon="6.11279">
        <ele>2718</ele>
        <time>2021-12-23T12:12:59Z</time>
      </trkpt>
      <trkpt lat="45.2447" lon="6.11279">
        <ele>2718</ele>
        <time>2021-12-23T12:13:00Z</time>
      </trkpt>
      <trkpt lat="45.2447" lon="6.11279">
        <ele>2718</ele>
        <time>2021-12-23T12:13:01Z</time>
      </trkpt>
      <trkpt lat="45.2447" lon="6.11279">
        <ele>2718</ele>
        <time>2021-12-23T12:13:02Z</time>
      </trkpt>
      <trkpt lat="45.2447" lon="6.11279">
        <ele>2718</ele>
        <time>2021-12-23T12:13:03Z</time>
      </trkpt>
      <trkpt lat="45.2447" lon="6.11279">
        <ele>2718</ele>
        <time>2021-12-23T12:13:04Z</time>
      </trkpt>
      <trkpt lat="45.2447" lon="6.11278">
        <ele>2718</ele>
        <time>2021-12-23T12:13:05Z</time>
      </trkpt>
      <trkpt lat="45.2447" lon="6.11278">
        <ele>2718</ele>
        <time>2021-12-23T12:13:06Z</time>
      </trkpt>
      <trkpt lat="45.2447" lon="6.11278">
        <ele>2718</ele>
        <time>2021-12-23T12:13:07Z</time>
      </trkpt>
      <trkpt lat="45.2447" lon="6.11278">
        <ele>2718</ele>
        <time>2021-12-23T12:13:08Z</time>
      </trkpt>
      <trkpt lat="45.2447" lon="6.11278">
        <ele>2718</ele>
        <time>2021-12-23T12:13:10Z</time>
      </trkpt>
      <trkpt lat="45.2447" lon="6.11278">
        <ele>2718</ele>
        <time>2021-12-23T12:13:11Z</time>
      </trkpt>
      <trkpt lat="45.2447" lon="6.11278">
        <ele>2718</ele>
        <time>2021-12-23T12:13:12Z</time>
      </trkpt>
      <trkpt lat="45.2447" lon="6.11278">
        <ele>2718</ele>
        <time>2021-12-23T12:13:13Z</time>
      </trkpt>
      <trkpt lat="45.2447" lon="6.11278">
        <ele>2718</ele>
        <time>2021-12-23T12:13:14Z</time>
      </trkpt>
      <trkpt lat="45.2447" lon="6.11278">
        <ele>2718</ele>
        <time>2021-12-23T12:13:15Z</time>
      </trkpt>
      <trkpt lat="45.2447" lon="6.11278">
        <ele>2718</ele>
        <time>2021-12-23T12:13:16Z</time>
      </trkpt>
      <trkpt lat="45.2447" lon="6.11278">
        <ele>2718</ele>
        <time>2021-12-23T12:13:17Z</time>
      </trkpt>
      <trkpt lat="45.2447" lon="6.11278">
        <ele>2718</ele>
        <time>2021-12-23T12:13:18Z</time>
      </trkpt>
      <trkpt lat="45.2447" lon="6.11278">
        <ele>2718</ele>
        <time>2021-12-23T12:13:19Z</time>
      </trkpt>
      <trkpt lat="45.2447" lon="6.11278">
        <ele>2718</ele>
        <time>2021-12-23T12:13:20Z</time>
      </trkpt>
      <trkpt lat="45.2447" lon="6.11278">
        <ele>2718</ele>
        <time>2021-12-23T12:13:21Z</time>
      </trkpt>
      <trkpt lat="45.2447" lon="6.11278">
        <ele>2718</ele>
        <time>2021-12-23T12:13:22Z</time>
      </trkpt>
      <trkpt lat="45.2447" lon="6.11278">
        <ele>2718</ele>
        <time>2021-12-23T12:13:23Z</time>
      </trkpt>
      <trkpt lat="45.2447" lon="6.11278">
        <ele>2718</ele>
        <time>2021-12-23T12:13:24Z</time>
      </trkpt>
      <trkpt lat="45.2447" lon="6.11278">
        <ele>2718</ele>
        <time>2021-12-23T12:13:25Z</time>
      </trkpt>
      <trkpt lat="45.2447" lon="6.11278">
        <ele>2718</ele>
        <time>2021-12-23T12:13:26Z</time>
      </trkpt>
      <trkpt lat="45.2447" lon="6.11278">
        <ele>2718</ele>
        <time>2021-12-23T12:13:27Z</time>
      </trkpt>
      <trkpt lat="45.2447" lon="6.11278">
        <ele>2718</ele>
        <time>2021-12-23T12:13:29Z</time>
      </trkpt>
      <trkpt lat="45.2447" lon="6.11278">
        <ele>2718</ele>
        <time>2021-12-23T12:13:30Z</time>
      </trkpt>
      <trkpt lat="45.2447" lon="6.11278">
        <ele>2718</ele>
        <time>2021-12-23T12:13:31Z</time>
      </trkpt>
      <trkpt lat="45.2447" lon="6.11278">
        <ele>2718</ele>
        <time>2021-12-23T12:13:32Z</time>
      </trkpt>
      <trkpt lat="45.2447" lon="6.11278">
        <ele>2718</ele>
        <time>2021-12-23T12:13:33Z</time>
      </trkpt>
      <trkpt lat="45.2447" lon="6.11278">
        <ele>2718</ele>
        <time>2021-12-23T12:13:34Z</time>
      </trkpt>
      <trkpt lat="45.2447" lon="6.11278">
        <ele>2718</ele>
        <time>2021-12-23T12:13:35Z</time>
      </trkpt>
      <trkpt lat="45.2447" lon="6.11278">
        <ele>2718</ele>
        <time>2021-12-23T12:13:36Z</time>
      </trkpt>
      <trkpt lat="45.2447" lon="6.11278">
        <ele>2718</ele>
        <time>2021-12-23T12:13:37Z</time>
      </trkpt>
      <trkpt lat="45.2447" lon="6.11278">
        <ele>2718</ele>
        <time>2021-12-23T12:13:38Z</time>
      </trkpt>
      <trkpt lat="45.2447" lon="6.11278">
        <ele>2718</ele>
        <time>2021-12-23T12:13:39Z</time>
      </trkpt>
      <trkpt lat="45.2447" lon="6.11278">
        <ele>2718</ele>
        <time>2021-12-23T12:13:40Z</time>
      </trkpt>
      <trkpt lat="45.2447" lon="6.11278">
        <ele>2718</ele>
        <time>2021-12-23T12:13:41Z</time>
      </trkpt>
      <trkpt lat="45.2447" lon="6.11278">
        <ele>2718</ele>
        <time>2021-12-23T12:13:42Z</time>
      </trkpt>
      <trkpt lat="45.2447" lon="6.11278">
        <ele>2718</ele>
        <time>2021-12-23T12:13:43Z</time>
      </trkpt>
      <trkpt lat="45.2447" lon="6.11278">
        <ele>2718</ele>
        <time>2021-12-23T12:13:44Z</time>
      </trkpt>
      <trkpt lat="45.24471" lon="6.11278">
        <ele>2718</ele>
        <time>2021-12-23T12:13:45Z</time>
      </trkpt>
      <trkpt lat="45.24471" lon="6.11278">
        <ele>2718</ele>
        <time>2021-12-23T12:13:46Z</time>
      </trkpt>
      <trkpt lat="45.24471" lon="6.11278">
        <ele>2718</ele>
        <time>2021-12-23T12:13:48Z</time>
      </trkpt>
      <trkpt lat="45.24471" lon="6.11278">
        <ele>2718</ele>
        <time>2021-12-23T12:13:49Z</time>
      </trkpt>
      <trkpt lat="45.24471" lon="6.11278">
        <ele>2718</ele>
        <time>2021-12-23T12:13:50Z</time>
      </trkpt>
      <trkpt lat="45.24471" lon="6.11278">
        <ele>2718</ele>
        <time>2021-12-23T12:13:51Z</time>
      </trkpt>
      <trkpt lat="45.24471" lon="6.11278">
        <ele>2718</ele>
        <time>2021-12-23T12:13:52Z</time>
      </trkpt>
      <trkpt lat="45.24471" lon="6.11278">
        <ele>2718</ele>
        <time>2021-12-23T12:13:53Z</time>
      </trkpt>
      <trkpt lat="45.24471" lon="6.11278">
        <ele>2718</ele>
        <time>2021-12-23T12:13:54Z</time>
      </trkpt>
      <trkpt lat="45.24471" lon="6.11278">
        <ele>2718</ele>
        <time>2021-12-23T12:13:55Z</time>
      </trkpt>
      <trkpt lat="45.24471" lon="6.11278">
        <ele>2718</ele>
        <time>2021-12-23T12:13:56Z</time>
      </trkpt>
      <trkpt lat="45.24471" lon="6.11278">
        <ele>2719</ele>
        <time>2021-12-23T12:13:57Z</time>
      </trkpt>
      <trkpt lat="45.24471" lon="6.11278">
        <ele>2719</ele>
        <time>2021-12-23T12:13:58Z</time>
      </trkpt>
      <trkpt lat="45.24471" lon="6.11278">
        <ele>2719</ele>
        <time>2021-12-23T12:13:59Z</time>
      </trkpt>
      <trkpt lat="45.24471" lon="6.11278">
        <ele>2719</ele>
        <time>2021-12-23T12:14:00Z</time>
      </trkpt>
      <trkpt lat="45.24471" lon="6.11278">
        <ele>2719</ele>
        <time>2021-12-23T12:14:01Z</time>
      </trkpt>
      <trkpt lat="45.24471" lon="6.11278">
        <ele>2719</ele>
        <time>2021-12-23T12:14:02Z</time>
      </trkpt>
      <trkpt lat="45.24471" lon="6.11278">
        <ele>2719</ele>
        <time>2021-12-23T12:14:03Z</time>
      </trkpt>
      <trkpt lat="45.24471" lon="6.11278">
        <ele>2719</ele>
        <time>2021-12-23T12:14:04Z</time>
      </trkpt>
      <trkpt lat="45.24471" lon="6.11278">
        <ele>2719</ele>
        <time>2021-12-23T12:14:05Z</time>
      </trkpt>
      <trkpt lat="45.24471" lon="6.11278">
        <ele>2719</ele>
        <time>2021-12-23T12:14:07Z</time>
      </trkpt>
      <trkpt lat="45.24471" lon="6.11277">
        <ele>2719</ele>
        <time>2021-12-23T12:14:08Z</time>
      </trkpt>
      <trkpt lat="45.24471" lon="6.11277">
        <ele>2719</ele>
        <time>2021-12-23T12:14:09Z</time>
      </trkpt>
      <trkpt lat="45.24471" lon="6.11277">
        <ele>2719</ele>
        <time>2021-12-23T12:14:10Z</time>
      </trkpt>
      <trkpt lat="45.24471" lon="6.11277">
        <ele>2719</ele>
        <time>2021-12-23T12:14:11Z</time>
      </trkpt>
      <trkpt lat="45.24471" lon="6.11277">
        <ele>2719</ele>
        <time>2021-12-23T12:14:12Z</time>
      </trkpt>
      <trkpt lat="45.24471" lon="6.11277">
        <ele>2719</ele>
        <time>2021-12-23T12:14:13Z</time>
      </trkpt>
      <trkpt lat="45.24471" lon="6.11277">
        <ele>2719</ele>
        <time>2021-12-23T12:14:14Z</time>
      </trkpt>
      <trkpt lat="45.24471" lon="6.11277">
        <ele>2719</ele>
        <time>2021-12-23T12:14:15Z</time>
      </trkpt>
      <trkpt lat="45.24471" lon="6.11277">
        <ele>2719</ele>
        <time>2021-12-23T12:14:16Z</time>
      </trkpt>
      <trkpt lat="45.24471" lon="6.11278">
        <ele>2718</ele>
        <time>2021-12-23T12:14:17Z</time>
      </trkpt>
      <trkpt lat="45.24471" lon="6.11278">
        <ele>2718</ele>
        <time>2021-12-23T12:14:18Z</time>
      </trkpt>
      <trkpt lat="45.2447" lon="6.11279">
        <ele>2718</ele>
        <time>2021-12-23T12:14:19Z</time>
      </trkpt>
      <trkpt lat="45.2447" lon="6.11279">
        <ele>2718</ele>
        <time>2021-12-23T12:14:20Z</time>
      </trkpt>
      <trkpt lat="45.2447" lon="6.1128">
        <ele>2718</ele>
        <time>2021-12-23T12:14:21Z</time>
      </trkpt>
      <trkpt lat="45.24469" lon="6.1128">
        <ele>2718</ele>
        <time>2021-12-23T12:14:22Z</time>
      </trkpt>
      <trkpt lat="45.24469" lon="6.1128">
        <ele>2718</ele>
        <time>2021-12-23T12:14:23Z</time>
      </trkpt>
      <trkpt lat="45.24469" lon="6.11281">
        <ele>2718</ele>
        <time>2021-12-23T12:14:24Z</time>
      </trkpt>
      <trkpt lat="45.24468" lon="6.11281">
        <ele>2718</ele>
        <time>2021-12-23T12:14:26Z</time>
      </trkpt>
      <trkpt lat="45.24468" lon="6.11282">
        <ele>2718</ele>
        <time>2021-12-23T12:14:27Z</time>
      </trkpt>
      <trkpt lat="45.24468" lon="6.11282">
        <ele>2718</ele>
        <time>2021-12-23T12:14:28Z</time>
      </trkpt>
      <trkpt lat="45.24467" lon="6.11283">
        <ele>2718</ele>
        <time>2021-12-23T12:14:29Z</time>
      </trkpt>
      <trkpt lat="45.24467" lon="6.11283">
        <ele>2719</ele>
        <time>2021-12-23T12:14:30Z</time>
      </trkpt>
      <trkpt lat="45.24467" lon="6.11284">
        <ele>2719</ele>
        <time>2021-12-23T12:14:31Z</time>
      </trkpt>
      <trkpt lat="45.24466" lon="6.11284">
        <ele>2719</ele>
        <time>2021-12-23T12:14:32Z</time>
      </trkpt>
      <trkpt lat="45.24466" lon="6.11284">
        <ele>2719</ele>
        <time>2021-12-23T12:14:33Z</time>
      </trkpt>
      <trkpt lat="45.24466" lon="6.11285">
        <ele>2719</ele>
        <time>2021-12-23T12:14:34Z</time>
      </trkpt>
      <trkpt lat="45.24465" lon="6.11285">
        <ele>2719</ele>
        <time>2021-12-23T12:14:35Z</time>
      </trkpt>
      <trkpt lat="45.24465" lon="6.11286">
        <ele>2719</ele>
        <time>2021-12-23T12:14:36Z</time>
      </trkpt>
      <trkpt lat="45.24465" lon="6.11286">
        <ele>2719</ele>
        <time>2021-12-23T12:14:37Z</time>
      </trkpt>
      <trkpt lat="45.24464" lon="6.11287">
        <ele>2719</ele>
        <time>2021-12-23T12:14:38Z</time>
      </trkpt>
      <trkpt lat="45.24464" lon="6.11287">
        <ele>2719</ele>
        <time>2021-12-23T12:14:39Z</time>
      </trkpt>
      <trkpt lat="45.24464" lon="6.11287">
        <ele>2720</ele>
        <time>2021-12-23T12:14:40Z</time>
      </trkpt>
      <trkpt lat="45.24464" lon="6.11287">
        <ele>2720</ele>
        <time>2021-12-23T12:14:41Z</time>
      </trkpt>
      <trkpt lat="45.24464" lon="6.11287">
        <ele>2720</ele>
        <time>2021-12-23T12:14:42Z</time>
      </trkpt>
      <trkpt lat="45.24464" lon="6.11287">
        <ele>2720</ele>
        <time>2021-12-23T12:14:43Z</time>
      </trkpt>
      <trkpt lat="45.24464" lon="6.11287">
        <ele>2720</ele>
        <time>2021-12-23T12:14:45Z</time>
      </trkpt>
      <trkpt lat="45.24464" lon="6.11287">
        <ele>2720</ele>
        <time>2021-12-23T12:14:46Z</time>
      </trkpt>
      <trkpt lat="45.24464" lon="6.11287">
        <ele>2720</ele>
        <time>2021-12-23T12:14:47Z</time>
      </trkpt>
      <trkpt lat="45.24464" lon="6.11287">
        <ele>2720</ele>
        <time>2021-12-23T12:14:48Z</time>
      </trkpt>
      <trkpt lat="45.24464" lon="6.11287">
        <ele>2720</ele>
        <time>2021-12-23T12:14:49Z</time>
      </trkpt>
      <trkpt lat="45.24464" lon="6.11287">
        <ele>2720</ele>
        <time>2021-12-23T12:14:50Z</time>
      </trkpt>
      <trkpt lat="45.24464" lon="6.11287">
        <ele>2720</ele>
        <time>2021-12-23T12:14:51Z</time>
      </trkpt>
      <trkpt lat="45.24464" lon="6.11287">
        <ele>2720</ele>
        <time>2021-12-23T12:14:52Z</time>
      </trkpt>
      <trkpt lat="45.24464" lon="6.11287">
        <ele>2720</ele>
        <time>2021-12-23T12:14:53Z</time>
      </trkpt>
      <trkpt lat="45.24464" lon="6.11287">
        <ele>2720</ele>
        <time>2021-12-23T12:14:54Z</time>
      </trkpt>
      <trkpt lat="45.24464" lon="6.11287">
        <ele>2720</ele>
        <time>2021-12-23T12:14:55Z</time>
      </trkpt>
      <trkpt lat="45.24464" lon="6.11288">
        <ele>2720</ele>
        <time>2021-12-23T12:14:56Z</time>
      </trkpt>
      <trkpt lat="45.24464" lon="6.11288">
        <ele>2720</ele>
        <time>2021-12-23T12:14:57Z</time>
      </trkpt>
      <trkpt lat="45.24464" lon="6.11288">
        <ele>2720</ele>
        <time>2021-12-23T12:14:58Z</time>
      </trkpt>
      <trkpt lat="45.24464" lon="6.11288">
        <ele>2720</ele>
        <time>2021-12-23T12:14:59Z</time>
      </trkpt>
      <trkpt lat="45.24464" lon="6.11288">
        <ele>2720</ele>
        <time>2021-12-23T12:15:00Z</time>
      </trkpt>
      <trkpt lat="45.24464" lon="6.11288">
        <ele>2720</ele>
        <time>2021-12-23T12:15:01Z</time>
      </trkpt>
      <trkpt lat="45.24464" lon="6.11288">
        <ele>2720</ele>
        <time>2021-12-23T12:15:02Z</time>
      </trkpt>
      <trkpt lat="45.24464" lon="6.11288">
        <ele>2720</ele>
        <time>2021-12-23T12:15:04Z</time>
      </trkpt>
      <trkpt lat="45.24464" lon="6.11288">
        <ele>2720</ele>
        <time>2021-12-23T12:15:05Z</time>
      </trkpt>
      <trkpt lat="45.24464" lon="6.11288">
        <ele>2720</ele>
        <time>2021-12-23T12:15:06Z</time>
      </trkpt>
      <trkpt lat="45.24464" lon="6.11288">
        <ele>2720</ele>
        <time>2021-12-23T12:15:07Z</time>
      </trkpt>
      <trkpt lat="45.24464" lon="6.11288">
        <ele>2720</ele>
        <time>2021-12-23T12:15:08Z</time>
      </trkpt>
      <trkpt lat="45.24464" lon="6.11288">
        <ele>2720</ele>
        <time>2021-12-23T12:15:09Z</time>
      </trkpt>
      <trkpt lat="45.24464" lon="6.11288">
        <ele>2720</ele>
        <time>2021-12-23T12:15:10Z</time>
      </trkpt>
      <trkpt lat="45.24464" lon="6.11288">
        <ele>2720</ele>
        <time>2021-12-23T12:15:11Z</time>
      </trkpt>
      <trkpt lat="45.24464" lon="6.11288">
        <ele>2720</ele>
        <time>2021-12-23T12:15:12Z</time>
      </trkpt>
      <trkpt lat="45.24463" lon="6.11288">
        <ele>2720</ele>
        <time>2021-12-23T12:15:13Z</time>
      </trkpt>
      <trkpt lat="45.24463" lon="6.11288">
        <ele>2720</ele>
        <time>2021-12-23T12:15:14Z</time>
      </trkpt>
      <trkpt lat="45.24463" lon="6.11288">
        <ele>2720</ele>
        <time>2021-12-23T12:15:15Z</time>
      </trkpt>
      <trkpt lat="45.24463" lon="6.11288">
        <ele>2720</ele>
        <time>2021-12-23T12:15:16Z</time>
      </trkpt>
      <trkpt lat="45.24463" lon="6.11288">
        <ele>2720</ele>
        <time>2021-12-23T12:15:17Z</time>
      </trkpt>
      <trkpt lat="45.24463" lon="6.11288">
        <ele>2720</ele>
        <time>2021-12-23T12:15:18Z</time>
      </trkpt>
      <trkpt lat="45.24463" lon="6.11288">
        <ele>2720</ele>
        <time>2021-12-23T12:15:19Z</time>
      </trkpt>
      <trkpt lat="45.24463" lon="6.11288">
        <ele>2720</ele>
        <time>2021-12-23T12:15:20Z</time>
      </trkpt>
      <trkpt lat="45.24463" lon="6.11288">
        <ele>2720</ele>
        <time>2021-12-23T12:15:21Z</time>
      </trkpt>
      <trkpt lat="45.24463" lon="6.11288">
        <ele>2720</ele>
        <time>2021-12-23T12:15:23Z</time>
      </trkpt>
      <trkpt lat="45.24463" lon="6.11288">
        <ele>2720</ele>
        <time>2021-12-23T12:15:24Z</time>
      </trkpt>
      <trkpt lat="45.24463" lon="6.11288">
        <ele>2720</ele>
        <time>2021-12-23T12:15:25Z</time>
      </trkpt>
      <trkpt lat="45.24463" lon="6.11288">
        <ele>2720</ele>
        <time>2021-12-23T12:15:26Z</time>
      </trkpt>
      <trkpt lat="45.24463" lon="6.11288">
        <ele>2720</ele>
        <time>2021-12-23T12:15:27Z</time>
      </trkpt>
      <trkpt lat="45.24463" lon="6.11288">
        <ele>2720</ele>
        <time>2021-12-23T12:15:28Z</time>
      </trkpt>
      <trkpt lat="45.24463" lon="6.11288">
        <ele>2720</ele>
        <time>2021-12-23T12:15:29Z</time>
      </trkpt>
      <trkpt lat="45.24463" lon="6.11288">
        <ele>2720</ele>
        <time>2021-12-23T12:15:30Z</time>
      </trkpt>
      <trkpt lat="45.24463" lon="6.11289">
        <ele>2720</ele>
        <time>2021-12-23T12:15:31Z</time>
      </trkpt>
      <trkpt lat="45.24463" lon="6.11289">
        <ele>2720</ele>
        <time>2021-12-23T12:15:32Z</time>
      </trkpt>
      <trkpt lat="45.24463" lon="6.11289">
        <ele>2720</ele>
        <time>2021-12-23T12:15:33Z</time>
      </trkpt>
      <trkpt lat="45.24463" lon="6.11289">
        <ele>2720</ele>
        <time>2021-12-23T12:15:34Z</time>
      </trkpt>
      <trkpt lat="45.24463" lon="6.11289">
        <ele>2720</ele>
        <time>2021-12-23T12:15:35Z</time>
      </trkpt>
      <trkpt lat="45.24463" lon="6.11289">
        <ele>2720</ele>
        <time>2021-12-23T12:15:36Z</time>
      </trkpt>
      <trkpt lat="45.24463" lon="6.11289">
        <ele>2720</ele>
        <time>2021-12-23T12:15:37Z</time>
      </trkpt>
      <trkpt lat="45.24463" lon="6.11289">
        <ele>2720</ele>
        <time>2021-12-23T12:15:38Z</time>
      </trkpt>
      <trkpt lat="45.24463" lon="6.11289">
        <ele>2720</ele>
        <time>2021-12-23T12:15:39Z</time>
      </trkpt>
      <trkpt lat="45.24463" lon="6.11289">
        <ele>2720</ele>
        <time>2021-12-23T12:15:40Z</time>
      </trkpt>
      <trkpt lat="45.24463" lon="6.11289">
        <ele>2720</ele>
        <time>2021-12-23T12:15:42Z</time>
      </trkpt>
      <trkpt lat="45.24463" lon="6.11289">
        <ele>2720</ele>
        <time>2021-12-23T12:15:43Z</time>
      </trkpt>
      <trkpt lat="45.24463" lon="6.11289">
        <ele>2720</ele>
        <time>2021-12-23T12:15:44Z</time>
      </trkpt>
      <trkpt lat="45.24463" lon="6.11289">
        <ele>2720</ele>
        <time>2021-12-23T12:15:45Z</time>
      </trkpt>
      <trkpt lat="45.24463" lon="6.11289">
        <ele>2720</ele>
        <time>2021-12-23T12:15:46Z</time>
      </trkpt>
      <trkpt lat="45.24463" lon="6.11289">
        <ele>2720</ele>
        <time>2021-12-23T12:15:47Z</time>
      </trkpt>
      <trkpt lat="45.24463" lon="6.11289">
        <ele>2720</ele>
        <time>2021-12-23T12:15:48Z</time>
      </trkpt>
      <trkpt lat="45.24463" lon="6.11289">
        <ele>2720</ele>
        <time>2021-12-23T12:15:49Z</time>
      </trkpt>
      <trkpt lat="45.24463" lon="6.11289">
        <ele>2720</ele>
        <time>2021-12-23T12:15:50Z</time>
      </trkpt>
      <trkpt lat="45.24463" lon="6.11289">
        <ele>2720</ele>
        <time>2021-12-23T12:15:51Z</time>
      </trkpt>
      <trkpt lat="45.24463" lon="6.11289">
        <ele>2720</ele>
        <time>2021-12-23T12:15:52Z</time>
      </trkpt>
      <trkpt lat="45.24463" lon="6.11289">
        <ele>2720</ele>
        <time>2021-12-23T12:15:53Z</time>
      </trkpt>
      <trkpt lat="45.24463" lon="6.11289">
        <ele>2720</ele>
        <time>2021-12-23T12:15:54Z</time>
      </trkpt>
      <trkpt lat="45.24463" lon="6.11289">
        <ele>2720</ele>
        <time>2021-12-23T12:15:55Z</time>
      </trkpt>
      <trkpt lat="45.24463" lon="6.11289">
        <ele>2720</ele>
        <time>2021-12-23T12:15:56Z</time>
      </trkpt>
      <trkpt lat="45.24463" lon="6.11289">
        <ele>2720</ele>
        <time>2021-12-23T12:15:57Z</time>
      </trkpt>
      <trkpt lat="45.24463" lon="6.11289">
        <ele>2720</ele>
        <time>2021-12-23T12:15:58Z</time>
      </trkpt>
      <trkpt lat="45.24463" lon="6.11289">
        <ele>2720</ele>
        <time>2021-12-23T12:15:59Z</time>
      </trkpt>
      <trkpt lat="45.24463" lon="6.11289">
        <ele>2720</ele>
        <time>2021-12-23T12:16:01Z</time>
      </trkpt>
      <trkpt lat="45.24463" lon="6.11289">
        <ele>2720</ele>
        <time>2021-12-23T12:16:02Z</time>
      </trkpt>
      <trkpt lat="45.24463" lon="6.11289">
        <ele>2720</ele>
        <time>2021-12-23T12:16:03Z</time>
      </trkpt>
      <trkpt lat="45.24463" lon="6.11289">
        <ele>2720</ele>
        <time>2021-12-23T12:16:04Z</time>
      </trkpt>
      <trkpt lat="45.24463" lon="6.11289">
        <ele>2720</ele>
        <time>2021-12-23T12:16:05Z</time>
      </trkpt>
      <trkpt lat="45.24463" lon="6.11289">
        <ele>2720</ele>
        <time>2021-12-23T12:16:06Z</time>
      </trkpt>
      <trkpt lat="45.24463" lon="6.1129">
        <ele>2720</ele>
        <time>2021-12-23T12:16:07Z</time>
      </trkpt>
      <trkpt lat="45.24463" lon="6.1129">
        <ele>2720</ele>
        <time>2021-12-23T12:16:08Z</time>
      </trkpt>
      <trkpt lat="45.24463" lon="6.1129">
        <ele>2720</ele>
        <time>2021-12-23T12:16:09Z</time>
      </trkpt>
      <trkpt lat="45.24463" lon="6.1129">
        <ele>2720</ele>
        <time>2021-12-23T12:16:10Z</time>
      </trkpt>
      <trkpt lat="45.24462" lon="6.1129">
        <ele>2720</ele>
        <time>2021-12-23T12:16:11Z</time>
      </trkpt>
      <trkpt lat="45.24462" lon="6.1129">
        <ele>2720</ele>
        <time>2021-12-23T12:16:12Z</time>
      </trkpt>
      <trkpt lat="45.24462" lon="6.1129">
        <ele>2720</ele>
        <time>2021-12-23T12:16:13Z</time>
      </trkpt>
      <trkpt lat="45.24462" lon="6.1129">
        <ele>2720</ele>
        <time>2021-12-23T12:16:14Z</time>
      </trkpt>
      <trkpt lat="45.24462" lon="6.1129">
        <ele>2720</ele>
        <time>2021-12-23T12:16:15Z</time>
      </trkpt>
      <trkpt lat="45.24462" lon="6.1129">
        <ele>2720</ele>
        <time>2021-12-23T12:16:16Z</time>
      </trkpt>
      <trkpt lat="45.24462" lon="6.1129">
        <ele>2720</ele>
        <time>2021-12-23T12:16:17Z</time>
      </trkpt>
      <trkpt lat="45.24462" lon="6.1129">
        <ele>2720</ele>
        <time>2021-12-23T12:16:18Z</time>
      </trkpt>
      <trkpt lat="45.24462" lon="6.1129">
        <ele>2720</ele>
        <time>2021-12-23T12:16:20Z</time>
      </trkpt>
      <trkpt lat="45.24462" lon="6.1129">
        <ele>2720</ele>
        <time>2021-12-23T12:16:21Z</time>
      </trkpt>
      <trkpt lat="45.24462" lon="6.1129">
        <ele>2720</ele>
        <time>2021-12-23T12:16:22Z</time>
      </trkpt>
      <trkpt lat="45.24462" lon="6.1129">
        <ele>2720</ele>
        <time>2021-12-23T12:16:23Z</time>
      </trkpt>
      <trkpt lat="45.24462" lon="6.1129">
        <ele>2720</ele>
        <time>2021-12-23T12:16:24Z</time>
      </trkpt>
      <trkpt lat="45.24462" lon="6.1129">
        <ele>2720</ele>
        <time>2021-12-23T12:16:25Z</time>
      </trkpt>
      <trkpt lat="45.24462" lon="6.1129">
        <ele>2720</ele>
        <time>2021-12-23T12:16:26Z</time>
      </trkpt>
      <trkpt lat="45.24462" lon="6.1129">
        <ele>2720</ele>
        <time>2021-12-23T12:16:27Z</time>
      </trkpt>
      <trkpt lat="45.24462" lon="6.1129">
        <ele>2720</ele>
        <time>2021-12-23T12:16:28Z</time>
      </trkpt>
      <trkpt lat="45.24462" lon="6.1129">
        <ele>2720</ele>
        <time>2021-12-23T12:16:29Z</time>
      </trkpt>
      <trkpt lat="45.24462" lon="6.1129">
        <ele>2720</ele>
        <time>2021-12-23T12:16:30Z</time>
      </trkpt>
      <trkpt lat="45.24462" lon="6.1129">
        <ele>2720</ele>
        <time>2021-12-23T12:16:31Z</time>
      </trkpt>
      <trkpt lat="45.24462" lon="6.1129">
        <ele>2720</ele>
        <time>2021-12-23T12:16:32Z</time>
      </trkpt>
      <trkpt lat="45.24462" lon="6.1129">
        <ele>2720</ele>
        <time>2021-12-23T12:16:33Z</time>
      </trkpt>
      <trkpt lat="45.24462" lon="6.1129">
        <ele>2720</ele>
        <time>2021-12-23T12:16:34Z</time>
      </trkpt>
      <trkpt lat="45.24462" lon="6.1129">
        <ele>2720</ele>
        <time>2021-12-23T12:16:35Z</time>
      </trkpt>
      <trkpt lat="45.24462" lon="6.1129">
        <ele>2720</ele>
        <time>2021-12-23T12:16:36Z</time>
      </trkpt>
      <trkpt lat="45.24462" lon="6.1129">
        <ele>2720</ele>
        <time>2021-12-23T12:16:37Z</time>
      </trkpt>
      <trkpt lat="45.24462" lon="6.1129">
        <ele>2720</ele>
        <time>2021-12-23T12:16:39Z</time>
      </trkpt>
      <trkpt lat="45.24462" lon="6.1129">
        <ele>2720</ele>
        <time>2021-12-23T12:16:40Z</time>
      </trkpt>
      <trkpt lat="45.24462" lon="6.1129">
        <ele>2720</ele>
        <time>2021-12-23T12:16:41Z</time>
      </trkpt>
      <trkpt lat="45.24462" lon="6.11291">
        <ele>2720</ele>
        <time>2021-12-23T12:16:42Z</time>
      </trkpt>
      <trkpt lat="45.24462" lon="6.11291">
        <ele>2720</ele>
        <time>2021-12-23T12:16:43Z</time>
      </trkpt>
      <trkpt lat="45.24462" lon="6.11291">
        <ele>2720</ele>
        <time>2021-12-23T12:16:44Z</time>
      </trkpt>
      <trkpt lat="45.24462" lon="6.11291">
        <ele>2720</ele>
        <time>2021-12-23T12:16:45Z</time>
      </trkpt>
      <trkpt lat="45.24462" lon="6.11291">
        <ele>2720</ele>
        <time>2021-12-23T12:16:46Z</time>
      </trkpt>
      <trkpt lat="45.24462" lon="6.11291">
        <ele>2720</ele>
        <time>2021-12-23T12:16:47Z</time>
      </trkpt>
      <trkpt lat="45.24462" lon="6.11291">
        <ele>2720</ele>
        <time>2021-12-23T12:16:48Z</time>
      </trkpt>
      <trkpt lat="45.24462" lon="6.11291">
        <ele>2720</ele>
        <time>2021-12-23T12:16:49Z</time>
      </trkpt>
      <trkpt lat="45.24462" lon="6.11291">
        <ele>2720</ele>
        <time>2021-12-23T12:16:50Z</time>
      </trkpt>
      <trkpt lat="45.24462" lon="6.11291">
        <ele>2720</ele>
        <time>2021-12-23T12:16:51Z</time>
      </trkpt>
      <trkpt lat="45.24462" lon="6.11291">
        <ele>2720</ele>
        <time>2021-12-23T12:16:52Z</time>
      </trkpt>
      <trkpt lat="45.24462" lon="6.11291">
        <ele>2720</ele>
        <time>2021-12-23T12:16:53Z</time>
      </trkpt>
      <trkpt lat="45.24462" lon="6.11291">
        <ele>2720</ele>
        <time>2021-12-23T12:16:54Z</time>
      </trkpt>
      <trkpt lat="45.24462" lon="6.11291">
        <ele>2720</ele>
        <time>2021-12-23T12:16:55Z</time>
      </trkpt>
      <trkpt lat="45.24462" lon="6.11291">
        <ele>2720</ele>
        <time>2021-12-23T12:16:56Z</time>
      </trkpt>
      <trkpt lat="45.24462" lon="6.11291">
        <ele>2720</ele>
        <time>2021-12-23T12:16:58Z</time>
      </trkpt>
      <trkpt lat="45.24462" lon="6.11291">
        <ele>2720</ele>
        <time>2021-12-23T12:16:59Z</time>
      </trkpt>
      <trkpt lat="45.24462" lon="6.11291">
        <ele>2720</ele>
        <time>2021-12-23T12:17:00Z</time>
      </trkpt>
      <trkpt lat="45.24462" lon="6.11291">
        <ele>2720</ele>
        <time>2021-12-23T12:17:01Z</time>
      </trkpt>
      <trkpt lat="45.24462" lon="6.11291">
        <ele>2720</ele>
        <time>2021-12-23T12:17:02Z</time>
      </trkpt>
      <trkpt lat="45.24462" lon="6.11291">
        <ele>2720</ele>
        <time>2021-12-23T12:17:03Z</time>
      </trkpt>
      <trkpt lat="45.24462" lon="6.11291">
        <ele>2720</ele>
        <time>2021-12-23T12:17:04Z</time>
      </trkpt>
      <trkpt lat="45.24462" lon="6.11291">
        <ele>2720</ele>
        <time>2021-12-23T12:17:05Z</time>
      </trkpt>
      <trkpt lat="45.24462" lon="6.11291">
        <ele>2720</ele>
        <time>2021-12-23T12:17:06Z</time>
      </trkpt>
      <trkpt lat="45.24462" lon="6.11291">
        <ele>2720</ele>
        <time>2021-12-23T12:17:07Z</time>
      </trkpt>
      <trkpt lat="45.24462" lon="6.11291">
        <ele>2720</ele>
        <time>2021-12-23T12:17:08Z</time>
      </trkpt>
      <trkpt lat="45.24462" lon="6.11291">
        <ele>2720</ele>
        <time>2021-12-23T12:17:09Z</time>
      </trkpt>
      <trkpt lat="45.24461" lon="6.11291">
        <ele>2720</ele>
        <time>2021-12-23T12:17:10Z</time>
      </trkpt>
      <trkpt lat="45.24461" lon="6.11291">
        <ele>2720</ele>
        <time>2021-12-23T12:17:11Z</time>
      </trkpt>
      <trkpt lat="45.24461" lon="6.11291">
        <ele>2720</ele>
        <time>2021-12-23T12:17:12Z</time>
      </trkpt>
      <trkpt lat="45.24461" lon="6.11291">
        <ele>2720</ele>
        <time>2021-12-23T12:17:13Z</time>
      </trkpt>
      <trkpt lat="45.24461" lon="6.11291">
        <ele>2720</ele>
        <time>2021-12-23T12:17:14Z</time>
      </trkpt>
      <trkpt lat="45.24461" lon="6.11291">
        <ele>2720</ele>
        <time>2021-12-23T12:17:15Z</time>
      </trkpt>
      <trkpt lat="45.24461" lon="6.11291">
        <ele>2720</ele>
        <time>2021-12-23T12:17:17Z</time>
      </trkpt>
      <trkpt lat="45.24461" lon="6.11292">
        <ele>2720</ele>
        <time>2021-12-23T12:17:18Z</time>
      </trkpt>
      <trkpt lat="45.24461" lon="6.11292">
        <ele>2720</ele>
        <time>2021-12-23T12:17:19Z</time>
      </trkpt>
      <trkpt lat="45.24461" lon="6.11292">
        <ele>2720</ele>
        <time>2021-12-23T12:17:20Z</time>
      </trkpt>
      <trkpt lat="45.24461" lon="6.11292">
        <ele>2720</ele>
        <time>2021-12-23T12:17:21Z</time>
      </trkpt>
      <trkpt lat="45.24461" lon="6.11292">
        <ele>2720</ele>
        <time>2021-12-23T12:17:22Z</time>
      </trkpt>
      <trkpt lat="45.24461" lon="6.11292">
        <ele>2720</ele>
        <time>2021-12-23T12:17:23Z</time>
      </trkpt>
      <trkpt lat="45.24461" lon="6.11292">
        <ele>2720</ele>
        <time>2021-12-23T12:17:24Z</time>
      </trkpt>
      <trkpt lat="45.24461" lon="6.11292">
        <ele>2720</ele>
        <time>2021-12-23T12:17:25Z</time>
      </trkpt>
      <trkpt lat="45.24461" lon="6.11292">
        <ele>2720</ele>
        <time>2021-12-23T12:17:26Z</time>
      </trkpt>
      <trkpt lat="45.24461" lon="6.11292">
        <ele>2720</ele>
        <time>2021-12-23T12:17:27Z</time>
      </trkpt>
      <trkpt lat="45.24461" lon="6.11292">
        <ele>2720</ele>
        <time>2021-12-23T12:17:28Z</time>
      </trkpt>
      <trkpt lat="45.24461" lon="6.11292">
        <ele>2720</ele>
        <time>2021-12-23T12:17:29Z</time>
      </trkpt>
      <trkpt lat="45.24461" lon="6.11292">
        <ele>2720</ele>
        <time>2021-12-23T12:17:30Z</time>
      </trkpt>
      <trkpt lat="45.24461" lon="6.11292">
        <ele>2720</ele>
        <time>2021-12-23T12:17:31Z</time>
      </trkpt>
      <trkpt lat="45.24461" lon="6.11292">
        <ele>2720</ele>
        <time>2021-12-23T12:17:32Z</time>
      </trkpt>
      <trkpt lat="45.24461" lon="6.11292">
        <ele>2720</ele>
        <time>2021-12-23T12:17:33Z</time>
      </trkpt>
      <trkpt lat="45.24461" lon="6.11292">
        <ele>2720</ele>
        <time>2021-12-23T12:17:34Z</time>
      </trkpt>
      <trkpt lat="45.24461" lon="6.11292">
        <ele>2720</ele>
        <time>2021-12-23T12:17:36Z</time>
      </trkpt>
      <trkpt lat="45.24461" lon="6.11292">
        <ele>2720</ele>
        <time>2021-12-23T12:17:37Z</time>
      </trkpt>
      <trkpt lat="45.24461" lon="6.11292">
        <ele>2720</ele>
        <time>2021-12-23T12:17:38Z</time>
      </trkpt>
      <trkpt lat="45.24461" lon="6.11292">
        <ele>2720</ele>
        <time>2021-12-23T12:17:39Z</time>
      </trkpt>
      <trkpt lat="45.24461" lon="6.11292">
        <ele>2720</ele>
        <time>2021-12-23T12:17:40Z</time>
      </trkpt>
      <trkpt lat="45.24461" lon="6.11292">
        <ele>2720</ele>
        <time>2021-12-23T12:17:41Z</time>
      </trkpt>
      <trkpt lat="45.24461" lon="6.11292">
        <ele>2720</ele>
        <time>2021-12-23T12:17:42Z</time>
      </trkpt>
      <trkpt lat="45.24461" lon="6.11292">
        <ele>2720</ele>
        <time>2021-12-23T12:17:43Z</time>
      </trkpt>
      <trkpt lat="45.24461" lon="6.11292">
        <ele>2720</ele>
        <time>2021-12-23T12:17:44Z</time>
      </trkpt>
      <trkpt lat="45.24461" lon="6.11292">
        <ele>2720</ele>
        <time>2021-12-23T12:17:45Z</time>
      </trkpt>
      <trkpt lat="45.24461" lon="6.11292">
        <ele>2720</ele>
        <time>2021-12-23T12:17:46Z</time>
      </trkpt>
      <trkpt lat="45.24461" lon="6.11292">
        <ele>2720</ele>
        <time>2021-12-23T12:17:47Z</time>
      </trkpt>
      <trkpt lat="45.24461" lon="6.11292">
        <ele>2720</ele>
        <time>2021-12-23T12:17:48Z</time>
      </trkpt>
      <trkpt lat="45.24461" lon="6.11292">
        <ele>2720</ele>
        <time>2021-12-23T12:17:49Z</time>
      </trkpt>
      <trkpt lat="45.24461" lon="6.11292">
        <ele>2720</ele>
        <time>2021-12-23T12:17:50Z</time>
      </trkpt>
      <trkpt lat="45.24461" lon="6.11292">
        <ele>2720</ele>
        <time>2021-12-23T12:17:51Z</time>
      </trkpt>
      <trkpt lat="45.24461" lon="6.11293">
        <ele>2720</ele>
        <time>2021-12-23T12:17:52Z</time>
      </trkpt>
      <trkpt lat="45.24461" lon="6.11293">
        <ele>2720</ele>
        <time>2021-12-23T12:17:53Z</time>
      </trkpt>
      <trkpt lat="45.24461" lon="6.11293">
        <ele>2720</ele>
        <time>2021-12-23T12:17:55Z</time>
      </trkpt>
      <trkpt lat="45.24461" lon="6.11293">
        <ele>2720</ele>
        <time>2021-12-23T12:17:56Z</time>
      </trkpt>
      <trkpt lat="45.24461" lon="6.11293">
        <ele>2720</ele>
        <time>2021-12-23T12:17:57Z</time>
      </trkpt>
      <trkpt lat="45.24461" lon="6.11293">
        <ele>2720</ele>
        <time>2021-12-23T12:17:58Z</time>
      </trkpt>
      <trkpt lat="45.24461" lon="6.11293">
        <ele>2720</ele>
        <time>2021-12-23T12:17:59Z</time>
      </trkpt>
      <trkpt lat="45.24461" lon="6.11293">
        <ele>2720</ele>
        <time>2021-12-23T12:18:00Z</time>
      </trkpt>
      <trkpt lat="45.24461" lon="6.11293">
        <ele>2720</ele>
        <time>2021-12-23T12:18:01Z</time>
      </trkpt>
      <trkpt lat="45.24461" lon="6.11293">
        <ele>2720</ele>
        <time>2021-12-23T12:18:02Z</time>
      </trkpt>
      <trkpt lat="45.24461" lon="6.11293">
        <ele>2720</ele>
        <time>2021-12-23T12:18:03Z</time>
      </trkpt>
      <trkpt lat="45.24461" lon="6.11293">
        <ele>2720</ele>
        <time>2021-12-23T12:18:04Z</time>
      </trkpt>
      <trkpt lat="45.24461" lon="6.11293">
        <ele>2720</ele>
        <time>2021-12-23T12:18:05Z</time>
      </trkpt>
      <trkpt lat="45.24461" lon="6.11293">
        <ele>2720</ele>
        <time>2021-12-23T12:18:06Z</time>
      </trkpt>
      <trkpt lat="45.24461" lon="6.11293">
        <ele>2720</ele>
        <time>2021-12-23T12:18:07Z</time>
      </trkpt>
      <trkpt lat="45.2446" lon="6.11293">
        <ele>2720</ele>
        <time>2021-12-23T12:18:08Z</time>
      </trkpt>
      <trkpt lat="45.2446" lon="6.11293">
        <ele>2720</ele>
        <time>2021-12-23T12:18:09Z</time>
      </trkpt>
      <trkpt lat="45.2446" lon="6.11293">
        <ele>2720</ele>
        <time>2021-12-23T12:18:10Z</time>
      </trkpt>
      <trkpt lat="45.2446" lon="6.11293">
        <ele>2720</ele>
        <time>2021-12-23T12:18:11Z</time>
      </trkpt>
      <trkpt lat="45.2446" lon="6.11293">
        <ele>2720</ele>
        <time>2021-12-23T12:18:12Z</time>
      </trkpt>
      <trkpt lat="45.2446" lon="6.11293">
        <ele>2720</ele>
        <time>2021-12-23T12:18:14Z</time>
      </trkpt>
      <trkpt lat="45.2446" lon="6.11293">
        <ele>2720</ele>
        <time>2021-12-23T12:18:15Z</time>
      </trkpt>
      <trkpt lat="45.2446" lon="6.11293">
        <ele>2720</ele>
        <time>2021-12-23T12:18:16Z</time>
      </trkpt>
      <trkpt lat="45.2446" lon="6.11293">
        <ele>2720</ele>
        <time>2021-12-23T12:18:17Z</time>
      </trkpt>
      <trkpt lat="45.2446" lon="6.11293">
        <ele>2720</ele>
        <time>2021-12-23T12:18:18Z</time>
      </trkpt>
      <trkpt lat="45.2446" lon="6.11293">
        <ele>2720</ele>
        <time>2021-12-23T12:18:20Z</time>
      </trkpt>
      <trkpt lat="45.2446" lon="6.11293">
        <ele>2720</ele>
        <time>2021-12-23T12:18:21Z</time>
      </trkpt>
      <trkpt lat="45.2446" lon="6.11293">
        <ele>2720</ele>
        <time>2021-12-23T12:18:22Z</time>
      </trkpt>
      <trkpt lat="45.2446" lon="6.11293">
        <ele>2720</ele>
        <time>2021-12-23T12:18:23Z</time>
      </trkpt>
      <trkpt lat="45.2446" lon="6.11293">
        <ele>2720</ele>
        <time>2021-12-23T12:18:24Z</time>
      </trkpt>
      <trkpt lat="45.2446" lon="6.11293">
        <ele>2720</ele>
        <time>2021-12-23T12:18:25Z</time>
      </trkpt>
      <trkpt lat="45.2446" lon="6.11293">
        <ele>2720</ele>
        <time>2021-12-23T12:18:26Z</time>
      </trkpt>
      <trkpt lat="45.2446" lon="6.11293">
        <ele>2720</ele>
        <time>2021-12-23T12:18:27Z</time>
      </trkpt>
      <trkpt lat="45.2446" lon="6.11293">
        <ele>2720</ele>
        <time>2021-12-23T12:18:28Z</time>
      </trkpt>
      <trkpt lat="45.2446" lon="6.11294">
        <ele>2720</ele>
        <time>2021-12-23T12:18:29Z</time>
      </trkpt>
      <trkpt lat="45.2446" lon="6.11294">
        <ele>2720</ele>
        <time>2021-12-23T12:18:30Z</time>
      </trkpt>
      <trkpt lat="45.2446" lon="6.11294">
        <ele>2720</ele>
        <time>2021-12-23T12:18:31Z</time>
      </trkpt>
      <trkpt lat="45.2446" lon="6.11294">
        <ele>2720</ele>
        <time>2021-12-23T12:18:33Z</time>
      </trkpt>
      <trkpt lat="45.2446" lon="6.11294">
        <ele>2720</ele>
        <time>2021-12-23T12:18:34Z</time>
      </trkpt>
      <trkpt lat="45.2446" lon="6.11294">
        <ele>2720</ele>
        <time>2021-12-23T12:18:35Z</time>
      </trkpt>
      <trkpt lat="45.2446" lon="6.11294">
        <ele>2720</ele>
        <time>2021-12-23T12:18:36Z</time>
      </trkpt>
      <trkpt lat="45.2446" lon="6.11294">
        <ele>2720</ele>
        <time>2021-12-23T12:18:37Z</time>
      </trkpt>
      <trkpt lat="45.2446" lon="6.11294">
        <ele>2720</ele>
        <time>2021-12-23T12:18:38Z</time>
      </trkpt>
      <trkpt lat="45.2446" lon="6.11294">
        <ele>2720</ele>
        <time>2021-12-23T12:18:39Z</time>
      </trkpt>
      <trkpt lat="45.2446" lon="6.11294">
        <ele>2720</ele>
        <time>2021-12-23T12:18:40Z</time>
      </trkpt>
      <trkpt lat="45.2446" lon="6.11294">
        <ele>2720</ele>
        <time>2021-12-23T12:18:41Z</time>
      </trkpt>
      <trkpt lat="45.2446" lon="6.11294">
        <ele>2720</ele>
        <time>2021-12-23T12:18:42Z</time>
      </trkpt>
      <trkpt lat="45.2446" lon="6.11294">
        <ele>2720</ele>
        <time>2021-12-23T12:18:43Z</time>
      </trkpt>
      <trkpt lat="45.2446" lon="6.11294">
        <ele>2720</ele>
        <time>2021-12-23T12:18:44Z</time>
      </trkpt>
      <trkpt lat="45.2446" lon="6.11294">
        <ele>2720</ele>
        <time>2021-12-23T12:18:45Z</time>
      </trkpt>
      <trkpt lat="45.2446" lon="6.11294">
        <ele>2720</ele>
        <time>2021-12-23T12:18:46Z</time>
      </trkpt>
      <trkpt lat="45.2446" lon="6.11294">
        <ele>2719</ele>
        <time>2021-12-23T12:18:47Z</time>
      </trkpt>
      <trkpt lat="45.2446" lon="6.11294">
        <ele>2719</ele>
        <time>2021-12-23T12:18:48Z</time>
      </trkpt>
      <trkpt lat="45.2446" lon="6.11294">
        <ele>2719</ele>
        <time>2021-12-23T12:18:49Z</time>
      </trkpt>
      <trkpt lat="45.2446" lon="6.11294">
        <ele>2720</ele>
        <time>2021-12-23T12:18:50Z</time>
      </trkpt>
      <trkpt lat="45.2446" lon="6.11294">
        <ele>2720</ele>
        <time>2021-12-23T12:18:52Z</time>
      </trkpt>
      <trkpt lat="45.2446" lon="6.11294">
        <ele>2720</ele>
        <time>2021-12-23T12:18:53Z</time>
      </trkpt>
      <trkpt lat="45.2446" lon="6.11294">
        <ele>2720</ele>
        <time>2021-12-23T12:18:54Z</time>
      </trkpt>
      <trkpt lat="45.2446" lon="6.11294">
        <ele>2720</ele>
        <time>2021-12-23T12:18:55Z</time>
      </trkpt>
      <trkpt lat="45.2446" lon="6.11294">
        <ele>2720</ele>
        <time>2021-12-23T12:18:56Z</time>
      </trkpt>
      <trkpt lat="45.2446" lon="6.11294">
        <ele>2720</ele>
        <time>2021-12-23T12:18:57Z</time>
      </trkpt>
      <trkpt lat="45.2446" lon="6.11294">
        <ele>2720</ele>
        <time>2021-12-23T12:18:58Z</time>
      </trkpt>
      <trkpt lat="45.2446" lon="6.11294">
        <ele>2720</ele>
        <time>2021-12-23T12:18:59Z</time>
      </trkpt>
      <trkpt lat="45.2446" lon="6.11294">
        <ele>2720</ele>
        <time>2021-12-23T12:19:00Z</time>
      </trkpt>
      <trkpt lat="45.2446" lon="6.11294">
        <ele>2720</ele>
        <time>2021-12-23T12:19:01Z</time>
      </trkpt>
      <trkpt lat="45.2446" lon="6.11294">
        <ele>2720</ele>
        <time>2021-12-23T12:19:02Z</time>
      </trkpt>
      <trkpt lat="45.2446" lon="6.11294">
        <ele>2720</ele>
        <time>2021-12-23T12:19:03Z</time>
      </trkpt>
      <trkpt lat="45.2446" lon="6.11295">
        <ele>2720</ele>
        <time>2021-12-23T12:19:04Z</time>
      </trkpt>
      <trkpt lat="45.2446" lon="6.11295">
        <ele>2720</ele>
        <time>2021-12-23T12:19:05Z</time>
      </trkpt>
      <trkpt lat="45.2446" lon="6.11295">
        <ele>2720</ele>
        <time>2021-12-23T12:19:06Z</time>
      </trkpt>
      <trkpt lat="45.2446" lon="6.11295">
        <ele>2720</ele>
        <time>2021-12-23T12:19:07Z</time>
      </trkpt>
      <trkpt lat="45.24459" lon="6.11295">
        <ele>2720</ele>
        <time>2021-12-23T12:19:08Z</time>
      </trkpt>
      <trkpt lat="45.24459" lon="6.11295">
        <ele>2720</ele>
        <time>2021-12-23T12:19:09Z</time>
      </trkpt>
      <trkpt lat="45.24459" lon="6.11295">
        <ele>2720</ele>
        <time>2021-12-23T12:19:11Z</time>
      </trkpt>
      <trkpt lat="45.24459" lon="6.11295">
        <ele>2720</ele>
        <time>2021-12-23T12:19:12Z</time>
      </trkpt>
      <trkpt lat="45.24459" lon="6.11295">
        <ele>2720</ele>
        <time>2021-12-23T12:19:13Z</time>
      </trkpt>
      <trkpt lat="45.24459" lon="6.11295">
        <ele>2720</ele>
        <time>2021-12-23T12:19:14Z</time>
      </trkpt>
      <trkpt lat="45.24459" lon="6.11295">
        <ele>2720</ele>
        <time>2021-12-23T12:19:15Z</time>
      </trkpt>
      <trkpt lat="45.24459" lon="6.11295">
        <ele>2720</ele>
        <time>2021-12-23T12:19:16Z</time>
      </trkpt>
      <trkpt lat="45.24459" lon="6.11295">
        <ele>2720</ele>
        <time>2021-12-23T12:19:17Z</time>
      </trkpt>
      <trkpt lat="45.24459" lon="6.11295">
        <ele>2720</ele>
        <time>2021-12-23T12:19:18Z</time>
      </trkpt>
      <trkpt lat="45.24459" lon="6.11295">
        <ele>2720</ele>
        <time>2021-12-23T12:19:19Z</time>
      </trkpt>
      <trkpt lat="45.24459" lon="6.11295">
        <ele>2720</ele>
        <time>2021-12-23T12:19:20Z</time>
      </trkpt>
      <trkpt lat="45.24459" lon="6.11295">
        <ele>2720</ele>
        <time>2021-12-23T12:19:21Z</time>
      </trkpt>
      <trkpt lat="45.24459" lon="6.11295">
        <ele>2720</ele>
        <time>2021-12-23T12:19:22Z</time>
      </trkpt>
      <trkpt lat="45.24459" lon="6.11295">
        <ele>2720</ele>
        <time>2021-12-23T12:19:23Z</time>
      </trkpt>
      <trkpt lat="45.24459" lon="6.11295">
        <ele>2720</ele>
        <time>2021-12-23T12:19:24Z</time>
      </trkpt>
      <trkpt lat="45.24459" lon="6.11295">
        <ele>2720</ele>
        <time>2021-12-23T12:19:25Z</time>
      </trkpt>
      <trkpt lat="45.24459" lon="6.11295">
        <ele>2720</ele>
        <time>2021-12-23T12:19:26Z</time>
      </trkpt>
      <trkpt lat="45.24459" lon="6.11295">
        <ele>2720</ele>
        <time>2021-12-23T12:19:27Z</time>
      </trkpt>
      <trkpt lat="45.24459" lon="6.11295">
        <ele>2720</ele>
        <time>2021-12-23T12:19:28Z</time>
      </trkpt>
      <trkpt lat="45.24459" lon="6.11295">
        <ele>2720</ele>
        <time>2021-12-23T12:19:30Z</time>
      </trkpt>
      <trkpt lat="45.24459" lon="6.11295">
        <ele>2720</ele>
        <time>2021-12-23T12:19:31Z</time>
      </trkpt>
      <trkpt lat="45.24459" lon="6.11295">
        <ele>2720</ele>
        <time>2021-12-23T12:19:32Z</time>
      </trkpt>
      <trkpt lat="45.24459" lon="6.11295">
        <ele>2720</ele>
        <time>2021-12-23T12:19:33Z</time>
      </trkpt>
      <trkpt lat="45.24459" lon="6.11295">
        <ele>2719</ele>
        <time>2021-12-23T12:19:34Z</time>
      </trkpt>
      <trkpt lat="45.24459" lon="6.11295">
        <ele>2719</ele>
        <time>2021-12-23T12:19:35Z</time>
      </trkpt>
      <trkpt lat="45.24459" lon="6.11295">
        <ele>2719</ele>
        <time>2021-12-23T12:19:36Z</time>
      </trkpt>
      <trkpt lat="45.24459" lon="6.11295">
        <ele>2719</ele>
        <time>2021-12-23T12:19:37Z</time>
      </trkpt>
      <trkpt lat="45.24459" lon="6.11295">
        <ele>2719</ele>
        <time>2021-12-23T12:19:38Z</time>
      </trkpt>
      <trkpt lat="45.24459" lon="6.11295">
        <ele>2719</ele>
        <time>2021-12-23T12:19:39Z</time>
      </trkpt>
      <trkpt lat="45.24459" lon="6.11296">
        <ele>2719</ele>
        <time>2021-12-23T12:19:40Z</time>
      </trkpt>
      <trkpt lat="45.24459" lon="6.11296">
        <ele>2719</ele>
        <time>2021-12-23T12:19:41Z</time>
      </trkpt>
      <trkpt lat="45.24459" lon="6.11296">
        <ele>2719</ele>
        <time>2021-12-23T12:19:42Z</time>
      </trkpt>
      <trkpt lat="45.24459" lon="6.11296">
        <ele>2719</ele>
        <time>2021-12-23T12:19:43Z</time>
      </trkpt>
      <trkpt lat="45.24459" lon="6.11296">
        <ele>2719</ele>
        <time>2021-12-23T12:19:44Z</time>
      </trkpt>
      <trkpt lat="45.24459" lon="6.11296">
        <ele>2719</ele>
        <time>2021-12-23T12:19:45Z</time>
      </trkpt>
      <trkpt lat="45.24459" lon="6.11296">
        <ele>2719</ele>
        <time>2021-12-23T12:19:46Z</time>
      </trkpt>
      <trkpt lat="45.24459" lon="6.11296">
        <ele>2719</ele>
        <time>2021-12-23T12:19:47Z</time>
      </trkpt>
      <trkpt lat="45.24459" lon="6.11296">
        <ele>2719</ele>
        <time>2021-12-23T12:19:49Z</time>
      </trkpt>
      <trkpt lat="45.24459" lon="6.11296">
        <ele>2719</ele>
        <time>2021-12-23T12:19:50Z</time>
      </trkpt>
      <trkpt lat="45.24459" lon="6.11296">
        <ele>2719</ele>
        <time>2021-12-23T12:19:51Z</time>
      </trkpt>
      <trkpt lat="45.24459" lon="6.11296">
        <ele>2719</ele>
        <time>2021-12-23T12:19:52Z</time>
      </trkpt>
      <trkpt lat="45.24459" lon="6.11296">
        <ele>2719</ele>
        <time>2021-12-23T12:19:53Z</time>
      </trkpt>
      <trkpt lat="45.24459" lon="6.11296">
        <ele>2719</ele>
        <time>2021-12-23T12:19:54Z</time>
      </trkpt>
      <trkpt lat="45.24459" lon="6.11296">
        <ele>2719</ele>
        <time>2021-12-23T12:19:55Z</time>
      </trkpt>
      <trkpt lat="45.24459" lon="6.11296">
        <ele>2720</ele>
        <time>2021-12-23T12:19:56Z</time>
      </trkpt>
      <trkpt lat="45.24459" lon="6.11296">
        <ele>2720</ele>
        <time>2021-12-23T12:19:57Z</time>
      </trkpt>
      <trkpt lat="45.24459" lon="6.11296">
        <ele>2720</ele>
        <time>2021-12-23T12:19:58Z</time>
      </trkpt>
      <trkpt lat="45.24459" lon="6.11296">
        <ele>2720</ele>
        <time>2021-12-23T12:19:59Z</time>
      </trkpt>
      <trkpt lat="45.24459" lon="6.11296">
        <ele>2720</ele>
        <time>2021-12-23T12:20:00Z</time>
      </trkpt>
      <trkpt lat="45.24459" lon="6.11296">
        <ele>2720</ele>
        <time>2021-12-23T12:20:01Z</time>
      </trkpt>
      <trkpt lat="45.24459" lon="6.11296">
        <ele>2720</ele>
        <time>2021-12-23T12:20:02Z</time>
      </trkpt>
      <trkpt lat="45.24459" lon="6.11296">
        <ele>2720</ele>
        <time>2021-12-23T12:20:03Z</time>
      </trkpt>
      <trkpt lat="45.24459" lon="6.11296">
        <ele>2720</ele>
        <time>2021-12-23T12:20:04Z</time>
      </trkpt>
      <trkpt lat="45.24459" lon="6.11296">
        <ele>2720</ele>
        <time>2021-12-23T12:20:05Z</time>
      </trkpt>
      <trkpt lat="45.24458" lon="6.11296">
        <ele>2720</ele>
        <time>2021-12-23T12:20:06Z</time>
      </trkpt>
      <trkpt lat="45.24458" lon="6.11296">
        <ele>2720</ele>
        <time>2021-12-23T12:20:08Z</time>
      </trkpt>
      <trkpt lat="45.24458" lon="6.11296">
        <ele>2720</ele>
        <time>2021-12-23T12:20:09Z</time>
      </trkpt>
      <trkpt lat="45.24458" lon="6.11296">
        <ele>2720</ele>
        <time>2021-12-23T12:20:10Z</time>
      </trkpt>
      <trkpt lat="45.24458" lon="6.11296">
        <ele>2720</ele>
        <time>2021-12-23T12:20:11Z</time>
      </trkpt>
      <trkpt lat="45.24458" lon="6.11296">
        <ele>2720</ele>
        <time>2021-12-23T12:20:12Z</time>
      </trkpt>
      <trkpt lat="45.24458" lon="6.11296">
        <ele>2720</ele>
        <time>2021-12-23T12:20:13Z</time>
      </trkpt>
      <trkpt lat="45.24458" lon="6.11296">
        <ele>2720</ele>
        <time>2021-12-23T12:20:14Z</time>
      </trkpt>
      <trkpt lat="45.24458" lon="6.11297">
        <ele>2720</ele>
        <time>2021-12-23T12:20:15Z</time>
      </trkpt>
      <trkpt lat="45.24458" lon="6.11297">
        <ele>2720</ele>
        <time>2021-12-23T12:20:16Z</time>
      </trkpt>
      <trkpt lat="45.24458" lon="6.11297">
        <ele>2720</ele>
        <time>2021-12-23T12:20:17Z</time>
      </trkpt>
      <trkpt lat="45.24458" lon="6.11297">
        <ele>2720</ele>
        <time>2021-12-23T12:20:18Z</time>
      </trkpt>
      <trkpt lat="45.24458" lon="6.11297">
        <ele>2720</ele>
        <time>2021-12-23T12:20:19Z</time>
      </trkpt>
      <trkpt lat="45.24458" lon="6.11297">
        <ele>2720</ele>
        <time>2021-12-23T12:20:20Z</time>
      </trkpt>
      <trkpt lat="45.24458" lon="6.11297">
        <ele>2720</ele>
        <time>2021-12-23T12:20:21Z</time>
      </trkpt>
      <trkpt lat="45.24458" lon="6.11297">
        <ele>2720</ele>
        <time>2021-12-23T12:20:22Z</time>
      </trkpt>
      <trkpt lat="45.24458" lon="6.11297">
        <ele>2720</ele>
        <time>2021-12-23T12:20:23Z</time>
      </trkpt>
      <trkpt lat="45.24458" lon="6.11297">
        <ele>2720</ele>
        <time>2021-12-23T12:20:24Z</time>
      </trkpt>
      <trkpt lat="45.24458" lon="6.11297">
        <ele>2720</ele>
        <time>2021-12-23T12:20:25Z</time>
      </trkpt>
      <trkpt lat="45.24458" lon="6.11297">
        <ele>2719</ele>
        <time>2021-12-23T12:20:27Z</time>
      </trkpt>
      <trkpt lat="45.24458" lon="6.11297">
        <ele>2719</ele>
        <time>2021-12-23T12:20:28Z</time>
      </trkpt>
      <trkpt lat="45.24458" lon="6.11297">
        <ele>2719</ele>
        <time>2021-12-23T12:20:29Z</time>
      </trkpt>
      <trkpt lat="45.24458" lon="6.11297">
        <ele>2719</ele>
        <time>2021-12-23T12:20:30Z</time>
      </trkpt>
      <trkpt lat="45.24458" lon="6.11297">
        <ele>2719</ele>
        <time>2021-12-23T12:20:31Z</time>
      </trkpt>
      <trkpt lat="45.24458" lon="6.11297">
        <ele>2719</ele>
        <time>2021-12-23T12:20:32Z</time>
      </trkpt>
      <trkpt lat="45.24458" lon="6.11297">
        <ele>2719</ele>
        <time>2021-12-23T12:20:33Z</time>
      </trkpt>
      <trkpt lat="45.24458" lon="6.11297">
        <ele>2720</ele>
        <time>2021-12-23T12:20:34Z</time>
      </trkpt>
      <trkpt lat="45.24458" lon="6.11296">
        <ele>2720</ele>
        <time>2021-12-23T12:20:35Z</time>
      </trkpt>
      <trkpt lat="45.24458" lon="6.11296">
        <ele>2720</ele>
        <time>2021-12-23T12:20:36Z</time>
      </trkpt>
      <trkpt lat="45.24458" lon="6.11296">
        <ele>2720</ele>
        <time>2021-12-23T12:20:37Z</time>
      </trkpt>
      <trkpt lat="45.24458" lon="6.11296">
        <ele>2720</ele>
        <time>2021-12-23T12:20:38Z</time>
      </trkpt>
      <trkpt lat="45.24458" lon="6.11296">
        <ele>2720</ele>
        <time>2021-12-23T12:20:39Z</time>
      </trkpt>
      <trkpt lat="45.24458" lon="6.11296">
        <ele>2720</ele>
        <time>2021-12-23T12:20:40Z</time>
      </trkpt>
      <trkpt lat="45.24458" lon="6.11296">
        <ele>2720</ele>
        <time>2021-12-23T12:20:41Z</time>
      </trkpt>
      <trkpt lat="45.24458" lon="6.11296">
        <ele>2720</ele>
        <time>2021-12-23T12:20:42Z</time>
      </trkpt>
      <trkpt lat="45.24458" lon="6.11296">
        <ele>2720</ele>
        <time>2021-12-23T12:20:43Z</time>
      </trkpt>
      <trkpt lat="45.24458" lon="6.11295">
        <ele>2720</ele>
        <time>2021-12-23T12:20:44Z</time>
      </trkpt>
      <trkpt lat="45.24458" lon="6.11295">
        <ele>2719</ele>
        <time>2021-12-23T12:20:46Z</time>
      </trkpt>
      <trkpt lat="45.24458" lon="6.11295">
        <ele>2719</ele>
        <time>2021-12-23T12:20:47Z</time>
      </trkpt>
      <trkpt lat="45.24458" lon="6.11295">
        <ele>2719</ele>
        <time>2021-12-23T12:20:48Z</time>
      </trkpt>
      <trkpt lat="45.24458" lon="6.11295">
        <ele>2719</ele>
        <time>2021-12-23T12:20:49Z</time>
      </trkpt>
      <trkpt lat="45.24458" lon="6.11295">
        <ele>2719</ele>
        <time>2021-12-23T12:20:50Z</time>
      </trkpt>
      <trkpt lat="45.24458" lon="6.11295">
        <ele>2719</ele>
        <time>2021-12-23T12:20:51Z</time>
      </trkpt>
      <trkpt lat="45.24458" lon="6.11295">
        <ele>2719</ele>
        <time>2021-12-23T12:20:52Z</time>
      </trkpt>
      <trkpt lat="45.24458" lon="6.11295">
        <ele>2720</ele>
        <time>2021-12-23T12:20:53Z</time>
      </trkpt>
      <trkpt lat="45.24458" lon="6.11294">
        <ele>2720</ele>
        <time>2021-12-23T12:20:54Z</time>
      </trkpt>
      <trkpt lat="45.24458" lon="6.11294">
        <ele>2720</ele>
        <time>2021-12-23T12:20:55Z</time>
      </trkpt>
      <trkpt lat="45.24458" lon="6.11294">
        <ele>2720</ele>
        <time>2021-12-23T12:20:56Z</time>
      </trkpt>
      <trkpt lat="45.24458" lon="6.11294">
        <ele>2720</ele>
        <time>2021-12-23T12:20:57Z</time>
      </trkpt>
      <trkpt lat="45.24458" lon="6.11294">
        <ele>2720</ele>
        <time>2021-12-23T12:20:58Z</time>
      </trkpt>
      <trkpt lat="45.24458" lon="6.11294">
        <ele>2720</ele>
        <time>2021-12-23T12:20:59Z</time>
      </trkpt>
      <trkpt lat="45.24458" lon="6.11294">
        <ele>2720</ele>
        <time>2021-12-23T12:21:00Z</time>
      </trkpt>
      <trkpt lat="45.24458" lon="6.11294">
        <ele>2720</ele>
        <time>2021-12-23T12:21:01Z</time>
      </trkpt>
      <trkpt lat="45.24458" lon="6.11293">
        <ele>2720</ele>
        <time>2021-12-23T12:21:02Z</time>
      </trkpt>
      <trkpt lat="45.24458" lon="6.11293">
        <ele>2720</ele>
        <time>2021-12-23T12:21:03Z</time>
      </trkpt>
      <trkpt lat="45.24458" lon="6.11293">
        <ele>2720</ele>
        <time>2021-12-23T12:21:05Z</time>
      </trkpt>
      <trkpt lat="45.24459" lon="6.11293">
        <ele>2720</ele>
        <time>2021-12-23T12:21:06Z</time>
      </trkpt>
      <trkpt lat="45.24459" lon="6.11293">
        <ele>2720</ele>
        <time>2021-12-23T12:21:07Z</time>
      </trkpt>
      <trkpt lat="45.24459" lon="6.11293">
        <ele>2720</ele>
        <time>2021-12-23T12:21:08Z</time>
      </trkpt>
      <trkpt lat="45.24459" lon="6.11293">
        <ele>2720</ele>
        <time>2021-12-23T12:21:09Z</time>
      </trkpt>
      <trkpt lat="45.24459" lon="6.11293">
        <ele>2720</ele>
        <time>2021-12-23T12:21:10Z</time>
      </trkpt>
      <trkpt lat="45.24459" lon="6.11293">
        <ele>2720</ele>
        <time>2021-12-23T12:21:11Z</time>
      </trkpt>
      <trkpt lat="45.24459" lon="6.11292">
        <ele>2720</ele>
        <time>2021-12-23T12:21:12Z</time>
      </trkpt>
      <trkpt lat="45.24459" lon="6.11292">
        <ele>2720</ele>
        <time>2021-12-23T12:21:13Z</time>
      </trkpt>
      <trkpt lat="45.24459" lon="6.11292">
        <ele>2720</ele>
        <time>2021-12-23T12:21:14Z</time>
      </trkpt>
      <trkpt lat="45.24459" lon="6.11292">
        <ele>2720</ele>
        <time>2021-12-23T12:21:15Z</time>
      </trkpt>
      <trkpt lat="45.24459" lon="6.11292">
        <ele>2720</ele>
        <time>2021-12-23T12:21:16Z</time>
      </trkpt>
      <trkpt lat="45.24459" lon="6.11292">
        <ele>2720</ele>
        <time>2021-12-23T12:21:17Z</time>
      </trkpt>
      <trkpt lat="45.24459" lon="6.11292">
        <ele>2720</ele>
        <time>2021-12-23T12:21:18Z</time>
      </trkpt>
      <trkpt lat="45.24459" lon="6.11292">
        <ele>2720</ele>
        <time>2021-12-23T12:21:19Z</time>
      </trkpt>
      <trkpt lat="45.24459" lon="6.11292">
        <ele>2720</ele>
        <time>2021-12-23T12:21:20Z</time>
      </trkpt>
      <trkpt lat="45.24459" lon="6.11291">
        <ele>2720</ele>
        <time>2021-12-23T12:21:21Z</time>
      </trkpt>
      <trkpt lat="45.24459" lon="6.11291">
        <ele>2720</ele>
        <time>2021-12-23T12:21:22Z</time>
      </trkpt>
      <trkpt lat="45.24459" lon="6.11291">
        <ele>2720</ele>
        <time>2021-12-23T12:21:24Z</time>
      </trkpt>
      <trkpt lat="45.24459" lon="6.11291">
        <ele>2720</ele>
        <time>2021-12-23T12:21:25Z</time>
      </trkpt>
      <trkpt lat="45.24459" lon="6.11291">
        <ele>2720</ele>
        <time>2021-12-23T12:21:26Z</time>
      </trkpt>
      <trkpt lat="45.24459" lon="6.11291">
        <ele>2720</ele>
        <time>2021-12-23T12:21:27Z</time>
      </trkpt>
      <trkpt lat="45.24459" lon="6.11291">
        <ele>2720</ele>
        <time>2021-12-23T12:21:28Z</time>
      </trkpt>
      <trkpt lat="45.24459" lon="6.11291">
        <ele>2720</ele>
        <time>2021-12-23T12:21:29Z</time>
      </trkpt>
      <trkpt lat="45.24459" lon="6.1129">
        <ele>2719</ele>
        <time>2021-12-23T12:21:30Z</time>
      </trkpt>
      <trkpt lat="45.24459" lon="6.1129">
        <ele>2719</ele>
        <time>2021-12-23T12:21:31Z</time>
      </trkpt>
      <trkpt lat="45.24459" lon="6.1129">
        <ele>2719</ele>
        <time>2021-12-23T12:21:32Z</time>
      </trkpt>
      <trkpt lat="45.24459" lon="6.1129">
        <ele>2720</ele>
        <time>2021-12-23T12:21:33Z</time>
      </trkpt>
      <trkpt lat="45.24459" lon="6.1129">
        <ele>2720</ele>
        <time>2021-12-23T12:21:34Z</time>
      </trkpt>
      <trkpt lat="45.24459" lon="6.1129">
        <ele>2720</ele>
        <time>2021-12-23T12:21:35Z</time>
      </trkpt>
      <trkpt lat="45.24459" lon="6.1129">
        <ele>2720</ele>
        <time>2021-12-23T12:21:36Z</time>
      </trkpt>
      <trkpt lat="45.24459" lon="6.1129">
        <ele>2720</ele>
        <time>2021-12-23T12:21:37Z</time>
      </trkpt>
      <trkpt lat="45.24459" lon="6.1129">
        <ele>2720</ele>
        <time>2021-12-23T12:21:38Z</time>
      </trkpt>
      <trkpt lat="45.24459" lon="6.11289">
        <ele>2720</ele>
        <time>2021-12-23T12:21:39Z</time>
      </trkpt>
      <trkpt lat="45.24459" lon="6.11289">
        <ele>2720</ele>
        <time>2021-12-23T12:21:40Z</time>
      </trkpt>
      <trkpt lat="45.24459" lon="6.11289">
        <ele>2720</ele>
        <time>2021-12-23T12:21:41Z</time>
      </trkpt>
      <trkpt lat="45.24459" lon="6.11289">
        <ele>2720</ele>
        <time>2021-12-23T12:21:43Z</time>
      </trkpt>
      <trkpt lat="45.24459" lon="6.11289">
        <ele>2720</ele>
        <time>2021-12-23T12:21:44Z</time>
      </trkpt>
      <trkpt lat="45.24459" lon="6.11289">
        <ele>2720</ele>
        <time>2021-12-23T12:21:45Z</time>
      </trkpt>
      <trkpt lat="45.24459" lon="6.11289">
        <ele>2720</ele>
        <time>2021-12-23T12:21:46Z</time>
      </trkpt>
      <trkpt lat="45.24459" lon="6.11289">
        <ele>2720</ele>
        <time>2021-12-23T12:21:47Z</time>
      </trkpt>
      <trkpt lat="45.24459" lon="6.11288">
        <ele>2720</ele>
        <time>2021-12-23T12:21:48Z</time>
      </trkpt>
      <trkpt lat="45.24459" lon="6.11288">
        <ele>2720</ele>
        <time>2021-12-23T12:21:49Z</time>
      </trkpt>
      <trkpt lat="45.24459" lon="6.11288">
        <ele>2720</ele>
        <time>2021-12-23T12:21:50Z</time>
      </trkpt>
      <trkpt lat="45.24459" lon="6.11288">
        <ele>2720</ele>
        <time>2021-12-23T12:21:51Z</time>
      </trkpt>
      <trkpt lat="45.24459" lon="6.11288">
        <ele>2719</ele>
        <time>2021-12-23T12:21:52Z</time>
      </trkpt>
      <trkpt lat="45.24459" lon="6.11288">
        <ele>2719</ele>
        <time>2021-12-23T12:21:53Z</time>
      </trkpt>
      <trkpt lat="45.24459" lon="6.11288">
        <ele>2719</ele>
        <time>2021-12-23T12:21:54Z</time>
      </trkpt>
      <trkpt lat="45.24459" lon="6.11288">
        <ele>2719</ele>
        <time>2021-12-23T12:21:55Z</time>
      </trkpt>
      <trkpt lat="45.24459" lon="6.11288">
        <ele>2719</ele>
        <time>2021-12-23T12:21:56Z</time>
      </trkpt>
      <trkpt lat="45.24459" lon="6.11287">
        <ele>2719</ele>
        <time>2021-12-23T12:21:57Z</time>
      </trkpt>
      <trkpt lat="45.24459" lon="6.11287">
        <ele>2719</ele>
        <time>2021-12-23T12:21:58Z</time>
      </trkpt>
      <trkpt lat="45.24459" lon="6.11287">
        <ele>2720</ele>
        <time>2021-12-23T12:21:59Z</time>
      </trkpt>
      <trkpt lat="45.24459" lon="6.11287">
        <ele>2720</ele>
        <time>2021-12-23T12:22:00Z</time>
      </trkpt>
      <trkpt lat="45.24459" lon="6.11287">
        <ele>2720</ele>
        <time>2021-12-23T12:22:02Z</time>
      </trkpt>
      <trkpt lat="45.24459" lon="6.11287">
        <ele>2720</ele>
        <time>2021-12-23T12:22:03Z</time>
      </trkpt>
      <trkpt lat="45.24459" lon="6.11287">
        <ele>2720</ele>
        <time>2021-12-23T12:22:04Z</time>
      </trkpt>
      <trkpt lat="45.24459" lon="6.11287">
        <ele>2719</ele>
        <time>2021-12-23T12:22:05Z</time>
      </trkpt>
      <trkpt lat="45.24459" lon="6.11287">
        <ele>2719</ele>
        <time>2021-12-23T12:22:06Z</time>
      </trkpt>
      <trkpt lat="45.24459" lon="6.11286">
        <ele>2719</ele>
        <time>2021-12-23T12:22:07Z</time>
      </trkpt>
      <trkpt lat="45.24459" lon="6.11286">
        <ele>2719</ele>
        <time>2021-12-23T12:22:08Z</time>
      </trkpt>
      <trkpt lat="45.24459" lon="6.11286">
        <ele>2719</ele>
        <time>2021-12-23T12:22:09Z</time>
      </trkpt>
      <trkpt lat="45.24459" lon="6.11286">
        <ele>2719</ele>
        <time>2021-12-23T12:22:10Z</time>
      </trkpt>
      <trkpt lat="45.24459" lon="6.11286">
        <ele>2719</ele>
        <time>2021-12-23T12:22:11Z</time>
      </trkpt>
      <trkpt lat="45.24459" lon="6.11286">
        <ele>2719</ele>
        <time>2021-12-23T12:22:12Z</time>
      </trkpt>
      <trkpt lat="45.24459" lon="6.11286">
        <ele>2719</ele>
        <time>2021-12-23T12:22:13Z</time>
      </trkpt>
      <trkpt lat="45.24459" lon="6.11286">
        <ele>2719</ele>
        <time>2021-12-23T12:22:14Z</time>
      </trkpt>
      <trkpt lat="45.24459" lon="6.11285">
        <ele>2719</ele>
        <time>2021-12-23T12:22:15Z</time>
      </trkpt>
      <trkpt lat="45.24459" lon="6.11285">
        <ele>2719</ele>
        <time>2021-12-23T12:22:16Z</time>
      </trkpt>
      <trkpt lat="45.24459" lon="6.11285">
        <ele>2719</ele>
        <time>2021-12-23T12:22:17Z</time>
      </trkpt>
      <trkpt lat="45.24459" lon="6.11285">
        <ele>2719</ele>
        <time>2021-12-23T12:22:18Z</time>
      </trkpt>
      <trkpt lat="45.24459" lon="6.11285">
        <ele>2719</ele>
        <time>2021-12-23T12:22:19Z</time>
      </trkpt>
      <trkpt lat="45.24459" lon="6.11285">
        <ele>2720</ele>
        <time>2021-12-23T12:22:21Z</time>
      </trkpt>
      <trkpt lat="45.24459" lon="6.11285">
        <ele>2720</ele>
        <time>2021-12-23T12:22:22Z</time>
      </trkpt>
      <trkpt lat="45.24459" lon="6.11285">
        <ele>2720</ele>
        <time>2021-12-23T12:22:23Z</time>
      </trkpt>
      <trkpt lat="45.24459" lon="6.11285">
        <ele>2719</ele>
        <time>2021-12-23T12:22:24Z</time>
      </trkpt>
      <trkpt lat="45.24459" lon="6.11284">
        <ele>2719</ele>
        <time>2021-12-23T12:22:25Z</time>
      </trkpt>
      <trkpt lat="45.24459" lon="6.11284">
        <ele>2719</ele>
        <time>2021-12-23T12:22:26Z</time>
      </trkpt>
      <trkpt lat="45.24459" lon="6.11284">
        <ele>2719</ele>
        <time>2021-12-23T12:22:27Z</time>
      </trkpt>
      <trkpt lat="45.2446" lon="6.11284">
        <ele>2719</ele>
        <time>2021-12-23T12:22:28Z</time>
      </trkpt>
      <trkpt lat="45.2446" lon="6.11284">
        <ele>2719</ele>
        <time>2021-12-23T12:22:29Z</time>
      </trkpt>
      <trkpt lat="45.2446" lon="6.11284">
        <ele>2719</ele>
        <time>2021-12-23T12:22:30Z</time>
      </trkpt>
      <trkpt lat="45.2446" lon="6.11284">
        <ele>2719</ele>
        <time>2021-12-23T12:22:31Z</time>
      </trkpt>
      <trkpt lat="45.24459" lon="6.11284">
        <ele>2719</ele>
        <time>2021-12-23T12:22:32Z</time>
      </trkpt>
      <trkpt lat="45.24459" lon="6.11284">
        <ele>2719</ele>
        <time>2021-12-23T12:22:33Z</time>
      </trkpt>
      <trkpt lat="45.24459" lon="6.11285">
        <ele>2720</ele>
        <time>2021-12-23T12:22:34Z</time>
      </trkpt>
      <trkpt lat="45.24459" lon="6.11285">
        <ele>2720</ele>
        <time>2021-12-23T12:22:35Z</time>
      </trkpt>
      <trkpt lat="45.24459" lon="6.11286">
        <ele>2720</ele>
        <time>2021-12-23T12:22:36Z</time>
      </trkpt>
      <trkpt lat="45.24458" lon="6.11286">
        <ele>2720</ele>
        <time>2021-12-23T12:22:37Z</time>
      </trkpt>
      <trkpt lat="45.24458" lon="6.11286">
        <ele>2720</ele>
        <time>2021-12-23T12:22:38Z</time>
      </trkpt>
      <trkpt lat="45.24458" lon="6.11287">
        <ele>2720</ele>
        <time>2021-12-23T12:22:40Z</time>
      </trkpt>
      <trkpt lat="45.24458" lon="6.11287">
        <ele>2720</ele>
        <time>2021-12-23T12:22:41Z</time>
      </trkpt>
      <trkpt lat="45.24458" lon="6.11287">
        <ele>2720</ele>
        <time>2021-12-23T12:22:42Z</time>
      </trkpt>
      <trkpt lat="45.24458" lon="6.11288">
        <ele>2720</ele>
        <time>2021-12-23T12:22:43Z</time>
      </trkpt>
      <trkpt lat="45.24457" lon="6.11288">
        <ele>2720</ele>
        <time>2021-12-23T12:22:44Z</time>
      </trkpt>
      <trkpt lat="45.24457" lon="6.11288">
        <ele>2720</ele>
        <time>2021-12-23T12:22:45Z</time>
      </trkpt>
      <trkpt lat="45.24457" lon="6.11289">
        <ele>2720</ele>
        <time>2021-12-23T12:22:46Z</time>
      </trkpt>
      <trkpt lat="45.24457" lon="6.11289">
        <ele>2720</ele>
        <time>2021-12-23T12:22:47Z</time>
      </trkpt>
      <trkpt lat="45.24457" lon="6.1129">
        <ele>2720</ele>
        <time>2021-12-23T12:22:48Z</time>
      </trkpt>
      <trkpt lat="45.24456" lon="6.1129">
        <ele>2720</ele>
        <time>2021-12-23T12:22:49Z</time>
      </trkpt>
      <trkpt lat="45.24456" lon="6.1129">
        <ele>2720</ele>
        <time>2021-12-23T12:22:50Z</time>
      </trkpt>
      <trkpt lat="45.24456" lon="6.11291">
        <ele>2720</ele>
        <time>2021-12-23T12:22:51Z</time>
      </trkpt>
      <trkpt lat="45.24456" lon="6.11291">
        <ele>2720</ele>
        <time>2021-12-23T12:22:52Z</time>
      </trkpt>
      <trkpt lat="45.24456" lon="6.11291">
        <ele>2720</ele>
        <time>2021-12-23T12:22:53Z</time>
      </trkpt>
      <trkpt lat="45.24456" lon="6.11292">
        <ele>2720</ele>
        <time>2021-12-23T12:22:54Z</time>
      </trkpt>
      <trkpt lat="45.24455" lon="6.11292">
        <ele>2720</ele>
        <time>2021-12-23T12:22:55Z</time>
      </trkpt>
      <trkpt lat="45.24455" lon="6.11292">
        <ele>2720</ele>
        <time>2021-12-23T12:22:56Z</time>
      </trkpt>
      <trkpt lat="45.24455" lon="6.11293">
        <ele>2720</ele>
        <time>2021-12-23T12:22:57Z</time>
      </trkpt>
      <trkpt lat="45.24455" lon="6.11293">
        <ele>2720</ele>
        <time>2021-12-23T12:22:59Z</time>
      </trkpt>
      <trkpt lat="45.24455" lon="6.11294">
        <ele>2720</ele>
        <time>2021-12-23T12:23:00Z</time>
      </trkpt>
      <trkpt lat="45.24454" lon="6.11294">
        <ele>2720</ele>
        <time>2021-12-23T12:23:01Z</time>
      </trkpt>
      <trkpt lat="45.24454" lon="6.11294">
        <ele>2720</ele>
        <time>2021-12-23T12:23:02Z</time>
      </trkpt>
      <trkpt lat="45.24454" lon="6.11294">
        <ele>2720</ele>
        <time>2021-12-23T12:23:03Z</time>
      </trkpt>
      <trkpt lat="45.24454" lon="6.11293">
        <ele>2720</ele>
        <time>2021-12-23T12:23:04Z</time>
      </trkpt>
      <trkpt lat="45.24454" lon="6.11292">
        <ele>2720</ele>
        <time>2021-12-23T12:23:05Z</time>
      </trkpt>
      <trkpt lat="45.24453" lon="6.11292">
        <ele>2720</ele>
        <time>2021-12-23T12:23:06Z</time>
      </trkpt>
      <trkpt lat="45.24453" lon="6.11291">
        <ele>2720</ele>
        <time>2021-12-23T12:23:07Z</time>
      </trkpt>
      <trkpt lat="45.24453" lon="6.11291">
        <ele>2720</ele>
        <time>2021-12-23T12:23:08Z</time>
      </trkpt>
      <trkpt lat="45.24453" lon="6.1129">
        <ele>2720</ele>
        <time>2021-12-23T12:23:09Z</time>
      </trkpt>
      <trkpt lat="45.24452" lon="6.11289">
        <ele>2720</ele>
        <time>2021-12-23T12:23:10Z</time>
      </trkpt>
      <trkpt lat="45.24452" lon="6.11289">
        <ele>2720</ele>
        <time>2021-12-23T12:23:11Z</time>
      </trkpt>
      <trkpt lat="45.24452" lon="6.11288">
        <ele>2720</ele>
        <time>2021-12-23T12:23:12Z</time>
      </trkpt>
      <trkpt lat="45.24452" lon="6.11288">
        <ele>2720</ele>
        <time>2021-12-23T12:23:13Z</time>
      </trkpt>
      <trkpt lat="45.24452" lon="6.11287">
        <ele>2720</ele>
        <time>2021-12-23T12:23:14Z</time>
      </trkpt>
      <trkpt lat="45.24451" lon="6.11286">
        <ele>2720</ele>
        <time>2021-12-23T12:23:15Z</time>
      </trkpt>
      <trkpt lat="45.24451" lon="6.11286">
        <ele>2720</ele>
        <time>2021-12-23T12:23:16Z</time>
      </trkpt>
      <trkpt lat="45.24451" lon="6.11285">
        <ele>2720</ele>
        <time>2021-12-23T12:23:18Z</time>
      </trkpt>
      <trkpt lat="45.24451" lon="6.11284">
        <ele>2720</ele>
        <time>2021-12-23T12:23:19Z</time>
      </trkpt>
      <trkpt lat="45.2445" lon="6.11284">
        <ele>2720</ele>
        <time>2021-12-23T12:23:20Z</time>
      </trkpt>
      <trkpt lat="45.2445" lon="6.11283">
        <ele>2720</ele>
        <time>2021-12-23T12:23:21Z</time>
      </trkpt>
      <trkpt lat="45.2445" lon="6.11283">
        <ele>2720</ele>
        <time>2021-12-23T12:23:22Z</time>
      </trkpt>
      <trkpt lat="45.2445" lon="6.11282">
        <ele>2720</ele>
        <time>2021-12-23T12:23:23Z</time>
      </trkpt>
      <trkpt lat="45.2445" lon="6.11282">
        <ele>2721</ele>
        <time>2021-12-23T12:23:24Z</time>
      </trkpt>
      <trkpt lat="45.24449" lon="6.11282">
        <ele>2721</ele>
        <time>2021-12-23T12:23:25Z</time>
      </trkpt>
      <trkpt lat="45.24449" lon="6.11282">
        <ele>2721</ele>
        <time>2021-12-23T12:23:26Z</time>
      </trkpt>
      <trkpt lat="45.24449" lon="6.11282">
        <ele>2721</ele>
        <time>2021-12-23T12:23:27Z</time>
      </trkpt>
      <trkpt lat="45.24449" lon="6.11281">
        <ele>2721</ele>
        <time>2021-12-23T12:23:28Z</time>
      </trkpt>
      <trkpt lat="45.24448" lon="6.11281">
        <ele>2721</ele>
        <time>2021-12-23T12:23:29Z</time>
      </trkpt>
      <trkpt lat="45.24448" lon="6.11281">
        <ele>2721</ele>
        <time>2021-12-23T12:23:30Z</time>
      </trkpt>
      <trkpt lat="45.24448" lon="6.11281">
        <ele>2721</ele>
        <time>2021-12-23T12:23:31Z</time>
      </trkpt>
      <trkpt lat="45.24448" lon="6.1128">
        <ele>2721</ele>
        <time>2021-12-23T12:23:32Z</time>
      </trkpt>
      <trkpt lat="45.24447" lon="6.1128">
        <ele>2721</ele>
        <time>2021-12-23T12:23:33Z</time>
      </trkpt>
      <trkpt lat="45.24447" lon="6.1128">
        <ele>2721</ele>
        <time>2021-12-23T12:23:34Z</time>
      </trkpt>
      <trkpt lat="45.24447" lon="6.1128">
        <ele>2721</ele>
        <time>2021-12-23T12:23:35Z</time>
      </trkpt>
      <trkpt lat="45.24447" lon="6.1128">
        <ele>2721</ele>
        <time>2021-12-23T12:23:37Z</time>
      </trkpt>
      <trkpt lat="45.24447" lon="6.11279">
        <ele>2721</ele>
        <time>2021-12-23T12:23:38Z</time>
      </trkpt>
      <trkpt lat="45.24446" lon="6.11279">
        <ele>2721</ele>
        <time>2021-12-23T12:23:39Z</time>
      </trkpt>
      <trkpt lat="45.24446" lon="6.11279">
        <ele>2721</ele>
        <time>2021-12-23T12:23:40Z</time>
      </trkpt>
      <trkpt lat="45.24446" lon="6.11279">
        <ele>2721</ele>
        <time>2021-12-23T12:23:41Z</time>
      </trkpt>
      <trkpt lat="45.24446" lon="6.11278">
        <ele>2721</ele>
        <time>2021-12-23T12:23:42Z</time>
      </trkpt>
      <trkpt lat="45.24445" lon="6.11278">
        <ele>2721</ele>
        <time>2021-12-23T12:23:43Z</time>
      </trkpt>
      <trkpt lat="45.24445" lon="6.11278">
        <ele>2721</ele>
        <time>2021-12-23T12:23:44Z</time>
      </trkpt>
      <trkpt lat="45.24445" lon="6.11278">
        <ele>2721</ele>
        <time>2021-12-23T12:23:45Z</time>
      </trkpt>
      <trkpt lat="45.24445" lon="6.11278">
        <ele>2721</ele>
        <time>2021-12-23T12:23:46Z</time>
      </trkpt>
      <trkpt lat="45.24444" lon="6.11277">
        <ele>2721</ele>
        <time>2021-12-23T12:23:47Z</time>
      </trkpt>
      <trkpt lat="45.24444" lon="6.11277">
        <ele>2721</ele>
        <time>2021-12-23T12:23:48Z</time>
      </trkpt>
      <trkpt lat="45.24444" lon="6.11277">
        <ele>2721</ele>
        <time>2021-12-23T12:23:49Z</time>
      </trkpt>
      <trkpt lat="45.24444" lon="6.11277">
        <ele>2721</ele>
        <time>2021-12-23T12:23:50Z</time>
      </trkpt>
      <trkpt lat="45.24444" lon="6.11276">
        <ele>2721</ele>
        <time>2021-12-23T12:23:51Z</time>
      </trkpt>
      <trkpt lat="45.24443" lon="6.11276">
        <ele>2721</ele>
        <time>2021-12-23T12:23:52Z</time>
      </trkpt>
      <trkpt lat="45.24443" lon="6.11276">
        <ele>2721</ele>
        <time>2021-12-23T12:23:53Z</time>
      </trkpt>
      <trkpt lat="45.24443" lon="6.11276">
        <ele>2721</ele>
        <time>2021-12-23T12:23:54Z</time>
      </trkpt>
      <trkpt lat="45.24443" lon="6.11276">
        <ele>2721</ele>
        <time>2021-12-23T12:23:56Z</time>
      </trkpt>
      <trkpt lat="45.24442" lon="6.11275">
        <ele>2721</ele>
        <time>2021-12-23T12:23:57Z</time>
      </trkpt>
      <trkpt lat="45.24442" lon="6.11275">
        <ele>2721</ele>
        <time>2021-12-23T12:23:58Z</time>
      </trkpt>
      <trkpt lat="45.24442" lon="6.11275">
        <ele>2722</ele>
        <time>2021-12-23T12:23:59Z</time>
      </trkpt>
      <trkpt lat="45.24442" lon="6.11274">
        <ele>2722</ele>
        <time>2021-12-23T12:24:00Z</time>
      </trkpt>
      <trkpt lat="45.24442" lon="6.11274">
        <ele>2722</ele>
        <time>2021-12-23T12:24:01Z</time>
      </trkpt>
      <trkpt lat="45.24442" lon="6.11274">
        <ele>2722</ele>
        <time>2021-12-23T12:24:02Z</time>
      </trkpt>
      <trkpt lat="45.24442" lon="6.11273">
        <ele>2723</ele>
        <time>2021-12-23T12:24:03Z</time>
      </trkpt>
      <trkpt lat="45.24442" lon="6.11273">
        <ele>2723</ele>
        <time>2021-12-23T12:24:04Z</time>
      </trkpt>
      <trkpt lat="45.24442" lon="6.11272">
        <ele>2723</ele>
        <time>2021-12-23T12:24:05Z</time>
      </trkpt>
      <trkpt lat="45.24442" lon="6.11272">
        <ele>2723</ele>
        <time>2021-12-23T12:24:06Z</time>
      </trkpt>
      <trkpt lat="45.24442" lon="6.11271">
        <ele>2723</ele>
        <time>2021-12-23T12:24:07Z</time>
      </trkpt>
      <trkpt lat="45.24441" lon="6.11271">
        <ele>2723</ele>
        <time>2021-12-23T12:24:08Z</time>
      </trkpt>
      <trkpt lat="45.24441" lon="6.1127">
        <ele>2723</ele>
        <time>2021-12-23T12:24:09Z</time>
      </trkpt>
      <trkpt lat="45.24441" lon="6.1127">
        <ele>2723</ele>
        <time>2021-12-23T12:24:10Z</time>
      </trkpt>
      <trkpt lat="45.24441" lon="6.1127">
        <ele>2723</ele>
        <time>2021-12-23T12:24:11Z</time>
      </trkpt>
      <trkpt lat="45.24441" lon="6.11269">
        <ele>2723</ele>
        <time>2021-12-23T12:24:12Z</time>
      </trkpt>
      <trkpt lat="45.24441" lon="6.11269">
        <ele>2723</ele>
        <time>2021-12-23T12:24:13Z</time>
      </trkpt>
      <trkpt lat="45.24441" lon="6.11268">
        <ele>2723</ele>
        <time>2021-12-23T12:24:15Z</time>
      </trkpt>
      <trkpt lat="45.24441" lon="6.11268">
        <ele>2723</ele>
        <time>2021-12-23T12:24:16Z</time>
      </trkpt>
      <trkpt lat="45.24441" lon="6.11267">
        <ele>2723</ele>
        <time>2021-12-23T12:24:17Z</time>
      </trkpt>
      <trkpt lat="45.24441" lon="6.11267">
        <ele>2723</ele>
        <time>2021-12-23T12:24:18Z</time>
      </trkpt>
      <trkpt lat="45.24441" lon="6.11266">
        <ele>2723</ele>
        <time>2021-12-23T12:24:19Z</time>
      </trkpt>
      <trkpt lat="45.24441" lon="6.11266">
        <ele>2723</ele>
        <time>2021-12-23T12:24:20Z</time>
      </trkpt>
      <trkpt lat="45.24441" lon="6.11266">
        <ele>2723</ele>
        <time>2021-12-23T12:24:21Z</time>
      </trkpt>
      <trkpt lat="45.24441" lon="6.11265">
        <ele>2723</ele>
        <time>2021-12-23T12:24:22Z</time>
      </trkpt>
      <trkpt lat="45.24441" lon="6.11265">
        <ele>2723</ele>
        <time>2021-12-23T12:24:23Z</time>
      </trkpt>
      <trkpt lat="45.24441" lon="6.11264">
        <ele>2723</ele>
        <time>2021-12-23T12:24:24Z</time>
      </trkpt>
      <trkpt lat="45.24441" lon="6.11264">
        <ele>2725</ele>
        <time>2021-12-23T12:24:25Z</time>
      </trkpt>
      <trkpt lat="45.24441" lon="6.11263">
        <ele>2725</ele>
        <time>2021-12-23T12:24:26Z</time>
      </trkpt>
      <trkpt lat="45.24441" lon="6.11263">
        <ele>2725</ele>
        <time>2021-12-23T12:24:27Z</time>
      </trkpt>
      <trkpt lat="45.24441" lon="6.11263">
        <ele>2725</ele>
        <time>2021-12-23T12:24:28Z</time>
      </trkpt>
      <trkpt lat="45.2444" lon="6.11262">
        <ele>2725</ele>
        <time>2021-12-23T12:24:29Z</time>
      </trkpt>
      <trkpt lat="45.2444" lon="6.11262">
        <ele>2725</ele>
        <time>2021-12-23T12:24:30Z</time>
      </trkpt>
      <trkpt lat="45.24441" lon="6.11261">
        <ele>2725</ele>
        <time>2021-12-23T12:24:31Z</time>
      </trkpt>
      <trkpt lat="45.24441" lon="6.11261">
        <ele>2726</ele>
        <time>2021-12-23T12:24:32Z</time>
      </trkpt>
      <trkpt lat="45.24441" lon="6.1126">
        <ele>2726</ele>
        <time>2021-12-23T12:24:34Z</time>
      </trkpt>
      <trkpt lat="45.24441" lon="6.1126">
        <ele>2726</ele>
        <time>2021-12-23T12:24:35Z</time>
      </trkpt>
      <trkpt lat="45.24442" lon="6.11259">
        <ele>2726</ele>
        <time>2021-12-23T12:24:36Z</time>
      </trkpt>
      <trkpt lat="45.24442" lon="6.11259">
        <ele>2726</ele>
        <time>2021-12-23T12:24:37Z</time>
      </trkpt>
      <trkpt lat="45.24442" lon="6.11259">
        <ele>2726</ele>
        <time>2021-12-23T12:24:38Z</time>
      </trkpt>
      <trkpt lat="45.24443" lon="6.11258">
        <ele>2726</ele>
        <time>2021-12-23T12:24:39Z</time>
      </trkpt>
      <trkpt lat="45.24443" lon="6.11258">
        <ele>2726</ele>
        <time>2021-12-23T12:24:40Z</time>
      </trkpt>
      <trkpt lat="45.24443" lon="6.11257">
        <ele>2727</ele>
        <time>2021-12-23T12:24:41Z</time>
      </trkpt>
      <trkpt lat="45.24443" lon="6.11257">
        <ele>2727</ele>
        <time>2021-12-23T12:24:42Z</time>
      </trkpt>
      <trkpt lat="45.24444" lon="6.11256">
        <ele>2728</ele>
        <time>2021-12-23T12:24:43Z</time>
      </trkpt>
      <trkpt lat="45.24444" lon="6.11256">
        <ele>2728</ele>
        <time>2021-12-23T12:24:44Z</time>
      </trkpt>
      <trkpt lat="45.24444" lon="6.11255">
        <ele>2728</ele>
        <time>2021-12-23T12:24:45Z</time>
      </trkpt>
      <trkpt lat="45.24444" lon="6.11255">
        <ele>2728</ele>
        <time>2021-12-23T12:24:46Z</time>
      </trkpt>
      <trkpt lat="45.24445" lon="6.11255">
        <ele>2728</ele>
        <time>2021-12-23T12:24:47Z</time>
      </trkpt>
      <trkpt lat="45.24445" lon="6.11254">
        <ele>2728</ele>
        <time>2021-12-23T12:24:48Z</time>
      </trkpt>
      <trkpt lat="45.24445" lon="6.11254">
        <ele>2729</ele>
        <time>2021-12-23T12:24:49Z</time>
      </trkpt>
      <trkpt lat="45.24445" lon="6.11253">
        <ele>2729</ele>
        <time>2021-12-23T12:24:50Z</time>
      </trkpt>
      <trkpt lat="45.24446" lon="6.11253">
        <ele>2729</ele>
        <time>2021-12-23T12:24:51Z</time>
      </trkpt>
      <trkpt lat="45.24446" lon="6.11252">
        <ele>2729</ele>
        <time>2021-12-23T12:24:52Z</time>
      </trkpt>
      <trkpt lat="45.24446" lon="6.11252">
        <ele>2730</ele>
        <time>2021-12-23T12:24:53Z</time>
      </trkpt>
      <trkpt lat="45.24446" lon="6.11252">
        <ele>2730</ele>
        <time>2021-12-23T12:24:54Z</time>
      </trkpt>
      <trkpt lat="45.24446" lon="6.11251">
        <ele>2730</ele>
        <time>2021-12-23T12:24:55Z</time>
      </trkpt>
      <trkpt lat="45.24446" lon="6.11251">
        <ele>2730</ele>
        <time>2021-12-23T12:24:56Z</time>
      </trkpt>
      <trkpt lat="45.24446" lon="6.1125">
        <ele>2730</ele>
        <time>2021-12-23T12:24:57Z</time>
      </trkpt>
      <trkpt lat="45.24446" lon="6.1125">
        <ele>2730</ele>
        <time>2021-12-23T12:24:58Z</time>
      </trkpt>
      <trkpt lat="45.24446" lon="6.1125">
        <ele>2730</ele>
        <time>2021-12-23T12:24:59Z</time>
      </trkpt>
      <trkpt lat="45.24446" lon="6.11249">
        <ele>2730</ele>
        <time>2021-12-23T12:25:00Z</time>
      </trkpt>
      <trkpt lat="45.24446" lon="6.11249">
        <ele>2730</ele>
        <time>2021-12-23T12:25:01Z</time>
      </trkpt>
      <trkpt lat="45.24446" lon="6.11248">
        <ele>2730</ele>
        <time>2021-12-23T12:25:02Z</time>
      </trkpt>
      <trkpt lat="45.24446" lon="6.11248">
        <ele>2730</ele>
        <time>2021-12-23T12:25:03Z</time>
      </trkpt>
      <trkpt lat="45.24446" lon="6.11248">
        <ele>2730</ele>
        <time>2021-12-23T12:25:04Z</time>
      </trkpt>
      <trkpt lat="45.24446" lon="6.11247">
        <ele>2731</ele>
        <time>2021-12-23T12:25:05Z</time>
      </trkpt>
      <trkpt lat="45.24446" lon="6.11247">
        <ele>2731</ele>
        <time>2021-12-23T12:25:06Z</time>
      </trkpt>
      <trkpt lat="45.24445" lon="6.11247">
        <ele>2731</ele>
        <time>2021-12-23T12:25:07Z</time>
      </trkpt>
      <trkpt lat="45.24445" lon="6.11246">
        <ele>2731</ele>
        <time>2021-12-23T12:25:08Z</time>
      </trkpt>
      <trkpt lat="45.24445" lon="6.11246">
        <ele>2731</ele>
        <time>2021-12-23T12:25:09Z</time>
      </trkpt>
      <trkpt lat="45.24445" lon="6.11245">
        <ele>2731</ele>
        <time>2021-12-23T12:25:10Z</time>
      </trkpt>
      <trkpt lat="45.24445" lon="6.11245">
        <ele>2732</ele>
        <time>2021-12-23T12:25:12Z</time>
      </trkpt>
      <trkpt lat="45.24445" lon="6.11245">
        <ele>2732</ele>
        <time>2021-12-23T12:25:13Z</time>
      </trkpt>
      <trkpt lat="45.24445" lon="6.11244">
        <ele>2732</ele>
        <time>2021-12-23T12:25:14Z</time>
      </trkpt>
      <trkpt lat="45.24445" lon="6.11244">
        <ele>2732</ele>
        <time>2021-12-23T12:25:15Z</time>
      </trkpt>
      <trkpt lat="45.24445" lon="6.11243">
        <ele>2732</ele>
        <time>2021-12-23T12:25:16Z</time>
      </trkpt>
      <trkpt lat="45.24445" lon="6.11243">
        <ele>2732</ele>
        <time>2021-12-23T12:25:17Z</time>
      </trkpt>
      <trkpt lat="45.24445" lon="6.11243">
        <ele>2732</ele>
        <time>2021-12-23T12:25:18Z</time>
      </trkpt>
      <trkpt lat="45.24445" lon="6.11242">
        <ele>2733</ele>
        <time>2021-12-23T12:25:19Z</time>
      </trkpt>
      <trkpt lat="45.24445" lon="6.11242">
        <ele>2733</ele>
        <time>2021-12-23T12:25:20Z</time>
      </trkpt>
      <trkpt lat="45.24445" lon="6.11242">
        <ele>2734</ele>
        <time>2021-12-23T12:25:21Z</time>
      </trkpt>
      <trkpt lat="45.24445" lon="6.11241">
        <ele>2734</ele>
        <time>2021-12-23T12:25:22Z</time>
      </trkpt>
      <trkpt lat="45.24445" lon="6.11241">
        <ele>2734</ele>
        <time>2021-12-23T12:25:23Z</time>
      </trkpt>
      <trkpt lat="45.24445" lon="6.1124">
        <ele>2734</ele>
        <time>2021-12-23T12:25:24Z</time>
      </trkpt>
      <trkpt lat="45.24446" lon="6.1124">
        <ele>2734</ele>
        <time>2021-12-23T12:25:25Z</time>
      </trkpt>
      <trkpt lat="45.24446" lon="6.1124">
        <ele>2734</ele>
        <time>2021-12-23T12:25:26Z</time>
      </trkpt>
      <trkpt lat="45.24446" lon="6.11239">
        <ele>2734</ele>
        <time>2021-12-23T12:25:27Z</time>
      </trkpt>
      <trkpt lat="45.24446" lon="6.11239">
        <ele>2734</ele>
        <time>2021-12-23T12:25:28Z</time>
      </trkpt>
      <trkpt lat="45.24447" lon="6.11238">
        <ele>2734</ele>
        <time>2021-12-23T12:25:29Z</time>
      </trkpt>
      <trkpt lat="45.24447" lon="6.11238">
        <ele>2735</ele>
        <time>2021-12-23T12:25:31Z</time>
      </trkpt>
      <trkpt lat="45.24447" lon="6.11238">
        <ele>2735</ele>
        <time>2021-12-23T12:25:32Z</time>
      </trkpt>
      <trkpt lat="45.24448" lon="6.11237">
        <ele>2735</ele>
        <time>2021-12-23T12:25:33Z</time>
      </trkpt>
      <trkpt lat="45.24448" lon="6.11237">
        <ele>2735</ele>
        <time>2021-12-23T12:25:34Z</time>
      </trkpt>
      <trkpt lat="45.24448" lon="6.11236">
        <ele>2735</ele>
        <time>2021-12-23T12:25:35Z</time>
      </trkpt>
      <trkpt lat="45.24448" lon="6.11236">
        <ele>2735</ele>
        <time>2021-12-23T12:25:36Z</time>
      </trkpt>
      <trkpt lat="45.24449" lon="6.11236">
        <ele>2735</ele>
        <time>2021-12-23T12:25:37Z</time>
      </trkpt>
      <trkpt lat="45.24449" lon="6.11235">
        <ele>2737</ele>
        <time>2021-12-23T12:25:38Z</time>
      </trkpt>
      <trkpt lat="45.24449" lon="6.11235">
        <ele>2737</ele>
        <time>2021-12-23T12:25:39Z</time>
      </trkpt>
      <trkpt lat="45.24449" lon="6.11235">
        <ele>2737</ele>
        <time>2021-12-23T12:25:40Z</time>
      </trkpt>
      <trkpt lat="45.2445" lon="6.11234">
        <ele>2737</ele>
        <time>2021-12-23T12:25:41Z</time>
      </trkpt>
      <trkpt lat="45.2445" lon="6.11234">
        <ele>2737</ele>
        <time>2021-12-23T12:25:42Z</time>
      </trkpt>
      <trkpt lat="45.2445" lon="6.11233">
        <ele>2737</ele>
        <time>2021-12-23T12:25:43Z</time>
      </trkpt>
      <trkpt lat="45.2445" lon="6.11233">
        <ele>2737</ele>
        <time>2021-12-23T12:25:44Z</time>
      </trkpt>
      <trkpt lat="45.24451" lon="6.11233">
        <ele>2738</ele>
        <time>2021-12-23T12:25:45Z</time>
      </trkpt>
      <trkpt lat="45.24451" lon="6.11232">
        <ele>2738</ele>
        <time>2021-12-23T12:25:46Z</time>
      </trkpt>
      <trkpt lat="45.24451" lon="6.11232">
        <ele>2738</ele>
        <time>2021-12-23T12:25:47Z</time>
      </trkpt>
      <trkpt lat="45.24451" lon="6.11231">
        <ele>2738</ele>
        <time>2021-12-23T12:25:48Z</time>
      </trkpt>
      <trkpt lat="45.24452" lon="6.11231">
        <ele>2738</ele>
        <time>2021-12-23T12:25:50Z</time>
      </trkpt>
      <trkpt lat="45.24453" lon="6.11231">
        <ele>2738</ele>
        <time>2021-12-23T12:25:51Z</time>
      </trkpt>
      <trkpt lat="45.24453" lon="6.11231">
        <ele>2738</ele>
        <time>2021-12-23T12:25:52Z</time>
      </trkpt>
      <trkpt lat="45.24454" lon="6.11231">
        <ele>2738</ele>
        <time>2021-12-23T12:25:53Z</time>
      </trkpt>
      <trkpt lat="45.24455" lon="6.11231">
        <ele>2738</ele>
        <time>2021-12-23T12:25:54Z</time>
      </trkpt>
      <trkpt lat="45.24455" lon="6.11231">
        <ele>2738</ele>
        <time>2021-12-23T12:25:55Z</time>
      </trkpt>
      <trkpt lat="45.24456" lon="6.11231">
        <ele>2738</ele>
        <time>2021-12-23T12:25:56Z</time>
      </trkpt>
      <trkpt lat="45.24457" lon="6.11231">
        <ele>2739</ele>
        <time>2021-12-23T12:25:57Z</time>
      </trkpt>
      <trkpt lat="45.24457" lon="6.11231">
        <ele>2739</ele>
        <time>2021-12-23T12:25:58Z</time>
      </trkpt>
      <trkpt lat="45.24458" lon="6.11231">
        <ele>2739</ele>
        <time>2021-12-23T12:25:59Z</time>
      </trkpt>
      <trkpt lat="45.24459" lon="6.11231">
        <ele>2739</ele>
        <time>2021-12-23T12:26:00Z</time>
      </trkpt>
      <trkpt lat="45.24459" lon="6.11231">
        <ele>2739</ele>
        <time>2021-12-23T12:26:01Z</time>
      </trkpt>
      <trkpt lat="45.2446" lon="6.11231">
        <ele>2739</ele>
        <time>2021-12-23T12:26:02Z</time>
      </trkpt>
      <trkpt lat="45.24461" lon="6.1123">
        <ele>2739</ele>
        <time>2021-12-23T12:26:03Z</time>
      </trkpt>
      <trkpt lat="45.24461" lon="6.1123">
        <ele>2740</ele>
        <time>2021-12-23T12:26:04Z</time>
      </trkpt>
      <trkpt lat="45.2446" lon="6.11229">
        <ele>2740</ele>
        <time>2021-12-23T12:26:05Z</time>
      </trkpt>
      <trkpt lat="45.2446" lon="6.11228">
        <ele>2741</ele>
        <time>2021-12-23T12:26:06Z</time>
      </trkpt>
      <trkpt lat="45.2446" lon="6.11227">
        <ele>2741</ele>
        <time>2021-12-23T12:26:07Z</time>
      </trkpt>
      <trkpt lat="45.2446" lon="6.11226">
        <ele>2741</ele>
        <time>2021-12-23T12:26:09Z</time>
      </trkpt>
      <trkpt lat="45.24459" lon="6.11226">
        <ele>2741</ele>
        <time>2021-12-23T12:26:10Z</time>
      </trkpt>
      <trkpt lat="45.24459" lon="6.11225">
        <ele>2741</ele>
        <time>2021-12-23T12:26:11Z</time>
      </trkpt>
      <trkpt lat="45.24459" lon="6.11224">
        <ele>2741</ele>
        <time>2021-12-23T12:26:12Z</time>
      </trkpt>
      <trkpt lat="45.24459" lon="6.11223">
        <ele>2741</ele>
        <time>2021-12-23T12:26:13Z</time>
      </trkpt>
      <trkpt lat="45.24459" lon="6.11222">
        <ele>2741</ele>
        <time>2021-12-23T12:26:14Z</time>
      </trkpt>
      <trkpt lat="45.24458" lon="6.11221">
        <ele>2741</ele>
        <time>2021-12-23T12:26:15Z</time>
      </trkpt>
      <trkpt lat="45.24458" lon="6.11221">
        <ele>2741</ele>
        <time>2021-12-23T12:26:16Z</time>
      </trkpt>
      <trkpt lat="45.24458" lon="6.1122">
        <ele>2742</ele>
        <time>2021-12-23T12:26:17Z</time>
      </trkpt>
      <trkpt lat="45.24458" lon="6.11219">
        <ele>2742</ele>
        <time>2021-12-23T12:26:18Z</time>
      </trkpt>
      <trkpt lat="45.24457" lon="6.11218">
        <ele>2742</ele>
        <time>2021-12-23T12:26:19Z</time>
      </trkpt>
      <trkpt lat="45.24456" lon="6.11218">
        <ele>2742</ele>
        <time>2021-12-23T12:26:20Z</time>
      </trkpt>
      <trkpt lat="45.24455" lon="6.11217">
        <ele>2742</ele>
        <time>2021-12-23T12:26:21Z</time>
      </trkpt>
      <trkpt lat="45.24454" lon="6.11216">
        <ele>2742</ele>
        <time>2021-12-23T12:26:22Z</time>
      </trkpt>
      <trkpt lat="45.24454" lon="6.11216">
        <ele>2742</ele>
        <time>2021-12-23T12:26:23Z</time>
      </trkpt>
      <trkpt lat="45.24453" lon="6.11215">
        <ele>2742</ele>
        <time>2021-12-23T12:26:24Z</time>
      </trkpt>
      <trkpt lat="45.24452" lon="6.11214">
        <ele>2742</ele>
        <time>2021-12-23T12:26:25Z</time>
      </trkpt>
      <trkpt lat="45.24451" lon="6.11214">
        <ele>2742</ele>
        <time>2021-12-23T12:26:26Z</time>
      </trkpt>
      <trkpt lat="45.2445" lon="6.11213">
        <ele>2743</ele>
        <time>2021-12-23T12:26:28Z</time>
      </trkpt>
      <trkpt lat="45.2445" lon="6.11212">
        <ele>2743</ele>
        <time>2021-12-23T12:26:29Z</time>
      </trkpt>
      <trkpt lat="45.24449" lon="6.11212">
        <ele>2743</ele>
        <time>2021-12-23T12:26:30Z</time>
      </trkpt>
      <trkpt lat="45.24449" lon="6.11211">
        <ele>2744</ele>
        <time>2021-12-23T12:26:31Z</time>
      </trkpt>
      <trkpt lat="45.24449" lon="6.11211">
        <ele>2744</ele>
        <time>2021-12-23T12:26:32Z</time>
      </trkpt>
      <trkpt lat="45.24449" lon="6.1121">
        <ele>2744</ele>
        <time>2021-12-23T12:26:33Z</time>
      </trkpt>
      <trkpt lat="45.24448" lon="6.1121">
        <ele>2744</ele>
        <time>2021-12-23T12:26:34Z</time>
      </trkpt>
      <trkpt lat="45.24448" lon="6.11209">
        <ele>2745</ele>
        <time>2021-12-23T12:26:35Z</time>
      </trkpt>
      <trkpt lat="45.24448" lon="6.11208">
        <ele>2745</ele>
        <time>2021-12-23T12:26:36Z</time>
      </trkpt>
      <trkpt lat="45.24448" lon="6.11208">
        <ele>2745</ele>
        <time>2021-12-23T12:26:37Z</time>
      </trkpt>
      <trkpt lat="45.24448" lon="6.11207">
        <ele>2745</ele>
        <time>2021-12-23T12:26:38Z</time>
      </trkpt>
      <trkpt lat="45.24447" lon="6.11207">
        <ele>2746</ele>
        <time>2021-12-23T12:26:39Z</time>
      </trkpt>
      <trkpt lat="45.24447" lon="6.11206">
        <ele>2746</ele>
        <time>2021-12-23T12:26:40Z</time>
      </trkpt>
      <trkpt lat="45.24447" lon="6.11206">
        <ele>2746</ele>
        <time>2021-12-23T12:26:41Z</time>
      </trkpt>
      <trkpt lat="45.24447" lon="6.11205">
        <ele>2746</ele>
        <time>2021-12-23T12:26:42Z</time>
      </trkpt>
      <trkpt lat="45.24447" lon="6.11204">
        <ele>2747</ele>
        <time>2021-12-23T12:26:43Z</time>
      </trkpt>
      <trkpt lat="45.24446" lon="6.11204">
        <ele>2747</ele>
        <time>2021-12-23T12:26:44Z</time>
      </trkpt>
      <trkpt lat="45.24446" lon="6.11203">
        <ele>2747</ele>
        <time>2021-12-23T12:26:45Z</time>
      </trkpt>
      <trkpt lat="45.24446" lon="6.11203">
        <ele>2747</ele>
        <time>2021-12-23T12:26:47Z</time>
      </trkpt>
      <trkpt lat="45.24446" lon="6.11202">
        <ele>2747</ele>
        <time>2021-12-23T12:26:48Z</time>
      </trkpt>
      <trkpt lat="45.24446" lon="6.11202">
        <ele>2747</ele>
        <time>2021-12-23T12:26:49Z</time>
      </trkpt>
      <trkpt lat="45.24445" lon="6.11201">
        <ele>2747</ele>
        <time>2021-12-23T12:26:50Z</time>
      </trkpt>
      <trkpt lat="45.24445" lon="6.11201">
        <ele>2747</ele>
        <time>2021-12-23T12:26:51Z</time>
      </trkpt>
      <trkpt lat="45.24444" lon="6.112">
        <ele>2747</ele>
        <time>2021-12-23T12:26:52Z</time>
      </trkpt>
      <trkpt lat="45.24444" lon="6.112">
        <ele>2749</ele>
        <time>2021-12-23T12:26:53Z</time>
      </trkpt>
      <trkpt lat="45.24444" lon="6.112">
        <ele>2750</ele>
        <time>2021-12-23T12:26:54Z</time>
      </trkpt>
      <trkpt lat="45.24443" lon="6.11199">
        <ele>2750</ele>
        <time>2021-12-23T12:26:55Z</time>
      </trkpt>
      <trkpt lat="45.24443" lon="6.11199">
        <ele>2750</ele>
        <time>2021-12-23T12:26:56Z</time>
      </trkpt>
      <trkpt lat="45.24442" lon="6.11199">
        <ele>2749</ele>
        <time>2021-12-23T12:26:57Z</time>
      </trkpt>
      <trkpt lat="45.24442" lon="6.11198">
        <ele>2749</ele>
        <time>2021-12-23T12:26:58Z</time>
      </trkpt>
      <trkpt lat="45.24442" lon="6.11198">
        <ele>2750</ele>
        <time>2021-12-23T12:26:59Z</time>
      </trkpt>
      <trkpt lat="45.24441" lon="6.11197">
        <ele>2750</ele>
        <time>2021-12-23T12:27:00Z</time>
      </trkpt>
      <trkpt lat="45.24441" lon="6.11197">
        <ele>2750</ele>
        <time>2021-12-23T12:27:01Z</time>
      </trkpt>
      <trkpt lat="45.24441" lon="6.11197">
        <ele>2750</ele>
        <time>2021-12-23T12:27:02Z</time>
      </trkpt>
      <trkpt lat="45.2444" lon="6.11196">
        <ele>2750</ele>
        <time>2021-12-23T12:27:03Z</time>
      </trkpt>
      <trkpt lat="45.2444" lon="6.11196">
        <ele>2750</ele>
        <time>2021-12-23T12:27:04Z</time>
      </trkpt>
      <trkpt lat="45.24439" lon="6.11195">
        <ele>2751</ele>
        <time>2021-12-23T12:27:06Z</time>
      </trkpt>
      <trkpt lat="45.24439" lon="6.11195">
        <ele>2751</ele>
        <time>2021-12-23T12:27:07Z</time>
      </trkpt>
      <trkpt lat="45.24439" lon="6.11195">
        <ele>2751</ele>
        <time>2021-12-23T12:27:08Z</time>
      </trkpt>
      <trkpt lat="45.24438" lon="6.11194">
        <ele>2751</ele>
        <time>2021-12-23T12:27:09Z</time>
      </trkpt>
      <trkpt lat="45.24438" lon="6.11194">
        <ele>2751</ele>
        <time>2021-12-23T12:27:10Z</time>
      </trkpt>
      <trkpt lat="45.24438" lon="6.11194">
        <ele>2751</ele>
        <time>2021-12-23T12:27:11Z</time>
      </trkpt>
      <trkpt lat="45.24438" lon="6.11193">
        <ele>2751</ele>
        <time>2021-12-23T12:27:12Z</time>
      </trkpt>
      <trkpt lat="45.24437" lon="6.11193">
        <ele>2751</ele>
        <time>2021-12-23T12:27:13Z</time>
      </trkpt>
      <trkpt lat="45.24437" lon="6.11193">
        <ele>2751</ele>
        <time>2021-12-23T12:27:14Z</time>
      </trkpt>
      <trkpt lat="45.24437" lon="6.11192">
        <ele>2751</ele>
        <time>2021-12-23T12:27:15Z</time>
      </trkpt>
      <trkpt lat="45.24437" lon="6.11192">
        <ele>2751</ele>
        <time>2021-12-23T12:27:16Z</time>
      </trkpt>
      <trkpt lat="45.24437" lon="6.11191">
        <ele>2751</ele>
        <time>2021-12-23T12:27:17Z</time>
      </trkpt>
      <trkpt lat="45.24436" lon="6.11191">
        <ele>2751</ele>
        <time>2021-12-23T12:27:18Z</time>
      </trkpt>
      <trkpt lat="45.24436" lon="6.11191">
        <ele>2751</ele>
        <time>2021-12-23T12:27:19Z</time>
      </trkpt>
      <trkpt lat="45.24436" lon="6.1119">
        <ele>2751</ele>
        <time>2021-12-23T12:27:20Z</time>
      </trkpt>
      <trkpt lat="45.24436" lon="6.1119">
        <ele>2751</ele>
        <time>2021-12-23T12:27:21Z</time>
      </trkpt>
      <trkpt lat="45.24436" lon="6.1119">
        <ele>2751</ele>
        <time>2021-12-23T12:27:22Z</time>
      </trkpt>
      <trkpt lat="45.24435" lon="6.11189">
        <ele>2751</ele>
        <time>2021-12-23T12:27:23Z</time>
      </trkpt>
      <trkpt lat="45.24435" lon="6.11189">
        <ele>2751</ele>
        <time>2021-12-23T12:27:25Z</time>
      </trkpt>
      <trkpt lat="45.24435" lon="6.11189">
        <ele>2751</ele>
        <time>2021-12-23T12:27:26Z</time>
      </trkpt>
      <trkpt lat="45.24435" lon="6.11188">
        <ele>2752</ele>
        <time>2021-12-23T12:27:27Z</time>
      </trkpt>
      <trkpt lat="45.24435" lon="6.11188">
        <ele>2752</ele>
        <time>2021-12-23T12:27:28Z</time>
      </trkpt>
      <trkpt lat="45.24434" lon="6.11188">
        <ele>2752</ele>
        <time>2021-12-23T12:27:29Z</time>
      </trkpt>
      <trkpt lat="45.24434" lon="6.11187">
        <ele>2753</ele>
        <time>2021-12-23T12:27:30Z</time>
      </trkpt>
      <trkpt lat="45.24434" lon="6.11187">
        <ele>2753</ele>
        <time>2021-12-23T12:27:31Z</time>
      </trkpt>
      <trkpt lat="45.24434" lon="6.11187">
        <ele>2753</ele>
        <time>2021-12-23T12:27:32Z</time>
      </trkpt>
      <trkpt lat="45.24434" lon="6.11186">
        <ele>2753</ele>
        <time>2021-12-23T12:27:33Z</time>
      </trkpt>
      <trkpt lat="45.24433" lon="6.11186">
        <ele>2753</ele>
        <time>2021-12-23T12:27:34Z</time>
      </trkpt>
      <trkpt lat="45.24433" lon="6.11185">
        <ele>2753</ele>
        <time>2021-12-23T12:27:35Z</time>
      </trkpt>
      <trkpt lat="45.24433" lon="6.11185">
        <ele>2753</ele>
        <time>2021-12-23T12:27:36Z</time>
      </trkpt>
      <trkpt lat="45.24433" lon="6.11185">
        <ele>2753</ele>
        <time>2021-12-23T12:27:37Z</time>
      </trkpt>
      <trkpt lat="45.24433" lon="6.11184">
        <ele>2753</ele>
        <time>2021-12-23T12:27:38Z</time>
      </trkpt>
      <trkpt lat="45.24432" lon="6.11184">
        <ele>2753</ele>
        <time>2021-12-23T12:27:39Z</time>
      </trkpt>
      <trkpt lat="45.24432" lon="6.11184">
        <ele>2753</ele>
        <time>2021-12-23T12:27:40Z</time>
      </trkpt>
      <trkpt lat="45.24432" lon="6.11183">
        <ele>2754</ele>
        <time>2021-12-23T12:27:41Z</time>
      </trkpt>
      <trkpt lat="45.24432" lon="6.11182">
        <ele>2754</ele>
        <time>2021-12-23T12:27:42Z</time>
      </trkpt>
      <trkpt lat="45.24431" lon="6.11181">
        <ele>2755</ele>
        <time>2021-12-23T12:27:44Z</time>
      </trkpt>
      <trkpt lat="45.24431" lon="6.1118">
        <ele>2755</ele>
        <time>2021-12-23T12:27:45Z</time>
      </trkpt>
      <trkpt lat="45.24431" lon="6.1118">
        <ele>2755</ele>
        <time>2021-12-23T12:27:46Z</time>
      </trkpt>
      <trkpt lat="45.24431" lon="6.11179">
        <ele>2755</ele>
        <time>2021-12-23T12:27:47Z</time>
      </trkpt>
      <trkpt lat="45.2443" lon="6.11178">
        <ele>2755</ele>
        <time>2021-12-23T12:27:48Z</time>
      </trkpt>
      <trkpt lat="45.2443" lon="6.11177">
        <ele>2756</ele>
        <time>2021-12-23T12:27:49Z</time>
      </trkpt>
      <trkpt lat="45.2443" lon="6.11176">
        <ele>2756</ele>
        <time>2021-12-23T12:27:50Z</time>
      </trkpt>
      <trkpt lat="45.2443" lon="6.11176">
        <ele>2756</ele>
        <time>2021-12-23T12:27:51Z</time>
      </trkpt>
      <trkpt lat="45.24429" lon="6.11175">
        <ele>2756</ele>
        <time>2021-12-23T12:27:52Z</time>
      </trkpt>
      <trkpt lat="45.24429" lon="6.11174">
        <ele>2756</ele>
        <time>2021-12-23T12:27:53Z</time>
      </trkpt>
      <trkpt lat="45.24429" lon="6.11173">
        <ele>2756</ele>
        <time>2021-12-23T12:27:54Z</time>
      </trkpt>
      <trkpt lat="45.24428" lon="6.11172">
        <ele>2757</ele>
        <time>2021-12-23T12:27:55Z</time>
      </trkpt>
      <trkpt lat="45.24428" lon="6.11172">
        <ele>2757</ele>
        <time>2021-12-23T12:27:56Z</time>
      </trkpt>
      <trkpt lat="45.24428" lon="6.11171">
        <ele>2757</ele>
        <time>2021-12-23T12:27:57Z</time>
      </trkpt>
      <trkpt lat="45.24428" lon="6.1117">
        <ele>2757</ele>
        <time>2021-12-23T12:27:58Z</time>
      </trkpt>
      <trkpt lat="45.24428" lon="6.11169">
        <ele>2757</ele>
        <time>2021-12-23T12:27:59Z</time>
      </trkpt>
      <trkpt lat="45.24428" lon="6.11168">
        <ele>2757</ele>
        <time>2021-12-23T12:28:00Z</time>
      </trkpt>
      <trkpt lat="45.24428" lon="6.11167">
        <ele>2757</ele>
        <time>2021-12-23T12:28:01Z</time>
      </trkpt>
      <trkpt lat="45.24428" lon="6.11166">
        <ele>2758</ele>
        <time>2021-12-23T12:28:03Z</time>
      </trkpt>
      <trkpt lat="45.24428" lon="6.11165">
        <ele>2758</ele>
        <time>2021-12-23T12:28:04Z</time>
      </trkpt>
      <trkpt lat="45.24428" lon="6.11164">
        <ele>2758</ele>
        <time>2021-12-23T12:28:05Z</time>
      </trkpt>
      <trkpt lat="45.24428" lon="6.11164">
        <ele>2758</ele>
        <time>2021-12-23T12:28:06Z</time>
      </trkpt>
      <trkpt lat="45.24428" lon="6.11163">
        <ele>2759</ele>
        <time>2021-12-23T12:28:07Z</time>
      </trkpt>
      <trkpt lat="45.24428" lon="6.11162">
        <ele>2759</ele>
        <time>2021-12-23T12:28:08Z</time>
      </trkpt>
      <trkpt lat="45.24428" lon="6.11161">
        <ele>2759</ele>
        <time>2021-12-23T12:28:09Z</time>
      </trkpt>
      <trkpt lat="45.24428" lon="6.1116">
        <ele>2759</ele>
        <time>2021-12-23T12:28:10Z</time>
      </trkpt>
      <trkpt lat="45.24428" lon="6.11159">
        <ele>2759</ele>
        <time>2021-12-23T12:28:11Z</time>
      </trkpt>
      <trkpt lat="45.24428" lon="6.11158">
        <ele>2759</ele>
        <time>2021-12-23T12:28:12Z</time>
      </trkpt>
      <trkpt lat="45.24428" lon="6.11158">
        <ele>2759</ele>
        <time>2021-12-23T12:28:13Z</time>
      </trkpt>
      <trkpt lat="45.24428" lon="6.11157">
        <ele>2759</ele>
        <time>2021-12-23T12:28:14Z</time>
      </trkpt>
      <trkpt lat="45.24428" lon="6.11156">
        <ele>2759</ele>
        <time>2021-12-23T12:28:15Z</time>
      </trkpt>
      <trkpt lat="45.24428" lon="6.11156">
        <ele>2759</ele>
        <time>2021-12-23T12:28:16Z</time>
      </trkpt>
      <trkpt lat="45.24428" lon="6.11155">
        <ele>2759</ele>
        <time>2021-12-23T12:28:17Z</time>
      </trkpt>
      <trkpt lat="45.24428" lon="6.11154">
        <ele>2760</ele>
        <time>2021-12-23T12:28:18Z</time>
      </trkpt>
      <trkpt lat="45.24428" lon="6.11153">
        <ele>2760</ele>
        <time>2021-12-23T12:28:19Z</time>
      </trkpt>
      <trkpt lat="45.24428" lon="6.11153">
        <ele>2761</ele>
        <time>2021-12-23T12:28:20Z</time>
      </trkpt>
      <trkpt lat="45.24428" lon="6.11152">
        <ele>2761</ele>
        <time>2021-12-23T12:28:22Z</time>
      </trkpt>
      <trkpt lat="45.24428" lon="6.11151">
        <ele>2761</ele>
        <time>2021-12-23T12:28:23Z</time>
      </trkpt>
      <trkpt lat="45.24428" lon="6.1115">
        <ele>2762</ele>
        <time>2021-12-23T12:28:24Z</time>
      </trkpt>
      <trkpt lat="45.24428" lon="6.1115">
        <ele>2762</ele>
        <time>2021-12-23T12:28:25Z</time>
      </trkpt>
      <trkpt lat="45.24428" lon="6.11149">
        <ele>2762</ele>
        <time>2021-12-23T12:28:26Z</time>
      </trkpt>
      <trkpt lat="45.24428" lon="6.11148">
        <ele>2762</ele>
        <time>2021-12-23T12:28:27Z</time>
      </trkpt>
      <trkpt lat="45.24428" lon="6.11147">
        <ele>2762</ele>
        <time>2021-12-23T12:28:28Z</time>
      </trkpt>
      <trkpt lat="45.24428" lon="6.11147">
        <ele>2762</ele>
        <time>2021-12-23T12:28:29Z</time>
      </trkpt>
      <trkpt lat="45.24428" lon="6.11146">
        <ele>2762</ele>
        <time>2021-12-23T12:28:30Z</time>
      </trkpt>
      <trkpt lat="45.24428" lon="6.11146">
        <ele>2762</ele>
        <time>2021-12-23T12:28:31Z</time>
      </trkpt>
      <trkpt lat="45.24427" lon="6.11145">
        <ele>2762</ele>
        <time>2021-12-23T12:28:32Z</time>
      </trkpt>
      <trkpt lat="45.24427" lon="6.11145">
        <ele>2762</ele>
        <time>2021-12-23T12:28:33Z</time>
      </trkpt>
      <trkpt lat="45.24427" lon="6.11145">
        <ele>2762</ele>
        <time>2021-12-23T12:28:34Z</time>
      </trkpt>
      <trkpt lat="45.24427" lon="6.11144">
        <ele>2762</ele>
        <time>2021-12-23T12:28:35Z</time>
      </trkpt>
      <trkpt lat="45.24427" lon="6.11144">
        <ele>2762</ele>
        <time>2021-12-23T12:28:36Z</time>
      </trkpt>
      <trkpt lat="45.24426" lon="6.11143">
        <ele>2762</ele>
        <time>2021-12-23T12:28:37Z</time>
      </trkpt>
      <trkpt lat="45.24426" lon="6.11143">
        <ele>2762</ele>
        <time>2021-12-23T12:28:38Z</time>
      </trkpt>
      <trkpt lat="45.24426" lon="6.11142">
        <ele>2762</ele>
        <time>2021-12-23T12:28:39Z</time>
      </trkpt>
      <trkpt lat="45.24426" lon="6.11142">
        <ele>2763</ele>
        <time>2021-12-23T12:28:41Z</time>
      </trkpt>
      <trkpt lat="45.24426" lon="6.11141">
        <ele>2763</ele>
        <time>2021-12-23T12:28:42Z</time>
      </trkpt>
      <trkpt lat="45.24426" lon="6.11141">
        <ele>2763</ele>
        <time>2021-12-23T12:28:43Z</time>
      </trkpt>
      <trkpt lat="45.24425" lon="6.11141">
        <ele>2763</ele>
        <time>2021-12-23T12:28:44Z</time>
      </trkpt>
      <trkpt lat="45.24425" lon="6.1114">
        <ele>2763</ele>
        <time>2021-12-23T12:28:45Z</time>
      </trkpt>
      <trkpt lat="45.24425" lon="6.1114">
        <ele>2763</ele>
        <time>2021-12-23T12:28:46Z</time>
      </trkpt>
      <trkpt lat="45.24425" lon="6.11139">
        <ele>2763</ele>
        <time>2021-12-23T12:28:47Z</time>
      </trkpt>
      <trkpt lat="45.24425" lon="6.11139">
        <ele>2763</ele>
        <time>2021-12-23T12:28:48Z</time>
      </trkpt>
      <trkpt lat="45.24424" lon="6.11138">
        <ele>2764</ele>
        <time>2021-12-23T12:28:49Z</time>
      </trkpt>
      <trkpt lat="45.24424" lon="6.11138">
        <ele>2764</ele>
        <time>2021-12-23T12:28:50Z</time>
      </trkpt>
      <trkpt lat="45.24424" lon="6.11137">
        <ele>2764</ele>
        <time>2021-12-23T12:28:51Z</time>
      </trkpt>
      <trkpt lat="45.24424" lon="6.11137">
        <ele>2764</ele>
        <time>2021-12-23T12:28:52Z</time>
      </trkpt>
      <trkpt lat="45.24424" lon="6.11137">
        <ele>2764</ele>
        <time>2021-12-23T12:28:53Z</time>
      </trkpt>
      <trkpt lat="45.24424" lon="6.11136">
        <ele>2764</ele>
        <time>2021-12-23T12:28:54Z</time>
      </trkpt>
      <trkpt lat="45.24423" lon="6.11136">
        <ele>2764</ele>
        <time>2021-12-23T12:28:55Z</time>
      </trkpt>
      <trkpt lat="45.24423" lon="6.11135">
        <ele>2764</ele>
        <time>2021-12-23T12:28:56Z</time>
      </trkpt>
      <trkpt lat="45.24423" lon="6.11135">
        <ele>2764</ele>
        <time>2021-12-23T12:28:57Z</time>
      </trkpt>
      <trkpt lat="45.24422" lon="6.11134">
        <ele>2764</ele>
        <time>2021-12-23T12:28:58Z</time>
      </trkpt>
      <trkpt lat="45.24422" lon="6.11133">
        <ele>2765</ele>
        <time>2021-12-23T12:29:00Z</time>
      </trkpt>
      <trkpt lat="45.24421" lon="6.11133">
        <ele>2765</ele>
        <time>2021-12-23T12:29:01Z</time>
      </trkpt>
      <trkpt lat="45.24421" lon="6.11132">
        <ele>2765</ele>
        <time>2021-12-23T12:29:02Z</time>
      </trkpt>
      <trkpt lat="45.2442" lon="6.11131">
        <ele>2765</ele>
        <time>2021-12-23T12:29:03Z</time>
      </trkpt>
      <trkpt lat="45.2442" lon="6.11131">
        <ele>2765</ele>
        <time>2021-12-23T12:29:04Z</time>
      </trkpt>
      <trkpt lat="45.24419" lon="6.1113">
        <ele>2767</ele>
        <time>2021-12-23T12:29:05Z</time>
      </trkpt>
      <trkpt lat="45.24419" lon="6.1113">
        <ele>2767</ele>
        <time>2021-12-23T12:29:06Z</time>
      </trkpt>
      <trkpt lat="45.24418" lon="6.11129">
        <ele>2768</ele>
        <time>2021-12-23T12:29:07Z</time>
      </trkpt>
      <trkpt lat="45.24418" lon="6.11128">
        <ele>2768</ele>
        <time>2021-12-23T12:29:08Z</time>
      </trkpt>
      <trkpt lat="45.24417" lon="6.11128">
        <ele>2768</ele>
        <time>2021-12-23T12:29:09Z</time>
      </trkpt>
      <trkpt lat="45.24417" lon="6.11127">
        <ele>2768</ele>
        <time>2021-12-23T12:29:10Z</time>
      </trkpt>
      <trkpt lat="45.24416" lon="6.11126">
        <ele>2768</ele>
        <time>2021-12-23T12:29:11Z</time>
      </trkpt>
      <trkpt lat="45.24416" lon="6.11126">
        <ele>2768</ele>
        <time>2021-12-23T12:29:12Z</time>
      </trkpt>
      <trkpt lat="45.24415" lon="6.11125">
        <ele>2768</ele>
        <time>2021-12-23T12:29:13Z</time>
      </trkpt>
      <trkpt lat="45.24414" lon="6.11124">
        <ele>2768</ele>
        <time>2021-12-23T12:29:14Z</time>
      </trkpt>
      <trkpt lat="45.24414" lon="6.11123">
        <ele>2768</ele>
        <time>2021-12-23T12:29:15Z</time>
      </trkpt>
      <trkpt lat="45.24413" lon="6.11123">
        <ele>2768</ele>
        <time>2021-12-23T12:29:16Z</time>
      </trkpt>
      <trkpt lat="45.24413" lon="6.11122">
        <ele>2768</ele>
        <time>2021-12-23T12:29:17Z</time>
      </trkpt>
      <trkpt lat="45.24412" lon="6.11121">
        <ele>2769</ele>
        <time>2021-12-23T12:29:19Z</time>
      </trkpt>
      <trkpt lat="45.24412" lon="6.1112">
        <ele>2769</ele>
        <time>2021-12-23T12:29:20Z</time>
      </trkpt>
      <trkpt lat="45.24411" lon="6.1112">
        <ele>2769</ele>
        <time>2021-12-23T12:29:21Z</time>
      </trkpt>
      <trkpt lat="45.24411" lon="6.11119">
        <ele>2770</ele>
        <time>2021-12-23T12:29:22Z</time>
      </trkpt>
      <trkpt lat="45.2441" lon="6.11118">
        <ele>2770</ele>
        <time>2021-12-23T12:29:23Z</time>
      </trkpt>
      <trkpt lat="45.2441" lon="6.11117">
        <ele>2770</ele>
        <time>2021-12-23T12:29:24Z</time>
      </trkpt>
      <trkpt lat="45.2441" lon="6.11117">
        <ele>2770</ele>
        <time>2021-12-23T12:29:25Z</time>
      </trkpt>
      <trkpt lat="45.2441" lon="6.11116">
        <ele>2770</ele>
        <time>2021-12-23T12:29:26Z</time>
      </trkpt>
      <trkpt lat="45.2441" lon="6.11115">
        <ele>2770</ele>
        <time>2021-12-23T12:29:27Z</time>
      </trkpt>
      <trkpt lat="45.2441" lon="6.11114">
        <ele>2770</ele>
        <time>2021-12-23T12:29:28Z</time>
      </trkpt>
      <trkpt lat="45.2441" lon="6.11114">
        <ele>2770</ele>
        <time>2021-12-23T12:29:29Z</time>
      </trkpt>
      <trkpt lat="45.2441" lon="6.11113">
        <ele>2770</ele>
        <time>2021-12-23T12:29:30Z</time>
      </trkpt>
      <trkpt lat="45.2441" lon="6.11112">
        <ele>2770</ele>
        <time>2021-12-23T12:29:31Z</time>
      </trkpt>
      <trkpt lat="45.24409" lon="6.11112">
        <ele>2770</ele>
        <time>2021-12-23T12:29:32Z</time>
      </trkpt>
      <trkpt lat="45.24409" lon="6.11111">
        <ele>2771</ele>
        <time>2021-12-23T12:29:33Z</time>
      </trkpt>
      <trkpt lat="45.24409" lon="6.1111">
        <ele>2771</ele>
        <time>2021-12-23T12:29:34Z</time>
      </trkpt>
      <trkpt lat="45.24409" lon="6.11109">
        <ele>2771</ele>
        <time>2021-12-23T12:29:35Z</time>
      </trkpt>
      <trkpt lat="45.24409" lon="6.11109">
        <ele>2771</ele>
        <time>2021-12-23T12:29:36Z</time>
      </trkpt>
      <trkpt lat="45.24409" lon="6.11108">
        <ele>2771</ele>
        <time>2021-12-23T12:29:38Z</time>
      </trkpt>
      <trkpt lat="45.24409" lon="6.11107">
        <ele>2771</ele>
        <time>2021-12-23T12:29:39Z</time>
      </trkpt>
      <trkpt lat="45.24409" lon="6.11106">
        <ele>2772</ele>
        <time>2021-12-23T12:29:40Z</time>
      </trkpt>
      <trkpt lat="45.24409" lon="6.11106">
        <ele>2772</ele>
        <time>2021-12-23T12:29:41Z</time>
      </trkpt>
      <trkpt lat="45.24409" lon="6.11105">
        <ele>2772</ele>
        <time>2021-12-23T12:29:42Z</time>
      </trkpt>
      <trkpt lat="45.24409" lon="6.11104">
        <ele>2772</ele>
        <time>2021-12-23T12:29:43Z</time>
      </trkpt>
      <trkpt lat="45.24409" lon="6.11104">
        <ele>2773</ele>
        <time>2021-12-23T12:29:44Z</time>
      </trkpt>
      <trkpt lat="45.24409" lon="6.11103">
        <ele>2773</ele>
        <time>2021-12-23T12:29:45Z</time>
      </trkpt>
      <trkpt lat="45.24408" lon="6.11103">
        <ele>2773</ele>
        <time>2021-12-23T12:29:46Z</time>
      </trkpt>
      <trkpt lat="45.24408" lon="6.11103">
        <ele>2773</ele>
        <time>2021-12-23T12:29:47Z</time>
      </trkpt>
      <trkpt lat="45.24408" lon="6.11102">
        <ele>2773</ele>
        <time>2021-12-23T12:29:48Z</time>
      </trkpt>
      <trkpt lat="45.24408" lon="6.11102">
        <ele>2773</ele>
        <time>2021-12-23T12:29:49Z</time>
      </trkpt>
      <trkpt lat="45.24408" lon="6.11101">
        <ele>2773</ele>
        <time>2021-12-23T12:29:50Z</time>
      </trkpt>
      <trkpt lat="45.24408" lon="6.11101">
        <ele>2773</ele>
        <time>2021-12-23T12:29:51Z</time>
      </trkpt>
      <trkpt lat="45.24408" lon="6.111">
        <ele>2773</ele>
        <time>2021-12-23T12:29:52Z</time>
      </trkpt>
      <trkpt lat="45.24408" lon="6.111">
        <ele>2773</ele>
        <time>2021-12-23T12:29:53Z</time>
      </trkpt>
      <trkpt lat="45.24408" lon="6.11099">
        <ele>2773</ele>
        <time>2021-12-23T12:29:54Z</time>
      </trkpt>
      <trkpt lat="45.24408" lon="6.11099">
        <ele>2773</ele>
        <time>2021-12-23T12:29:55Z</time>
      </trkpt>
      <trkpt lat="45.24408" lon="6.11098">
        <ele>2773</ele>
        <time>2021-12-23T12:29:57Z</time>
      </trkpt>
      <trkpt lat="45.24408" lon="6.11098">
        <ele>2773</ele>
        <time>2021-12-23T12:29:58Z</time>
      </trkpt>
      <trkpt lat="45.24407" lon="6.11097">
        <ele>2773</ele>
        <time>2021-12-23T12:29:59Z</time>
      </trkpt>
      <trkpt lat="45.24407" lon="6.11097">
        <ele>2773</ele>
        <time>2021-12-23T12:30:00Z</time>
      </trkpt>
      <trkpt lat="45.24407" lon="6.11096">
        <ele>2774</ele>
        <time>2021-12-23T12:30:01Z</time>
      </trkpt>
      <trkpt lat="45.24407" lon="6.11096">
        <ele>2774</ele>
        <time>2021-12-23T12:30:02Z</time>
      </trkpt>
      <trkpt lat="45.24407" lon="6.11095">
        <ele>2775</ele>
        <time>2021-12-23T12:30:03Z</time>
      </trkpt>
      <trkpt lat="45.24407" lon="6.11095">
        <ele>2775</ele>
        <time>2021-12-23T12:30:04Z</time>
      </trkpt>
      <trkpt lat="45.24407" lon="6.11094">
        <ele>2775</ele>
        <time>2021-12-23T12:30:05Z</time>
      </trkpt>
      <trkpt lat="45.24407" lon="6.11094">
        <ele>2774</ele>
        <time>2021-12-23T12:30:06Z</time>
      </trkpt>
      <trkpt lat="45.24407" lon="6.11093">
        <ele>2774</ele>
        <time>2021-12-23T12:30:07Z</time>
      </trkpt>
      <trkpt lat="45.24407" lon="6.11093">
        <ele>2774</ele>
        <time>2021-12-23T12:30:08Z</time>
      </trkpt>
      <trkpt lat="45.24407" lon="6.11092">
        <ele>2774</ele>
        <time>2021-12-23T12:30:09Z</time>
      </trkpt>
      <trkpt lat="45.24406" lon="6.11093">
        <ele>2775</ele>
        <time>2021-12-23T12:30:10Z</time>
      </trkpt>
      <trkpt lat="45.24406" lon="6.11093">
        <ele>2775</ele>
        <time>2021-12-23T12:30:11Z</time>
      </trkpt>
      <trkpt lat="45.24405" lon="6.11093">
        <ele>2776</ele>
        <time>2021-12-23T12:30:12Z</time>
      </trkpt>
      <trkpt lat="45.24404" lon="6.11093">
        <ele>2776</ele>
        <time>2021-12-23T12:30:13Z</time>
      </trkpt>
      <trkpt lat="45.24404" lon="6.11093">
        <ele>2776</ele>
        <time>2021-12-23T12:30:14Z</time>
      </trkpt>
      <trkpt lat="45.24403" lon="6.11094">
        <ele>2776</ele>
        <time>2021-12-23T12:30:16Z</time>
      </trkpt>
      <trkpt lat="45.24403" lon="6.11094">
        <ele>2776</ele>
        <time>2021-12-23T12:30:17Z</time>
      </trkpt>
      <trkpt lat="45.24402" lon="6.11094">
        <ele>2776</ele>
        <time>2021-12-23T12:30:18Z</time>
      </trkpt>
      <trkpt lat="45.24402" lon="6.11094">
        <ele>2777</ele>
        <time>2021-12-23T12:30:19Z</time>
      </trkpt>
      <trkpt lat="45.24401" lon="6.11094">
        <ele>2777</ele>
        <time>2021-12-23T12:30:20Z</time>
      </trkpt>
      <trkpt lat="45.24401" lon="6.11095">
        <ele>2777</ele>
        <time>2021-12-23T12:30:21Z</time>
      </trkpt>
      <trkpt lat="45.244" lon="6.11095">
        <ele>2777</ele>
        <time>2021-12-23T12:30:22Z</time>
      </trkpt>
      <trkpt lat="45.244" lon="6.11095">
        <ele>2777</ele>
        <time>2021-12-23T12:30:23Z</time>
      </trkpt>
      <trkpt lat="45.24399" lon="6.11095">
        <ele>2777</ele>
        <time>2021-12-23T12:30:24Z</time>
      </trkpt>
      <trkpt lat="45.24399" lon="6.11095">
        <ele>2777</ele>
        <time>2021-12-23T12:30:25Z</time>
      </trkpt>
      <trkpt lat="45.24398" lon="6.11095">
        <ele>2778</ele>
        <time>2021-12-23T12:30:26Z</time>
      </trkpt>
      <trkpt lat="45.24397" lon="6.11096">
        <ele>2778</ele>
        <time>2021-12-23T12:30:27Z</time>
      </trkpt>
      <trkpt lat="45.24397" lon="6.11096">
        <ele>2778</ele>
        <time>2021-12-23T12:30:28Z</time>
      </trkpt>
      <trkpt lat="45.24396" lon="6.11097">
        <ele>2778</ele>
        <time>2021-12-23T12:30:29Z</time>
      </trkpt>
      <trkpt lat="45.24395" lon="6.11097">
        <ele>2778</ele>
        <time>2021-12-23T12:30:30Z</time>
      </trkpt>
      <trkpt lat="45.24394" lon="6.11098">
        <ele>2778</ele>
        <time>2021-12-23T12:30:31Z</time>
      </trkpt>
      <trkpt lat="45.24394" lon="6.11098">
        <ele>2778</ele>
        <time>2021-12-23T12:30:32Z</time>
      </trkpt>
      <trkpt lat="45.24393" lon="6.11099">
        <ele>2778</ele>
        <time>2021-12-23T12:30:33Z</time>
      </trkpt>
      <trkpt lat="45.24392" lon="6.11099">
        <ele>2779</ele>
        <time>2021-12-23T12:30:35Z</time>
      </trkpt>
      <trkpt lat="45.24391" lon="6.111">
        <ele>2779</ele>
        <time>2021-12-23T12:30:36Z</time>
      </trkpt>
      <trkpt lat="45.24391" lon="6.111">
        <ele>2779</ele>
        <time>2021-12-23T12:30:37Z</time>
      </trkpt>
      <trkpt lat="45.2439" lon="6.11101">
        <ele>2779</ele>
        <time>2021-12-23T12:30:38Z</time>
      </trkpt>
      <trkpt lat="45.2439" lon="6.11101">
        <ele>2779</ele>
        <time>2021-12-23T12:30:39Z</time>
      </trkpt>
      <trkpt lat="45.24389" lon="6.11101">
        <ele>2779</ele>
        <time>2021-12-23T12:30:40Z</time>
      </trkpt>
      <trkpt lat="45.24389" lon="6.11101">
        <ele>2779</ele>
        <time>2021-12-23T12:30:41Z</time>
      </trkpt>
      <trkpt lat="45.24389" lon="6.11101">
        <ele>2780</ele>
        <time>2021-12-23T12:30:42Z</time>
      </trkpt>
      <trkpt lat="45.24388" lon="6.11102">
        <ele>2780</ele>
        <time>2021-12-23T12:30:43Z</time>
      </trkpt>
      <trkpt lat="45.24388" lon="6.11102">
        <ele>2780</ele>
        <time>2021-12-23T12:30:44Z</time>
      </trkpt>
      <trkpt lat="45.24387" lon="6.11102">
        <ele>2780</ele>
        <time>2021-12-23T12:30:45Z</time>
      </trkpt>
      <trkpt lat="45.24387" lon="6.11102">
        <ele>2780</ele>
        <time>2021-12-23T12:30:46Z</time>
      </trkpt>
      <trkpt lat="45.24387" lon="6.11103">
        <ele>2780</ele>
        <time>2021-12-23T12:30:47Z</time>
      </trkpt>
      <trkpt lat="45.24386" lon="6.11103">
        <ele>2780</ele>
        <time>2021-12-23T12:30:48Z</time>
      </trkpt>
      <trkpt lat="45.24386" lon="6.11103">
        <ele>2780</ele>
        <time>2021-12-23T12:30:49Z</time>
      </trkpt>
      <trkpt lat="45.24386" lon="6.11103">
        <ele>2782</ele>
        <time>2021-12-23T12:30:50Z</time>
      </trkpt>
      <trkpt lat="45.24385" lon="6.11103">
        <ele>2782</ele>
        <time>2021-12-23T12:30:51Z</time>
      </trkpt>
      <trkpt lat="45.24385" lon="6.11104">
        <ele>2782</ele>
        <time>2021-12-23T12:30:52Z</time>
      </trkpt>
      <trkpt lat="45.24385" lon="6.11104">
        <ele>2782</ele>
        <time>2021-12-23T12:30:54Z</time>
      </trkpt>
      <trkpt lat="45.24384" lon="6.11104">
        <ele>2782</ele>
        <time>2021-12-23T12:30:55Z</time>
      </trkpt>
      <trkpt lat="45.24384" lon="6.11104">
        <ele>2783</ele>
        <time>2021-12-23T12:30:56Z</time>
      </trkpt>
      <trkpt lat="45.24383" lon="6.11104">
        <ele>2784</ele>
        <time>2021-12-23T12:30:57Z</time>
      </trkpt>
      <trkpt lat="45.24383" lon="6.11105">
        <ele>2784</ele>
        <time>2021-12-23T12:30:58Z</time>
      </trkpt>
      <trkpt lat="45.24383" lon="6.11105">
        <ele>2784</ele>
        <time>2021-12-23T12:30:59Z</time>
      </trkpt>
      <trkpt lat="45.24382" lon="6.11105">
        <ele>2784</ele>
        <time>2021-12-23T12:31:00Z</time>
      </trkpt>
      <trkpt lat="45.24382" lon="6.11105">
        <ele>2784</ele>
        <time>2021-12-23T12:31:01Z</time>
      </trkpt>
      <trkpt lat="45.24381" lon="6.11105">
        <ele>2784</ele>
        <time>2021-12-23T12:31:02Z</time>
      </trkpt>
      <trkpt lat="45.24381" lon="6.11105">
        <ele>2784</ele>
        <time>2021-12-23T12:31:03Z</time>
      </trkpt>
      <trkpt lat="45.2438" lon="6.11105">
        <ele>2784</ele>
        <time>2021-12-23T12:31:04Z</time>
      </trkpt>
      <trkpt lat="45.2438" lon="6.11106">
        <ele>2784</ele>
        <time>2021-12-23T12:31:05Z</time>
      </trkpt>
      <trkpt lat="45.24379" lon="6.11106">
        <ele>2784</ele>
        <time>2021-12-23T12:31:06Z</time>
      </trkpt>
      <trkpt lat="45.24379" lon="6.11106">
        <ele>2784</ele>
        <time>2021-12-23T12:31:07Z</time>
      </trkpt>
      <trkpt lat="45.24378" lon="6.11106">
        <ele>2784</ele>
        <time>2021-12-23T12:31:08Z</time>
      </trkpt>
      <trkpt lat="45.24378" lon="6.11106">
        <ele>2785</ele>
        <time>2021-12-23T12:31:09Z</time>
      </trkpt>
      <trkpt lat="45.24377" lon="6.11106">
        <ele>2785</ele>
        <time>2021-12-23T12:31:10Z</time>
      </trkpt>
      <trkpt lat="45.24377" lon="6.11106">
        <ele>2785</ele>
        <time>2021-12-23T12:31:11Z</time>
      </trkpt>
      <trkpt lat="45.24376" lon="6.11106">
        <ele>2786</ele>
        <time>2021-12-23T12:31:13Z</time>
      </trkpt>
      <trkpt lat="45.24376" lon="6.11106">
        <ele>2786</ele>
        <time>2021-12-23T12:31:14Z</time>
      </trkpt>
      <trkpt lat="45.24375" lon="6.11106">
        <ele>2786</ele>
        <time>2021-12-23T12:31:15Z</time>
      </trkpt>
      <trkpt lat="45.24375" lon="6.11107">
        <ele>2785</ele>
        <time>2021-12-23T12:31:16Z</time>
      </trkpt>
      <trkpt lat="45.24374" lon="6.11107">
        <ele>2785</ele>
        <time>2021-12-23T12:31:17Z</time>
      </trkpt>
      <trkpt lat="45.24374" lon="6.11107">
        <ele>2785</ele>
        <time>2021-12-23T12:31:18Z</time>
      </trkpt>
      <trkpt lat="45.24373" lon="6.11107">
        <ele>2785</ele>
        <time>2021-12-23T12:31:19Z</time>
      </trkpt>
      <trkpt lat="45.24373" lon="6.11107">
        <ele>2786</ele>
        <time>2021-12-23T12:31:20Z</time>
      </trkpt>
      <trkpt lat="45.24373" lon="6.11107">
        <ele>2786</ele>
        <time>2021-12-23T12:31:21Z</time>
      </trkpt>
      <trkpt lat="45.24372" lon="6.11108">
        <ele>2787</ele>
        <time>2021-12-23T12:31:22Z</time>
      </trkpt>
      <trkpt lat="45.24372" lon="6.11109">
        <ele>2787</ele>
        <time>2021-12-23T12:31:23Z</time>
      </trkpt>
      <trkpt lat="45.24371" lon="6.11109">
        <ele>2787</ele>
        <time>2021-12-23T12:31:24Z</time>
      </trkpt>
      <trkpt lat="45.24371" lon="6.1111">
        <ele>2787</ele>
        <time>2021-12-23T12:31:25Z</time>
      </trkpt>
      <trkpt lat="45.24371" lon="6.1111">
        <ele>2787</ele>
        <time>2021-12-23T12:31:26Z</time>
      </trkpt>
      <trkpt lat="45.2437" lon="6.11111">
        <ele>2788</ele>
        <time>2021-12-23T12:31:27Z</time>
      </trkpt>
      <trkpt lat="45.2437" lon="6.11111">
        <ele>2788</ele>
        <time>2021-12-23T12:31:28Z</time>
      </trkpt>
      <trkpt lat="45.2437" lon="6.11112">
        <ele>2788</ele>
        <time>2021-12-23T12:31:29Z</time>
      </trkpt>
      <trkpt lat="45.24369" lon="6.11113">
        <ele>2788</ele>
        <time>2021-12-23T12:31:30Z</time>
      </trkpt>
      <trkpt lat="45.24369" lon="6.11113">
        <ele>2788</ele>
        <time>2021-12-23T12:31:32Z</time>
      </trkpt>
      <trkpt lat="45.24369" lon="6.11114">
        <ele>2788</ele>
        <time>2021-12-23T12:31:33Z</time>
      </trkpt>
      <trkpt lat="45.24368" lon="6.11114">
        <ele>2788</ele>
        <time>2021-12-23T12:31:34Z</time>
      </trkpt>
      <trkpt lat="45.24368" lon="6.11115">
        <ele>2788</ele>
        <time>2021-12-23T12:31:35Z</time>
      </trkpt>
      <trkpt lat="45.24368" lon="6.11115">
        <ele>2787</ele>
        <time>2021-12-23T12:31:36Z</time>
      </trkpt>
      <trkpt lat="45.24367" lon="6.11116">
        <ele>2787</ele>
        <time>2021-12-23T12:31:37Z</time>
      </trkpt>
      <trkpt lat="45.24367" lon="6.11116">
        <ele>2787</ele>
        <time>2021-12-23T12:31:38Z</time>
      </trkpt>
      <trkpt lat="45.24366" lon="6.11117">
        <ele>2787</ele>
        <time>2021-12-23T12:31:39Z</time>
      </trkpt>
      <trkpt lat="45.24366" lon="6.11118">
        <ele>2787</ele>
        <time>2021-12-23T12:31:40Z</time>
      </trkpt>
      <trkpt lat="45.24366" lon="6.11118">
        <ele>2787</ele>
        <time>2021-12-23T12:31:41Z</time>
      </trkpt>
      <trkpt lat="45.24365" lon="6.11119">
        <ele>2788</ele>
        <time>2021-12-23T12:31:42Z</time>
      </trkpt>
      <trkpt lat="45.24365" lon="6.11119">
        <ele>2788</ele>
        <time>2021-12-23T12:31:43Z</time>
      </trkpt>
      <trkpt lat="45.24365" lon="6.1112">
        <ele>2788</ele>
        <time>2021-12-23T12:31:44Z</time>
      </trkpt>
      <trkpt lat="45.24364" lon="6.1112">
        <ele>2788</ele>
        <time>2021-12-23T12:31:45Z</time>
      </trkpt>
      <trkpt lat="45.24364" lon="6.11121">
        <ele>2788</ele>
        <time>2021-12-23T12:31:46Z</time>
      </trkpt>
      <trkpt lat="45.24364" lon="6.11122">
        <ele>2788</ele>
        <time>2021-12-23T12:31:47Z</time>
      </trkpt>
      <trkpt lat="45.24363" lon="6.11122">
        <ele>2788</ele>
        <time>2021-12-23T12:31:48Z</time>
      </trkpt>
      <trkpt lat="45.24363" lon="6.11123">
        <ele>2788</ele>
        <time>2021-12-23T12:31:49Z</time>
      </trkpt>
      <trkpt lat="45.24363" lon="6.11122">
        <ele>2788</ele>
        <time>2021-12-23T12:31:51Z</time>
      </trkpt>
      <trkpt lat="45.24363" lon="6.11122">
        <ele>2788</ele>
        <time>2021-12-23T12:31:52Z</time>
      </trkpt>
      <trkpt lat="45.24364" lon="6.11122">
        <ele>2788</ele>
        <time>2021-12-23T12:31:53Z</time>
      </trkpt>
      <trkpt lat="45.24364" lon="6.11121">
        <ele>2788</ele>
        <time>2021-12-23T12:31:54Z</time>
      </trkpt>
      <trkpt lat="45.24364" lon="6.11121">
        <ele>2788</ele>
        <time>2021-12-23T12:31:55Z</time>
      </trkpt>
      <trkpt lat="45.24364" lon="6.11121">
        <ele>2788</ele>
        <time>2021-12-23T12:31:56Z</time>
      </trkpt>
      <trkpt lat="45.24365" lon="6.1112">
        <ele>2787</ele>
        <time>2021-12-23T12:31:57Z</time>
      </trkpt>
      <trkpt lat="45.24365" lon="6.1112">
        <ele>2787</ele>
        <time>2021-12-23T12:31:58Z</time>
      </trkpt>
      <trkpt lat="45.24365" lon="6.1112">
        <ele>2787</ele>
        <time>2021-12-23T12:31:59Z</time>
      </trkpt>
      <trkpt lat="45.24365" lon="6.11119">
        <ele>2787</ele>
        <time>2021-12-23T12:32:00Z</time>
      </trkpt>
      <trkpt lat="45.24365" lon="6.11119">
        <ele>2787</ele>
        <time>2021-12-23T12:32:01Z</time>
      </trkpt>
      <trkpt lat="45.24366" lon="6.11119">
        <ele>2787</ele>
        <time>2021-12-23T12:32:02Z</time>
      </trkpt>
      <trkpt lat="45.24366" lon="6.11118">
        <ele>2787</ele>
        <time>2021-12-23T12:32:03Z</time>
      </trkpt>
      <trkpt lat="45.24366" lon="6.11118">
        <ele>2787</ele>
        <time>2021-12-23T12:32:04Z</time>
      </trkpt>
      <trkpt lat="45.24366" lon="6.11118">
        <ele>2787</ele>
        <time>2021-12-23T12:32:05Z</time>
      </trkpt>
      <trkpt lat="45.24367" lon="6.11118">
        <ele>2787</ele>
        <time>2021-12-23T12:32:06Z</time>
      </trkpt>
      <trkpt lat="45.24367" lon="6.11117">
        <ele>2787</ele>
        <time>2021-12-23T12:32:07Z</time>
      </trkpt>
      <trkpt lat="45.24367" lon="6.11117">
        <ele>2787</ele>
        <time>2021-12-23T12:32:08Z</time>
      </trkpt>
      <trkpt lat="45.24367" lon="6.11117">
        <ele>2788</ele>
        <time>2021-12-23T12:32:10Z</time>
      </trkpt>
      <trkpt lat="45.24368" lon="6.11116">
        <ele>2788</ele>
        <time>2021-12-23T12:32:11Z</time>
      </trkpt>
      <trkpt lat="45.24368" lon="6.11116">
        <ele>2788</ele>
        <time>2021-12-23T12:32:12Z</time>
      </trkpt>
      <trkpt lat="45.24368" lon="6.11116">
        <ele>2788</ele>
        <time>2021-12-23T12:32:13Z</time>
      </trkpt>
      <trkpt lat="45.24368" lon="6.11115">
        <ele>2788</ele>
        <time>2021-12-23T12:32:14Z</time>
      </trkpt>
      <trkpt lat="45.24368" lon="6.11115">
        <ele>2788</ele>
        <time>2021-12-23T12:32:15Z</time>
      </trkpt>
      <trkpt lat="45.24369" lon="6.11115">
        <ele>2788</ele>
        <time>2021-12-23T12:32:16Z</time>
      </trkpt>
      <trkpt lat="45.24369" lon="6.11114">
        <ele>2788</ele>
        <time>2021-12-23T12:32:17Z</time>
      </trkpt>
      <trkpt lat="45.24369" lon="6.11114">
        <ele>2788</ele>
        <time>2021-12-23T12:32:18Z</time>
      </trkpt>
      <trkpt lat="45.24369" lon="6.11114">
        <ele>2788</ele>
        <time>2021-12-23T12:32:19Z</time>
      </trkpt>
      <trkpt lat="45.2437" lon="6.11113">
        <ele>2788</ele>
        <time>2021-12-23T12:32:20Z</time>
      </trkpt>
      <trkpt lat="45.2437" lon="6.11113">
        <ele>2788</ele>
        <time>2021-12-23T12:32:21Z</time>
      </trkpt>
      <trkpt lat="45.2437" lon="6.11112">
        <ele>2788</ele>
        <time>2021-12-23T12:32:22Z</time>
      </trkpt>
      <trkpt lat="45.24369" lon="6.11111">
        <ele>2787</ele>
        <time>2021-12-23T12:32:23Z</time>
      </trkpt>
      <trkpt lat="45.24369" lon="6.11109">
        <ele>2787</ele>
        <time>2021-12-23T12:32:24Z</time>
      </trkpt>
      <trkpt lat="45.24369" lon="6.11108">
        <ele>2788</ele>
        <time>2021-12-23T12:32:25Z</time>
      </trkpt>
      <trkpt lat="45.24368" lon="6.11107">
        <ele>2788</ele>
        <time>2021-12-23T12:32:26Z</time>
      </trkpt>
      <trkpt lat="45.24368" lon="6.11106">
        <ele>2788</ele>
        <time>2021-12-23T12:32:27Z</time>
      </trkpt>
      <trkpt lat="45.24368" lon="6.11105">
        <ele>2788</ele>
        <time>2021-12-23T12:32:29Z</time>
      </trkpt>
      <trkpt lat="45.24367" lon="6.11103">
        <ele>2788</ele>
        <time>2021-12-23T12:32:30Z</time>
      </trkpt>
      <trkpt lat="45.24367" lon="6.11102">
        <ele>2788</ele>
        <time>2021-12-23T12:32:31Z</time>
      </trkpt>
      <trkpt lat="45.24367" lon="6.11101">
        <ele>2789</ele>
        <time>2021-12-23T12:32:32Z</time>
      </trkpt>
      <trkpt lat="45.24367" lon="6.111">
        <ele>2789</ele>
        <time>2021-12-23T12:32:33Z</time>
      </trkpt>
      <trkpt lat="45.24367" lon="6.111">
        <ele>2789</ele>
        <time>2021-12-23T12:32:34Z</time>
      </trkpt>
      <trkpt lat="45.24367" lon="6.11099">
        <ele>2789</ele>
        <time>2021-12-23T12:32:35Z</time>
      </trkpt>
      <trkpt lat="45.24368" lon="6.11099">
        <ele>2789</ele>
        <time>2021-12-23T12:32:36Z</time>
      </trkpt>
      <trkpt lat="45.24368" lon="6.11098">
        <ele>2790</ele>
        <time>2021-12-23T12:32:37Z</time>
      </trkpt>
      <trkpt lat="45.24368" lon="6.11098">
        <ele>2790</ele>
        <time>2021-12-23T12:32:38Z</time>
      </trkpt>
      <trkpt lat="45.24368" lon="6.11097">
        <ele>2790</ele>
        <time>2021-12-23T12:32:39Z</time>
      </trkpt>
      <trkpt lat="45.24369" lon="6.11097">
        <ele>2790</ele>
        <time>2021-12-23T12:32:40Z</time>
      </trkpt>
      <trkpt lat="45.24369" lon="6.11096">
        <ele>2790</ele>
        <time>2021-12-23T12:32:41Z</time>
      </trkpt>
      <trkpt lat="45.24369" lon="6.11096">
        <ele>2790</ele>
        <time>2021-12-23T12:32:42Z</time>
      </trkpt>
      <trkpt lat="45.24369" lon="6.11095">
        <ele>2790</ele>
        <time>2021-12-23T12:32:43Z</time>
      </trkpt>
      <trkpt lat="45.24369" lon="6.11095">
        <ele>2790</ele>
        <time>2021-12-23T12:32:44Z</time>
      </trkpt>
      <trkpt lat="45.2437" lon="6.11094">
        <ele>2791</ele>
        <time>2021-12-23T12:32:45Z</time>
      </trkpt>
      <trkpt lat="45.2437" lon="6.11094">
        <ele>2791</ele>
        <time>2021-12-23T12:32:46Z</time>
      </trkpt>
      <trkpt lat="45.2437" lon="6.11093">
        <ele>2791</ele>
        <time>2021-12-23T12:32:48Z</time>
      </trkpt>
      <trkpt lat="45.2437" lon="6.11093">
        <ele>2791</ele>
        <time>2021-12-23T12:32:49Z</time>
      </trkpt>
      <trkpt lat="45.24371" lon="6.11092">
        <ele>2791</ele>
        <time>2021-12-23T12:32:50Z</time>
      </trkpt>
      <trkpt lat="45.24371" lon="6.11092">
        <ele>2792</ele>
        <time>2021-12-23T12:32:51Z</time>
      </trkpt>
      <trkpt lat="45.24371" lon="6.11091">
        <ele>2792</ele>
        <time>2021-12-23T12:32:52Z</time>
      </trkpt>
      <trkpt lat="45.24371" lon="6.1109">
        <ele>2792</ele>
        <time>2021-12-23T12:32:53Z</time>
      </trkpt>
      <trkpt lat="45.24371" lon="6.11089">
        <ele>2792</ele>
        <time>2021-12-23T12:32:54Z</time>
      </trkpt>
      <trkpt lat="45.24371" lon="6.11088">
        <ele>2792</ele>
        <time>2021-12-23T12:32:55Z</time>
      </trkpt>
      <trkpt lat="45.24371" lon="6.11087">
        <ele>2792</ele>
        <time>2021-12-23T12:32:56Z</time>
      </trkpt>
      <trkpt lat="45.24371" lon="6.11086">
        <ele>2792</ele>
        <time>2021-12-23T12:32:57Z</time>
      </trkpt>
      <trkpt lat="45.24371" lon="6.11085">
        <ele>2794</ele>
        <time>2021-12-23T12:32:58Z</time>
      </trkpt>
      <trkpt lat="45.24371" lon="6.11084">
        <ele>2794</ele>
        <time>2021-12-23T12:32:59Z</time>
      </trkpt>
      <trkpt lat="45.24371" lon="6.11083">
        <ele>2794</ele>
        <time>2021-12-23T12:33:00Z</time>
      </trkpt>
      <trkpt lat="45.24371" lon="6.11082">
        <ele>2794</ele>
        <time>2021-12-23T12:33:01Z</time>
      </trkpt>
      <trkpt lat="45.24371" lon="6.11081">
        <ele>2794</ele>
        <time>2021-12-23T12:33:02Z</time>
      </trkpt>
      <trkpt lat="45.24371" lon="6.1108">
        <ele>2794</ele>
        <time>2021-12-23T12:33:03Z</time>
      </trkpt>
      <trkpt lat="45.2437" lon="6.11079">
        <ele>2795</ele>
        <time>2021-12-23T12:33:04Z</time>
      </trkpt>
      <trkpt lat="45.2437" lon="6.11078">
        <ele>2795</ele>
        <time>2021-12-23T12:33:05Z</time>
      </trkpt>
      <trkpt lat="45.2437" lon="6.11077">
        <ele>2796</ele>
        <time>2021-12-23T12:33:07Z</time>
      </trkpt>
      <trkpt lat="45.2437" lon="6.11076">
        <ele>2796</ele>
        <time>2021-12-23T12:33:08Z</time>
      </trkpt>
      <trkpt lat="45.2437" lon="6.11076">
        <ele>2796</ele>
        <time>2021-12-23T12:33:09Z</time>
      </trkpt>
      <trkpt lat="45.2437" lon="6.11075">
        <ele>2796</ele>
        <time>2021-12-23T12:33:10Z</time>
      </trkpt>
      <trkpt lat="45.2437" lon="6.11075">
        <ele>2796</ele>
        <time>2021-12-23T12:33:11Z</time>
      </trkpt>
      <trkpt lat="45.2437" lon="6.11074">
        <ele>2796</ele>
        <time>2021-12-23T12:33:12Z</time>
      </trkpt>
      <trkpt lat="45.2437" lon="6.11074">
        <ele>2796</ele>
        <time>2021-12-23T12:33:13Z</time>
      </trkpt>
      <trkpt lat="45.2437" lon="6.11073">
        <ele>2796</ele>
        <time>2021-12-23T12:33:14Z</time>
      </trkpt>
      <trkpt lat="45.2437" lon="6.11072">
        <ele>2796</ele>
        <time>2021-12-23T12:33:15Z</time>
      </trkpt>
      <trkpt lat="45.2437" lon="6.11072">
        <ele>2796</ele>
        <time>2021-12-23T12:33:16Z</time>
      </trkpt>
      <trkpt lat="45.2437" lon="6.11071">
        <ele>2796</ele>
        <time>2021-12-23T12:33:17Z</time>
      </trkpt>
      <trkpt lat="45.2437" lon="6.11071">
        <ele>2796</ele>
        <time>2021-12-23T12:33:18Z</time>
      </trkpt>
      <trkpt lat="45.2437" lon="6.1107">
        <ele>2796</ele>
        <time>2021-12-23T12:33:20Z</time>
      </trkpt>
      <trkpt lat="45.2437" lon="6.1107">
        <ele>2796</ele>
        <time>2021-12-23T12:33:21Z</time>
      </trkpt>
      <trkpt lat="45.2437" lon="6.11069">
        <ele>2796</ele>
        <time>2021-12-23T12:33:22Z</time>
      </trkpt>
      <trkpt lat="45.2437" lon="6.11068">
        <ele>2796</ele>
        <time>2021-12-23T12:33:23Z</time>
      </trkpt>
      <trkpt lat="45.2437" lon="6.11068">
        <ele>2796</ele>
        <time>2021-12-23T12:33:24Z</time>
      </trkpt>
      <trkpt lat="45.2437" lon="6.11067">
        <ele>2796</ele>
        <time>2021-12-23T12:33:26Z</time>
      </trkpt>
      <trkpt lat="45.2437" lon="6.11067">
        <ele>2796</ele>
        <time>2021-12-23T12:33:27Z</time>
      </trkpt>
      <trkpt lat="45.2437" lon="6.11066">
        <ele>2796</ele>
        <time>2021-12-23T12:33:28Z</time>
      </trkpt>
      <trkpt lat="45.2437" lon="6.11066">
        <ele>2797</ele>
        <time>2021-12-23T12:33:29Z</time>
      </trkpt>
      <trkpt lat="45.2437" lon="6.11065">
        <ele>2797</ele>
        <time>2021-12-23T12:33:30Z</time>
      </trkpt>
      <trkpt lat="45.2437" lon="6.11064">
        <ele>2797</ele>
        <time>2021-12-23T12:33:31Z</time>
      </trkpt>
      <trkpt lat="45.2437" lon="6.11064">
        <ele>2797</ele>
        <time>2021-12-23T12:33:32Z</time>
      </trkpt>
      <trkpt lat="45.2437" lon="6.11063">
        <ele>2797</ele>
        <time>2021-12-23T12:33:33Z</time>
      </trkpt>
      <trkpt lat="45.2437" lon="6.11063">
        <ele>2797</ele>
        <time>2021-12-23T12:33:34Z</time>
      </trkpt>
      <trkpt lat="45.2437" lon="6.11062">
        <ele>2797</ele>
        <time>2021-12-23T12:33:35Z</time>
      </trkpt>
      <trkpt lat="45.2437" lon="6.11062">
        <ele>2798</ele>
        <time>2021-12-23T12:33:36Z</time>
      </trkpt>
      <trkpt lat="45.24369" lon="6.11061">
        <ele>2798</ele>
        <time>2021-12-23T12:33:37Z</time>
      </trkpt>
      <trkpt lat="45.24369" lon="6.11061">
        <ele>2798</ele>
        <time>2021-12-23T12:33:38Z</time>
      </trkpt>
      <trkpt lat="45.24369" lon="6.1106">
        <ele>2798</ele>
        <time>2021-12-23T12:33:39Z</time>
      </trkpt>
      <trkpt lat="45.24368" lon="6.1106">
        <ele>2798</ele>
        <time>2021-12-23T12:33:40Z</time>
      </trkpt>
      <trkpt lat="45.24368" lon="6.1106">
        <ele>2799</ele>
        <time>2021-12-23T12:33:41Z</time>
      </trkpt>
      <trkpt lat="45.24368" lon="6.11059">
        <ele>2799</ele>
        <time>2021-12-23T12:33:42Z</time>
      </trkpt>
      <trkpt lat="45.24367" lon="6.11059">
        <ele>2799</ele>
        <time>2021-12-23T12:33:43Z</time>
      </trkpt>
      <trkpt lat="45.24367" lon="6.11058">
        <ele>2799</ele>
        <time>2021-12-23T12:33:45Z</time>
      </trkpt>
      <trkpt lat="45.24367" lon="6.11058">
        <ele>2799</ele>
        <time>2021-12-23T12:33:46Z</time>
      </trkpt>
      <trkpt lat="45.24366" lon="6.11057">
        <ele>2799</ele>
        <time>2021-12-23T12:33:47Z</time>
      </trkpt>
      <trkpt lat="45.24366" lon="6.11057">
        <ele>2800</ele>
        <time>2021-12-23T12:33:48Z</time>
      </trkpt>
      <trkpt lat="45.24366" lon="6.11057">
        <ele>2800</ele>
        <time>2021-12-23T12:33:49Z</time>
      </trkpt>
      <trkpt lat="45.24365" lon="6.11056">
        <ele>2800</ele>
        <time>2021-12-23T12:33:50Z</time>
      </trkpt>
      <trkpt lat="45.24365" lon="6.11056">
        <ele>2800</ele>
        <time>2021-12-23T12:33:51Z</time>
      </trkpt>
      <trkpt lat="45.24365" lon="6.11055">
        <ele>2800</ele>
        <time>2021-12-23T12:33:52Z</time>
      </trkpt>
      <trkpt lat="45.24364" lon="6.11055">
        <ele>2800</ele>
        <time>2021-12-23T12:33:53Z</time>
      </trkpt>
      <trkpt lat="45.24364" lon="6.11055">
        <ele>2800</ele>
        <time>2021-12-23T12:33:54Z</time>
      </trkpt>
      <trkpt lat="45.24364" lon="6.11054">
        <ele>2801</ele>
        <time>2021-12-23T12:33:55Z</time>
      </trkpt>
      <trkpt lat="45.24363" lon="6.11054">
        <ele>2801</ele>
        <time>2021-12-23T12:33:56Z</time>
      </trkpt>
      <trkpt lat="45.24363" lon="6.11053">
        <ele>2801</ele>
        <time>2021-12-23T12:33:57Z</time>
      </trkpt>
      <trkpt lat="45.24363" lon="6.11053">
        <ele>2801</ele>
        <time>2021-12-23T12:33:58Z</time>
      </trkpt>
      <trkpt lat="45.24363" lon="6.11052">
        <ele>2801</ele>
        <time>2021-12-23T12:33:59Z</time>
      </trkpt>
      <trkpt lat="45.24362" lon="6.11052">
        <ele>2802</ele>
        <time>2021-12-23T12:34:00Z</time>
      </trkpt>
      <trkpt lat="45.24362" lon="6.11051">
        <ele>2802</ele>
        <time>2021-12-23T12:34:01Z</time>
      </trkpt>
      <trkpt lat="45.24362" lon="6.1105">
        <ele>2802</ele>
        <time>2021-12-23T12:34:02Z</time>
      </trkpt>
      <trkpt lat="45.24362" lon="6.1105">
        <ele>2802</ele>
        <time>2021-12-23T12:34:04Z</time>
      </trkpt>
      <trkpt lat="45.24362" lon="6.11049">
        <ele>2802</ele>
        <time>2021-12-23T12:34:05Z</time>
      </trkpt>
      <trkpt lat="45.24361" lon="6.11049">
        <ele>2802</ele>
        <time>2021-12-23T12:34:06Z</time>
      </trkpt>
      <trkpt lat="45.24361" lon="6.11048">
        <ele>2803</ele>
        <time>2021-12-23T12:34:07Z</time>
      </trkpt>
      <trkpt lat="45.24361" lon="6.11048">
        <ele>2803</ele>
        <time>2021-12-23T12:34:08Z</time>
      </trkpt>
      <trkpt lat="45.24361" lon="6.11047">
        <ele>2803</ele>
        <time>2021-12-23T12:34:09Z</time>
      </trkpt>
      <trkpt lat="45.2436" lon="6.11046">
        <ele>2803</ele>
        <time>2021-12-23T12:34:10Z</time>
      </trkpt>
      <trkpt lat="45.2436" lon="6.11046">
        <ele>2803</ele>
        <time>2021-12-23T12:34:11Z</time>
      </trkpt>
      <trkpt lat="45.2436" lon="6.11045">
        <ele>2803</ele>
        <time>2021-12-23T12:34:12Z</time>
      </trkpt>
      <trkpt lat="45.2436" lon="6.11045">
        <ele>2803</ele>
        <time>2021-12-23T12:34:13Z</time>
      </trkpt>
      <trkpt lat="45.2436" lon="6.11044">
        <ele>2803</ele>
        <time>2021-12-23T12:34:14Z</time>
      </trkpt>
      <trkpt lat="45.24359" lon="6.11043">
        <ele>2803</ele>
        <time>2021-12-23T12:34:15Z</time>
      </trkpt>
      <trkpt lat="45.24359" lon="6.11043">
        <ele>2803</ele>
        <time>2021-12-23T12:34:16Z</time>
      </trkpt>
      <trkpt lat="45.24359" lon="6.11042">
        <ele>2804</ele>
        <time>2021-12-23T12:34:17Z</time>
      </trkpt>
      <trkpt lat="45.24359" lon="6.11042">
        <ele>2804</ele>
        <time>2021-12-23T12:34:18Z</time>
      </trkpt>
      <trkpt lat="45.24359" lon="6.11041">
        <ele>2804</ele>
        <time>2021-12-23T12:34:19Z</time>
      </trkpt>
      <trkpt lat="45.24359" lon="6.1104">
        <ele>2804</ele>
        <time>2021-12-23T12:34:20Z</time>
      </trkpt>
      <trkpt lat="45.24358" lon="6.11039">
        <ele>2804</ele>
        <time>2021-12-23T12:34:21Z</time>
      </trkpt>
      <trkpt lat="45.24358" lon="6.11039">
        <ele>2804</ele>
        <time>2021-12-23T12:34:23Z</time>
      </trkpt>
      <trkpt lat="45.24358" lon="6.11038">
        <ele>2804</ele>
        <time>2021-12-23T12:34:24Z</time>
      </trkpt>
      <trkpt lat="45.24358" lon="6.11037">
        <ele>2806</ele>
        <time>2021-12-23T12:34:25Z</time>
      </trkpt>
      <trkpt lat="45.24358" lon="6.11036">
        <ele>2806</ele>
        <time>2021-12-23T12:34:26Z</time>
      </trkpt>
      <trkpt lat="45.24358" lon="6.11036">
        <ele>2806</ele>
        <time>2021-12-23T12:34:27Z</time>
      </trkpt>
      <trkpt lat="45.24357" lon="6.11035">
        <ele>2807</ele>
        <time>2021-12-23T12:34:28Z</time>
      </trkpt>
      <trkpt lat="45.24357" lon="6.11034">
        <ele>2807</ele>
        <time>2021-12-23T12:34:29Z</time>
      </trkpt>
      <trkpt lat="45.24357" lon="6.11033">
        <ele>2807</ele>
        <time>2021-12-23T12:34:30Z</time>
      </trkpt>
      <trkpt lat="45.24357" lon="6.11032">
        <ele>2807</ele>
        <time>2021-12-23T12:34:31Z</time>
      </trkpt>
      <trkpt lat="45.24357" lon="6.11032">
        <ele>2807</ele>
        <time>2021-12-23T12:34:32Z</time>
      </trkpt>
      <trkpt lat="45.24357" lon="6.11031">
        <ele>2807</ele>
        <time>2021-12-23T12:34:33Z</time>
      </trkpt>
      <trkpt lat="45.24356" lon="6.1103">
        <ele>2807</ele>
        <time>2021-12-23T12:34:34Z</time>
      </trkpt>
      <trkpt lat="45.24356" lon="6.11029">
        <ele>2807</ele>
        <time>2021-12-23T12:34:35Z</time>
      </trkpt>
      <trkpt lat="45.24356" lon="6.11029">
        <ele>2807</ele>
        <time>2021-12-23T12:34:36Z</time>
      </trkpt>
      <trkpt lat="45.24356" lon="6.11028">
        <ele>2807</ele>
        <time>2021-12-23T12:34:37Z</time>
      </trkpt>
      <trkpt lat="45.24356" lon="6.11028">
        <ele>2808</ele>
        <time>2021-12-23T12:34:38Z</time>
      </trkpt>
      <trkpt lat="45.24356" lon="6.11027">
        <ele>2808</ele>
        <time>2021-12-23T12:34:39Z</time>
      </trkpt>
      <trkpt lat="45.24356" lon="6.11027">
        <ele>2808</ele>
        <time>2021-12-23T12:34:40Z</time>
      </trkpt>
      <trkpt lat="45.24356" lon="6.11026">
        <ele>2808</ele>
        <time>2021-12-23T12:34:42Z</time>
      </trkpt>
      <trkpt lat="45.24356" lon="6.11025">
        <ele>2809</ele>
        <time>2021-12-23T12:34:43Z</time>
      </trkpt>
      <trkpt lat="45.24356" lon="6.11025">
        <ele>2809</ele>
        <time>2021-12-23T12:34:44Z</time>
      </trkpt>
      <trkpt lat="45.24356" lon="6.11024">
        <ele>2809</ele>
        <time>2021-12-23T12:34:45Z</time>
      </trkpt>
      <trkpt lat="45.24356" lon="6.11024">
        <ele>2809</ele>
        <time>2021-12-23T12:34:46Z</time>
      </trkpt>
      <trkpt lat="45.24356" lon="6.11023">
        <ele>2809</ele>
        <time>2021-12-23T12:34:47Z</time>
      </trkpt>
      <trkpt lat="45.24356" lon="6.11022">
        <ele>2809</ele>
        <time>2021-12-23T12:34:48Z</time>
      </trkpt>
      <trkpt lat="45.24355" lon="6.11022">
        <ele>2810</ele>
        <time>2021-12-23T12:34:49Z</time>
      </trkpt>
      <trkpt lat="45.24355" lon="6.11021">
        <ele>2810</ele>
        <time>2021-12-23T12:34:50Z</time>
      </trkpt>
      <trkpt lat="45.24355" lon="6.11021">
        <ele>2810</ele>
        <time>2021-12-23T12:34:51Z</time>
      </trkpt>
      <trkpt lat="45.24355" lon="6.1102">
        <ele>2810</ele>
        <time>2021-12-23T12:34:52Z</time>
      </trkpt>
      <trkpt lat="45.24355" lon="6.1102">
        <ele>2810</ele>
        <time>2021-12-23T12:34:53Z</time>
      </trkpt>
      <trkpt lat="45.24355" lon="6.11019">
        <ele>2811</ele>
        <time>2021-12-23T12:34:54Z</time>
      </trkpt>
      <trkpt lat="45.24355" lon="6.11018">
        <ele>2811</ele>
        <time>2021-12-23T12:34:55Z</time>
      </trkpt>
      <trkpt lat="45.24355" lon="6.11018">
        <ele>2811</ele>
        <time>2021-12-23T12:34:56Z</time>
      </trkpt>
      <trkpt lat="45.24355" lon="6.11017">
        <ele>2811</ele>
        <time>2021-12-23T12:34:57Z</time>
      </trkpt>
      <trkpt lat="45.24355" lon="6.11017">
        <ele>2811</ele>
        <time>2021-12-23T12:34:58Z</time>
      </trkpt>
      <trkpt lat="45.24355" lon="6.11016">
        <ele>2811</ele>
        <time>2021-12-23T12:34:59Z</time>
      </trkpt>
      <trkpt lat="45.24355" lon="6.11016">
        <ele>2812</ele>
        <time>2021-12-23T12:35:01Z</time>
      </trkpt>
      <trkpt lat="45.24355" lon="6.11015">
        <ele>2812</ele>
        <time>2021-12-23T12:35:02Z</time>
      </trkpt>
      <trkpt lat="45.24355" lon="6.11015">
        <ele>2812</ele>
        <time>2021-12-23T12:35:03Z</time>
      </trkpt>
      <trkpt lat="45.24355" lon="6.11014">
        <ele>2812</ele>
        <time>2021-12-23T12:35:04Z</time>
      </trkpt>
      <trkpt lat="45.24354" lon="6.11014">
        <ele>2812</ele>
        <time>2021-12-23T12:35:05Z</time>
      </trkpt>
      <trkpt lat="45.24354" lon="6.11013">
        <ele>2812</ele>
        <time>2021-12-23T12:35:06Z</time>
      </trkpt>
      <trkpt lat="45.24354" lon="6.11013">
        <ele>2812</ele>
        <time>2021-12-23T12:35:07Z</time>
      </trkpt>
      <trkpt lat="45.24354" lon="6.11012">
        <ele>2812</ele>
        <time>2021-12-23T12:35:08Z</time>
      </trkpt>
      <trkpt lat="45.24354" lon="6.11012">
        <ele>2812</ele>
        <time>2021-12-23T12:35:09Z</time>
      </trkpt>
      <trkpt lat="45.24354" lon="6.11011">
        <ele>2812</ele>
        <time>2021-12-23T12:35:10Z</time>
      </trkpt>
      <trkpt lat="45.24354" lon="6.1101">
        <ele>2812</ele>
        <time>2021-12-23T12:35:11Z</time>
      </trkpt>
      <trkpt lat="45.24354" lon="6.1101">
        <ele>2812</ele>
        <time>2021-12-23T12:35:12Z</time>
      </trkpt>
      <trkpt lat="45.24354" lon="6.11009">
        <ele>2812</ele>
        <time>2021-12-23T12:35:13Z</time>
      </trkpt>
      <trkpt lat="45.24354" lon="6.11009">
        <ele>2812</ele>
        <time>2021-12-23T12:35:14Z</time>
      </trkpt>
      <trkpt lat="45.24354" lon="6.11008">
        <ele>2812</ele>
        <time>2021-12-23T12:35:15Z</time>
      </trkpt>
      <trkpt lat="45.24354" lon="6.11008">
        <ele>2812</ele>
        <time>2021-12-23T12:35:16Z</time>
      </trkpt>
      <trkpt lat="45.24354" lon="6.11007">
        <ele>2812</ele>
        <time>2021-12-23T12:35:17Z</time>
      </trkpt>
      <trkpt lat="45.24354" lon="6.11007">
        <ele>2812</ele>
        <time>2021-12-23T12:35:18Z</time>
      </trkpt>
      <trkpt lat="45.24353" lon="6.11006">
        <ele>2813</ele>
        <time>2021-12-23T12:35:20Z</time>
      </trkpt>
      <trkpt lat="45.24353" lon="6.11006">
        <ele>2813</ele>
        <time>2021-12-23T12:35:21Z</time>
      </trkpt>
      <trkpt lat="45.24353" lon="6.11005">
        <ele>2813</ele>
        <time>2021-12-23T12:35:22Z</time>
      </trkpt>
      <trkpt lat="45.24353" lon="6.11005">
        <ele>2813</ele>
        <time>2021-12-23T12:35:23Z</time>
      </trkpt>
      <trkpt lat="45.24352" lon="6.11004">
        <ele>2814</ele>
        <time>2021-12-23T12:35:24Z</time>
      </trkpt>
      <trkpt lat="45.24352" lon="6.11004">
        <ele>2814</ele>
        <time>2021-12-23T12:35:25Z</time>
      </trkpt>
      <trkpt lat="45.24351" lon="6.11003">
        <ele>2815</ele>
        <time>2021-12-23T12:35:26Z</time>
      </trkpt>
      <trkpt lat="45.24351" lon="6.11002">
        <ele>2815</ele>
        <time>2021-12-23T12:35:27Z</time>
      </trkpt>
      <trkpt lat="45.2435" lon="6.11002">
        <ele>2815</ele>
        <time>2021-12-23T12:35:28Z</time>
      </trkpt>
      <trkpt lat="45.2435" lon="6.11001">
        <ele>2815</ele>
        <time>2021-12-23T12:35:29Z</time>
      </trkpt>
      <trkpt lat="45.24349" lon="6.11001">
        <ele>2815</ele>
        <time>2021-12-23T12:35:30Z</time>
      </trkpt>
      <trkpt lat="45.24349" lon="6.11">
        <ele>2815</ele>
        <time>2021-12-23T12:35:31Z</time>
      </trkpt>
      <trkpt lat="45.24348" lon="6.11">
        <ele>2815</ele>
        <time>2021-12-23T12:35:32Z</time>
      </trkpt>
      <trkpt lat="45.24348" lon="6.10999">
        <ele>2815</ele>
        <time>2021-12-23T12:35:33Z</time>
      </trkpt>
      <trkpt lat="45.24347" lon="6.10999">
        <ele>2815</ele>
        <time>2021-12-23T12:35:34Z</time>
      </trkpt>
      <trkpt lat="45.24346" lon="6.10998">
        <ele>2815</ele>
        <time>2021-12-23T12:35:35Z</time>
      </trkpt>
      <trkpt lat="45.24346" lon="6.10997">
        <ele>2816</ele>
        <time>2021-12-23T12:35:36Z</time>
      </trkpt>
      <trkpt lat="45.24346" lon="6.10997">
        <ele>2816</ele>
        <time>2021-12-23T12:35:37Z</time>
      </trkpt>
      <trkpt lat="45.24345" lon="6.10996">
        <ele>2816</ele>
        <time>2021-12-23T12:35:39Z</time>
      </trkpt>
      <trkpt lat="45.24345" lon="6.10996">
        <ele>2816</ele>
        <time>2021-12-23T12:35:40Z</time>
      </trkpt>
      <trkpt lat="45.24345" lon="6.10995">
        <ele>2816</ele>
        <time>2021-12-23T12:35:41Z</time>
      </trkpt>
      <trkpt lat="45.24345" lon="6.10995">
        <ele>2816</ele>
        <time>2021-12-23T12:35:42Z</time>
      </trkpt>
      <trkpt lat="45.24345" lon="6.10994">
        <ele>2816</ele>
        <time>2021-12-23T12:35:43Z</time>
      </trkpt>
      <trkpt lat="45.24344" lon="6.10994">
        <ele>2816</ele>
        <time>2021-12-23T12:35:44Z</time>
      </trkpt>
      <trkpt lat="45.24344" lon="6.10993">
        <ele>2816</ele>
        <time>2021-12-23T12:35:45Z</time>
      </trkpt>
      <trkpt lat="45.24344" lon="6.10993">
        <ele>2818</ele>
        <time>2021-12-23T12:35:46Z</time>
      </trkpt>
      <trkpt lat="45.24344" lon="6.10992">
        <ele>2818</ele>
        <time>2021-12-23T12:35:47Z</time>
      </trkpt>
      <trkpt lat="45.24343" lon="6.10992">
        <ele>2818</ele>
        <time>2021-12-23T12:35:48Z</time>
      </trkpt>
      <trkpt lat="45.24343" lon="6.10991">
        <ele>2818</ele>
        <time>2021-12-23T12:35:49Z</time>
      </trkpt>
      <trkpt lat="45.24343" lon="6.10991">
        <ele>2818</ele>
        <time>2021-12-23T12:35:50Z</time>
      </trkpt>
      <trkpt lat="45.24343" lon="6.1099">
        <ele>2818</ele>
        <time>2021-12-23T12:35:51Z</time>
      </trkpt>
      <trkpt lat="45.24343" lon="6.1099">
        <ele>2819</ele>
        <time>2021-12-23T12:35:52Z</time>
      </trkpt>
      <trkpt lat="45.24342" lon="6.10989">
        <ele>2819</ele>
        <time>2021-12-23T12:35:53Z</time>
      </trkpt>
      <trkpt lat="45.24342" lon="6.10989">
        <ele>2820</ele>
        <time>2021-12-23T12:35:54Z</time>
      </trkpt>
      <trkpt lat="45.24342" lon="6.10988">
        <ele>2820</ele>
        <time>2021-12-23T12:35:55Z</time>
      </trkpt>
      <trkpt lat="45.24342" lon="6.10988">
        <ele>2820</ele>
        <time>2021-12-23T12:35:56Z</time>
      </trkpt>
      <trkpt lat="45.24342" lon="6.10987">
        <ele>2820</ele>
        <time>2021-12-23T12:35:58Z</time>
      </trkpt>
      <trkpt lat="45.24342" lon="6.10987">
        <ele>2820</ele>
        <time>2021-12-23T12:35:59Z</time>
      </trkpt>
      <trkpt lat="45.24342" lon="6.10987">
        <ele>2820</ele>
        <time>2021-12-23T12:36:00Z</time>
      </trkpt>
      <trkpt lat="45.24342" lon="6.10986">
        <ele>2820</ele>
        <time>2021-12-23T12:36:01Z</time>
      </trkpt>
      <trkpt lat="45.24342" lon="6.10986">
        <ele>2820</ele>
        <time>2021-12-23T12:36:02Z</time>
      </trkpt>
      <trkpt lat="45.24342" lon="6.10986">
        <ele>2820</ele>
        <time>2021-12-23T12:36:03Z</time>
      </trkpt>
      <trkpt lat="45.24342" lon="6.10985">
        <ele>2821</ele>
        <time>2021-12-23T12:36:04Z</time>
      </trkpt>
      <trkpt lat="45.24342" lon="6.10985">
        <ele>2821</ele>
        <time>2021-12-23T12:36:05Z</time>
      </trkpt>
      <trkpt lat="45.24342" lon="6.10984">
        <ele>2821</ele>
        <time>2021-12-23T12:36:06Z</time>
      </trkpt>
      <trkpt lat="45.24342" lon="6.10984">
        <ele>2821</ele>
        <time>2021-12-23T12:36:07Z</time>
      </trkpt>
      <trkpt lat="45.24342" lon="6.10984">
        <ele>2821</ele>
        <time>2021-12-23T12:36:08Z</time>
      </trkpt>
      <trkpt lat="45.24342" lon="6.10983">
        <ele>2821</ele>
        <time>2021-12-23T12:36:09Z</time>
      </trkpt>
      <trkpt lat="45.24342" lon="6.10983">
        <ele>2821</ele>
        <time>2021-12-23T12:36:10Z</time>
      </trkpt>
      <trkpt lat="45.24342" lon="6.10983">
        <ele>2822</ele>
        <time>2021-12-23T12:36:11Z</time>
      </trkpt>
      <trkpt lat="45.24342" lon="6.10982">
        <ele>2822</ele>
        <time>2021-12-23T12:36:12Z</time>
      </trkpt>
      <trkpt lat="45.24342" lon="6.10982">
        <ele>2822</ele>
        <time>2021-12-23T12:36:13Z</time>
      </trkpt>
      <trkpt lat="45.24342" lon="6.10982">
        <ele>2822</ele>
        <time>2021-12-23T12:36:14Z</time>
      </trkpt>
      <trkpt lat="45.24343" lon="6.10981">
        <ele>2822</ele>
        <time>2021-12-23T12:36:15Z</time>
      </trkpt>
      <trkpt lat="45.24343" lon="6.10981">
        <ele>2822</ele>
        <time>2021-12-23T12:36:17Z</time>
      </trkpt>
      <trkpt lat="45.24343" lon="6.10981">
        <ele>2822</ele>
        <time>2021-12-23T12:36:18Z</time>
      </trkpt>
      <trkpt lat="45.24343" lon="6.1098">
        <ele>2822</ele>
        <time>2021-12-23T12:36:19Z</time>
      </trkpt>
      <trkpt lat="45.24343" lon="6.1098">
        <ele>2822</ele>
        <time>2021-12-23T12:36:20Z</time>
      </trkpt>
      <trkpt lat="45.24343" lon="6.10979">
        <ele>2822</ele>
        <time>2021-12-23T12:36:21Z</time>
      </trkpt>
      <trkpt lat="45.24343" lon="6.10979">
        <ele>2822</ele>
        <time>2021-12-23T12:36:22Z</time>
      </trkpt>
      <trkpt lat="45.24343" lon="6.10979">
        <ele>2822</ele>
        <time>2021-12-23T12:36:23Z</time>
      </trkpt>
      <trkpt lat="45.24343" lon="6.10978">
        <ele>2822</ele>
        <time>2021-12-23T12:36:24Z</time>
      </trkpt>
      <trkpt lat="45.24343" lon="6.10978">
        <ele>2822</ele>
        <time>2021-12-23T12:36:25Z</time>
      </trkpt>
      <trkpt lat="45.24343" lon="6.10978">
        <ele>2823</ele>
        <time>2021-12-23T12:36:26Z</time>
      </trkpt>
      <trkpt lat="45.24343" lon="6.10977">
        <ele>2823</ele>
        <time>2021-12-23T12:36:27Z</time>
      </trkpt>
      <trkpt lat="45.24343" lon="6.10977">
        <ele>2823</ele>
        <time>2021-12-23T12:36:28Z</time>
      </trkpt>
      <trkpt lat="45.24343" lon="6.10977">
        <ele>2823</ele>
        <time>2021-12-23T12:36:29Z</time>
      </trkpt>
      <trkpt lat="45.24343" lon="6.10976">
        <ele>2823</ele>
        <time>2021-12-23T12:36:30Z</time>
      </trkpt>
      <trkpt lat="45.24343" lon="6.10976">
        <ele>2823</ele>
        <time>2021-12-23T12:36:31Z</time>
      </trkpt>
      <trkpt lat="45.24343" lon="6.10975">
        <ele>2823</ele>
        <time>2021-12-23T12:36:32Z</time>
      </trkpt>
      <trkpt lat="45.24343" lon="6.10975">
        <ele>2823</ele>
        <time>2021-12-23T12:36:33Z</time>
      </trkpt>
      <trkpt lat="45.24343" lon="6.10974">
        <ele>2823</ele>
        <time>2021-12-23T12:36:34Z</time>
      </trkpt>
      <trkpt lat="45.24343" lon="6.10974">
        <ele>2823</ele>
        <time>2021-12-23T12:36:36Z</time>
      </trkpt>
      <trkpt lat="45.24342" lon="6.10973">
        <ele>2823</ele>
        <time>2021-12-23T12:36:37Z</time>
      </trkpt>
      <trkpt lat="45.24342" lon="6.10973">
        <ele>2823</ele>
        <time>2021-12-23T12:36:38Z</time>
      </trkpt>
      <trkpt lat="45.24342" lon="6.10972">
        <ele>2823</ele>
        <time>2021-12-23T12:36:39Z</time>
      </trkpt>
      <trkpt lat="45.24341" lon="6.10972">
        <ele>2823</ele>
        <time>2021-12-23T12:36:40Z</time>
      </trkpt>
      <trkpt lat="45.24341" lon="6.10971">
        <ele>2823</ele>
        <time>2021-12-23T12:36:41Z</time>
      </trkpt>
      <trkpt lat="45.24341" lon="6.10971">
        <ele>2823</ele>
        <time>2021-12-23T12:36:42Z</time>
      </trkpt>
      <trkpt lat="45.24341" lon="6.1097">
        <ele>2824</ele>
        <time>2021-12-23T12:36:43Z</time>
      </trkpt>
      <trkpt lat="45.2434" lon="6.1097">
        <ele>2824</ele>
        <time>2021-12-23T12:36:44Z</time>
      </trkpt>
      <trkpt lat="45.2434" lon="6.10969">
        <ele>2824</ele>
        <time>2021-12-23T12:36:45Z</time>
      </trkpt>
      <trkpt lat="45.2434" lon="6.10969">
        <ele>2824</ele>
        <time>2021-12-23T12:36:46Z</time>
      </trkpt>
      <trkpt lat="45.2434" lon="6.10968">
        <ele>2825</ele>
        <time>2021-12-23T12:36:47Z</time>
      </trkpt>
      <trkpt lat="45.24339" lon="6.10968">
        <ele>2825</ele>
        <time>2021-12-23T12:36:48Z</time>
      </trkpt>
      <trkpt lat="45.24339" lon="6.10967">
        <ele>2825</ele>
        <time>2021-12-23T12:36:49Z</time>
      </trkpt>
      <trkpt lat="45.24339" lon="6.10967">
        <ele>2825</ele>
        <time>2021-12-23T12:36:50Z</time>
      </trkpt>
      <trkpt lat="45.24339" lon="6.10966">
        <ele>2825</ele>
        <time>2021-12-23T12:36:51Z</time>
      </trkpt>
      <trkpt lat="45.24338" lon="6.10966">
        <ele>2825</ele>
        <time>2021-12-23T12:36:52Z</time>
      </trkpt>
      <trkpt lat="45.24338" lon="6.10965">
        <ele>2825</ele>
        <time>2021-12-23T12:36:53Z</time>
      </trkpt>
      <trkpt lat="45.24338" lon="6.10965">
        <ele>2825</ele>
        <time>2021-12-23T12:36:55Z</time>
      </trkpt>
      <trkpt lat="45.24338" lon="6.10965">
        <ele>2825</ele>
        <time>2021-12-23T12:36:56Z</time>
      </trkpt>
      <trkpt lat="45.24338" lon="6.10965">
        <ele>2825</ele>
        <time>2021-12-23T12:36:57Z</time>
      </trkpt>
      <trkpt lat="45.24338" lon="6.10965">
        <ele>2826</ele>
        <time>2021-12-23T12:36:58Z</time>
      </trkpt>
      <trkpt lat="45.24338" lon="6.10965">
        <ele>2827</ele>
        <time>2021-12-23T12:36:59Z</time>
      </trkpt>
      <trkpt lat="45.24338" lon="6.10965">
        <ele>2827</ele>
        <time>2021-12-23T12:37:00Z</time>
      </trkpt>
      <trkpt lat="45.24338" lon="6.10965">
        <ele>2827</ele>
        <time>2021-12-23T12:37:01Z</time>
      </trkpt>
      <trkpt lat="45.24338" lon="6.10965">
        <ele>2827</ele>
        <time>2021-12-23T12:37:02Z</time>
      </trkpt>
      <trkpt lat="45.24338" lon="6.10965">
        <ele>2827</ele>
        <time>2021-12-23T12:37:03Z</time>
      </trkpt>
      <trkpt lat="45.24338" lon="6.10965">
        <ele>2827</ele>
        <time>2021-12-23T12:37:04Z</time>
      </trkpt>
      <trkpt lat="45.24338" lon="6.10965">
        <ele>2828</ele>
        <time>2021-12-23T12:37:05Z</time>
      </trkpt>
      <trkpt lat="45.24338" lon="6.10965">
        <ele>2828</ele>
        <time>2021-12-23T12:37:06Z</time>
      </trkpt>
      <trkpt lat="45.24338" lon="6.10965">
        <ele>2828</ele>
        <time>2021-12-23T12:37:07Z</time>
      </trkpt>
      <trkpt lat="45.24338" lon="6.10965">
        <ele>2828</ele>
        <time>2021-12-23T12:37:08Z</time>
      </trkpt>
      <trkpt lat="45.24338" lon="6.10965">
        <ele>2828</ele>
        <time>2021-12-23T12:37:09Z</time>
      </trkpt>
      <trkpt lat="45.24338" lon="6.10965">
        <ele>2828</ele>
        <time>2021-12-23T12:37:10Z</time>
      </trkpt>
      <trkpt lat="45.24338" lon="6.10965">
        <ele>2828</ele>
        <time>2021-12-23T12:37:11Z</time>
      </trkpt>
      <trkpt lat="45.24329" lon="6.10965">
        <ele>2828</ele>
        <time>2021-12-23T12:37:12Z</time>
      </trkpt>
      <trkpt lat="45.24329" lon="6.10965">
        <ele>2828</ele>
        <time>2021-12-23T12:37:14Z</time>
      </trkpt>
      <trkpt lat="45.24329" lon="6.10965">
        <ele>2828</ele>
        <time>2021-12-23T12:37:15Z</time>
      </trkpt>
      <trkpt lat="45.24328" lon="6.10965">
        <ele>2830</ele>
        <time>2021-12-23T12:37:16Z</time>
      </trkpt>
      <trkpt lat="45.24327" lon="6.10964">
        <ele>2830</ele>
        <time>2021-12-23T12:37:17Z</time>
      </trkpt>
      <trkpt lat="45.24327" lon="6.10964">
        <ele>2830</ele>
        <time>2021-12-23T12:37:18Z</time>
      </trkpt>
      <trkpt lat="45.24326" lon="6.10964">
        <ele>2831</ele>
        <time>2021-12-23T12:37:19Z</time>
      </trkpt>
      <trkpt lat="45.24326" lon="6.10963">
        <ele>2831</ele>
        <time>2021-12-23T12:37:20Z</time>
      </trkpt>
      <trkpt lat="45.24325" lon="6.10963">
        <ele>2831</ele>
        <time>2021-12-23T12:37:21Z</time>
      </trkpt>
      <trkpt lat="45.24324" lon="6.10963">
        <ele>2831</ele>
        <time>2021-12-23T12:37:22Z</time>
      </trkpt>
      <trkpt lat="45.24324" lon="6.10963">
        <ele>2831</ele>
        <time>2021-12-23T12:37:23Z</time>
      </trkpt>
      <trkpt lat="45.24323" lon="6.10962">
        <ele>2831</ele>
        <time>2021-12-23T12:37:24Z</time>
      </trkpt>
      <trkpt lat="45.24323" lon="6.10962">
        <ele>2831</ele>
        <time>2021-12-23T12:37:25Z</time>
      </trkpt>
      <trkpt lat="45.24322" lon="6.10962">
        <ele>2831</ele>
        <time>2021-12-23T12:37:26Z</time>
      </trkpt>
      <trkpt lat="45.24321" lon="6.10961">
        <ele>2831</ele>
        <time>2021-12-23T12:37:27Z</time>
      </trkpt>
      <trkpt lat="45.24321" lon="6.10961">
        <ele>2831</ele>
        <time>2021-12-23T12:37:28Z</time>
      </trkpt>
      <trkpt lat="45.24319" lon="6.10961">
        <ele>2832</ele>
        <time>2021-12-23T12:37:29Z</time>
      </trkpt>
      <trkpt lat="45.24318" lon="6.1096">
        <ele>2832</ele>
        <time>2021-12-23T12:37:30Z</time>
      </trkpt>
      <trkpt lat="45.24317" lon="6.1096">
        <ele>2832</ele>
        <time>2021-12-23T12:37:31Z</time>
      </trkpt>
      <trkpt lat="45.24315" lon="6.10959">
        <ele>2833</ele>
        <time>2021-12-23T12:37:33Z</time>
      </trkpt>
      <trkpt lat="45.24314" lon="6.10959">
        <ele>2833</ele>
        <time>2021-12-23T12:37:34Z</time>
      </trkpt>
      <trkpt lat="45.24313" lon="6.10958">
        <ele>2833</ele>
        <time>2021-12-23T12:37:35Z</time>
      </trkpt>
      <trkpt lat="45.24311" lon="6.10958">
        <ele>2833</ele>
        <time>2021-12-23T12:37:36Z</time>
      </trkpt>
      <trkpt lat="45.24311" lon="6.10957">
        <ele>2833</ele>
        <time>2021-12-23T12:37:37Z</time>
      </trkpt>
      <trkpt lat="45.24311" lon="6.10957">
        <ele>2833</ele>
        <time>2021-12-23T12:37:38Z</time>
      </trkpt>
      <trkpt lat="45.24311" lon="6.10956">
        <ele>2833</ele>
        <time>2021-12-23T12:37:39Z</time>
      </trkpt>
      <trkpt lat="45.24311" lon="6.10956">
        <ele>2834</ele>
        <time>2021-12-23T12:37:40Z</time>
      </trkpt>
      <trkpt lat="45.24312" lon="6.10955">
        <ele>2834</ele>
        <time>2021-12-23T12:37:41Z</time>
      </trkpt>
      <trkpt lat="45.24312" lon="6.10955">
        <ele>2834</ele>
        <time>2021-12-23T12:37:42Z</time>
      </trkpt>
      <trkpt lat="45.24312" lon="6.10954">
        <ele>2834</ele>
        <time>2021-12-23T12:37:43Z</time>
      </trkpt>
      <trkpt lat="45.24312" lon="6.10954">
        <ele>2834</ele>
        <time>2021-12-23T12:37:44Z</time>
      </trkpt>
      <trkpt lat="45.24312" lon="6.10954">
        <ele>2834</ele>
        <time>2021-12-23T12:37:45Z</time>
      </trkpt>
      <trkpt lat="45.24312" lon="6.10953">
        <ele>2834</ele>
        <time>2021-12-23T12:37:46Z</time>
      </trkpt>
      <trkpt lat="45.24312" lon="6.10953">
        <ele>2834</ele>
        <time>2021-12-23T12:37:47Z</time>
      </trkpt>
      <trkpt lat="45.24312" lon="6.10952">
        <ele>2834</ele>
        <time>2021-12-23T12:37:48Z</time>
      </trkpt>
      <trkpt lat="45.24312" lon="6.10952">
        <ele>2834</ele>
        <time>2021-12-23T12:37:49Z</time>
      </trkpt>
      <trkpt lat="45.24312" lon="6.10951">
        <ele>2835</ele>
        <time>2021-12-23T12:37:50Z</time>
      </trkpt>
      <trkpt lat="45.24312" lon="6.10951">
        <ele>2835</ele>
        <time>2021-12-23T12:37:52Z</time>
      </trkpt>
      <trkpt lat="45.24312" lon="6.1095">
        <ele>2835</ele>
        <time>2021-12-23T12:37:53Z</time>
      </trkpt>
      <trkpt lat="45.24312" lon="6.1095">
        <ele>2835</ele>
        <time>2021-12-23T12:37:54Z</time>
      </trkpt>
      <trkpt lat="45.24312" lon="6.1095">
        <ele>2835</ele>
        <time>2021-12-23T12:37:55Z</time>
      </trkpt>
      <trkpt lat="45.24312" lon="6.10949">
        <ele>2835</ele>
        <time>2021-12-23T12:37:56Z</time>
      </trkpt>
      <trkpt lat="45.24312" lon="6.10949">
        <ele>2835</ele>
        <time>2021-12-23T12:37:57Z</time>
      </trkpt>
      <trkpt lat="45.24312" lon="6.10948">
        <ele>2836</ele>
        <time>2021-12-23T12:37:58Z</time>
      </trkpt>
      <trkpt lat="45.24312" lon="6.10948">
        <ele>2836</ele>
        <time>2021-12-23T12:37:59Z</time>
      </trkpt>
      <trkpt lat="45.24312" lon="6.10947">
        <ele>2836</ele>
        <time>2021-12-23T12:38:00Z</time>
      </trkpt>
      <trkpt lat="45.24312" lon="6.10947">
        <ele>2836</ele>
        <time>2021-12-23T12:38:01Z</time>
      </trkpt>
      <trkpt lat="45.24312" lon="6.10946">
        <ele>2836</ele>
        <time>2021-12-23T12:38:02Z</time>
      </trkpt>
      <trkpt lat="45.24312" lon="6.10946">
        <ele>2836</ele>
        <time>2021-12-23T12:38:03Z</time>
      </trkpt>
      <trkpt lat="45.24312" lon="6.10946">
        <ele>2837</ele>
        <time>2021-12-23T12:38:04Z</time>
      </trkpt>
      <trkpt lat="45.24312" lon="6.10945">
        <ele>2837</ele>
        <time>2021-12-23T12:38:05Z</time>
      </trkpt>
      <trkpt lat="45.24313" lon="6.10944">
        <ele>2837</ele>
        <time>2021-12-23T12:38:06Z</time>
      </trkpt>
      <trkpt lat="45.24313" lon="6.10944">
        <ele>2838</ele>
        <time>2021-12-23T12:38:07Z</time>
      </trkpt>
      <trkpt lat="45.24313" lon="6.10943">
        <ele>2838</ele>
        <time>2021-12-23T12:38:08Z</time>
      </trkpt>
      <trkpt lat="45.24313" lon="6.10942">
        <ele>2838</ele>
        <time>2021-12-23T12:38:09Z</time>
      </trkpt>
      <trkpt lat="45.24313" lon="6.10941">
        <ele>2838</ele>
        <time>2021-12-23T12:38:11Z</time>
      </trkpt>
      <trkpt lat="45.24313" lon="6.1094">
        <ele>2838</ele>
        <time>2021-12-23T12:38:12Z</time>
      </trkpt>
      <trkpt lat="45.24314" lon="6.1094">
        <ele>2838</ele>
        <time>2021-12-23T12:38:13Z</time>
      </trkpt>
      <trkpt lat="45.24314" lon="6.10939">
        <ele>2839</ele>
        <time>2021-12-23T12:38:14Z</time>
      </trkpt>
      <trkpt lat="45.24314" lon="6.10938">
        <ele>2839</ele>
        <time>2021-12-23T12:38:15Z</time>
      </trkpt>
      <trkpt lat="45.24314" lon="6.10937">
        <ele>2839</ele>
        <time>2021-12-23T12:38:16Z</time>
      </trkpt>
      <trkpt lat="45.24314" lon="6.10937">
        <ele>2839</ele>
        <time>2021-12-23T12:38:17Z</time>
      </trkpt>
      <trkpt lat="45.24314" lon="6.10936">
        <ele>2839</ele>
        <time>2021-12-23T12:38:18Z</time>
      </trkpt>
      <trkpt lat="45.24314" lon="6.10935">
        <ele>2839</ele>
        <time>2021-12-23T12:38:19Z</time>
      </trkpt>
      <trkpt lat="45.24315" lon="6.10934">
        <ele>2839</ele>
        <time>2021-12-23T12:38:20Z</time>
      </trkpt>
      <trkpt lat="45.24315" lon="6.10933">
        <ele>2840</ele>
        <time>2021-12-23T12:38:21Z</time>
      </trkpt>
      <trkpt lat="45.24315" lon="6.10933">
        <ele>2840</ele>
        <time>2021-12-23T12:38:22Z</time>
      </trkpt>
      <trkpt lat="45.24315" lon="6.10932">
        <ele>2840</ele>
        <time>2021-12-23T12:38:23Z</time>
      </trkpt>
      <trkpt lat="45.24315" lon="6.10932">
        <ele>2840</ele>
        <time>2021-12-23T12:38:24Z</time>
      </trkpt>
      <trkpt lat="45.24315" lon="6.10932">
        <ele>2840</ele>
        <time>2021-12-23T12:38:25Z</time>
      </trkpt>
      <trkpt lat="45.24314" lon="6.10931">
        <ele>2840</ele>
        <time>2021-12-23T12:38:26Z</time>
      </trkpt>
      <trkpt lat="45.24314" lon="6.10931">
        <ele>2840</ele>
        <time>2021-12-23T12:38:27Z</time>
      </trkpt>
      <trkpt lat="45.24314" lon="6.10931">
        <ele>2840</ele>
        <time>2021-12-23T12:38:28Z</time>
      </trkpt>
      <trkpt lat="45.24314" lon="6.10931">
        <ele>2840</ele>
        <time>2021-12-23T12:38:30Z</time>
      </trkpt>
      <trkpt lat="45.24314" lon="6.1093">
        <ele>2840</ele>
        <time>2021-12-23T12:38:31Z</time>
      </trkpt>
      <trkpt lat="45.24314" lon="6.1093">
        <ele>2840</ele>
        <time>2021-12-23T12:38:32Z</time>
      </trkpt>
      <trkpt lat="45.24314" lon="6.1093">
        <ele>2840</ele>
        <time>2021-12-23T12:38:33Z</time>
      </trkpt>
      <trkpt lat="45.24313" lon="6.10929">
        <ele>2840</ele>
        <time>2021-12-23T12:38:34Z</time>
      </trkpt>
      <trkpt lat="45.24313" lon="6.10929">
        <ele>2840</ele>
        <time>2021-12-23T12:38:35Z</time>
      </trkpt>
      <trkpt lat="45.24313" lon="6.10929">
        <ele>2840</ele>
        <time>2021-12-23T12:38:36Z</time>
      </trkpt>
      <trkpt lat="45.24313" lon="6.10928">
        <ele>2840</ele>
        <time>2021-12-23T12:38:37Z</time>
      </trkpt>
      <trkpt lat="45.24313" lon="6.10928">
        <ele>2840</ele>
        <time>2021-12-23T12:38:38Z</time>
      </trkpt>
      <trkpt lat="45.24313" lon="6.10928">
        <ele>2840</ele>
        <time>2021-12-23T12:38:39Z</time>
      </trkpt>
      <trkpt lat="45.24313" lon="6.10927">
        <ele>2840</ele>
        <time>2021-12-23T12:38:40Z</time>
      </trkpt>
      <trkpt lat="45.24313" lon="6.10927">
        <ele>2840</ele>
        <time>2021-12-23T12:38:41Z</time>
      </trkpt>
      <trkpt lat="45.24312" lon="6.10927">
        <ele>2842</ele>
        <time>2021-12-23T12:38:42Z</time>
      </trkpt>
      <trkpt lat="45.24312" lon="6.10926">
        <ele>2842</ele>
        <time>2021-12-23T12:38:43Z</time>
      </trkpt>
      <trkpt lat="45.24312" lon="6.10926">
        <ele>2842</ele>
        <time>2021-12-23T12:38:44Z</time>
      </trkpt>
      <trkpt lat="45.24312" lon="6.10926">
        <ele>2843</ele>
        <time>2021-12-23T12:38:45Z</time>
      </trkpt>
      <trkpt lat="45.24312" lon="6.10926">
        <ele>2843</ele>
        <time>2021-12-23T12:38:46Z</time>
      </trkpt>
      <trkpt lat="45.24312" lon="6.10925">
        <ele>2843</ele>
        <time>2021-12-23T12:38:47Z</time>
      </trkpt>
      <trkpt lat="45.24312" lon="6.10925">
        <ele>2843</ele>
        <time>2021-12-23T12:38:49Z</time>
      </trkpt>
      <trkpt lat="45.24312" lon="6.10925">
        <ele>2843</ele>
        <time>2021-12-23T12:38:50Z</time>
      </trkpt>
      <trkpt lat="45.24311" lon="6.10924">
        <ele>2843</ele>
        <time>2021-12-23T12:38:51Z</time>
      </trkpt>
      <trkpt lat="45.24311" lon="6.10924">
        <ele>2843</ele>
        <time>2021-12-23T12:38:52Z</time>
      </trkpt>
      <trkpt lat="45.24311" lon="6.10924">
        <ele>2843</ele>
        <time>2021-12-23T12:38:53Z</time>
      </trkpt>
      <trkpt lat="45.24311" lon="6.10923">
        <ele>2844</ele>
        <time>2021-12-23T12:38:54Z</time>
      </trkpt>
      <trkpt lat="45.24311" lon="6.10923">
        <ele>2844</ele>
        <time>2021-12-23T12:38:55Z</time>
      </trkpt>
      <trkpt lat="45.24311" lon="6.10923">
        <ele>2844</ele>
        <time>2021-12-23T12:38:56Z</time>
      </trkpt>
      <trkpt lat="45.24311" lon="6.10922">
        <ele>2844</ele>
        <time>2021-12-23T12:38:57Z</time>
      </trkpt>
      <trkpt lat="45.2431" lon="6.10922">
        <ele>2844</ele>
        <time>2021-12-23T12:38:58Z</time>
      </trkpt>
      <trkpt lat="45.2431" lon="6.10922">
        <ele>2844</ele>
        <time>2021-12-23T12:38:59Z</time>
      </trkpt>
      <trkpt lat="45.2431" lon="6.10921">
        <ele>2844</ele>
        <time>2021-12-23T12:39:00Z</time>
      </trkpt>
      <trkpt lat="45.2431" lon="6.10921">
        <ele>2844</ele>
        <time>2021-12-23T12:39:01Z</time>
      </trkpt>
      <trkpt lat="45.24309" lon="6.1092">
        <ele>2845</ele>
        <time>2021-12-23T12:39:02Z</time>
      </trkpt>
      <trkpt lat="45.24309" lon="6.1092">
        <ele>2845</ele>
        <time>2021-12-23T12:39:03Z</time>
      </trkpt>
      <trkpt lat="45.24309" lon="6.10919">
        <ele>2846</ele>
        <time>2021-12-23T12:39:04Z</time>
      </trkpt>
      <trkpt lat="45.24308" lon="6.10919">
        <ele>2846</ele>
        <time>2021-12-23T12:39:05Z</time>
      </trkpt>
      <trkpt lat="45.24308" lon="6.10919">
        <ele>2846</ele>
        <time>2021-12-23T12:39:06Z</time>
      </trkpt>
      <trkpt lat="45.24308" lon="6.10918">
        <ele>2846</ele>
        <time>2021-12-23T12:39:08Z</time>
      </trkpt>
      <trkpt lat="45.24308" lon="6.10918">
        <ele>2846</ele>
        <time>2021-12-23T12:39:09Z</time>
      </trkpt>
      <trkpt lat="45.24307" lon="6.10917">
        <ele>2846</ele>
        <time>2021-12-23T12:39:10Z</time>
      </trkpt>
      <trkpt lat="45.24307" lon="6.10917">
        <ele>2846</ele>
        <time>2021-12-23T12:39:11Z</time>
      </trkpt>
      <trkpt lat="45.24307" lon="6.10916">
        <ele>2846</ele>
        <time>2021-12-23T12:39:12Z</time>
      </trkpt>
      <trkpt lat="45.24306" lon="6.10916">
        <ele>2847</ele>
        <time>2021-12-23T12:39:13Z</time>
      </trkpt>
      <trkpt lat="45.24306" lon="6.10915">
        <ele>2847</ele>
        <time>2021-12-23T12:39:14Z</time>
      </trkpt>
      <trkpt lat="45.24306" lon="6.10915">
        <ele>2847</ele>
        <time>2021-12-23T12:39:15Z</time>
      </trkpt>
      <trkpt lat="45.24306" lon="6.10914">
        <ele>2847</ele>
        <time>2021-12-23T12:39:16Z</time>
      </trkpt>
      <trkpt lat="45.24305" lon="6.10914">
        <ele>2847</ele>
        <time>2021-12-23T12:39:17Z</time>
      </trkpt>
      <trkpt lat="45.24305" lon="6.10914">
        <ele>2847</ele>
        <time>2021-12-23T12:39:18Z</time>
      </trkpt>
      <trkpt lat="45.24305" lon="6.10913">
        <ele>2848</ele>
        <time>2021-12-23T12:39:19Z</time>
      </trkpt>
      <trkpt lat="45.24304" lon="6.10913">
        <ele>2848</ele>
        <time>2021-12-23T12:39:20Z</time>
      </trkpt>
      <trkpt lat="45.24303" lon="6.10913">
        <ele>2848</ele>
        <time>2021-12-23T12:39:21Z</time>
      </trkpt>
      <trkpt lat="45.24302" lon="6.10912">
        <ele>2848</ele>
        <time>2021-12-23T12:39:22Z</time>
      </trkpt>
      <trkpt lat="45.24301" lon="6.10912">
        <ele>2848</ele>
        <time>2021-12-23T12:39:23Z</time>
      </trkpt>
      <trkpt lat="45.243" lon="6.10912">
        <ele>2848</ele>
        <time>2021-12-23T12:39:24Z</time>
      </trkpt>
      <trkpt lat="45.24299" lon="6.10912">
        <ele>2848</ele>
        <time>2021-12-23T12:39:25Z</time>
      </trkpt>
      <trkpt lat="45.24299" lon="6.10911">
        <ele>2849</ele>
        <time>2021-12-23T12:39:27Z</time>
      </trkpt>
      <trkpt lat="45.24298" lon="6.10911">
        <ele>2849</ele>
        <time>2021-12-23T12:39:28Z</time>
      </trkpt>
      <trkpt lat="45.24297" lon="6.10911">
        <ele>2849</ele>
        <time>2021-12-23T12:39:29Z</time>
      </trkpt>
      <trkpt lat="45.24296" lon="6.10911">
        <ele>2850</ele>
        <time>2021-12-23T12:39:30Z</time>
      </trkpt>
      <trkpt lat="45.24296" lon="6.10911">
        <ele>2850</ele>
        <time>2021-12-23T12:39:31Z</time>
      </trkpt>
      <trkpt lat="45.24296" lon="6.10911">
        <ele>2850</ele>
        <time>2021-12-23T12:39:32Z</time>
      </trkpt>
      <trkpt lat="45.24296" lon="6.10911">
        <ele>2850</ele>
        <time>2021-12-23T12:39:33Z</time>
      </trkpt>
      <trkpt lat="45.24296" lon="6.10911">
        <ele>2850</ele>
        <time>2021-12-23T12:39:34Z</time>
      </trkpt>
      <trkpt lat="45.24296" lon="6.10911">
        <ele>2850</ele>
        <time>2021-12-23T12:39:35Z</time>
      </trkpt>
      <trkpt lat="45.24296" lon="6.10911">
        <ele>2850</ele>
        <time>2021-12-23T12:39:36Z</time>
      </trkpt>
      <trkpt lat="45.24296" lon="6.10911">
        <ele>2850</ele>
        <time>2021-12-23T12:39:37Z</time>
      </trkpt>
      <trkpt lat="45.24296" lon="6.10911">
        <ele>2850</ele>
        <time>2021-12-23T12:39:38Z</time>
      </trkpt>
      <trkpt lat="45.24296" lon="6.10911">
        <ele>2850</ele>
        <time>2021-12-23T12:39:39Z</time>
      </trkpt>
      <trkpt lat="45.24296" lon="6.10911">
        <ele>2851</ele>
        <time>2021-12-23T12:39:40Z</time>
      </trkpt>
      <trkpt lat="45.24296" lon="6.10911">
        <ele>2851</ele>
        <time>2021-12-23T12:39:41Z</time>
      </trkpt>
      <trkpt lat="45.24296" lon="6.10911">
        <ele>2852</ele>
        <time>2021-12-23T12:39:42Z</time>
      </trkpt>
      <trkpt lat="45.24296" lon="6.10911">
        <ele>2852</ele>
        <time>2021-12-23T12:39:43Z</time>
      </trkpt>
      <trkpt lat="45.24296" lon="6.10911">
        <ele>2852</ele>
        <time>2021-12-23T12:39:44Z</time>
      </trkpt>
      <trkpt lat="45.24287" lon="6.10906">
        <ele>2853</ele>
        <time>2021-12-23T12:39:46Z</time>
      </trkpt>
      <trkpt lat="45.24286" lon="6.10906">
        <ele>2853</ele>
        <time>2021-12-23T12:39:47Z</time>
      </trkpt>
      <trkpt lat="45.24286" lon="6.10905">
        <ele>2853</ele>
        <time>2021-12-23T12:39:48Z</time>
      </trkpt>
      <trkpt lat="45.24286" lon="6.10905">
        <ele>2853</ele>
        <time>2021-12-23T12:39:49Z</time>
      </trkpt>
      <trkpt lat="45.24285" lon="6.10904">
        <ele>2853</ele>
        <time>2021-12-23T12:39:50Z</time>
      </trkpt>
      <trkpt lat="45.24285" lon="6.10904">
        <ele>2853</ele>
        <time>2021-12-23T12:39:51Z</time>
      </trkpt>
      <trkpt lat="45.24285" lon="6.10903">
        <ele>2855</ele>
        <time>2021-12-23T12:39:52Z</time>
      </trkpt>
      <trkpt lat="45.24285" lon="6.10903">
        <ele>2855</ele>
        <time>2021-12-23T12:39:53Z</time>
      </trkpt>
      <trkpt lat="45.24284" lon="6.10902">
        <ele>2855</ele>
        <time>2021-12-23T12:39:54Z</time>
      </trkpt>
      <trkpt lat="45.24284" lon="6.10902">
        <ele>2855</ele>
        <time>2021-12-23T12:39:55Z</time>
      </trkpt>
      <trkpt lat="45.24284" lon="6.10901">
        <ele>2855</ele>
        <time>2021-12-23T12:39:56Z</time>
      </trkpt>
      <trkpt lat="45.24284" lon="6.10901">
        <ele>2855</ele>
        <time>2021-12-23T12:39:57Z</time>
      </trkpt>
      <trkpt lat="45.24283" lon="6.109">
        <ele>2855</ele>
        <time>2021-12-23T12:39:58Z</time>
      </trkpt>
      <trkpt lat="45.24283" lon="6.109">
        <ele>2855</ele>
        <time>2021-12-23T12:39:59Z</time>
      </trkpt>
      <trkpt lat="45.24283" lon="6.10899">
        <ele>2855</ele>
        <time>2021-12-23T12:40:00Z</time>
      </trkpt>
      <trkpt lat="45.24283" lon="6.10899">
        <ele>2855</ele>
        <time>2021-12-23T12:40:01Z</time>
      </trkpt>
      <trkpt lat="45.24282" lon="6.10898">
        <ele>2855</ele>
        <time>2021-12-23T12:40:02Z</time>
      </trkpt>
      <trkpt lat="45.24282" lon="6.10898">
        <ele>2856</ele>
        <time>2021-12-23T12:40:03Z</time>
      </trkpt>
      <trkpt lat="45.24282" lon="6.10897">
        <ele>2856</ele>
        <time>2021-12-23T12:40:05Z</time>
      </trkpt>
      <trkpt lat="45.24281" lon="6.10897">
        <ele>2856</ele>
        <time>2021-12-23T12:40:06Z</time>
      </trkpt>
      <trkpt lat="45.24281" lon="6.10896">
        <ele>2856</ele>
        <time>2021-12-23T12:40:07Z</time>
      </trkpt>
      <trkpt lat="45.24281" lon="6.10896">
        <ele>2856</ele>
        <time>2021-12-23T12:40:08Z</time>
      </trkpt>
      <trkpt lat="45.24281" lon="6.10895">
        <ele>2857</ele>
        <time>2021-12-23T12:40:09Z</time>
      </trkpt>
      <trkpt lat="45.24281" lon="6.10895">
        <ele>2857</ele>
        <time>2021-12-23T12:40:10Z</time>
      </trkpt>
      <trkpt lat="45.2428" lon="6.10894">
        <ele>2857</ele>
        <time>2021-12-23T12:40:11Z</time>
      </trkpt>
      <trkpt lat="45.2428" lon="6.10893">
        <ele>2857</ele>
        <time>2021-12-23T12:40:12Z</time>
      </trkpt>
      <trkpt lat="45.2428" lon="6.10893">
        <ele>2857</ele>
        <time>2021-12-23T12:40:13Z</time>
      </trkpt>
      <trkpt lat="45.2428" lon="6.10892">
        <ele>2858</ele>
        <time>2021-12-23T12:40:14Z</time>
      </trkpt>
      <trkpt lat="45.2428" lon="6.10892">
        <ele>2858</ele>
        <time>2021-12-23T12:40:15Z</time>
      </trkpt>
      <trkpt lat="45.2428" lon="6.10891">
        <ele>2858</ele>
        <time>2021-12-23T12:40:16Z</time>
      </trkpt>
      <trkpt lat="45.24279" lon="6.10891">
        <ele>2858</ele>
        <time>2021-12-23T12:40:17Z</time>
      </trkpt>
      <trkpt lat="45.24279" lon="6.1089">
        <ele>2858</ele>
        <time>2021-12-23T12:40:18Z</time>
      </trkpt>
      <trkpt lat="45.24279" lon="6.10889">
        <ele>2858</ele>
        <time>2021-12-23T12:40:19Z</time>
      </trkpt>
      <trkpt lat="45.24279" lon="6.10889">
        <ele>2858</ele>
        <time>2021-12-23T12:40:20Z</time>
      </trkpt>
      <trkpt lat="45.24279" lon="6.10888">
        <ele>2858</ele>
        <time>2021-12-23T12:40:21Z</time>
      </trkpt>
      <trkpt lat="45.24279" lon="6.10888">
        <ele>2858</ele>
        <time>2021-12-23T12:40:22Z</time>
      </trkpt>
      <trkpt lat="45.24278" lon="6.10887">
        <ele>2858</ele>
        <time>2021-12-23T12:40:24Z</time>
      </trkpt>
      <trkpt lat="45.24278" lon="6.10886">
        <ele>2858</ele>
        <time>2021-12-23T12:40:25Z</time>
      </trkpt>
      <trkpt lat="45.24278" lon="6.10886">
        <ele>2858</ele>
        <time>2021-12-23T12:40:26Z</time>
      </trkpt>
      <trkpt lat="45.24278" lon="6.10885">
        <ele>2859</ele>
        <time>2021-12-23T12:40:27Z</time>
      </trkpt>
      <trkpt lat="45.24278" lon="6.10885">
        <ele>2859</ele>
        <time>2021-12-23T12:40:28Z</time>
      </trkpt>
      <trkpt lat="45.24278" lon="6.10884">
        <ele>2859</ele>
        <time>2021-12-23T12:40:29Z</time>
      </trkpt>
      <trkpt lat="45.24277" lon="6.10884">
        <ele>2859</ele>
        <time>2021-12-23T12:40:30Z</time>
      </trkpt>
      <trkpt lat="45.24277" lon="6.10884">
        <ele>2859</ele>
        <time>2021-12-23T12:40:31Z</time>
      </trkpt>
      <trkpt lat="45.24277" lon="6.10884">
        <ele>2859</ele>
        <time>2021-12-23T12:40:32Z</time>
      </trkpt>
      <trkpt lat="45.24277" lon="6.10885">
        <ele>2859</ele>
        <time>2021-12-23T12:40:33Z</time>
      </trkpt>
      <trkpt lat="45.24276" lon="6.10885">
        <ele>2859</ele>
        <time>2021-12-23T12:40:34Z</time>
      </trkpt>
      <trkpt lat="45.24276" lon="6.10885">
        <ele>2859</ele>
        <time>2021-12-23T12:40:35Z</time>
      </trkpt>
      <trkpt lat="45.24276" lon="6.10885">
        <ele>2859</ele>
        <time>2021-12-23T12:40:36Z</time>
      </trkpt>
      <trkpt lat="45.24275" lon="6.10885">
        <ele>2859</ele>
        <time>2021-12-23T12:40:37Z</time>
      </trkpt>
      <trkpt lat="45.24275" lon="6.10885">
        <ele>2859</ele>
        <time>2021-12-23T12:40:38Z</time>
      </trkpt>
      <trkpt lat="45.24275" lon="6.10885">
        <ele>2860</ele>
        <time>2021-12-23T12:40:39Z</time>
      </trkpt>
      <trkpt lat="45.24274" lon="6.10885">
        <ele>2861</ele>
        <time>2021-12-23T12:40:40Z</time>
      </trkpt>
      <trkpt lat="45.24274" lon="6.10885">
        <ele>2861</ele>
        <time>2021-12-23T12:40:41Z</time>
      </trkpt>
      <trkpt lat="45.24274" lon="6.10886">
        <ele>2861</ele>
        <time>2021-12-23T12:40:43Z</time>
      </trkpt>
      <trkpt lat="45.24274" lon="6.10886">
        <ele>2861</ele>
        <time>2021-12-23T12:40:44Z</time>
      </trkpt>
      <trkpt lat="45.24273" lon="6.10886">
        <ele>2861</ele>
        <time>2021-12-23T12:40:45Z</time>
      </trkpt>
      <trkpt lat="45.24273" lon="6.10886">
        <ele>2861</ele>
        <time>2021-12-23T12:40:46Z</time>
      </trkpt>
      <trkpt lat="45.24273" lon="6.10886">
        <ele>2861</ele>
        <time>2021-12-23T12:40:47Z</time>
      </trkpt>
      <trkpt lat="45.24272" lon="6.10886">
        <ele>2861</ele>
        <time>2021-12-23T12:40:48Z</time>
      </trkpt>
      <trkpt lat="45.24272" lon="6.10886">
        <ele>2861</ele>
        <time>2021-12-23T12:40:50Z</time>
      </trkpt>
      <trkpt lat="45.24272" lon="6.10886">
        <ele>2862</ele>
        <time>2021-12-23T12:40:51Z</time>
      </trkpt>
      <trkpt lat="45.24272" lon="6.10886">
        <ele>2862</ele>
        <time>2021-12-23T12:40:52Z</time>
      </trkpt>
      <trkpt lat="45.24271" lon="6.10886">
        <ele>2862</ele>
        <time>2021-12-23T12:40:53Z</time>
      </trkpt>
      <trkpt lat="45.24271" lon="6.10887">
        <ele>2862</ele>
        <time>2021-12-23T12:40:54Z</time>
      </trkpt>
      <trkpt lat="45.24271" lon="6.10887">
        <ele>2862</ele>
        <time>2021-12-23T12:40:55Z</time>
      </trkpt>
      <trkpt lat="45.2427" lon="6.10887">
        <ele>2862</ele>
        <time>2021-12-23T12:40:56Z</time>
      </trkpt>
      <trkpt lat="45.2427" lon="6.10887">
        <ele>2863</ele>
        <time>2021-12-23T12:40:57Z</time>
      </trkpt>
      <trkpt lat="45.2427" lon="6.10887">
        <ele>2863</ele>
        <time>2021-12-23T12:40:58Z</time>
      </trkpt>
      <trkpt lat="45.2427" lon="6.10887">
        <ele>2864</ele>
        <time>2021-12-23T12:40:59Z</time>
      </trkpt>
      <trkpt lat="45.24268" lon="6.10887">
        <ele>2864</ele>
        <time>2021-12-23T12:41:00Z</time>
      </trkpt>
      <trkpt lat="45.24267" lon="6.10888">
        <ele>2864</ele>
        <time>2021-12-23T12:41:02Z</time>
      </trkpt>
      <trkpt lat="45.24266" lon="6.10888">
        <ele>2864</ele>
        <time>2021-12-23T12:41:03Z</time>
      </trkpt>
      <trkpt lat="45.24265" lon="6.10888">
        <ele>2864</ele>
        <time>2021-12-23T12:41:04Z</time>
      </trkpt>
      <trkpt lat="45.24264" lon="6.10889">
        <ele>2864</ele>
        <time>2021-12-23T12:41:05Z</time>
      </trkpt>
      <trkpt lat="45.24263" lon="6.10889">
        <ele>2864</ele>
        <time>2021-12-23T12:41:06Z</time>
      </trkpt>
      <trkpt lat="45.24262" lon="6.10889">
        <ele>2864</ele>
        <time>2021-12-23T12:41:07Z</time>
      </trkpt>
      <trkpt lat="45.24261" lon="6.10889">
        <ele>2864</ele>
        <time>2021-12-23T12:41:08Z</time>
      </trkpt>
      <trkpt lat="45.2426" lon="6.10889">
        <ele>2864</ele>
        <time>2021-12-23T12:41:09Z</time>
      </trkpt>
      <trkpt lat="45.24259" lon="6.1089">
        <ele>2864</ele>
        <time>2021-12-23T12:41:10Z</time>
      </trkpt>
      <trkpt lat="45.24258" lon="6.1089">
        <ele>2864</ele>
        <time>2021-12-23T12:41:11Z</time>
      </trkpt>
      <trkpt lat="45.24258" lon="6.1089">
        <ele>2864</ele>
        <time>2021-12-23T12:41:12Z</time>
      </trkpt>
      <trkpt lat="45.24257" lon="6.1089">
        <ele>2864</ele>
        <time>2021-12-23T12:41:13Z</time>
      </trkpt>
      <trkpt lat="45.24256" lon="6.1089">
        <ele>2864</ele>
        <time>2021-12-23T12:41:14Z</time>
      </trkpt>
      <trkpt lat="45.24256" lon="6.1089">
        <ele>2865</ele>
        <time>2021-12-23T12:41:15Z</time>
      </trkpt>
      <trkpt lat="45.24255" lon="6.1089">
        <ele>2865</ele>
        <time>2021-12-23T12:41:16Z</time>
      </trkpt>
      <trkpt lat="45.24254" lon="6.1089">
        <ele>2865</ele>
        <time>2021-12-23T12:41:17Z</time>
      </trkpt>
      <trkpt lat="45.24254" lon="6.10891">
        <ele>2865</ele>
        <time>2021-12-23T12:41:18Z</time>
      </trkpt>
      <trkpt lat="45.24253" lon="6.10891">
        <ele>2865</ele>
        <time>2021-12-23T12:41:19Z</time>
      </trkpt>
      <trkpt lat="45.24252" lon="6.10891">
        <ele>2865</ele>
        <time>2021-12-23T12:41:20Z</time>
      </trkpt>
      <trkpt lat="45.24251" lon="6.10891">
        <ele>2867</ele>
        <time>2021-12-23T12:41:21Z</time>
      </trkpt>
      <trkpt lat="45.24251" lon="6.10891">
        <ele>2867</ele>
        <time>2021-12-23T12:41:22Z</time>
      </trkpt>
      <trkpt lat="45.2425" lon="6.10891">
        <ele>2867</ele>
        <time>2021-12-23T12:41:23Z</time>
      </trkpt>
      <trkpt lat="45.2425" lon="6.10891">
        <ele>2867</ele>
        <time>2021-12-23T12:41:24Z</time>
      </trkpt>
      <trkpt lat="45.24249" lon="6.10891">
        <ele>2867</ele>
        <time>2021-12-23T12:41:25Z</time>
      </trkpt>
      <trkpt lat="45.24248" lon="6.10892">
        <ele>2867</ele>
        <time>2021-12-23T12:41:26Z</time>
      </trkpt>
      <trkpt lat="45.24248" lon="6.10892">
        <ele>2868</ele>
        <time>2021-12-23T12:41:27Z</time>
      </trkpt>
      <trkpt lat="45.24247" lon="6.10892">
        <ele>2868</ele>
        <time>2021-12-23T12:41:28Z</time>
      </trkpt>
      <trkpt lat="45.24247" lon="6.10892">
        <ele>2868</ele>
        <time>2021-12-23T12:41:29Z</time>
      </trkpt>
      <trkpt lat="45.24246" lon="6.10892">
        <ele>2868</ele>
        <time>2021-12-23T12:41:30Z</time>
      </trkpt>
      <trkpt lat="45.24245" lon="6.10892">
        <ele>2868</ele>
        <time>2021-12-23T12:41:31Z</time>
      </trkpt>
      <trkpt lat="45.24245" lon="6.10892">
        <ele>2868</ele>
        <time>2021-12-23T12:41:32Z</time>
      </trkpt>
      <trkpt lat="45.24244" lon="6.10892">
        <ele>2868</ele>
        <time>2021-12-23T12:41:33Z</time>
      </trkpt>
      <trkpt lat="45.24244" lon="6.10893">
        <ele>2868</ele>
        <time>2021-12-23T12:41:34Z</time>
      </trkpt>
      <trkpt lat="45.24243" lon="6.10893">
        <ele>2868</ele>
        <time>2021-12-23T12:41:35Z</time>
      </trkpt>
      <trkpt lat="45.24242" lon="6.10893">
        <ele>2868</ele>
        <time>2021-12-23T12:41:36Z</time>
      </trkpt>
      <trkpt lat="45.24242" lon="6.10893">
        <ele>2868</ele>
        <time>2021-12-23T12:41:37Z</time>
      </trkpt>
      <trkpt lat="45.24242" lon="6.10893">
        <ele>2869</ele>
        <time>2021-12-23T12:41:38Z</time>
      </trkpt>
      <trkpt lat="45.24241" lon="6.10893">
        <ele>2869</ele>
        <time>2021-12-23T12:41:40Z</time>
      </trkpt>
      <trkpt lat="45.24241" lon="6.10893">
        <ele>2869</ele>
        <time>2021-12-23T12:41:41Z</time>
      </trkpt>
      <trkpt lat="45.2424" lon="6.10893">
        <ele>2869</ele>
        <time>2021-12-23T12:41:42Z</time>
      </trkpt>
      <trkpt lat="45.2424" lon="6.10894">
        <ele>2869</ele>
        <time>2021-12-23T12:41:43Z</time>
      </trkpt>
      <trkpt lat="45.2424" lon="6.10894">
        <ele>2869</ele>
        <time>2021-12-23T12:41:44Z</time>
      </trkpt>
      <trkpt lat="45.24239" lon="6.10894">
        <ele>2869</ele>
        <time>2021-12-23T12:41:45Z</time>
      </trkpt>
      <trkpt lat="45.24239" lon="6.10894">
        <ele>2870</ele>
        <time>2021-12-23T12:41:46Z</time>
      </trkpt>
      <trkpt lat="45.24238" lon="6.10894">
        <ele>2870</ele>
        <time>2021-12-23T12:41:47Z</time>
      </trkpt>
      <trkpt lat="45.24238" lon="6.10894">
        <ele>2870</ele>
        <time>2021-12-23T12:41:48Z</time>
      </trkpt>
      <trkpt lat="45.24237" lon="6.10894">
        <ele>2870</ele>
        <time>2021-12-23T12:41:49Z</time>
      </trkpt>
      <trkpt lat="45.24237" lon="6.10894">
        <ele>2871</ele>
        <time>2021-12-23T12:41:50Z</time>
      </trkpt>
      <trkpt lat="45.24237" lon="6.10894">
        <ele>2871</ele>
        <time>2021-12-23T12:41:51Z</time>
      </trkpt>
      <trkpt lat="45.24236" lon="6.10895">
        <ele>2871</ele>
        <time>2021-12-23T12:41:52Z</time>
      </trkpt>
      <trkpt lat="45.24236" lon="6.10895">
        <ele>2871</ele>
        <time>2021-12-23T12:41:53Z</time>
      </trkpt>
      <trkpt lat="45.24235" lon="6.10895">
        <ele>2871</ele>
        <time>2021-12-23T12:41:54Z</time>
      </trkpt>
      <trkpt lat="45.24235" lon="6.10895">
        <ele>2871</ele>
        <time>2021-12-23T12:41:55Z</time>
      </trkpt>
      <trkpt lat="45.24234" lon="6.10895">
        <ele>2871</ele>
        <time>2021-12-23T12:41:56Z</time>
      </trkpt>
      <trkpt lat="45.24234" lon="6.10895">
        <ele>2871</ele>
        <time>2021-12-23T12:41:57Z</time>
      </trkpt>
      <trkpt lat="45.24234" lon="6.10895">
        <ele>2871</ele>
        <time>2021-12-23T12:41:59Z</time>
      </trkpt>
      <trkpt lat="45.24234" lon="6.10895">
        <ele>2871</ele>
        <time>2021-12-23T12:42:00Z</time>
      </trkpt>
      <trkpt lat="45.24234" lon="6.10895">
        <ele>2872</ele>
        <time>2021-12-23T12:42:01Z</time>
      </trkpt>
      <trkpt lat="45.24234" lon="6.10895">
        <ele>2872</ele>
        <time>2021-12-23T12:42:02Z</time>
      </trkpt>
      <trkpt lat="45.24234" lon="6.10895">
        <ele>2872</ele>
        <time>2021-12-23T12:42:03Z</time>
      </trkpt>
      <trkpt lat="45.24234" lon="6.10895">
        <ele>2872</ele>
        <time>2021-12-23T12:42:04Z</time>
      </trkpt>
      <trkpt lat="45.24234" lon="6.10895">
        <ele>2872</ele>
        <time>2021-12-23T12:42:05Z</time>
      </trkpt>
      <trkpt lat="45.24234" lon="6.10895">
        <ele>2873</ele>
        <time>2021-12-23T12:42:06Z</time>
      </trkpt>
      <trkpt lat="45.24234" lon="6.10895">
        <ele>2873</ele>
        <time>2021-12-23T12:42:07Z</time>
      </trkpt>
      <trkpt lat="45.24234" lon="6.10895">
        <ele>2873</ele>
        <time>2021-12-23T12:42:08Z</time>
      </trkpt>
      <trkpt lat="45.24234" lon="6.10895">
        <ele>2873</ele>
        <time>2021-12-23T12:42:09Z</time>
      </trkpt>
      <trkpt lat="45.24225" lon="6.10898">
        <ele>2873</ele>
        <time>2021-12-23T12:42:10Z</time>
      </trkpt>
      <trkpt lat="45.24225" lon="6.10898">
        <ele>2873</ele>
        <time>2021-12-23T12:42:12Z</time>
      </trkpt>
      <trkpt lat="45.24226" lon="6.10897">
        <ele>2874</ele>
        <time>2021-12-23T12:42:13Z</time>
      </trkpt>
      <trkpt lat="45.24226" lon="6.10897">
        <ele>2874</ele>
        <time>2021-12-23T12:42:14Z</time>
      </trkpt>
      <trkpt lat="45.24227" lon="6.10896">
        <ele>2874</ele>
        <time>2021-12-23T12:42:15Z</time>
      </trkpt>
      <trkpt lat="45.24227" lon="6.10895">
        <ele>2874</ele>
        <time>2021-12-23T12:42:16Z</time>
      </trkpt>
      <trkpt lat="45.24228" lon="6.10894">
        <ele>2874</ele>
        <time>2021-12-23T12:42:18Z</time>
      </trkpt>
      <trkpt lat="45.24229" lon="6.10893">
        <ele>2874</ele>
        <time>2021-12-23T12:42:19Z</time>
      </trkpt>
      <trkpt lat="45.24229" lon="6.10892">
        <ele>2874</ele>
        <time>2021-12-23T12:42:20Z</time>
      </trkpt>
      <trkpt lat="45.2423" lon="6.10891">
        <ele>2875</ele>
        <time>2021-12-23T12:42:21Z</time>
      </trkpt>
      <trkpt lat="45.2423" lon="6.1089">
        <ele>2875</ele>
        <time>2021-12-23T12:42:22Z</time>
      </trkpt>
      <trkpt lat="45.24231" lon="6.10889">
        <ele>2875</ele>
        <time>2021-12-23T12:42:23Z</time>
      </trkpt>
      <trkpt lat="45.24231" lon="6.10889">
        <ele>2875</ele>
        <time>2021-12-23T12:42:24Z</time>
      </trkpt>
      <trkpt lat="45.24231" lon="6.10888">
        <ele>2875</ele>
        <time>2021-12-23T12:42:25Z</time>
      </trkpt>
      <trkpt lat="45.24231" lon="6.10887">
        <ele>2876</ele>
        <time>2021-12-23T12:42:26Z</time>
      </trkpt>
      <trkpt lat="45.24231" lon="6.10886">
        <ele>2876</ele>
        <time>2021-12-23T12:42:27Z</time>
      </trkpt>
      <trkpt lat="45.24232" lon="6.10885">
        <ele>2876</ele>
        <time>2021-12-23T12:42:28Z</time>
      </trkpt>
      <trkpt lat="45.24232" lon="6.10885">
        <ele>2876</ele>
        <time>2021-12-23T12:42:29Z</time>
      </trkpt>
      <trkpt lat="45.24232" lon="6.10884">
        <ele>2876</ele>
        <time>2021-12-23T12:42:30Z</time>
      </trkpt>
      <trkpt lat="45.24232" lon="6.10883">
        <ele>2876</ele>
        <time>2021-12-23T12:42:31Z</time>
      </trkpt>
      <trkpt lat="45.24232" lon="6.10882">
        <ele>2876</ele>
        <time>2021-12-23T12:42:32Z</time>
      </trkpt>
      <trkpt lat="45.24232" lon="6.10882">
        <ele>2876</ele>
        <time>2021-12-23T12:42:33Z</time>
      </trkpt>
      <trkpt lat="45.24232" lon="6.10881">
        <ele>2877</ele>
        <time>2021-12-23T12:42:34Z</time>
      </trkpt>
      <trkpt lat="45.24232" lon="6.1088">
        <ele>2877</ele>
        <time>2021-12-23T12:42:35Z</time>
      </trkpt>
      <trkpt lat="45.24232" lon="6.10879">
        <ele>2877</ele>
        <time>2021-12-23T12:42:37Z</time>
      </trkpt>
      <trkpt lat="45.24232" lon="6.10878">
        <ele>2877</ele>
        <time>2021-12-23T12:42:38Z</time>
      </trkpt>
      <trkpt lat="45.24232" lon="6.10878">
        <ele>2878</ele>
        <time>2021-12-23T12:42:39Z</time>
      </trkpt>
      <trkpt lat="45.24232" lon="6.10877">
        <ele>2878</ele>
        <time>2021-12-23T12:42:40Z</time>
      </trkpt>
      <trkpt lat="45.24232" lon="6.10876">
        <ele>2878</ele>
        <time>2021-12-23T12:42:41Z</time>
      </trkpt>
      <trkpt lat="45.24232" lon="6.10875">
        <ele>2878</ele>
        <time>2021-12-23T12:42:42Z</time>
      </trkpt>
      <trkpt lat="45.24232" lon="6.10874">
        <ele>2878</ele>
        <time>2021-12-23T12:42:43Z</time>
      </trkpt>
      <trkpt lat="45.24232" lon="6.10873">
        <ele>2878</ele>
        <time>2021-12-23T12:42:44Z</time>
      </trkpt>
      <trkpt lat="45.24232" lon="6.10872">
        <ele>2878</ele>
        <time>2021-12-23T12:42:45Z</time>
      </trkpt>
      <trkpt lat="45.24232" lon="6.10871">
        <ele>2878</ele>
        <time>2021-12-23T12:42:46Z</time>
      </trkpt>
      <trkpt lat="45.24232" lon="6.1087">
        <ele>2878</ele>
        <time>2021-12-23T12:42:47Z</time>
      </trkpt>
      <trkpt lat="45.24232" lon="6.10869">
        <ele>2878</ele>
        <time>2021-12-23T12:42:48Z</time>
      </trkpt>
      <trkpt lat="45.24232" lon="6.10868">
        <ele>2878</ele>
        <time>2021-12-23T12:42:49Z</time>
      </trkpt>
      <trkpt lat="45.24232" lon="6.10867">
        <ele>2880</ele>
        <time>2021-12-23T12:42:50Z</time>
      </trkpt>
      <trkpt lat="45.24232" lon="6.10866">
        <ele>2880</ele>
        <time>2021-12-23T12:42:51Z</time>
      </trkpt>
      <trkpt lat="45.24232" lon="6.10865">
        <ele>2880</ele>
        <time>2021-12-23T12:42:52Z</time>
      </trkpt>
      <trkpt lat="45.24232" lon="6.10864">
        <ele>2881</ele>
        <time>2021-12-23T12:42:53Z</time>
      </trkpt>
      <trkpt lat="45.24232" lon="6.10864">
        <ele>2881</ele>
        <time>2021-12-23T12:42:54Z</time>
      </trkpt>
      <trkpt lat="45.24232" lon="6.10863">
        <ele>2882</ele>
        <time>2021-12-23T12:42:56Z</time>
      </trkpt>
      <trkpt lat="45.24232" lon="6.10863">
        <ele>2882</ele>
        <time>2021-12-23T12:42:57Z</time>
      </trkpt>
      <trkpt lat="45.24232" lon="6.10863">
        <ele>2882</ele>
        <time>2021-12-23T12:42:58Z</time>
      </trkpt>
      <trkpt lat="45.24231" lon="6.10863">
        <ele>2882</ele>
        <time>2021-12-23T12:42:59Z</time>
      </trkpt>
      <trkpt lat="45.24231" lon="6.10862">
        <ele>2882</ele>
        <time>2021-12-23T12:43:00Z</time>
      </trkpt>
      <trkpt lat="45.24231" lon="6.10862">
        <ele>2882</ele>
        <time>2021-12-23T12:43:01Z</time>
      </trkpt>
      <trkpt lat="45.24231" lon="6.10862">
        <ele>2882</ele>
        <time>2021-12-23T12:43:02Z</time>
      </trkpt>
      <trkpt lat="45.2423" lon="6.10862">
        <ele>2882</ele>
        <time>2021-12-23T12:43:03Z</time>
      </trkpt>
      <trkpt lat="45.2423" lon="6.10862">
        <ele>2882</ele>
        <time>2021-12-23T12:43:04Z</time>
      </trkpt>
      <trkpt lat="45.2423" lon="6.10861">
        <ele>2882</ele>
        <time>2021-12-23T12:43:05Z</time>
      </trkpt>
      <trkpt lat="45.2423" lon="6.10861">
        <ele>2882</ele>
        <time>2021-12-23T12:43:06Z</time>
      </trkpt>
      <trkpt lat="45.24229" lon="6.10861">
        <ele>2882</ele>
        <time>2021-12-23T12:43:07Z</time>
      </trkpt>
      <trkpt lat="45.24229" lon="6.10861">
        <ele>2882</ele>
        <time>2021-12-23T12:43:08Z</time>
      </trkpt>
      <trkpt lat="45.24229" lon="6.1086">
        <ele>2881</ele>
        <time>2021-12-23T12:43:09Z</time>
      </trkpt>
      <trkpt lat="45.24229" lon="6.1086">
        <ele>2881</ele>
        <time>2021-12-23T12:43:10Z</time>
      </trkpt>
      <trkpt lat="45.24228" lon="6.1086">
        <ele>2881</ele>
        <time>2021-12-23T12:43:11Z</time>
      </trkpt>
      <trkpt lat="45.24228" lon="6.1086">
        <ele>2882</ele>
        <time>2021-12-23T12:43:12Z</time>
      </trkpt>
      <trkpt lat="45.24228" lon="6.1086">
        <ele>2882</ele>
        <time>2021-12-23T12:43:13Z</time>
      </trkpt>
      <trkpt lat="45.24228" lon="6.10859">
        <ele>2882</ele>
        <time>2021-12-23T12:43:15Z</time>
      </trkpt>
      <trkpt lat="45.24228" lon="6.10859">
        <ele>2882</ele>
        <time>2021-12-23T12:43:16Z</time>
      </trkpt>
      <trkpt lat="45.24227" lon="6.10859">
        <ele>2882</ele>
        <time>2021-12-23T12:43:17Z</time>
      </trkpt>
      <trkpt lat="45.24227" lon="6.10859">
        <ele>2882</ele>
        <time>2021-12-23T12:43:18Z</time>
      </trkpt>
      <trkpt lat="45.24227" lon="6.10858">
        <ele>2882</ele>
        <time>2021-12-23T12:43:19Z</time>
      </trkpt>
      <trkpt lat="45.24227" lon="6.10858">
        <ele>2882</ele>
        <time>2021-12-23T12:43:20Z</time>
      </trkpt>
      <trkpt lat="45.24226" lon="6.10858">
        <ele>2882</ele>
        <time>2021-12-23T12:43:21Z</time>
      </trkpt>
      <trkpt lat="45.24226" lon="6.10858">
        <ele>2882</ele>
        <time>2021-12-23T12:43:22Z</time>
      </trkpt>
      <trkpt lat="45.24226" lon="6.10858">
        <ele>2883</ele>
        <time>2021-12-23T12:43:23Z</time>
      </trkpt>
      <trkpt lat="45.24226" lon="6.10857">
        <ele>2883</ele>
        <time>2021-12-23T12:43:24Z</time>
      </trkpt>
      <trkpt lat="45.24225" lon="6.10857">
        <ele>2883</ele>
        <time>2021-12-23T12:43:25Z</time>
      </trkpt>
      <trkpt lat="45.24225" lon="6.10857">
        <ele>2883</ele>
        <time>2021-12-23T12:43:26Z</time>
      </trkpt>
      <trkpt lat="45.24225" lon="6.10857">
        <ele>2883</ele>
        <time>2021-12-23T12:43:27Z</time>
      </trkpt>
      <trkpt lat="45.24224" lon="6.10856">
        <ele>2883</ele>
        <time>2021-12-23T12:43:28Z</time>
      </trkpt>
      <trkpt lat="45.24224" lon="6.10856">
        <ele>2883</ele>
        <time>2021-12-23T12:43:29Z</time>
      </trkpt>
      <trkpt lat="45.24223" lon="6.10856">
        <ele>2884</ele>
        <time>2021-12-23T12:43:30Z</time>
      </trkpt>
      <trkpt lat="45.24223" lon="6.10856">
        <ele>2884</ele>
        <time>2021-12-23T12:43:31Z</time>
      </trkpt>
      <trkpt lat="45.24222" lon="6.10856">
        <ele>2884</ele>
        <time>2021-12-23T12:43:32Z</time>
      </trkpt>
      <trkpt lat="45.24221" lon="6.10856">
        <ele>2884</ele>
        <time>2021-12-23T12:43:34Z</time>
      </trkpt>
      <trkpt lat="45.24221" lon="6.10855">
        <ele>2884</ele>
        <time>2021-12-23T12:43:35Z</time>
      </trkpt>
      <trkpt lat="45.2422" lon="6.10855">
        <ele>2884</ele>
        <time>2021-12-23T12:43:36Z</time>
      </trkpt>
      <trkpt lat="45.2422" lon="6.10855">
        <ele>2885</ele>
        <time>2021-12-23T12:43:37Z</time>
      </trkpt>
      <trkpt lat="45.24219" lon="6.10855">
        <ele>2885</ele>
        <time>2021-12-23T12:43:38Z</time>
      </trkpt>
      <trkpt lat="45.24219" lon="6.10855">
        <ele>2885</ele>
        <time>2021-12-23T12:43:39Z</time>
      </trkpt>
      <trkpt lat="45.24218" lon="6.10854">
        <ele>2885</ele>
        <time>2021-12-23T12:43:40Z</time>
      </trkpt>
      <trkpt lat="45.24217" lon="6.10854">
        <ele>2885</ele>
        <time>2021-12-23T12:43:41Z</time>
      </trkpt>
      <trkpt lat="45.24217" lon="6.10854">
        <ele>2885</ele>
        <time>2021-12-23T12:43:42Z</time>
      </trkpt>
      <trkpt lat="45.24216" lon="6.10854">
        <ele>2885</ele>
        <time>2021-12-23T12:43:43Z</time>
      </trkpt>
      <trkpt lat="45.24216" lon="6.10854">
        <ele>2886</ele>
        <time>2021-12-23T12:43:44Z</time>
      </trkpt>
      <trkpt lat="45.24216" lon="6.10853">
        <ele>2886</ele>
        <time>2021-12-23T12:43:45Z</time>
      </trkpt>
      <trkpt lat="45.24216" lon="6.10853">
        <ele>2886</ele>
        <time>2021-12-23T12:43:46Z</time>
      </trkpt>
      <trkpt lat="45.24216" lon="6.10853">
        <ele>2886</ele>
        <time>2021-12-23T12:43:47Z</time>
      </trkpt>
      <trkpt lat="45.24216" lon="6.10852">
        <ele>2886</ele>
        <time>2021-12-23T12:43:48Z</time>
      </trkpt>
      <trkpt lat="45.24216" lon="6.10852">
        <ele>2886</ele>
        <time>2021-12-23T12:43:49Z</time>
      </trkpt>
      <trkpt lat="45.24216" lon="6.10851">
        <ele>2886</ele>
        <time>2021-12-23T12:43:50Z</time>
      </trkpt>
      <trkpt lat="45.24215" lon="6.10851">
        <ele>2886</ele>
        <time>2021-12-23T12:43:51Z</time>
      </trkpt>
      <trkpt lat="45.24215" lon="6.10851">
        <ele>2887</ele>
        <time>2021-12-23T12:43:53Z</time>
      </trkpt>
      <trkpt lat="45.24215" lon="6.1085">
        <ele>2887</ele>
        <time>2021-12-23T12:43:54Z</time>
      </trkpt>
      <trkpt lat="45.24215" lon="6.1085">
        <ele>2887</ele>
        <time>2021-12-23T12:43:55Z</time>
      </trkpt>
      <trkpt lat="45.24215" lon="6.1085">
        <ele>2888</ele>
        <time>2021-12-23T12:43:56Z</time>
      </trkpt>
      <trkpt lat="45.24215" lon="6.10849">
        <ele>2888</ele>
        <time>2021-12-23T12:43:57Z</time>
      </trkpt>
      <trkpt lat="45.24215" lon="6.10849">
        <ele>2888</ele>
        <time>2021-12-23T12:43:58Z</time>
      </trkpt>
      <trkpt lat="45.24215" lon="6.10849">
        <ele>2888</ele>
        <time>2021-12-23T12:43:59Z</time>
      </trkpt>
      <trkpt lat="45.24215" lon="6.10848">
        <ele>2888</ele>
        <time>2021-12-23T12:44:00Z</time>
      </trkpt>
      <trkpt lat="45.24215" lon="6.10848">
        <ele>2888</ele>
        <time>2021-12-23T12:44:01Z</time>
      </trkpt>
      <trkpt lat="45.24214" lon="6.10848">
        <ele>2888</ele>
        <time>2021-12-23T12:44:02Z</time>
      </trkpt>
      <trkpt lat="45.24214" lon="6.10847">
        <ele>2889</ele>
        <time>2021-12-23T12:44:03Z</time>
      </trkpt>
      <trkpt lat="45.24214" lon="6.10847">
        <ele>2889</ele>
        <time>2021-12-23T12:44:04Z</time>
      </trkpt>
      <trkpt lat="45.24214" lon="6.10847">
        <ele>2889</ele>
        <time>2021-12-23T12:44:05Z</time>
      </trkpt>
      <trkpt lat="45.24214" lon="6.10846">
        <ele>2889</ele>
        <time>2021-12-23T12:44:06Z</time>
      </trkpt>
      <trkpt lat="45.24214" lon="6.10846">
        <ele>2889</ele>
        <time>2021-12-23T12:44:07Z</time>
      </trkpt>
      <trkpt lat="45.24214" lon="6.10845">
        <ele>2889</ele>
        <time>2021-12-23T12:44:08Z</time>
      </trkpt>
      <trkpt lat="45.24214" lon="6.10845">
        <ele>2889</ele>
        <time>2021-12-23T12:44:09Z</time>
      </trkpt>
      <trkpt lat="45.24214" lon="6.10845">
        <ele>2889</ele>
        <time>2021-12-23T12:44:10Z</time>
      </trkpt>
      <trkpt lat="45.24214" lon="6.10844">
        <ele>2889</ele>
        <time>2021-12-23T12:44:12Z</time>
      </trkpt>
      <trkpt lat="45.24213" lon="6.10844">
        <ele>2889</ele>
        <time>2021-12-23T12:44:13Z</time>
      </trkpt>
      <trkpt lat="45.24213" lon="6.10844">
        <ele>2889</ele>
        <time>2021-12-23T12:44:14Z</time>
      </trkpt>
      <trkpt lat="45.24213" lon="6.10843">
        <ele>2889</ele>
        <time>2021-12-23T12:44:15Z</time>
      </trkpt>
      <trkpt lat="45.24213" lon="6.10843">
        <ele>2889</ele>
        <time>2021-12-23T12:44:16Z</time>
      </trkpt>
      <trkpt lat="45.24213" lon="6.10843">
        <ele>2889</ele>
        <time>2021-12-23T12:44:17Z</time>
      </trkpt>
      <trkpt lat="45.24213" lon="6.10843">
        <ele>2889</ele>
        <time>2021-12-23T12:44:18Z</time>
      </trkpt>
      <trkpt lat="45.24213" lon="6.10843">
        <ele>2889</ele>
        <time>2021-12-23T12:44:19Z</time>
      </trkpt>
      <trkpt lat="45.24212" lon="6.10843">
        <ele>2889</ele>
        <time>2021-12-23T12:44:20Z</time>
      </trkpt>
      <trkpt lat="45.24212" lon="6.10843">
        <ele>2889</ele>
        <time>2021-12-23T12:44:21Z</time>
      </trkpt>
      <trkpt lat="45.24212" lon="6.10843">
        <ele>2889</ele>
        <time>2021-12-23T12:44:22Z</time>
      </trkpt>
      <trkpt lat="45.24212" lon="6.10843">
        <ele>2889</ele>
        <time>2021-12-23T12:44:23Z</time>
      </trkpt>
      <trkpt lat="45.24211" lon="6.10843">
        <ele>2890</ele>
        <time>2021-12-23T12:44:24Z</time>
      </trkpt>
      <trkpt lat="45.24211" lon="6.10844">
        <ele>2890</ele>
        <time>2021-12-23T12:44:25Z</time>
      </trkpt>
      <trkpt lat="45.24211" lon="6.10844">
        <ele>2890</ele>
        <time>2021-12-23T12:44:26Z</time>
      </trkpt>
      <trkpt lat="45.24211" lon="6.10844">
        <ele>2890</ele>
        <time>2021-12-23T12:44:27Z</time>
      </trkpt>
      <trkpt lat="45.24211" lon="6.10844">
        <ele>2890</ele>
        <time>2021-12-23T12:44:28Z</time>
      </trkpt>
      <trkpt lat="45.2421" lon="6.10844">
        <ele>2890</ele>
        <time>2021-12-23T12:44:29Z</time>
      </trkpt>
      <trkpt lat="45.2421" lon="6.10844">
        <ele>2890</ele>
        <time>2021-12-23T12:44:31Z</time>
      </trkpt>
      <trkpt lat="45.2421" lon="6.10844">
        <ele>2890</ele>
        <time>2021-12-23T12:44:32Z</time>
      </trkpt>
      <trkpt lat="45.2421" lon="6.10844">
        <ele>2890</ele>
        <time>2021-12-23T12:44:33Z</time>
      </trkpt>
      <trkpt lat="45.24209" lon="6.10844">
        <ele>2890</ele>
        <time>2021-12-23T12:44:34Z</time>
      </trkpt>
      <trkpt lat="45.24209" lon="6.10845">
        <ele>2890</ele>
        <time>2021-12-23T12:44:35Z</time>
      </trkpt>
      <trkpt lat="45.24209" lon="6.10845">
        <ele>2890</ele>
        <time>2021-12-23T12:44:36Z</time>
      </trkpt>
      <trkpt lat="45.24209" lon="6.10845">
        <ele>2890</ele>
        <time>2021-12-23T12:44:37Z</time>
      </trkpt>
      <trkpt lat="45.24209" lon="6.10845">
        <ele>2890</ele>
        <time>2021-12-23T12:44:38Z</time>
      </trkpt>
      <trkpt lat="45.24208" lon="6.10845">
        <ele>2890</ele>
        <time>2021-12-23T12:44:39Z</time>
      </trkpt>
      <trkpt lat="45.24208" lon="6.10845">
        <ele>2890</ele>
        <time>2021-12-23T12:44:40Z</time>
      </trkpt>
      <trkpt lat="45.24208" lon="6.10845">
        <ele>2890</ele>
        <time>2021-12-23T12:44:41Z</time>
      </trkpt>
      <trkpt lat="45.24208" lon="6.10845">
        <ele>2890</ele>
        <time>2021-12-23T12:44:42Z</time>
      </trkpt>
      <trkpt lat="45.24207" lon="6.10845">
        <ele>2890</ele>
        <time>2021-12-23T12:44:43Z</time>
      </trkpt>
      <trkpt lat="45.24207" lon="6.10846">
        <ele>2890</ele>
        <time>2021-12-23T12:44:44Z</time>
      </trkpt>
      <trkpt lat="45.24207" lon="6.10846">
        <ele>2890</ele>
        <time>2021-12-23T12:44:45Z</time>
      </trkpt>
      <trkpt lat="45.24207" lon="6.10846">
        <ele>2890</ele>
        <time>2021-12-23T12:44:46Z</time>
      </trkpt>
      <trkpt lat="45.24207" lon="6.10846">
        <ele>2890</ele>
        <time>2021-12-23T12:44:47Z</time>
      </trkpt>
      <trkpt lat="45.24206" lon="6.10846">
        <ele>2890</ele>
        <time>2021-12-23T12:44:48Z</time>
      </trkpt>
      <trkpt lat="45.24206" lon="6.10846">
        <ele>2890</ele>
        <time>2021-12-23T12:44:50Z</time>
      </trkpt>
      <trkpt lat="45.24206" lon="6.10846">
        <ele>2890</ele>
        <time>2021-12-23T12:44:51Z</time>
      </trkpt>
      <trkpt lat="45.24206" lon="6.10846">
        <ele>2890</ele>
        <time>2021-12-23T12:44:52Z</time>
      </trkpt>
      <trkpt lat="45.24205" lon="6.10846">
        <ele>2890</ele>
        <time>2021-12-23T12:44:53Z</time>
      </trkpt>
      <trkpt lat="45.24205" lon="6.10847">
        <ele>2890</ele>
        <time>2021-12-23T12:44:54Z</time>
      </trkpt>
      <trkpt lat="45.24205" lon="6.10847">
        <ele>2890</ele>
        <time>2021-12-23T12:44:55Z</time>
      </trkpt>
      <trkpt lat="45.24205" lon="6.10847">
        <ele>2890</ele>
        <time>2021-12-23T12:44:56Z</time>
      </trkpt>
      <trkpt lat="45.24204" lon="6.10847">
        <ele>2890</ele>
        <time>2021-12-23T12:44:57Z</time>
      </trkpt>
      <trkpt lat="45.24204" lon="6.10847">
        <ele>2890</ele>
        <time>2021-12-23T12:44:58Z</time>
      </trkpt>
      <trkpt lat="45.24204" lon="6.10847">
        <ele>2892</ele>
        <time>2021-12-23T12:44:59Z</time>
      </trkpt>
      <trkpt lat="45.24204" lon="6.10847">
        <ele>2892</ele>
        <time>2021-12-23T12:45:00Z</time>
      </trkpt>
      <trkpt lat="45.24204" lon="6.10847">
        <ele>2892</ele>
        <time>2021-12-23T12:45:01Z</time>
      </trkpt>
      <trkpt lat="45.24204" lon="6.10847">
        <ele>2892</ele>
        <time>2021-12-23T12:45:02Z</time>
      </trkpt>
      <trkpt lat="45.24204" lon="6.10847">
        <ele>2892</ele>
        <time>2021-12-23T12:45:03Z</time>
      </trkpt>
      <trkpt lat="45.24204" lon="6.10847">
        <ele>2892</ele>
        <time>2021-12-23T12:45:04Z</time>
      </trkpt>
      <trkpt lat="45.24204" lon="6.10847">
        <ele>2892</ele>
        <time>2021-12-23T12:45:05Z</time>
      </trkpt>
      <trkpt lat="45.24204" lon="6.10847">
        <ele>2892</ele>
        <time>2021-12-23T12:45:06Z</time>
      </trkpt>
      <trkpt lat="45.24204" lon="6.10847">
        <ele>2892</ele>
        <time>2021-12-23T12:45:07Z</time>
      </trkpt>
      <trkpt lat="45.24204" lon="6.10847">
        <ele>2892</ele>
        <time>2021-12-23T12:45:09Z</time>
      </trkpt>
      <trkpt lat="45.24204" lon="6.10847">
        <ele>2892</ele>
        <time>2021-12-23T12:45:10Z</time>
      </trkpt>
      <trkpt lat="45.24204" lon="6.10847">
        <ele>2892</ele>
        <time>2021-12-23T12:45:11Z</time>
      </trkpt>
      <trkpt lat="45.24204" lon="6.10847">
        <ele>2892</ele>
        <time>2021-12-23T12:45:12Z</time>
      </trkpt>
      <trkpt lat="45.24204" lon="6.10847">
        <ele>2890</ele>
        <time>2021-12-23T12:45:13Z</time>
      </trkpt>
      <trkpt lat="45.24204" lon="6.10847">
        <ele>2890</ele>
        <time>2021-12-23T12:45:14Z</time>
      </trkpt>
      <trkpt lat="45.24204" lon="6.10847">
        <ele>2890</ele>
        <time>2021-12-23T12:45:15Z</time>
      </trkpt>
      <trkpt lat="45.24204" lon="6.10847">
        <ele>2892</ele>
        <time>2021-12-23T12:45:16Z</time>
      </trkpt>
      <trkpt lat="45.24204" lon="6.10847">
        <ele>2892</ele>
        <time>2021-12-23T12:45:17Z</time>
      </trkpt>
      <trkpt lat="45.24204" lon="6.10847">
        <ele>2892</ele>
        <time>2021-12-23T12:45:18Z</time>
      </trkpt>
      <trkpt lat="45.24204" lon="6.10847">
        <ele>2892</ele>
        <time>2021-12-23T12:45:19Z</time>
      </trkpt>
      <trkpt lat="45.24204" lon="6.10847">
        <ele>2890</ele>
        <time>2021-12-23T12:45:20Z</time>
      </trkpt>
      <trkpt lat="45.24204" lon="6.10847">
        <ele>2890</ele>
        <time>2021-12-23T12:45:21Z</time>
      </trkpt>
      <trkpt lat="45.24204" lon="6.10847">
        <ele>2890</ele>
        <time>2021-12-23T12:45:22Z</time>
      </trkpt>
      <trkpt lat="45.24204" lon="6.10847">
        <ele>2890</ele>
        <time>2021-12-23T12:45:23Z</time>
      </trkpt>
      <trkpt lat="45.24204" lon="6.10847">
        <ele>2890</ele>
        <time>2021-12-23T12:45:24Z</time>
      </trkpt>
      <trkpt lat="45.24204" lon="6.10847">
        <ele>2892</ele>
        <time>2021-12-23T12:45:25Z</time>
      </trkpt>
      <trkpt lat="45.24204" lon="6.10847">
        <ele>2892</ele>
        <time>2021-12-23T12:45:26Z</time>
      </trkpt>
      <trkpt lat="45.24204" lon="6.10847">
        <ele>2892</ele>
        <time>2021-12-23T12:45:28Z</time>
      </trkpt>
      <trkpt lat="45.24204" lon="6.10847">
        <ele>2892</ele>
        <time>2021-12-23T12:45:29Z</time>
      </trkpt>
      <trkpt lat="45.24204" lon="6.10847">
        <ele>2892</ele>
        <time>2021-12-23T12:45:30Z</time>
      </trkpt>
      <trkpt lat="45.24204" lon="6.10847">
        <ele>2892</ele>
        <time>2021-12-23T12:45:31Z</time>
      </trkpt>
      <trkpt lat="45.24204" lon="6.10847">
        <ele>2892</ele>
        <time>2021-12-23T12:45:32Z</time>
      </trkpt>
      <trkpt lat="45.24204" lon="6.10847">
        <ele>2892</ele>
        <time>2021-12-23T12:45:33Z</time>
      </trkpt>
      <trkpt lat="45.24204" lon="6.10847">
        <ele>2892</ele>
        <time>2021-12-23T12:45:34Z</time>
      </trkpt>
      <trkpt lat="45.24204" lon="6.10847">
        <ele>2892</ele>
        <time>2021-12-23T12:45:35Z</time>
      </trkpt>
      <trkpt lat="45.24204" lon="6.10847">
        <ele>2892</ele>
        <time>2021-12-23T12:45:36Z</time>
      </trkpt>
      <trkpt lat="45.24204" lon="6.10847">
        <ele>2892</ele>
        <time>2021-12-23T12:45:37Z</time>
      </trkpt>
      <trkpt lat="45.24204" lon="6.10847">
        <ele>2892</ele>
        <time>2021-12-23T12:45:38Z</time>
      </trkpt>
      <trkpt lat="45.24204" lon="6.10847">
        <ele>2892</ele>
        <time>2021-12-23T12:45:39Z</time>
      </trkpt>
      <trkpt lat="45.24204" lon="6.10847">
        <ele>2892</ele>
        <time>2021-12-23T12:45:40Z</time>
      </trkpt>
      <trkpt lat="45.24204" lon="6.10847">
        <ele>2892</ele>
        <time>2021-12-23T12:45:41Z</time>
      </trkpt>
      <trkpt lat="45.24204" lon="6.10847">
        <ele>2892</ele>
        <time>2021-12-23T12:45:42Z</time>
      </trkpt>
      <trkpt lat="45.24204" lon="6.10847">
        <ele>2892</ele>
        <time>2021-12-23T12:45:43Z</time>
      </trkpt>
      <trkpt lat="45.24204" lon="6.10847">
        <ele>2892</ele>
        <time>2021-12-23T12:45:44Z</time>
      </trkpt>
      <trkpt lat="45.24204" lon="6.10847">
        <ele>2892</ele>
        <time>2021-12-23T12:45:45Z</time>
      </trkpt>
      <trkpt lat="45.24204" lon="6.10847">
        <ele>2892</ele>
        <time>2021-12-23T12:45:47Z</time>
      </trkpt>
      <trkpt lat="45.24204" lon="6.10847">
        <ele>2892</ele>
        <time>2021-12-23T12:45:48Z</time>
      </trkpt>
      <trkpt lat="45.24204" lon="6.10847">
        <ele>2892</ele>
        <time>2021-12-23T12:45:49Z</time>
      </trkpt>
      <trkpt lat="45.24204" lon="6.10847">
        <ele>2893</ele>
        <time>2021-12-23T12:45:50Z</time>
      </trkpt>
      <trkpt lat="45.24204" lon="6.10847">
        <ele>2893</ele>
        <time>2021-12-23T12:45:51Z</time>
      </trkpt>
      <trkpt lat="45.24204" lon="6.10847">
        <ele>2893</ele>
        <time>2021-12-23T12:45:52Z</time>
      </trkpt>
      <trkpt lat="45.24204" lon="6.10847">
        <ele>2893</ele>
        <time>2021-12-23T12:45:53Z</time>
      </trkpt>
      <trkpt lat="45.24204" lon="6.10847">
        <ele>2893</ele>
        <time>2021-12-23T12:45:54Z</time>
      </trkpt>
      <trkpt lat="45.24204" lon="6.10847">
        <ele>2893</ele>
        <time>2021-12-23T12:45:55Z</time>
      </trkpt>
      <trkpt lat="45.24204" lon="6.10847">
        <ele>2893</ele>
        <time>2021-12-23T12:45:56Z</time>
      </trkpt>
      <trkpt lat="45.24204" lon="6.10847">
        <ele>2893</ele>
        <time>2021-12-23T12:45:57Z</time>
      </trkpt>
      <trkpt lat="45.24204" lon="6.10847">
        <ele>2893</ele>
        <time>2021-12-23T12:45:58Z</time>
      </trkpt>
      <trkpt lat="45.24204" lon="6.10847">
        <ele>2893</ele>
        <time>2021-12-23T12:45:59Z</time>
      </trkpt>
      <trkpt lat="45.24204" lon="6.10847">
        <ele>2893</ele>
        <time>2021-12-23T12:46:00Z</time>
      </trkpt>
      <trkpt lat="45.24204" lon="6.10847">
        <ele>2894</ele>
        <time>2021-12-23T12:46:01Z</time>
      </trkpt>
      <trkpt lat="45.24204" lon="6.10847">
        <ele>2894</ele>
        <time>2021-12-23T12:46:02Z</time>
      </trkpt>
      <trkpt lat="45.24204" lon="6.10847">
        <ele>2894</ele>
        <time>2021-12-23T12:46:03Z</time>
      </trkpt>
      <trkpt lat="45.24196" lon="6.10846">
        <ele>2894</ele>
        <time>2021-12-23T12:46:04Z</time>
      </trkpt>
      <trkpt lat="45.24196" lon="6.10846">
        <ele>2894</ele>
        <time>2021-12-23T12:46:06Z</time>
      </trkpt>
      <trkpt lat="45.24195" lon="6.10846">
        <ele>2894</ele>
        <time>2021-12-23T12:46:07Z</time>
      </trkpt>
      <trkpt lat="45.24195" lon="6.10846">
        <ele>2894</ele>
        <time>2021-12-23T12:46:08Z</time>
      </trkpt>
      <trkpt lat="45.24195" lon="6.10846">
        <ele>2894</ele>
        <time>2021-12-23T12:46:09Z</time>
      </trkpt>
      <trkpt lat="45.24194" lon="6.10846">
        <ele>2894</ele>
        <time>2021-12-23T12:46:10Z</time>
      </trkpt>
      <trkpt lat="45.24194" lon="6.10846">
        <ele>2894</ele>
        <time>2021-12-23T12:46:11Z</time>
      </trkpt>
      <trkpt lat="45.24194" lon="6.10846">
        <ele>2894</ele>
        <time>2021-12-23T12:46:12Z</time>
      </trkpt>
      <trkpt lat="45.24193" lon="6.10846">
        <ele>2894</ele>
        <time>2021-12-23T12:46:13Z</time>
      </trkpt>
      <trkpt lat="45.24193" lon="6.10846">
        <ele>2894</ele>
        <time>2021-12-23T12:46:14Z</time>
      </trkpt>
      <trkpt lat="45.24193" lon="6.10846">
        <ele>2894</ele>
        <time>2021-12-23T12:46:15Z</time>
      </trkpt>
      <trkpt lat="45.24192" lon="6.10846">
        <ele>2894</ele>
        <time>2021-12-23T12:46:16Z</time>
      </trkpt>
      <trkpt lat="45.24192" lon="6.10846">
        <ele>2894</ele>
        <time>2021-12-23T12:46:17Z</time>
      </trkpt>
      <trkpt lat="45.24192" lon="6.10846">
        <ele>2894</ele>
        <time>2021-12-23T12:46:18Z</time>
      </trkpt>
      <trkpt lat="45.24191" lon="6.10846">
        <ele>2894</ele>
        <time>2021-12-23T12:46:19Z</time>
      </trkpt>
      <trkpt lat="45.24191" lon="6.10846">
        <ele>2894</ele>
        <time>2021-12-23T12:46:20Z</time>
      </trkpt>
      <trkpt lat="45.24191" lon="6.10845">
        <ele>2894</ele>
        <time>2021-12-23T12:46:21Z</time>
      </trkpt>
      <trkpt lat="45.2419" lon="6.10845">
        <ele>2894</ele>
        <time>2021-12-23T12:46:22Z</time>
      </trkpt>
      <trkpt lat="45.2419" lon="6.10845">
        <ele>2894</ele>
        <time>2021-12-23T12:46:23Z</time>
      </trkpt>
      <trkpt lat="45.2419" lon="6.10845">
        <ele>2895</ele>
        <time>2021-12-23T12:46:25Z</time>
      </trkpt>
      <trkpt lat="45.24189" lon="6.10845">
        <ele>2895</ele>
        <time>2021-12-23T12:46:26Z</time>
      </trkpt>
      <trkpt lat="45.24189" lon="6.10845">
        <ele>2895</ele>
        <time>2021-12-23T12:46:27Z</time>
      </trkpt>
      <trkpt lat="45.24189" lon="6.10845">
        <ele>2895</ele>
        <time>2021-12-23T12:46:28Z</time>
      </trkpt>
      <trkpt lat="45.24188" lon="6.10845">
        <ele>2895</ele>
        <time>2021-12-23T12:46:29Z</time>
      </trkpt>
      <trkpt lat="45.24188" lon="6.10845">
        <ele>2895</ele>
        <time>2021-12-23T12:46:30Z</time>
      </trkpt>
      <trkpt lat="45.24188" lon="6.10845">
        <ele>2895</ele>
        <time>2021-12-23T12:46:31Z</time>
      </trkpt>
      <trkpt lat="45.24187" lon="6.10845">
        <ele>2895</ele>
        <time>2021-12-23T12:46:32Z</time>
      </trkpt>
      <trkpt lat="45.24187" lon="6.10845">
        <ele>2895</ele>
        <time>2021-12-23T12:46:33Z</time>
      </trkpt>
      <trkpt lat="45.24187" lon="6.10845">
        <ele>2895</ele>
        <time>2021-12-23T12:46:34Z</time>
      </trkpt>
      <trkpt lat="45.24186" lon="6.10845">
        <ele>2895</ele>
        <time>2021-12-23T12:46:35Z</time>
      </trkpt>
      <trkpt lat="45.24186" lon="6.10845">
        <ele>2895</ele>
        <time>2021-12-23T12:46:36Z</time>
      </trkpt>
      <trkpt lat="45.24186" lon="6.10845">
        <ele>2896</ele>
        <time>2021-12-23T12:46:37Z</time>
      </trkpt>
      <trkpt lat="45.24186" lon="6.10845">
        <ele>2896</ele>
        <time>2021-12-23T12:46:38Z</time>
      </trkpt>
      <trkpt lat="45.24186" lon="6.10845">
        <ele>2896</ele>
        <time>2021-12-23T12:46:39Z</time>
      </trkpt>
      <trkpt lat="45.24186" lon="6.10844">
        <ele>2897</ele>
        <time>2021-12-23T12:46:40Z</time>
      </trkpt>
      <trkpt lat="45.24186" lon="6.10844">
        <ele>2898</ele>
        <time>2021-12-23T12:46:41Z</time>
      </trkpt>
      <trkpt lat="45.24186" lon="6.10844">
        <ele>2898</ele>
        <time>2021-12-23T12:46:42Z</time>
      </trkpt>
      <trkpt lat="45.24185" lon="6.10844">
        <ele>2898</ele>
        <time>2021-12-23T12:46:44Z</time>
      </trkpt>
      <trkpt lat="45.24185" lon="6.10844">
        <ele>2898</ele>
        <time>2021-12-23T12:46:45Z</time>
      </trkpt>
      <trkpt lat="45.24185" lon="6.10844">
        <ele>2898</ele>
        <time>2021-12-23T12:46:46Z</time>
      </trkpt>
      <trkpt lat="45.24185" lon="6.10843">
        <ele>2898</ele>
        <time>2021-12-23T12:46:47Z</time>
      </trkpt>
      <trkpt lat="45.24185" lon="6.10843">
        <ele>2898</ele>
        <time>2021-12-23T12:46:48Z</time>
      </trkpt>
      <trkpt lat="45.24185" lon="6.10843">
        <ele>2898</ele>
        <time>2021-12-23T12:46:49Z</time>
      </trkpt>
      <trkpt lat="45.24185" lon="6.10843">
        <ele>2898</ele>
        <time>2021-12-23T12:46:50Z</time>
      </trkpt>
      <trkpt lat="45.24185" lon="6.10843">
        <ele>2898</ele>
        <time>2021-12-23T12:46:51Z</time>
      </trkpt>
      <trkpt lat="45.24184" lon="6.10843">
        <ele>2898</ele>
        <time>2021-12-23T12:46:52Z</time>
      </trkpt>
      <trkpt lat="45.24184" lon="6.10842">
        <ele>2898</ele>
        <time>2021-12-23T12:46:53Z</time>
      </trkpt>
      <trkpt lat="45.24184" lon="6.10842">
        <ele>2898</ele>
        <time>2021-12-23T12:46:54Z</time>
      </trkpt>
      <trkpt lat="45.24184" lon="6.10842">
        <ele>2898</ele>
        <time>2021-12-23T12:46:55Z</time>
      </trkpt>
      <trkpt lat="45.24184" lon="6.10842">
        <ele>2898</ele>
        <time>2021-12-23T12:46:56Z</time>
      </trkpt>
      <trkpt lat="45.24184" lon="6.10842">
        <ele>2898</ele>
        <time>2021-12-23T12:46:57Z</time>
      </trkpt>
      <trkpt lat="45.24184" lon="6.10842">
        <ele>2898</ele>
        <time>2021-12-23T12:46:58Z</time>
      </trkpt>
      <trkpt lat="45.24184" lon="6.10841">
        <ele>2898</ele>
        <time>2021-12-23T12:46:59Z</time>
      </trkpt>
      <trkpt lat="45.24184" lon="6.10841">
        <ele>2898</ele>
        <time>2021-12-23T12:47:00Z</time>
      </trkpt>
      <trkpt lat="45.24183" lon="6.10841">
        <ele>2899</ele>
        <time>2021-12-23T12:47:01Z</time>
      </trkpt>
      <trkpt lat="45.24183" lon="6.10841">
        <ele>2899</ele>
        <time>2021-12-23T12:47:03Z</time>
      </trkpt>
      <trkpt lat="45.24183" lon="6.10841">
        <ele>2899</ele>
        <time>2021-12-23T12:47:04Z</time>
      </trkpt>
      <trkpt lat="45.24183" lon="6.10841">
        <ele>2899</ele>
        <time>2021-12-23T12:47:05Z</time>
      </trkpt>
      <trkpt lat="45.24183" lon="6.1084">
        <ele>2899</ele>
        <time>2021-12-23T12:47:06Z</time>
      </trkpt>
      <trkpt lat="45.24183" lon="6.1084">
        <ele>2899</ele>
        <time>2021-12-23T12:47:07Z</time>
      </trkpt>
      <trkpt lat="45.24183" lon="6.1084">
        <ele>2899</ele>
        <time>2021-12-23T12:47:08Z</time>
      </trkpt>
      <trkpt lat="45.24183" lon="6.1084">
        <ele>2899</ele>
        <time>2021-12-23T12:47:09Z</time>
      </trkpt>
      <trkpt lat="45.24183" lon="6.1084">
        <ele>2899</ele>
        <time>2021-12-23T12:47:10Z</time>
      </trkpt>
      <trkpt lat="45.24182" lon="6.1084">
        <ele>2899</ele>
        <time>2021-12-23T12:47:11Z</time>
      </trkpt>
      <trkpt lat="45.24182" lon="6.10839">
        <ele>2899</ele>
        <time>2021-12-23T12:47:12Z</time>
      </trkpt>
      <trkpt lat="45.24182" lon="6.10839">
        <ele>2899</ele>
        <time>2021-12-23T12:47:13Z</time>
      </trkpt>
      <trkpt lat="45.24182" lon="6.10839">
        <ele>2899</ele>
        <time>2021-12-23T12:47:14Z</time>
      </trkpt>
      <trkpt lat="45.24182" lon="6.10839">
        <ele>2899</ele>
        <time>2021-12-23T12:47:15Z</time>
      </trkpt>
      <trkpt lat="45.24182" lon="6.10839">
        <ele>2899</ele>
        <time>2021-12-23T12:47:16Z</time>
      </trkpt>
      <trkpt lat="45.24182" lon="6.10839">
        <ele>2900</ele>
        <time>2021-12-23T12:47:17Z</time>
      </trkpt>
      <trkpt lat="45.24182" lon="6.10838">
        <ele>2900</ele>
        <time>2021-12-23T12:47:18Z</time>
      </trkpt>
      <trkpt lat="45.24181" lon="6.10838">
        <ele>2900</ele>
        <time>2021-12-23T12:47:19Z</time>
      </trkpt>
      <trkpt lat="45.24181" lon="6.10838">
        <ele>2901</ele>
        <time>2021-12-23T12:47:20Z</time>
      </trkpt>
      <trkpt lat="45.24181" lon="6.10838">
        <ele>2901</ele>
        <time>2021-12-23T12:47:22Z</time>
      </trkpt>
      <trkpt lat="45.24181" lon="6.10838">
        <ele>2901</ele>
        <time>2021-12-23T12:47:23Z</time>
      </trkpt>
      <trkpt lat="45.24181" lon="6.10837">
        <ele>2901</ele>
        <time>2021-12-23T12:47:24Z</time>
      </trkpt>
      <trkpt lat="45.24181" lon="6.10837">
        <ele>2901</ele>
        <time>2021-12-23T12:47:25Z</time>
      </trkpt>
      <trkpt lat="45.2418" lon="6.10837">
        <ele>2901</ele>
        <time>2021-12-23T12:47:26Z</time>
      </trkpt>
      <trkpt lat="45.2418" lon="6.10836">
        <ele>2902</ele>
        <time>2021-12-23T12:47:27Z</time>
      </trkpt>
      <trkpt lat="45.2418" lon="6.10836">
        <ele>2904</ele>
        <time>2021-12-23T12:47:28Z</time>
      </trkpt>
      <trkpt lat="45.2418" lon="6.10835">
        <ele>2904</ele>
        <time>2021-12-23T12:47:29Z</time>
      </trkpt>
      <trkpt lat="45.24179" lon="6.10835">
        <ele>2904</ele>
        <time>2021-12-23T12:47:30Z</time>
      </trkpt>
      <trkpt lat="45.24179" lon="6.10835">
        <ele>2904</ele>
        <time>2021-12-23T12:47:31Z</time>
      </trkpt>
      <trkpt lat="45.24179" lon="6.10834">
        <ele>2904</ele>
        <time>2021-12-23T12:47:32Z</time>
      </trkpt>
      <trkpt lat="45.24179" lon="6.10834">
        <ele>2904</ele>
        <time>2021-12-23T12:47:33Z</time>
      </trkpt>
      <trkpt lat="45.24178" lon="6.10833">
        <ele>2905</ele>
        <time>2021-12-23T12:47:34Z</time>
      </trkpt>
      <trkpt lat="45.24178" lon="6.10833">
        <ele>2905</ele>
        <time>2021-12-23T12:47:35Z</time>
      </trkpt>
      <trkpt lat="45.24178" lon="6.10833">
        <ele>2905</ele>
        <time>2021-12-23T12:47:36Z</time>
      </trkpt>
      <trkpt lat="45.24178" lon="6.10832">
        <ele>2905</ele>
        <time>2021-12-23T12:47:37Z</time>
      </trkpt>
      <trkpt lat="45.24177" lon="6.10832">
        <ele>2905</ele>
        <time>2021-12-23T12:47:38Z</time>
      </trkpt>
      <trkpt lat="45.24177" lon="6.10831">
        <ele>2905</ele>
        <time>2021-12-23T12:47:39Z</time>
      </trkpt>
      <trkpt lat="45.24177" lon="6.10831">
        <ele>2905</ele>
        <time>2021-12-23T12:47:41Z</time>
      </trkpt>
      <trkpt lat="45.24177" lon="6.10831">
        <ele>2905</ele>
        <time>2021-12-23T12:47:42Z</time>
      </trkpt>
      <trkpt lat="45.24177" lon="6.1083">
        <ele>2905</ele>
        <time>2021-12-23T12:47:43Z</time>
      </trkpt>
      <trkpt lat="45.24176" lon="6.1083">
        <ele>2905</ele>
        <time>2021-12-23T12:47:44Z</time>
      </trkpt>
      <trkpt lat="45.24176" lon="6.10829">
        <ele>2905</ele>
        <time>2021-12-23T12:47:45Z</time>
      </trkpt>
      <trkpt lat="45.24176" lon="6.10829">
        <ele>2905</ele>
        <time>2021-12-23T12:47:46Z</time>
      </trkpt>
      <trkpt lat="45.24176" lon="6.10829">
        <ele>2905</ele>
        <time>2021-12-23T12:47:47Z</time>
      </trkpt>
      <trkpt lat="45.24175" lon="6.10828">
        <ele>2905</ele>
        <time>2021-12-23T12:47:48Z</time>
      </trkpt>
      <trkpt lat="45.24175" lon="6.10828">
        <ele>2905</ele>
        <time>2021-12-23T12:47:49Z</time>
      </trkpt>
      <trkpt lat="45.24175" lon="6.10827">
        <ele>2905</ele>
        <time>2021-12-23T12:47:50Z</time>
      </trkpt>
      <trkpt lat="45.24175" lon="6.10826">
        <ele>2905</ele>
        <time>2021-12-23T12:47:51Z</time>
      </trkpt>
      <trkpt lat="45.24175" lon="6.10826">
        <ele>2905</ele>
        <time>2021-12-23T12:47:52Z</time>
      </trkpt>
      <trkpt lat="45.24175" lon="6.10825">
        <ele>2905</ele>
        <time>2021-12-23T12:47:53Z</time>
      </trkpt>
      <trkpt lat="45.24175" lon="6.10825">
        <ele>2905</ele>
        <time>2021-12-23T12:47:54Z</time>
      </trkpt>
      <trkpt lat="45.24175" lon="6.10824">
        <ele>2905</ele>
        <time>2021-12-23T12:47:55Z</time>
      </trkpt>
      <trkpt lat="45.24175" lon="6.10823">
        <ele>2905</ele>
        <time>2021-12-23T12:47:56Z</time>
      </trkpt>
      <trkpt lat="45.24175" lon="6.10823">
        <ele>2905</ele>
        <time>2021-12-23T12:47:57Z</time>
      </trkpt>
      <trkpt lat="45.24175" lon="6.10822">
        <ele>2905</ele>
        <time>2021-12-23T12:47:58Z</time>
      </trkpt>
      <trkpt lat="45.24175" lon="6.10821">
        <ele>2906</ele>
        <time>2021-12-23T12:48:00Z</time>
      </trkpt>
      <trkpt lat="45.24175" lon="6.10821">
        <ele>2907</ele>
        <time>2021-12-23T12:48:01Z</time>
      </trkpt>
      <trkpt lat="45.24175" lon="6.1082">
        <ele>2907</ele>
        <time>2021-12-23T12:48:02Z</time>
      </trkpt>
      <trkpt lat="45.24175" lon="6.1082">
        <ele>2907</ele>
        <time>2021-12-23T12:48:03Z</time>
      </trkpt>
      <trkpt lat="45.24175" lon="6.10819">
        <ele>2907</ele>
        <time>2021-12-23T12:48:04Z</time>
      </trkpt>
      <trkpt lat="45.24175" lon="6.10818">
        <ele>2907</ele>
        <time>2021-12-23T12:48:05Z</time>
      </trkpt>
      <trkpt lat="45.24175" lon="6.10818">
        <ele>2908</ele>
        <time>2021-12-23T12:48:06Z</time>
      </trkpt>
      <trkpt lat="45.24175" lon="6.10817">
        <ele>2908</ele>
        <time>2021-12-23T12:48:07Z</time>
      </trkpt>
      <trkpt lat="45.24175" lon="6.10817">
        <ele>2908</ele>
        <time>2021-12-23T12:48:08Z</time>
      </trkpt>
      <trkpt lat="45.24174" lon="6.10816">
        <ele>2908</ele>
        <time>2021-12-23T12:48:09Z</time>
      </trkpt>
      <trkpt lat="45.24174" lon="6.10815">
        <ele>2909</ele>
        <time>2021-12-23T12:48:10Z</time>
      </trkpt>
      <trkpt lat="45.24174" lon="6.10815">
        <ele>2909</ele>
        <time>2021-12-23T12:48:11Z</time>
      </trkpt>
      <trkpt lat="45.24174" lon="6.10814">
        <ele>2909</ele>
        <time>2021-12-23T12:48:12Z</time>
      </trkpt>
      <trkpt lat="45.24174" lon="6.10813">
        <ele>2909</ele>
        <time>2021-12-23T12:48:13Z</time>
      </trkpt>
      <trkpt lat="45.24173" lon="6.10812">
        <ele>2909</ele>
        <time>2021-12-23T12:48:14Z</time>
      </trkpt>
      <trkpt lat="45.24173" lon="6.10812">
        <ele>2910</ele>
        <time>2021-12-23T12:48:15Z</time>
      </trkpt>
      <trkpt lat="45.24173" lon="6.10811">
        <ele>2910</ele>
        <time>2021-12-23T12:48:16Z</time>
      </trkpt>
      <trkpt lat="45.24172" lon="6.1081">
        <ele>2910</ele>
        <time>2021-12-23T12:48:17Z</time>
      </trkpt>
      <trkpt lat="45.24172" lon="6.10809">
        <ele>2910</ele>
        <time>2021-12-23T12:48:19Z</time>
      </trkpt>
      <trkpt lat="45.24172" lon="6.10809">
        <ele>2910</ele>
        <time>2021-12-23T12:48:20Z</time>
      </trkpt>
      <trkpt lat="45.24172" lon="6.10808">
        <ele>2910</ele>
        <time>2021-12-23T12:48:21Z</time>
      </trkpt>
      <trkpt lat="45.24171" lon="6.10807">
        <ele>2910</ele>
        <time>2021-12-23T12:48:22Z</time>
      </trkpt>
      <trkpt lat="45.24171" lon="6.10806">
        <ele>2910</ele>
        <time>2021-12-23T12:48:23Z</time>
      </trkpt>
      <trkpt lat="45.24171" lon="6.10806">
        <ele>2910</ele>
        <time>2021-12-23T12:48:24Z</time>
      </trkpt>
      <trkpt lat="45.24171" lon="6.10805">
        <ele>2911</ele>
        <time>2021-12-23T12:48:25Z</time>
      </trkpt>
      <trkpt lat="45.2417" lon="6.10804">
        <ele>2911</ele>
        <time>2021-12-23T12:48:26Z</time>
      </trkpt>
      <trkpt lat="45.2417" lon="6.10804">
        <ele>2911</ele>
        <time>2021-12-23T12:48:27Z</time>
      </trkpt>
      <trkpt lat="45.24169" lon="6.10803">
        <ele>2911</ele>
        <time>2021-12-23T12:48:28Z</time>
      </trkpt>
      <trkpt lat="45.24169" lon="6.10802">
        <ele>2911</ele>
        <time>2021-12-23T12:48:29Z</time>
      </trkpt>
      <trkpt lat="45.24168" lon="6.10802">
        <ele>2911</ele>
        <time>2021-12-23T12:48:30Z</time>
      </trkpt>
      <trkpt lat="45.24168" lon="6.10801">
        <ele>2911</ele>
        <time>2021-12-23T12:48:31Z</time>
      </trkpt>
      <trkpt lat="45.24167" lon="6.10801">
        <ele>2911</ele>
        <time>2021-12-23T12:48:32Z</time>
      </trkpt>
      <trkpt lat="45.24167" lon="6.108">
        <ele>2911</ele>
        <time>2021-12-23T12:48:33Z</time>
      </trkpt>
      <trkpt lat="45.24167" lon="6.10799">
        <ele>2912</ele>
        <time>2021-12-23T12:48:34Z</time>
      </trkpt>
      <trkpt lat="45.24166" lon="6.10799">
        <ele>2912</ele>
        <time>2021-12-23T12:48:35Z</time>
      </trkpt>
      <trkpt lat="45.24166" lon="6.10798">
        <ele>2913</ele>
        <time>2021-12-23T12:48:36Z</time>
      </trkpt>
      <trkpt lat="45.24165" lon="6.10797">
        <ele>2913</ele>
        <time>2021-12-23T12:48:38Z</time>
      </trkpt>
      <trkpt lat="45.24165" lon="6.10797">
        <ele>2913</ele>
        <time>2021-12-23T12:48:39Z</time>
      </trkpt>
      <trkpt lat="45.24164" lon="6.10796">
        <ele>2913</ele>
        <time>2021-12-23T12:48:40Z</time>
      </trkpt>
      <trkpt lat="45.24164" lon="6.10796">
        <ele>2913</ele>
        <time>2021-12-23T12:48:41Z</time>
      </trkpt>
      <trkpt lat="45.24164" lon="6.10796">
        <ele>2913</ele>
        <time>2021-12-23T12:48:42Z</time>
      </trkpt>
      <trkpt lat="45.24164" lon="6.10796">
        <ele>2913</ele>
        <time>2021-12-23T12:48:43Z</time>
      </trkpt>
      <trkpt lat="45.24164" lon="6.10796">
        <ele>2913</ele>
        <time>2021-12-23T12:48:44Z</time>
      </trkpt>
      <trkpt lat="45.24164" lon="6.10796">
        <ele>2913</ele>
        <time>2021-12-23T12:48:45Z</time>
      </trkpt>
      <trkpt lat="45.24164" lon="6.10796">
        <ele>2914</ele>
        <time>2021-12-23T12:48:46Z</time>
      </trkpt>
      <trkpt lat="45.24164" lon="6.10796">
        <ele>2914</ele>
        <time>2021-12-23T12:48:47Z</time>
      </trkpt>
      <trkpt lat="45.24164" lon="6.10796">
        <ele>2914</ele>
        <time>2021-12-23T12:48:48Z</time>
      </trkpt>
      <trkpt lat="45.24164" lon="6.10796">
        <ele>2914</ele>
        <time>2021-12-23T12:48:49Z</time>
      </trkpt>
      <trkpt lat="45.24164" lon="6.10796">
        <ele>2916</ele>
        <time>2021-12-23T12:48:50Z</time>
      </trkpt>
      <trkpt lat="45.24164" lon="6.10796">
        <ele>2916</ele>
        <time>2021-12-23T12:48:51Z</time>
      </trkpt>
      <trkpt lat="45.24164" lon="6.10796">
        <ele>2916</ele>
        <time>2021-12-23T12:48:52Z</time>
      </trkpt>
      <trkpt lat="45.24164" lon="6.10796">
        <ele>2916</ele>
        <time>2021-12-23T12:48:53Z</time>
      </trkpt>
      <trkpt lat="45.24164" lon="6.10796">
        <ele>2916</ele>
        <time>2021-12-23T12:48:54Z</time>
      </trkpt>
      <trkpt lat="45.24164" lon="6.10796">
        <ele>2916</ele>
        <time>2021-12-23T12:48:55Z</time>
      </trkpt>
      <trkpt lat="45.24162" lon="6.10783">
        <ele>2916</ele>
        <time>2021-12-23T12:48:57Z</time>
      </trkpt>
      <trkpt lat="45.24162" lon="6.10782">
        <ele>2916</ele>
        <time>2021-12-23T12:48:58Z</time>
      </trkpt>
      <trkpt lat="45.24162" lon="6.1078">
        <ele>2916</ele>
        <time>2021-12-23T12:48:59Z</time>
      </trkpt>
      <trkpt lat="45.24162" lon="6.10779">
        <ele>2916</ele>
        <time>2021-12-23T12:49:00Z</time>
      </trkpt>
      <trkpt lat="45.24161" lon="6.10778">
        <ele>2916</ele>
        <time>2021-12-23T12:49:01Z</time>
      </trkpt>
      <trkpt lat="45.24161" lon="6.10777">
        <ele>2916</ele>
        <time>2021-12-23T12:49:02Z</time>
      </trkpt>
      <trkpt lat="45.24161" lon="6.10776">
        <ele>2916</ele>
        <time>2021-12-23T12:49:03Z</time>
      </trkpt>
      <trkpt lat="45.2416" lon="6.10774">
        <ele>2916</ele>
        <time>2021-12-23T12:49:04Z</time>
      </trkpt>
      <trkpt lat="45.2416" lon="6.10773">
        <ele>2917</ele>
        <time>2021-12-23T12:49:05Z</time>
      </trkpt>
      <trkpt lat="45.2416" lon="6.10772">
        <ele>2917</ele>
        <time>2021-12-23T12:49:06Z</time>
      </trkpt>
      <trkpt lat="45.2416" lon="6.10771">
        <ele>2917</ele>
        <time>2021-12-23T12:49:07Z</time>
      </trkpt>
      <trkpt lat="45.2416" lon="6.1077">
        <ele>2917</ele>
        <time>2021-12-23T12:49:08Z</time>
      </trkpt>
      <trkpt lat="45.2416" lon="6.10769">
        <ele>2917</ele>
        <time>2021-12-23T12:49:09Z</time>
      </trkpt>
      <trkpt lat="45.2416" lon="6.10769">
        <ele>2918</ele>
        <time>2021-12-23T12:49:10Z</time>
      </trkpt>
      <trkpt lat="45.2416" lon="6.10768">
        <ele>2918</ele>
        <time>2021-12-23T12:49:11Z</time>
      </trkpt>
      <trkpt lat="45.2416" lon="6.10768">
        <ele>2919</ele>
        <time>2021-12-23T12:49:12Z</time>
      </trkpt>
      <trkpt lat="45.2416" lon="6.10767">
        <ele>2919</ele>
        <time>2021-12-23T12:49:13Z</time>
      </trkpt>
      <trkpt lat="45.2416" lon="6.10766">
        <ele>2919</ele>
        <time>2021-12-23T12:49:14Z</time>
      </trkpt>
      <trkpt lat="45.2416" lon="6.10766">
        <ele>2919</ele>
        <time>2021-12-23T12:49:16Z</time>
      </trkpt>
      <trkpt lat="45.2416" lon="6.10765">
        <ele>2919</ele>
        <time>2021-12-23T12:49:17Z</time>
      </trkpt>
      <trkpt lat="45.2416" lon="6.10764">
        <ele>2919</ele>
        <time>2021-12-23T12:49:18Z</time>
      </trkpt>
      <trkpt lat="45.2416" lon="6.10764">
        <ele>2920</ele>
        <time>2021-12-23T12:49:19Z</time>
      </trkpt>
      <trkpt lat="45.2416" lon="6.10763">
        <ele>2920</ele>
        <time>2021-12-23T12:49:20Z</time>
      </trkpt>
      <trkpt lat="45.2416" lon="6.10762">
        <ele>2920</ele>
        <time>2021-12-23T12:49:21Z</time>
      </trkpt>
      <trkpt lat="45.2416" lon="6.10762">
        <ele>2920</ele>
        <time>2021-12-23T12:49:22Z</time>
      </trkpt>
      <trkpt lat="45.2416" lon="6.10761">
        <ele>2920</ele>
        <time>2021-12-23T12:49:23Z</time>
      </trkpt>
      <trkpt lat="45.2416" lon="6.10761">
        <ele>2920</ele>
        <time>2021-12-23T12:49:24Z</time>
      </trkpt>
      <trkpt lat="45.2416" lon="6.1076">
        <ele>2920</ele>
        <time>2021-12-23T12:49:25Z</time>
      </trkpt>
      <trkpt lat="45.2416" lon="6.10759">
        <ele>2920</ele>
        <time>2021-12-23T12:49:26Z</time>
      </trkpt>
      <trkpt lat="45.2416" lon="6.10759">
        <ele>2921</ele>
        <time>2021-12-23T12:49:27Z</time>
      </trkpt>
      <trkpt lat="45.2416" lon="6.10757">
        <ele>2922</ele>
        <time>2021-12-23T12:49:28Z</time>
      </trkpt>
      <trkpt lat="45.2416" lon="6.10756">
        <ele>2922</ele>
        <time>2021-12-23T12:49:29Z</time>
      </trkpt>
      <trkpt lat="45.24159" lon="6.10755">
        <ele>2922</ele>
        <time>2021-12-23T12:49:30Z</time>
      </trkpt>
      <trkpt lat="45.24159" lon="6.10754">
        <ele>2922</ele>
        <time>2021-12-23T12:49:31Z</time>
      </trkpt>
      <trkpt lat="45.24159" lon="6.10753">
        <ele>2922</ele>
        <time>2021-12-23T12:49:32Z</time>
      </trkpt>
      <trkpt lat="45.24158" lon="6.10752">
        <ele>2922</ele>
        <time>2021-12-23T12:49:33Z</time>
      </trkpt>
      <trkpt lat="45.24158" lon="6.10751">
        <ele>2922</ele>
        <time>2021-12-23T12:49:35Z</time>
      </trkpt>
      <trkpt lat="45.24158" lon="6.10749">
        <ele>2922</ele>
        <time>2021-12-23T12:49:36Z</time>
      </trkpt>
      <trkpt lat="45.24158" lon="6.10748">
        <ele>2922</ele>
        <time>2021-12-23T12:49:37Z</time>
      </trkpt>
      <trkpt lat="45.24157" lon="6.10747">
        <ele>2922</ele>
        <time>2021-12-23T12:49:38Z</time>
      </trkpt>
      <trkpt lat="45.24157" lon="6.10746">
        <ele>2922</ele>
        <time>2021-12-23T12:49:39Z</time>
      </trkpt>
      <trkpt lat="45.24157" lon="6.10747">
        <ele>2922</ele>
        <time>2021-12-23T12:49:40Z</time>
      </trkpt>
      <trkpt lat="45.24156" lon="6.10747">
        <ele>2922</ele>
        <time>2021-12-23T12:49:41Z</time>
      </trkpt>
      <trkpt lat="45.24156" lon="6.10748">
        <ele>2922</ele>
        <time>2021-12-23T12:49:42Z</time>
      </trkpt>
      <trkpt lat="45.24156" lon="6.10748">
        <ele>2922</ele>
        <time>2021-12-23T12:49:43Z</time>
      </trkpt>
      <trkpt lat="45.24155" lon="6.10749">
        <ele>2922</ele>
        <time>2021-12-23T12:49:44Z</time>
      </trkpt>
      <trkpt lat="45.24155" lon="6.1075">
        <ele>2922</ele>
        <time>2021-12-23T12:49:45Z</time>
      </trkpt>
      <trkpt lat="45.24155" lon="6.1075">
        <ele>2922</ele>
        <time>2021-12-23T12:49:46Z</time>
      </trkpt>
      <trkpt lat="45.24154" lon="6.10751">
        <ele>2923</ele>
        <time>2021-12-23T12:49:47Z</time>
      </trkpt>
      <trkpt lat="45.24154" lon="6.10752">
        <ele>2923</ele>
        <time>2021-12-23T12:49:48Z</time>
      </trkpt>
      <trkpt lat="45.24154" lon="6.10752">
        <ele>2923</ele>
        <time>2021-12-23T12:49:49Z</time>
      </trkpt>
      <trkpt lat="45.24153" lon="6.10753">
        <ele>2923</ele>
        <time>2021-12-23T12:49:50Z</time>
      </trkpt>
      <trkpt lat="45.24153" lon="6.10754">
        <ele>2922</ele>
        <time>2021-12-23T12:49:51Z</time>
      </trkpt>
      <trkpt lat="45.24153" lon="6.10754">
        <ele>2922</ele>
        <time>2021-12-23T12:49:52Z</time>
      </trkpt>
      <trkpt lat="45.24152" lon="6.10755">
        <ele>2922</ele>
        <time>2021-12-23T12:49:54Z</time>
      </trkpt>
      <trkpt lat="45.24152" lon="6.10756">
        <ele>2922</ele>
        <time>2021-12-23T12:49:55Z</time>
      </trkpt>
      <trkpt lat="45.24152" lon="6.10756">
        <ele>2922</ele>
        <time>2021-12-23T12:49:56Z</time>
      </trkpt>
      <trkpt lat="45.24151" lon="6.10757">
        <ele>2923</ele>
        <time>2021-12-23T12:49:57Z</time>
      </trkpt>
      <trkpt lat="45.24151" lon="6.10757">
        <ele>2923</ele>
        <time>2021-12-23T12:49:58Z</time>
      </trkpt>
      <trkpt lat="45.24151" lon="6.10757">
        <ele>2923</ele>
        <time>2021-12-23T12:49:59Z</time>
      </trkpt>
      <trkpt lat="45.24151" lon="6.10757">
        <ele>2923</ele>
        <time>2021-12-23T12:50:00Z</time>
      </trkpt>
      <trkpt lat="45.24151" lon="6.10757">
        <ele>2923</ele>
        <time>2021-12-23T12:50:01Z</time>
      </trkpt>
      <trkpt lat="45.24151" lon="6.10757">
        <ele>2923</ele>
        <time>2021-12-23T12:50:02Z</time>
      </trkpt>
      <trkpt lat="45.24151" lon="6.10757">
        <ele>2922</ele>
        <time>2021-12-23T12:50:03Z</time>
      </trkpt>
      <trkpt lat="45.24151" lon="6.10757">
        <ele>2922</ele>
        <time>2021-12-23T12:50:04Z</time>
      </trkpt>
      <trkpt lat="45.24151" lon="6.10757">
        <ele>2922</ele>
        <time>2021-12-23T12:50:05Z</time>
      </trkpt>
      <trkpt lat="45.24151" lon="6.10757">
        <ele>2922</ele>
        <time>2021-12-23T12:50:06Z</time>
      </trkpt>
      <trkpt lat="45.24151" lon="6.10757">
        <ele>2923</ele>
        <time>2021-12-23T12:50:07Z</time>
      </trkpt>
      <trkpt lat="45.24151" lon="6.10757">
        <ele>2923</ele>
        <time>2021-12-23T12:50:08Z</time>
      </trkpt>
      <trkpt lat="45.24151" lon="6.10757">
        <ele>2923</ele>
        <time>2021-12-23T12:50:09Z</time>
      </trkpt>
      <trkpt lat="45.24151" lon="6.10757">
        <ele>2923</ele>
        <time>2021-12-23T12:50:10Z</time>
      </trkpt>
      <trkpt lat="45.24151" lon="6.10757">
        <ele>2923</ele>
        <time>2021-12-23T12:50:11Z</time>
      </trkpt>
      <trkpt lat="45.24151" lon="6.10757">
        <ele>2923</ele>
        <time>2021-12-23T12:50:13Z</time>
      </trkpt>
      <trkpt lat="45.24151" lon="6.10757">
        <ele>2923</ele>
        <time>2021-12-23T12:50:14Z</time>
      </trkpt>
      <trkpt lat="45.24151" lon="6.10757">
        <ele>2923</ele>
        <time>2021-12-23T12:50:15Z</time>
      </trkpt>
      <trkpt lat="45.24151" lon="6.10757">
        <ele>2923</ele>
        <time>2021-12-23T12:50:16Z</time>
      </trkpt>
      <trkpt lat="45.24151" lon="6.10756">
        <ele>2923</ele>
        <time>2021-12-23T12:50:17Z</time>
      </trkpt>
      <trkpt lat="45.24151" lon="6.10756">
        <ele>2923</ele>
        <time>2021-12-23T12:50:18Z</time>
      </trkpt>
      <trkpt lat="45.24151" lon="6.10756">
        <ele>2923</ele>
        <time>2021-12-23T12:50:19Z</time>
      </trkpt>
      <trkpt lat="45.24151" lon="6.10756">
        <ele>2923</ele>
        <time>2021-12-23T12:50:20Z</time>
      </trkpt>
      <trkpt lat="45.24151" lon="6.10756">
        <ele>2923</ele>
        <time>2021-12-23T12:50:21Z</time>
      </trkpt>
      <trkpt lat="45.24151" lon="6.10756">
        <ele>2923</ele>
        <time>2021-12-23T12:50:22Z</time>
      </trkpt>
      <trkpt lat="45.24151" lon="6.10756">
        <ele>2923</ele>
        <time>2021-12-23T12:50:23Z</time>
      </trkpt>
      <trkpt lat="45.24151" lon="6.10756">
        <ele>2923</ele>
        <time>2021-12-23T12:50:24Z</time>
      </trkpt>
      <trkpt lat="45.24151" lon="6.10756">
        <ele>2923</ele>
        <time>2021-12-23T12:50:25Z</time>
      </trkpt>
      <trkpt lat="45.24151" lon="6.10756">
        <ele>2923</ele>
        <time>2021-12-23T12:50:26Z</time>
      </trkpt>
      <trkpt lat="45.24151" lon="6.10756">
        <ele>2923</ele>
        <time>2021-12-23T12:50:27Z</time>
      </trkpt>
      <trkpt lat="45.24151" lon="6.10756">
        <ele>2923</ele>
        <time>2021-12-23T12:50:28Z</time>
      </trkpt>
      <trkpt lat="45.24151" lon="6.10756">
        <ele>2923</ele>
        <time>2021-12-23T12:50:29Z</time>
      </trkpt>
      <trkpt lat="45.24151" lon="6.10756">
        <ele>2923</ele>
        <time>2021-12-23T12:50:30Z</time>
      </trkpt>
      <trkpt lat="45.24151" lon="6.10756">
        <ele>2922</ele>
        <time>2021-12-23T12:50:32Z</time>
      </trkpt>
      <trkpt lat="45.24151" lon="6.10756">
        <ele>2922</ele>
        <time>2021-12-23T12:50:33Z</time>
      </trkpt>
      <trkpt lat="45.24151" lon="6.10756">
        <ele>2922</ele>
        <time>2021-12-23T12:50:34Z</time>
      </trkpt>
      <trkpt lat="45.24151" lon="6.10756">
        <ele>2922</ele>
        <time>2021-12-23T12:50:35Z</time>
      </trkpt>
      <trkpt lat="45.24151" lon="6.10756">
        <ele>2923</ele>
        <time>2021-12-23T12:50:36Z</time>
      </trkpt>
      <trkpt lat="45.24151" lon="6.10756">
        <ele>2923</ele>
        <time>2021-12-23T12:50:37Z</time>
      </trkpt>
      <trkpt lat="45.24151" lon="6.10756">
        <ele>2923</ele>
        <time>2021-12-23T12:50:38Z</time>
      </trkpt>
      <trkpt lat="45.24151" lon="6.10756">
        <ele>2923</ele>
        <time>2021-12-23T12:50:39Z</time>
      </trkpt>
      <trkpt lat="45.24151" lon="6.10756">
        <ele>2923</ele>
        <time>2021-12-23T12:50:40Z</time>
      </trkpt>
      <trkpt lat="45.24151" lon="6.10756">
        <ele>2923</ele>
        <time>2021-12-23T12:50:41Z</time>
      </trkpt>
      <trkpt lat="45.24151" lon="6.10756">
        <ele>2923</ele>
        <time>2021-12-23T12:50:42Z</time>
      </trkpt>
      <trkpt lat="45.24151" lon="6.10756">
        <ele>2923</ele>
        <time>2021-12-23T12:50:43Z</time>
      </trkpt>
      <trkpt lat="45.24151" lon="6.10756">
        <ele>2922</ele>
        <time>2021-12-23T12:50:44Z</time>
      </trkpt>
      <trkpt lat="45.24151" lon="6.10756">
        <ele>2922</ele>
        <time>2021-12-23T12:50:45Z</time>
      </trkpt>
      <trkpt lat="45.24151" lon="6.10756">
        <ele>2923</ele>
        <time>2021-12-23T12:50:46Z</time>
      </trkpt>
      <trkpt lat="45.24151" lon="6.10756">
        <ele>2923</ele>
        <time>2021-12-23T12:50:47Z</time>
      </trkpt>
      <trkpt lat="45.24151" lon="6.10756">
        <ele>2923</ele>
        <time>2021-12-23T12:50:48Z</time>
      </trkpt>
      <trkpt lat="45.24151" lon="6.10756">
        <ele>2923</ele>
        <time>2021-12-23T12:50:49Z</time>
      </trkpt>
      <trkpt lat="45.24151" lon="6.10756">
        <ele>2923</ele>
        <time>2021-12-23T12:50:51Z</time>
      </trkpt>
      <trkpt lat="45.24151" lon="6.10756">
        <ele>2923</ele>
        <time>2021-12-23T12:50:52Z</time>
      </trkpt>
      <trkpt lat="45.24151" lon="6.10756">
        <ele>2922</ele>
        <time>2021-12-23T12:50:53Z</time>
      </trkpt>
      <trkpt lat="45.24151" lon="6.10756">
        <ele>2923</ele>
        <time>2021-12-23T12:50:54Z</time>
      </trkpt>
      <trkpt lat="45.24151" lon="6.10756">
        <ele>2923</ele>
        <time>2021-12-23T12:50:55Z</time>
      </trkpt>
      <trkpt lat="45.24151" lon="6.10756">
        <ele>2923</ele>
        <time>2021-12-23T12:50:56Z</time>
      </trkpt>
      <trkpt lat="45.24151" lon="6.10756">
        <ele>2923</ele>
        <time>2021-12-23T12:50:57Z</time>
      </trkpt>
      <trkpt lat="45.24151" lon="6.10756">
        <ele>2923</ele>
        <time>2021-12-23T12:50:58Z</time>
      </trkpt>
      <trkpt lat="45.24151" lon="6.10756">
        <ele>2923</ele>
        <time>2021-12-23T12:50:59Z</time>
      </trkpt>
      <trkpt lat="45.24151" lon="6.10756">
        <ele>2923</ele>
        <time>2021-12-23T12:51:00Z</time>
      </trkpt>
      <trkpt lat="45.24151" lon="6.10756">
        <ele>2922</ele>
        <time>2021-12-23T12:51:01Z</time>
      </trkpt>
      <trkpt lat="45.24151" lon="6.10756">
        <ele>2922</ele>
        <time>2021-12-23T12:51:02Z</time>
      </trkpt>
      <trkpt lat="45.24151" lon="6.10756">
        <ele>2923</ele>
        <time>2021-12-23T12:51:03Z</time>
      </trkpt>
      <trkpt lat="45.2415" lon="6.10756">
        <ele>2923</ele>
        <time>2021-12-23T12:51:04Z</time>
      </trkpt>
      <trkpt lat="45.2415" lon="6.10756">
        <ele>2923</ele>
        <time>2021-12-23T12:51:05Z</time>
      </trkpt>
      <trkpt lat="45.2415" lon="6.10756">
        <ele>2923</ele>
        <time>2021-12-23T12:51:06Z</time>
      </trkpt>
      <trkpt lat="45.2415" lon="6.10756">
        <ele>2923</ele>
        <time>2021-12-23T12:51:07Z</time>
      </trkpt>
      <trkpt lat="45.2415" lon="6.10756">
        <ele>2922</ele>
        <time>2021-12-23T12:51:08Z</time>
      </trkpt>
      <trkpt lat="45.2415" lon="6.10756">
        <ele>2922</ele>
        <time>2021-12-23T12:51:10Z</time>
      </trkpt>
      <trkpt lat="45.2415" lon="6.10756">
        <ele>2922</ele>
        <time>2021-12-23T12:51:11Z</time>
      </trkpt>
      <trkpt lat="45.2415" lon="6.10756">
        <ele>2922</ele>
        <time>2021-12-23T12:51:12Z</time>
      </trkpt>
      <trkpt lat="45.2415" lon="6.10756">
        <ele>2922</ele>
        <time>2021-12-23T12:51:13Z</time>
      </trkpt>
      <trkpt lat="45.2415" lon="6.10756">
        <ele>2922</ele>
        <time>2021-12-23T12:51:14Z</time>
      </trkpt>
      <trkpt lat="45.2415" lon="6.10756">
        <ele>2922</ele>
        <time>2021-12-23T12:51:15Z</time>
      </trkpt>
      <trkpt lat="45.2415" lon="6.10756">
        <ele>2922</ele>
        <time>2021-12-23T12:51:16Z</time>
      </trkpt>
      <trkpt lat="45.2415" lon="6.10756">
        <ele>2922</ele>
        <time>2021-12-23T12:51:17Z</time>
      </trkpt>
      <trkpt lat="45.2415" lon="6.10756">
        <ele>2923</ele>
        <time>2021-12-23T12:51:18Z</time>
      </trkpt>
      <trkpt lat="45.2415" lon="6.10756">
        <ele>2923</ele>
        <time>2021-12-23T12:51:19Z</time>
      </trkpt>
      <trkpt lat="45.2415" lon="6.10756">
        <ele>2923</ele>
        <time>2021-12-23T12:51:20Z</time>
      </trkpt>
      <trkpt lat="45.2415" lon="6.10755">
        <ele>2923</ele>
        <time>2021-12-23T12:51:21Z</time>
      </trkpt>
      <trkpt lat="45.2415" lon="6.10755">
        <ele>2923</ele>
        <time>2021-12-23T12:51:22Z</time>
      </trkpt>
      <trkpt lat="45.2415" lon="6.10755">
        <ele>2923</ele>
        <time>2021-12-23T12:51:23Z</time>
      </trkpt>
      <trkpt lat="45.2415" lon="6.10755">
        <ele>2923</ele>
        <time>2021-12-23T12:51:24Z</time>
      </trkpt>
      <trkpt lat="45.2415" lon="6.10755">
        <ele>2923</ele>
        <time>2021-12-23T12:51:25Z</time>
      </trkpt>
      <trkpt lat="45.2415" lon="6.10755">
        <ele>2923</ele>
        <time>2021-12-23T12:51:26Z</time>
      </trkpt>
      <trkpt lat="45.2415" lon="6.10755">
        <ele>2923</ele>
        <time>2021-12-23T12:51:27Z</time>
      </trkpt>
      <trkpt lat="45.2415" lon="6.10755">
        <ele>2923</ele>
        <time>2021-12-23T12:51:29Z</time>
      </trkpt>
      <trkpt lat="45.2415" lon="6.10755">
        <ele>2923</ele>
        <time>2021-12-23T12:51:30Z</time>
      </trkpt>
      <trkpt lat="45.2415" lon="6.10755">
        <ele>2922</ele>
        <time>2021-12-23T12:51:31Z</time>
      </trkpt>
      <trkpt lat="45.2415" lon="6.10755">
        <ele>2923</ele>
        <time>2021-12-23T12:51:32Z</time>
      </trkpt>
      <trkpt lat="45.2415" lon="6.10755">
        <ele>2923</ele>
        <time>2021-12-23T12:51:33Z</time>
      </trkpt>
      <trkpt lat="45.2415" lon="6.10755">
        <ele>2923</ele>
        <time>2021-12-23T12:51:34Z</time>
      </trkpt>
      <trkpt lat="45.2415" lon="6.10755">
        <ele>2923</ele>
        <time>2021-12-23T12:51:35Z</time>
      </trkpt>
      <trkpt lat="45.2415" lon="6.10755">
        <ele>2923</ele>
        <time>2021-12-23T12:51:36Z</time>
      </trkpt>
      <trkpt lat="45.2415" lon="6.10755">
        <ele>2923</ele>
        <time>2021-12-23T12:51:37Z</time>
      </trkpt>
      <trkpt lat="45.2415" lon="6.10755">
        <ele>2923</ele>
        <time>2021-12-23T12:51:38Z</time>
      </trkpt>
      <trkpt lat="45.2415" lon="6.10755">
        <ele>2923</ele>
        <time>2021-12-23T12:51:39Z</time>
      </trkpt>
      <trkpt lat="45.2415" lon="6.10755">
        <ele>2923</ele>
        <time>2021-12-23T12:51:40Z</time>
      </trkpt>
      <trkpt lat="45.2415" lon="6.10755">
        <ele>2923</ele>
        <time>2021-12-23T12:51:41Z</time>
      </trkpt>
      <trkpt lat="45.2415" lon="6.10755">
        <ele>2923</ele>
        <time>2021-12-23T12:51:42Z</time>
      </trkpt>
      <trkpt lat="45.2415" lon="6.10755">
        <ele>2923</ele>
        <time>2021-12-23T12:51:43Z</time>
      </trkpt>
      <trkpt lat="45.2415" lon="6.10755">
        <ele>2922</ele>
        <time>2021-12-23T12:51:44Z</time>
      </trkpt>
      <trkpt lat="45.2415" lon="6.10755">
        <ele>2922</ele>
        <time>2021-12-23T12:51:45Z</time>
      </trkpt>
      <trkpt lat="45.2415" lon="6.10755">
        <ele>2922</ele>
        <time>2021-12-23T12:51:46Z</time>
      </trkpt>
      <trkpt lat="45.2415" lon="6.10755">
        <ele>2922</ele>
        <time>2021-12-23T12:51:48Z</time>
      </trkpt>
      <trkpt lat="45.2415" lon="6.10755">
        <ele>2922</ele>
        <time>2021-12-23T12:51:49Z</time>
      </trkpt>
      <trkpt lat="45.2415" lon="6.10755">
        <ele>2922</ele>
        <time>2021-12-23T12:51:50Z</time>
      </trkpt>
      <trkpt lat="45.2415" lon="6.10755">
        <ele>2922</ele>
        <time>2021-12-23T12:51:51Z</time>
      </trkpt>
      <trkpt lat="45.2415" lon="6.10755">
        <ele>2922</ele>
        <time>2021-12-23T12:51:52Z</time>
      </trkpt>
      <trkpt lat="45.2415" lon="6.10755">
        <ele>2922</ele>
        <time>2021-12-23T12:51:53Z</time>
      </trkpt>
      <trkpt lat="45.2415" lon="6.10755">
        <ele>2923</ele>
        <time>2021-12-23T12:51:54Z</time>
      </trkpt>
      <trkpt lat="45.2415" lon="6.10755">
        <ele>2923</ele>
        <time>2021-12-23T12:51:55Z</time>
      </trkpt>
      <trkpt lat="45.2415" lon="6.10755">
        <ele>2923</ele>
        <time>2021-12-23T12:51:56Z</time>
      </trkpt>
      <trkpt lat="45.2415" lon="6.10755">
        <ele>2923</ele>
        <time>2021-12-23T12:51:57Z</time>
      </trkpt>
      <trkpt lat="45.2415" lon="6.10755">
        <ele>2923</ele>
        <time>2021-12-23T12:51:58Z</time>
      </trkpt>
      <trkpt lat="45.2415" lon="6.10755">
        <ele>2923</ele>
        <time>2021-12-23T12:51:59Z</time>
      </trkpt>
      <trkpt lat="45.2415" lon="6.10755">
        <ele>2923</ele>
        <time>2021-12-23T12:52:00Z</time>
      </trkpt>
      <trkpt lat="45.2415" lon="6.10755">
        <ele>2923</ele>
        <time>2021-12-23T12:52:01Z</time>
      </trkpt>
      <trkpt lat="45.2415" lon="6.10755">
        <ele>2923</ele>
        <time>2021-12-23T12:52:02Z</time>
      </trkpt>
      <trkpt lat="45.2415" lon="6.10755">
        <ele>2923</ele>
        <time>2021-12-23T12:52:03Z</time>
      </trkpt>
      <trkpt lat="45.2415" lon="6.10755">
        <ele>2922</ele>
        <time>2021-12-23T12:52:04Z</time>
      </trkpt>
      <trkpt lat="45.2415" lon="6.10755">
        <ele>2922</ele>
        <time>2021-12-23T12:52:05Z</time>
      </trkpt>
      <trkpt lat="45.2415" lon="6.10755">
        <ele>2922</ele>
        <time>2021-12-23T12:52:07Z</time>
      </trkpt>
      <trkpt lat="45.2415" lon="6.10755">
        <ele>2922</ele>
        <time>2021-12-23T12:52:08Z</time>
      </trkpt>
      <trkpt lat="45.2415" lon="6.10755">
        <ele>2922</ele>
        <time>2021-12-23T12:52:09Z</time>
      </trkpt>
      <trkpt lat="45.2415" lon="6.10755">
        <ele>2923</ele>
        <time>2021-12-23T12:52:10Z</time>
      </trkpt>
      <trkpt lat="45.2415" lon="6.10755">
        <ele>2923</ele>
        <time>2021-12-23T12:52:11Z</time>
      </trkpt>
      <trkpt lat="45.2415" lon="6.10755">
        <ele>2923</ele>
        <time>2021-12-23T12:52:12Z</time>
      </trkpt>
      <trkpt lat="45.2415" lon="6.10755">
        <ele>2923</ele>
        <time>2021-12-23T12:52:13Z</time>
      </trkpt>
      <trkpt lat="45.2415" lon="6.10755">
        <ele>2923</ele>
        <time>2021-12-23T12:52:14Z</time>
      </trkpt>
      <trkpt lat="45.2415" lon="6.10755">
        <ele>2923</ele>
        <time>2021-12-23T12:52:15Z</time>
      </trkpt>
      <trkpt lat="45.2415" lon="6.10755">
        <ele>2923</ele>
        <time>2021-12-23T12:52:16Z</time>
      </trkpt>
      <trkpt lat="45.2415" lon="6.10755">
        <ele>2923</ele>
        <time>2021-12-23T12:52:17Z</time>
      </trkpt>
      <trkpt lat="45.2415" lon="6.10755">
        <ele>2923</ele>
        <time>2021-12-23T12:52:18Z</time>
      </trkpt>
      <trkpt lat="45.2415" lon="6.10755">
        <ele>2923</ele>
        <time>2021-12-23T12:52:19Z</time>
      </trkpt>
      <trkpt lat="45.2415" lon="6.10755">
        <ele>2923</ele>
        <time>2021-12-23T12:52:20Z</time>
      </trkpt>
      <trkpt lat="45.2415" lon="6.10755">
        <ele>2923</ele>
        <time>2021-12-23T12:52:21Z</time>
      </trkpt>
      <trkpt lat="45.2415" lon="6.10755">
        <ele>2923</ele>
        <time>2021-12-23T12:52:22Z</time>
      </trkpt>
      <trkpt lat="45.2415" lon="6.10755">
        <ele>2924</ele>
        <time>2021-12-23T12:52:23Z</time>
      </trkpt>
      <trkpt lat="45.2415" lon="6.10754">
        <ele>2924</ele>
        <time>2021-12-23T12:52:24Z</time>
      </trkpt>
      <trkpt lat="45.2415" lon="6.10754">
        <ele>2924</ele>
        <time>2021-12-23T12:52:26Z</time>
      </trkpt>
      <trkpt lat="45.2415" lon="6.10754">
        <ele>2924</ele>
        <time>2021-12-23T12:52:27Z</time>
      </trkpt>
      <trkpt lat="45.2415" lon="6.10754">
        <ele>2924</ele>
        <time>2021-12-23T12:52:28Z</time>
      </trkpt>
      <trkpt lat="45.2415" lon="6.10754">
        <ele>2924</ele>
        <time>2021-12-23T12:52:29Z</time>
      </trkpt>
      <trkpt lat="45.2415" lon="6.10754">
        <ele>2924</ele>
        <time>2021-12-23T12:52:30Z</time>
      </trkpt>
      <trkpt lat="45.2415" lon="6.10754">
        <ele>2924</ele>
        <time>2021-12-23T12:52:31Z</time>
      </trkpt>
      <trkpt lat="45.2415" lon="6.10754">
        <ele>2924</ele>
        <time>2021-12-23T12:52:32Z</time>
      </trkpt>
      <trkpt lat="45.2415" lon="6.10754">
        <ele>2924</ele>
        <time>2021-12-23T12:52:33Z</time>
      </trkpt>
      <trkpt lat="45.2415" lon="6.10754">
        <ele>2923</ele>
        <time>2021-12-23T12:52:34Z</time>
      </trkpt>
      <trkpt lat="45.2415" lon="6.10754">
        <ele>2923</ele>
        <time>2021-12-23T12:52:35Z</time>
      </trkpt>
      <trkpt lat="45.2415" lon="6.10754">
        <ele>2923</ele>
        <time>2021-12-23T12:52:36Z</time>
      </trkpt>
      <trkpt lat="45.2415" lon="6.10754">
        <ele>2923</ele>
        <time>2021-12-23T12:52:37Z</time>
      </trkpt>
      <trkpt lat="45.2415" lon="6.10754">
        <ele>2923</ele>
        <time>2021-12-23T12:52:38Z</time>
      </trkpt>
      <trkpt lat="45.2415" lon="6.10754">
        <ele>2923</ele>
        <time>2021-12-23T12:52:39Z</time>
      </trkpt>
      <trkpt lat="45.24149" lon="6.10754">
        <ele>2923</ele>
        <time>2021-12-23T12:52:40Z</time>
      </trkpt>
      <trkpt lat="45.24149" lon="6.10754">
        <ele>2923</ele>
        <time>2021-12-23T12:52:41Z</time>
      </trkpt>
      <trkpt lat="45.24149" lon="6.10754">
        <ele>2923</ele>
        <time>2021-12-23T12:52:42Z</time>
      </trkpt>
      <trkpt lat="45.24149" lon="6.10754">
        <ele>2923</ele>
        <time>2021-12-23T12:52:43Z</time>
      </trkpt>
      <trkpt lat="45.24149" lon="6.10754">
        <ele>2923</ele>
        <time>2021-12-23T12:52:45Z</time>
      </trkpt>
      <trkpt lat="45.24149" lon="6.10754">
        <ele>2923</ele>
        <time>2021-12-23T12:52:46Z</time>
      </trkpt>
      <trkpt lat="45.24149" lon="6.10754">
        <ele>2923</ele>
        <time>2021-12-23T12:52:47Z</time>
      </trkpt>
      <trkpt lat="45.24149" lon="6.10754">
        <ele>2923</ele>
        <time>2021-12-23T12:52:48Z</time>
      </trkpt>
      <trkpt lat="45.24149" lon="6.10754">
        <ele>2923</ele>
        <time>2021-12-23T12:52:49Z</time>
      </trkpt>
      <trkpt lat="45.24149" lon="6.10754">
        <ele>2923</ele>
        <time>2021-12-23T12:52:50Z</time>
      </trkpt>
      <trkpt lat="45.24149" lon="6.10754">
        <ele>2923</ele>
        <time>2021-12-23T12:52:51Z</time>
      </trkpt>
      <trkpt lat="45.24149" lon="6.10754">
        <ele>2923</ele>
        <time>2021-12-23T12:52:52Z</time>
      </trkpt>
      <trkpt lat="45.24149" lon="6.10754">
        <ele>2923</ele>
        <time>2021-12-23T12:52:53Z</time>
      </trkpt>
      <trkpt lat="45.24149" lon="6.10754">
        <ele>2923</ele>
        <time>2021-12-23T12:52:54Z</time>
      </trkpt>
      <trkpt lat="45.24149" lon="6.10754">
        <ele>2923</ele>
        <time>2021-12-23T12:52:55Z</time>
      </trkpt>
      <trkpt lat="45.24149" lon="6.10754">
        <ele>2923</ele>
        <time>2021-12-23T12:52:56Z</time>
      </trkpt>
      <trkpt lat="45.24149" lon="6.10754">
        <ele>2923</ele>
        <time>2021-12-23T12:52:57Z</time>
      </trkpt>
      <trkpt lat="45.24149" lon="6.10754">
        <ele>2923</ele>
        <time>2021-12-23T12:52:58Z</time>
      </trkpt>
      <trkpt lat="45.24149" lon="6.10754">
        <ele>2923</ele>
        <time>2021-12-23T12:52:59Z</time>
      </trkpt>
      <trkpt lat="45.24149" lon="6.10754">
        <ele>2923</ele>
        <time>2021-12-23T12:53:00Z</time>
      </trkpt>
      <trkpt lat="45.24149" lon="6.10754">
        <ele>2923</ele>
        <time>2021-12-23T12:53:01Z</time>
      </trkpt>
      <trkpt lat="45.24149" lon="6.10754">
        <ele>2923</ele>
        <time>2021-12-23T12:53:02Z</time>
      </trkpt>
      <trkpt lat="45.24149" lon="6.10754">
        <ele>2922</ele>
        <time>2021-12-23T12:53:04Z</time>
      </trkpt>
      <trkpt lat="45.24149" lon="6.10754">
        <ele>2922</ele>
        <time>2021-12-23T12:53:05Z</time>
      </trkpt>
      <trkpt lat="45.24149" lon="6.10754">
        <ele>2922</ele>
        <time>2021-12-23T12:53:06Z</time>
      </trkpt>
      <trkpt lat="45.24149" lon="6.10754">
        <ele>2923</ele>
        <time>2021-12-23T12:53:07Z</time>
      </trkpt>
      <trkpt lat="45.24149" lon="6.10754">
        <ele>2923</ele>
        <time>2021-12-23T12:53:08Z</time>
      </trkpt>
      <trkpt lat="45.24149" lon="6.10754">
        <ele>2923</ele>
        <time>2021-12-23T12:53:09Z</time>
      </trkpt>
      <trkpt lat="45.24149" lon="6.10754">
        <ele>2923</ele>
        <time>2021-12-23T12:53:10Z</time>
      </trkpt>
      <trkpt lat="45.24149" lon="6.10754">
        <ele>2923</ele>
        <time>2021-12-23T12:53:11Z</time>
      </trkpt>
      <trkpt lat="45.24149" lon="6.10754">
        <ele>2923</ele>
        <time>2021-12-23T12:53:12Z</time>
      </trkpt>
      <trkpt lat="45.24149" lon="6.10754">
        <ele>2923</ele>
        <time>2021-12-23T12:53:13Z</time>
      </trkpt>
      <trkpt lat="45.24149" lon="6.10754">
        <ele>2923</ele>
        <time>2021-12-23T12:53:14Z</time>
      </trkpt>
      <trkpt lat="45.24149" lon="6.10754">
        <ele>2923</ele>
        <time>2021-12-23T12:53:15Z</time>
      </trkpt>
      <trkpt lat="45.24149" lon="6.10754">
        <ele>2923</ele>
        <time>2021-12-23T12:53:16Z</time>
      </trkpt>
      <trkpt lat="45.24149" lon="6.10754">
        <ele>2923</ele>
        <time>2021-12-23T12:53:17Z</time>
      </trkpt>
      <trkpt lat="45.24149" lon="6.10754">
        <ele>2923</ele>
        <time>2021-12-23T12:53:18Z</time>
      </trkpt>
      <trkpt lat="45.24149" lon="6.10754">
        <ele>2923</ele>
        <time>2021-12-23T12:53:19Z</time>
      </trkpt>
      <trkpt lat="45.24149" lon="6.10754">
        <ele>2923</ele>
        <time>2021-12-23T12:53:20Z</time>
      </trkpt>
      <trkpt lat="45.24149" lon="6.10754">
        <ele>2923</ele>
        <time>2021-12-23T12:53:21Z</time>
      </trkpt>
      <trkpt lat="45.24149" lon="6.10754">
        <ele>2923</ele>
        <time>2021-12-23T12:53:23Z</time>
      </trkpt>
      <trkpt lat="45.24149" lon="6.10754">
        <ele>2923</ele>
        <time>2021-12-23T12:53:24Z</time>
      </trkpt>
      <trkpt lat="45.24149" lon="6.10754">
        <ele>2923</ele>
        <time>2021-12-23T12:53:25Z</time>
      </trkpt>
      <trkpt lat="45.24149" lon="6.10754">
        <ele>2923</ele>
        <time>2021-12-23T12:53:26Z</time>
      </trkpt>
      <trkpt lat="45.24149" lon="6.10754">
        <ele>2923</ele>
        <time>2021-12-23T12:53:27Z</time>
      </trkpt>
      <trkpt lat="45.24149" lon="6.10754">
        <ele>2923</ele>
        <time>2021-12-23T12:53:28Z</time>
      </trkpt>
      <trkpt lat="45.24149" lon="6.10753">
        <ele>2923</ele>
        <time>2021-12-23T12:53:29Z</time>
      </trkpt>
      <trkpt lat="45.24149" lon="6.10753">
        <ele>2922</ele>
        <time>2021-12-23T12:53:30Z</time>
      </trkpt>
      <trkpt lat="45.24149" lon="6.10753">
        <ele>2922</ele>
        <time>2021-12-23T12:53:31Z</time>
      </trkpt>
      <trkpt lat="45.24149" lon="6.10753">
        <ele>2922</ele>
        <time>2021-12-23T12:53:32Z</time>
      </trkpt>
      <trkpt lat="45.24149" lon="6.10753">
        <ele>2922</ele>
        <time>2021-12-23T12:53:33Z</time>
      </trkpt>
      <trkpt lat="45.24149" lon="6.10753">
        <ele>2922</ele>
        <time>2021-12-23T12:53:34Z</time>
      </trkpt>
      <trkpt lat="45.24149" lon="6.10753">
        <ele>2922</ele>
        <time>2021-12-23T12:53:35Z</time>
      </trkpt>
      <trkpt lat="45.24149" lon="6.10753">
        <ele>2922</ele>
        <time>2021-12-23T12:53:36Z</time>
      </trkpt>
      <trkpt lat="45.24149" lon="6.10753">
        <ele>2923</ele>
        <time>2021-12-23T12:53:37Z</time>
      </trkpt>
      <trkpt lat="45.24149" lon="6.10753">
        <ele>2923</ele>
        <time>2021-12-23T12:53:38Z</time>
      </trkpt>
      <trkpt lat="45.24149" lon="6.10753">
        <ele>2923</ele>
        <time>2021-12-23T12:53:39Z</time>
      </trkpt>
      <trkpt lat="45.24149" lon="6.10753">
        <ele>2923</ele>
        <time>2021-12-23T12:53:40Z</time>
      </trkpt>
      <trkpt lat="45.24149" lon="6.10753">
        <ele>2923</ele>
        <time>2021-12-23T12:53:42Z</time>
      </trkpt>
      <trkpt lat="45.24149" lon="6.10753">
        <ele>2923</ele>
        <time>2021-12-23T12:53:43Z</time>
      </trkpt>
      <trkpt lat="45.24149" lon="6.10753">
        <ele>2922</ele>
        <time>2021-12-23T12:53:44Z</time>
      </trkpt>
      <trkpt lat="45.24149" lon="6.10753">
        <ele>2922</ele>
        <time>2021-12-23T12:53:45Z</time>
      </trkpt>
      <trkpt lat="45.24149" lon="6.10753">
        <ele>2922</ele>
        <time>2021-12-23T12:53:46Z</time>
      </trkpt>
      <trkpt lat="45.24149" lon="6.10753">
        <ele>2922</ele>
        <time>2021-12-23T12:53:47Z</time>
      </trkpt>
      <trkpt lat="45.24149" lon="6.10753">
        <ele>2922</ele>
        <time>2021-12-23T12:53:48Z</time>
      </trkpt>
      <trkpt lat="45.24149" lon="6.10753">
        <ele>2922</ele>
        <time>2021-12-23T12:53:49Z</time>
      </trkpt>
      <trkpt lat="45.24149" lon="6.10753">
        <ele>2922</ele>
        <time>2021-12-23T12:53:50Z</time>
      </trkpt>
      <trkpt lat="45.24149" lon="6.10753">
        <ele>2922</ele>
        <time>2021-12-23T12:53:51Z</time>
      </trkpt>
      <trkpt lat="45.24149" lon="6.10753">
        <ele>2922</ele>
        <time>2021-12-23T12:53:52Z</time>
      </trkpt>
      <trkpt lat="45.24149" lon="6.10753">
        <ele>2922</ele>
        <time>2021-12-23T12:53:53Z</time>
      </trkpt>
      <trkpt lat="45.24149" lon="6.10753">
        <ele>2922</ele>
        <time>2021-12-23T12:53:54Z</time>
      </trkpt>
      <trkpt lat="45.24149" lon="6.10753">
        <ele>2922</ele>
        <time>2021-12-23T12:53:55Z</time>
      </trkpt>
      <trkpt lat="45.24149" lon="6.10753">
        <ele>2922</ele>
        <time>2021-12-23T12:53:56Z</time>
      </trkpt>
      <trkpt lat="45.24149" lon="6.10753">
        <ele>2922</ele>
        <time>2021-12-23T12:53:57Z</time>
      </trkpt>
      <trkpt lat="45.24149" lon="6.10753">
        <ele>2922</ele>
        <time>2021-12-23T12:53:58Z</time>
      </trkpt>
      <trkpt lat="45.24149" lon="6.10753">
        <ele>2922</ele>
        <time>2021-12-23T12:53:59Z</time>
      </trkpt>
      <trkpt lat="45.24149" lon="6.10753">
        <ele>2922</ele>
        <time>2021-12-23T12:54:01Z</time>
      </trkpt>
      <trkpt lat="45.24149" lon="6.10753">
        <ele>2922</ele>
        <time>2021-12-23T12:54:02Z</time>
      </trkpt>
      <trkpt lat="45.24149" lon="6.10753">
        <ele>2922</ele>
        <time>2021-12-23T12:54:03Z</time>
      </trkpt>
      <trkpt lat="45.24149" lon="6.10753">
        <ele>2922</ele>
        <time>2021-12-23T12:54:04Z</time>
      </trkpt>
      <trkpt lat="45.24149" lon="6.10753">
        <ele>2922</ele>
        <time>2021-12-23T12:54:05Z</time>
      </trkpt>
      <trkpt lat="45.24149" lon="6.10753">
        <ele>2922</ele>
        <time>2021-12-23T12:54:06Z</time>
      </trkpt>
      <trkpt lat="45.24149" lon="6.10753">
        <ele>2922</ele>
        <time>2021-12-23T12:54:07Z</time>
      </trkpt>
      <trkpt lat="45.24149" lon="6.10753">
        <ele>2922</ele>
        <time>2021-12-23T12:54:08Z</time>
      </trkpt>
      <trkpt lat="45.24149" lon="6.10753">
        <ele>2922</ele>
        <time>2021-12-23T12:54:09Z</time>
      </trkpt>
      <trkpt lat="45.24149" lon="6.10753">
        <ele>2922</ele>
        <time>2021-12-23T12:54:10Z</time>
      </trkpt>
      <trkpt lat="45.24149" lon="6.10753">
        <ele>2922</ele>
        <time>2021-12-23T12:54:11Z</time>
      </trkpt>
      <trkpt lat="45.24149" lon="6.10753">
        <ele>2922</ele>
        <time>2021-12-23T12:54:12Z</time>
      </trkpt>
      <trkpt lat="45.24149" lon="6.10753">
        <ele>2922</ele>
        <time>2021-12-23T12:54:13Z</time>
      </trkpt>
      <trkpt lat="45.24149" lon="6.10753">
        <ele>2922</ele>
        <time>2021-12-23T12:54:14Z</time>
      </trkpt>
      <trkpt lat="45.24149" lon="6.10753">
        <ele>2922</ele>
        <time>2021-12-23T12:54:15Z</time>
      </trkpt>
      <trkpt lat="45.24148" lon="6.10753">
        <ele>2922</ele>
        <time>2021-12-23T12:54:16Z</time>
      </trkpt>
      <trkpt lat="45.24148" lon="6.10753">
        <ele>2922</ele>
        <time>2021-12-23T12:54:17Z</time>
      </trkpt>
      <trkpt lat="45.24148" lon="6.10753">
        <ele>2922</ele>
        <time>2021-12-23T12:54:18Z</time>
      </trkpt>
      <trkpt lat="45.24148" lon="6.10753">
        <ele>2922</ele>
        <time>2021-12-23T12:54:20Z</time>
      </trkpt>
      <trkpt lat="45.24148" lon="6.10753">
        <ele>2922</ele>
        <time>2021-12-23T12:54:21Z</time>
      </trkpt>
      <trkpt lat="45.24148" lon="6.10753">
        <ele>2923</ele>
        <time>2021-12-23T12:54:22Z</time>
      </trkpt>
      <trkpt lat="45.24148" lon="6.10753">
        <ele>2923</ele>
        <time>2021-12-23T12:54:23Z</time>
      </trkpt>
      <trkpt lat="45.24148" lon="6.10753">
        <ele>2923</ele>
        <time>2021-12-23T12:54:24Z</time>
      </trkpt>
      <trkpt lat="45.24148" lon="6.10753">
        <ele>2923</ele>
        <time>2021-12-23T12:54:25Z</time>
      </trkpt>
      <trkpt lat="45.24148" lon="6.10753">
        <ele>2923</ele>
        <time>2021-12-23T12:54:26Z</time>
      </trkpt>
      <trkpt lat="45.24148" lon="6.10753">
        <ele>2923</ele>
        <time>2021-12-23T12:54:27Z</time>
      </trkpt>
      <trkpt lat="45.24148" lon="6.10753">
        <ele>2923</ele>
        <time>2021-12-23T12:54:28Z</time>
      </trkpt>
      <trkpt lat="45.24148" lon="6.10753">
        <ele>2923</ele>
        <time>2021-12-23T12:54:29Z</time>
      </trkpt>
      <trkpt lat="45.24148" lon="6.10753">
        <ele>2923</ele>
        <time>2021-12-23T12:54:30Z</time>
      </trkpt>
      <trkpt lat="45.24148" lon="6.10753">
        <ele>2923</ele>
        <time>2021-12-23T12:54:31Z</time>
      </trkpt>
      <trkpt lat="45.24148" lon="6.10752">
        <ele>2923</ele>
        <time>2021-12-23T12:54:32Z</time>
      </trkpt>
      <trkpt lat="45.24148" lon="6.10752">
        <ele>2923</ele>
        <time>2021-12-23T12:54:33Z</time>
      </trkpt>
      <trkpt lat="45.24148" lon="6.10752">
        <ele>2923</ele>
        <time>2021-12-23T12:54:34Z</time>
      </trkpt>
      <trkpt lat="45.24148" lon="6.10752">
        <ele>2923</ele>
        <time>2021-12-23T12:54:35Z</time>
      </trkpt>
      <trkpt lat="45.24148" lon="6.10752">
        <ele>2923</ele>
        <time>2021-12-23T12:54:36Z</time>
      </trkpt>
      <trkpt lat="45.24148" lon="6.10752">
        <ele>2923</ele>
        <time>2021-12-23T12:54:37Z</time>
      </trkpt>
      <trkpt lat="45.24148" lon="6.10752">
        <ele>2923</ele>
        <time>2021-12-23T12:54:39Z</time>
      </trkpt>
      <trkpt lat="45.24148" lon="6.10752">
        <ele>2923</ele>
        <time>2021-12-23T12:54:40Z</time>
      </trkpt>
      <trkpt lat="45.24148" lon="6.10752">
        <ele>2923</ele>
        <time>2021-12-23T12:54:41Z</time>
      </trkpt>
      <trkpt lat="45.24148" lon="6.10752">
        <ele>2923</ele>
        <time>2021-12-23T12:54:42Z</time>
      </trkpt>
      <trkpt lat="45.24148" lon="6.10752">
        <ele>2923</ele>
        <time>2021-12-23T12:54:43Z</time>
      </trkpt>
      <trkpt lat="45.24148" lon="6.10752">
        <ele>2923</ele>
        <time>2021-12-23T12:54:44Z</time>
      </trkpt>
      <trkpt lat="45.24148" lon="6.10752">
        <ele>2923</ele>
        <time>2021-12-23T12:54:45Z</time>
      </trkpt>
      <trkpt lat="45.24148" lon="6.10752">
        <ele>2923</ele>
        <time>2021-12-23T12:54:46Z</time>
      </trkpt>
      <trkpt lat="45.24148" lon="6.10752">
        <ele>2923</ele>
        <time>2021-12-23T12:54:47Z</time>
      </trkpt>
      <trkpt lat="45.24148" lon="6.10752">
        <ele>2923</ele>
        <time>2021-12-23T12:54:48Z</time>
      </trkpt>
      <trkpt lat="45.24148" lon="6.10752">
        <ele>2923</ele>
        <time>2021-12-23T12:54:49Z</time>
      </trkpt>
      <trkpt lat="45.24148" lon="6.10752">
        <ele>2923</ele>
        <time>2021-12-23T12:54:50Z</time>
      </trkpt>
      <trkpt lat="45.24148" lon="6.10752">
        <ele>2923</ele>
        <time>2021-12-23T12:54:51Z</time>
      </trkpt>
      <trkpt lat="45.24148" lon="6.10752">
        <ele>2923</ele>
        <time>2021-12-23T12:54:52Z</time>
      </trkpt>
      <trkpt lat="45.24148" lon="6.10752">
        <ele>2923</ele>
        <time>2021-12-23T12:54:53Z</time>
      </trkpt>
      <trkpt lat="45.24148" lon="6.10752">
        <ele>2923</ele>
        <time>2021-12-23T12:54:54Z</time>
      </trkpt>
      <trkpt lat="45.24148" lon="6.10752">
        <ele>2923</ele>
        <time>2021-12-23T12:54:55Z</time>
      </trkpt>
      <trkpt lat="45.24148" lon="6.10752">
        <ele>2923</ele>
        <time>2021-12-23T12:54:56Z</time>
      </trkpt>
      <trkpt lat="45.24148" lon="6.10752">
        <ele>2923</ele>
        <time>2021-12-23T12:54:58Z</time>
      </trkpt>
      <trkpt lat="45.24148" lon="6.10752">
        <ele>2923</ele>
        <time>2021-12-23T12:54:59Z</time>
      </trkpt>
      <trkpt lat="45.24148" lon="6.10752">
        <ele>2923</ele>
        <time>2021-12-23T12:55:00Z</time>
      </trkpt>
      <trkpt lat="45.24148" lon="6.10752">
        <ele>2923</ele>
        <time>2021-12-23T12:55:01Z</time>
      </trkpt>
      <trkpt lat="45.24148" lon="6.10752">
        <ele>2923</ele>
        <time>2021-12-23T12:55:02Z</time>
      </trkpt>
      <trkpt lat="45.24148" lon="6.10752">
        <ele>2923</ele>
        <time>2021-12-23T12:55:03Z</time>
      </trkpt>
      <trkpt lat="45.24148" lon="6.10752">
        <ele>2923</ele>
        <time>2021-12-23T12:55:04Z</time>
      </trkpt>
      <trkpt lat="45.24148" lon="6.10752">
        <ele>2923</ele>
        <time>2021-12-23T12:55:05Z</time>
      </trkpt>
      <trkpt lat="45.24148" lon="6.10752">
        <ele>2923</ele>
        <time>2021-12-23T12:55:06Z</time>
      </trkpt>
      <trkpt lat="45.24148" lon="6.10752">
        <ele>2923</ele>
        <time>2021-12-23T12:55:07Z</time>
      </trkpt>
      <trkpt lat="45.24148" lon="6.10752">
        <ele>2923</ele>
        <time>2021-12-23T12:55:08Z</time>
      </trkpt>
      <trkpt lat="45.24148" lon="6.10752">
        <ele>2923</ele>
        <time>2021-12-23T12:55:09Z</time>
      </trkpt>
      <trkpt lat="45.24148" lon="6.10752">
        <ele>2923</ele>
        <time>2021-12-23T12:55:10Z</time>
      </trkpt>
      <trkpt lat="45.24148" lon="6.10752">
        <ele>2923</ele>
        <time>2021-12-23T12:55:11Z</time>
      </trkpt>
      <trkpt lat="45.24148" lon="6.10752">
        <ele>2923</ele>
        <time>2021-12-23T12:55:12Z</time>
      </trkpt>
      <trkpt lat="45.24148" lon="6.10752">
        <ele>2923</ele>
        <time>2021-12-23T12:55:13Z</time>
      </trkpt>
      <trkpt lat="45.24148" lon="6.10752">
        <ele>2923</ele>
        <time>2021-12-23T12:55:14Z</time>
      </trkpt>
      <trkpt lat="45.24148" lon="6.10752">
        <ele>2923</ele>
        <time>2021-12-23T12:55:15Z</time>
      </trkpt>
      <trkpt lat="45.24148" lon="6.10752">
        <ele>2923</ele>
        <time>2021-12-23T12:55:17Z</time>
      </trkpt>
      <trkpt lat="45.24148" lon="6.10752">
        <ele>2923</ele>
        <time>2021-12-23T12:55:18Z</time>
      </trkpt>
      <trkpt lat="45.24148" lon="6.10752">
        <ele>2923</ele>
        <time>2021-12-23T12:55:19Z</time>
      </trkpt>
      <trkpt lat="45.24148" lon="6.10752">
        <ele>2923</ele>
        <time>2021-12-23T12:55:20Z</time>
      </trkpt>
      <trkpt lat="45.24148" lon="6.10752">
        <ele>2923</ele>
        <time>2021-12-23T12:55:21Z</time>
      </trkpt>
      <trkpt lat="45.24148" lon="6.10752">
        <ele>2923</ele>
        <time>2021-12-23T12:55:22Z</time>
      </trkpt>
      <trkpt lat="45.24148" lon="6.10752">
        <ele>2923</ele>
        <time>2021-12-23T12:55:23Z</time>
      </trkpt>
      <trkpt lat="45.24148" lon="6.10752">
        <ele>2923</ele>
        <time>2021-12-23T12:55:24Z</time>
      </trkpt>
      <trkpt lat="45.24148" lon="6.10752">
        <ele>2923</ele>
        <time>2021-12-23T12:55:25Z</time>
      </trkpt>
      <trkpt lat="45.24148" lon="6.10752">
        <ele>2923</ele>
        <time>2021-12-23T12:55:26Z</time>
      </trkpt>
      <trkpt lat="45.24148" lon="6.10752">
        <ele>2922</ele>
        <time>2021-12-23T12:55:27Z</time>
      </trkpt>
      <trkpt lat="45.24148" lon="6.10752">
        <ele>2922</ele>
        <time>2021-12-23T12:55:28Z</time>
      </trkpt>
      <trkpt lat="45.24148" lon="6.10752">
        <ele>2922</ele>
        <time>2021-12-23T12:55:29Z</time>
      </trkpt>
      <trkpt lat="45.24148" lon="6.10752">
        <ele>2922</ele>
        <time>2021-12-23T12:55:30Z</time>
      </trkpt>
      <trkpt lat="45.24148" lon="6.10752">
        <ele>2922</ele>
        <time>2021-12-23T12:55:31Z</time>
      </trkpt>
      <trkpt lat="45.24148" lon="6.10752">
        <ele>2922</ele>
        <time>2021-12-23T12:55:32Z</time>
      </trkpt>
      <trkpt lat="45.24148" lon="6.10752">
        <ele>2923</ele>
        <time>2021-12-23T12:55:33Z</time>
      </trkpt>
      <trkpt lat="45.24148" lon="6.10752">
        <ele>2923</ele>
        <time>2021-12-23T12:55:34Z</time>
      </trkpt>
      <trkpt lat="45.24148" lon="6.10751">
        <ele>2923</ele>
        <time>2021-12-23T12:55:36Z</time>
      </trkpt>
      <trkpt lat="45.24148" lon="6.10751">
        <ele>2923</ele>
        <time>2021-12-23T12:55:37Z</time>
      </trkpt>
      <trkpt lat="45.24148" lon="6.10751">
        <ele>2923</ele>
        <time>2021-12-23T12:55:38Z</time>
      </trkpt>
      <trkpt lat="45.24148" lon="6.10751">
        <ele>2923</ele>
        <time>2021-12-23T12:55:39Z</time>
      </trkpt>
      <trkpt lat="45.24148" lon="6.10751">
        <ele>2923</ele>
        <time>2021-12-23T12:55:40Z</time>
      </trkpt>
      <trkpt lat="45.24148" lon="6.10751">
        <ele>2923</ele>
        <time>2021-12-23T12:55:41Z</time>
      </trkpt>
      <trkpt lat="45.24148" lon="6.10751">
        <ele>2923</ele>
        <time>2021-12-23T12:55:42Z</time>
      </trkpt>
      <trkpt lat="45.24148" lon="6.10751">
        <ele>2923</ele>
        <time>2021-12-23T12:55:43Z</time>
      </trkpt>
      <trkpt lat="45.24148" lon="6.10751">
        <ele>2923</ele>
        <time>2021-12-23T12:55:44Z</time>
      </trkpt>
      <trkpt lat="45.24148" lon="6.10751">
        <ele>2923</ele>
        <time>2021-12-23T12:55:45Z</time>
      </trkpt>
      <trkpt lat="45.24148" lon="6.10751">
        <ele>2923</ele>
        <time>2021-12-23T12:55:46Z</time>
      </trkpt>
      <trkpt lat="45.24148" lon="6.10751">
        <ele>2923</ele>
        <time>2021-12-23T12:55:47Z</time>
      </trkpt>
      <trkpt lat="45.24148" lon="6.10751">
        <ele>2923</ele>
        <time>2021-12-23T12:55:48Z</time>
      </trkpt>
      <trkpt lat="45.24148" lon="6.10751">
        <ele>2922</ele>
        <time>2021-12-23T12:55:50Z</time>
      </trkpt>
      <trkpt lat="45.24148" lon="6.10751">
        <ele>2922</ele>
        <time>2021-12-23T12:55:51Z</time>
      </trkpt>
      <trkpt lat="45.24147" lon="6.10751">
        <ele>2922</ele>
        <time>2021-12-23T12:55:52Z</time>
      </trkpt>
      <trkpt lat="45.24147" lon="6.10751">
        <ele>2923</ele>
        <time>2021-12-23T12:55:53Z</time>
      </trkpt>
      <trkpt lat="45.24147" lon="6.10751">
        <ele>2923</ele>
        <time>2021-12-23T12:55:55Z</time>
      </trkpt>
      <trkpt lat="45.24147" lon="6.10751">
        <ele>2923</ele>
        <time>2021-12-23T12:55:56Z</time>
      </trkpt>
      <trkpt lat="45.24147" lon="6.10751">
        <ele>2923</ele>
        <time>2021-12-23T12:55:57Z</time>
      </trkpt>
      <trkpt lat="45.24147" lon="6.10751">
        <ele>2923</ele>
        <time>2021-12-23T12:55:58Z</time>
      </trkpt>
      <trkpt lat="45.24147" lon="6.10751">
        <ele>2923</ele>
        <time>2021-12-23T12:55:59Z</time>
      </trkpt>
      <trkpt lat="45.24147" lon="6.10751">
        <ele>2923</ele>
        <time>2021-12-23T12:56:00Z</time>
      </trkpt>
      <trkpt lat="45.24147" lon="6.10751">
        <ele>2923</ele>
        <time>2021-12-23T12:56:01Z</time>
      </trkpt>
      <trkpt lat="45.24147" lon="6.10751">
        <ele>2923</ele>
        <time>2021-12-23T12:56:02Z</time>
      </trkpt>
      <trkpt lat="45.24147" lon="6.10751">
        <ele>2923</ele>
        <time>2021-12-23T12:56:03Z</time>
      </trkpt>
      <trkpt lat="45.24147" lon="6.10751">
        <ele>2923</ele>
        <time>2021-12-23T12:56:04Z</time>
      </trkpt>
      <trkpt lat="45.24147" lon="6.10751">
        <ele>2923</ele>
        <time>2021-12-23T12:56:05Z</time>
      </trkpt>
      <trkpt lat="45.24147" lon="6.10751">
        <ele>2923</ele>
        <time>2021-12-23T12:56:06Z</time>
      </trkpt>
      <trkpt lat="45.24147" lon="6.10751">
        <ele>2923</ele>
        <time>2021-12-23T12:56:07Z</time>
      </trkpt>
      <trkpt lat="45.24147" lon="6.10751">
        <ele>2923</ele>
        <time>2021-12-23T12:56:08Z</time>
      </trkpt>
      <trkpt lat="45.24147" lon="6.10751">
        <ele>2923</ele>
        <time>2021-12-23T12:56:09Z</time>
      </trkpt>
      <trkpt lat="45.24147" lon="6.10751">
        <ele>2923</ele>
        <time>2021-12-23T12:56:10Z</time>
      </trkpt>
      <trkpt lat="45.24147" lon="6.10751">
        <ele>2923</ele>
        <time>2021-12-23T12:56:11Z</time>
      </trkpt>
      <trkpt lat="45.24147" lon="6.10751">
        <ele>2923</ele>
        <time>2021-12-23T12:56:12Z</time>
      </trkpt>
      <trkpt lat="45.24147" lon="6.10751">
        <ele>2923</ele>
        <time>2021-12-23T12:56:14Z</time>
      </trkpt>
      <trkpt lat="45.24147" lon="6.10751">
        <ele>2923</ele>
        <time>2021-12-23T12:56:15Z</time>
      </trkpt>
      <trkpt lat="45.24147" lon="6.10751">
        <ele>2923</ele>
        <time>2021-12-23T12:56:16Z</time>
      </trkpt>
      <trkpt lat="45.24147" lon="6.10751">
        <ele>2923</ele>
        <time>2021-12-23T12:56:17Z</time>
      </trkpt>
      <trkpt lat="45.24147" lon="6.10751">
        <ele>2923</ele>
        <time>2021-12-23T12:56:18Z</time>
      </trkpt>
      <trkpt lat="45.24147" lon="6.10751">
        <ele>2923</ele>
        <time>2021-12-23T12:56:19Z</time>
      </trkpt>
      <trkpt lat="45.24147" lon="6.10751">
        <ele>2923</ele>
        <time>2021-12-23T12:56:20Z</time>
      </trkpt>
      <trkpt lat="45.24147" lon="6.10751">
        <ele>2923</ele>
        <time>2021-12-23T12:56:21Z</time>
      </trkpt>
      <trkpt lat="45.24147" lon="6.10751">
        <ele>2923</ele>
        <time>2021-12-23T12:56:22Z</time>
      </trkpt>
      <trkpt lat="45.24147" lon="6.10751">
        <ele>2923</ele>
        <time>2021-12-23T12:56:23Z</time>
      </trkpt>
      <trkpt lat="45.24147" lon="6.10751">
        <ele>2923</ele>
        <time>2021-12-23T12:56:24Z</time>
      </trkpt>
      <trkpt lat="45.24147" lon="6.10751">
        <ele>2923</ele>
        <time>2021-12-23T12:56:25Z</time>
      </trkpt>
      <trkpt lat="45.24147" lon="6.10751">
        <ele>2923</ele>
        <time>2021-12-23T12:56:26Z</time>
      </trkpt>
      <trkpt lat="45.24147" lon="6.10751">
        <ele>2923</ele>
        <time>2021-12-23T12:56:27Z</time>
      </trkpt>
      <trkpt lat="45.24147" lon="6.10751">
        <ele>2923</ele>
        <time>2021-12-23T12:56:28Z</time>
      </trkpt>
      <trkpt lat="45.24147" lon="6.10751">
        <ele>2923</ele>
        <time>2021-12-23T12:56:29Z</time>
      </trkpt>
      <trkpt lat="45.24147" lon="6.10751">
        <ele>2923</ele>
        <time>2021-12-23T12:56:30Z</time>
      </trkpt>
      <trkpt lat="45.24147" lon="6.10751">
        <ele>2923</ele>
        <time>2021-12-23T12:56:31Z</time>
      </trkpt>
      <trkpt lat="45.24147" lon="6.10751">
        <ele>2923</ele>
        <time>2021-12-23T12:56:33Z</time>
      </trkpt>
      <trkpt lat="45.24147" lon="6.10751">
        <ele>2923</ele>
        <time>2021-12-23T12:56:34Z</time>
      </trkpt>
      <trkpt lat="45.24147" lon="6.10751">
        <ele>2923</ele>
        <time>2021-12-23T12:56:35Z</time>
      </trkpt>
      <trkpt lat="45.24147" lon="6.10751">
        <ele>2922</ele>
        <time>2021-12-23T12:56:36Z</time>
      </trkpt>
      <trkpt lat="45.24147" lon="6.10751">
        <ele>2922</ele>
        <time>2021-12-23T12:56:37Z</time>
      </trkpt>
      <trkpt lat="45.24147" lon="6.10751">
        <ele>2923</ele>
        <time>2021-12-23T12:56:38Z</time>
      </trkpt>
      <trkpt lat="45.24147" lon="6.10751">
        <ele>2923</ele>
        <time>2021-12-23T12:56:39Z</time>
      </trkpt>
      <trkpt lat="45.24147" lon="6.10751">
        <ele>2923</ele>
        <time>2021-12-23T12:56:40Z</time>
      </trkpt>
      <trkpt lat="45.24147" lon="6.1075">
        <ele>2924</ele>
        <time>2021-12-23T12:56:41Z</time>
      </trkpt>
      <trkpt lat="45.24147" lon="6.1075">
        <ele>2924</ele>
        <time>2021-12-23T12:56:42Z</time>
      </trkpt>
      <trkpt lat="45.24147" lon="6.1075">
        <ele>2924</ele>
        <time>2021-12-23T12:56:43Z</time>
      </trkpt>
      <trkpt lat="45.24147" lon="6.1075">
        <ele>2924</ele>
        <time>2021-12-23T12:56:44Z</time>
      </trkpt>
      <trkpt lat="45.24147" lon="6.1075">
        <ele>2924</ele>
        <time>2021-12-23T12:56:45Z</time>
      </trkpt>
      <trkpt lat="45.24147" lon="6.1075">
        <ele>2924</ele>
        <time>2021-12-23T12:56:46Z</time>
      </trkpt>
      <trkpt lat="45.24147" lon="6.1075">
        <ele>2923</ele>
        <time>2021-12-23T12:56:47Z</time>
      </trkpt>
      <trkpt lat="45.24147" lon="6.1075">
        <ele>2923</ele>
        <time>2021-12-23T12:56:48Z</time>
      </trkpt>
      <trkpt lat="45.24147" lon="6.1075">
        <ele>2924</ele>
        <time>2021-12-23T12:56:49Z</time>
      </trkpt>
      <trkpt lat="45.24147" lon="6.1075">
        <ele>2924</ele>
        <time>2021-12-23T12:56:50Z</time>
      </trkpt>
      <trkpt lat="45.24147" lon="6.1075">
        <ele>2924</ele>
        <time>2021-12-23T12:56:52Z</time>
      </trkpt>
      <trkpt lat="45.24147" lon="6.1075">
        <ele>2923</ele>
        <time>2021-12-23T12:56:53Z</time>
      </trkpt>
      <trkpt lat="45.24147" lon="6.1075">
        <ele>2923</ele>
        <time>2021-12-23T12:56:54Z</time>
      </trkpt>
      <trkpt lat="45.24147" lon="6.1075">
        <ele>2923</ele>
        <time>2021-12-23T12:56:55Z</time>
      </trkpt>
      <trkpt lat="45.24147" lon="6.1075">
        <ele>2923</ele>
        <time>2021-12-23T12:56:56Z</time>
      </trkpt>
      <trkpt lat="45.24147" lon="6.1075">
        <ele>2923</ele>
        <time>2021-12-23T12:56:57Z</time>
      </trkpt>
      <trkpt lat="45.24147" lon="6.1075">
        <ele>2923</ele>
        <time>2021-12-23T12:56:58Z</time>
      </trkpt>
      <trkpt lat="45.24147" lon="6.1075">
        <ele>2923</ele>
        <time>2021-12-23T12:56:59Z</time>
      </trkpt>
      <trkpt lat="45.24147" lon="6.1075">
        <ele>2923</ele>
        <time>2021-12-23T12:57:00Z</time>
      </trkpt>
      <trkpt lat="45.24147" lon="6.1075">
        <ele>2923</ele>
        <time>2021-12-23T12:57:01Z</time>
      </trkpt>
      <trkpt lat="45.24147" lon="6.1075">
        <ele>2923</ele>
        <time>2021-12-23T12:57:02Z</time>
      </trkpt>
      <trkpt lat="45.24147" lon="6.1075">
        <ele>2923</ele>
        <time>2021-12-23T12:57:03Z</time>
      </trkpt>
      <trkpt lat="45.24147" lon="6.1075">
        <ele>2923</ele>
        <time>2021-12-23T12:57:04Z</time>
      </trkpt>
      <trkpt lat="45.24147" lon="6.1075">
        <ele>2923</ele>
        <time>2021-12-23T12:57:05Z</time>
      </trkpt>
      <trkpt lat="45.24147" lon="6.1075">
        <ele>2923</ele>
        <time>2021-12-23T12:57:06Z</time>
      </trkpt>
      <trkpt lat="45.24147" lon="6.1075">
        <ele>2923</ele>
        <time>2021-12-23T12:57:07Z</time>
      </trkpt>
      <trkpt lat="45.24147" lon="6.1075">
        <ele>2923</ele>
        <time>2021-12-23T12:57:08Z</time>
      </trkpt>
      <trkpt lat="45.24147" lon="6.1075">
        <ele>2923</ele>
        <time>2021-12-23T12:57:09Z</time>
      </trkpt>
      <trkpt lat="45.24147" lon="6.1075">
        <ele>2924</ele>
        <time>2021-12-23T12:57:11Z</time>
      </trkpt>
      <trkpt lat="45.24147" lon="6.1075">
        <ele>2924</ele>
        <time>2021-12-23T12:57:12Z</time>
      </trkpt>
      <trkpt lat="45.24147" lon="6.1075">
        <ele>2924</ele>
        <time>2021-12-23T12:57:13Z</time>
      </trkpt>
      <trkpt lat="45.24147" lon="6.1075">
        <ele>2923</ele>
        <time>2021-12-23T12:57:14Z</time>
      </trkpt>
      <trkpt lat="45.24147" lon="6.1075">
        <ele>2923</ele>
        <time>2021-12-23T12:57:15Z</time>
      </trkpt>
      <trkpt lat="45.24147" lon="6.1075">
        <ele>2923</ele>
        <time>2021-12-23T12:57:16Z</time>
      </trkpt>
      <trkpt lat="45.24147" lon="6.1075">
        <ele>2923</ele>
        <time>2021-12-23T12:57:17Z</time>
      </trkpt>
      <trkpt lat="45.24147" lon="6.1075">
        <ele>2924</ele>
        <time>2021-12-23T12:57:18Z</time>
      </trkpt>
      <trkpt lat="45.24147" lon="6.1075">
        <ele>2924</ele>
        <time>2021-12-23T12:57:19Z</time>
      </trkpt>
      <trkpt lat="45.24147" lon="6.1075">
        <ele>2924</ele>
        <time>2021-12-23T12:57:20Z</time>
      </trkpt>
      <trkpt lat="45.24147" lon="6.1075">
        <ele>2923</ele>
        <time>2021-12-23T12:57:21Z</time>
      </trkpt>
      <trkpt lat="45.24147" lon="6.1075">
        <ele>2923</ele>
        <time>2021-12-23T12:57:22Z</time>
      </trkpt>
      <trkpt lat="45.24147" lon="6.1075">
        <ele>2923</ele>
        <time>2021-12-23T12:57:23Z</time>
      </trkpt>
      <trkpt lat="45.24147" lon="6.1075">
        <ele>2923</ele>
        <time>2021-12-23T12:57:24Z</time>
      </trkpt>
      <trkpt lat="45.24147" lon="6.1075">
        <ele>2923</ele>
        <time>2021-12-23T12:57:25Z</time>
      </trkpt>
      <trkpt lat="45.24147" lon="6.1075">
        <ele>2923</ele>
        <time>2021-12-23T12:57:26Z</time>
      </trkpt>
      <trkpt lat="45.24147" lon="6.1075">
        <ele>2924</ele>
        <time>2021-12-23T12:57:27Z</time>
      </trkpt>
      <trkpt lat="45.24146" lon="6.1075">
        <ele>2924</ele>
        <time>2021-12-23T12:57:28Z</time>
      </trkpt>
      <trkpt lat="45.24146" lon="6.1075">
        <ele>2923</ele>
        <time>2021-12-23T12:57:30Z</time>
      </trkpt>
      <trkpt lat="45.24146" lon="6.1075">
        <ele>2923</ele>
        <time>2021-12-23T12:57:31Z</time>
      </trkpt>
      <trkpt lat="45.24146" lon="6.1075">
        <ele>2923</ele>
        <time>2021-12-23T12:57:32Z</time>
      </trkpt>
      <trkpt lat="45.24146" lon="6.1075">
        <ele>2923</ele>
        <time>2021-12-23T12:57:33Z</time>
      </trkpt>
      <trkpt lat="45.24146" lon="6.1075">
        <ele>2923</ele>
        <time>2021-12-23T12:57:34Z</time>
      </trkpt>
      <trkpt lat="45.24146" lon="6.1075">
        <ele>2923</ele>
        <time>2021-12-23T12:57:35Z</time>
      </trkpt>
      <trkpt lat="45.24146" lon="6.1075">
        <ele>2923</ele>
        <time>2021-12-23T12:57:36Z</time>
      </trkpt>
      <trkpt lat="45.24146" lon="6.1075">
        <ele>2924</ele>
        <time>2021-12-23T12:57:37Z</time>
      </trkpt>
      <trkpt lat="45.24146" lon="6.1075">
        <ele>2924</ele>
        <time>2021-12-23T12:57:38Z</time>
      </trkpt>
      <trkpt lat="45.24146" lon="6.1075">
        <ele>2924</ele>
        <time>2021-12-23T12:57:39Z</time>
      </trkpt>
      <trkpt lat="45.24146" lon="6.1075">
        <ele>2924</ele>
        <time>2021-12-23T12:57:40Z</time>
      </trkpt>
      <trkpt lat="45.24146" lon="6.1075">
        <ele>2924</ele>
        <time>2021-12-23T12:57:41Z</time>
      </trkpt>
      <trkpt lat="45.24146" lon="6.1075">
        <ele>2924</ele>
        <time>2021-12-23T12:57:42Z</time>
      </trkpt>
      <trkpt lat="45.24146" lon="6.1075">
        <ele>2924</ele>
        <time>2021-12-23T12:57:43Z</time>
      </trkpt>
      <trkpt lat="45.24146" lon="6.10749">
        <ele>2924</ele>
        <time>2021-12-23T12:57:44Z</time>
      </trkpt>
      <trkpt lat="45.24146" lon="6.10749">
        <ele>2924</ele>
        <time>2021-12-23T12:57:45Z</time>
      </trkpt>
      <trkpt lat="45.24146" lon="6.10749">
        <ele>2924</ele>
        <time>2021-12-23T12:57:46Z</time>
      </trkpt>
      <trkpt lat="45.24146" lon="6.10749">
        <ele>2924</ele>
        <time>2021-12-23T12:57:47Z</time>
      </trkpt>
      <trkpt lat="45.24146" lon="6.10749">
        <ele>2924</ele>
        <time>2021-12-23T12:57:49Z</time>
      </trkpt>
      <trkpt lat="45.24146" lon="6.10749">
        <ele>2924</ele>
        <time>2021-12-23T12:57:50Z</time>
      </trkpt>
      <trkpt lat="45.24146" lon="6.10749">
        <ele>2924</ele>
        <time>2021-12-23T12:57:51Z</time>
      </trkpt>
      <trkpt lat="45.24146" lon="6.10749">
        <ele>2924</ele>
        <time>2021-12-23T12:57:52Z</time>
      </trkpt>
      <trkpt lat="45.24146" lon="6.10749">
        <ele>2923</ele>
        <time>2021-12-23T12:57:53Z</time>
      </trkpt>
      <trkpt lat="45.24146" lon="6.10749">
        <ele>2923</ele>
        <time>2021-12-23T12:57:54Z</time>
      </trkpt>
      <trkpt lat="45.24146" lon="6.10749">
        <ele>2924</ele>
        <time>2021-12-23T12:57:55Z</time>
      </trkpt>
      <trkpt lat="45.24146" lon="6.10749">
        <ele>2924</ele>
        <time>2021-12-23T12:57:56Z</time>
      </trkpt>
      <trkpt lat="45.24146" lon="6.10749">
        <ele>2924</ele>
        <time>2021-12-23T12:57:57Z</time>
      </trkpt>
      <trkpt lat="45.24146" lon="6.10749">
        <ele>2926</ele>
        <time>2021-12-23T12:57:58Z</time>
      </trkpt>
      <trkpt lat="45.24146" lon="6.10749">
        <ele>2926</ele>
        <time>2021-12-23T12:57:59Z</time>
      </trkpt>
      <trkpt lat="45.24146" lon="6.10749">
        <ele>2926</ele>
        <time>2021-12-23T12:58:00Z</time>
      </trkpt>
      <trkpt lat="45.24146" lon="6.10749">
        <ele>2926</ele>
        <time>2021-12-23T12:58:01Z</time>
      </trkpt>
      <trkpt lat="45.24146" lon="6.10749">
        <ele>2926</ele>
        <time>2021-12-23T12:58:02Z</time>
      </trkpt>
      <trkpt lat="45.24146" lon="6.10749">
        <ele>2924</ele>
        <time>2021-12-23T12:58:03Z</time>
      </trkpt>
      <trkpt lat="45.24146" lon="6.10749">
        <ele>2924</ele>
        <time>2021-12-23T12:58:04Z</time>
      </trkpt>
      <trkpt lat="45.24146" lon="6.10749">
        <ele>2924</ele>
        <time>2021-12-23T12:58:05Z</time>
      </trkpt>
      <trkpt lat="45.24146" lon="6.10749">
        <ele>2924</ele>
        <time>2021-12-23T12:58:06Z</time>
      </trkpt>
      <trkpt lat="45.24146" lon="6.10749">
        <ele>2923</ele>
        <time>2021-12-23T12:58:08Z</time>
      </trkpt>
      <trkpt lat="45.24146" lon="6.10749">
        <ele>2923</ele>
        <time>2021-12-23T12:58:09Z</time>
      </trkpt>
      <trkpt lat="45.24146" lon="6.10749">
        <ele>2923</ele>
        <time>2021-12-23T12:58:10Z</time>
      </trkpt>
      <trkpt lat="45.24146" lon="6.10749">
        <ele>2923</ele>
        <time>2021-12-23T12:58:11Z</time>
      </trkpt>
      <trkpt lat="45.24146" lon="6.10749">
        <ele>2923</ele>
        <time>2021-12-23T12:58:12Z</time>
      </trkpt>
      <trkpt lat="45.24146" lon="6.10749">
        <ele>2923</ele>
        <time>2021-12-23T12:58:13Z</time>
      </trkpt>
      <trkpt lat="45.24146" lon="6.10749">
        <ele>2923</ele>
        <time>2021-12-23T12:58:14Z</time>
      </trkpt>
      <trkpt lat="45.24146" lon="6.10749">
        <ele>2923</ele>
        <time>2021-12-23T12:58:15Z</time>
      </trkpt>
      <trkpt lat="45.24146" lon="6.10749">
        <ele>2923</ele>
        <time>2021-12-23T12:58:16Z</time>
      </trkpt>
      <trkpt lat="45.24146" lon="6.10749">
        <ele>2923</ele>
        <time>2021-12-23T12:58:17Z</time>
      </trkpt>
      <trkpt lat="45.24146" lon="6.10749">
        <ele>2923</ele>
        <time>2021-12-23T12:58:18Z</time>
      </trkpt>
      <trkpt lat="45.24146" lon="6.10749">
        <ele>2924</ele>
        <time>2021-12-23T12:58:19Z</time>
      </trkpt>
      <trkpt lat="45.24146" lon="6.10749">
        <ele>2924</ele>
        <time>2021-12-23T12:58:20Z</time>
      </trkpt>
      <trkpt lat="45.24146" lon="6.10749">
        <ele>2924</ele>
        <time>2021-12-23T12:58:21Z</time>
      </trkpt>
      <trkpt lat="45.24146" lon="6.10749">
        <ele>2924</ele>
        <time>2021-12-23T12:58:22Z</time>
      </trkpt>
      <trkpt lat="45.24146" lon="6.10749">
        <ele>2924</ele>
        <time>2021-12-23T12:58:23Z</time>
      </trkpt>
      <trkpt lat="45.24146" lon="6.10749">
        <ele>2924</ele>
        <time>2021-12-23T12:58:24Z</time>
      </trkpt>
      <trkpt lat="45.24146" lon="6.10749">
        <ele>2924</ele>
        <time>2021-12-23T12:58:25Z</time>
      </trkpt>
      <trkpt lat="45.24146" lon="6.10749">
        <ele>2924</ele>
        <time>2021-12-23T12:58:27Z</time>
      </trkpt>
      <trkpt lat="45.24146" lon="6.10749">
        <ele>2924</ele>
        <time>2021-12-23T12:58:28Z</time>
      </trkpt>
      <trkpt lat="45.24146" lon="6.10749">
        <ele>2923</ele>
        <time>2021-12-23T12:58:29Z</time>
      </trkpt>
      <trkpt lat="45.24146" lon="6.10749">
        <ele>2923</ele>
        <time>2021-12-23T12:58:30Z</time>
      </trkpt>
      <trkpt lat="45.24146" lon="6.10749">
        <ele>2923</ele>
        <time>2021-12-23T12:58:31Z</time>
      </trkpt>
      <trkpt lat="45.24146" lon="6.10749">
        <ele>2923</ele>
        <time>2021-12-23T12:58:32Z</time>
      </trkpt>
      <trkpt lat="45.24146" lon="6.10749">
        <ele>2923</ele>
        <time>2021-12-23T12:58:33Z</time>
      </trkpt>
      <trkpt lat="45.24146" lon="6.10749">
        <ele>2923</ele>
        <time>2021-12-23T12:58:34Z</time>
      </trkpt>
      <trkpt lat="45.24146" lon="6.10749">
        <ele>2923</ele>
        <time>2021-12-23T12:58:35Z</time>
      </trkpt>
      <trkpt lat="45.24146" lon="6.10749">
        <ele>2923</ele>
        <time>2021-12-23T12:58:36Z</time>
      </trkpt>
      <trkpt lat="45.24146" lon="6.10749">
        <ele>2923</ele>
        <time>2021-12-23T12:58:37Z</time>
      </trkpt>
      <trkpt lat="45.24146" lon="6.10749">
        <ele>2923</ele>
        <time>2021-12-23T12:58:38Z</time>
      </trkpt>
      <trkpt lat="45.24146" lon="6.10749">
        <ele>2923</ele>
        <time>2021-12-23T12:58:39Z</time>
      </trkpt>
      <trkpt lat="45.24146" lon="6.10749">
        <ele>2924</ele>
        <time>2021-12-23T12:58:40Z</time>
      </trkpt>
      <trkpt lat="45.24146" lon="6.10749">
        <ele>2924</ele>
        <time>2021-12-23T12:58:41Z</time>
      </trkpt>
      <trkpt lat="45.24146" lon="6.10749">
        <ele>2924</ele>
        <time>2021-12-23T12:58:42Z</time>
      </trkpt>
      <trkpt lat="45.24146" lon="6.10749">
        <ele>2924</ele>
        <time>2021-12-23T12:58:43Z</time>
      </trkpt>
      <trkpt lat="45.24146" lon="6.10749">
        <ele>2924</ele>
        <time>2021-12-23T12:58:44Z</time>
      </trkpt>
      <trkpt lat="45.24146" lon="6.10749">
        <ele>2925</ele>
        <time>2021-12-23T12:58:46Z</time>
      </trkpt>
      <trkpt lat="45.24146" lon="6.10749">
        <ele>2925</ele>
        <time>2021-12-23T12:58:47Z</time>
      </trkpt>
      <trkpt lat="45.24146" lon="6.10749">
        <ele>2925</ele>
        <time>2021-12-23T12:58:48Z</time>
      </trkpt>
      <trkpt lat="45.24146" lon="6.10748">
        <ele>2925</ele>
        <time>2021-12-23T12:58:49Z</time>
      </trkpt>
      <trkpt lat="45.24146" lon="6.10748">
        <ele>2925</ele>
        <time>2021-12-23T12:58:50Z</time>
      </trkpt>
      <trkpt lat="45.24146" lon="6.10748">
        <ele>2925</ele>
        <time>2021-12-23T12:58:51Z</time>
      </trkpt>
      <trkpt lat="45.24146" lon="6.10748">
        <ele>2925</ele>
        <time>2021-12-23T12:58:52Z</time>
      </trkpt>
      <trkpt lat="45.24146" lon="6.10748">
        <ele>2925</ele>
        <time>2021-12-23T12:58:53Z</time>
      </trkpt>
      <trkpt lat="45.24146" lon="6.10748">
        <ele>2925</ele>
        <time>2021-12-23T12:58:54Z</time>
      </trkpt>
      <trkpt lat="45.24146" lon="6.10748">
        <ele>2925</ele>
        <time>2021-12-23T12:58:55Z</time>
      </trkpt>
      <trkpt lat="45.24146" lon="6.10748">
        <ele>2925</ele>
        <time>2021-12-23T12:58:56Z</time>
      </trkpt>
      <trkpt lat="45.24146" lon="6.10748">
        <ele>2925</ele>
        <time>2021-12-23T12:58:57Z</time>
      </trkpt>
      <trkpt lat="45.24146" lon="6.10748">
        <ele>2925</ele>
        <time>2021-12-23T12:58:58Z</time>
      </trkpt>
      <trkpt lat="45.24146" lon="6.10748">
        <ele>2925</ele>
        <time>2021-12-23T12:58:59Z</time>
      </trkpt>
      <trkpt lat="45.24146" lon="6.10748">
        <ele>2925</ele>
        <time>2021-12-23T12:59:00Z</time>
      </trkpt>
      <trkpt lat="45.24146" lon="6.10748">
        <ele>2925</ele>
        <time>2021-12-23T12:59:01Z</time>
      </trkpt>
      <trkpt lat="45.24146" lon="6.10748">
        <ele>2925</ele>
        <time>2021-12-23T12:59:02Z</time>
      </trkpt>
      <trkpt lat="45.24146" lon="6.10748">
        <ele>2925</ele>
        <time>2021-12-23T12:59:03Z</time>
      </trkpt>
      <trkpt lat="45.24145" lon="6.10748">
        <ele>2925</ele>
        <time>2021-12-23T12:59:05Z</time>
      </trkpt>
      <trkpt lat="45.24145" lon="6.10748">
        <ele>2925</ele>
        <time>2021-12-23T12:59:06Z</time>
      </trkpt>
      <trkpt lat="45.24145" lon="6.10748">
        <ele>2925</ele>
        <time>2021-12-23T12:59:07Z</time>
      </trkpt>
      <trkpt lat="45.24145" lon="6.10748">
        <ele>2925</ele>
        <time>2021-12-23T12:59:08Z</time>
      </trkpt>
      <trkpt lat="45.24145" lon="6.10748">
        <ele>2925</ele>
        <time>2021-12-23T12:59:09Z</time>
      </trkpt>
      <trkpt lat="45.24145" lon="6.10748">
        <ele>2925</ele>
        <time>2021-12-23T12:59:10Z</time>
      </trkpt>
      <trkpt lat="45.24145" lon="6.10748">
        <ele>2925</ele>
        <time>2021-12-23T12:59:11Z</time>
      </trkpt>
      <trkpt lat="45.24145" lon="6.10748">
        <ele>2925</ele>
        <time>2021-12-23T12:59:12Z</time>
      </trkpt>
      <trkpt lat="45.24145" lon="6.10748">
        <ele>2925</ele>
        <time>2021-12-23T12:59:13Z</time>
      </trkpt>
      <trkpt lat="45.24145" lon="6.10748">
        <ele>2925</ele>
        <time>2021-12-23T12:59:14Z</time>
      </trkpt>
      <trkpt lat="45.24145" lon="6.10748">
        <ele>2925</ele>
        <time>2021-12-23T12:59:15Z</time>
      </trkpt>
      <trkpt lat="45.24145" lon="6.10748">
        <ele>2925</ele>
        <time>2021-12-23T12:59:16Z</time>
      </trkpt>
      <trkpt lat="45.24145" lon="6.10748">
        <ele>2925</ele>
        <time>2021-12-23T12:59:17Z</time>
      </trkpt>
      <trkpt lat="45.24145" lon="6.10748">
        <ele>2925</ele>
        <time>2021-12-23T12:59:18Z</time>
      </trkpt>
      <trkpt lat="45.24145" lon="6.10748">
        <ele>2925</ele>
        <time>2021-12-23T12:59:19Z</time>
      </trkpt>
      <trkpt lat="45.24145" lon="6.10748">
        <ele>2925</ele>
        <time>2021-12-23T12:59:20Z</time>
      </trkpt>
      <trkpt lat="45.24145" lon="6.10748">
        <ele>2925</ele>
        <time>2021-12-23T12:59:21Z</time>
      </trkpt>
      <trkpt lat="45.24145" lon="6.10748">
        <ele>2925</ele>
        <time>2021-12-23T12:59:22Z</time>
      </trkpt>
      <trkpt lat="45.24145" lon="6.10748">
        <ele>2925</ele>
        <time>2021-12-23T12:59:24Z</time>
      </trkpt>
      <trkpt lat="45.24145" lon="6.10748">
        <ele>2925</ele>
        <time>2021-12-23T12:59:25Z</time>
      </trkpt>
      <trkpt lat="45.24145" lon="6.10748">
        <ele>2925</ele>
        <time>2021-12-23T12:59:26Z</time>
      </trkpt>
      <trkpt lat="45.24145" lon="6.10748">
        <ele>2925</ele>
        <time>2021-12-23T12:59:27Z</time>
      </trkpt>
      <trkpt lat="45.24145" lon="6.10748">
        <ele>2925</ele>
        <time>2021-12-23T12:59:28Z</time>
      </trkpt>
      <trkpt lat="45.24145" lon="6.10748">
        <ele>2925</ele>
        <time>2021-12-23T12:59:29Z</time>
      </trkpt>
      <trkpt lat="45.24145" lon="6.10748">
        <ele>2925</ele>
        <time>2021-12-23T12:59:30Z</time>
      </trkpt>
      <trkpt lat="45.24145" lon="6.10748">
        <ele>2925</ele>
        <time>2021-12-23T12:59:31Z</time>
      </trkpt>
      <trkpt lat="45.24145" lon="6.10748">
        <ele>2924</ele>
        <time>2021-12-23T12:59:32Z</time>
      </trkpt>
      <trkpt lat="45.24145" lon="6.10748">
        <ele>2924</ele>
        <time>2021-12-23T12:59:33Z</time>
      </trkpt>
      <trkpt lat="45.24145" lon="6.10748">
        <ele>2924</ele>
        <time>2021-12-23T12:59:34Z</time>
      </trkpt>
      <trkpt lat="45.24145" lon="6.10748">
        <ele>2924</ele>
        <time>2021-12-23T12:59:35Z</time>
      </trkpt>
      <trkpt lat="45.24145" lon="6.10748">
        <ele>2924</ele>
        <time>2021-12-23T12:59:36Z</time>
      </trkpt>
      <trkpt lat="45.24145" lon="6.10748">
        <ele>2923</ele>
        <time>2021-12-23T12:59:37Z</time>
      </trkpt>
      <trkpt lat="45.24145" lon="6.10748">
        <ele>2923</ele>
        <time>2021-12-23T12:59:38Z</time>
      </trkpt>
      <trkpt lat="45.24145" lon="6.10748">
        <ele>2923</ele>
        <time>2021-12-23T12:59:39Z</time>
      </trkpt>
      <trkpt lat="45.24145" lon="6.10748">
        <ele>2923</ele>
        <time>2021-12-23T12:59:40Z</time>
      </trkpt>
      <trkpt lat="45.24145" lon="6.10748">
        <ele>2924</ele>
        <time>2021-12-23T12:59:41Z</time>
      </trkpt>
      <trkpt lat="45.24145" lon="6.10748">
        <ele>2924</ele>
        <time>2021-12-23T12:59:43Z</time>
      </trkpt>
      <trkpt lat="45.24145" lon="6.10748">
        <ele>2924</ele>
        <time>2021-12-23T12:59:44Z</time>
      </trkpt>
      <trkpt lat="45.24145" lon="6.10748">
        <ele>2924</ele>
        <time>2021-12-23T12:59:45Z</time>
      </trkpt>
      <trkpt lat="45.24145" lon="6.10748">
        <ele>2924</ele>
        <time>2021-12-23T12:59:46Z</time>
      </trkpt>
      <trkpt lat="45.24145" lon="6.10748">
        <ele>2924</ele>
        <time>2021-12-23T12:59:47Z</time>
      </trkpt>
      <trkpt lat="45.24145" lon="6.10748">
        <ele>2924</ele>
        <time>2021-12-23T12:59:48Z</time>
      </trkpt>
      <trkpt lat="45.24145" lon="6.10748">
        <ele>2924</ele>
        <time>2021-12-23T12:59:49Z</time>
      </trkpt>
      <trkpt lat="45.24145" lon="6.10748">
        <ele>2924</ele>
        <time>2021-12-23T12:59:50Z</time>
      </trkpt>
      <trkpt lat="45.24145" lon="6.10748">
        <ele>2925</ele>
        <time>2021-12-23T12:59:51Z</time>
      </trkpt>
      <trkpt lat="45.24145" lon="6.10747">
        <ele>2925</ele>
        <time>2021-12-23T12:59:52Z</time>
      </trkpt>
      <trkpt lat="45.24145" lon="6.10748">
        <ele>2925</ele>
        <time>2021-12-23T12:59:53Z</time>
      </trkpt>
      <trkpt lat="45.24145" lon="6.10748">
        <ele>2925</ele>
        <time>2021-12-23T12:59:54Z</time>
      </trkpt>
      <trkpt lat="45.24145" lon="6.10748">
        <ele>2925</ele>
        <time>2021-12-23T12:59:55Z</time>
      </trkpt>
      <trkpt lat="45.24146" lon="6.10748">
        <ele>2925</ele>
        <time>2021-12-23T12:59:56Z</time>
      </trkpt>
      <trkpt lat="45.24146" lon="6.10748">
        <ele>2925</ele>
        <time>2021-12-23T12:59:57Z</time>
      </trkpt>
      <trkpt lat="45.24146" lon="6.10748">
        <ele>2925</ele>
        <time>2021-12-23T12:59:58Z</time>
      </trkpt>
      <trkpt lat="45.24146" lon="6.10748">
        <ele>2925</ele>
        <time>2021-12-23T12:59:59Z</time>
      </trkpt>
      <trkpt lat="45.24146" lon="6.10748">
        <ele>2925</ele>
        <time>2021-12-23T13:00:00Z</time>
      </trkpt>
      <trkpt lat="45.24146" lon="6.10748">
        <ele>2925</ele>
        <time>2021-12-23T13:00:02Z</time>
      </trkpt>
      <trkpt lat="45.24146" lon="6.10748">
        <ele>2925</ele>
        <time>2021-12-23T13:00:03Z</time>
      </trkpt>
      <trkpt lat="45.24147" lon="6.10748">
        <ele>2925</ele>
        <time>2021-12-23T13:00:04Z</time>
      </trkpt>
      <trkpt lat="45.24147" lon="6.10748">
        <ele>2925</ele>
        <time>2021-12-23T13:00:05Z</time>
      </trkpt>
      <trkpt lat="45.24147" lon="6.10749">
        <ele>2925</ele>
        <time>2021-12-23T13:00:06Z</time>
      </trkpt>
      <trkpt lat="45.24147" lon="6.10749">
        <ele>2925</ele>
        <time>2021-12-23T13:00:07Z</time>
      </trkpt>
      <trkpt lat="45.24147" lon="6.10749">
        <ele>2925</ele>
        <time>2021-12-23T13:00:08Z</time>
      </trkpt>
      <trkpt lat="45.24147" lon="6.10749">
        <ele>2925</ele>
        <time>2021-12-23T13:00:09Z</time>
      </trkpt>
      <trkpt lat="45.24147" lon="6.10749">
        <ele>2925</ele>
        <time>2021-12-23T13:00:10Z</time>
      </trkpt>
      <trkpt lat="45.24148" lon="6.10749">
        <ele>2925</ele>
        <time>2021-12-23T13:00:11Z</time>
      </trkpt>
      <trkpt lat="45.24148" lon="6.10749">
        <ele>2925</ele>
        <time>2021-12-23T13:00:12Z</time>
      </trkpt>
      <trkpt lat="45.24148" lon="6.10749">
        <ele>2925</ele>
        <time>2021-12-23T13:00:13Z</time>
      </trkpt>
      <trkpt lat="45.24148" lon="6.10749">
        <ele>2925</ele>
        <time>2021-12-23T13:00:14Z</time>
      </trkpt>
      <trkpt lat="45.24148" lon="6.10749">
        <ele>2925</ele>
        <time>2021-12-23T13:00:15Z</time>
      </trkpt>
      <trkpt lat="45.24148" lon="6.10749">
        <ele>2925</ele>
        <time>2021-12-23T13:00:16Z</time>
      </trkpt>
      <trkpt lat="45.24148" lon="6.10749">
        <ele>2925</ele>
        <time>2021-12-23T13:00:17Z</time>
      </trkpt>
      <trkpt lat="45.24149" lon="6.1075">
        <ele>2925</ele>
        <time>2021-12-23T13:00:18Z</time>
      </trkpt>
      <trkpt lat="45.24149" lon="6.1075">
        <ele>2925</ele>
        <time>2021-12-23T13:00:19Z</time>
      </trkpt>
      <trkpt lat="45.24149" lon="6.1075">
        <ele>2925</ele>
        <time>2021-12-23T13:00:21Z</time>
      </trkpt>
      <trkpt lat="45.24149" lon="6.1075">
        <ele>2925</ele>
        <time>2021-12-23T13:00:22Z</time>
      </trkpt>
      <trkpt lat="45.24149" lon="6.1075">
        <ele>2925</ele>
        <time>2021-12-23T13:00:23Z</time>
      </trkpt>
      <trkpt lat="45.24149" lon="6.1075">
        <ele>2925</ele>
        <time>2021-12-23T13:00:24Z</time>
      </trkpt>
      <trkpt lat="45.24149" lon="6.1075">
        <ele>2925</ele>
        <time>2021-12-23T13:00:25Z</time>
      </trkpt>
      <trkpt lat="45.2415" lon="6.1075">
        <ele>2925</ele>
        <time>2021-12-23T13:00:26Z</time>
      </trkpt>
      <trkpt lat="45.2415" lon="6.1075">
        <ele>2925</ele>
        <time>2021-12-23T13:00:27Z</time>
      </trkpt>
      <trkpt lat="45.2415" lon="6.1075">
        <ele>2925</ele>
        <time>2021-12-23T13:00:28Z</time>
      </trkpt>
      <trkpt lat="45.2415" lon="6.1075">
        <ele>2925</ele>
        <time>2021-12-23T13:00:29Z</time>
      </trkpt>
      <trkpt lat="45.2415" lon="6.1075">
        <ele>2925</ele>
        <time>2021-12-23T13:00:30Z</time>
      </trkpt>
      <trkpt lat="45.2415" lon="6.10751">
        <ele>2925</ele>
        <time>2021-12-23T13:00:31Z</time>
      </trkpt>
      <trkpt lat="45.2415" lon="6.10751">
        <ele>2925</ele>
        <time>2021-12-23T13:00:32Z</time>
      </trkpt>
      <trkpt lat="45.24156" lon="6.10754">
        <ele>2925</ele>
        <time>2021-12-23T13:00:33Z</time>
      </trkpt>
      <trkpt lat="45.24156" lon="6.10754">
        <ele>2925</ele>
        <time>2021-12-23T13:00:34Z</time>
      </trkpt>
      <trkpt lat="45.24156" lon="6.10754">
        <ele>2925</ele>
        <time>2021-12-23T13:00:35Z</time>
      </trkpt>
      <trkpt lat="45.24156" lon="6.10754">
        <ele>2925</ele>
        <time>2021-12-23T13:00:36Z</time>
      </trkpt>
      <trkpt lat="45.24156" lon="6.10754">
        <ele>2925</ele>
        <time>2021-12-23T13:00:37Z</time>
      </trkpt>
      <trkpt lat="45.24156" lon="6.10754">
        <ele>2926</ele>
        <time>2021-12-23T13:00:38Z</time>
      </trkpt>
      <trkpt lat="45.24156" lon="6.10754">
        <ele>2926</ele>
        <time>2021-12-23T13:00:40Z</time>
      </trkpt>
      <trkpt lat="45.24156" lon="6.10754">
        <ele>2925</ele>
        <time>2021-12-23T13:00:41Z</time>
      </trkpt>
      <trkpt lat="45.24156" lon="6.10754">
        <ele>2925</ele>
        <time>2021-12-23T13:00:42Z</time>
      </trkpt>
      <trkpt lat="45.24156" lon="6.10754">
        <ele>2925</ele>
        <time>2021-12-23T13:00:43Z</time>
      </trkpt>
      <trkpt lat="45.24156" lon="6.10754">
        <ele>2925</ele>
        <time>2021-12-23T13:00:44Z</time>
      </trkpt>
      <trkpt lat="45.24156" lon="6.10754">
        <ele>2925</ele>
        <time>2021-12-23T13:00:45Z</time>
      </trkpt>
      <trkpt lat="45.24156" lon="6.10753">
        <ele>2925</ele>
        <time>2021-12-23T13:00:46Z</time>
      </trkpt>
      <trkpt lat="45.24156" lon="6.10753">
        <ele>2925</ele>
        <time>2021-12-23T13:00:47Z</time>
      </trkpt>
      <trkpt lat="45.24156" lon="6.10753">
        <ele>2925</ele>
        <time>2021-12-23T13:00:48Z</time>
      </trkpt>
      <trkpt lat="45.24156" lon="6.10753">
        <ele>2925</ele>
        <time>2021-12-23T13:00:49Z</time>
      </trkpt>
      <trkpt lat="45.24156" lon="6.10753">
        <ele>2925</ele>
        <time>2021-12-23T13:00:50Z</time>
      </trkpt>
      <trkpt lat="45.24155" lon="6.10753">
        <ele>2925</ele>
        <time>2021-12-23T13:00:51Z</time>
      </trkpt>
      <trkpt lat="45.24155" lon="6.10753">
        <ele>2925</ele>
        <time>2021-12-23T13:00:52Z</time>
      </trkpt>
      <trkpt lat="45.24155" lon="6.10753">
        <ele>2925</ele>
        <time>2021-12-23T13:00:53Z</time>
      </trkpt>
      <trkpt lat="45.24155" lon="6.10753">
        <ele>2925</ele>
        <time>2021-12-23T13:00:54Z</time>
      </trkpt>
      <trkpt lat="45.24155" lon="6.10753">
        <ele>2925</ele>
        <time>2021-12-23T13:00:55Z</time>
      </trkpt>
      <trkpt lat="45.24155" lon="6.10753">
        <ele>2925</ele>
        <time>2021-12-23T13:00:56Z</time>
      </trkpt>
      <trkpt lat="45.24155" lon="6.10753">
        <ele>2925</ele>
        <time>2021-12-23T13:00:57Z</time>
      </trkpt>
      <trkpt lat="45.24155" lon="6.10753">
        <ele>2925</ele>
        <time>2021-12-23T13:00:59Z</time>
      </trkpt>
      <trkpt lat="45.24155" lon="6.10753">
        <ele>2925</ele>
        <time>2021-12-23T13:01:00Z</time>
      </trkpt>
      <trkpt lat="45.24155" lon="6.10753">
        <ele>2925</ele>
        <time>2021-12-23T13:01:01Z</time>
      </trkpt>
      <trkpt lat="45.24155" lon="6.10753">
        <ele>2925</ele>
        <time>2021-12-23T13:01:02Z</time>
      </trkpt>
      <trkpt lat="45.24155" lon="6.10753">
        <ele>2925</ele>
        <time>2021-12-23T13:01:03Z</time>
      </trkpt>
      <trkpt lat="45.24155" lon="6.10753">
        <ele>2925</ele>
        <time>2021-12-23T13:01:04Z</time>
      </trkpt>
      <trkpt lat="45.24155" lon="6.10753">
        <ele>2926</ele>
        <time>2021-12-23T13:01:05Z</time>
      </trkpt>
      <trkpt lat="45.24155" lon="6.10753">
        <ele>2926</ele>
        <time>2021-12-23T13:01:06Z</time>
      </trkpt>
      <trkpt lat="45.24155" lon="6.10753">
        <ele>2926</ele>
        <time>2021-12-23T13:01:07Z</time>
      </trkpt>
      <trkpt lat="45.24155" lon="6.10753">
        <ele>2925</ele>
        <time>2021-12-23T13:01:08Z</time>
      </trkpt>
      <trkpt lat="45.24155" lon="6.10753">
        <ele>2925</ele>
        <time>2021-12-23T13:01:09Z</time>
      </trkpt>
      <trkpt lat="45.24155" lon="6.10753">
        <ele>2925</ele>
        <time>2021-12-23T13:01:10Z</time>
      </trkpt>
      <trkpt lat="45.24155" lon="6.10753">
        <ele>2925</ele>
        <time>2021-12-23T13:01:11Z</time>
      </trkpt>
      <trkpt lat="45.24155" lon="6.10753">
        <ele>2925</ele>
        <time>2021-12-23T13:01:12Z</time>
      </trkpt>
      <trkpt lat="45.24155" lon="6.10753">
        <ele>2925</ele>
        <time>2021-12-23T13:01:13Z</time>
      </trkpt>
      <trkpt lat="45.24155" lon="6.10753">
        <ele>2925</ele>
        <time>2021-12-23T13:01:14Z</time>
      </trkpt>
      <trkpt lat="45.24155" lon="6.10753">
        <ele>2925</ele>
        <time>2021-12-23T13:01:15Z</time>
      </trkpt>
      <trkpt lat="45.24155" lon="6.10753">
        <ele>2925</ele>
        <time>2021-12-23T13:01:16Z</time>
      </trkpt>
      <trkpt lat="45.24155" lon="6.10753">
        <ele>2925</ele>
        <time>2021-12-23T13:01:18Z</time>
      </trkpt>
      <trkpt lat="45.24155" lon="6.10753">
        <ele>2925</ele>
        <time>2021-12-23T13:01:19Z</time>
      </trkpt>
      <trkpt lat="45.24155" lon="6.10753">
        <ele>2925</ele>
        <time>2021-12-23T13:01:20Z</time>
      </trkpt>
      <trkpt lat="45.24155" lon="6.10753">
        <ele>2925</ele>
        <time>2021-12-23T13:01:21Z</time>
      </trkpt>
      <trkpt lat="45.24155" lon="6.10753">
        <ele>2925</ele>
        <time>2021-12-23T13:01:22Z</time>
      </trkpt>
      <trkpt lat="45.24155" lon="6.10753">
        <ele>2925</ele>
        <time>2021-12-23T13:01:23Z</time>
      </trkpt>
      <trkpt lat="45.24155" lon="6.10753">
        <ele>2925</ele>
        <time>2021-12-23T13:01:24Z</time>
      </trkpt>
      <trkpt lat="45.24155" lon="6.10753">
        <ele>2925</ele>
        <time>2021-12-23T13:01:25Z</time>
      </trkpt>
      <trkpt lat="45.24155" lon="6.10753">
        <ele>2925</ele>
        <time>2021-12-23T13:01:26Z</time>
      </trkpt>
      <trkpt lat="45.24155" lon="6.10753">
        <ele>2925</ele>
        <time>2021-12-23T13:01:27Z</time>
      </trkpt>
      <trkpt lat="45.24155" lon="6.10753">
        <ele>2925</ele>
        <time>2021-12-23T13:01:28Z</time>
      </trkpt>
      <trkpt lat="45.24155" lon="6.10753">
        <ele>2925</ele>
        <time>2021-12-23T13:01:29Z</time>
      </trkpt>
      <trkpt lat="45.24155" lon="6.10753">
        <ele>2925</ele>
        <time>2021-12-23T13:01:30Z</time>
      </trkpt>
      <trkpt lat="45.24155" lon="6.10753">
        <ele>2925</ele>
        <time>2021-12-23T13:01:31Z</time>
      </trkpt>
      <trkpt lat="45.24155" lon="6.10753">
        <ele>2925</ele>
        <time>2021-12-23T13:01:32Z</time>
      </trkpt>
      <trkpt lat="45.24155" lon="6.10753">
        <ele>2925</ele>
        <time>2021-12-23T13:01:33Z</time>
      </trkpt>
      <trkpt lat="45.24155" lon="6.10753">
        <ele>2925</ele>
        <time>2021-12-23T13:01:34Z</time>
      </trkpt>
      <trkpt lat="45.24155" lon="6.10753">
        <ele>2925</ele>
        <time>2021-12-23T13:01:35Z</time>
      </trkpt>
      <trkpt lat="45.24155" lon="6.10753">
        <ele>2925</ele>
        <time>2021-12-23T13:01:37Z</time>
      </trkpt>
      <trkpt lat="45.24155" lon="6.10753">
        <ele>2925</ele>
        <time>2021-12-23T13:01:38Z</time>
      </trkpt>
      <trkpt lat="45.24155" lon="6.10753">
        <ele>2925</ele>
        <time>2021-12-23T13:01:39Z</time>
      </trkpt>
      <trkpt lat="45.24155" lon="6.10752">
        <ele>2925</ele>
        <time>2021-12-23T13:01:40Z</time>
      </trkpt>
      <trkpt lat="45.24155" lon="6.10752">
        <ele>2926</ele>
        <time>2021-12-23T13:01:41Z</time>
      </trkpt>
      <trkpt lat="45.24155" lon="6.10752">
        <ele>2926</ele>
        <time>2021-12-23T13:01:42Z</time>
      </trkpt>
      <trkpt lat="45.24155" lon="6.10752">
        <ele>2926</ele>
        <time>2021-12-23T13:01:43Z</time>
      </trkpt>
      <trkpt lat="45.24155" lon="6.10752">
        <ele>2926</ele>
        <time>2021-12-23T13:01:44Z</time>
      </trkpt>
      <trkpt lat="45.24155" lon="6.10752">
        <ele>2926</ele>
        <time>2021-12-23T13:01:45Z</time>
      </trkpt>
      <trkpt lat="45.24155" lon="6.10752">
        <ele>2926</ele>
        <time>2021-12-23T13:01:46Z</time>
      </trkpt>
      <trkpt lat="45.24155" lon="6.10752">
        <ele>2926</ele>
        <time>2021-12-23T13:01:47Z</time>
      </trkpt>
      <trkpt lat="45.24155" lon="6.10752">
        <ele>2926</ele>
        <time>2021-12-23T13:01:48Z</time>
      </trkpt>
      <trkpt lat="45.24155" lon="6.10752">
        <ele>2926</ele>
        <time>2021-12-23T13:01:49Z</time>
      </trkpt>
      <trkpt lat="45.24155" lon="6.10752">
        <ele>2926</ele>
        <time>2021-12-23T13:01:50Z</time>
      </trkpt>
      <trkpt lat="45.24154" lon="6.10752">
        <ele>2926</ele>
        <time>2021-12-23T13:01:51Z</time>
      </trkpt>
      <trkpt lat="45.24154" lon="6.10752">
        <ele>2926</ele>
        <time>2021-12-23T13:01:52Z</time>
      </trkpt>
      <trkpt lat="45.24154" lon="6.10752">
        <ele>2926</ele>
        <time>2021-12-23T13:01:53Z</time>
      </trkpt>
      <trkpt lat="45.24154" lon="6.10752">
        <ele>2926</ele>
        <time>2021-12-23T13:01:54Z</time>
      </trkpt>
      <trkpt lat="45.24154" lon="6.10752">
        <ele>2926</ele>
        <time>2021-12-23T13:01:56Z</time>
      </trkpt>
      <trkpt lat="45.24154" lon="6.10752">
        <ele>2926</ele>
        <time>2021-12-23T13:01:57Z</time>
      </trkpt>
      <trkpt lat="45.24154" lon="6.10752">
        <ele>2926</ele>
        <time>2021-12-23T13:01:58Z</time>
      </trkpt>
      <trkpt lat="45.24154" lon="6.10752">
        <ele>2926</ele>
        <time>2021-12-23T13:01:59Z</time>
      </trkpt>
      <trkpt lat="45.24154" lon="6.10752">
        <ele>2926</ele>
        <time>2021-12-23T13:02:00Z</time>
      </trkpt>
      <trkpt lat="45.24154" lon="6.10752">
        <ele>2926</ele>
        <time>2021-12-23T13:02:01Z</time>
      </trkpt>
      <trkpt lat="45.24154" lon="6.10752">
        <ele>2926</ele>
        <time>2021-12-23T13:02:02Z</time>
      </trkpt>
      <trkpt lat="45.24154" lon="6.10752">
        <ele>2926</ele>
        <time>2021-12-23T13:02:03Z</time>
      </trkpt>
      <trkpt lat="45.24154" lon="6.10752">
        <ele>2926</ele>
        <time>2021-12-23T13:02:04Z</time>
      </trkpt>
      <trkpt lat="45.24154" lon="6.10752">
        <ele>2926</ele>
        <time>2021-12-23T13:02:05Z</time>
      </trkpt>
      <trkpt lat="45.24154" lon="6.10752">
        <ele>2926</ele>
        <time>2021-12-23T13:02:06Z</time>
      </trkpt>
      <trkpt lat="45.24154" lon="6.10752">
        <ele>2925</ele>
        <time>2021-12-23T13:02:07Z</time>
      </trkpt>
      <trkpt lat="45.24154" lon="6.10752">
        <ele>2925</ele>
        <time>2021-12-23T13:02:08Z</time>
      </trkpt>
      <trkpt lat="45.24154" lon="6.10752">
        <ele>2925</ele>
        <time>2021-12-23T13:02:09Z</time>
      </trkpt>
      <trkpt lat="45.24154" lon="6.10752">
        <ele>2925</ele>
        <time>2021-12-23T13:02:10Z</time>
      </trkpt>
      <trkpt lat="45.24154" lon="6.10752">
        <ele>2925</ele>
        <time>2021-12-23T13:02:11Z</time>
      </trkpt>
      <trkpt lat="45.24154" lon="6.10752">
        <ele>2925</ele>
        <time>2021-12-23T13:02:12Z</time>
      </trkpt>
      <trkpt lat="45.24154" lon="6.10752">
        <ele>2925</ele>
        <time>2021-12-23T13:02:13Z</time>
      </trkpt>
      <trkpt lat="45.24154" lon="6.10752">
        <ele>2925</ele>
        <time>2021-12-23T13:02:15Z</time>
      </trkpt>
      <trkpt lat="45.24154" lon="6.10752">
        <ele>2925</ele>
        <time>2021-12-23T13:02:16Z</time>
      </trkpt>
      <trkpt lat="45.24154" lon="6.10752">
        <ele>2925</ele>
        <time>2021-12-23T13:02:17Z</time>
      </trkpt>
      <trkpt lat="45.24154" lon="6.10752">
        <ele>2925</ele>
        <time>2021-12-23T13:02:18Z</time>
      </trkpt>
      <trkpt lat="45.24154" lon="6.10752">
        <ele>2925</ele>
        <time>2021-12-23T13:02:19Z</time>
      </trkpt>
      <trkpt lat="45.24154" lon="6.10752">
        <ele>2925</ele>
        <time>2021-12-23T13:02:20Z</time>
      </trkpt>
      <trkpt lat="45.24154" lon="6.10752">
        <ele>2925</ele>
        <time>2021-12-23T13:02:21Z</time>
      </trkpt>
      <trkpt lat="45.24154" lon="6.10752">
        <ele>2925</ele>
        <time>2021-12-23T13:02:22Z</time>
      </trkpt>
      <trkpt lat="45.24154" lon="6.10752">
        <ele>2925</ele>
        <time>2021-12-23T13:02:23Z</time>
      </trkpt>
      <trkpt lat="45.24154" lon="6.10752">
        <ele>2925</ele>
        <time>2021-12-23T13:02:24Z</time>
      </trkpt>
      <trkpt lat="45.24154" lon="6.10752">
        <ele>2925</ele>
        <time>2021-12-23T13:02:25Z</time>
      </trkpt>
      <trkpt lat="45.24154" lon="6.10752">
        <ele>2925</ele>
        <time>2021-12-23T13:02:26Z</time>
      </trkpt>
      <trkpt lat="45.24154" lon="6.10752">
        <ele>2925</ele>
        <time>2021-12-23T13:02:27Z</time>
      </trkpt>
      <trkpt lat="45.24154" lon="6.10752">
        <ele>2925</ele>
        <time>2021-12-23T13:02:28Z</time>
      </trkpt>
      <trkpt lat="45.24154" lon="6.10752">
        <ele>2924</ele>
        <time>2021-12-23T13:02:29Z</time>
      </trkpt>
      <trkpt lat="45.24154" lon="6.10752">
        <ele>2924</ele>
        <time>2021-12-23T13:02:30Z</time>
      </trkpt>
      <trkpt lat="45.24154" lon="6.10752">
        <ele>2924</ele>
        <time>2021-12-23T13:02:31Z</time>
      </trkpt>
      <trkpt lat="45.24154" lon="6.10751">
        <ele>2924</ele>
        <time>2021-12-23T13:02:32Z</time>
      </trkpt>
      <trkpt lat="45.24154" lon="6.10751">
        <ele>2924</ele>
        <time>2021-12-23T13:02:34Z</time>
      </trkpt>
      <trkpt lat="45.24154" lon="6.10751">
        <ele>2924</ele>
        <time>2021-12-23T13:02:35Z</time>
      </trkpt>
      <trkpt lat="45.24154" lon="6.10751">
        <ele>2925</ele>
        <time>2021-12-23T13:02:36Z</time>
      </trkpt>
      <trkpt lat="45.24154" lon="6.10751">
        <ele>2925</ele>
        <time>2021-12-23T13:02:37Z</time>
      </trkpt>
      <trkpt lat="45.24154" lon="6.10751">
        <ele>2925</ele>
        <time>2021-12-23T13:02:38Z</time>
      </trkpt>
      <trkpt lat="45.24154" lon="6.10751">
        <ele>2925</ele>
        <time>2021-12-23T13:02:39Z</time>
      </trkpt>
      <trkpt lat="45.24154" lon="6.10751">
        <ele>2925</ele>
        <time>2021-12-23T13:02:40Z</time>
      </trkpt>
      <trkpt lat="45.24154" lon="6.10751">
        <ele>2925</ele>
        <time>2021-12-23T13:02:41Z</time>
      </trkpt>
      <trkpt lat="45.24154" lon="6.10751">
        <ele>2925</ele>
        <time>2021-12-23T13:02:42Z</time>
      </trkpt>
      <trkpt lat="45.24154" lon="6.10751">
        <ele>2925</ele>
        <time>2021-12-23T13:02:43Z</time>
      </trkpt>
      <trkpt lat="45.24154" lon="6.10751">
        <ele>2925</ele>
        <time>2021-12-23T13:02:44Z</time>
      </trkpt>
      <trkpt lat="45.24154" lon="6.10751">
        <ele>2925</ele>
        <time>2021-12-23T13:02:45Z</time>
      </trkpt>
      <trkpt lat="45.24154" lon="6.10751">
        <ele>2925</ele>
        <time>2021-12-23T13:02:46Z</time>
      </trkpt>
      <trkpt lat="45.24154" lon="6.10751">
        <ele>2925</ele>
        <time>2021-12-23T13:02:47Z</time>
      </trkpt>
      <trkpt lat="45.24154" lon="6.10751">
        <ele>2925</ele>
        <time>2021-12-23T13:02:48Z</time>
      </trkpt>
      <trkpt lat="45.24154" lon="6.10751">
        <ele>2925</ele>
        <time>2021-12-23T13:02:49Z</time>
      </trkpt>
      <trkpt lat="45.24154" lon="6.10751">
        <ele>2925</ele>
        <time>2021-12-23T13:02:50Z</time>
      </trkpt>
      <trkpt lat="45.24154" lon="6.10751">
        <ele>2925</ele>
        <time>2021-12-23T13:02:51Z</time>
      </trkpt>
      <trkpt lat="45.24153" lon="6.10751">
        <ele>2924</ele>
        <time>2021-12-23T13:02:53Z</time>
      </trkpt>
      <trkpt lat="45.24153" lon="6.10751">
        <ele>2924</ele>
        <time>2021-12-23T13:02:54Z</time>
      </trkpt>
      <trkpt lat="45.24153" lon="6.10751">
        <ele>2924</ele>
        <time>2021-12-23T13:02:55Z</time>
      </trkpt>
      <trkpt lat="45.24153" lon="6.10751">
        <ele>2924</ele>
        <time>2021-12-23T13:02:56Z</time>
      </trkpt>
      <trkpt lat="45.24153" lon="6.10751">
        <ele>2925</ele>
        <time>2021-12-23T13:02:57Z</time>
      </trkpt>
      <trkpt lat="45.24153" lon="6.10751">
        <ele>2925</ele>
        <time>2021-12-23T13:02:58Z</time>
      </trkpt>
      <trkpt lat="45.24153" lon="6.10751">
        <ele>2925</ele>
        <time>2021-12-23T13:02:59Z</time>
      </trkpt>
      <trkpt lat="45.24153" lon="6.10751">
        <ele>2925</ele>
        <time>2021-12-23T13:03:00Z</time>
      </trkpt>
      <trkpt lat="45.24153" lon="6.10751">
        <ele>2924</ele>
        <time>2021-12-23T13:03:01Z</time>
      </trkpt>
      <trkpt lat="45.24153" lon="6.10751">
        <ele>2925</ele>
        <time>2021-12-23T13:03:02Z</time>
      </trkpt>
      <trkpt lat="45.24153" lon="6.10751">
        <ele>2925</ele>
        <time>2021-12-23T13:03:03Z</time>
      </trkpt>
      <trkpt lat="45.24153" lon="6.10751">
        <ele>2925</ele>
        <time>2021-12-23T13:03:04Z</time>
      </trkpt>
      <trkpt lat="45.24153" lon="6.10751">
        <ele>2925</ele>
        <time>2021-12-23T13:03:05Z</time>
      </trkpt>
      <trkpt lat="45.24153" lon="6.10751">
        <ele>2925</ele>
        <time>2021-12-23T13:03:06Z</time>
      </trkpt>
      <trkpt lat="45.24153" lon="6.10751">
        <ele>2925</ele>
        <time>2021-12-23T13:03:07Z</time>
      </trkpt>
      <trkpt lat="45.24153" lon="6.10751">
        <ele>2925</ele>
        <time>2021-12-23T13:03:08Z</time>
      </trkpt>
      <trkpt lat="45.24153" lon="6.10751">
        <ele>2925</ele>
        <time>2021-12-23T13:03:09Z</time>
      </trkpt>
      <trkpt lat="45.24153" lon="6.10751">
        <ele>2925</ele>
        <time>2021-12-23T13:03:10Z</time>
      </trkpt>
      <trkpt lat="45.24153" lon="6.10751">
        <ele>2925</ele>
        <time>2021-12-23T13:03:12Z</time>
      </trkpt>
      <trkpt lat="45.24153" lon="6.10751">
        <ele>2925</ele>
        <time>2021-12-23T13:03:13Z</time>
      </trkpt>
      <trkpt lat="45.24153" lon="6.10751">
        <ele>2925</ele>
        <time>2021-12-23T13:03:14Z</time>
      </trkpt>
      <trkpt lat="45.24153" lon="6.10751">
        <ele>2925</ele>
        <time>2021-12-23T13:03:15Z</time>
      </trkpt>
      <trkpt lat="45.24153" lon="6.10751">
        <ele>2925</ele>
        <time>2021-12-23T13:03:16Z</time>
      </trkpt>
      <trkpt lat="45.24153" lon="6.10751">
        <ele>2925</ele>
        <time>2021-12-23T13:03:17Z</time>
      </trkpt>
      <trkpt lat="45.24153" lon="6.10751">
        <ele>2925</ele>
        <time>2021-12-23T13:03:18Z</time>
      </trkpt>
      <trkpt lat="45.24153" lon="6.10751">
        <ele>2925</ele>
        <time>2021-12-23T13:03:20Z</time>
      </trkpt>
      <trkpt lat="45.24153" lon="6.10751">
        <ele>2925</ele>
        <time>2021-12-23T13:03:21Z</time>
      </trkpt>
      <trkpt lat="45.24153" lon="6.10751">
        <ele>2925</ele>
        <time>2021-12-23T13:03:22Z</time>
      </trkpt>
      <trkpt lat="45.24153" lon="6.10751">
        <ele>2925</ele>
        <time>2021-12-23T13:03:23Z</time>
      </trkpt>
      <trkpt lat="45.24153" lon="6.10751">
        <ele>2925</ele>
        <time>2021-12-23T13:03:24Z</time>
      </trkpt>
      <trkpt lat="45.24153" lon="6.10751">
        <ele>2925</ele>
        <time>2021-12-23T13:03:25Z</time>
      </trkpt>
      <trkpt lat="45.24153" lon="6.10751">
        <ele>2925</ele>
        <time>2021-12-23T13:03:26Z</time>
      </trkpt>
      <trkpt lat="45.24153" lon="6.1075">
        <ele>2925</ele>
        <time>2021-12-23T13:03:27Z</time>
      </trkpt>
      <trkpt lat="45.24153" lon="6.1075">
        <ele>2925</ele>
        <time>2021-12-23T13:03:28Z</time>
      </trkpt>
      <trkpt lat="45.24153" lon="6.1075">
        <ele>2925</ele>
        <time>2021-12-23T13:03:29Z</time>
      </trkpt>
      <trkpt lat="45.24153" lon="6.1075">
        <ele>2925</ele>
        <time>2021-12-23T13:03:31Z</time>
      </trkpt>
      <trkpt lat="45.24153" lon="6.1075">
        <ele>2925</ele>
        <time>2021-12-23T13:03:32Z</time>
      </trkpt>
      <trkpt lat="45.24153" lon="6.1075">
        <ele>2925</ele>
        <time>2021-12-23T13:03:33Z</time>
      </trkpt>
      <trkpt lat="45.24153" lon="6.1075">
        <ele>2925</ele>
        <time>2021-12-23T13:03:34Z</time>
      </trkpt>
      <trkpt lat="45.24153" lon="6.1075">
        <ele>2925</ele>
        <time>2021-12-23T13:03:35Z</time>
      </trkpt>
      <trkpt lat="45.24153" lon="6.1075">
        <ele>2925</ele>
        <time>2021-12-23T13:03:36Z</time>
      </trkpt>
      <trkpt lat="45.24153" lon="6.1075">
        <ele>2926</ele>
        <time>2021-12-23T13:03:37Z</time>
      </trkpt>
      <trkpt lat="45.24153" lon="6.1075">
        <ele>2926</ele>
        <time>2021-12-23T13:03:38Z</time>
      </trkpt>
      <trkpt lat="45.24153" lon="6.1075">
        <ele>2926</ele>
        <time>2021-12-23T13:03:39Z</time>
      </trkpt>
      <trkpt lat="45.24153" lon="6.1075">
        <ele>2926</ele>
        <time>2021-12-23T13:03:40Z</time>
      </trkpt>
      <trkpt lat="45.24153" lon="6.1075">
        <ele>2926</ele>
        <time>2021-12-23T13:03:41Z</time>
      </trkpt>
      <trkpt lat="45.24153" lon="6.1075">
        <ele>2926</ele>
        <time>2021-12-23T13:03:42Z</time>
      </trkpt>
      <trkpt lat="45.24153" lon="6.1075">
        <ele>2925</ele>
        <time>2021-12-23T13:03:43Z</time>
      </trkpt>
      <trkpt lat="45.24153" lon="6.1075">
        <ele>2925</ele>
        <time>2021-12-23T13:03:44Z</time>
      </trkpt>
      <trkpt lat="45.24153" lon="6.1075">
        <ele>2925</ele>
        <time>2021-12-23T13:03:45Z</time>
      </trkpt>
      <trkpt lat="45.24153" lon="6.1075">
        <ele>2925</ele>
        <time>2021-12-23T13:03:46Z</time>
      </trkpt>
      <trkpt lat="45.24153" lon="6.1075">
        <ele>2925</ele>
        <time>2021-12-23T13:03:47Z</time>
      </trkpt>
      <trkpt lat="45.24153" lon="6.1075">
        <ele>2925</ele>
        <time>2021-12-23T13:03:48Z</time>
      </trkpt>
      <trkpt lat="45.24153" lon="6.1075">
        <ele>2925</ele>
        <time>2021-12-23T13:03:50Z</time>
      </trkpt>
      <trkpt lat="45.24153" lon="6.1075">
        <ele>2925</ele>
        <time>2021-12-23T13:03:51Z</time>
      </trkpt>
      <trkpt lat="45.24153" lon="6.1075">
        <ele>2925</ele>
        <time>2021-12-23T13:03:52Z</time>
      </trkpt>
      <trkpt lat="45.24153" lon="6.1075">
        <ele>2925</ele>
        <time>2021-12-23T13:03:53Z</time>
      </trkpt>
      <trkpt lat="45.24152" lon="6.1075">
        <ele>2925</ele>
        <time>2021-12-23T13:03:54Z</time>
      </trkpt>
      <trkpt lat="45.24152" lon="6.1075">
        <ele>2925</ele>
        <time>2021-12-23T13:03:55Z</time>
      </trkpt>
      <trkpt lat="45.24152" lon="6.1075">
        <ele>2925</ele>
        <time>2021-12-23T13:03:56Z</time>
      </trkpt>
      <trkpt lat="45.24152" lon="6.1075">
        <ele>2925</ele>
        <time>2021-12-23T13:03:57Z</time>
      </trkpt>
      <trkpt lat="45.24152" lon="6.1075">
        <ele>2925</ele>
        <time>2021-12-23T13:03:58Z</time>
      </trkpt>
      <trkpt lat="45.24152" lon="6.1075">
        <ele>2925</ele>
        <time>2021-12-23T13:03:59Z</time>
      </trkpt>
      <trkpt lat="45.24152" lon="6.1075">
        <ele>2925</ele>
        <time>2021-12-23T13:04:00Z</time>
      </trkpt>
      <trkpt lat="45.24152" lon="6.1075">
        <ele>2925</ele>
        <time>2021-12-23T13:04:01Z</time>
      </trkpt>
      <trkpt lat="45.24152" lon="6.1075">
        <ele>2925</ele>
        <time>2021-12-23T13:04:02Z</time>
      </trkpt>
      <trkpt lat="45.24152" lon="6.1075">
        <ele>2925</ele>
        <time>2021-12-23T13:04:03Z</time>
      </trkpt>
      <trkpt lat="45.24152" lon="6.1075">
        <ele>2925</ele>
        <time>2021-12-23T13:04:04Z</time>
      </trkpt>
      <trkpt lat="45.24152" lon="6.1075">
        <ele>2925</ele>
        <time>2021-12-23T13:04:05Z</time>
      </trkpt>
      <trkpt lat="45.24152" lon="6.1075">
        <ele>2925</ele>
        <time>2021-12-23T13:04:06Z</time>
      </trkpt>
      <trkpt lat="45.24152" lon="6.1075">
        <ele>2925</ele>
        <time>2021-12-23T13:04:07Z</time>
      </trkpt>
      <trkpt lat="45.24152" lon="6.1075">
        <ele>2925</ele>
        <time>2021-12-23T13:04:09Z</time>
      </trkpt>
      <trkpt lat="45.24152" lon="6.1075">
        <ele>2925</ele>
        <time>2021-12-23T13:04:10Z</time>
      </trkpt>
      <trkpt lat="45.24152" lon="6.1075">
        <ele>2925</ele>
        <time>2021-12-23T13:04:11Z</time>
      </trkpt>
      <trkpt lat="45.24152" lon="6.1075">
        <ele>2925</ele>
        <time>2021-12-23T13:04:12Z</time>
      </trkpt>
      <trkpt lat="45.24152" lon="6.1075">
        <ele>2925</ele>
        <time>2021-12-23T13:04:13Z</time>
      </trkpt>
      <trkpt lat="45.24152" lon="6.1075">
        <ele>2925</ele>
        <time>2021-12-23T13:04:14Z</time>
      </trkpt>
      <trkpt lat="45.24152" lon="6.1075">
        <ele>2925</ele>
        <time>2021-12-23T13:04:15Z</time>
      </trkpt>
      <trkpt lat="45.24152" lon="6.1075">
        <ele>2926</ele>
        <time>2021-12-23T13:04:16Z</time>
      </trkpt>
      <trkpt lat="45.24152" lon="6.1075">
        <ele>2926</ele>
        <time>2021-12-23T13:04:17Z</time>
      </trkpt>
      <trkpt lat="45.24152" lon="6.1075">
        <ele>2926</ele>
        <time>2021-12-23T13:04:18Z</time>
      </trkpt>
      <trkpt lat="45.24152" lon="6.1075">
        <ele>2926</ele>
        <time>2021-12-23T13:04:19Z</time>
      </trkpt>
      <trkpt lat="45.24152" lon="6.10749">
        <ele>2926</ele>
        <time>2021-12-23T13:04:20Z</time>
      </trkpt>
      <trkpt lat="45.24152" lon="6.10749">
        <ele>2926</ele>
        <time>2021-12-23T13:04:21Z</time>
      </trkpt>
      <trkpt lat="45.24152" lon="6.10749">
        <ele>2926</ele>
        <time>2021-12-23T13:04:22Z</time>
      </trkpt>
      <trkpt lat="45.24152" lon="6.10749">
        <ele>2926</ele>
        <time>2021-12-23T13:04:23Z</time>
      </trkpt>
      <trkpt lat="45.24152" lon="6.10749">
        <ele>2926</ele>
        <time>2021-12-23T13:04:24Z</time>
      </trkpt>
      <trkpt lat="45.24152" lon="6.10749">
        <ele>2926</ele>
        <time>2021-12-23T13:04:25Z</time>
      </trkpt>
      <trkpt lat="45.24152" lon="6.10749">
        <ele>2926</ele>
        <time>2021-12-23T13:04:26Z</time>
      </trkpt>
      <trkpt lat="45.24152" lon="6.10749">
        <ele>2926</ele>
        <time>2021-12-23T13:04:28Z</time>
      </trkpt>
      <trkpt lat="45.24152" lon="6.10749">
        <ele>2926</ele>
        <time>2021-12-23T13:04:29Z</time>
      </trkpt>
      <trkpt lat="45.24152" lon="6.10749">
        <ele>2926</ele>
        <time>2021-12-23T13:04:30Z</time>
      </trkpt>
      <trkpt lat="45.24152" lon="6.10749">
        <ele>2926</ele>
        <time>2021-12-23T13:04:31Z</time>
      </trkpt>
      <trkpt lat="45.24152" lon="6.10749">
        <ele>2926</ele>
        <time>2021-12-23T13:04:32Z</time>
      </trkpt>
      <trkpt lat="45.24152" lon="6.10749">
        <ele>2926</ele>
        <time>2021-12-23T13:04:33Z</time>
      </trkpt>
      <trkpt lat="45.24152" lon="6.10749">
        <ele>2926</ele>
        <time>2021-12-23T13:04:34Z</time>
      </trkpt>
      <trkpt lat="45.24152" lon="6.10749">
        <ele>2926</ele>
        <time>2021-12-23T13:04:35Z</time>
      </trkpt>
      <trkpt lat="45.24152" lon="6.10749">
        <ele>2926</ele>
        <time>2021-12-23T13:04:36Z</time>
      </trkpt>
      <trkpt lat="45.24152" lon="6.10749">
        <ele>2926</ele>
        <time>2021-12-23T13:04:37Z</time>
      </trkpt>
      <trkpt lat="45.24152" lon="6.10749">
        <ele>2925</ele>
        <time>2021-12-23T13:04:38Z</time>
      </trkpt>
      <trkpt lat="45.24152" lon="6.10749">
        <ele>2925</ele>
        <time>2021-12-23T13:04:39Z</time>
      </trkpt>
      <trkpt lat="45.24152" lon="6.10749">
        <ele>2925</ele>
        <time>2021-12-23T13:04:40Z</time>
      </trkpt>
      <trkpt lat="45.24152" lon="6.10749">
        <ele>2925</ele>
        <time>2021-12-23T13:04:41Z</time>
      </trkpt>
      <trkpt lat="45.24152" lon="6.10749">
        <ele>2925</ele>
        <time>2021-12-23T13:04:42Z</time>
      </trkpt>
      <trkpt lat="45.24152" lon="6.10749">
        <ele>2925</ele>
        <time>2021-12-23T13:04:43Z</time>
      </trkpt>
      <trkpt lat="45.24152" lon="6.10749">
        <ele>2925</ele>
        <time>2021-12-23T13:04:44Z</time>
      </trkpt>
      <trkpt lat="45.24152" lon="6.10749">
        <ele>2925</ele>
        <time>2021-12-23T13:04:45Z</time>
      </trkpt>
      <trkpt lat="45.24152" lon="6.10749">
        <ele>2925</ele>
        <time>2021-12-23T13:04:47Z</time>
      </trkpt>
      <trkpt lat="45.24152" lon="6.10749">
        <ele>2926</ele>
        <time>2021-12-23T13:04:48Z</time>
      </trkpt>
      <trkpt lat="45.24152" lon="6.10749">
        <ele>2926</ele>
        <time>2021-12-23T13:04:49Z</time>
      </trkpt>
      <trkpt lat="45.24152" lon="6.10749">
        <ele>2926</ele>
        <time>2021-12-23T13:04:50Z</time>
      </trkpt>
      <trkpt lat="45.24152" lon="6.10749">
        <ele>2926</ele>
        <time>2021-12-23T13:04:51Z</time>
      </trkpt>
      <trkpt lat="45.24152" lon="6.10749">
        <ele>2925</ele>
        <time>2021-12-23T13:04:52Z</time>
      </trkpt>
      <trkpt lat="45.24152" lon="6.10749">
        <ele>2925</ele>
        <time>2021-12-23T13:04:53Z</time>
      </trkpt>
      <trkpt lat="45.24152" lon="6.10749">
        <ele>2925</ele>
        <time>2021-12-23T13:04:54Z</time>
      </trkpt>
      <trkpt lat="45.24151" lon="6.10749">
        <ele>2925</ele>
        <time>2021-12-23T13:04:55Z</time>
      </trkpt>
      <trkpt lat="45.24151" lon="6.10749">
        <ele>2925</ele>
        <time>2021-12-23T13:04:56Z</time>
      </trkpt>
      <trkpt lat="45.24151" lon="6.10749">
        <ele>2926</ele>
        <time>2021-12-23T13:04:57Z</time>
      </trkpt>
      <trkpt lat="45.24151" lon="6.10749">
        <ele>2926</ele>
        <time>2021-12-23T13:04:58Z</time>
      </trkpt>
      <trkpt lat="45.24151" lon="6.10749">
        <ele>2926</ele>
        <time>2021-12-23T13:04:59Z</time>
      </trkpt>
      <trkpt lat="45.24151" lon="6.10749">
        <ele>2926</ele>
        <time>2021-12-23T13:05:00Z</time>
      </trkpt>
      <trkpt lat="45.24151" lon="6.10749">
        <ele>2926</ele>
        <time>2021-12-23T13:05:01Z</time>
      </trkpt>
      <trkpt lat="45.24151" lon="6.10749">
        <ele>2926</ele>
        <time>2021-12-23T13:05:02Z</time>
      </trkpt>
      <trkpt lat="45.24151" lon="6.10749">
        <ele>2926</ele>
        <time>2021-12-23T13:05:03Z</time>
      </trkpt>
      <trkpt lat="45.24151" lon="6.10749">
        <ele>2926</ele>
        <time>2021-12-23T13:05:04Z</time>
      </trkpt>
      <trkpt lat="45.24151" lon="6.10749">
        <ele>2926</ele>
        <time>2021-12-23T13:05:06Z</time>
      </trkpt>
      <trkpt lat="45.24151" lon="6.10749">
        <ele>2926</ele>
        <time>2021-12-23T13:05:07Z</time>
      </trkpt>
      <trkpt lat="45.24151" lon="6.10749">
        <ele>2926</ele>
        <time>2021-12-23T13:05:08Z</time>
      </trkpt>
      <trkpt lat="45.24151" lon="6.10749">
        <ele>2926</ele>
        <time>2021-12-23T13:05:09Z</time>
      </trkpt>
      <trkpt lat="45.24151" lon="6.10749">
        <ele>2927</ele>
        <time>2021-12-23T13:05:10Z</time>
      </trkpt>
      <trkpt lat="45.24151" lon="6.10749">
        <ele>2927</ele>
        <time>2021-12-23T13:05:11Z</time>
      </trkpt>
      <trkpt lat="45.24151" lon="6.10749">
        <ele>2927</ele>
        <time>2021-12-23T13:05:12Z</time>
      </trkpt>
      <trkpt lat="45.24151" lon="6.10749">
        <ele>2927</ele>
        <time>2021-12-23T13:05:13Z</time>
      </trkpt>
      <trkpt lat="45.24151" lon="6.10748">
        <ele>2927</ele>
        <time>2021-12-23T13:05:14Z</time>
      </trkpt>
      <trkpt lat="45.24151" lon="6.10748">
        <ele>2927</ele>
        <time>2021-12-23T13:05:15Z</time>
      </trkpt>
      <trkpt lat="45.24151" lon="6.10748">
        <ele>2927</ele>
        <time>2021-12-23T13:05:16Z</time>
      </trkpt>
      <trkpt lat="45.24151" lon="6.10748">
        <ele>2927</ele>
        <time>2021-12-23T13:05:17Z</time>
      </trkpt>
      <trkpt lat="45.24151" lon="6.10748">
        <ele>2927</ele>
        <time>2021-12-23T13:05:18Z</time>
      </trkpt>
      <trkpt lat="45.24151" lon="6.10748">
        <ele>2927</ele>
        <time>2021-12-23T13:05:19Z</time>
      </trkpt>
      <trkpt lat="45.24151" lon="6.10748">
        <ele>2927</ele>
        <time>2021-12-23T13:05:20Z</time>
      </trkpt>
      <trkpt lat="45.24151" lon="6.10748">
        <ele>2927</ele>
        <time>2021-12-23T13:05:21Z</time>
      </trkpt>
      <trkpt lat="45.24151" lon="6.10748">
        <ele>2927</ele>
        <time>2021-12-23T13:05:22Z</time>
      </trkpt>
      <trkpt lat="45.24151" lon="6.10748">
        <ele>2927</ele>
        <time>2021-12-23T13:05:23Z</time>
      </trkpt>
      <trkpt lat="45.24151" lon="6.10748">
        <ele>2926</ele>
        <time>2021-12-23T13:05:25Z</time>
      </trkpt>
      <trkpt lat="45.24151" lon="6.10748">
        <ele>2927</ele>
        <time>2021-12-23T13:05:26Z</time>
      </trkpt>
      <trkpt lat="45.24151" lon="6.10748">
        <ele>2927</ele>
        <time>2021-12-23T13:05:27Z</time>
      </trkpt>
      <trkpt lat="45.24151" lon="6.10748">
        <ele>2927</ele>
        <time>2021-12-23T13:05:28Z</time>
      </trkpt>
      <trkpt lat="45.24151" lon="6.10748">
        <ele>2927</ele>
        <time>2021-12-23T13:05:29Z</time>
      </trkpt>
      <trkpt lat="45.24151" lon="6.10748">
        <ele>2927</ele>
        <time>2021-12-23T13:05:30Z</time>
      </trkpt>
      <trkpt lat="45.24151" lon="6.10748">
        <ele>2927</ele>
        <time>2021-12-23T13:05:31Z</time>
      </trkpt>
      <trkpt lat="45.24151" lon="6.10748">
        <ele>2927</ele>
        <time>2021-12-23T13:05:32Z</time>
      </trkpt>
      <trkpt lat="45.24151" lon="6.10748">
        <ele>2927</ele>
        <time>2021-12-23T13:05:33Z</time>
      </trkpt>
      <trkpt lat="45.24151" lon="6.10748">
        <ele>2926</ele>
        <time>2021-12-23T13:05:34Z</time>
      </trkpt>
      <trkpt lat="45.24151" lon="6.10748">
        <ele>2926</ele>
        <time>2021-12-23T13:05:35Z</time>
      </trkpt>
      <trkpt lat="45.24151" lon="6.10748">
        <ele>2926</ele>
        <time>2021-12-23T13:05:36Z</time>
      </trkpt>
      <trkpt lat="45.24151" lon="6.10748">
        <ele>2926</ele>
        <time>2021-12-23T13:05:37Z</time>
      </trkpt>
      <trkpt lat="45.24151" lon="6.10748">
        <ele>2925</ele>
        <time>2021-12-23T13:05:38Z</time>
      </trkpt>
      <trkpt lat="45.24151" lon="6.10748">
        <ele>2925</ele>
        <time>2021-12-23T13:05:39Z</time>
      </trkpt>
      <trkpt lat="45.24151" lon="6.10748">
        <ele>2925</ele>
        <time>2021-12-23T13:05:40Z</time>
      </trkpt>
      <trkpt lat="45.24151" lon="6.10748">
        <ele>2925</ele>
        <time>2021-12-23T13:05:41Z</time>
      </trkpt>
      <trkpt lat="45.24151" lon="6.10748">
        <ele>2925</ele>
        <time>2021-12-23T13:05:42Z</time>
      </trkpt>
      <trkpt lat="45.24151" lon="6.10748">
        <ele>2925</ele>
        <time>2021-12-23T13:05:44Z</time>
      </trkpt>
      <trkpt lat="45.24151" lon="6.10748">
        <ele>2925</ele>
        <time>2021-12-23T13:05:45Z</time>
      </trkpt>
      <trkpt lat="45.24151" lon="6.10748">
        <ele>2925</ele>
        <time>2021-12-23T13:05:46Z</time>
      </trkpt>
      <trkpt lat="45.24151" lon="6.10748">
        <ele>2925</ele>
        <time>2021-12-23T13:05:47Z</time>
      </trkpt>
      <trkpt lat="45.24151" lon="6.10748">
        <ele>2925</ele>
        <time>2021-12-23T13:05:48Z</time>
      </trkpt>
      <trkpt lat="45.24151" lon="6.10748">
        <ele>2925</ele>
        <time>2021-12-23T13:05:49Z</time>
      </trkpt>
      <trkpt lat="45.24151" lon="6.10748">
        <ele>2925</ele>
        <time>2021-12-23T13:05:50Z</time>
      </trkpt>
      <trkpt lat="45.24151" lon="6.10748">
        <ele>2925</ele>
        <time>2021-12-23T13:05:51Z</time>
      </trkpt>
      <trkpt lat="45.24151" lon="6.10748">
        <ele>2925</ele>
        <time>2021-12-23T13:05:52Z</time>
      </trkpt>
      <trkpt lat="45.24151" lon="6.10748">
        <ele>2925</ele>
        <time>2021-12-23T13:05:53Z</time>
      </trkpt>
      <trkpt lat="45.24151" lon="6.10748">
        <ele>2925</ele>
        <time>2021-12-23T13:05:54Z</time>
      </trkpt>
      <trkpt lat="45.24151" lon="6.10748">
        <ele>2926</ele>
        <time>2021-12-23T13:05:55Z</time>
      </trkpt>
      <trkpt lat="45.2415" lon="6.10748">
        <ele>2926</ele>
        <time>2021-12-23T13:05:56Z</time>
      </trkpt>
      <trkpt lat="45.2415" lon="6.10748">
        <ele>2925</ele>
        <time>2021-12-23T13:05:57Z</time>
      </trkpt>
      <trkpt lat="45.2415" lon="6.10748">
        <ele>2925</ele>
        <time>2021-12-23T13:05:58Z</time>
      </trkpt>
      <trkpt lat="45.2415" lon="6.10748">
        <ele>2925</ele>
        <time>2021-12-23T13:05:59Z</time>
      </trkpt>
      <trkpt lat="45.2415" lon="6.10748">
        <ele>2925</ele>
        <time>2021-12-23T13:06:00Z</time>
      </trkpt>
      <trkpt lat="45.2415" lon="6.10748">
        <ele>2925</ele>
        <time>2021-12-23T13:06:01Z</time>
      </trkpt>
      <trkpt lat="45.2415" lon="6.10748">
        <ele>2925</ele>
        <time>2021-12-23T13:06:03Z</time>
      </trkpt>
      <trkpt lat="45.2415" lon="6.10748">
        <ele>2925</ele>
        <time>2021-12-23T13:06:04Z</time>
      </trkpt>
      <trkpt lat="45.2415" lon="6.10748">
        <ele>2925</ele>
        <time>2021-12-23T13:06:05Z</time>
      </trkpt>
      <trkpt lat="45.2415" lon="6.10748">
        <ele>2925</ele>
        <time>2021-12-23T13:06:06Z</time>
      </trkpt>
      <trkpt lat="45.2415" lon="6.10747">
        <ele>2926</ele>
        <time>2021-12-23T13:06:07Z</time>
      </trkpt>
      <trkpt lat="45.2415" lon="6.10747">
        <ele>2926</ele>
        <time>2021-12-23T13:06:08Z</time>
      </trkpt>
      <trkpt lat="45.2415" lon="6.10747">
        <ele>2926</ele>
        <time>2021-12-23T13:06:09Z</time>
      </trkpt>
      <trkpt lat="45.2415" lon="6.10747">
        <ele>2926</ele>
        <time>2021-12-23T13:06:10Z</time>
      </trkpt>
      <trkpt lat="45.2415" lon="6.10747">
        <ele>2926</ele>
        <time>2021-12-23T13:06:11Z</time>
      </trkpt>
      <trkpt lat="45.2415" lon="6.10747">
        <ele>2926</ele>
        <time>2021-12-23T13:06:12Z</time>
      </trkpt>
      <trkpt lat="45.2415" lon="6.10747">
        <ele>2926</ele>
        <time>2021-12-23T13:06:13Z</time>
      </trkpt>
      <trkpt lat="45.2415" lon="6.10747">
        <ele>2926</ele>
        <time>2021-12-23T13:06:14Z</time>
      </trkpt>
      <trkpt lat="45.2415" lon="6.10747">
        <ele>2927</ele>
        <time>2021-12-23T13:06:15Z</time>
      </trkpt>
      <trkpt lat="45.2415" lon="6.10747">
        <ele>2927</ele>
        <time>2021-12-23T13:06:16Z</time>
      </trkpt>
      <trkpt lat="45.2415" lon="6.10747">
        <ele>2927</ele>
        <time>2021-12-23T13:06:17Z</time>
      </trkpt>
      <trkpt lat="45.2415" lon="6.10747">
        <ele>2926</ele>
        <time>2021-12-23T13:06:18Z</time>
      </trkpt>
      <trkpt lat="45.2415" lon="6.10747">
        <ele>2926</ele>
        <time>2021-12-23T13:06:19Z</time>
      </trkpt>
      <trkpt lat="45.2415" lon="6.10747">
        <ele>2927</ele>
        <time>2021-12-23T13:06:20Z</time>
      </trkpt>
      <trkpt lat="45.2415" lon="6.10747">
        <ele>2926</ele>
        <time>2021-12-23T13:06:22Z</time>
      </trkpt>
      <trkpt lat="45.2415" lon="6.10747">
        <ele>2926</ele>
        <time>2021-12-23T13:06:23Z</time>
      </trkpt>
      <trkpt lat="45.2415" lon="6.10747">
        <ele>2926</ele>
        <time>2021-12-23T13:06:24Z</time>
      </trkpt>
      <trkpt lat="45.2415" lon="6.10747">
        <ele>2926</ele>
        <time>2021-12-23T13:06:25Z</time>
      </trkpt>
      <trkpt lat="45.2415" lon="6.10747">
        <ele>2926</ele>
        <time>2021-12-23T13:06:26Z</time>
      </trkpt>
      <trkpt lat="45.2415" lon="6.10747">
        <ele>2926</ele>
        <time>2021-12-23T13:06:27Z</time>
      </trkpt>
      <trkpt lat="45.2415" lon="6.10747">
        <ele>2926</ele>
        <time>2021-12-23T13:06:28Z</time>
      </trkpt>
      <trkpt lat="45.2415" lon="6.10747">
        <ele>2926</ele>
        <time>2021-12-23T13:06:29Z</time>
      </trkpt>
      <trkpt lat="45.2415" lon="6.10747">
        <ele>2926</ele>
        <time>2021-12-23T13:06:30Z</time>
      </trkpt>
      <trkpt lat="45.2415" lon="6.10747">
        <ele>2926</ele>
        <time>2021-12-23T13:06:31Z</time>
      </trkpt>
      <trkpt lat="45.2415" lon="6.10747">
        <ele>2927</ele>
        <time>2021-12-23T13:06:32Z</time>
      </trkpt>
      <trkpt lat="45.2415" lon="6.10747">
        <ele>2927</ele>
        <time>2021-12-23T13:06:33Z</time>
      </trkpt>
      <trkpt lat="45.2415" lon="6.10747">
        <ele>2927</ele>
        <time>2021-12-23T13:06:34Z</time>
      </trkpt>
      <trkpt lat="45.2415" lon="6.10747">
        <ele>2927</ele>
        <time>2021-12-23T13:06:35Z</time>
      </trkpt>
      <trkpt lat="45.2415" lon="6.10747">
        <ele>2927</ele>
        <time>2021-12-23T13:06:36Z</time>
      </trkpt>
      <trkpt lat="45.2415" lon="6.10747">
        <ele>2927</ele>
        <time>2021-12-23T13:06:37Z</time>
      </trkpt>
      <trkpt lat="45.2415" lon="6.10747">
        <ele>2926</ele>
        <time>2021-12-23T13:06:38Z</time>
      </trkpt>
      <trkpt lat="45.2415" lon="6.10747">
        <ele>2926</ele>
        <time>2021-12-23T13:06:39Z</time>
      </trkpt>
      <trkpt lat="45.2415" lon="6.10747">
        <ele>2926</ele>
        <time>2021-12-23T13:06:41Z</time>
      </trkpt>
      <trkpt lat="45.2415" lon="6.10747">
        <ele>2926</ele>
        <time>2021-12-23T13:06:42Z</time>
      </trkpt>
      <trkpt lat="45.2415" lon="6.10747">
        <ele>2926</ele>
        <time>2021-12-23T13:06:43Z</time>
      </trkpt>
      <trkpt lat="45.2415" lon="6.10747">
        <ele>2926</ele>
        <time>2021-12-23T13:06:44Z</time>
      </trkpt>
      <trkpt lat="45.2415" lon="6.10747">
        <ele>2926</ele>
        <time>2021-12-23T13:06:45Z</time>
      </trkpt>
      <trkpt lat="45.2415" lon="6.10747">
        <ele>2926</ele>
        <time>2021-12-23T13:06:46Z</time>
      </trkpt>
      <trkpt lat="45.2415" lon="6.10747">
        <ele>2926</ele>
        <time>2021-12-23T13:06:47Z</time>
      </trkpt>
      <trkpt lat="45.2415" lon="6.10747">
        <ele>2926</ele>
        <time>2021-12-23T13:06:48Z</time>
      </trkpt>
      <trkpt lat="45.2415" lon="6.10747">
        <ele>2926</ele>
        <time>2021-12-23T13:06:49Z</time>
      </trkpt>
      <trkpt lat="45.2415" lon="6.10747">
        <ele>2926</ele>
        <time>2021-12-23T13:06:50Z</time>
      </trkpt>
      <trkpt lat="45.2415" lon="6.10747">
        <ele>2926</ele>
        <time>2021-12-23T13:06:51Z</time>
      </trkpt>
      <trkpt lat="45.2415" lon="6.10747">
        <ele>2926</ele>
        <time>2021-12-23T13:06:52Z</time>
      </trkpt>
      <trkpt lat="45.2415" lon="6.10747">
        <ele>2926</ele>
        <time>2021-12-23T13:06:53Z</time>
      </trkpt>
      <trkpt lat="45.2415" lon="6.10747">
        <ele>2926</ele>
        <time>2021-12-23T13:06:54Z</time>
      </trkpt>
      <trkpt lat="45.2415" lon="6.10747">
        <ele>2926</ele>
        <time>2021-12-23T13:06:55Z</time>
      </trkpt>
      <trkpt lat="45.24149" lon="6.10747">
        <ele>2926</ele>
        <time>2021-12-23T13:06:56Z</time>
      </trkpt>
      <trkpt lat="45.24149" lon="6.10747">
        <ele>2926</ele>
        <time>2021-12-23T13:06:57Z</time>
      </trkpt>
      <trkpt lat="45.24149" lon="6.10747">
        <ele>2926</ele>
        <time>2021-12-23T13:06:58Z</time>
      </trkpt>
      <trkpt lat="45.24149" lon="6.10747">
        <ele>2926</ele>
        <time>2021-12-23T13:07:00Z</time>
      </trkpt>
      <trkpt lat="45.24149" lon="6.10746">
        <ele>2926</ele>
        <time>2021-12-23T13:07:01Z</time>
      </trkpt>
      <trkpt lat="45.24149" lon="6.10746">
        <ele>2926</ele>
        <time>2021-12-23T13:07:02Z</time>
      </trkpt>
      <trkpt lat="45.24149" lon="6.10746">
        <ele>2926</ele>
        <time>2021-12-23T13:07:03Z</time>
      </trkpt>
      <trkpt lat="45.24149" lon="6.10746">
        <ele>2926</ele>
        <time>2021-12-23T13:07:04Z</time>
      </trkpt>
      <trkpt lat="45.24149" lon="6.10746">
        <ele>2926</ele>
        <time>2021-12-23T13:07:05Z</time>
      </trkpt>
      <trkpt lat="45.24149" lon="6.10746">
        <ele>2926</ele>
        <time>2021-12-23T13:07:06Z</time>
      </trkpt>
      <trkpt lat="45.24149" lon="6.10746">
        <ele>2926</ele>
        <time>2021-12-23T13:07:07Z</time>
      </trkpt>
      <trkpt lat="45.24149" lon="6.10746">
        <ele>2927</ele>
        <time>2021-12-23T13:07:08Z</time>
      </trkpt>
      <trkpt lat="45.24149" lon="6.10746">
        <ele>2927</ele>
        <time>2021-12-23T13:07:09Z</time>
      </trkpt>
      <trkpt lat="45.24149" lon="6.10746">
        <ele>2926</ele>
        <time>2021-12-23T13:07:10Z</time>
      </trkpt>
      <trkpt lat="45.24149" lon="6.10746">
        <ele>2926</ele>
        <time>2021-12-23T13:07:11Z</time>
      </trkpt>
      <trkpt lat="45.24149" lon="6.10746">
        <ele>2926</ele>
        <time>2021-12-23T13:07:12Z</time>
      </trkpt>
      <trkpt lat="45.24149" lon="6.10746">
        <ele>2926</ele>
        <time>2021-12-23T13:07:13Z</time>
      </trkpt>
      <trkpt lat="45.24149" lon="6.10746">
        <ele>2926</ele>
        <time>2021-12-23T13:07:14Z</time>
      </trkpt>
      <trkpt lat="45.24149" lon="6.10746">
        <ele>2925</ele>
        <time>2021-12-23T13:07:15Z</time>
      </trkpt>
      <trkpt lat="45.24149" lon="6.10746">
        <ele>2925</ele>
        <time>2021-12-23T13:07:16Z</time>
      </trkpt>
      <trkpt lat="45.24149" lon="6.10746">
        <ele>2925</ele>
        <time>2021-12-23T13:07:17Z</time>
      </trkpt>
      <trkpt lat="45.24149" lon="6.10746">
        <ele>2925</ele>
        <time>2021-12-23T13:07:19Z</time>
      </trkpt>
      <trkpt lat="45.24149" lon="6.10746">
        <ele>2925</ele>
        <time>2021-12-23T13:07:20Z</time>
      </trkpt>
      <trkpt lat="45.24149" lon="6.10746">
        <ele>2925</ele>
        <time>2021-12-23T13:07:21Z</time>
      </trkpt>
      <trkpt lat="45.24149" lon="6.10746">
        <ele>2925</ele>
        <time>2021-12-23T13:07:22Z</time>
      </trkpt>
      <trkpt lat="45.24149" lon="6.10746">
        <ele>2926</ele>
        <time>2021-12-23T13:07:23Z</time>
      </trkpt>
      <trkpt lat="45.24149" lon="6.10746">
        <ele>2926</ele>
        <time>2021-12-23T13:07:24Z</time>
      </trkpt>
      <trkpt lat="45.24149" lon="6.10746">
        <ele>2926</ele>
        <time>2021-12-23T13:07:25Z</time>
      </trkpt>
      <trkpt lat="45.24149" lon="6.10746">
        <ele>2926</ele>
        <time>2021-12-23T13:07:26Z</time>
      </trkpt>
      <trkpt lat="45.24149" lon="6.10746">
        <ele>2926</ele>
        <time>2021-12-23T13:07:27Z</time>
      </trkpt>
      <trkpt lat="45.24149" lon="6.10746">
        <ele>2926</ele>
        <time>2021-12-23T13:07:28Z</time>
      </trkpt>
      <trkpt lat="45.24149" lon="6.10746">
        <ele>2926</ele>
        <time>2021-12-23T13:07:29Z</time>
      </trkpt>
      <trkpt lat="45.24149" lon="6.10746">
        <ele>2926</ele>
        <time>2021-12-23T13:07:30Z</time>
      </trkpt>
      <trkpt lat="45.24149" lon="6.10746">
        <ele>2926</ele>
        <time>2021-12-23T13:07:31Z</time>
      </trkpt>
      <trkpt lat="45.24149" lon="6.10746">
        <ele>2926</ele>
        <time>2021-12-23T13:07:32Z</time>
      </trkpt>
      <trkpt lat="45.24149" lon="6.10746">
        <ele>2926</ele>
        <time>2021-12-23T13:07:33Z</time>
      </trkpt>
      <trkpt lat="45.24149" lon="6.10746">
        <ele>2926</ele>
        <time>2021-12-23T13:07:34Z</time>
      </trkpt>
      <trkpt lat="45.24149" lon="6.10746">
        <ele>2926</ele>
        <time>2021-12-23T13:07:35Z</time>
      </trkpt>
      <trkpt lat="45.24149" lon="6.10746">
        <ele>2926</ele>
        <time>2021-12-23T13:07:36Z</time>
      </trkpt>
      <trkpt lat="45.24149" lon="6.10746">
        <ele>2926</ele>
        <time>2021-12-23T13:07:38Z</time>
      </trkpt>
      <trkpt lat="45.24149" lon="6.10746">
        <ele>2926</ele>
        <time>2021-12-23T13:07:39Z</time>
      </trkpt>
      <trkpt lat="45.24149" lon="6.10746">
        <ele>2926</ele>
        <time>2021-12-23T13:07:40Z</time>
      </trkpt>
      <trkpt lat="45.24149" lon="6.10746">
        <ele>2925</ele>
        <time>2021-12-23T13:07:41Z</time>
      </trkpt>
      <trkpt lat="45.24149" lon="6.10746">
        <ele>2925</ele>
        <time>2021-12-23T13:07:42Z</time>
      </trkpt>
      <trkpt lat="45.24149" lon="6.10746">
        <ele>2925</ele>
        <time>2021-12-23T13:07:43Z</time>
      </trkpt>
      <trkpt lat="45.24149" lon="6.10746">
        <ele>2925</ele>
        <time>2021-12-23T13:07:44Z</time>
      </trkpt>
      <trkpt lat="45.24149" lon="6.10746">
        <ele>2925</ele>
        <time>2021-12-23T13:07:45Z</time>
      </trkpt>
      <trkpt lat="45.24149" lon="6.10746">
        <ele>2925</ele>
        <time>2021-12-23T13:07:46Z</time>
      </trkpt>
      <trkpt lat="45.24149" lon="6.10746">
        <ele>2925</ele>
        <time>2021-12-23T13:07:47Z</time>
      </trkpt>
      <trkpt lat="45.24149" lon="6.10746">
        <ele>2925</ele>
        <time>2021-12-23T13:07:48Z</time>
      </trkpt>
      <trkpt lat="45.24149" lon="6.10746">
        <ele>2925</ele>
        <time>2021-12-23T13:07:49Z</time>
      </trkpt>
      <trkpt lat="45.24149" lon="6.10746">
        <ele>2925</ele>
        <time>2021-12-23T13:07:50Z</time>
      </trkpt>
      <trkpt lat="45.24149" lon="6.10746">
        <ele>2924</ele>
        <time>2021-12-23T13:07:51Z</time>
      </trkpt>
      <trkpt lat="45.24149" lon="6.10746">
        <ele>2924</ele>
        <time>2021-12-23T13:07:52Z</time>
      </trkpt>
      <trkpt lat="45.24149" lon="6.10746">
        <ele>2924</ele>
        <time>2021-12-23T13:07:53Z</time>
      </trkpt>
      <trkpt lat="45.24149" lon="6.10745">
        <ele>2924</ele>
        <time>2021-12-23T13:07:54Z</time>
      </trkpt>
      <trkpt lat="45.24149" lon="6.10745">
        <ele>2924</ele>
        <time>2021-12-23T13:07:55Z</time>
      </trkpt>
      <trkpt lat="45.24149" lon="6.10745">
        <ele>2924</ele>
        <time>2021-12-23T13:07:57Z</time>
      </trkpt>
      <trkpt lat="45.24148" lon="6.10745">
        <ele>2924</ele>
        <time>2021-12-23T13:07:58Z</time>
      </trkpt>
      <trkpt lat="45.24149" lon="6.10745">
        <ele>2924</ele>
        <time>2021-12-23T13:07:59Z</time>
      </trkpt>
      <trkpt lat="45.24149" lon="6.10745">
        <ele>2924</ele>
        <time>2021-12-23T13:08:00Z</time>
      </trkpt>
      <trkpt lat="45.24149" lon="6.10745">
        <ele>2924</ele>
        <time>2021-12-23T13:08:01Z</time>
      </trkpt>
      <trkpt lat="45.24149" lon="6.10745">
        <ele>2924</ele>
        <time>2021-12-23T13:08:02Z</time>
      </trkpt>
      <trkpt lat="45.24149" lon="6.10745">
        <ele>2925</ele>
        <time>2021-12-23T13:08:03Z</time>
      </trkpt>
      <trkpt lat="45.24149" lon="6.10745">
        <ele>2925</ele>
        <time>2021-12-23T13:08:04Z</time>
      </trkpt>
      <trkpt lat="45.24149" lon="6.10746">
        <ele>2925</ele>
        <time>2021-12-23T13:08:05Z</time>
      </trkpt>
      <trkpt lat="45.24149" lon="6.10746">
        <ele>2925</ele>
        <time>2021-12-23T13:08:06Z</time>
      </trkpt>
      <trkpt lat="45.24149" lon="6.10746">
        <ele>2925</ele>
        <time>2021-12-23T13:08:07Z</time>
      </trkpt>
      <trkpt lat="45.24149" lon="6.10746">
        <ele>2925</ele>
        <time>2021-12-23T13:08:08Z</time>
      </trkpt>
      <trkpt lat="45.24149" lon="6.10746">
        <ele>2925</ele>
        <time>2021-12-23T13:08:09Z</time>
      </trkpt>
      <trkpt lat="45.24149" lon="6.10746">
        <ele>2925</ele>
        <time>2021-12-23T13:08:10Z</time>
      </trkpt>
      <trkpt lat="45.24149" lon="6.10746">
        <ele>2925</ele>
        <time>2021-12-23T13:08:11Z</time>
      </trkpt>
      <trkpt lat="45.24149" lon="6.10746">
        <ele>2925</ele>
        <time>2021-12-23T13:08:12Z</time>
      </trkpt>
      <trkpt lat="45.24149" lon="6.10746">
        <ele>2925</ele>
        <time>2021-12-23T13:08:13Z</time>
      </trkpt>
      <trkpt lat="45.24149" lon="6.10746">
        <ele>2925</ele>
        <time>2021-12-23T13:08:14Z</time>
      </trkpt>
      <trkpt lat="45.24149" lon="6.10746">
        <ele>2925</ele>
        <time>2021-12-23T13:08:16Z</time>
      </trkpt>
      <trkpt lat="45.24149" lon="6.10746">
        <ele>2925</ele>
        <time>2021-12-23T13:08:17Z</time>
      </trkpt>
      <trkpt lat="45.24149" lon="6.10746">
        <ele>2925</ele>
        <time>2021-12-23T13:08:18Z</time>
      </trkpt>
      <trkpt lat="45.24149" lon="6.10746">
        <ele>2925</ele>
        <time>2021-12-23T13:08:19Z</time>
      </trkpt>
      <trkpt lat="45.24149" lon="6.10746">
        <ele>2926</ele>
        <time>2021-12-23T13:08:20Z</time>
      </trkpt>
      <trkpt lat="45.24149" lon="6.10746">
        <ele>2926</ele>
        <time>2021-12-23T13:08:21Z</time>
      </trkpt>
      <trkpt lat="45.24149" lon="6.10746">
        <ele>2926</ele>
        <time>2021-12-23T13:08:22Z</time>
      </trkpt>
      <trkpt lat="45.24149" lon="6.10746">
        <ele>2926</ele>
        <time>2021-12-23T13:08:23Z</time>
      </trkpt>
      <trkpt lat="45.24149" lon="6.10746">
        <ele>2926</ele>
        <time>2021-12-23T13:08:24Z</time>
      </trkpt>
      <trkpt lat="45.24149" lon="6.10746">
        <ele>2926</ele>
        <time>2021-12-23T13:08:25Z</time>
      </trkpt>
      <trkpt lat="45.24149" lon="6.10746">
        <ele>2926</ele>
        <time>2021-12-23T13:08:26Z</time>
      </trkpt>
      <trkpt lat="45.2415" lon="6.10746">
        <ele>2925</ele>
        <time>2021-12-23T13:08:27Z</time>
      </trkpt>
      <trkpt lat="45.2415" lon="6.10746">
        <ele>2925</ele>
        <time>2021-12-23T13:08:28Z</time>
      </trkpt>
      <trkpt lat="45.2415" lon="6.10746">
        <ele>2925</ele>
        <time>2021-12-23T13:08:29Z</time>
      </trkpt>
      <trkpt lat="45.2415" lon="6.10746">
        <ele>2925</ele>
        <time>2021-12-23T13:08:30Z</time>
      </trkpt>
      <trkpt lat="45.2415" lon="6.10746">
        <ele>2925</ele>
        <time>2021-12-23T13:08:31Z</time>
      </trkpt>
      <trkpt lat="45.2415" lon="6.10746">
        <ele>2925</ele>
        <time>2021-12-23T13:08:32Z</time>
      </trkpt>
      <trkpt lat="45.2415" lon="6.10746">
        <ele>2925</ele>
        <time>2021-12-23T13:08:33Z</time>
      </trkpt>
      <trkpt lat="45.2415" lon="6.10746">
        <ele>2925</ele>
        <time>2021-12-23T13:08:35Z</time>
      </trkpt>
      <trkpt lat="45.2415" lon="6.10746">
        <ele>2925</ele>
        <time>2021-12-23T13:08:36Z</time>
      </trkpt>
      <trkpt lat="45.2415" lon="6.10746">
        <ele>2925</ele>
        <time>2021-12-23T13:08:37Z</time>
      </trkpt>
      <trkpt lat="45.2415" lon="6.10746">
        <ele>2925</ele>
        <time>2021-12-23T13:08:38Z</time>
      </trkpt>
      <trkpt lat="45.2415" lon="6.10746">
        <ele>2925</ele>
        <time>2021-12-23T13:08:39Z</time>
      </trkpt>
      <trkpt lat="45.2415" lon="6.10746">
        <ele>2925</ele>
        <time>2021-12-23T13:08:40Z</time>
      </trkpt>
      <trkpt lat="45.2415" lon="6.10746">
        <ele>2925</ele>
        <time>2021-12-23T13:08:41Z</time>
      </trkpt>
      <trkpt lat="45.2415" lon="6.10746">
        <ele>2925</ele>
        <time>2021-12-23T13:08:42Z</time>
      </trkpt>
      <trkpt lat="45.2415" lon="6.10746">
        <ele>2925</ele>
        <time>2021-12-23T13:08:43Z</time>
      </trkpt>
      <trkpt lat="45.2415" lon="6.10746">
        <ele>2925</ele>
        <time>2021-12-23T13:08:44Z</time>
      </trkpt>
      <trkpt lat="45.2415" lon="6.10746">
        <ele>2925</ele>
        <time>2021-12-23T13:08:45Z</time>
      </trkpt>
      <trkpt lat="45.2415" lon="6.10746">
        <ele>2925</ele>
        <time>2021-12-23T13:08:46Z</time>
      </trkpt>
      <trkpt lat="45.2415" lon="6.10746">
        <ele>2925</ele>
        <time>2021-12-23T13:08:47Z</time>
      </trkpt>
      <trkpt lat="45.2415" lon="6.10746">
        <ele>2925</ele>
        <time>2021-12-23T13:08:48Z</time>
      </trkpt>
      <trkpt lat="45.2415" lon="6.10746">
        <ele>2925</ele>
        <time>2021-12-23T13:08:49Z</time>
      </trkpt>
      <trkpt lat="45.2415" lon="6.10746">
        <ele>2925</ele>
        <time>2021-12-23T13:08:50Z</time>
      </trkpt>
      <trkpt lat="45.2415" lon="6.10746">
        <ele>2925</ele>
        <time>2021-12-23T13:08:51Z</time>
      </trkpt>
      <trkpt lat="45.2415" lon="6.10746">
        <ele>2925</ele>
        <time>2021-12-23T13:08:52Z</time>
      </trkpt>
      <trkpt lat="45.2415" lon="6.10746">
        <ele>2925</ele>
        <time>2021-12-23T13:08:54Z</time>
      </trkpt>
      <trkpt lat="45.2415" lon="6.10746">
        <ele>2925</ele>
        <time>2021-12-23T13:08:55Z</time>
      </trkpt>
      <trkpt lat="45.2415" lon="6.10746">
        <ele>2925</ele>
        <time>2021-12-23T13:08:56Z</time>
      </trkpt>
      <trkpt lat="45.24151" lon="6.10746">
        <ele>2924</ele>
        <time>2021-12-23T13:08:57Z</time>
      </trkpt>
      <trkpt lat="45.24151" lon="6.10746">
        <ele>2924</ele>
        <time>2021-12-23T13:08:58Z</time>
      </trkpt>
      <trkpt lat="45.24151" lon="6.10746">
        <ele>2924</ele>
        <time>2021-12-23T13:08:59Z</time>
      </trkpt>
      <trkpt lat="45.24151" lon="6.10746">
        <ele>2924</ele>
        <time>2021-12-23T13:09:00Z</time>
      </trkpt>
      <trkpt lat="45.24151" lon="6.10746">
        <ele>2924</ele>
        <time>2021-12-23T13:09:01Z</time>
      </trkpt>
      <trkpt lat="45.24151" lon="6.10746">
        <ele>2924</ele>
        <time>2021-12-23T13:09:02Z</time>
      </trkpt>
      <trkpt lat="45.24151" lon="6.10746">
        <ele>2924</ele>
        <time>2021-12-23T13:09:03Z</time>
      </trkpt>
      <trkpt lat="45.24151" lon="6.10746">
        <ele>2924</ele>
        <time>2021-12-23T13:09:04Z</time>
      </trkpt>
      <trkpt lat="45.24151" lon="6.10746">
        <ele>2924</ele>
        <time>2021-12-23T13:09:05Z</time>
      </trkpt>
      <trkpt lat="45.24151" lon="6.10746">
        <ele>2925</ele>
        <time>2021-12-23T13:09:06Z</time>
      </trkpt>
      <trkpt lat="45.24151" lon="6.10746">
        <ele>2925</ele>
        <time>2021-12-23T13:09:07Z</time>
      </trkpt>
      <trkpt lat="45.24151" lon="6.10746">
        <ele>2925</ele>
        <time>2021-12-23T13:09:08Z</time>
      </trkpt>
      <trkpt lat="45.24151" lon="6.10746">
        <ele>2925</ele>
        <time>2021-12-23T13:09:09Z</time>
      </trkpt>
      <trkpt lat="45.24151" lon="6.10746">
        <ele>2925</ele>
        <time>2021-12-23T13:09:10Z</time>
      </trkpt>
      <trkpt lat="45.24151" lon="6.10746">
        <ele>2925</ele>
        <time>2021-12-23T13:09:11Z</time>
      </trkpt>
      <trkpt lat="45.24151" lon="6.10746">
        <ele>2925</ele>
        <time>2021-12-23T13:09:13Z</time>
      </trkpt>
      <trkpt lat="45.24151" lon="6.10746">
        <ele>2925</ele>
        <time>2021-12-23T13:09:14Z</time>
      </trkpt>
      <trkpt lat="45.24151" lon="6.10746">
        <ele>2925</ele>
        <time>2021-12-23T13:09:15Z</time>
      </trkpt>
      <trkpt lat="45.24151" lon="6.10746">
        <ele>2925</ele>
        <time>2021-12-23T13:09:16Z</time>
      </trkpt>
      <trkpt lat="45.24151" lon="6.10746">
        <ele>2924</ele>
        <time>2021-12-23T13:09:17Z</time>
      </trkpt>
      <trkpt lat="45.24151" lon="6.10746">
        <ele>2924</ele>
        <time>2021-12-23T13:09:18Z</time>
      </trkpt>
      <trkpt lat="45.24151" lon="6.10746">
        <ele>2925</ele>
        <time>2021-12-23T13:09:19Z</time>
      </trkpt>
      <trkpt lat="45.24151" lon="6.10746">
        <ele>2925</ele>
        <time>2021-12-23T13:09:20Z</time>
      </trkpt>
      <trkpt lat="45.24151" lon="6.10746">
        <ele>2924</ele>
        <time>2021-12-23T13:09:21Z</time>
      </trkpt>
      <trkpt lat="45.24151" lon="6.10746">
        <ele>2924</ele>
        <time>2021-12-23T13:09:22Z</time>
      </trkpt>
      <trkpt lat="45.24151" lon="6.10746">
        <ele>2924</ele>
        <time>2021-12-23T13:09:23Z</time>
      </trkpt>
      <trkpt lat="45.24151" lon="6.10746">
        <ele>2924</ele>
        <time>2021-12-23T13:09:24Z</time>
      </trkpt>
      <trkpt lat="45.24152" lon="6.10746">
        <ele>2924</ele>
        <time>2021-12-23T13:09:25Z</time>
      </trkpt>
      <trkpt lat="45.24152" lon="6.10746">
        <ele>2924</ele>
        <time>2021-12-23T13:09:26Z</time>
      </trkpt>
      <trkpt lat="45.24152" lon="6.10747">
        <ele>2925</ele>
        <time>2021-12-23T13:09:27Z</time>
      </trkpt>
      <trkpt lat="45.24152" lon="6.10747">
        <ele>2925</ele>
        <time>2021-12-23T13:09:28Z</time>
      </trkpt>
      <trkpt lat="45.24152" lon="6.10747">
        <ele>2925</ele>
        <time>2021-12-23T13:09:29Z</time>
      </trkpt>
      <trkpt lat="45.24152" lon="6.10747">
        <ele>2925</ele>
        <time>2021-12-23T13:09:30Z</time>
      </trkpt>
      <trkpt lat="45.24152" lon="6.10747">
        <ele>2925</ele>
        <time>2021-12-23T13:09:32Z</time>
      </trkpt>
      <trkpt lat="45.24152" lon="6.10747">
        <ele>2925</ele>
        <time>2021-12-23T13:09:33Z</time>
      </trkpt>
      <trkpt lat="45.24152" lon="6.10747">
        <ele>2924</ele>
        <time>2021-12-23T13:09:34Z</time>
      </trkpt>
      <trkpt lat="45.24152" lon="6.10747">
        <ele>2924</ele>
        <time>2021-12-23T13:09:35Z</time>
      </trkpt>
      <trkpt lat="45.24152" lon="6.10747">
        <ele>2924</ele>
        <time>2021-12-23T13:09:36Z</time>
      </trkpt>
      <trkpt lat="45.24152" lon="6.10747">
        <ele>2925</ele>
        <time>2021-12-23T13:09:37Z</time>
      </trkpt>
      <trkpt lat="45.24152" lon="6.10747">
        <ele>2925</ele>
        <time>2021-12-23T13:09:38Z</time>
      </trkpt>
      <trkpt lat="45.24152" lon="6.10747">
        <ele>2925</ele>
        <time>2021-12-23T13:09:39Z</time>
      </trkpt>
      <trkpt lat="45.24152" lon="6.10747">
        <ele>2925</ele>
        <time>2021-12-23T13:09:40Z</time>
      </trkpt>
      <trkpt lat="45.24152" lon="6.10747">
        <ele>2925</ele>
        <time>2021-12-23T13:09:41Z</time>
      </trkpt>
      <trkpt lat="45.24152" lon="6.10747">
        <ele>2924</ele>
        <time>2021-12-23T13:09:42Z</time>
      </trkpt>
      <trkpt lat="45.24152" lon="6.10747">
        <ele>2924</ele>
        <time>2021-12-23T13:09:43Z</time>
      </trkpt>
      <trkpt lat="45.24152" lon="6.10747">
        <ele>2924</ele>
        <time>2021-12-23T13:09:44Z</time>
      </trkpt>
      <trkpt lat="45.24152" lon="6.10747">
        <ele>2925</ele>
        <time>2021-12-23T13:09:45Z</time>
      </trkpt>
      <trkpt lat="45.24152" lon="6.10747">
        <ele>2925</ele>
        <time>2021-12-23T13:09:46Z</time>
      </trkpt>
      <trkpt lat="45.24152" lon="6.10747">
        <ele>2925</ele>
        <time>2021-12-23T13:09:47Z</time>
      </trkpt>
      <trkpt lat="45.24152" lon="6.10747">
        <ele>2925</ele>
        <time>2021-12-23T13:09:48Z</time>
      </trkpt>
      <trkpt lat="45.24152" lon="6.10747">
        <ele>2925</ele>
        <time>2021-12-23T13:09:49Z</time>
      </trkpt>
      <trkpt lat="45.24152" lon="6.10747">
        <ele>2925</ele>
        <time>2021-12-23T13:09:51Z</time>
      </trkpt>
      <trkpt lat="45.24152" lon="6.10747">
        <ele>2925</ele>
        <time>2021-12-23T13:09:52Z</time>
      </trkpt>
      <trkpt lat="45.24152" lon="6.10747">
        <ele>2925</ele>
        <time>2021-12-23T13:09:53Z</time>
      </trkpt>
      <trkpt lat="45.24152" lon="6.10747">
        <ele>2925</ele>
        <time>2021-12-23T13:09:54Z</time>
      </trkpt>
      <trkpt lat="45.24153" lon="6.10747">
        <ele>2926</ele>
        <time>2021-12-23T13:09:55Z</time>
      </trkpt>
      <trkpt lat="45.24153" lon="6.10747">
        <ele>2926</ele>
        <time>2021-12-23T13:09:56Z</time>
      </trkpt>
      <trkpt lat="45.24153" lon="6.10747">
        <ele>2926</ele>
        <time>2021-12-23T13:09:57Z</time>
      </trkpt>
      <trkpt lat="45.24153" lon="6.10747">
        <ele>2926</ele>
        <time>2021-12-23T13:09:58Z</time>
      </trkpt>
      <trkpt lat="45.24153" lon="6.10747">
        <ele>2926</ele>
        <time>2021-12-23T13:09:59Z</time>
      </trkpt>
      <trkpt lat="45.24153" lon="6.10747">
        <ele>2926</ele>
        <time>2021-12-23T13:10:00Z</time>
      </trkpt>
      <trkpt lat="45.24153" lon="6.10747">
        <ele>2926</ele>
        <time>2021-12-23T13:10:01Z</time>
      </trkpt>
      <trkpt lat="45.24153" lon="6.10747">
        <ele>2926</ele>
        <time>2021-12-23T13:10:02Z</time>
      </trkpt>
      <trkpt lat="45.24153" lon="6.10747">
        <ele>2926</ele>
        <time>2021-12-23T13:10:03Z</time>
      </trkpt>
      <trkpt lat="45.24153" lon="6.10747">
        <ele>2926</ele>
        <time>2021-12-23T13:10:04Z</time>
      </trkpt>
      <trkpt lat="45.24153" lon="6.10747">
        <ele>2926</ele>
        <time>2021-12-23T13:10:05Z</time>
      </trkpt>
      <trkpt lat="45.24153" lon="6.10747">
        <ele>2926</ele>
        <time>2021-12-23T13:10:06Z</time>
      </trkpt>
      <trkpt lat="45.24153" lon="6.10747">
        <ele>2925</ele>
        <time>2021-12-23T13:10:07Z</time>
      </trkpt>
      <trkpt lat="45.24153" lon="6.10747">
        <ele>2925</ele>
        <time>2021-12-23T13:10:08Z</time>
      </trkpt>
      <trkpt lat="45.24153" lon="6.10747">
        <ele>2925</ele>
        <time>2021-12-23T13:10:10Z</time>
      </trkpt>
      <trkpt lat="45.24153" lon="6.10747">
        <ele>2925</ele>
        <time>2021-12-23T13:10:11Z</time>
      </trkpt>
      <trkpt lat="45.24153" lon="6.10747">
        <ele>2925</ele>
        <time>2021-12-23T13:10:12Z</time>
      </trkpt>
      <trkpt lat="45.24153" lon="6.10747">
        <ele>2926</ele>
        <time>2021-12-23T13:10:13Z</time>
      </trkpt>
      <trkpt lat="45.24153" lon="6.10747">
        <ele>2926</ele>
        <time>2021-12-23T13:10:14Z</time>
      </trkpt>
      <trkpt lat="45.24153" lon="6.10747">
        <ele>2926</ele>
        <time>2021-12-23T13:10:15Z</time>
      </trkpt>
      <trkpt lat="45.24153" lon="6.10747">
        <ele>2926</ele>
        <time>2021-12-23T13:10:16Z</time>
      </trkpt>
      <trkpt lat="45.24153" lon="6.10747">
        <ele>2926</ele>
        <time>2021-12-23T13:10:17Z</time>
      </trkpt>
      <trkpt lat="45.24153" lon="6.10747">
        <ele>2925</ele>
        <time>2021-12-23T13:10:18Z</time>
      </trkpt>
      <trkpt lat="45.24153" lon="6.10747">
        <ele>2925</ele>
        <time>2021-12-23T13:10:19Z</time>
      </trkpt>
      <trkpt lat="45.24153" lon="6.10747">
        <ele>2925</ele>
        <time>2021-12-23T13:10:20Z</time>
      </trkpt>
      <trkpt lat="45.24153" lon="6.10747">
        <ele>2925</ele>
        <time>2021-12-23T13:10:21Z</time>
      </trkpt>
      <trkpt lat="45.24153" lon="6.10747">
        <ele>2925</ele>
        <time>2021-12-23T13:10:22Z</time>
      </trkpt>
      <trkpt lat="45.24154" lon="6.10747">
        <ele>2925</ele>
        <time>2021-12-23T13:10:23Z</time>
      </trkpt>
      <trkpt lat="45.24154" lon="6.10747">
        <ele>2925</ele>
        <time>2021-12-23T13:10:24Z</time>
      </trkpt>
      <trkpt lat="45.24154" lon="6.10747">
        <ele>2925</ele>
        <time>2021-12-23T13:10:25Z</time>
      </trkpt>
      <trkpt lat="45.24154" lon="6.10747">
        <ele>2925</ele>
        <time>2021-12-23T13:10:26Z</time>
      </trkpt>
      <trkpt lat="45.24154" lon="6.10747">
        <ele>2925</ele>
        <time>2021-12-23T13:10:27Z</time>
      </trkpt>
      <trkpt lat="45.24154" lon="6.10747">
        <ele>2925</ele>
        <time>2021-12-23T13:10:29Z</time>
      </trkpt>
      <trkpt lat="45.24154" lon="6.10747">
        <ele>2925</ele>
        <time>2021-12-23T13:10:30Z</time>
      </trkpt>
      <trkpt lat="45.24154" lon="6.10747">
        <ele>2925</ele>
        <time>2021-12-23T13:10:31Z</time>
      </trkpt>
      <trkpt lat="45.24154" lon="6.10747">
        <ele>2925</ele>
        <time>2021-12-23T13:10:32Z</time>
      </trkpt>
      <trkpt lat="45.24154" lon="6.10747">
        <ele>2925</ele>
        <time>2021-12-23T13:10:33Z</time>
      </trkpt>
      <trkpt lat="45.24154" lon="6.10747">
        <ele>2926</ele>
        <time>2021-12-23T13:10:34Z</time>
      </trkpt>
      <trkpt lat="45.24154" lon="6.10747">
        <ele>2926</ele>
        <time>2021-12-23T13:10:35Z</time>
      </trkpt>
      <trkpt lat="45.24154" lon="6.10747">
        <ele>2926</ele>
        <time>2021-12-23T13:10:36Z</time>
      </trkpt>
      <trkpt lat="45.24154" lon="6.10747">
        <ele>2926</ele>
        <time>2021-12-23T13:10:37Z</time>
      </trkpt>
      <trkpt lat="45.24154" lon="6.10747">
        <ele>2926</ele>
        <time>2021-12-23T13:10:38Z</time>
      </trkpt>
      <trkpt lat="45.24154" lon="6.10747">
        <ele>2926</ele>
        <time>2021-12-23T13:10:39Z</time>
      </trkpt>
      <trkpt lat="45.24154" lon="6.10747">
        <ele>2926</ele>
        <time>2021-12-23T13:10:40Z</time>
      </trkpt>
      <trkpt lat="45.24154" lon="6.10747">
        <ele>2926</ele>
        <time>2021-12-23T13:10:41Z</time>
      </trkpt>
      <trkpt lat="45.24154" lon="6.10747">
        <ele>2926</ele>
        <time>2021-12-23T13:10:42Z</time>
      </trkpt>
      <trkpt lat="45.24154" lon="6.10747">
        <ele>2926</ele>
        <time>2021-12-23T13:10:43Z</time>
      </trkpt>
      <trkpt lat="45.24154" lon="6.10747">
        <ele>2926</ele>
        <time>2021-12-23T13:10:44Z</time>
      </trkpt>
      <trkpt lat="45.24154" lon="6.10747">
        <ele>2926</ele>
        <time>2021-12-23T13:10:45Z</time>
      </trkpt>
      <trkpt lat="45.24154" lon="6.10747">
        <ele>2926</ele>
        <time>2021-12-23T13:10:46Z</time>
      </trkpt>
      <trkpt lat="45.24154" lon="6.10747">
        <ele>2926</ele>
        <time>2021-12-23T13:10:48Z</time>
      </trkpt>
      <trkpt lat="45.24154" lon="6.10747">
        <ele>2926</ele>
        <time>2021-12-23T13:10:50Z</time>
      </trkpt>
      <trkpt lat="45.24154" lon="6.10747">
        <ele>2926</ele>
        <time>2021-12-23T13:10:51Z</time>
      </trkpt>
      <trkpt lat="45.24154" lon="6.10748">
        <ele>2926</ele>
        <time>2021-12-23T13:10:52Z</time>
      </trkpt>
      <trkpt lat="45.24154" lon="6.10748">
        <ele>2926</ele>
        <time>2021-12-23T13:10:53Z</time>
      </trkpt>
      <trkpt lat="45.24155" lon="6.10748">
        <ele>2926</ele>
        <time>2021-12-23T13:10:54Z</time>
      </trkpt>
      <trkpt lat="45.24155" lon="6.10748">
        <ele>2926</ele>
        <time>2021-12-23T13:10:55Z</time>
      </trkpt>
      <trkpt lat="45.24155" lon="6.10748">
        <ele>2927</ele>
        <time>2021-12-23T13:10:56Z</time>
      </trkpt>
      <trkpt lat="45.24155" lon="6.10748">
        <ele>2928</ele>
        <time>2021-12-23T13:10:57Z</time>
      </trkpt>
      <trkpt lat="45.24155" lon="6.10748">
        <ele>2928</ele>
        <time>2021-12-23T13:10:58Z</time>
      </trkpt>
      <trkpt lat="45.24155" lon="6.10748">
        <ele>2926</ele>
        <time>2021-12-23T13:10:59Z</time>
      </trkpt>
      <trkpt lat="45.24155" lon="6.10748">
        <ele>2926</ele>
        <time>2021-12-23T13:11:00Z</time>
      </trkpt>
      <trkpt lat="45.24155" lon="6.10748">
        <ele>2926</ele>
        <time>2021-12-23T13:11:01Z</time>
      </trkpt>
      <trkpt lat="45.24155" lon="6.10748">
        <ele>2926</ele>
        <time>2021-12-23T13:11:02Z</time>
      </trkpt>
      <trkpt lat="45.24155" lon="6.10748">
        <ele>2926</ele>
        <time>2021-12-23T13:11:03Z</time>
      </trkpt>
      <trkpt lat="45.24155" lon="6.10748">
        <ele>2926</ele>
        <time>2021-12-23T13:11:04Z</time>
      </trkpt>
      <trkpt lat="45.24155" lon="6.10748">
        <ele>2925</ele>
        <time>2021-12-23T13:11:05Z</time>
      </trkpt>
      <trkpt lat="45.24155" lon="6.10748">
        <ele>2926</ele>
        <time>2021-12-23T13:11:07Z</time>
      </trkpt>
      <trkpt lat="45.24155" lon="6.10748">
        <ele>2926</ele>
        <time>2021-12-23T13:11:08Z</time>
      </trkpt>
      <trkpt lat="45.24155" lon="6.10748">
        <ele>2925</ele>
        <time>2021-12-23T13:11:09Z</time>
      </trkpt>
      <trkpt lat="45.24155" lon="6.10748">
        <ele>2925</ele>
        <time>2021-12-23T13:11:10Z</time>
      </trkpt>
      <trkpt lat="45.24155" lon="6.10748">
        <ele>2925</ele>
        <time>2021-12-23T13:11:11Z</time>
      </trkpt>
      <trkpt lat="45.24155" lon="6.10748">
        <ele>2925</ele>
        <time>2021-12-23T13:11:12Z</time>
      </trkpt>
      <trkpt lat="45.24155" lon="6.10748">
        <ele>2925</ele>
        <time>2021-12-23T13:11:13Z</time>
      </trkpt>
      <trkpt lat="45.24155" lon="6.10748">
        <ele>2925</ele>
        <time>2021-12-23T13:11:14Z</time>
      </trkpt>
      <trkpt lat="45.24155" lon="6.10748">
        <ele>2925</ele>
        <time>2021-12-23T13:11:15Z</time>
      </trkpt>
      <trkpt lat="45.24155" lon="6.10748">
        <ele>2924</ele>
        <time>2021-12-23T13:11:16Z</time>
      </trkpt>
      <trkpt lat="45.24155" lon="6.10748">
        <ele>2924</ele>
        <time>2021-12-23T13:11:17Z</time>
      </trkpt>
      <trkpt lat="45.24155" lon="6.10748">
        <ele>2925</ele>
        <time>2021-12-23T13:11:18Z</time>
      </trkpt>
      <trkpt lat="45.24155" lon="6.10748">
        <ele>2926</ele>
        <time>2021-12-23T13:11:19Z</time>
      </trkpt>
      <trkpt lat="45.24155" lon="6.10748">
        <ele>2926</ele>
        <time>2021-12-23T13:11:20Z</time>
      </trkpt>
      <trkpt lat="45.24155" lon="6.10748">
        <ele>2926</ele>
        <time>2021-12-23T13:11:21Z</time>
      </trkpt>
      <trkpt lat="45.24156" lon="6.10748">
        <ele>2926</ele>
        <time>2021-12-23T13:11:22Z</time>
      </trkpt>
      <trkpt lat="45.24156" lon="6.10748">
        <ele>2926</ele>
        <time>2021-12-23T13:11:23Z</time>
      </trkpt>
      <trkpt lat="45.24156" lon="6.10748">
        <ele>2926</ele>
        <time>2021-12-23T13:11:24Z</time>
      </trkpt>
      <trkpt lat="45.24156" lon="6.10748">
        <ele>2926</ele>
        <time>2021-12-23T13:11:26Z</time>
      </trkpt>
      <trkpt lat="45.24156" lon="6.10748">
        <ele>2926</ele>
        <time>2021-12-23T13:11:27Z</time>
      </trkpt>
      <trkpt lat="45.24156" lon="6.10748">
        <ele>2926</ele>
        <time>2021-12-23T13:11:28Z</time>
      </trkpt>
      <trkpt lat="45.24156" lon="6.10748">
        <ele>2925</ele>
        <time>2021-12-23T13:11:29Z</time>
      </trkpt>
      <trkpt lat="45.24156" lon="6.10748">
        <ele>2925</ele>
        <time>2021-12-23T13:11:30Z</time>
      </trkpt>
      <trkpt lat="45.24156" lon="6.10748">
        <ele>2925</ele>
        <time>2021-12-23T13:11:31Z</time>
      </trkpt>
      <trkpt lat="45.24156" lon="6.10748">
        <ele>2926</ele>
        <time>2021-12-23T13:11:32Z</time>
      </trkpt>
      <trkpt lat="45.24156" lon="6.10748">
        <ele>2926</ele>
        <time>2021-12-23T13:11:33Z</time>
      </trkpt>
      <trkpt lat="45.24156" lon="6.10748">
        <ele>2925</ele>
        <time>2021-12-23T13:11:34Z</time>
      </trkpt>
      <trkpt lat="45.24156" lon="6.10748">
        <ele>2925</ele>
        <time>2021-12-23T13:11:35Z</time>
      </trkpt>
      <trkpt lat="45.24156" lon="6.10748">
        <ele>2924</ele>
        <time>2021-12-23T13:11:36Z</time>
      </trkpt>
      <trkpt lat="45.24156" lon="6.10748">
        <ele>2924</ele>
        <time>2021-12-23T13:11:37Z</time>
      </trkpt>
      <trkpt lat="45.24156" lon="6.10748">
        <ele>2925</ele>
        <time>2021-12-23T13:11:38Z</time>
      </trkpt>
      <trkpt lat="45.24156" lon="6.10748">
        <ele>2925</ele>
        <time>2021-12-23T13:11:39Z</time>
      </trkpt>
      <trkpt lat="45.24156" lon="6.10748">
        <ele>2925</ele>
        <time>2021-12-23T13:11:40Z</time>
      </trkpt>
      <trkpt lat="45.24156" lon="6.10748">
        <ele>2926</ele>
        <time>2021-12-23T13:11:41Z</time>
      </trkpt>
      <trkpt lat="45.24156" lon="6.10748">
        <ele>2927</ele>
        <time>2021-12-23T13:11:42Z</time>
      </trkpt>
      <trkpt lat="45.24156" lon="6.10748">
        <ele>2927</ele>
        <time>2021-12-23T13:11:43Z</time>
      </trkpt>
      <trkpt lat="45.24156" lon="6.10748">
        <ele>2926</ele>
        <time>2021-12-23T13:11:45Z</time>
      </trkpt>
      <trkpt lat="45.24156" lon="6.10748">
        <ele>2926</ele>
        <time>2021-12-23T13:11:46Z</time>
      </trkpt>
      <trkpt lat="45.24156" lon="6.10748">
        <ele>2926</ele>
        <time>2021-12-23T13:11:47Z</time>
      </trkpt>
      <trkpt lat="45.24156" lon="6.10748">
        <ele>2926</ele>
        <time>2021-12-23T13:11:48Z</time>
      </trkpt>
      <trkpt lat="45.24156" lon="6.10748">
        <ele>2925</ele>
        <time>2021-12-23T13:11:49Z</time>
      </trkpt>
      <trkpt lat="45.24156" lon="6.10748">
        <ele>2925</ele>
        <time>2021-12-23T13:11:50Z</time>
      </trkpt>
      <trkpt lat="45.24156" lon="6.10748">
        <ele>2925</ele>
        <time>2021-12-23T13:11:51Z</time>
      </trkpt>
      <trkpt lat="45.24157" lon="6.10748">
        <ele>2925</ele>
        <time>2021-12-23T13:11:52Z</time>
      </trkpt>
      <trkpt lat="45.24157" lon="6.10748">
        <ele>2925</ele>
        <time>2021-12-23T13:11:53Z</time>
      </trkpt>
      <trkpt lat="45.24157" lon="6.10748">
        <ele>2925</ele>
        <time>2021-12-23T13:11:54Z</time>
      </trkpt>
      <trkpt lat="45.24157" lon="6.10748">
        <ele>2925</ele>
        <time>2021-12-23T13:11:55Z</time>
      </trkpt>
      <trkpt lat="45.24157" lon="6.10748">
        <ele>2925</ele>
        <time>2021-12-23T13:11:56Z</time>
      </trkpt>
      <trkpt lat="45.24157" lon="6.10748">
        <ele>2925</ele>
        <time>2021-12-23T13:11:57Z</time>
      </trkpt>
      <trkpt lat="45.24157" lon="6.10748">
        <ele>2925</ele>
        <time>2021-12-23T13:11:58Z</time>
      </trkpt>
      <trkpt lat="45.24157" lon="6.10748">
        <ele>2926</ele>
        <time>2021-12-23T13:11:59Z</time>
      </trkpt>
      <trkpt lat="45.24157" lon="6.10748">
        <ele>2926</ele>
        <time>2021-12-23T13:12:00Z</time>
      </trkpt>
      <trkpt lat="45.24157" lon="6.10748">
        <ele>2925</ele>
        <time>2021-12-23T13:12:01Z</time>
      </trkpt>
      <trkpt lat="45.24157" lon="6.10748">
        <ele>2924</ele>
        <time>2021-12-23T13:12:02Z</time>
      </trkpt>
      <trkpt lat="45.24157" lon="6.10748">
        <ele>2925</ele>
        <time>2021-12-23T13:12:04Z</time>
      </trkpt>
      <trkpt lat="45.24157" lon="6.10748">
        <ele>2925</ele>
        <time>2021-12-23T13:12:05Z</time>
      </trkpt>
      <trkpt lat="45.24157" lon="6.10748">
        <ele>2925</ele>
        <time>2021-12-23T13:12:06Z</time>
      </trkpt>
      <trkpt lat="45.24157" lon="6.10748">
        <ele>2926</ele>
        <time>2021-12-23T13:12:07Z</time>
      </trkpt>
      <trkpt lat="45.24157" lon="6.10748">
        <ele>2926</ele>
        <time>2021-12-23T13:12:08Z</time>
      </trkpt>
      <trkpt lat="45.24157" lon="6.10748">
        <ele>2926</ele>
        <time>2021-12-23T13:12:09Z</time>
      </trkpt>
      <trkpt lat="45.24157" lon="6.10748">
        <ele>2926</ele>
        <time>2021-12-23T13:12:10Z</time>
      </trkpt>
      <trkpt lat="45.24157" lon="6.10748">
        <ele>2926</ele>
        <time>2021-12-23T13:12:11Z</time>
      </trkpt>
      <trkpt lat="45.24157" lon="6.10749">
        <ele>2926</ele>
        <time>2021-12-23T13:12:12Z</time>
      </trkpt>
      <trkpt lat="45.24157" lon="6.10749">
        <ele>2926</ele>
        <time>2021-12-23T13:12:13Z</time>
      </trkpt>
      <trkpt lat="45.24157" lon="6.10749">
        <ele>2926</ele>
        <time>2021-12-23T13:12:14Z</time>
      </trkpt>
      <trkpt lat="45.24157" lon="6.10749">
        <ele>2926</ele>
        <time>2021-12-23T13:12:15Z</time>
      </trkpt>
      <trkpt lat="45.24156" lon="6.10749">
        <ele>2926</ele>
        <time>2021-12-23T13:12:16Z</time>
      </trkpt>
      <trkpt lat="45.24156" lon="6.1075">
        <ele>2925</ele>
        <time>2021-12-23T13:12:17Z</time>
      </trkpt>
      <trkpt lat="45.24156" lon="6.1075">
        <ele>2925</ele>
        <time>2021-12-23T13:12:18Z</time>
      </trkpt>
      <trkpt lat="45.24156" lon="6.1075">
        <ele>2925</ele>
        <time>2021-12-23T13:12:19Z</time>
      </trkpt>
      <trkpt lat="45.24156" lon="6.1075">
        <ele>2925</ele>
        <time>2021-12-23T13:12:20Z</time>
      </trkpt>
      <trkpt lat="45.24156" lon="6.1075">
        <ele>2925</ele>
        <time>2021-12-23T13:12:21Z</time>
      </trkpt>
      <trkpt lat="45.24156" lon="6.1075">
        <ele>2926</ele>
        <time>2021-12-23T13:12:23Z</time>
      </trkpt>
      <trkpt lat="45.24156" lon="6.10751">
        <ele>2926</ele>
        <time>2021-12-23T13:12:24Z</time>
      </trkpt>
      <trkpt lat="45.24155" lon="6.10751">
        <ele>2926</ele>
        <time>2021-12-23T13:12:25Z</time>
      </trkpt>
      <trkpt lat="45.24155" lon="6.10751">
        <ele>2926</ele>
        <time>2021-12-23T13:12:26Z</time>
      </trkpt>
      <trkpt lat="45.24155" lon="6.10751">
        <ele>2926</ele>
        <time>2021-12-23T13:12:27Z</time>
      </trkpt>
      <trkpt lat="45.24155" lon="6.10751">
        <ele>2926</ele>
        <time>2021-12-23T13:12:28Z</time>
      </trkpt>
      <trkpt lat="45.24155" lon="6.10751">
        <ele>2926</ele>
        <time>2021-12-23T13:12:29Z</time>
      </trkpt>
      <trkpt lat="45.24155" lon="6.10752">
        <ele>2926</ele>
        <time>2021-12-23T13:12:30Z</time>
      </trkpt>
      <trkpt lat="45.24155" lon="6.10752">
        <ele>2926</ele>
        <time>2021-12-23T13:12:31Z</time>
      </trkpt>
      <trkpt lat="45.24154" lon="6.10752">
        <ele>2926</ele>
        <time>2021-12-23T13:12:32Z</time>
      </trkpt>
      <trkpt lat="45.24154" lon="6.10752">
        <ele>2926</ele>
        <time>2021-12-23T13:12:33Z</time>
      </trkpt>
      <trkpt lat="45.24154" lon="6.10752">
        <ele>2926</ele>
        <time>2021-12-23T13:12:34Z</time>
      </trkpt>
      <trkpt lat="45.24154" lon="6.10753">
        <ele>2926</ele>
        <time>2021-12-23T13:12:35Z</time>
      </trkpt>
      <trkpt lat="45.24154" lon="6.10753">
        <ele>2927</ele>
        <time>2021-12-23T13:12:36Z</time>
      </trkpt>
      <trkpt lat="45.24154" lon="6.10753">
        <ele>2927</ele>
        <time>2021-12-23T13:12:37Z</time>
      </trkpt>
      <trkpt lat="45.24154" lon="6.10753">
        <ele>2927</ele>
        <time>2021-12-23T13:12:38Z</time>
      </trkpt>
      <trkpt lat="45.24153" lon="6.10753">
        <ele>2926</ele>
        <time>2021-12-23T13:12:39Z</time>
      </trkpt>
      <trkpt lat="45.24153" lon="6.10753">
        <ele>2926</ele>
        <time>2021-12-23T13:12:40Z</time>
      </trkpt>
      <trkpt lat="45.24153" lon="6.10754">
        <ele>2926</ele>
        <time>2021-12-23T13:12:42Z</time>
      </trkpt>
      <trkpt lat="45.24153" lon="6.10754">
        <ele>2926</ele>
        <time>2021-12-23T13:12:43Z</time>
      </trkpt>
      <trkpt lat="45.24153" lon="6.10754">
        <ele>2926</ele>
        <time>2021-12-23T13:12:44Z</time>
      </trkpt>
      <trkpt lat="45.24153" lon="6.10754">
        <ele>2927</ele>
        <time>2021-12-23T13:12:45Z</time>
      </trkpt>
      <trkpt lat="45.24153" lon="6.10754">
        <ele>2927</ele>
        <time>2021-12-23T13:12:46Z</time>
      </trkpt>
      <trkpt lat="45.24153" lon="6.10754">
        <ele>2926</ele>
        <time>2021-12-23T13:12:47Z</time>
      </trkpt>
      <trkpt lat="45.24152" lon="6.10755">
        <ele>2926</ele>
        <time>2021-12-23T13:12:48Z</time>
      </trkpt>
      <trkpt lat="45.24152" lon="6.10755">
        <ele>2926</ele>
        <time>2021-12-23T13:12:49Z</time>
      </trkpt>
      <trkpt lat="45.24152" lon="6.10755">
        <ele>2926</ele>
        <time>2021-12-23T13:12:50Z</time>
      </trkpt>
      <trkpt lat="45.24152" lon="6.10755">
        <ele>2926</ele>
        <time>2021-12-23T13:12:51Z</time>
      </trkpt>
      <trkpt lat="45.24152" lon="6.10755">
        <ele>2926</ele>
        <time>2021-12-23T13:12:52Z</time>
      </trkpt>
      <trkpt lat="45.24152" lon="6.10755">
        <ele>2926</ele>
        <time>2021-12-23T13:12:53Z</time>
      </trkpt>
      <trkpt lat="45.24152" lon="6.10756">
        <ele>2926</ele>
        <time>2021-12-23T13:12:54Z</time>
      </trkpt>
      <trkpt lat="45.24151" lon="6.10756">
        <ele>2926</ele>
        <time>2021-12-23T13:12:55Z</time>
      </trkpt>
      <trkpt lat="45.24151" lon="6.10756">
        <ele>2926</ele>
        <time>2021-12-23T13:12:56Z</time>
      </trkpt>
      <trkpt lat="45.24151" lon="6.10756">
        <ele>2926</ele>
        <time>2021-12-23T13:12:57Z</time>
      </trkpt>
      <trkpt lat="45.24151" lon="6.10756">
        <ele>2926</ele>
        <time>2021-12-23T13:12:58Z</time>
      </trkpt>
      <trkpt lat="45.24151" lon="6.10757">
        <ele>2926</ele>
        <time>2021-12-23T13:12:59Z</time>
      </trkpt>
      <trkpt lat="45.24151" lon="6.10757">
        <ele>2926</ele>
        <time>2021-12-23T13:13:01Z</time>
      </trkpt>
      <trkpt lat="45.24151" lon="6.10757">
        <ele>2926</ele>
        <time>2021-12-23T13:13:02Z</time>
      </trkpt>
      <trkpt lat="45.2415" lon="6.10757">
        <ele>2926</ele>
        <time>2021-12-23T13:13:03Z</time>
      </trkpt>
      <trkpt lat="45.2415" lon="6.10757">
        <ele>2926</ele>
        <time>2021-12-23T13:13:04Z</time>
      </trkpt>
      <trkpt lat="45.2415" lon="6.10757">
        <ele>2926</ele>
        <time>2021-12-23T13:13:05Z</time>
      </trkpt>
      <trkpt lat="45.24151" lon="6.10757">
        <ele>2926</ele>
        <time>2021-12-23T13:13:06Z</time>
      </trkpt>
      <trkpt lat="45.24151" lon="6.10756">
        <ele>2926</ele>
        <time>2021-12-23T13:13:07Z</time>
      </trkpt>
      <trkpt lat="45.24151" lon="6.10756">
        <ele>2926</ele>
        <time>2021-12-23T13:13:08Z</time>
      </trkpt>
      <trkpt lat="45.24151" lon="6.10756">
        <ele>2926</ele>
        <time>2021-12-23T13:13:09Z</time>
      </trkpt>
      <trkpt lat="45.24151" lon="6.10755">
        <ele>2926</ele>
        <time>2021-12-23T13:13:10Z</time>
      </trkpt>
      <trkpt lat="45.24151" lon="6.10755">
        <ele>2926</ele>
        <time>2021-12-23T13:13:11Z</time>
      </trkpt>
      <trkpt lat="45.24151" lon="6.10755">
        <ele>2926</ele>
        <time>2021-12-23T13:13:12Z</time>
      </trkpt>
      <trkpt lat="45.24151" lon="6.10754">
        <ele>2926</ele>
        <time>2021-12-23T13:13:13Z</time>
      </trkpt>
      <trkpt lat="45.24152" lon="6.10754">
        <ele>2926</ele>
        <time>2021-12-23T13:13:14Z</time>
      </trkpt>
      <trkpt lat="45.24152" lon="6.10754">
        <ele>2926</ele>
        <time>2021-12-23T13:13:15Z</time>
      </trkpt>
      <trkpt lat="45.24152" lon="6.10753">
        <ele>2926</ele>
        <time>2021-12-23T13:13:16Z</time>
      </trkpt>
      <trkpt lat="45.24152" lon="6.10753">
        <ele>2926</ele>
        <time>2021-12-23T13:13:17Z</time>
      </trkpt>
      <trkpt lat="45.24152" lon="6.10753">
        <ele>2926</ele>
        <time>2021-12-23T13:13:18Z</time>
      </trkpt>
      <trkpt lat="45.24156" lon="6.10745">
        <ele>2924</ele>
        <time>2021-12-23T13:13:20Z</time>
      </trkpt>
      <trkpt lat="45.24156" lon="6.10745">
        <ele>2924</ele>
        <time>2021-12-23T13:13:21Z</time>
      </trkpt>
      <trkpt lat="45.24156" lon="6.10746">
        <ele>2924</ele>
        <time>2021-12-23T13:13:22Z</time>
      </trkpt>
      <trkpt lat="45.24156" lon="6.10746">
        <ele>2924</ele>
        <time>2021-12-23T13:13:23Z</time>
      </trkpt>
      <trkpt lat="45.24157" lon="6.10747">
        <ele>2924</ele>
        <time>2021-12-23T13:13:24Z</time>
      </trkpt>
      <trkpt lat="45.24157" lon="6.10748">
        <ele>2926</ele>
        <time>2021-12-23T13:13:25Z</time>
      </trkpt>
      <trkpt lat="45.24157" lon="6.10748">
        <ele>2926</ele>
        <time>2021-12-23T13:13:26Z</time>
      </trkpt>
      <trkpt lat="45.24157" lon="6.10749">
        <ele>2925</ele>
        <time>2021-12-23T13:13:27Z</time>
      </trkpt>
      <trkpt lat="45.24158" lon="6.1075">
        <ele>2924</ele>
        <time>2021-12-23T13:13:28Z</time>
      </trkpt>
      <trkpt lat="45.24158" lon="6.1075">
        <ele>2924</ele>
        <time>2021-12-23T13:13:29Z</time>
      </trkpt>
      <trkpt lat="45.24158" lon="6.10751">
        <ele>2924</ele>
        <time>2021-12-23T13:13:30Z</time>
      </trkpt>
      <trkpt lat="45.24158" lon="6.10752">
        <ele>2923</ele>
        <time>2021-12-23T13:13:31Z</time>
      </trkpt>
      <trkpt lat="45.24159" lon="6.10752">
        <ele>2923</ele>
        <time>2021-12-23T13:13:32Z</time>
      </trkpt>
      <trkpt lat="45.24159" lon="6.10753">
        <ele>2924</ele>
        <time>2021-12-23T13:13:33Z</time>
      </trkpt>
      <trkpt lat="45.24159" lon="6.10753">
        <ele>2924</ele>
        <time>2021-12-23T13:13:34Z</time>
      </trkpt>
      <trkpt lat="45.2416" lon="6.10754">
        <ele>2925</ele>
        <time>2021-12-23T13:13:35Z</time>
      </trkpt>
      <trkpt lat="45.2416" lon="6.10755">
        <ele>2925</ele>
        <time>2021-12-23T13:13:36Z</time>
      </trkpt>
      <trkpt lat="45.2416" lon="6.10755">
        <ele>2924</ele>
        <time>2021-12-23T13:13:37Z</time>
      </trkpt>
      <trkpt lat="45.2416" lon="6.10757">
        <ele>2924</ele>
        <time>2021-12-23T13:13:39Z</time>
      </trkpt>
      <trkpt lat="45.24159" lon="6.10759">
        <ele>2924</ele>
        <time>2021-12-23T13:13:40Z</time>
      </trkpt>
      <trkpt lat="45.24159" lon="6.10761">
        <ele>2923</ele>
        <time>2021-12-23T13:13:41Z</time>
      </trkpt>
      <trkpt lat="45.24158" lon="6.10763">
        <ele>2923</ele>
        <time>2021-12-23T13:13:42Z</time>
      </trkpt>
      <trkpt lat="45.24158" lon="6.10765">
        <ele>2923</ele>
        <time>2021-12-23T13:13:43Z</time>
      </trkpt>
      <trkpt lat="45.24157" lon="6.10767">
        <ele>2923</ele>
        <time>2021-12-23T13:13:44Z</time>
      </trkpt>
      <trkpt lat="45.24158" lon="6.10772">
        <ele>2923</ele>
        <time>2021-12-23T13:13:45Z</time>
      </trkpt>
      <trkpt lat="45.24158" lon="6.10777">
        <ele>2923</ele>
        <time>2021-12-23T13:13:46Z</time>
      </trkpt>
      <trkpt lat="45.24159" lon="6.10781">
        <ele>2923</ele>
        <time>2021-12-23T13:13:47Z</time>
      </trkpt>
      <trkpt lat="45.2416" lon="6.10786">
        <ele>2923</ele>
        <time>2021-12-23T13:13:48Z</time>
      </trkpt>
      <trkpt lat="45.2416" lon="6.1079">
        <ele>2922</ele>
        <time>2021-12-23T13:13:49Z</time>
      </trkpt>
      <trkpt lat="45.24161" lon="6.10792">
        <ele>2922</ele>
        <time>2021-12-23T13:13:50Z</time>
      </trkpt>
      <trkpt lat="45.24162" lon="6.10793">
        <ele>2921</ele>
        <time>2021-12-23T13:13:51Z</time>
      </trkpt>
      <trkpt lat="45.24163" lon="6.10794">
        <ele>2921</ele>
        <time>2021-12-23T13:13:52Z</time>
      </trkpt>
      <trkpt lat="45.24164" lon="6.10796">
        <ele>2920</ele>
        <time>2021-12-23T13:13:53Z</time>
      </trkpt>
      <trkpt lat="45.2417" lon="6.10805">
        <ele>2920</ele>
        <time>2021-12-23T13:13:54Z</time>
      </trkpt>
      <trkpt lat="45.24171" lon="6.1081">
        <ele>2919</ele>
        <time>2021-12-23T13:13:55Z</time>
      </trkpt>
      <trkpt lat="45.24172" lon="6.10814">
        <ele>2917</ele>
        <time>2021-12-23T13:13:56Z</time>
      </trkpt>
      <trkpt lat="45.24173" lon="6.10817">
        <ele>2915</ele>
        <time>2021-12-23T13:13:58Z</time>
      </trkpt>
      <trkpt lat="45.24175" lon="6.10821">
        <ele>2915</ele>
        <time>2021-12-23T13:13:59Z</time>
      </trkpt>
      <trkpt lat="45.24177" lon="6.10824">
        <ele>2915</ele>
        <time>2021-12-23T13:14:00Z</time>
      </trkpt>
      <trkpt lat="45.24179" lon="6.10827">
        <ele>2913</ele>
        <time>2021-12-23T13:14:01Z</time>
      </trkpt>
      <trkpt lat="45.24183" lon="6.1083">
        <ele>2913</ele>
        <time>2021-12-23T13:14:02Z</time>
      </trkpt>
      <trkpt lat="45.24187" lon="6.10833">
        <ele>2912</ele>
        <time>2021-12-23T13:14:03Z</time>
      </trkpt>
      <trkpt lat="45.24187" lon="6.10833">
        <ele>2911</ele>
        <time>2021-12-23T13:14:04Z</time>
      </trkpt>
      <trkpt lat="45.24187" lon="6.10833">
        <ele>2910</ele>
        <time>2021-12-23T13:14:05Z</time>
      </trkpt>
      <trkpt lat="45.24188" lon="6.10833">
        <ele>2909</ele>
        <time>2021-12-23T13:14:06Z</time>
      </trkpt>
      <trkpt lat="45.24188" lon="6.10833">
        <ele>2908</ele>
        <time>2021-12-23T13:14:07Z</time>
      </trkpt>
      <trkpt lat="45.24188" lon="6.10833">
        <ele>2907</ele>
        <time>2021-12-23T13:14:08Z</time>
      </trkpt>
      <trkpt lat="45.24189" lon="6.10833">
        <ele>2907</ele>
        <time>2021-12-23T13:14:09Z</time>
      </trkpt>
      <trkpt lat="45.24189" lon="6.10833">
        <ele>2907</ele>
        <time>2021-12-23T13:14:10Z</time>
      </trkpt>
      <trkpt lat="45.24189" lon="6.10833">
        <ele>2907</ele>
        <time>2021-12-23T13:14:11Z</time>
      </trkpt>
      <trkpt lat="45.24189" lon="6.10833">
        <ele>2907</ele>
        <time>2021-12-23T13:14:12Z</time>
      </trkpt>
      <trkpt lat="45.2419" lon="6.10834">
        <ele>2907</ele>
        <time>2021-12-23T13:14:13Z</time>
      </trkpt>
      <trkpt lat="45.2419" lon="6.10834">
        <ele>2907</ele>
        <time>2021-12-23T13:14:14Z</time>
      </trkpt>
      <trkpt lat="45.2419" lon="6.10834">
        <ele>2907</ele>
        <time>2021-12-23T13:14:15Z</time>
      </trkpt>
      <trkpt lat="45.2419" lon="6.10834">
        <ele>2907</ele>
        <time>2021-12-23T13:14:17Z</time>
      </trkpt>
      <trkpt lat="45.24191" lon="6.10834">
        <ele>2907</ele>
        <time>2021-12-23T13:14:18Z</time>
      </trkpt>
      <trkpt lat="45.24191" lon="6.10834">
        <ele>2907</ele>
        <time>2021-12-23T13:14:19Z</time>
      </trkpt>
      <trkpt lat="45.24191" lon="6.10834">
        <ele>2907</ele>
        <time>2021-12-23T13:14:20Z</time>
      </trkpt>
      <trkpt lat="45.24191" lon="6.10834">
        <ele>2908</ele>
        <time>2021-12-23T13:14:21Z</time>
      </trkpt>
      <trkpt lat="45.24192" lon="6.10834">
        <ele>2908</ele>
        <time>2021-12-23T13:14:22Z</time>
      </trkpt>
      <trkpt lat="45.24192" lon="6.10834">
        <ele>2908</ele>
        <time>2021-12-23T13:14:23Z</time>
      </trkpt>
      <trkpt lat="45.24192" lon="6.10834">
        <ele>2907</ele>
        <time>2021-12-23T13:14:24Z</time>
      </trkpt>
      <trkpt lat="45.24192" lon="6.10834">
        <ele>2906</ele>
        <time>2021-12-23T13:14:25Z</time>
      </trkpt>
      <trkpt lat="45.24199" lon="6.10836">
        <ele>2905</ele>
        <time>2021-12-23T13:14:26Z</time>
      </trkpt>
      <trkpt lat="45.242" lon="6.10837">
        <ele>2903</ele>
        <time>2021-12-23T13:14:27Z</time>
      </trkpt>
      <trkpt lat="45.24201" lon="6.10838">
        <ele>2902</ele>
        <time>2021-12-23T13:14:28Z</time>
      </trkpt>
      <trkpt lat="45.24202" lon="6.10838">
        <ele>2900</ele>
        <time>2021-12-23T13:14:29Z</time>
      </trkpt>
      <trkpt lat="45.24207" lon="6.10843">
        <ele>2899</ele>
        <time>2021-12-23T13:14:30Z</time>
      </trkpt>
      <trkpt lat="45.24208" lon="6.10844">
        <ele>2899</ele>
        <time>2021-12-23T13:14:31Z</time>
      </trkpt>
      <trkpt lat="45.24208" lon="6.10846">
        <ele>2899</ele>
        <time>2021-12-23T13:14:32Z</time>
      </trkpt>
      <trkpt lat="45.24209" lon="6.10848">
        <ele>2897</ele>
        <time>2021-12-23T13:14:33Z</time>
      </trkpt>
      <trkpt lat="45.24209" lon="6.10859">
        <ele>2896</ele>
        <time>2021-12-23T13:14:34Z</time>
      </trkpt>
      <trkpt lat="45.24207" lon="6.10863">
        <ele>2895</ele>
        <time>2021-12-23T13:14:36Z</time>
      </trkpt>
      <trkpt lat="45.24205" lon="6.10867">
        <ele>2894</ele>
        <time>2021-12-23T13:14:37Z</time>
      </trkpt>
      <trkpt lat="45.24209" lon="6.1087">
        <ele>2892</ele>
        <time>2021-12-23T13:14:38Z</time>
      </trkpt>
      <trkpt lat="45.24214" lon="6.10872">
        <ele>2890</ele>
        <time>2021-12-23T13:14:39Z</time>
      </trkpt>
      <trkpt lat="45.24214" lon="6.10872">
        <ele>2889</ele>
        <time>2021-12-23T13:14:40Z</time>
      </trkpt>
      <trkpt lat="45.24214" lon="6.10872">
        <ele>2889</ele>
        <time>2021-12-23T13:14:41Z</time>
      </trkpt>
      <trkpt lat="45.24214" lon="6.10872">
        <ele>2889</ele>
        <time>2021-12-23T13:14:42Z</time>
      </trkpt>
      <trkpt lat="45.24214" lon="6.10872">
        <ele>2889</ele>
        <time>2021-12-23T13:14:43Z</time>
      </trkpt>
      <trkpt lat="45.24214" lon="6.10872">
        <ele>2889</ele>
        <time>2021-12-23T13:14:44Z</time>
      </trkpt>
      <trkpt lat="45.24214" lon="6.10872">
        <ele>2889</ele>
        <time>2021-12-23T13:14:45Z</time>
      </trkpt>
      <trkpt lat="45.24214" lon="6.10872">
        <ele>2888</ele>
        <time>2021-12-23T13:14:46Z</time>
      </trkpt>
      <trkpt lat="45.24214" lon="6.10872">
        <ele>2888</ele>
        <time>2021-12-23T13:14:47Z</time>
      </trkpt>
      <trkpt lat="45.24214" lon="6.10872">
        <ele>2888</ele>
        <time>2021-12-23T13:14:48Z</time>
      </trkpt>
      <trkpt lat="45.24214" lon="6.10872">
        <ele>2887</ele>
        <time>2021-12-23T13:14:49Z</time>
      </trkpt>
      <trkpt lat="45.24214" lon="6.10872">
        <ele>2887</ele>
        <time>2021-12-23T13:14:50Z</time>
      </trkpt>
      <trkpt lat="45.24214" lon="6.10872">
        <ele>2887</ele>
        <time>2021-12-23T13:14:51Z</time>
      </trkpt>
      <trkpt lat="45.24214" lon="6.10872">
        <ele>2887</ele>
        <time>2021-12-23T13:14:52Z</time>
      </trkpt>
      <trkpt lat="45.24214" lon="6.10872">
        <ele>2886</ele>
        <time>2021-12-23T13:14:53Z</time>
      </trkpt>
      <trkpt lat="45.24214" lon="6.10872">
        <ele>2887</ele>
        <time>2021-12-23T13:14:55Z</time>
      </trkpt>
      <trkpt lat="45.24214" lon="6.10872">
        <ele>2887</ele>
        <time>2021-12-23T13:14:56Z</time>
      </trkpt>
      <trkpt lat="45.24214" lon="6.10872">
        <ele>2887</ele>
        <time>2021-12-23T13:14:57Z</time>
      </trkpt>
      <trkpt lat="45.24214" lon="6.10872">
        <ele>2887</ele>
        <time>2021-12-23T13:14:58Z</time>
      </trkpt>
      <trkpt lat="45.24214" lon="6.10872">
        <ele>2887</ele>
        <time>2021-12-23T13:14:59Z</time>
      </trkpt>
      <trkpt lat="45.24214" lon="6.10872">
        <ele>2887</ele>
        <time>2021-12-23T13:15:00Z</time>
      </trkpt>
      <trkpt lat="45.24214" lon="6.10872">
        <ele>2888</ele>
        <time>2021-12-23T13:15:01Z</time>
      </trkpt>
      <trkpt lat="45.24214" lon="6.10872">
        <ele>2888</ele>
        <time>2021-12-23T13:15:02Z</time>
      </trkpt>
      <trkpt lat="45.24214" lon="6.10872">
        <ele>2888</ele>
        <time>2021-12-23T13:15:03Z</time>
      </trkpt>
      <trkpt lat="45.24214" lon="6.10872">
        <ele>2888</ele>
        <time>2021-12-23T13:15:04Z</time>
      </trkpt>
      <trkpt lat="45.24214" lon="6.10872">
        <ele>2888</ele>
        <time>2021-12-23T13:15:05Z</time>
      </trkpt>
      <trkpt lat="45.24214" lon="6.10872">
        <ele>2888</ele>
        <time>2021-12-23T13:15:06Z</time>
      </trkpt>
      <trkpt lat="45.24214" lon="6.10872">
        <ele>2888</ele>
        <time>2021-12-23T13:15:07Z</time>
      </trkpt>
      <trkpt lat="45.24214" lon="6.10872">
        <ele>2888</ele>
        <time>2021-12-23T13:15:08Z</time>
      </trkpt>
      <trkpt lat="45.24214" lon="6.10872">
        <ele>2888</ele>
        <time>2021-12-23T13:15:09Z</time>
      </trkpt>
      <trkpt lat="45.24214" lon="6.10872">
        <ele>2888</ele>
        <time>2021-12-23T13:15:10Z</time>
      </trkpt>
      <trkpt lat="45.24214" lon="6.10872">
        <ele>2888</ele>
        <time>2021-12-23T13:15:11Z</time>
      </trkpt>
      <trkpt lat="45.24214" lon="6.10872">
        <ele>2888</ele>
        <time>2021-12-23T13:15:12Z</time>
      </trkpt>
      <trkpt lat="45.24214" lon="6.10872">
        <ele>2888</ele>
        <time>2021-12-23T13:15:14Z</time>
      </trkpt>
      <trkpt lat="45.24214" lon="6.10872">
        <ele>2888</ele>
        <time>2021-12-23T13:15:15Z</time>
      </trkpt>
      <trkpt lat="45.24214" lon="6.10872">
        <ele>2888</ele>
        <time>2021-12-23T13:15:16Z</time>
      </trkpt>
      <trkpt lat="45.24214" lon="6.10872">
        <ele>2888</ele>
        <time>2021-12-23T13:15:17Z</time>
      </trkpt>
      <trkpt lat="45.24214" lon="6.10872">
        <ele>2888</ele>
        <time>2021-12-23T13:15:18Z</time>
      </trkpt>
      <trkpt lat="45.24214" lon="6.10872">
        <ele>2888</ele>
        <time>2021-12-23T13:15:19Z</time>
      </trkpt>
      <trkpt lat="45.24214" lon="6.10872">
        <ele>2888</ele>
        <time>2021-12-23T13:15:20Z</time>
      </trkpt>
      <trkpt lat="45.24214" lon="6.10872">
        <ele>2888</ele>
        <time>2021-12-23T13:15:21Z</time>
      </trkpt>
      <trkpt lat="45.24214" lon="6.10872">
        <ele>2888</ele>
        <time>2021-12-23T13:15:22Z</time>
      </trkpt>
      <trkpt lat="45.24214" lon="6.10872">
        <ele>2888</ele>
        <time>2021-12-23T13:15:23Z</time>
      </trkpt>
      <trkpt lat="45.24214" lon="6.10872">
        <ele>2887</ele>
        <time>2021-12-23T13:15:24Z</time>
      </trkpt>
      <trkpt lat="45.24214" lon="6.10872">
        <ele>2887</ele>
        <time>2021-12-23T13:15:25Z</time>
      </trkpt>
      <trkpt lat="45.24214" lon="6.10872">
        <ele>2888</ele>
        <time>2021-12-23T13:15:26Z</time>
      </trkpt>
      <trkpt lat="45.24214" lon="6.10872">
        <ele>2888</ele>
        <time>2021-12-23T13:15:27Z</time>
      </trkpt>
      <trkpt lat="45.24214" lon="6.10872">
        <ele>2888</ele>
        <time>2021-12-23T13:15:28Z</time>
      </trkpt>
      <trkpt lat="45.24214" lon="6.10872">
        <ele>2888</ele>
        <time>2021-12-23T13:15:29Z</time>
      </trkpt>
      <trkpt lat="45.24214" lon="6.10872">
        <ele>2888</ele>
        <time>2021-12-23T13:15:30Z</time>
      </trkpt>
      <trkpt lat="45.24214" lon="6.10872">
        <ele>2888</ele>
        <time>2021-12-23T13:15:31Z</time>
      </trkpt>
      <trkpt lat="45.24221" lon="6.1088">
        <ele>2887</ele>
        <time>2021-12-23T13:15:33Z</time>
      </trkpt>
      <trkpt lat="45.24221" lon="6.10882">
        <ele>2887</ele>
        <time>2021-12-23T13:15:34Z</time>
      </trkpt>
      <trkpt lat="45.24222" lon="6.10884">
        <ele>2887</ele>
        <time>2021-12-23T13:15:35Z</time>
      </trkpt>
      <trkpt lat="45.24223" lon="6.10886">
        <ele>2885</ele>
        <time>2021-12-23T13:15:36Z</time>
      </trkpt>
      <trkpt lat="45.24228" lon="6.10893">
        <ele>2883</ele>
        <time>2021-12-23T13:15:37Z</time>
      </trkpt>
      <trkpt lat="45.24231" lon="6.10893">
        <ele>2881</ele>
        <time>2021-12-23T13:15:38Z</time>
      </trkpt>
      <trkpt lat="45.24234" lon="6.10893">
        <ele>2880</ele>
        <time>2021-12-23T13:15:39Z</time>
      </trkpt>
      <trkpt lat="45.24235" lon="6.10895">
        <ele>2880</ele>
        <time>2021-12-23T13:15:40Z</time>
      </trkpt>
      <trkpt lat="45.24237" lon="6.10897">
        <ele>2878</ele>
        <time>2021-12-23T13:15:41Z</time>
      </trkpt>
      <trkpt lat="45.24239" lon="6.10899">
        <ele>2878</ele>
        <time>2021-12-23T13:15:42Z</time>
      </trkpt>
      <trkpt lat="45.2424" lon="6.10901">
        <ele>2876</ele>
        <time>2021-12-23T13:15:43Z</time>
      </trkpt>
      <trkpt lat="45.24253" lon="6.10901">
        <ele>2875</ele>
        <time>2021-12-23T13:15:44Z</time>
      </trkpt>
      <trkpt lat="45.24255" lon="6.10901">
        <ele>2874</ele>
        <time>2021-12-23T13:15:45Z</time>
      </trkpt>
      <trkpt lat="45.24258" lon="6.10901">
        <ele>2873</ele>
        <time>2021-12-23T13:15:46Z</time>
      </trkpt>
      <trkpt lat="45.24266" lon="6.10903">
        <ele>2872</ele>
        <time>2021-12-23T13:15:47Z</time>
      </trkpt>
      <trkpt lat="45.24268" lon="6.10905">
        <ele>2871</ele>
        <time>2021-12-23T13:15:48Z</time>
      </trkpt>
      <trkpt lat="45.24279" lon="6.10907">
        <ele>2869</ele>
        <time>2021-12-23T13:15:49Z</time>
      </trkpt>
      <trkpt lat="45.24285" lon="6.10906">
        <ele>2869</ele>
        <time>2021-12-23T13:15:50Z</time>
      </trkpt>
      <trkpt lat="45.24291" lon="6.10906">
        <ele>2868</ele>
        <time>2021-12-23T13:15:51Z</time>
      </trkpt>
      <trkpt lat="45.24295" lon="6.10904">
        <ele>2863</ele>
        <time>2021-12-23T13:15:52Z</time>
      </trkpt>
      <trkpt lat="45.243" lon="6.10906">
        <ele>2863</ele>
        <time>2021-12-23T13:15:53Z</time>
      </trkpt>
      <trkpt lat="45.24304" lon="6.10908">
        <ele>2862</ele>
        <time>2021-12-23T13:15:54Z</time>
      </trkpt>
      <trkpt lat="45.24313" lon="6.10912">
        <ele>2861</ele>
        <time>2021-12-23T13:15:55Z</time>
      </trkpt>
      <trkpt lat="45.24313" lon="6.10912">
        <ele>2860</ele>
        <time>2021-12-23T13:15:56Z</time>
      </trkpt>
      <trkpt lat="45.24316" lon="6.10918">
        <ele>2857</ele>
        <time>2021-12-23T13:15:57Z</time>
      </trkpt>
      <trkpt lat="45.24319" lon="6.10923">
        <ele>2854</ele>
        <time>2021-12-23T13:15:58Z</time>
      </trkpt>
      <trkpt lat="45.24323" lon="6.10928">
        <ele>2851</ele>
        <time>2021-12-23T13:16:00Z</time>
      </trkpt>
      <trkpt lat="45.24326" lon="6.1093">
        <ele>2850</ele>
        <time>2021-12-23T13:16:01Z</time>
      </trkpt>
      <trkpt lat="45.24329" lon="6.10931">
        <ele>2849</ele>
        <time>2021-12-23T13:16:02Z</time>
      </trkpt>
      <trkpt lat="45.24334" lon="6.10934">
        <ele>2848</ele>
        <time>2021-12-23T13:16:03Z</time>
      </trkpt>
      <trkpt lat="45.24334" lon="6.10935">
        <ele>2848</ele>
        <time>2021-12-23T13:16:04Z</time>
      </trkpt>
      <trkpt lat="45.24334" lon="6.10936">
        <ele>2847</ele>
        <time>2021-12-23T13:16:05Z</time>
      </trkpt>
      <trkpt lat="45.24334" lon="6.10937">
        <ele>2847</ele>
        <time>2021-12-23T13:16:06Z</time>
      </trkpt>
      <trkpt lat="45.24333" lon="6.10937">
        <ele>2847</ele>
        <time>2021-12-23T13:16:07Z</time>
      </trkpt>
      <trkpt lat="45.24333" lon="6.10938">
        <ele>2847</ele>
        <time>2021-12-23T13:16:08Z</time>
      </trkpt>
      <trkpt lat="45.24333" lon="6.10939">
        <ele>2847</ele>
        <time>2021-12-23T13:16:09Z</time>
      </trkpt>
      <trkpt lat="45.24332" lon="6.1094">
        <ele>2846</ele>
        <time>2021-12-23T13:16:11Z</time>
      </trkpt>
      <trkpt lat="45.24332" lon="6.1094">
        <ele>2846</ele>
        <time>2021-12-23T13:16:12Z</time>
      </trkpt>
      <trkpt lat="45.24332" lon="6.10941">
        <ele>2846</ele>
        <time>2021-12-23T13:16:13Z</time>
      </trkpt>
      <trkpt lat="45.24332" lon="6.10942">
        <ele>2845</ele>
        <time>2021-12-23T13:16:14Z</time>
      </trkpt>
      <trkpt lat="45.24331" lon="6.10943">
        <ele>2845</ele>
        <time>2021-12-23T13:16:15Z</time>
      </trkpt>
      <trkpt lat="45.24331" lon="6.10943">
        <ele>2845</ele>
        <time>2021-12-23T13:16:16Z</time>
      </trkpt>
      <trkpt lat="45.24331" lon="6.10944">
        <ele>2845</ele>
        <time>2021-12-23T13:16:17Z</time>
      </trkpt>
      <trkpt lat="45.2433" lon="6.10947">
        <ele>2845</ele>
        <time>2021-12-23T13:16:18Z</time>
      </trkpt>
      <trkpt lat="45.2433" lon="6.10949">
        <ele>2844</ele>
        <time>2021-12-23T13:16:19Z</time>
      </trkpt>
      <trkpt lat="45.24329" lon="6.10952">
        <ele>2841</ele>
        <time>2021-12-23T13:16:20Z</time>
      </trkpt>
      <trkpt lat="45.24332" lon="6.10963">
        <ele>2840</ele>
        <time>2021-12-23T13:16:21Z</time>
      </trkpt>
      <trkpt lat="45.24337" lon="6.10966">
        <ele>2838</ele>
        <time>2021-12-23T13:16:22Z</time>
      </trkpt>
      <trkpt lat="45.24341" lon="6.10969">
        <ele>2836</ele>
        <time>2021-12-23T13:16:23Z</time>
      </trkpt>
      <trkpt lat="45.24346" lon="6.10972">
        <ele>2835</ele>
        <time>2021-12-23T13:16:24Z</time>
      </trkpt>
      <trkpt lat="45.24351" lon="6.10975">
        <ele>2835</ele>
        <time>2021-12-23T13:16:25Z</time>
      </trkpt>
      <trkpt lat="45.24355" lon="6.10978">
        <ele>2830</ele>
        <time>2021-12-23T13:16:26Z</time>
      </trkpt>
      <trkpt lat="45.2436" lon="6.10977">
        <ele>2829</ele>
        <time>2021-12-23T13:16:27Z</time>
      </trkpt>
      <trkpt lat="45.24366" lon="6.10975">
        <ele>2828</ele>
        <time>2021-12-23T13:16:28Z</time>
      </trkpt>
      <trkpt lat="45.24372" lon="6.10973">
        <ele>2828</ele>
        <time>2021-12-23T13:16:29Z</time>
      </trkpt>
      <trkpt lat="45.24378" lon="6.10971">
        <ele>2827</ele>
        <time>2021-12-23T13:16:30Z</time>
      </trkpt>
      <trkpt lat="45.24384" lon="6.1097">
        <ele>2827</ele>
        <time>2021-12-23T13:16:31Z</time>
      </trkpt>
      <trkpt lat="45.24389" lon="6.1097">
        <ele>2826</ele>
        <time>2021-12-23T13:16:32Z</time>
      </trkpt>
      <trkpt lat="45.24394" lon="6.1097">
        <ele>2826</ele>
        <time>2021-12-23T13:16:33Z</time>
      </trkpt>
      <trkpt lat="45.24399" lon="6.1097">
        <ele>2824</ele>
        <time>2021-12-23T13:16:34Z</time>
      </trkpt>
      <trkpt lat="45.24404" lon="6.10973">
        <ele>2823</ele>
        <time>2021-12-23T13:16:35Z</time>
      </trkpt>
      <trkpt lat="45.24404" lon="6.10976">
        <ele>2821</ele>
        <time>2021-12-23T13:16:36Z</time>
      </trkpt>
      <trkpt lat="45.24405" lon="6.10979">
        <ele>2817</ele>
        <time>2021-12-23T13:16:37Z</time>
      </trkpt>
      <trkpt lat="45.24405" lon="6.10982">
        <ele>2816</ele>
        <time>2021-12-23T13:16:38Z</time>
      </trkpt>
      <trkpt lat="45.2441" lon="6.10994">
        <ele>2814</ele>
        <time>2021-12-23T13:16:39Z</time>
      </trkpt>
      <trkpt lat="45.24412" lon="6.10999">
        <ele>2812</ele>
        <time>2021-12-23T13:16:40Z</time>
      </trkpt>
      <trkpt lat="45.24415" lon="6.11003">
        <ele>2809</ele>
        <time>2021-12-23T13:16:41Z</time>
      </trkpt>
      <trkpt lat="45.24418" lon="6.11003">
        <ele>2808</ele>
        <time>2021-12-23T13:16:42Z</time>
      </trkpt>
      <trkpt lat="45.24421" lon="6.11002">
        <ele>2808</ele>
        <time>2021-12-23T13:16:43Z</time>
      </trkpt>
      <trkpt lat="45.24425" lon="6.11002">
        <ele>2808</ele>
        <time>2021-12-23T13:16:44Z</time>
      </trkpt>
      <trkpt lat="45.24426" lon="6.11002">
        <ele>2806</ele>
        <time>2021-12-23T13:16:45Z</time>
      </trkpt>
      <trkpt lat="45.24428" lon="6.11002">
        <ele>2805</ele>
        <time>2021-12-23T13:16:46Z</time>
      </trkpt>
      <trkpt lat="45.24429" lon="6.11002">
        <ele>2805</ele>
        <time>2021-12-23T13:16:47Z</time>
      </trkpt>
      <trkpt lat="45.24441" lon="6.11003">
        <ele>2804</ele>
        <time>2021-12-23T13:16:49Z</time>
      </trkpt>
      <trkpt lat="45.24444" lon="6.11004">
        <ele>2804</ele>
        <time>2021-12-23T13:16:50Z</time>
      </trkpt>
      <trkpt lat="45.24448" lon="6.11004">
        <ele>2803</ele>
        <time>2021-12-23T13:16:51Z</time>
      </trkpt>
      <trkpt lat="45.24451" lon="6.11004">
        <ele>2803</ele>
        <time>2021-12-23T13:16:52Z</time>
      </trkpt>
      <trkpt lat="45.24455" lon="6.11008">
        <ele>2803</ele>
        <time>2021-12-23T13:16:53Z</time>
      </trkpt>
      <trkpt lat="45.24458" lon="6.11012">
        <ele>2802</ele>
        <time>2021-12-23T13:16:54Z</time>
      </trkpt>
      <trkpt lat="45.24464" lon="6.11016">
        <ele>2801</ele>
        <time>2021-12-23T13:16:55Z</time>
      </trkpt>
      <trkpt lat="45.24469" lon="6.1102">
        <ele>2801</ele>
        <time>2021-12-23T13:16:56Z</time>
      </trkpt>
      <trkpt lat="45.24474" lon="6.11024">
        <ele>2799</ele>
        <time>2021-12-23T13:16:57Z</time>
      </trkpt>
      <trkpt lat="45.24478" lon="6.11028">
        <ele>2798</ele>
        <time>2021-12-23T13:16:58Z</time>
      </trkpt>
      <trkpt lat="45.2448" lon="6.1103">
        <ele>2797</ele>
        <time>2021-12-23T13:16:59Z</time>
      </trkpt>
      <trkpt lat="45.24482" lon="6.11032">
        <ele>2797</ele>
        <time>2021-12-23T13:17:00Z</time>
      </trkpt>
      <trkpt lat="45.24486" lon="6.11037">
        <ele>2796</ele>
        <time>2021-12-23T13:17:01Z</time>
      </trkpt>
      <trkpt lat="45.24487" lon="6.11037">
        <ele>2794</ele>
        <time>2021-12-23T13:17:02Z</time>
      </trkpt>
      <trkpt lat="45.24487" lon="6.11037">
        <ele>2794</ele>
        <time>2021-12-23T13:17:03Z</time>
      </trkpt>
      <trkpt lat="45.24488" lon="6.11038">
        <ele>2796</ele>
        <time>2021-12-23T13:17:04Z</time>
      </trkpt>
      <trkpt lat="45.24488" lon="6.11038">
        <ele>2796</ele>
        <time>2021-12-23T13:17:05Z</time>
      </trkpt>
      <trkpt lat="45.24489" lon="6.11038">
        <ele>2796</ele>
        <time>2021-12-23T13:17:06Z</time>
      </trkpt>
      <trkpt lat="45.24489" lon="6.11039">
        <ele>2794</ele>
        <time>2021-12-23T13:17:08Z</time>
      </trkpt>
      <trkpt lat="45.2449" lon="6.11039">
        <ele>2794</ele>
        <time>2021-12-23T13:17:09Z</time>
      </trkpt>
      <trkpt lat="45.2449" lon="6.11039">
        <ele>2794</ele>
        <time>2021-12-23T13:17:10Z</time>
      </trkpt>
      <trkpt lat="45.24491" lon="6.1104">
        <ele>2794</ele>
        <time>2021-12-23T13:17:11Z</time>
      </trkpt>
      <trkpt lat="45.24491" lon="6.1104">
        <ele>2794</ele>
        <time>2021-12-23T13:17:12Z</time>
      </trkpt>
      <trkpt lat="45.24492" lon="6.1104">
        <ele>2794</ele>
        <time>2021-12-23T13:17:13Z</time>
      </trkpt>
      <trkpt lat="45.24492" lon="6.11041">
        <ele>2794</ele>
        <time>2021-12-23T13:17:14Z</time>
      </trkpt>
      <trkpt lat="45.24493" lon="6.11041">
        <ele>2794</ele>
        <time>2021-12-23T13:17:15Z</time>
      </trkpt>
      <trkpt lat="45.24493" lon="6.11042">
        <ele>2794</ele>
        <time>2021-12-23T13:17:16Z</time>
      </trkpt>
      <trkpt lat="45.24493" lon="6.11042">
        <ele>2794</ele>
        <time>2021-12-23T13:17:17Z</time>
      </trkpt>
      <trkpt lat="45.24494" lon="6.11042">
        <ele>2796</ele>
        <time>2021-12-23T13:17:18Z</time>
      </trkpt>
      <trkpt lat="45.24494" lon="6.11043">
        <ele>2796</ele>
        <time>2021-12-23T13:17:19Z</time>
      </trkpt>
      <trkpt lat="45.24495" lon="6.11043">
        <ele>2796</ele>
        <time>2021-12-23T13:17:20Z</time>
      </trkpt>
      <trkpt lat="45.24495" lon="6.11043">
        <ele>2796</ele>
        <time>2021-12-23T13:17:21Z</time>
      </trkpt>
      <trkpt lat="45.24496" lon="6.11044">
        <ele>2794</ele>
        <time>2021-12-23T13:17:22Z</time>
      </trkpt>
      <trkpt lat="45.24499" lon="6.11047">
        <ele>2794</ele>
        <time>2021-12-23T13:17:23Z</time>
      </trkpt>
      <trkpt lat="45.24502" lon="6.11049">
        <ele>2793</ele>
        <time>2021-12-23T13:17:24Z</time>
      </trkpt>
      <trkpt lat="45.24504" lon="6.11052">
        <ele>2793</ele>
        <time>2021-12-23T13:17:25Z</time>
      </trkpt>
      <trkpt lat="45.24507" lon="6.11055">
        <ele>2793</ele>
        <time>2021-12-23T13:17:27Z</time>
      </trkpt>
      <trkpt lat="45.2451" lon="6.11058">
        <ele>2792</ele>
        <time>2021-12-23T13:17:28Z</time>
      </trkpt>
      <trkpt lat="45.24515" lon="6.11061">
        <ele>2790</ele>
        <time>2021-12-23T13:17:29Z</time>
      </trkpt>
      <trkpt lat="45.24525" lon="6.11065">
        <ele>2789</ele>
        <time>2021-12-23T13:17:30Z</time>
      </trkpt>
      <trkpt lat="45.24525" lon="6.11065">
        <ele>2789</ele>
        <time>2021-12-23T13:17:31Z</time>
      </trkpt>
      <trkpt lat="45.24527" lon="6.11067">
        <ele>2788</ele>
        <time>2021-12-23T13:17:32Z</time>
      </trkpt>
      <trkpt lat="45.2453" lon="6.11069">
        <ele>2787</ele>
        <time>2021-12-23T13:17:33Z</time>
      </trkpt>
      <trkpt lat="45.2454" lon="6.11077">
        <ele>2787</ele>
        <time>2021-12-23T13:17:34Z</time>
      </trkpt>
      <trkpt lat="45.24545" lon="6.1108">
        <ele>2786</ele>
        <time>2021-12-23T13:17:35Z</time>
      </trkpt>
      <trkpt lat="45.24548" lon="6.11081">
        <ele>2785</ele>
        <time>2021-12-23T13:17:36Z</time>
      </trkpt>
      <trkpt lat="45.24551" lon="6.11082">
        <ele>2785</ele>
        <time>2021-12-23T13:17:37Z</time>
      </trkpt>
      <trkpt lat="45.24554" lon="6.11083">
        <ele>2784</ele>
        <time>2021-12-23T13:17:38Z</time>
      </trkpt>
      <trkpt lat="45.24558" lon="6.11085">
        <ele>2784</ele>
        <time>2021-12-23T13:17:39Z</time>
      </trkpt>
      <trkpt lat="45.24563" lon="6.11086">
        <ele>2783</ele>
        <time>2021-12-23T13:17:40Z</time>
      </trkpt>
      <trkpt lat="45.24566" lon="6.11088">
        <ele>2783</ele>
        <time>2021-12-23T13:17:41Z</time>
      </trkpt>
      <trkpt lat="45.24568" lon="6.1109">
        <ele>2781</ele>
        <time>2021-12-23T13:17:42Z</time>
      </trkpt>
      <trkpt lat="45.24571" lon="6.11092">
        <ele>2781</ele>
        <time>2021-12-23T13:17:43Z</time>
      </trkpt>
      <trkpt lat="45.24573" lon="6.11095">
        <ele>2781</ele>
        <time>2021-12-23T13:17:44Z</time>
      </trkpt>
      <trkpt lat="45.24576" lon="6.11097">
        <ele>2781</ele>
        <time>2021-12-23T13:17:45Z</time>
      </trkpt>
      <trkpt lat="45.24578" lon="6.111">
        <ele>2781</ele>
        <time>2021-12-23T13:17:46Z</time>
      </trkpt>
      <trkpt lat="45.24586" lon="6.11111">
        <ele>2781</ele>
        <time>2021-12-23T13:17:47Z</time>
      </trkpt>
      <trkpt lat="45.24582" lon="6.11115">
        <ele>2779</ele>
        <time>2021-12-23T13:17:48Z</time>
      </trkpt>
      <trkpt lat="45.24579" lon="6.11119">
        <ele>2779</ele>
        <time>2021-12-23T13:17:49Z</time>
      </trkpt>
      <trkpt lat="45.24576" lon="6.11124">
        <ele>2774</ele>
        <time>2021-12-23T13:17:50Z</time>
      </trkpt>
      <trkpt lat="45.24569" lon="6.11128">
        <ele>2772</ele>
        <time>2021-12-23T13:17:51Z</time>
      </trkpt>
      <trkpt lat="45.24567" lon="6.11131">
        <ele>2771</ele>
        <time>2021-12-23T13:17:52Z</time>
      </trkpt>
      <trkpt lat="45.24565" lon="6.11139">
        <ele>2769</ele>
        <time>2021-12-23T13:17:53Z</time>
      </trkpt>
      <trkpt lat="45.24567" lon="6.11143">
        <ele>2768</ele>
        <time>2021-12-23T13:17:54Z</time>
      </trkpt>
      <trkpt lat="45.24571" lon="6.11149">
        <ele>2766</ele>
        <time>2021-12-23T13:17:55Z</time>
      </trkpt>
      <trkpt lat="45.24571" lon="6.11149">
        <ele>2764</ele>
        <time>2021-12-23T13:17:56Z</time>
      </trkpt>
      <trkpt lat="45.24572" lon="6.11149">
        <ele>2763</ele>
        <time>2021-12-23T13:17:57Z</time>
      </trkpt>
      <trkpt lat="45.24572" lon="6.11149">
        <ele>2763</ele>
        <time>2021-12-23T13:17:58Z</time>
      </trkpt>
      <trkpt lat="45.24573" lon="6.11148">
        <ele>2763</ele>
        <time>2021-12-23T13:17:59Z</time>
      </trkpt>
      <trkpt lat="45.24574" lon="6.11148">
        <ele>2763</ele>
        <time>2021-12-23T13:18:00Z</time>
      </trkpt>
      <trkpt lat="45.24574" lon="6.11148">
        <ele>2763</ele>
        <time>2021-12-23T13:18:01Z</time>
      </trkpt>
      <trkpt lat="45.24575" lon="6.11148">
        <ele>2763</ele>
        <time>2021-12-23T13:18:02Z</time>
      </trkpt>
      <trkpt lat="45.24575" lon="6.11148">
        <ele>2763</ele>
        <time>2021-12-23T13:18:03Z</time>
      </trkpt>
      <trkpt lat="45.24576" lon="6.11148">
        <ele>2763</ele>
        <time>2021-12-23T13:18:05Z</time>
      </trkpt>
      <trkpt lat="45.24576" lon="6.11148">
        <ele>2763</ele>
        <time>2021-12-23T13:18:06Z</time>
      </trkpt>
      <trkpt lat="45.24577" lon="6.11147">
        <ele>2763</ele>
        <time>2021-12-23T13:18:07Z</time>
      </trkpt>
      <trkpt lat="45.24577" lon="6.1115">
        <ele>2763</ele>
        <time>2021-12-23T13:18:08Z</time>
      </trkpt>
      <trkpt lat="45.24578" lon="6.11152">
        <ele>2763</ele>
        <time>2021-12-23T13:18:09Z</time>
      </trkpt>
      <trkpt lat="45.24578" lon="6.11155">
        <ele>2764</ele>
        <time>2021-12-23T13:18:10Z</time>
      </trkpt>
      <trkpt lat="45.24579" lon="6.11157">
        <ele>2764</ele>
        <time>2021-12-23T13:18:11Z</time>
      </trkpt>
      <trkpt lat="45.24579" lon="6.11159">
        <ele>2764</ele>
        <time>2021-12-23T13:18:12Z</time>
      </trkpt>
      <trkpt lat="45.24579" lon="6.11162">
        <ele>2763</ele>
        <time>2021-12-23T13:18:13Z</time>
      </trkpt>
      <trkpt lat="45.2458" lon="6.11164">
        <ele>2763</ele>
        <time>2021-12-23T13:18:14Z</time>
      </trkpt>
      <trkpt lat="45.2458" lon="6.11166">
        <ele>2764</ele>
        <time>2021-12-23T13:18:15Z</time>
      </trkpt>
      <trkpt lat="45.24581" lon="6.11169">
        <ele>2764</ele>
        <time>2021-12-23T13:18:16Z</time>
      </trkpt>
      <trkpt lat="45.24581" lon="6.11171">
        <ele>2764</ele>
        <time>2021-12-23T13:18:17Z</time>
      </trkpt>
      <trkpt lat="45.24582" lon="6.11173">
        <ele>2763</ele>
        <time>2021-12-23T13:18:18Z</time>
      </trkpt>
      <trkpt lat="45.24582" lon="6.11176">
        <ele>2763</ele>
        <time>2021-12-23T13:18:19Z</time>
      </trkpt>
      <trkpt lat="45.24582" lon="6.11178">
        <ele>2763</ele>
        <time>2021-12-23T13:18:20Z</time>
      </trkpt>
      <trkpt lat="45.24585" lon="6.11186">
        <ele>2763</ele>
        <time>2021-12-23T13:18:21Z</time>
      </trkpt>
      <trkpt lat="45.24588" lon="6.11194">
        <ele>2761</ele>
        <time>2021-12-23T13:18:22Z</time>
      </trkpt>
      <trkpt lat="45.24591" lon="6.11202">
        <ele>2761</ele>
        <time>2021-12-23T13:18:23Z</time>
      </trkpt>
      <trkpt lat="45.24594" lon="6.1121">
        <ele>2757</ele>
        <time>2021-12-23T13:18:24Z</time>
      </trkpt>
      <trkpt lat="45.24599" lon="6.11215">
        <ele>2757</ele>
        <time>2021-12-23T13:18:25Z</time>
      </trkpt>
      <trkpt lat="45.24604" lon="6.11219">
        <ele>2755</ele>
        <time>2021-12-23T13:18:26Z</time>
      </trkpt>
      <trkpt lat="45.24609" lon="6.11222">
        <ele>2755</ele>
        <time>2021-12-23T13:18:27Z</time>
      </trkpt>
      <trkpt lat="45.24614" lon="6.11226">
        <ele>2750</ele>
        <time>2021-12-23T13:18:28Z</time>
      </trkpt>
      <trkpt lat="45.2462" lon="6.11227">
        <ele>2750</ele>
        <time>2021-12-23T13:18:29Z</time>
      </trkpt>
      <trkpt lat="45.24623" lon="6.11228">
        <ele>2747</ele>
        <time>2021-12-23T13:18:30Z</time>
      </trkpt>
      <trkpt lat="45.24626" lon="6.11229">
        <ele>2744</ele>
        <time>2021-12-23T13:18:31Z</time>
      </trkpt>
      <trkpt lat="45.24634" lon="6.11234">
        <ele>2744</ele>
        <time>2021-12-23T13:18:32Z</time>
      </trkpt>
      <trkpt lat="45.24637" lon="6.11236">
        <ele>2744</ele>
        <time>2021-12-23T13:18:33Z</time>
      </trkpt>
      <trkpt lat="45.24645" lon="6.11245">
        <ele>2743</ele>
        <time>2021-12-23T13:18:34Z</time>
      </trkpt>
      <trkpt lat="45.24649" lon="6.1125">
        <ele>2743</ele>
        <time>2021-12-23T13:18:35Z</time>
      </trkpt>
      <trkpt lat="45.24653" lon="6.11255">
        <ele>2743</ele>
        <time>2021-12-23T13:18:36Z</time>
      </trkpt>
      <trkpt lat="45.24656" lon="6.1126">
        <ele>2743</ele>
        <time>2021-12-23T13:18:37Z</time>
      </trkpt>
      <trkpt lat="45.2466" lon="6.11262">
        <ele>2743</ele>
        <time>2021-12-23T13:18:38Z</time>
      </trkpt>
      <trkpt lat="45.24665" lon="6.11264">
        <ele>2742</ele>
        <time>2021-12-23T13:18:39Z</time>
      </trkpt>
      <trkpt lat="45.24665" lon="6.11264">
        <ele>2742</ele>
        <time>2021-12-23T13:18:40Z</time>
      </trkpt>
      <trkpt lat="45.24665" lon="6.11264">
        <ele>2741</ele>
        <time>2021-12-23T13:18:41Z</time>
      </trkpt>
      <trkpt lat="45.24675" lon="6.11271">
        <ele>2741</ele>
        <time>2021-12-23T13:18:43Z</time>
      </trkpt>
      <trkpt lat="45.24676" lon="6.11271">
        <ele>2740</ele>
        <time>2021-12-23T13:18:44Z</time>
      </trkpt>
      <trkpt lat="45.24678" lon="6.11271">
        <ele>2739</ele>
        <time>2021-12-23T13:18:45Z</time>
      </trkpt>
      <trkpt lat="45.24679" lon="6.11272">
        <ele>2739</ele>
        <time>2021-12-23T13:18:46Z</time>
      </trkpt>
      <trkpt lat="45.24686" lon="6.11272">
        <ele>2739</ele>
        <time>2021-12-23T13:18:47Z</time>
      </trkpt>
      <trkpt lat="45.24688" lon="6.11271">
        <ele>2739</ele>
        <time>2021-12-23T13:18:48Z</time>
      </trkpt>
      <trkpt lat="45.2469" lon="6.1127">
        <ele>2738</ele>
        <time>2021-12-23T13:18:49Z</time>
      </trkpt>
      <trkpt lat="45.24692" lon="6.1127">
        <ele>2738</ele>
        <time>2021-12-23T13:18:50Z</time>
      </trkpt>
      <trkpt lat="45.24694" lon="6.11269">
        <ele>2738</ele>
        <time>2021-12-23T13:18:51Z</time>
      </trkpt>
      <trkpt lat="45.24694" lon="6.11269">
        <ele>2737</ele>
        <time>2021-12-23T13:18:52Z</time>
      </trkpt>
      <trkpt lat="45.24695" lon="6.11269">
        <ele>2737</ele>
        <time>2021-12-23T13:18:53Z</time>
      </trkpt>
      <trkpt lat="45.24695" lon="6.11269">
        <ele>2737</ele>
        <time>2021-12-23T13:18:54Z</time>
      </trkpt>
      <trkpt lat="45.24695" lon="6.11269">
        <ele>2737</ele>
        <time>2021-12-23T13:18:55Z</time>
      </trkpt>
      <trkpt lat="45.24695" lon="6.11268">
        <ele>2737</ele>
        <time>2021-12-23T13:18:56Z</time>
      </trkpt>
      <trkpt lat="45.24695" lon="6.11268">
        <ele>2737</ele>
        <time>2021-12-23T13:18:57Z</time>
      </trkpt>
      <trkpt lat="45.24695" lon="6.11268">
        <ele>2737</ele>
        <time>2021-12-23T13:18:58Z</time>
      </trkpt>
      <trkpt lat="45.24695" lon="6.11268">
        <ele>2737</ele>
        <time>2021-12-23T13:18:59Z</time>
      </trkpt>
      <trkpt lat="45.24695" lon="6.11268">
        <ele>2737</ele>
        <time>2021-12-23T13:19:00Z</time>
      </trkpt>
      <trkpt lat="45.24695" lon="6.11268">
        <ele>2737</ele>
        <time>2021-12-23T13:19:02Z</time>
      </trkpt>
      <trkpt lat="45.24696" lon="6.11268">
        <ele>2737</ele>
        <time>2021-12-23T13:19:03Z</time>
      </trkpt>
      <trkpt lat="45.24696" lon="6.11268">
        <ele>2737</ele>
        <time>2021-12-23T13:19:04Z</time>
      </trkpt>
      <trkpt lat="45.24696" lon="6.11268">
        <ele>2737</ele>
        <time>2021-12-23T13:19:05Z</time>
      </trkpt>
      <trkpt lat="45.24696" lon="6.11268">
        <ele>2737</ele>
        <time>2021-12-23T13:19:06Z</time>
      </trkpt>
      <trkpt lat="45.24696" lon="6.11268">
        <ele>2737</ele>
        <time>2021-12-23T13:19:07Z</time>
      </trkpt>
      <trkpt lat="45.24696" lon="6.11267">
        <ele>2737</ele>
        <time>2021-12-23T13:19:08Z</time>
      </trkpt>
      <trkpt lat="45.24696" lon="6.11267">
        <ele>2737</ele>
        <time>2021-12-23T13:19:09Z</time>
      </trkpt>
      <trkpt lat="45.24696" lon="6.11267">
        <ele>2737</ele>
        <time>2021-12-23T13:19:10Z</time>
      </trkpt>
      <trkpt lat="45.24696" lon="6.11267">
        <ele>2737</ele>
        <time>2021-12-23T13:19:11Z</time>
      </trkpt>
      <trkpt lat="45.24697" lon="6.11267">
        <ele>2737</ele>
        <time>2021-12-23T13:19:12Z</time>
      </trkpt>
      <trkpt lat="45.24697" lon="6.11267">
        <ele>2737</ele>
        <time>2021-12-23T13:19:13Z</time>
      </trkpt>
      <trkpt lat="45.24697" lon="6.11267">
        <ele>2737</ele>
        <time>2021-12-23T13:19:14Z</time>
      </trkpt>
      <trkpt lat="45.24697" lon="6.11267">
        <ele>2737</ele>
        <time>2021-12-23T13:19:15Z</time>
      </trkpt>
      <trkpt lat="45.24697" lon="6.11267">
        <ele>2737</ele>
        <time>2021-12-23T13:19:16Z</time>
      </trkpt>
      <trkpt lat="45.24697" lon="6.11267">
        <ele>2737</ele>
        <time>2021-12-23T13:19:17Z</time>
      </trkpt>
      <trkpt lat="45.24697" lon="6.11267">
        <ele>2737</ele>
        <time>2021-12-23T13:19:18Z</time>
      </trkpt>
      <trkpt lat="45.24697" lon="6.11267">
        <ele>2737</ele>
        <time>2021-12-23T13:19:19Z</time>
      </trkpt>
      <trkpt lat="45.24697" lon="6.11266">
        <ele>2737</ele>
        <time>2021-12-23T13:19:21Z</time>
      </trkpt>
      <trkpt lat="45.24698" lon="6.11266">
        <ele>2737</ele>
        <time>2021-12-23T13:19:22Z</time>
      </trkpt>
      <trkpt lat="45.24698" lon="6.11266">
        <ele>2737</ele>
        <time>2021-12-23T13:19:23Z</time>
      </trkpt>
      <trkpt lat="45.24698" lon="6.11266">
        <ele>2738</ele>
        <time>2021-12-23T13:19:24Z</time>
      </trkpt>
      <trkpt lat="45.24698" lon="6.11266">
        <ele>2738</ele>
        <time>2021-12-23T13:19:25Z</time>
      </trkpt>
      <trkpt lat="45.24698" lon="6.11266">
        <ele>2738</ele>
        <time>2021-12-23T13:19:26Z</time>
      </trkpt>
      <trkpt lat="45.24698" lon="6.11266">
        <ele>2738</ele>
        <time>2021-12-23T13:19:27Z</time>
      </trkpt>
      <trkpt lat="45.24698" lon="6.11266">
        <ele>2738</ele>
        <time>2021-12-23T13:19:28Z</time>
      </trkpt>
      <trkpt lat="45.24698" lon="6.11266">
        <ele>2738</ele>
        <time>2021-12-23T13:19:29Z</time>
      </trkpt>
      <trkpt lat="45.24698" lon="6.11266">
        <ele>2738</ele>
        <time>2021-12-23T13:19:30Z</time>
      </trkpt>
      <trkpt lat="45.24699" lon="6.11266">
        <ele>2739</ele>
        <time>2021-12-23T13:19:31Z</time>
      </trkpt>
      <trkpt lat="45.24699" lon="6.11266">
        <ele>2738</ele>
        <time>2021-12-23T13:19:32Z</time>
      </trkpt>
      <trkpt lat="45.24699" lon="6.11265">
        <ele>2737</ele>
        <time>2021-12-23T13:19:33Z</time>
      </trkpt>
      <trkpt lat="45.24699" lon="6.11265">
        <ele>2737</ele>
        <time>2021-12-23T13:19:34Z</time>
      </trkpt>
      <trkpt lat="45.24699" lon="6.11265">
        <ele>2737</ele>
        <time>2021-12-23T13:19:35Z</time>
      </trkpt>
      <trkpt lat="45.24699" lon="6.11265">
        <ele>2736</ele>
        <time>2021-12-23T13:19:36Z</time>
      </trkpt>
      <trkpt lat="45.24699" lon="6.11265">
        <ele>2736</ele>
        <time>2021-12-23T13:19:37Z</time>
      </trkpt>
      <trkpt lat="45.24699" lon="6.11265">
        <ele>2737</ele>
        <time>2021-12-23T13:19:38Z</time>
      </trkpt>
      <trkpt lat="45.247" lon="6.11265">
        <ele>2737</ele>
        <time>2021-12-23T13:19:40Z</time>
      </trkpt>
      <trkpt lat="45.247" lon="6.11265">
        <ele>2737</ele>
        <time>2021-12-23T13:19:41Z</time>
      </trkpt>
      <trkpt lat="45.247" lon="6.11265">
        <ele>2737</ele>
        <time>2021-12-23T13:19:42Z</time>
      </trkpt>
      <trkpt lat="45.247" lon="6.11265">
        <ele>2737</ele>
        <time>2021-12-23T13:19:43Z</time>
      </trkpt>
      <trkpt lat="45.247" lon="6.11265">
        <ele>2737</ele>
        <time>2021-12-23T13:19:44Z</time>
      </trkpt>
      <trkpt lat="45.247" lon="6.11264">
        <ele>2737</ele>
        <time>2021-12-23T13:19:45Z</time>
      </trkpt>
      <trkpt lat="45.247" lon="6.11264">
        <ele>2737</ele>
        <time>2021-12-23T13:19:46Z</time>
      </trkpt>
      <trkpt lat="45.247" lon="6.11264">
        <ele>2737</ele>
        <time>2021-12-23T13:19:47Z</time>
      </trkpt>
      <trkpt lat="45.247" lon="6.11264">
        <ele>2737</ele>
        <time>2021-12-23T13:19:48Z</time>
      </trkpt>
      <trkpt lat="45.24701" lon="6.11264">
        <ele>2737</ele>
        <time>2021-12-23T13:19:49Z</time>
      </trkpt>
      <trkpt lat="45.24701" lon="6.11264">
        <ele>2737</ele>
        <time>2021-12-23T13:19:50Z</time>
      </trkpt>
      <trkpt lat="45.24701" lon="6.11264">
        <ele>2738</ele>
        <time>2021-12-23T13:19:51Z</time>
      </trkpt>
      <trkpt lat="45.24701" lon="6.11264">
        <ele>2738</ele>
        <time>2021-12-23T13:19:52Z</time>
      </trkpt>
      <trkpt lat="45.24701" lon="6.11264">
        <ele>2738</ele>
        <time>2021-12-23T13:19:53Z</time>
      </trkpt>
      <trkpt lat="45.24701" lon="6.11264">
        <ele>2738</ele>
        <time>2021-12-23T13:19:54Z</time>
      </trkpt>
      <trkpt lat="45.24701" lon="6.11264">
        <ele>2738</ele>
        <time>2021-12-23T13:19:55Z</time>
      </trkpt>
      <trkpt lat="45.24701" lon="6.11264">
        <ele>2738</ele>
        <time>2021-12-23T13:19:56Z</time>
      </trkpt>
      <trkpt lat="45.24701" lon="6.11263">
        <ele>2738</ele>
        <time>2021-12-23T13:19:57Z</time>
      </trkpt>
      <trkpt lat="45.24702" lon="6.11263">
        <ele>2738</ele>
        <time>2021-12-23T13:19:59Z</time>
      </trkpt>
      <trkpt lat="45.24702" lon="6.11263">
        <ele>2738</ele>
        <time>2021-12-23T13:20:00Z</time>
      </trkpt>
      <trkpt lat="45.24702" lon="6.11263">
        <ele>2738</ele>
        <time>2021-12-23T13:20:01Z</time>
      </trkpt>
      <trkpt lat="45.24702" lon="6.11263">
        <ele>2738</ele>
        <time>2021-12-23T13:20:02Z</time>
      </trkpt>
      <trkpt lat="45.24702" lon="6.11263">
        <ele>2738</ele>
        <time>2021-12-23T13:20:03Z</time>
      </trkpt>
      <trkpt lat="45.24702" lon="6.11263">
        <ele>2738</ele>
        <time>2021-12-23T13:20:04Z</time>
      </trkpt>
      <trkpt lat="45.24702" lon="6.11263">
        <ele>2738</ele>
        <time>2021-12-23T13:20:05Z</time>
      </trkpt>
      <trkpt lat="45.24702" lon="6.11263">
        <ele>2738</ele>
        <time>2021-12-23T13:20:06Z</time>
      </trkpt>
      <trkpt lat="45.24702" lon="6.11263">
        <ele>2738</ele>
        <time>2021-12-23T13:20:07Z</time>
      </trkpt>
      <trkpt lat="45.24703" lon="6.11263">
        <ele>2738</ele>
        <time>2021-12-23T13:20:08Z</time>
      </trkpt>
      <trkpt lat="45.24703" lon="6.11263">
        <ele>2738</ele>
        <time>2021-12-23T13:20:09Z</time>
      </trkpt>
      <trkpt lat="45.24703" lon="6.11262">
        <ele>2738</ele>
        <time>2021-12-23T13:20:10Z</time>
      </trkpt>
      <trkpt lat="45.24703" lon="6.11262">
        <ele>2738</ele>
        <time>2021-12-23T13:20:11Z</time>
      </trkpt>
      <trkpt lat="45.24703" lon="6.11262">
        <ele>2737</ele>
        <time>2021-12-23T13:20:12Z</time>
      </trkpt>
      <trkpt lat="45.24703" lon="6.11262">
        <ele>2737</ele>
        <time>2021-12-23T13:20:13Z</time>
      </trkpt>
      <trkpt lat="45.24703" lon="6.11262">
        <ele>2737</ele>
        <time>2021-12-23T13:20:14Z</time>
      </trkpt>
      <trkpt lat="45.24703" lon="6.11262">
        <ele>2737</ele>
        <time>2021-12-23T13:20:15Z</time>
      </trkpt>
      <trkpt lat="45.24703" lon="6.11262">
        <ele>2737</ele>
        <time>2021-12-23T13:20:16Z</time>
      </trkpt>
      <trkpt lat="45.24704" lon="6.11262">
        <ele>2737</ele>
        <time>2021-12-23T13:20:17Z</time>
      </trkpt>
      <trkpt lat="45.24704" lon="6.11262">
        <ele>2736</ele>
        <time>2021-12-23T13:20:18Z</time>
      </trkpt>
      <trkpt lat="45.24707" lon="6.1126">
        <ele>2736</ele>
        <time>2021-12-23T13:20:19Z</time>
      </trkpt>
      <trkpt lat="45.24711" lon="6.11258">
        <ele>2736</ele>
        <time>2021-12-23T13:20:20Z</time>
      </trkpt>
      <trkpt lat="45.24714" lon="6.11257">
        <ele>2735</ele>
        <time>2021-12-23T13:20:21Z</time>
      </trkpt>
      <trkpt lat="45.24716" lon="6.11256">
        <ele>2733</ele>
        <time>2021-12-23T13:20:22Z</time>
      </trkpt>
      <trkpt lat="45.24718" lon="6.11255">
        <ele>2733</ele>
        <time>2021-12-23T13:20:23Z</time>
      </trkpt>
      <trkpt lat="45.2472" lon="6.11254">
        <ele>2733</ele>
        <time>2021-12-23T13:20:24Z</time>
      </trkpt>
      <trkpt lat="45.24732" lon="6.1125">
        <ele>2732</ele>
        <time>2021-12-23T13:20:25Z</time>
      </trkpt>
      <trkpt lat="45.24739" lon="6.11248">
        <ele>2732</ele>
        <time>2021-12-23T13:20:26Z</time>
      </trkpt>
      <trkpt lat="45.24745" lon="6.11246">
        <ele>2731</ele>
        <time>2021-12-23T13:20:27Z</time>
      </trkpt>
      <trkpt lat="45.24752" lon="6.11245">
        <ele>2731</ele>
        <time>2021-12-23T13:20:28Z</time>
      </trkpt>
      <trkpt lat="45.24758" lon="6.11243">
        <ele>2729</ele>
        <time>2021-12-23T13:20:29Z</time>
      </trkpt>
      <trkpt lat="45.24764" lon="6.11241">
        <ele>2727</ele>
        <time>2021-12-23T13:20:30Z</time>
      </trkpt>
      <trkpt lat="45.24769" lon="6.11241">
        <ele>2726</ele>
        <time>2021-12-23T13:20:31Z</time>
      </trkpt>
      <trkpt lat="45.24774" lon="6.11242">
        <ele>2725</ele>
        <time>2021-12-23T13:20:32Z</time>
      </trkpt>
      <trkpt lat="45.24779" lon="6.11242">
        <ele>2725</ele>
        <time>2021-12-23T13:20:33Z</time>
      </trkpt>
      <trkpt lat="45.24783" lon="6.11242">
        <ele>2724</ele>
        <time>2021-12-23T13:20:34Z</time>
      </trkpt>
      <trkpt lat="45.24786" lon="6.11243">
        <ele>2723</ele>
        <time>2021-12-23T13:20:35Z</time>
      </trkpt>
      <trkpt lat="45.24789" lon="6.11243">
        <ele>2723</ele>
        <time>2021-12-23T13:20:36Z</time>
      </trkpt>
      <trkpt lat="45.24793" lon="6.11243">
        <ele>2721</ele>
        <time>2021-12-23T13:20:37Z</time>
      </trkpt>
      <trkpt lat="45.24795" lon="6.11243">
        <ele>2721</ele>
        <time>2021-12-23T13:20:38Z</time>
      </trkpt>
      <trkpt lat="45.24797" lon="6.11243">
        <ele>2721</ele>
        <time>2021-12-23T13:20:39Z</time>
      </trkpt>
      <trkpt lat="45.24799" lon="6.11243">
        <ele>2721</ele>
        <time>2021-12-23T13:20:40Z</time>
      </trkpt>
      <trkpt lat="45.24808" lon="6.11246">
        <ele>2720</ele>
        <time>2021-12-23T13:20:41Z</time>
      </trkpt>
      <trkpt lat="45.2481" lon="6.11248">
        <ele>2719</ele>
        <time>2021-12-23T13:20:42Z</time>
      </trkpt>
      <trkpt lat="45.24817" lon="6.11256">
        <ele>2717</ele>
        <time>2021-12-23T13:20:43Z</time>
      </trkpt>
      <trkpt lat="45.24819" lon="6.11259">
        <ele>2716</ele>
        <time>2021-12-23T13:20:44Z</time>
      </trkpt>
      <trkpt lat="45.24824" lon="6.11268">
        <ele>2713</ele>
        <time>2021-12-23T13:20:45Z</time>
      </trkpt>
      <trkpt lat="45.24824" lon="6.11272">
        <ele>2713</ele>
        <time>2021-12-23T13:20:46Z</time>
      </trkpt>
      <trkpt lat="45.24825" lon="6.11276">
        <ele>2707</ele>
        <time>2021-12-23T13:20:47Z</time>
      </trkpt>
      <trkpt lat="45.24825" lon="6.11279">
        <ele>2706</ele>
        <time>2021-12-23T13:20:48Z</time>
      </trkpt>
      <trkpt lat="45.24825" lon="6.11281">
        <ele>2705</ele>
        <time>2021-12-23T13:20:49Z</time>
      </trkpt>
      <trkpt lat="45.24826" lon="6.11284">
        <ele>2705</ele>
        <time>2021-12-23T13:20:50Z</time>
      </trkpt>
      <trkpt lat="45.24828" lon="6.11285">
        <ele>2705</ele>
        <time>2021-12-23T13:20:51Z</time>
      </trkpt>
      <trkpt lat="45.2483" lon="6.11286">
        <ele>2704</ele>
        <time>2021-12-23T13:20:52Z</time>
      </trkpt>
      <trkpt lat="45.24832" lon="6.11287">
        <ele>2703</ele>
        <time>2021-12-23T13:20:53Z</time>
      </trkpt>
      <trkpt lat="45.24845" lon="6.1129">
        <ele>2702</ele>
        <time>2021-12-23T13:20:54Z</time>
      </trkpt>
      <trkpt lat="45.24852" lon="6.11291">
        <ele>2702</ele>
        <time>2021-12-23T13:20:55Z</time>
      </trkpt>
      <trkpt lat="45.24859" lon="6.11292">
        <ele>2699</ele>
        <time>2021-12-23T13:20:56Z</time>
      </trkpt>
      <trkpt lat="45.24867" lon="6.11296">
        <ele>2699</ele>
        <time>2021-12-23T13:20:57Z</time>
      </trkpt>
      <trkpt lat="45.2487" lon="6.11297">
        <ele>2697</ele>
        <time>2021-12-23T13:20:58Z</time>
      </trkpt>
      <trkpt lat="45.24875" lon="6.11299">
        <ele>2695</ele>
        <time>2021-12-23T13:20:59Z</time>
      </trkpt>
      <trkpt lat="45.24877" lon="6.113">
        <ele>2695</ele>
        <time>2021-12-23T13:21:00Z</time>
      </trkpt>
      <trkpt lat="45.24878" lon="6.113">
        <ele>2695</ele>
        <time>2021-12-23T13:21:01Z</time>
      </trkpt>
      <trkpt lat="45.2488" lon="6.11301">
        <ele>2695</ele>
        <time>2021-12-23T13:21:02Z</time>
      </trkpt>
      <trkpt lat="45.24888" lon="6.11302">
        <ele>2694</ele>
        <time>2021-12-23T13:21:03Z</time>
      </trkpt>
      <trkpt lat="45.24891" lon="6.11301">
        <ele>2694</ele>
        <time>2021-12-23T13:21:04Z</time>
      </trkpt>
      <trkpt lat="45.249" lon="6.11299">
        <ele>2693</ele>
        <time>2021-12-23T13:21:05Z</time>
      </trkpt>
      <trkpt lat="45.24902" lon="6.11299">
        <ele>2693</ele>
        <time>2021-12-23T13:21:06Z</time>
      </trkpt>
      <trkpt lat="45.24905" lon="6.11299">
        <ele>2693</ele>
        <time>2021-12-23T13:21:07Z</time>
      </trkpt>
      <trkpt lat="45.24908" lon="6.11298">
        <ele>2692</ele>
        <time>2021-12-23T13:21:08Z</time>
      </trkpt>
      <trkpt lat="45.24909" lon="6.11299">
        <ele>2691</ele>
        <time>2021-12-23T13:21:09Z</time>
      </trkpt>
      <trkpt lat="45.24911" lon="6.11299">
        <ele>2691</ele>
        <time>2021-12-23T13:21:10Z</time>
      </trkpt>
      <trkpt lat="45.24913" lon="6.113">
        <ele>2690</ele>
        <time>2021-12-23T13:21:11Z</time>
      </trkpt>
      <trkpt lat="45.24926" lon="6.11303">
        <ele>2689</ele>
        <time>2021-12-23T13:21:12Z</time>
      </trkpt>
      <trkpt lat="45.24933" lon="6.11305">
        <ele>2689</ele>
        <time>2021-12-23T13:21:13Z</time>
      </trkpt>
      <trkpt lat="45.2494" lon="6.11307">
        <ele>2689</ele>
        <time>2021-12-23T13:21:15Z</time>
      </trkpt>
      <trkpt lat="45.24943" lon="6.11309">
        <ele>2689</ele>
        <time>2021-12-23T13:21:16Z</time>
      </trkpt>
      <trkpt lat="45.24946" lon="6.11311">
        <ele>2685</ele>
        <time>2021-12-23T13:21:17Z</time>
      </trkpt>
      <trkpt lat="45.24949" lon="6.11313">
        <ele>2683</ele>
        <time>2021-12-23T13:21:18Z</time>
      </trkpt>
      <trkpt lat="45.24951" lon="6.11314">
        <ele>2683</ele>
        <time>2021-12-23T13:21:19Z</time>
      </trkpt>
      <trkpt lat="45.24953" lon="6.11316">
        <ele>2682</ele>
        <time>2021-12-23T13:21:20Z</time>
      </trkpt>
      <trkpt lat="45.24955" lon="6.11317">
        <ele>2682</ele>
        <time>2021-12-23T13:21:21Z</time>
      </trkpt>
      <trkpt lat="45.24957" lon="6.11318">
        <ele>2682</ele>
        <time>2021-12-23T13:21:22Z</time>
      </trkpt>
      <trkpt lat="45.24959" lon="6.11319">
        <ele>2681</ele>
        <time>2021-12-23T13:21:23Z</time>
      </trkpt>
      <trkpt lat="45.24961" lon="6.1132">
        <ele>2681</ele>
        <time>2021-12-23T13:21:24Z</time>
      </trkpt>
      <trkpt lat="45.24962" lon="6.11321">
        <ele>2680</ele>
        <time>2021-12-23T13:21:25Z</time>
      </trkpt>
      <trkpt lat="45.24972" lon="6.11326">
        <ele>2679</ele>
        <time>2021-12-23T13:21:26Z</time>
      </trkpt>
      <trkpt lat="45.24977" lon="6.11328">
        <ele>2679</ele>
        <time>2021-12-23T13:21:27Z</time>
      </trkpt>
      <trkpt lat="45.2498" lon="6.11329">
        <ele>2679</ele>
        <time>2021-12-23T13:21:28Z</time>
      </trkpt>
      <trkpt lat="45.24984" lon="6.1133">
        <ele>2678</ele>
        <time>2021-12-23T13:21:29Z</time>
      </trkpt>
      <trkpt lat="45.24998" lon="6.11331">
        <ele>2676</ele>
        <time>2021-12-23T13:21:30Z</time>
      </trkpt>
      <trkpt lat="45.25005" lon="6.11329">
        <ele>2676</ele>
        <time>2021-12-23T13:21:31Z</time>
      </trkpt>
      <trkpt lat="45.25012" lon="6.11328">
        <ele>2671</ele>
        <time>2021-12-23T13:21:32Z</time>
      </trkpt>
      <trkpt lat="45.25018" lon="6.11326">
        <ele>2671</ele>
        <time>2021-12-23T13:21:33Z</time>
      </trkpt>
      <trkpt lat="45.25018" lon="6.11326">
        <ele>2669</ele>
        <time>2021-12-23T13:21:34Z</time>
      </trkpt>
      <trkpt lat="45.25019" lon="6.11325">
        <ele>2669</ele>
        <time>2021-12-23T13:21:35Z</time>
      </trkpt>
      <trkpt lat="45.25021" lon="6.11324">
        <ele>2668</ele>
        <time>2021-12-23T13:21:36Z</time>
      </trkpt>
      <trkpt lat="45.25022" lon="6.11323">
        <ele>2667</ele>
        <time>2021-12-23T13:21:37Z</time>
      </trkpt>
      <trkpt lat="45.25023" lon="6.11322">
        <ele>2666</ele>
        <time>2021-12-23T13:21:38Z</time>
      </trkpt>
      <trkpt lat="45.25026" lon="6.11317">
        <ele>2665</ele>
        <time>2021-12-23T13:21:39Z</time>
      </trkpt>
      <trkpt lat="45.25026" lon="6.11316">
        <ele>2665</ele>
        <time>2021-12-23T13:21:40Z</time>
      </trkpt>
      <trkpt lat="45.25025" lon="6.11314">
        <ele>2665</ele>
        <time>2021-12-23T13:21:41Z</time>
      </trkpt>
      <trkpt lat="45.25024" lon="6.11313">
        <ele>2665</ele>
        <time>2021-12-23T13:21:42Z</time>
      </trkpt>
      <trkpt lat="45.25023" lon="6.11311">
        <ele>2666</ele>
        <time>2021-12-23T13:21:43Z</time>
      </trkpt>
      <trkpt lat="45.25022" lon="6.1131">
        <ele>2666</ele>
        <time>2021-12-23T13:21:44Z</time>
      </trkpt>
      <trkpt lat="45.25021" lon="6.11308">
        <ele>2665</ele>
        <time>2021-12-23T13:21:45Z</time>
      </trkpt>
      <trkpt lat="45.25023" lon="6.11308">
        <ele>2665</ele>
        <time>2021-12-23T13:21:46Z</time>
      </trkpt>
      <trkpt lat="45.25025" lon="6.11308">
        <ele>2665</ele>
        <time>2021-12-23T13:21:47Z</time>
      </trkpt>
      <trkpt lat="45.25027" lon="6.11308">
        <ele>2665</ele>
        <time>2021-12-23T13:21:48Z</time>
      </trkpt>
      <trkpt lat="45.25029" lon="6.11308">
        <ele>2664</ele>
        <time>2021-12-23T13:21:49Z</time>
      </trkpt>
      <trkpt lat="45.25031" lon="6.11308">
        <ele>2664</ele>
        <time>2021-12-23T13:21:50Z</time>
      </trkpt>
      <trkpt lat="45.2503" lon="6.11308">
        <ele>2664</ele>
        <time>2021-12-23T13:21:51Z</time>
      </trkpt>
      <trkpt lat="45.25029" lon="6.11309">
        <ele>2664</ele>
        <time>2021-12-23T13:21:53Z</time>
      </trkpt>
      <trkpt lat="45.25028" lon="6.1131">
        <ele>2664</ele>
        <time>2021-12-23T13:21:54Z</time>
      </trkpt>
      <trkpt lat="45.25027" lon="6.1131">
        <ele>2664</ele>
        <time>2021-12-23T13:21:55Z</time>
      </trkpt>
      <trkpt lat="45.25026" lon="6.11311">
        <ele>2664</ele>
        <time>2021-12-23T13:21:56Z</time>
      </trkpt>
      <trkpt lat="45.25025" lon="6.11311">
        <ele>2664</ele>
        <time>2021-12-23T13:21:57Z</time>
      </trkpt>
      <trkpt lat="45.25024" lon="6.11312">
        <ele>2664</ele>
        <time>2021-12-23T13:21:58Z</time>
      </trkpt>
      <trkpt lat="45.25023" lon="6.11312">
        <ele>2665</ele>
        <time>2021-12-23T13:21:59Z</time>
      </trkpt>
      <trkpt lat="45.25022" lon="6.11313">
        <ele>2665</ele>
        <time>2021-12-23T13:22:00Z</time>
      </trkpt>
      <trkpt lat="45.25021" lon="6.11313">
        <ele>2665</ele>
        <time>2021-12-23T13:22:01Z</time>
      </trkpt>
      <trkpt lat="45.25021" lon="6.11313">
        <ele>2665</ele>
        <time>2021-12-23T13:22:02Z</time>
      </trkpt>
      <trkpt lat="45.25021" lon="6.11313">
        <ele>2665</ele>
        <time>2021-12-23T13:22:03Z</time>
      </trkpt>
      <trkpt lat="45.25021" lon="6.11313">
        <ele>2665</ele>
        <time>2021-12-23T13:22:04Z</time>
      </trkpt>
      <trkpt lat="45.25021" lon="6.11313">
        <ele>2665</ele>
        <time>2021-12-23T13:22:05Z</time>
      </trkpt>
      <trkpt lat="45.25021" lon="6.11313">
        <ele>2665</ele>
        <time>2021-12-23T13:22:06Z</time>
      </trkpt>
      <trkpt lat="45.25021" lon="6.11313">
        <ele>2665</ele>
        <time>2021-12-23T13:22:07Z</time>
      </trkpt>
      <trkpt lat="45.25021" lon="6.11313">
        <ele>2665</ele>
        <time>2021-12-23T13:22:08Z</time>
      </trkpt>
      <trkpt lat="45.25021" lon="6.11313">
        <ele>2664</ele>
        <time>2021-12-23T13:22:09Z</time>
      </trkpt>
      <trkpt lat="45.25021" lon="6.11313">
        <ele>2664</ele>
        <time>2021-12-23T13:22:10Z</time>
      </trkpt>
      <trkpt lat="45.25023" lon="6.11327">
        <ele>2664</ele>
        <time>2021-12-23T13:22:12Z</time>
      </trkpt>
      <trkpt lat="45.25021" lon="6.11331">
        <ele>2664</ele>
        <time>2021-12-23T13:22:13Z</time>
      </trkpt>
      <trkpt lat="45.25019" lon="6.11334">
        <ele>2664</ele>
        <time>2021-12-23T13:22:14Z</time>
      </trkpt>
      <trkpt lat="45.25017" lon="6.11338">
        <ele>2664</ele>
        <time>2021-12-23T13:22:15Z</time>
      </trkpt>
      <trkpt lat="45.25014" lon="6.11342">
        <ele>2664</ele>
        <time>2021-12-23T13:22:16Z</time>
      </trkpt>
      <trkpt lat="45.2501" lon="6.11346">
        <ele>2664</ele>
        <time>2021-12-23T13:22:17Z</time>
      </trkpt>
      <trkpt lat="45.2501" lon="6.11346">
        <ele>2663</ele>
        <time>2021-12-23T13:22:18Z</time>
      </trkpt>
      <trkpt lat="45.2501" lon="6.11346">
        <ele>2662</ele>
        <time>2021-12-23T13:22:19Z</time>
      </trkpt>
      <trkpt lat="45.24997" lon="6.11353">
        <ele>2660</ele>
        <time>2021-12-23T13:22:20Z</time>
      </trkpt>
      <trkpt lat="45.24997" lon="6.11353">
        <ele>2660</ele>
        <time>2021-12-23T13:22:22Z</time>
      </trkpt>
      <trkpt lat="45.24995" lon="6.11353">
        <ele>2660</ele>
        <time>2021-12-23T13:22:23Z</time>
      </trkpt>
      <trkpt lat="45.24993" lon="6.11353">
        <ele>2660</ele>
        <time>2021-12-23T13:22:24Z</time>
      </trkpt>
      <trkpt lat="45.24992" lon="6.11353">
        <ele>2660</ele>
        <time>2021-12-23T13:22:25Z</time>
      </trkpt>
      <trkpt lat="45.2499" lon="6.11354">
        <ele>2659</ele>
        <time>2021-12-23T13:22:26Z</time>
      </trkpt>
      <trkpt lat="45.24988" lon="6.11354">
        <ele>2658</ele>
        <time>2021-12-23T13:22:27Z</time>
      </trkpt>
      <trkpt lat="45.24988" lon="6.11354">
        <ele>2659</ele>
        <time>2021-12-23T13:22:28Z</time>
      </trkpt>
      <trkpt lat="45.24988" lon="6.11354">
        <ele>2659</ele>
        <time>2021-12-23T13:22:29Z</time>
      </trkpt>
      <trkpt lat="45.24988" lon="6.11354">
        <ele>2659</ele>
        <time>2021-12-23T13:22:31Z</time>
      </trkpt>
      <trkpt lat="45.24988" lon="6.11354">
        <ele>2659</ele>
        <time>2021-12-23T13:22:32Z</time>
      </trkpt>
      <trkpt lat="45.24987" lon="6.11354">
        <ele>2659</ele>
        <time>2021-12-23T13:22:33Z</time>
      </trkpt>
      <trkpt lat="45.24987" lon="6.11354">
        <ele>2659</ele>
        <time>2021-12-23T13:22:34Z</time>
      </trkpt>
      <trkpt lat="45.24987" lon="6.11354">
        <ele>2659</ele>
        <time>2021-12-23T13:22:35Z</time>
      </trkpt>
      <trkpt lat="45.24987" lon="6.11354">
        <ele>2659</ele>
        <time>2021-12-23T13:22:36Z</time>
      </trkpt>
      <trkpt lat="45.24987" lon="6.11353">
        <ele>2659</ele>
        <time>2021-12-23T13:22:37Z</time>
      </trkpt>
      <trkpt lat="45.24987" lon="6.11353">
        <ele>2659</ele>
        <time>2021-12-23T13:22:38Z</time>
      </trkpt>
      <trkpt lat="45.24987" lon="6.11353">
        <ele>2659</ele>
        <time>2021-12-23T13:22:39Z</time>
      </trkpt>
      <trkpt lat="45.24987" lon="6.11353">
        <ele>2659</ele>
        <time>2021-12-23T13:22:40Z</time>
      </trkpt>
      <trkpt lat="45.24987" lon="6.11353">
        <ele>2659</ele>
        <time>2021-12-23T13:22:41Z</time>
      </trkpt>
      <trkpt lat="45.24987" lon="6.11353">
        <ele>2659</ele>
        <time>2021-12-23T13:22:42Z</time>
      </trkpt>
      <trkpt lat="45.24986" lon="6.11353">
        <ele>2659</ele>
        <time>2021-12-23T13:22:43Z</time>
      </trkpt>
      <trkpt lat="45.24986" lon="6.11353">
        <ele>2659</ele>
        <time>2021-12-23T13:22:44Z</time>
      </trkpt>
      <trkpt lat="45.24986" lon="6.11353">
        <ele>2658</ele>
        <time>2021-12-23T13:22:45Z</time>
      </trkpt>
      <trkpt lat="45.24986" lon="6.11353">
        <ele>2659</ele>
        <time>2021-12-23T13:22:46Z</time>
      </trkpt>
      <trkpt lat="45.24986" lon="6.11353">
        <ele>2659</ele>
        <time>2021-12-23T13:22:47Z</time>
      </trkpt>
      <trkpt lat="45.24986" lon="6.11353">
        <ele>2659</ele>
        <time>2021-12-23T13:22:48Z</time>
      </trkpt>
      <trkpt lat="45.24986" lon="6.11353">
        <ele>2658</ele>
        <time>2021-12-23T13:22:50Z</time>
      </trkpt>
      <trkpt lat="45.24986" lon="6.11353">
        <ele>2658</ele>
        <time>2021-12-23T13:22:51Z</time>
      </trkpt>
      <trkpt lat="45.24986" lon="6.11353">
        <ele>2658</ele>
        <time>2021-12-23T13:22:52Z</time>
      </trkpt>
      <trkpt lat="45.24986" lon="6.11353">
        <ele>2658</ele>
        <time>2021-12-23T13:22:53Z</time>
      </trkpt>
      <trkpt lat="45.24985" lon="6.11353">
        <ele>2658</ele>
        <time>2021-12-23T13:22:54Z</time>
      </trkpt>
      <trkpt lat="45.24985" lon="6.11353">
        <ele>2657</ele>
        <time>2021-12-23T13:22:55Z</time>
      </trkpt>
      <trkpt lat="45.24985" lon="6.11353">
        <ele>2658</ele>
        <time>2021-12-23T13:22:56Z</time>
      </trkpt>
      <trkpt lat="45.24985" lon="6.11353">
        <ele>2658</ele>
        <time>2021-12-23T13:22:57Z</time>
      </trkpt>
      <trkpt lat="45.24985" lon="6.11353">
        <ele>2658</ele>
        <time>2021-12-23T13:22:58Z</time>
      </trkpt>
      <trkpt lat="45.24985" lon="6.11353">
        <ele>2658</ele>
        <time>2021-12-23T13:22:59Z</time>
      </trkpt>
      <trkpt lat="45.24985" lon="6.11353">
        <ele>2658</ele>
        <time>2021-12-23T13:23:00Z</time>
      </trkpt>
      <trkpt lat="45.24985" lon="6.11353">
        <ele>2658</ele>
        <time>2021-12-23T13:23:01Z</time>
      </trkpt>
      <trkpt lat="45.24985" lon="6.11353">
        <ele>2658</ele>
        <time>2021-12-23T13:23:02Z</time>
      </trkpt>
      <trkpt lat="45.24985" lon="6.11353">
        <ele>2658</ele>
        <time>2021-12-23T13:23:03Z</time>
      </trkpt>
      <trkpt lat="45.24984" lon="6.11353">
        <ele>2658</ele>
        <time>2021-12-23T13:23:04Z</time>
      </trkpt>
      <trkpt lat="45.24984" lon="6.11353">
        <ele>2658</ele>
        <time>2021-12-23T13:23:05Z</time>
      </trkpt>
      <trkpt lat="45.24984" lon="6.11353">
        <ele>2658</ele>
        <time>2021-12-23T13:23:06Z</time>
      </trkpt>
      <trkpt lat="45.24984" lon="6.11352">
        <ele>2658</ele>
        <time>2021-12-23T13:23:07Z</time>
      </trkpt>
      <trkpt lat="45.24984" lon="6.11352">
        <ele>2658</ele>
        <time>2021-12-23T13:23:09Z</time>
      </trkpt>
      <trkpt lat="45.24984" lon="6.11352">
        <ele>2658</ele>
        <time>2021-12-23T13:23:10Z</time>
      </trkpt>
      <trkpt lat="45.24984" lon="6.11352">
        <ele>2658</ele>
        <time>2021-12-23T13:23:11Z</time>
      </trkpt>
      <trkpt lat="45.24984" lon="6.11352">
        <ele>2658</ele>
        <time>2021-12-23T13:23:12Z</time>
      </trkpt>
      <trkpt lat="45.24984" lon="6.11352">
        <ele>2659</ele>
        <time>2021-12-23T13:23:13Z</time>
      </trkpt>
      <trkpt lat="45.24984" lon="6.11352">
        <ele>2659</ele>
        <time>2021-12-23T13:23:14Z</time>
      </trkpt>
      <trkpt lat="45.24983" lon="6.11352">
        <ele>2659</ele>
        <time>2021-12-23T13:23:15Z</time>
      </trkpt>
      <trkpt lat="45.24983" lon="6.11352">
        <ele>2659</ele>
        <time>2021-12-23T13:23:16Z</time>
      </trkpt>
      <trkpt lat="45.24983" lon="6.11352">
        <ele>2659</ele>
        <time>2021-12-23T13:23:17Z</time>
      </trkpt>
      <trkpt lat="45.24983" lon="6.11352">
        <ele>2659</ele>
        <time>2021-12-23T13:23:18Z</time>
      </trkpt>
      <trkpt lat="45.24983" lon="6.11352">
        <ele>2659</ele>
        <time>2021-12-23T13:23:19Z</time>
      </trkpt>
      <trkpt lat="45.24983" lon="6.11352">
        <ele>2659</ele>
        <time>2021-12-23T13:23:20Z</time>
      </trkpt>
      <trkpt lat="45.24983" lon="6.11352">
        <ele>2659</ele>
        <time>2021-12-23T13:23:21Z</time>
      </trkpt>
      <trkpt lat="45.24983" lon="6.11352">
        <ele>2659</ele>
        <time>2021-12-23T13:23:22Z</time>
      </trkpt>
      <trkpt lat="45.24983" lon="6.11352">
        <ele>2658</ele>
        <time>2021-12-23T13:23:23Z</time>
      </trkpt>
      <trkpt lat="45.24983" lon="6.11352">
        <ele>2658</ele>
        <time>2021-12-23T13:23:24Z</time>
      </trkpt>
      <trkpt lat="45.24977" lon="6.1135">
        <ele>2657</ele>
        <time>2021-12-23T13:23:25Z</time>
      </trkpt>
      <trkpt lat="45.24977" lon="6.1135">
        <ele>2657</ele>
        <time>2021-12-23T13:23:26Z</time>
      </trkpt>
      <trkpt lat="45.24969" lon="6.11356">
        <ele>2655</ele>
        <time>2021-12-23T13:23:28Z</time>
      </trkpt>
      <trkpt lat="45.24977" lon="6.11366">
        <ele>2655</ele>
        <time>2021-12-23T13:23:29Z</time>
      </trkpt>
      <trkpt lat="45.24977" lon="6.11366">
        <ele>2654</ele>
        <time>2021-12-23T13:23:30Z</time>
      </trkpt>
      <trkpt lat="45.24977" lon="6.11369">
        <ele>2652</ele>
        <time>2021-12-23T13:23:31Z</time>
      </trkpt>
      <trkpt lat="45.24978" lon="6.11373">
        <ele>2651</ele>
        <time>2021-12-23T13:23:32Z</time>
      </trkpt>
      <trkpt lat="45.24978" lon="6.11377">
        <ele>2651</ele>
        <time>2021-12-23T13:23:33Z</time>
      </trkpt>
      <trkpt lat="45.24979" lon="6.11381">
        <ele>2647</ele>
        <time>2021-12-23T13:23:34Z</time>
      </trkpt>
      <trkpt lat="45.24979" lon="6.11385">
        <ele>2644</ele>
        <time>2021-12-23T13:23:35Z</time>
      </trkpt>
      <trkpt lat="45.24979" lon="6.11389">
        <ele>2642</ele>
        <time>2021-12-23T13:23:36Z</time>
      </trkpt>
      <trkpt lat="45.24978" lon="6.11401">
        <ele>2639</ele>
        <time>2021-12-23T13:23:37Z</time>
      </trkpt>
      <trkpt lat="45.24976" lon="6.11403">
        <ele>2635</ele>
        <time>2021-12-23T13:23:38Z</time>
      </trkpt>
      <trkpt lat="45.24969" lon="6.11414">
        <ele>2633</ele>
        <time>2021-12-23T13:23:39Z</time>
      </trkpt>
      <trkpt lat="45.24967" lon="6.1142">
        <ele>2631</ele>
        <time>2021-12-23T13:23:40Z</time>
      </trkpt>
      <trkpt lat="45.24963" lon="6.11436">
        <ele>2629</ele>
        <time>2021-12-23T13:23:41Z</time>
      </trkpt>
      <trkpt lat="45.24965" lon="6.1144">
        <ele>2627</ele>
        <time>2021-12-23T13:23:42Z</time>
      </trkpt>
      <trkpt lat="45.24972" lon="6.11456">
        <ele>2620</ele>
        <time>2021-12-23T13:23:44Z</time>
      </trkpt>
      <trkpt lat="45.2497" lon="6.11469">
        <ele>2617</ele>
        <time>2021-12-23T13:23:45Z</time>
      </trkpt>
      <trkpt lat="45.24977" lon="6.11481">
        <ele>2611</ele>
        <time>2021-12-23T13:23:47Z</time>
      </trkpt>
      <trkpt lat="45.24979" lon="6.11482">
        <ele>2611</ele>
        <time>2021-12-23T13:23:48Z</time>
      </trkpt>
      <trkpt lat="45.24981" lon="6.11483">
        <ele>2609</ele>
        <time>2021-12-23T13:23:49Z</time>
      </trkpt>
      <trkpt lat="45.24983" lon="6.11484">
        <ele>2609</ele>
        <time>2021-12-23T13:23:50Z</time>
      </trkpt>
      <trkpt lat="45.24986" lon="6.11485">
        <ele>2606</ele>
        <time>2021-12-23T13:23:51Z</time>
      </trkpt>
      <trkpt lat="45.24985" lon="6.11485">
        <ele>2605</ele>
        <time>2021-12-23T13:23:52Z</time>
      </trkpt>
      <trkpt lat="45.24985" lon="6.11485">
        <ele>2604</ele>
        <time>2021-12-23T13:23:53Z</time>
      </trkpt>
      <trkpt lat="45.24985" lon="6.11486">
        <ele>2603</ele>
        <time>2021-12-23T13:23:54Z</time>
      </trkpt>
      <trkpt lat="45.24984" lon="6.11486">
        <ele>2603</ele>
        <time>2021-12-23T13:23:55Z</time>
      </trkpt>
      <trkpt lat="45.24984" lon="6.11487">
        <ele>2603</ele>
        <time>2021-12-23T13:23:56Z</time>
      </trkpt>
      <trkpt lat="45.24984" lon="6.11487">
        <ele>2603</ele>
        <time>2021-12-23T13:23:57Z</time>
      </trkpt>
      <trkpt lat="45.24983" lon="6.11487">
        <ele>2603</ele>
        <time>2021-12-23T13:23:58Z</time>
      </trkpt>
      <trkpt lat="45.24983" lon="6.11488">
        <ele>2603</ele>
        <time>2021-12-23T13:23:59Z</time>
      </trkpt>
      <trkpt lat="45.24983" lon="6.11488">
        <ele>2603</ele>
        <time>2021-12-23T13:24:00Z</time>
      </trkpt>
      <trkpt lat="45.24982" lon="6.11489">
        <ele>2603</ele>
        <time>2021-12-23T13:24:01Z</time>
      </trkpt>
      <trkpt lat="45.24982" lon="6.11489">
        <ele>2603</ele>
        <time>2021-12-23T13:24:02Z</time>
      </trkpt>
      <trkpt lat="45.24982" lon="6.11489">
        <ele>2603</ele>
        <time>2021-12-23T13:24:03Z</time>
      </trkpt>
      <trkpt lat="45.24981" lon="6.1149">
        <ele>2603</ele>
        <time>2021-12-23T13:24:04Z</time>
      </trkpt>
      <trkpt lat="45.24981" lon="6.1149">
        <ele>2602</ele>
        <time>2021-12-23T13:24:06Z</time>
      </trkpt>
      <trkpt lat="45.24981" lon="6.1149">
        <ele>2603</ele>
        <time>2021-12-23T13:24:07Z</time>
      </trkpt>
      <trkpt lat="45.24982" lon="6.1149">
        <ele>2603</ele>
        <time>2021-12-23T13:24:08Z</time>
      </trkpt>
      <trkpt lat="45.24983" lon="6.1149">
        <ele>2603</ele>
        <time>2021-12-23T13:24:09Z</time>
      </trkpt>
      <trkpt lat="45.24984" lon="6.1149">
        <ele>2603</ele>
        <time>2021-12-23T13:24:10Z</time>
      </trkpt>
      <trkpt lat="45.24985" lon="6.1149">
        <ele>2603</ele>
        <time>2021-12-23T13:24:11Z</time>
      </trkpt>
      <trkpt lat="45.24986" lon="6.1149">
        <ele>2602</ele>
        <time>2021-12-23T13:24:12Z</time>
      </trkpt>
      <trkpt lat="45.24987" lon="6.1149">
        <ele>2603</ele>
        <time>2021-12-23T13:24:13Z</time>
      </trkpt>
      <trkpt lat="45.24988" lon="6.1149">
        <ele>2603</ele>
        <time>2021-12-23T13:24:14Z</time>
      </trkpt>
      <trkpt lat="45.24989" lon="6.1149">
        <ele>2602</ele>
        <time>2021-12-23T13:24:15Z</time>
      </trkpt>
      <trkpt lat="45.2499" lon="6.1149">
        <ele>2602</ele>
        <time>2021-12-23T13:24:16Z</time>
      </trkpt>
      <trkpt lat="45.2499" lon="6.11489">
        <ele>2602</ele>
        <time>2021-12-23T13:24:17Z</time>
      </trkpt>
      <trkpt lat="45.2499" lon="6.11488">
        <ele>2602</ele>
        <time>2021-12-23T13:24:18Z</time>
      </trkpt>
      <trkpt lat="45.24991" lon="6.11488">
        <ele>2602</ele>
        <time>2021-12-23T13:24:19Z</time>
      </trkpt>
      <trkpt lat="45.24991" lon="6.11487">
        <ele>2602</ele>
        <time>2021-12-23T13:24:20Z</time>
      </trkpt>
      <trkpt lat="45.24991" lon="6.11486">
        <ele>2602</ele>
        <time>2021-12-23T13:24:21Z</time>
      </trkpt>
      <trkpt lat="45.24991" lon="6.11485">
        <ele>2602</ele>
        <time>2021-12-23T13:24:22Z</time>
      </trkpt>
      <trkpt lat="45.24992" lon="6.11485">
        <ele>2602</ele>
        <time>2021-12-23T13:24:23Z</time>
      </trkpt>
      <trkpt lat="45.24992" lon="6.11484">
        <ele>2603</ele>
        <time>2021-12-23T13:24:25Z</time>
      </trkpt>
      <trkpt lat="45.24992" lon="6.11483">
        <ele>2603</ele>
        <time>2021-12-23T13:24:26Z</time>
      </trkpt>
      <trkpt lat="45.24992" lon="6.11482">
        <ele>2603</ele>
        <time>2021-12-23T13:24:27Z</time>
      </trkpt>
      <trkpt lat="45.24993" lon="6.11482">
        <ele>2603</ele>
        <time>2021-12-23T13:24:28Z</time>
      </trkpt>
      <trkpt lat="45.24993" lon="6.11481">
        <ele>2603</ele>
        <time>2021-12-23T13:24:29Z</time>
      </trkpt>
      <trkpt lat="45.24993" lon="6.1148">
        <ele>2603</ele>
        <time>2021-12-23T13:24:30Z</time>
      </trkpt>
      <trkpt lat="45.24994" lon="6.11479">
        <ele>2603</ele>
        <time>2021-12-23T13:24:31Z</time>
      </trkpt>
      <trkpt lat="45.24994" lon="6.11478">
        <ele>2603</ele>
        <time>2021-12-23T13:24:32Z</time>
      </trkpt>
      <trkpt lat="45.24994" lon="6.11478">
        <ele>2604</ele>
        <time>2021-12-23T13:24:33Z</time>
      </trkpt>
      <trkpt lat="45.24993" lon="6.11477">
        <ele>2604</ele>
        <time>2021-12-23T13:24:34Z</time>
      </trkpt>
      <trkpt lat="45.24993" lon="6.11477">
        <ele>2603</ele>
        <time>2021-12-23T13:24:35Z</time>
      </trkpt>
      <trkpt lat="45.24992" lon="6.11477">
        <ele>2603</ele>
        <time>2021-12-23T13:24:36Z</time>
      </trkpt>
      <trkpt lat="45.24991" lon="6.11476">
        <ele>2603</ele>
        <time>2021-12-23T13:24:37Z</time>
      </trkpt>
      <trkpt lat="45.24991" lon="6.11476">
        <ele>2603</ele>
        <time>2021-12-23T13:24:38Z</time>
      </trkpt>
      <trkpt lat="45.2499" lon="6.11476">
        <ele>2603</ele>
        <time>2021-12-23T13:24:39Z</time>
      </trkpt>
      <trkpt lat="45.24989" lon="6.11476">
        <ele>2603</ele>
        <time>2021-12-23T13:24:40Z</time>
      </trkpt>
      <trkpt lat="45.24989" lon="6.11475">
        <ele>2603</ele>
        <time>2021-12-23T13:24:41Z</time>
      </trkpt>
      <trkpt lat="45.24988" lon="6.11475">
        <ele>2603</ele>
        <time>2021-12-23T13:24:42Z</time>
      </trkpt>
      <trkpt lat="45.24987" lon="6.11475">
        <ele>2603</ele>
        <time>2021-12-23T13:24:44Z</time>
      </trkpt>
      <trkpt lat="45.24987" lon="6.11474">
        <ele>2603</ele>
        <time>2021-12-23T13:24:45Z</time>
      </trkpt>
      <trkpt lat="45.24986" lon="6.11474">
        <ele>2603</ele>
        <time>2021-12-23T13:24:46Z</time>
      </trkpt>
      <trkpt lat="45.24986" lon="6.11474">
        <ele>2602</ele>
        <time>2021-12-23T13:24:47Z</time>
      </trkpt>
      <trkpt lat="45.24985" lon="6.11474">
        <ele>2602</ele>
        <time>2021-12-23T13:24:48Z</time>
      </trkpt>
      <trkpt lat="45.24985" lon="6.11474">
        <ele>2602</ele>
        <time>2021-12-23T13:24:49Z</time>
      </trkpt>
      <trkpt lat="45.24985" lon="6.11474">
        <ele>2602</ele>
        <time>2021-12-23T13:24:50Z</time>
      </trkpt>
      <trkpt lat="45.24985" lon="6.11474">
        <ele>2602</ele>
        <time>2021-12-23T13:24:51Z</time>
      </trkpt>
      <trkpt lat="45.24985" lon="6.11475">
        <ele>2602</ele>
        <time>2021-12-23T13:24:52Z</time>
      </trkpt>
      <trkpt lat="45.24985" lon="6.11475">
        <ele>2602</ele>
        <time>2021-12-23T13:24:53Z</time>
      </trkpt>
      <trkpt lat="45.24985" lon="6.11475">
        <ele>2602</ele>
        <time>2021-12-23T13:24:54Z</time>
      </trkpt>
      <trkpt lat="45.24985" lon="6.11475">
        <ele>2602</ele>
        <time>2021-12-23T13:24:55Z</time>
      </trkpt>
      <trkpt lat="45.24985" lon="6.11475">
        <ele>2602</ele>
        <time>2021-12-23T13:24:56Z</time>
      </trkpt>
      <trkpt lat="45.24984" lon="6.11475">
        <ele>2602</ele>
        <time>2021-12-23T13:24:57Z</time>
      </trkpt>
      <trkpt lat="45.24984" lon="6.11475">
        <ele>2602</ele>
        <time>2021-12-23T13:24:58Z</time>
      </trkpt>
      <trkpt lat="45.24984" lon="6.11476">
        <ele>2602</ele>
        <time>2021-12-23T13:24:59Z</time>
      </trkpt>
      <trkpt lat="45.24984" lon="6.11476">
        <ele>2602</ele>
        <time>2021-12-23T13:25:00Z</time>
      </trkpt>
      <trkpt lat="45.24984" lon="6.11476">
        <ele>2602</ele>
        <time>2021-12-23T13:25:01Z</time>
      </trkpt>
      <trkpt lat="45.24984" lon="6.11476">
        <ele>2602</ele>
        <time>2021-12-23T13:25:03Z</time>
      </trkpt>
      <trkpt lat="45.24984" lon="6.11476">
        <ele>2602</ele>
        <time>2021-12-23T13:25:04Z</time>
      </trkpt>
      <trkpt lat="45.24984" lon="6.11476">
        <ele>2602</ele>
        <time>2021-12-23T13:25:05Z</time>
      </trkpt>
      <trkpt lat="45.24984" lon="6.11476">
        <ele>2602</ele>
        <time>2021-12-23T13:25:06Z</time>
      </trkpt>
      <trkpt lat="45.24983" lon="6.11477">
        <ele>2602</ele>
        <time>2021-12-23T13:25:07Z</time>
      </trkpt>
      <trkpt lat="45.24983" lon="6.11477">
        <ele>2602</ele>
        <time>2021-12-23T13:25:08Z</time>
      </trkpt>
      <trkpt lat="45.24983" lon="6.11477">
        <ele>2602</ele>
        <time>2021-12-23T13:25:09Z</time>
      </trkpt>
      <trkpt lat="45.24983" lon="6.11477">
        <ele>2602</ele>
        <time>2021-12-23T13:25:10Z</time>
      </trkpt>
      <trkpt lat="45.24983" lon="6.11477">
        <ele>2603</ele>
        <time>2021-12-23T13:25:11Z</time>
      </trkpt>
      <trkpt lat="45.24983" lon="6.11477">
        <ele>2603</ele>
        <time>2021-12-23T13:25:12Z</time>
      </trkpt>
      <trkpt lat="45.24983" lon="6.11478">
        <ele>2603</ele>
        <time>2021-12-23T13:25:13Z</time>
      </trkpt>
      <trkpt lat="45.24983" lon="6.11478">
        <ele>2603</ele>
        <time>2021-12-23T13:25:14Z</time>
      </trkpt>
      <trkpt lat="45.24983" lon="6.11478">
        <ele>2603</ele>
        <time>2021-12-23T13:25:15Z</time>
      </trkpt>
      <trkpt lat="45.24982" lon="6.11478">
        <ele>2603</ele>
        <time>2021-12-23T13:25:16Z</time>
      </trkpt>
      <trkpt lat="45.24982" lon="6.11478">
        <ele>2603</ele>
        <time>2021-12-23T13:25:17Z</time>
      </trkpt>
      <trkpt lat="45.24982" lon="6.11478">
        <ele>2603</ele>
        <time>2021-12-23T13:25:18Z</time>
      </trkpt>
      <trkpt lat="45.24982" lon="6.11478">
        <ele>2603</ele>
        <time>2021-12-23T13:25:19Z</time>
      </trkpt>
      <trkpt lat="45.24982" lon="6.11479">
        <ele>2603</ele>
        <time>2021-12-23T13:25:20Z</time>
      </trkpt>
      <trkpt lat="45.24982" lon="6.11479">
        <ele>2603</ele>
        <time>2021-12-23T13:25:22Z</time>
      </trkpt>
      <trkpt lat="45.24982" lon="6.11479">
        <ele>2603</ele>
        <time>2021-12-23T13:25:23Z</time>
      </trkpt>
      <trkpt lat="45.24982" lon="6.11479">
        <ele>2603</ele>
        <time>2021-12-23T13:25:24Z</time>
      </trkpt>
      <trkpt lat="45.24982" lon="6.11479">
        <ele>2603</ele>
        <time>2021-12-23T13:25:25Z</time>
      </trkpt>
      <trkpt lat="45.24981" lon="6.11479">
        <ele>2603</ele>
        <time>2021-12-23T13:25:26Z</time>
      </trkpt>
      <trkpt lat="45.24981" lon="6.11479">
        <ele>2603</ele>
        <time>2021-12-23T13:25:27Z</time>
      </trkpt>
      <trkpt lat="45.24981" lon="6.1148">
        <ele>2603</ele>
        <time>2021-12-23T13:25:28Z</time>
      </trkpt>
      <trkpt lat="45.24981" lon="6.1148">
        <ele>2603</ele>
        <time>2021-12-23T13:25:29Z</time>
      </trkpt>
      <trkpt lat="45.24981" lon="6.1148">
        <ele>2603</ele>
        <time>2021-12-23T13:25:30Z</time>
      </trkpt>
      <trkpt lat="45.24981" lon="6.1148">
        <ele>2603</ele>
        <time>2021-12-23T13:25:31Z</time>
      </trkpt>
      <trkpt lat="45.24981" lon="6.1148">
        <ele>2603</ele>
        <time>2021-12-23T13:25:32Z</time>
      </trkpt>
      <trkpt lat="45.24981" lon="6.1148">
        <ele>2603</ele>
        <time>2021-12-23T13:25:33Z</time>
      </trkpt>
      <trkpt lat="45.24981" lon="6.1148">
        <ele>2603</ele>
        <time>2021-12-23T13:25:34Z</time>
      </trkpt>
      <trkpt lat="45.2498" lon="6.11481">
        <ele>2603</ele>
        <time>2021-12-23T13:25:35Z</time>
      </trkpt>
      <trkpt lat="45.2498" lon="6.11481">
        <ele>2603</ele>
        <time>2021-12-23T13:25:36Z</time>
      </trkpt>
      <trkpt lat="45.2498" lon="6.11481">
        <ele>2603</ele>
        <time>2021-12-23T13:25:37Z</time>
      </trkpt>
      <trkpt lat="45.2498" lon="6.11481">
        <ele>2603</ele>
        <time>2021-12-23T13:25:38Z</time>
      </trkpt>
      <trkpt lat="45.2498" lon="6.11481">
        <ele>2603</ele>
        <time>2021-12-23T13:25:39Z</time>
      </trkpt>
      <trkpt lat="45.2498" lon="6.11481">
        <ele>2603</ele>
        <time>2021-12-23T13:25:41Z</time>
      </trkpt>
      <trkpt lat="45.2498" lon="6.11482">
        <ele>2603</ele>
        <time>2021-12-23T13:25:42Z</time>
      </trkpt>
      <trkpt lat="45.2498" lon="6.11482">
        <ele>2603</ele>
        <time>2021-12-23T13:25:43Z</time>
      </trkpt>
      <trkpt lat="45.2498" lon="6.11482">
        <ele>2603</ele>
        <time>2021-12-23T13:25:44Z</time>
      </trkpt>
      <trkpt lat="45.24979" lon="6.11482">
        <ele>2603</ele>
        <time>2021-12-23T13:25:45Z</time>
      </trkpt>
      <trkpt lat="45.24979" lon="6.11482">
        <ele>2603</ele>
        <time>2021-12-23T13:25:46Z</time>
      </trkpt>
      <trkpt lat="45.24979" lon="6.11482">
        <ele>2603</ele>
        <time>2021-12-23T13:25:47Z</time>
      </trkpt>
      <trkpt lat="45.24979" lon="6.11482">
        <ele>2603</ele>
        <time>2021-12-23T13:25:48Z</time>
      </trkpt>
      <trkpt lat="45.24979" lon="6.11483">
        <ele>2602</ele>
        <time>2021-12-23T13:25:50Z</time>
      </trkpt>
      <trkpt lat="45.24979" lon="6.11483">
        <ele>2602</ele>
        <time>2021-12-23T13:25:51Z</time>
      </trkpt>
      <trkpt lat="45.24979" lon="6.11483">
        <ele>2602</ele>
        <time>2021-12-23T13:25:52Z</time>
      </trkpt>
      <trkpt lat="45.24979" lon="6.11483">
        <ele>2602</ele>
        <time>2021-12-23T13:25:53Z</time>
      </trkpt>
      <trkpt lat="45.24979" lon="6.11483">
        <ele>2602</ele>
        <time>2021-12-23T13:25:54Z</time>
      </trkpt>
      <trkpt lat="45.24979" lon="6.11483">
        <ele>2602</ele>
        <time>2021-12-23T13:25:55Z</time>
      </trkpt>
      <trkpt lat="45.24978" lon="6.11483">
        <ele>2602</ele>
        <time>2021-12-23T13:25:56Z</time>
      </trkpt>
      <trkpt lat="45.24978" lon="6.11484">
        <ele>2603</ele>
        <time>2021-12-23T13:25:57Z</time>
      </trkpt>
      <trkpt lat="45.24978" lon="6.11484">
        <ele>2603</ele>
        <time>2021-12-23T13:25:58Z</time>
      </trkpt>
      <trkpt lat="45.24978" lon="6.11484">
        <ele>2603</ele>
        <time>2021-12-23T13:26:00Z</time>
      </trkpt>
      <trkpt lat="45.24978" lon="6.11484">
        <ele>2603</ele>
        <time>2021-12-23T13:26:01Z</time>
      </trkpt>
      <trkpt lat="45.24978" lon="6.11484">
        <ele>2603</ele>
        <time>2021-12-23T13:26:02Z</time>
      </trkpt>
      <trkpt lat="45.24978" lon="6.11484">
        <ele>2603</ele>
        <time>2021-12-23T13:26:03Z</time>
      </trkpt>
      <trkpt lat="45.24978" lon="6.11484">
        <ele>2602</ele>
        <time>2021-12-23T13:26:04Z</time>
      </trkpt>
      <trkpt lat="45.24978" lon="6.11485">
        <ele>2602</ele>
        <time>2021-12-23T13:26:05Z</time>
      </trkpt>
      <trkpt lat="45.24977" lon="6.11485">
        <ele>2602</ele>
        <time>2021-12-23T13:26:06Z</time>
      </trkpt>
      <trkpt lat="45.24977" lon="6.11485">
        <ele>2602</ele>
        <time>2021-12-23T13:26:07Z</time>
      </trkpt>
      <trkpt lat="45.24977" lon="6.11485">
        <ele>2603</ele>
        <time>2021-12-23T13:26:08Z</time>
      </trkpt>
      <trkpt lat="45.24977" lon="6.11485">
        <ele>2603</ele>
        <time>2021-12-23T13:26:09Z</time>
      </trkpt>
      <trkpt lat="45.24977" lon="6.11485">
        <ele>2603</ele>
        <time>2021-12-23T13:26:10Z</time>
      </trkpt>
      <trkpt lat="45.24977" lon="6.11486">
        <ele>2603</ele>
        <time>2021-12-23T13:26:11Z</time>
      </trkpt>
      <trkpt lat="45.24977" lon="6.11486">
        <ele>2602</ele>
        <time>2021-12-23T13:26:12Z</time>
      </trkpt>
      <trkpt lat="45.24977" lon="6.11486">
        <ele>2602</ele>
        <time>2021-12-23T13:26:13Z</time>
      </trkpt>
      <trkpt lat="45.24977" lon="6.11486">
        <ele>2602</ele>
        <time>2021-12-23T13:26:14Z</time>
      </trkpt>
      <trkpt lat="45.24976" lon="6.11486">
        <ele>2602</ele>
        <time>2021-12-23T13:26:15Z</time>
      </trkpt>
      <trkpt lat="45.24976" lon="6.11486">
        <ele>2603</ele>
        <time>2021-12-23T13:26:16Z</time>
      </trkpt>
      <trkpt lat="45.24976" lon="6.11486">
        <ele>2604</ele>
        <time>2021-12-23T13:26:17Z</time>
      </trkpt>
      <trkpt lat="45.24976" lon="6.11487">
        <ele>2603</ele>
        <time>2021-12-23T13:26:19Z</time>
      </trkpt>
      <trkpt lat="45.24976" lon="6.11487">
        <ele>2602</ele>
        <time>2021-12-23T13:26:20Z</time>
      </trkpt>
      <trkpt lat="45.24976" lon="6.11487">
        <ele>2602</ele>
        <time>2021-12-23T13:26:21Z</time>
      </trkpt>
      <trkpt lat="45.24976" lon="6.11487">
        <ele>2602</ele>
        <time>2021-12-23T13:26:22Z</time>
      </trkpt>
      <trkpt lat="45.24976" lon="6.11491">
        <ele>2600</ele>
        <time>2021-12-23T13:26:23Z</time>
      </trkpt>
      <trkpt lat="45.24977" lon="6.11495">
        <ele>2598</ele>
        <time>2021-12-23T13:26:24Z</time>
      </trkpt>
      <trkpt lat="45.24979" lon="6.11505">
        <ele>2596</ele>
        <time>2021-12-23T13:26:25Z</time>
      </trkpt>
      <trkpt lat="45.2498" lon="6.11507">
        <ele>2594</ele>
        <time>2021-12-23T13:26:26Z</time>
      </trkpt>
      <trkpt lat="45.24982" lon="6.11509">
        <ele>2593</ele>
        <time>2021-12-23T13:26:27Z</time>
      </trkpt>
      <trkpt lat="45.24988" lon="6.11517">
        <ele>2592</ele>
        <time>2021-12-23T13:26:28Z</time>
      </trkpt>
      <trkpt lat="45.24991" lon="6.11521">
        <ele>2591</ele>
        <time>2021-12-23T13:26:29Z</time>
      </trkpt>
      <trkpt lat="45.24997" lon="6.1154">
        <ele>2588</ele>
        <time>2021-12-23T13:26:30Z</time>
      </trkpt>
      <trkpt lat="45.24999" lon="6.11553">
        <ele>2588</ele>
        <time>2021-12-23T13:26:31Z</time>
      </trkpt>
      <trkpt lat="45.25" lon="6.11566">
        <ele>2582</ele>
        <time>2021-12-23T13:26:32Z</time>
      </trkpt>
      <trkpt lat="45.25" lon="6.11583">
        <ele>2578</ele>
        <time>2021-12-23T13:26:33Z</time>
      </trkpt>
      <trkpt lat="45.25001" lon="6.11601">
        <ele>2573</ele>
        <time>2021-12-23T13:26:34Z</time>
      </trkpt>
      <trkpt lat="45.25003" lon="6.11627">
        <ele>2573</ele>
        <time>2021-12-23T13:26:35Z</time>
      </trkpt>
      <trkpt lat="45.25005" lon="6.11635">
        <ele>2568</ele>
        <time>2021-12-23T13:26:36Z</time>
      </trkpt>
      <trkpt lat="45.2501" lon="6.1166">
        <ele>2568</ele>
        <time>2021-12-23T13:26:37Z</time>
      </trkpt>
      <trkpt lat="45.25012" lon="6.11668">
        <ele>2561</ele>
        <time>2021-12-23T13:26:38Z</time>
      </trkpt>
      <trkpt lat="45.25017" lon="6.11692">
        <ele>2561</ele>
        <time>2021-12-23T13:26:39Z</time>
      </trkpt>
      <trkpt lat="45.25019" lon="6.117">
        <ele>2558</ele>
        <time>2021-12-23T13:26:40Z</time>
      </trkpt>
      <trkpt lat="45.25022" lon="6.11714">
        <ele>2555</ele>
        <time>2021-12-23T13:26:41Z</time>
      </trkpt>
      <trkpt lat="45.25026" lon="6.11728">
        <ele>2551</ele>
        <time>2021-12-23T13:26:42Z</time>
      </trkpt>
      <trkpt lat="45.2503" lon="6.11742">
        <ele>2551</ele>
        <time>2021-12-23T13:26:43Z</time>
      </trkpt>
      <trkpt lat="45.25031" lon="6.11745">
        <ele>2549</ele>
        <time>2021-12-23T13:26:44Z</time>
      </trkpt>
      <trkpt lat="45.25034" lon="6.11757">
        <ele>2548</ele>
        <time>2021-12-23T13:26:45Z</time>
      </trkpt>
      <trkpt lat="45.25035" lon="6.11762">
        <ele>2546</ele>
        <time>2021-12-23T13:26:46Z</time>
      </trkpt>
      <trkpt lat="45.25037" lon="6.11767">
        <ele>2545</ele>
        <time>2021-12-23T13:26:47Z</time>
      </trkpt>
      <trkpt lat="45.25043" lon="6.11786">
        <ele>2544</ele>
        <time>2021-12-23T13:26:48Z</time>
      </trkpt>
      <trkpt lat="45.25045" lon="6.1179">
        <ele>2544</ele>
        <time>2021-12-23T13:26:49Z</time>
      </trkpt>
      <trkpt lat="45.25049" lon="6.11802">
        <ele>2543</ele>
        <time>2021-12-23T13:26:50Z</time>
      </trkpt>
      <trkpt lat="45.25051" lon="6.11806">
        <ele>2543</ele>
        <time>2021-12-23T13:26:51Z</time>
      </trkpt>
      <trkpt lat="45.25052" lon="6.1181">
        <ele>2543</ele>
        <time>2021-12-23T13:26:52Z</time>
      </trkpt>
      <trkpt lat="45.25054" lon="6.1181">
        <ele>2543</ele>
        <time>2021-12-23T13:26:53Z</time>
      </trkpt>
      <trkpt lat="45.25055" lon="6.1181">
        <ele>2543</ele>
        <time>2021-12-23T13:26:54Z</time>
      </trkpt>
      <trkpt lat="45.25056" lon="6.1181">
        <ele>2542</ele>
        <time>2021-12-23T13:26:55Z</time>
      </trkpt>
      <trkpt lat="45.25057" lon="6.1181">
        <ele>2543</ele>
        <time>2021-12-23T13:26:57Z</time>
      </trkpt>
      <trkpt lat="45.25058" lon="6.1181">
        <ele>2543</ele>
        <time>2021-12-23T13:26:58Z</time>
      </trkpt>
      <trkpt lat="45.25059" lon="6.1181">
        <ele>2543</ele>
        <time>2021-12-23T13:26:59Z</time>
      </trkpt>
      <trkpt lat="45.2506" lon="6.1181">
        <ele>2543</ele>
        <time>2021-12-23T13:27:00Z</time>
      </trkpt>
      <trkpt lat="45.25061" lon="6.1181">
        <ele>2543</ele>
        <time>2021-12-23T13:27:01Z</time>
      </trkpt>
      <trkpt lat="45.25062" lon="6.1181">
        <ele>2543</ele>
        <time>2021-12-23T13:27:02Z</time>
      </trkpt>
      <trkpt lat="45.25063" lon="6.1181">
        <ele>2543</ele>
        <time>2021-12-23T13:27:03Z</time>
      </trkpt>
      <trkpt lat="45.25064" lon="6.11811">
        <ele>2543</ele>
        <time>2021-12-23T13:27:04Z</time>
      </trkpt>
      <trkpt lat="45.25065" lon="6.11811">
        <ele>2543</ele>
        <time>2021-12-23T13:27:05Z</time>
      </trkpt>
      <trkpt lat="45.25065" lon="6.11811">
        <ele>2543</ele>
        <time>2021-12-23T13:27:06Z</time>
      </trkpt>
      <trkpt lat="45.25065" lon="6.11811">
        <ele>2543</ele>
        <time>2021-12-23T13:27:07Z</time>
      </trkpt>
      <trkpt lat="45.25065" lon="6.11811">
        <ele>2543</ele>
        <time>2021-12-23T13:27:08Z</time>
      </trkpt>
      <trkpt lat="45.25065" lon="6.11811">
        <ele>2543</ele>
        <time>2021-12-23T13:27:09Z</time>
      </trkpt>
      <trkpt lat="45.25065" lon="6.11811">
        <ele>2543</ele>
        <time>2021-12-23T13:27:10Z</time>
      </trkpt>
      <trkpt lat="45.25065" lon="6.11811">
        <ele>2543</ele>
        <time>2021-12-23T13:27:11Z</time>
      </trkpt>
      <trkpt lat="45.25066" lon="6.11811">
        <ele>2543</ele>
        <time>2021-12-23T13:27:12Z</time>
      </trkpt>
      <trkpt lat="45.25066" lon="6.11812">
        <ele>2543</ele>
        <time>2021-12-23T13:27:13Z</time>
      </trkpt>
      <trkpt lat="45.25066" lon="6.11812">
        <ele>2542</ele>
        <time>2021-12-23T13:27:14Z</time>
      </trkpt>
      <trkpt lat="45.25066" lon="6.11812">
        <ele>2542</ele>
        <time>2021-12-23T13:27:16Z</time>
      </trkpt>
      <trkpt lat="45.25066" lon="6.11812">
        <ele>2542</ele>
        <time>2021-12-23T13:27:17Z</time>
      </trkpt>
      <trkpt lat="45.25066" lon="6.11812">
        <ele>2542</ele>
        <time>2021-12-23T13:27:18Z</time>
      </trkpt>
      <trkpt lat="45.25066" lon="6.11812">
        <ele>2542</ele>
        <time>2021-12-23T13:27:19Z</time>
      </trkpt>
      <trkpt lat="45.25067" lon="6.11812">
        <ele>2542</ele>
        <time>2021-12-23T13:27:20Z</time>
      </trkpt>
      <trkpt lat="45.25067" lon="6.11812">
        <ele>2542</ele>
        <time>2021-12-23T13:27:21Z</time>
      </trkpt>
      <trkpt lat="45.25067" lon="6.11813">
        <ele>2542</ele>
        <time>2021-12-23T13:27:22Z</time>
      </trkpt>
      <trkpt lat="45.25067" lon="6.11813">
        <ele>2543</ele>
        <time>2021-12-23T13:27:23Z</time>
      </trkpt>
      <trkpt lat="45.25067" lon="6.11813">
        <ele>2543</ele>
        <time>2021-12-23T13:27:24Z</time>
      </trkpt>
      <trkpt lat="45.25067" lon="6.11813">
        <ele>2543</ele>
        <time>2021-12-23T13:27:25Z</time>
      </trkpt>
      <trkpt lat="45.25067" lon="6.11813">
        <ele>2543</ele>
        <time>2021-12-23T13:27:26Z</time>
      </trkpt>
      <trkpt lat="45.25068" lon="6.11813">
        <ele>2543</ele>
        <time>2021-12-23T13:27:27Z</time>
      </trkpt>
      <trkpt lat="45.25068" lon="6.11813">
        <ele>2543</ele>
        <time>2021-12-23T13:27:28Z</time>
      </trkpt>
      <trkpt lat="45.25068" lon="6.11813">
        <ele>2543</ele>
        <time>2021-12-23T13:27:29Z</time>
      </trkpt>
      <trkpt lat="45.25068" lon="6.11814">
        <ele>2543</ele>
        <time>2021-12-23T13:27:30Z</time>
      </trkpt>
      <trkpt lat="45.25068" lon="6.11814">
        <ele>2543</ele>
        <time>2021-12-23T13:27:31Z</time>
      </trkpt>
      <trkpt lat="45.25068" lon="6.11814">
        <ele>2543</ele>
        <time>2021-12-23T13:27:32Z</time>
      </trkpt>
      <trkpt lat="45.25068" lon="6.11814">
        <ele>2543</ele>
        <time>2021-12-23T13:27:33Z</time>
      </trkpt>
      <trkpt lat="45.25069" lon="6.11814">
        <ele>2543</ele>
        <time>2021-12-23T13:27:35Z</time>
      </trkpt>
      <trkpt lat="45.25069" lon="6.11814">
        <ele>2543</ele>
        <time>2021-12-23T13:27:36Z</time>
      </trkpt>
      <trkpt lat="45.25069" lon="6.11814">
        <ele>2542</ele>
        <time>2021-12-23T13:27:37Z</time>
      </trkpt>
      <trkpt lat="45.25073" lon="6.1182">
        <ele>2542</ele>
        <time>2021-12-23T13:27:38Z</time>
      </trkpt>
      <trkpt lat="45.25073" lon="6.11821">
        <ele>2542</ele>
        <time>2021-12-23T13:27:39Z</time>
      </trkpt>
      <trkpt lat="45.25073" lon="6.11823">
        <ele>2542</ele>
        <time>2021-12-23T13:27:40Z</time>
      </trkpt>
      <trkpt lat="45.25073" lon="6.11825">
        <ele>2541</ele>
        <time>2021-12-23T13:27:41Z</time>
      </trkpt>
      <trkpt lat="45.25074" lon="6.11826">
        <ele>2541</ele>
        <time>2021-12-23T13:27:42Z</time>
      </trkpt>
      <trkpt lat="45.25076" lon="6.11842">
        <ele>2541</ele>
        <time>2021-12-23T13:27:43Z</time>
      </trkpt>
      <trkpt lat="45.25078" lon="6.1185">
        <ele>2541</ele>
        <time>2021-12-23T13:27:44Z</time>
      </trkpt>
      <trkpt lat="45.2508" lon="6.11858">
        <ele>2538</ele>
        <time>2021-12-23T13:27:45Z</time>
      </trkpt>
      <trkpt lat="45.25084" lon="6.11866">
        <ele>2536</ele>
        <time>2021-12-23T13:27:46Z</time>
      </trkpt>
      <trkpt lat="45.25093" lon="6.11876">
        <ele>2534</ele>
        <time>2021-12-23T13:27:47Z</time>
      </trkpt>
      <trkpt lat="45.25098" lon="6.11886">
        <ele>2532</ele>
        <time>2021-12-23T13:27:48Z</time>
      </trkpt>
      <trkpt lat="45.25113" lon="6.11914">
        <ele>2531</ele>
        <time>2021-12-23T13:27:49Z</time>
      </trkpt>
      <trkpt lat="45.25117" lon="6.11919">
        <ele>2526</ele>
        <time>2021-12-23T13:27:51Z</time>
      </trkpt>
      <trkpt lat="45.25123" lon="6.11929">
        <ele>2524</ele>
        <time>2021-12-23T13:27:52Z</time>
      </trkpt>
      <trkpt lat="45.25129" lon="6.1194">
        <ele>2524</ele>
        <time>2021-12-23T13:27:53Z</time>
      </trkpt>
      <trkpt lat="45.25129" lon="6.1194">
        <ele>2521</ele>
        <time>2021-12-23T13:27:54Z</time>
      </trkpt>
      <trkpt lat="45.25138" lon="6.11963">
        <ele>2521</ele>
        <time>2021-12-23T13:27:55Z</time>
      </trkpt>
      <trkpt lat="45.25139" lon="6.11967">
        <ele>2520</ele>
        <time>2021-12-23T13:27:56Z</time>
      </trkpt>
      <trkpt lat="45.25141" lon="6.11975">
        <ele>2519</ele>
        <time>2021-12-23T13:27:57Z</time>
      </trkpt>
      <trkpt lat="45.2514" lon="6.11979">
        <ele>2518</ele>
        <time>2021-12-23T13:27:58Z</time>
      </trkpt>
      <trkpt lat="45.2514" lon="6.11983">
        <ele>2517</ele>
        <time>2021-12-23T13:27:59Z</time>
      </trkpt>
      <trkpt lat="45.25139" lon="6.11993">
        <ele>2517</ele>
        <time>2021-12-23T13:28:00Z</time>
      </trkpt>
      <trkpt lat="45.25138" lon="6.11996">
        <ele>2517</ele>
        <time>2021-12-23T13:28:01Z</time>
      </trkpt>
      <trkpt lat="45.25138" lon="6.11999">
        <ele>2515</ele>
        <time>2021-12-23T13:28:02Z</time>
      </trkpt>
      <trkpt lat="45.25138" lon="6.12001">
        <ele>2515</ele>
        <time>2021-12-23T13:28:03Z</time>
      </trkpt>
      <trkpt lat="45.25137" lon="6.12004">
        <ele>2515</ele>
        <time>2021-12-23T13:28:04Z</time>
      </trkpt>
      <trkpt lat="45.25137" lon="6.12004">
        <ele>2517</ele>
        <time>2021-12-23T13:28:05Z</time>
      </trkpt>
      <trkpt lat="45.25137" lon="6.12004">
        <ele>2517</ele>
        <time>2021-12-23T13:28:06Z</time>
      </trkpt>
      <trkpt lat="45.25137" lon="6.12004">
        <ele>2515</ele>
        <time>2021-12-23T13:28:07Z</time>
      </trkpt>
      <trkpt lat="45.25137" lon="6.12004">
        <ele>2515</ele>
        <time>2021-12-23T13:28:08Z</time>
      </trkpt>
      <trkpt lat="45.25137" lon="6.12004">
        <ele>2517</ele>
        <time>2021-12-23T13:28:09Z</time>
      </trkpt>
      <trkpt lat="45.25137" lon="6.12004">
        <ele>2517</ele>
        <time>2021-12-23T13:28:10Z</time>
      </trkpt>
      <trkpt lat="45.25137" lon="6.12004">
        <ele>2517</ele>
        <time>2021-12-23T13:28:11Z</time>
      </trkpt>
      <trkpt lat="45.25136" lon="6.12017">
        <ele>2517</ele>
        <time>2021-12-23T13:28:13Z</time>
      </trkpt>
      <trkpt lat="45.25137" lon="6.1202">
        <ele>2517</ele>
        <time>2021-12-23T13:28:14Z</time>
      </trkpt>
      <trkpt lat="45.25137" lon="6.12024">
        <ele>2517</ele>
        <time>2021-12-23T13:28:15Z</time>
      </trkpt>
      <trkpt lat="45.25138" lon="6.12028">
        <ele>2515</ele>
        <time>2021-12-23T13:28:16Z</time>
      </trkpt>
      <trkpt lat="45.25139" lon="6.12032">
        <ele>2515</ele>
        <time>2021-12-23T13:28:17Z</time>
      </trkpt>
      <trkpt lat="45.2514" lon="6.12036">
        <ele>2514</ele>
        <time>2021-12-23T13:28:18Z</time>
      </trkpt>
      <trkpt lat="45.25142" lon="6.1204">
        <ele>2514</ele>
        <time>2021-12-23T13:28:19Z</time>
      </trkpt>
      <trkpt lat="45.25143" lon="6.12043">
        <ele>2514</ele>
        <time>2021-12-23T13:28:20Z</time>
      </trkpt>
      <trkpt lat="45.25149" lon="6.12054">
        <ele>2514</ele>
        <time>2021-12-23T13:28:21Z</time>
      </trkpt>
      <trkpt lat="45.2515" lon="6.12057">
        <ele>2513</ele>
        <time>2021-12-23T13:28:22Z</time>
      </trkpt>
      <trkpt lat="45.25156" lon="6.12066">
        <ele>2512</ele>
        <time>2021-12-23T13:28:23Z</time>
      </trkpt>
      <trkpt lat="45.25158" lon="6.12068">
        <ele>2511</ele>
        <time>2021-12-23T13:28:24Z</time>
      </trkpt>
      <trkpt lat="45.25164" lon="6.12076">
        <ele>2511</ele>
        <time>2021-12-23T13:28:25Z</time>
      </trkpt>
      <trkpt lat="45.25165" lon="6.12079">
        <ele>2510</ele>
        <time>2021-12-23T13:28:26Z</time>
      </trkpt>
      <trkpt lat="45.25167" lon="6.12082">
        <ele>2510</ele>
        <time>2021-12-23T13:28:27Z</time>
      </trkpt>
      <trkpt lat="45.25169" lon="6.12085">
        <ele>2510</ele>
        <time>2021-12-23T13:28:28Z</time>
      </trkpt>
      <trkpt lat="45.25171" lon="6.12089">
        <ele>2510</ele>
        <time>2021-12-23T13:28:29Z</time>
      </trkpt>
      <trkpt lat="45.25174" lon="6.12092">
        <ele>2509</ele>
        <time>2021-12-23T13:28:30Z</time>
      </trkpt>
      <trkpt lat="45.25176" lon="6.12095">
        <ele>2509</ele>
        <time>2021-12-23T13:28:31Z</time>
      </trkpt>
      <trkpt lat="45.25179" lon="6.12099">
        <ele>2508</ele>
        <time>2021-12-23T13:28:32Z</time>
      </trkpt>
      <trkpt lat="45.2518" lon="6.12099">
        <ele>2508</ele>
        <time>2021-12-23T13:28:33Z</time>
      </trkpt>
      <trkpt lat="45.2518" lon="6.121">
        <ele>2508</ele>
        <time>2021-12-23T13:28:34Z</time>
      </trkpt>
      <trkpt lat="45.25181" lon="6.121">
        <ele>2508</ele>
        <time>2021-12-23T13:28:35Z</time>
      </trkpt>
      <trkpt lat="45.25182" lon="6.12101">
        <ele>2508</ele>
        <time>2021-12-23T13:28:36Z</time>
      </trkpt>
      <trkpt lat="45.25182" lon="6.12101">
        <ele>2508</ele>
        <time>2021-12-23T13:28:37Z</time>
      </trkpt>
      <trkpt lat="45.25183" lon="6.12102">
        <ele>2508</ele>
        <time>2021-12-23T13:28:38Z</time>
      </trkpt>
      <trkpt lat="45.25184" lon="6.12102">
        <ele>2508</ele>
        <time>2021-12-23T13:28:39Z</time>
      </trkpt>
      <trkpt lat="45.25184" lon="6.12103">
        <ele>2508</ele>
        <time>2021-12-23T13:28:40Z</time>
      </trkpt>
      <trkpt lat="45.25185" lon="6.12103">
        <ele>2508</ele>
        <time>2021-12-23T13:28:41Z</time>
      </trkpt>
      <trkpt lat="45.25186" lon="6.12104">
        <ele>2508</ele>
        <time>2021-12-23T13:28:42Z</time>
      </trkpt>
      <trkpt lat="45.25186" lon="6.12104">
        <ele>2508</ele>
        <time>2021-12-23T13:28:43Z</time>
      </trkpt>
      <trkpt lat="45.25187" lon="6.12105">
        <ele>2509</ele>
        <time>2021-12-23T13:28:44Z</time>
      </trkpt>
      <trkpt lat="45.25188" lon="6.12105">
        <ele>2509</ele>
        <time>2021-12-23T13:28:45Z</time>
      </trkpt>
      <trkpt lat="45.25189" lon="6.12106">
        <ele>2509</ele>
        <time>2021-12-23T13:28:46Z</time>
      </trkpt>
      <trkpt lat="45.2519" lon="6.12106">
        <ele>2509</ele>
        <time>2021-12-23T13:28:47Z</time>
      </trkpt>
      <trkpt lat="45.2519" lon="6.12106">
        <ele>2509</ele>
        <time>2021-12-23T13:28:48Z</time>
      </trkpt>
      <trkpt lat="45.25191" lon="6.12107">
        <ele>2509</ele>
        <time>2021-12-23T13:28:49Z</time>
      </trkpt>
      <trkpt lat="45.25192" lon="6.12107">
        <ele>2508</ele>
        <time>2021-12-23T13:28:51Z</time>
      </trkpt>
      <trkpt lat="45.25193" lon="6.12108">
        <ele>2508</ele>
        <time>2021-12-23T13:28:52Z</time>
      </trkpt>
      <trkpt lat="45.25194" lon="6.12108">
        <ele>2507</ele>
        <time>2021-12-23T13:28:53Z</time>
      </trkpt>
      <trkpt lat="45.25195" lon="6.12109">
        <ele>2507</ele>
        <time>2021-12-23T13:28:54Z</time>
      </trkpt>
      <trkpt lat="45.25196" lon="6.12109">
        <ele>2507</ele>
        <time>2021-12-23T13:28:55Z</time>
      </trkpt>
      <trkpt lat="45.25197" lon="6.12109">
        <ele>2507</ele>
        <time>2021-12-23T13:28:56Z</time>
      </trkpt>
      <trkpt lat="45.252" lon="6.12109">
        <ele>2507</ele>
        <time>2021-12-23T13:28:57Z</time>
      </trkpt>
      <trkpt lat="45.25203" lon="6.12108">
        <ele>2507</ele>
        <time>2021-12-23T13:28:58Z</time>
      </trkpt>
      <trkpt lat="45.25206" lon="6.12108">
        <ele>2507</ele>
        <time>2021-12-23T13:28:59Z</time>
      </trkpt>
      <trkpt lat="45.25208" lon="6.12108">
        <ele>2507</ele>
        <time>2021-12-23T13:29:00Z</time>
      </trkpt>
      <trkpt lat="45.2521" lon="6.12109">
        <ele>2506</ele>
        <time>2021-12-23T13:29:01Z</time>
      </trkpt>
      <trkpt lat="45.25212" lon="6.1211">
        <ele>2506</ele>
        <time>2021-12-23T13:29:02Z</time>
      </trkpt>
      <trkpt lat="45.25214" lon="6.1211">
        <ele>2506</ele>
        <time>2021-12-23T13:29:03Z</time>
      </trkpt>
      <trkpt lat="45.25216" lon="6.12111">
        <ele>2505</ele>
        <time>2021-12-23T13:29:04Z</time>
      </trkpt>
      <trkpt lat="45.25218" lon="6.12111">
        <ele>2505</ele>
        <time>2021-12-23T13:29:05Z</time>
      </trkpt>
      <trkpt lat="45.2522" lon="6.12112">
        <ele>2505</ele>
        <time>2021-12-23T13:29:06Z</time>
      </trkpt>
      <trkpt lat="45.25225" lon="6.12114">
        <ele>2503</ele>
        <time>2021-12-23T13:29:07Z</time>
      </trkpt>
      <trkpt lat="45.2523" lon="6.12115">
        <ele>2502</ele>
        <time>2021-12-23T13:29:08Z</time>
      </trkpt>
      <trkpt lat="45.25229" lon="6.12118">
        <ele>2500</ele>
        <time>2021-12-23T13:29:10Z</time>
      </trkpt>
      <trkpt lat="45.25228" lon="6.1212">
        <ele>2500</ele>
        <time>2021-12-23T13:29:11Z</time>
      </trkpt>
      <trkpt lat="45.25227" lon="6.12123">
        <ele>2498</ele>
        <time>2021-12-23T13:29:12Z</time>
      </trkpt>
      <trkpt lat="45.25226" lon="6.12125">
        <ele>2497</ele>
        <time>2021-12-23T13:29:13Z</time>
      </trkpt>
      <trkpt lat="45.25227" lon="6.12124">
        <ele>2496</ele>
        <time>2021-12-23T13:29:14Z</time>
      </trkpt>
      <trkpt lat="45.25229" lon="6.12123">
        <ele>2495</ele>
        <time>2021-12-23T13:29:15Z</time>
      </trkpt>
      <trkpt lat="45.2523" lon="6.12122">
        <ele>2494</ele>
        <time>2021-12-23T13:29:16Z</time>
      </trkpt>
      <trkpt lat="45.25231" lon="6.12121">
        <ele>2494</ele>
        <time>2021-12-23T13:29:17Z</time>
      </trkpt>
      <trkpt lat="45.25232" lon="6.1212">
        <ele>2493</ele>
        <time>2021-12-23T13:29:18Z</time>
      </trkpt>
      <trkpt lat="45.25243" lon="6.12115">
        <ele>2493</ele>
        <time>2021-12-23T13:29:19Z</time>
      </trkpt>
      <trkpt lat="45.25248" lon="6.12113">
        <ele>2493</ele>
        <time>2021-12-23T13:29:20Z</time>
      </trkpt>
      <trkpt lat="45.25254" lon="6.12112">
        <ele>2490</ele>
        <time>2021-12-23T13:29:21Z</time>
      </trkpt>
      <trkpt lat="45.2526" lon="6.12114">
        <ele>2490</ele>
        <time>2021-12-23T13:29:22Z</time>
      </trkpt>
      <trkpt lat="45.25264" lon="6.12118">
        <ele>2488</ele>
        <time>2021-12-23T13:29:23Z</time>
      </trkpt>
      <trkpt lat="45.25269" lon="6.12121">
        <ele>2487</ele>
        <time>2021-12-23T13:29:24Z</time>
      </trkpt>
      <trkpt lat="45.25271" lon="6.12124">
        <ele>2487</ele>
        <time>2021-12-23T13:29:25Z</time>
      </trkpt>
      <trkpt lat="45.25273" lon="6.12128">
        <ele>2486</ele>
        <time>2021-12-23T13:29:26Z</time>
      </trkpt>
      <trkpt lat="45.25275" lon="6.12131">
        <ele>2485</ele>
        <time>2021-12-23T13:29:27Z</time>
      </trkpt>
      <trkpt lat="45.25277" lon="6.12136">
        <ele>2484</ele>
        <time>2021-12-23T13:29:29Z</time>
      </trkpt>
      <trkpt lat="45.2528" lon="6.1214">
        <ele>2484</ele>
        <time>2021-12-23T13:29:30Z</time>
      </trkpt>
      <trkpt lat="45.25283" lon="6.12145">
        <ele>2483</ele>
        <time>2021-12-23T13:29:31Z</time>
      </trkpt>
      <trkpt lat="45.25283" lon="6.1215">
        <ele>2482</ele>
        <time>2021-12-23T13:29:32Z</time>
      </trkpt>
      <trkpt lat="45.25284" lon="6.12155">
        <ele>2481</ele>
        <time>2021-12-23T13:29:33Z</time>
      </trkpt>
      <trkpt lat="45.25284" lon="6.1216">
        <ele>2479</ele>
        <time>2021-12-23T13:29:34Z</time>
      </trkpt>
      <trkpt lat="45.25284" lon="6.12164">
        <ele>2479</ele>
        <time>2021-12-23T13:29:35Z</time>
      </trkpt>
      <trkpt lat="45.25284" lon="6.12168">
        <ele>2477</ele>
        <time>2021-12-23T13:29:36Z</time>
      </trkpt>
      <trkpt lat="45.25284" lon="6.12181">
        <ele>2475</ele>
        <time>2021-12-23T13:29:37Z</time>
      </trkpt>
      <trkpt lat="45.25284" lon="6.12187">
        <ele>2473</ele>
        <time>2021-12-23T13:29:38Z</time>
      </trkpt>
      <trkpt lat="45.25289" lon="6.122">
        <ele>2470</ele>
        <time>2021-12-23T13:29:39Z</time>
      </trkpt>
      <trkpt lat="45.25293" lon="6.12204">
        <ele>2467</ele>
        <time>2021-12-23T13:29:40Z</time>
      </trkpt>
      <trkpt lat="45.25298" lon="6.12207">
        <ele>2464</ele>
        <time>2021-12-23T13:29:41Z</time>
      </trkpt>
      <trkpt lat="45.25302" lon="6.1221">
        <ele>2464</ele>
        <time>2021-12-23T13:29:42Z</time>
      </trkpt>
      <trkpt lat="45.25307" lon="6.12214">
        <ele>2457</ele>
        <time>2021-12-23T13:29:43Z</time>
      </trkpt>
      <trkpt lat="45.25312" lon="6.12219">
        <ele>2452</ele>
        <time>2021-12-23T13:29:44Z</time>
      </trkpt>
      <trkpt lat="45.25317" lon="6.12225">
        <ele>2449</ele>
        <time>2021-12-23T13:29:45Z</time>
      </trkpt>
      <trkpt lat="45.25321" lon="6.12231">
        <ele>2447</ele>
        <time>2021-12-23T13:29:46Z</time>
      </trkpt>
      <trkpt lat="45.25326" lon="6.12237">
        <ele>2442</ele>
        <time>2021-12-23T13:29:48Z</time>
      </trkpt>
      <trkpt lat="45.25343" lon="6.12249">
        <ele>2442</ele>
        <time>2021-12-23T13:29:49Z</time>
      </trkpt>
      <trkpt lat="45.25346" lon="6.12253">
        <ele>2438</ele>
        <time>2021-12-23T13:29:50Z</time>
      </trkpt>
      <trkpt lat="45.2535" lon="6.12262">
        <ele>2433</ele>
        <time>2021-12-23T13:29:51Z</time>
      </trkpt>
      <trkpt lat="45.2535" lon="6.12262">
        <ele>2430</ele>
        <time>2021-12-23T13:29:52Z</time>
      </trkpt>
      <trkpt lat="45.25355" lon="6.12267">
        <ele>2427</ele>
        <time>2021-12-23T13:29:53Z</time>
      </trkpt>
      <trkpt lat="45.25359" lon="6.12272">
        <ele>2424</ele>
        <time>2021-12-23T13:29:54Z</time>
      </trkpt>
      <trkpt lat="45.25363" lon="6.12278">
        <ele>2423</ele>
        <time>2021-12-23T13:29:55Z</time>
      </trkpt>
      <trkpt lat="45.25367" lon="6.12283">
        <ele>2423</ele>
        <time>2021-12-23T13:29:56Z</time>
      </trkpt>
      <trkpt lat="45.25371" lon="6.12288">
        <ele>2421</ele>
        <time>2021-12-23T13:29:57Z</time>
      </trkpt>
      <trkpt lat="45.25373" lon="6.12295">
        <ele>2419</ele>
        <time>2021-12-23T13:29:58Z</time>
      </trkpt>
      <trkpt lat="45.25377" lon="6.12315">
        <ele>2415</ele>
        <time>2021-12-23T13:29:59Z</time>
      </trkpt>
      <trkpt lat="45.25377" lon="6.12315">
        <ele>2413</ele>
        <time>2021-12-23T13:30:00Z</time>
      </trkpt>
      <trkpt lat="45.25382" lon="6.12318">
        <ele>2413</ele>
        <time>2021-12-23T13:30:01Z</time>
      </trkpt>
      <trkpt lat="45.25387" lon="6.1232">
        <ele>2403</ele>
        <time>2021-12-23T13:30:02Z</time>
      </trkpt>
      <trkpt lat="45.25392" lon="6.12323">
        <ele>2398</ele>
        <time>2021-12-23T13:30:03Z</time>
      </trkpt>
      <trkpt lat="45.25397" lon="6.12326">
        <ele>2398</ele>
        <time>2021-12-23T13:30:04Z</time>
      </trkpt>
      <trkpt lat="45.25402" lon="6.12328">
        <ele>2397</ele>
        <time>2021-12-23T13:30:05Z</time>
      </trkpt>
      <trkpt lat="45.25411" lon="6.12326">
        <ele>2395</ele>
        <time>2021-12-23T13:30:07Z</time>
      </trkpt>
      <trkpt lat="45.25413" lon="6.12326">
        <ele>2395</ele>
        <time>2021-12-23T13:30:08Z</time>
      </trkpt>
      <trkpt lat="45.25416" lon="6.12325">
        <ele>2394</ele>
        <time>2021-12-23T13:30:09Z</time>
      </trkpt>
      <trkpt lat="45.25418" lon="6.12325">
        <ele>2394</ele>
        <time>2021-12-23T13:30:10Z</time>
      </trkpt>
      <trkpt lat="45.25421" lon="6.12324">
        <ele>2394</ele>
        <time>2021-12-23T13:30:11Z</time>
      </trkpt>
      <trkpt lat="45.25426" lon="6.12325">
        <ele>2394</ele>
        <time>2021-12-23T13:30:12Z</time>
      </trkpt>
      <trkpt lat="45.25432" lon="6.12325">
        <ele>2393</ele>
        <time>2021-12-23T13:30:13Z</time>
      </trkpt>
      <trkpt lat="45.25437" lon="6.12325">
        <ele>2392</ele>
        <time>2021-12-23T13:30:14Z</time>
      </trkpt>
      <trkpt lat="45.25443" lon="6.12326">
        <ele>2392</ele>
        <time>2021-12-23T13:30:15Z</time>
      </trkpt>
      <trkpt lat="45.25448" lon="6.12326">
        <ele>2390</ele>
        <time>2021-12-23T13:30:16Z</time>
      </trkpt>
      <trkpt lat="45.25456" lon="6.12327">
        <ele>2389</ele>
        <time>2021-12-23T13:30:17Z</time>
      </trkpt>
      <trkpt lat="45.2546" lon="6.12327">
        <ele>2388</ele>
        <time>2021-12-23T13:30:18Z</time>
      </trkpt>
      <trkpt lat="45.25463" lon="6.12328">
        <ele>2387</ele>
        <time>2021-12-23T13:30:19Z</time>
      </trkpt>
      <trkpt lat="45.25475" lon="6.12331">
        <ele>2387</ele>
        <time>2021-12-23T13:30:20Z</time>
      </trkpt>
      <trkpt lat="45.25479" lon="6.12333">
        <ele>2386</ele>
        <time>2021-12-23T13:30:21Z</time>
      </trkpt>
      <trkpt lat="45.25484" lon="6.12347">
        <ele>2385</ele>
        <time>2021-12-23T13:30:22Z</time>
      </trkpt>
      <trkpt lat="45.25482" lon="6.12357">
        <ele>2383</ele>
        <time>2021-12-23T13:30:23Z</time>
      </trkpt>
      <trkpt lat="45.2548" lon="6.12367">
        <ele>2380</ele>
        <time>2021-12-23T13:30:24Z</time>
      </trkpt>
      <trkpt lat="45.25478" lon="6.12376">
        <ele>2377</ele>
        <time>2021-12-23T13:30:26Z</time>
      </trkpt>
      <trkpt lat="45.25476" lon="6.12386">
        <ele>2374</ele>
        <time>2021-12-23T13:30:27Z</time>
      </trkpt>
      <trkpt lat="45.2547" lon="6.12405">
        <ele>2364</ele>
        <time>2021-12-23T13:30:28Z</time>
      </trkpt>
      <trkpt lat="45.25467" lon="6.12419">
        <ele>2359</ele>
        <time>2021-12-23T13:30:29Z</time>
      </trkpt>
      <trkpt lat="45.25465" lon="6.12432">
        <ele>2359</ele>
        <time>2021-12-23T13:30:30Z</time>
      </trkpt>
      <trkpt lat="45.25462" lon="6.12446">
        <ele>2353</ele>
        <time>2021-12-23T13:30:31Z</time>
      </trkpt>
      <trkpt lat="45.2546" lon="6.12453">
        <ele>2350</ele>
        <time>2021-12-23T13:30:32Z</time>
      </trkpt>
      <trkpt lat="45.25462" lon="6.12458">
        <ele>2349</ele>
        <time>2021-12-23T13:30:33Z</time>
      </trkpt>
      <trkpt lat="45.25463" lon="6.12463">
        <ele>2347</ele>
        <time>2021-12-23T13:30:34Z</time>
      </trkpt>
      <trkpt lat="45.25465" lon="6.12467">
        <ele>2347</ele>
        <time>2021-12-23T13:30:35Z</time>
      </trkpt>
      <trkpt lat="45.25466" lon="6.12472">
        <ele>2344</ele>
        <time>2021-12-23T13:30:36Z</time>
      </trkpt>
      <trkpt lat="45.25474" lon="6.12475">
        <ele>2341</ele>
        <time>2021-12-23T13:30:37Z</time>
      </trkpt>
      <trkpt lat="45.25482" lon="6.12478">
        <ele>2339</ele>
        <time>2021-12-23T13:30:38Z</time>
      </trkpt>
      <trkpt lat="45.2549" lon="6.12481">
        <ele>2337</ele>
        <time>2021-12-23T13:30:39Z</time>
      </trkpt>
      <trkpt lat="45.25498" lon="6.12484">
        <ele>2334</ele>
        <time>2021-12-23T13:30:40Z</time>
      </trkpt>
      <trkpt lat="45.25507" lon="6.12487">
        <ele>2330</ele>
        <time>2021-12-23T13:30:41Z</time>
      </trkpt>
      <trkpt lat="45.25515" lon="6.1249">
        <ele>2330</ele>
        <time>2021-12-23T13:30:42Z</time>
      </trkpt>
      <trkpt lat="45.25523" lon="6.12493">
        <ele>2326</ele>
        <time>2021-12-23T13:30:43Z</time>
      </trkpt>
      <trkpt lat="45.2553" lon="6.12495">
        <ele>2324</ele>
        <time>2021-12-23T13:30:45Z</time>
      </trkpt>
      <trkpt lat="45.25532" lon="6.12496">
        <ele>2324</ele>
        <time>2021-12-23T13:30:46Z</time>
      </trkpt>
      <trkpt lat="45.25534" lon="6.12498">
        <ele>2324</ele>
        <time>2021-12-23T13:30:47Z</time>
      </trkpt>
      <trkpt lat="45.25536" lon="6.125">
        <ele>2325</ele>
        <time>2021-12-23T13:30:48Z</time>
      </trkpt>
      <trkpt lat="45.25538" lon="6.12502">
        <ele>2325</ele>
        <time>2021-12-23T13:30:49Z</time>
      </trkpt>
      <trkpt lat="45.25539" lon="6.12503">
        <ele>2324</ele>
        <time>2021-12-23T13:30:50Z</time>
      </trkpt>
      <trkpt lat="45.2554" lon="6.12504">
        <ele>2323</ele>
        <time>2021-12-23T13:30:51Z</time>
      </trkpt>
      <trkpt lat="45.25541" lon="6.12506">
        <ele>2323</ele>
        <time>2021-12-23T13:30:52Z</time>
      </trkpt>
      <trkpt lat="45.25542" lon="6.12507">
        <ele>2322</ele>
        <time>2021-12-23T13:30:53Z</time>
      </trkpt>
      <trkpt lat="45.25543" lon="6.12508">
        <ele>2322</ele>
        <time>2021-12-23T13:30:54Z</time>
      </trkpt>
      <trkpt lat="45.25546" lon="6.12515">
        <ele>2322</ele>
        <time>2021-12-23T13:30:55Z</time>
      </trkpt>
      <trkpt lat="45.25544" lon="6.12516">
        <ele>2321</ele>
        <time>2021-12-23T13:30:56Z</time>
      </trkpt>
      <trkpt lat="45.25543" lon="6.12517">
        <ele>2320</ele>
        <time>2021-12-23T13:30:57Z</time>
      </trkpt>
      <trkpt lat="45.25542" lon="6.12518">
        <ele>2319</ele>
        <time>2021-12-23T13:30:58Z</time>
      </trkpt>
      <trkpt lat="45.2554" lon="6.1252">
        <ele>2319</ele>
        <time>2021-12-23T13:30:59Z</time>
      </trkpt>
      <trkpt lat="45.25539" lon="6.12521">
        <ele>2319</ele>
        <time>2021-12-23T13:31:00Z</time>
      </trkpt>
      <trkpt lat="45.25539" lon="6.12549">
        <ele>2318</ele>
        <time>2021-12-23T13:31:01Z</time>
      </trkpt>
      <trkpt lat="45.25538" lon="6.12556">
        <ele>2317</ele>
        <time>2021-12-23T13:31:02Z</time>
      </trkpt>
      <trkpt lat="45.25532" lon="6.12583">
        <ele>2311</ele>
        <time>2021-12-23T13:31:04Z</time>
      </trkpt>
      <trkpt lat="45.25532" lon="6.12583">
        <ele>2303</ele>
        <time>2021-12-23T13:31:06Z</time>
      </trkpt>
      <trkpt lat="45.25533" lon="6.12589">
        <ele>2296</ele>
        <time>2021-12-23T13:31:07Z</time>
      </trkpt>
      <trkpt lat="45.25534" lon="6.12595">
        <ele>2290</ele>
        <time>2021-12-23T13:31:08Z</time>
      </trkpt>
      <trkpt lat="45.25536" lon="6.12601">
        <ele>2286</ele>
        <time>2021-12-23T13:31:09Z</time>
      </trkpt>
      <trkpt lat="45.25543" lon="6.12638">
        <ele>2277</ele>
        <time>2021-12-23T13:31:11Z</time>
      </trkpt>
      <trkpt lat="45.25547" lon="6.1264">
        <ele>2273</ele>
        <time>2021-12-23T13:31:12Z</time>
      </trkpt>
      <trkpt lat="45.2555" lon="6.12642">
        <ele>2270</ele>
        <time>2021-12-23T13:31:13Z</time>
      </trkpt>
      <trkpt lat="45.25554" lon="6.12645">
        <ele>2269</ele>
        <time>2021-12-23T13:31:14Z</time>
      </trkpt>
      <trkpt lat="45.25557" lon="6.12647">
        <ele>2268</ele>
        <time>2021-12-23T13:31:15Z</time>
      </trkpt>
      <trkpt lat="45.25573" lon="6.12658">
        <ele>2268</ele>
        <time>2021-12-23T13:31:16Z</time>
      </trkpt>
      <trkpt lat="45.25576" lon="6.1266">
        <ele>2267</ele>
        <time>2021-12-23T13:31:17Z</time>
      </trkpt>
      <trkpt lat="45.25583" lon="6.12667">
        <ele>2267</ele>
        <time>2021-12-23T13:31:18Z</time>
      </trkpt>
      <trkpt lat="45.25585" lon="6.1267">
        <ele>2266</ele>
        <time>2021-12-23T13:31:19Z</time>
      </trkpt>
      <trkpt lat="45.25587" lon="6.12673">
        <ele>2265</ele>
        <time>2021-12-23T13:31:20Z</time>
      </trkpt>
      <trkpt lat="45.2559" lon="6.12677">
        <ele>2265</ele>
        <time>2021-12-23T13:31:21Z</time>
      </trkpt>
      <trkpt lat="45.25592" lon="6.1268">
        <ele>2264</ele>
        <time>2021-12-23T13:31:22Z</time>
      </trkpt>
      <trkpt lat="45.25593" lon="6.12682">
        <ele>2258</ele>
        <time>2021-12-23T13:31:23Z</time>
      </trkpt>
      <trkpt lat="45.25594" lon="6.12683">
        <ele>2258</ele>
        <time>2021-12-23T13:31:24Z</time>
      </trkpt>
      <trkpt lat="45.25595" lon="6.12685">
        <ele>2253</ele>
        <time>2021-12-23T13:31:25Z</time>
      </trkpt>
      <trkpt lat="45.25596" lon="6.12686">
        <ele>2252</ele>
        <time>2021-12-23T13:31:26Z</time>
      </trkpt>
      <trkpt lat="45.256" lon="6.12688">
        <ele>2252</ele>
        <time>2021-12-23T13:31:27Z</time>
      </trkpt>
      <trkpt lat="45.25603" lon="6.12689">
        <ele>2253</ele>
        <time>2021-12-23T13:31:28Z</time>
      </trkpt>
      <trkpt lat="45.2561" lon="6.12692">
        <ele>2253</ele>
        <time>2021-12-23T13:31:29Z</time>
      </trkpt>
      <trkpt lat="45.2561" lon="6.12692">
        <ele>2255</ele>
        <time>2021-12-23T13:31:30Z</time>
      </trkpt>
      <trkpt lat="45.2561" lon="6.12692">
        <ele>2255</ele>
        <time>2021-12-23T13:31:31Z</time>
      </trkpt>
      <trkpt lat="45.2561" lon="6.12692">
        <ele>2256</ele>
        <time>2021-12-23T13:31:32Z</time>
      </trkpt>
      <trkpt lat="45.25616" lon="6.12683">
        <ele>2256</ele>
        <time>2021-12-23T13:31:33Z</time>
      </trkpt>
      <trkpt lat="45.25616" lon="6.12683">
        <ele>2256</ele>
        <time>2021-12-23T13:31:35Z</time>
      </trkpt>
      <trkpt lat="45.25618" lon="6.12682">
        <ele>2256</ele>
        <time>2021-12-23T13:31:36Z</time>
      </trkpt>
      <trkpt lat="45.2562" lon="6.12681">
        <ele>2256</ele>
        <time>2021-12-23T13:31:37Z</time>
      </trkpt>
      <trkpt lat="45.25622" lon="6.1268">
        <ele>2255</ele>
        <time>2021-12-23T13:31:38Z</time>
      </trkpt>
      <trkpt lat="45.25623" lon="6.12678">
        <ele>2255</ele>
        <time>2021-12-23T13:31:39Z</time>
      </trkpt>
      <trkpt lat="45.25625" lon="6.12677">
        <ele>2255</ele>
        <time>2021-12-23T13:31:40Z</time>
      </trkpt>
      <trkpt lat="45.25624" lon="6.12677">
        <ele>2255</ele>
        <time>2021-12-23T13:31:42Z</time>
      </trkpt>
      <trkpt lat="45.25623" lon="6.12676">
        <ele>2255</ele>
        <time>2021-12-23T13:31:43Z</time>
      </trkpt>
      <trkpt lat="45.25622" lon="6.12675">
        <ele>2253</ele>
        <time>2021-12-23T13:31:44Z</time>
      </trkpt>
      <trkpt lat="45.2562" lon="6.12675">
        <ele>2255</ele>
        <time>2021-12-23T13:31:45Z</time>
      </trkpt>
      <trkpt lat="45.25615" lon="6.12673">
        <ele>2256</ele>
        <time>2021-12-23T13:31:46Z</time>
      </trkpt>
      <trkpt lat="45.25614" lon="6.12674">
        <ele>2256</ele>
        <time>2021-12-23T13:31:47Z</time>
      </trkpt>
      <trkpt lat="45.25613" lon="6.12675">
        <ele>2255</ele>
        <time>2021-12-23T13:31:48Z</time>
      </trkpt>
      <trkpt lat="45.25613" lon="6.12676">
        <ele>2255</ele>
        <time>2021-12-23T13:31:49Z</time>
      </trkpt>
      <trkpt lat="45.25612" lon="6.12677">
        <ele>2255</ele>
        <time>2021-12-23T13:31:50Z</time>
      </trkpt>
      <trkpt lat="45.25611" lon="6.12678">
        <ele>2253</ele>
        <time>2021-12-23T13:31:51Z</time>
      </trkpt>
      <trkpt lat="45.2561" lon="6.12679">
        <ele>2253</ele>
        <time>2021-12-23T13:31:52Z</time>
      </trkpt>
      <trkpt lat="45.25609" lon="6.1268">
        <ele>2253</ele>
        <time>2021-12-23T13:31:53Z</time>
      </trkpt>
      <trkpt lat="45.25609" lon="6.12681">
        <ele>2253</ele>
        <time>2021-12-23T13:31:54Z</time>
      </trkpt>
      <trkpt lat="45.25606" lon="6.12684">
        <ele>2253</ele>
        <time>2021-12-23T13:31:55Z</time>
      </trkpt>
      <trkpt lat="45.25604" lon="6.12688">
        <ele>2253</ele>
        <time>2021-12-23T13:31:56Z</time>
      </trkpt>
      <trkpt lat="45.25602" lon="6.12692">
        <ele>2253</ele>
        <time>2021-12-23T13:31:57Z</time>
      </trkpt>
      <trkpt lat="45.256" lon="6.12696">
        <ele>2255</ele>
        <time>2021-12-23T13:31:58Z</time>
      </trkpt>
      <trkpt lat="45.25598" lon="6.127">
        <ele>2255</ele>
        <time>2021-12-23T13:31:59Z</time>
      </trkpt>
      <trkpt lat="45.25596" lon="6.12703">
        <ele>2255</ele>
        <time>2021-12-23T13:32:01Z</time>
      </trkpt>
      <trkpt lat="45.25594" lon="6.12707">
        <ele>2255</ele>
        <time>2021-12-23T13:32:02Z</time>
      </trkpt>
      <trkpt lat="45.25592" lon="6.12711">
        <ele>2255</ele>
        <time>2021-12-23T13:32:03Z</time>
      </trkpt>
      <trkpt lat="45.2559" lon="6.12715">
        <ele>2255</ele>
        <time>2021-12-23T13:32:04Z</time>
      </trkpt>
      <trkpt lat="45.25588" lon="6.12719">
        <ele>2255</ele>
        <time>2021-12-23T13:32:05Z</time>
      </trkpt>
      <trkpt lat="45.25586" lon="6.12722">
        <ele>2255</ele>
        <time>2021-12-23T13:32:06Z</time>
      </trkpt>
      <trkpt lat="45.25578" lon="6.12711">
        <ele>2255</ele>
        <time>2021-12-23T13:32:07Z</time>
      </trkpt>
      <trkpt lat="45.25579" lon="6.12711">
        <ele>2255</ele>
        <time>2021-12-23T13:32:08Z</time>
      </trkpt>
      <trkpt lat="45.2558" lon="6.1271">
        <ele>2255</ele>
        <time>2021-12-23T13:32:09Z</time>
      </trkpt>
      <trkpt lat="45.25581" lon="6.12709">
        <ele>2255</ele>
        <time>2021-12-23T13:32:10Z</time>
      </trkpt>
      <trkpt lat="45.25581" lon="6.12708">
        <ele>2255</ele>
        <time>2021-12-23T13:32:11Z</time>
      </trkpt>
      <trkpt lat="45.25582" lon="6.12707">
        <ele>2255</ele>
        <time>2021-12-23T13:32:12Z</time>
      </trkpt>
      <trkpt lat="45.25583" lon="6.12707">
        <ele>2253</ele>
        <time>2021-12-23T13:32:13Z</time>
      </trkpt>
      <trkpt lat="45.25584" lon="6.12706">
        <ele>2253</ele>
        <time>2021-12-23T13:32:14Z</time>
      </trkpt>
      <trkpt lat="45.25585" lon="6.12705">
        <ele>2253</ele>
        <time>2021-12-23T13:32:15Z</time>
      </trkpt>
      <trkpt lat="45.25585" lon="6.12704">
        <ele>2253</ele>
        <time>2021-12-23T13:32:16Z</time>
      </trkpt>
      <trkpt lat="45.25586" lon="6.12703">
        <ele>2253</ele>
        <time>2021-12-23T13:32:17Z</time>
      </trkpt>
      <trkpt lat="45.25587" lon="6.12703">
        <ele>2253</ele>
        <time>2021-12-23T13:32:18Z</time>
      </trkpt>
      <trkpt lat="45.25588" lon="6.12702">
        <ele>2255</ele>
        <time>2021-12-23T13:32:20Z</time>
      </trkpt>
      <trkpt lat="45.25589" lon="6.12701">
        <ele>2255</ele>
        <time>2021-12-23T13:32:21Z</time>
      </trkpt>
      <trkpt lat="45.2559" lon="6.127">
        <ele>2255</ele>
        <time>2021-12-23T13:32:22Z</time>
      </trkpt>
      <trkpt lat="45.2559" lon="6.12699">
        <ele>2255</ele>
        <time>2021-12-23T13:32:23Z</time>
      </trkpt>
      <trkpt lat="45.25589" lon="6.12697">
        <ele>2255</ele>
        <time>2021-12-23T13:32:24Z</time>
      </trkpt>
      <trkpt lat="45.25588" lon="6.12694">
        <ele>2255</ele>
        <time>2021-12-23T13:32:25Z</time>
      </trkpt>
      <trkpt lat="45.25587" lon="6.12691">
        <ele>2255</ele>
        <time>2021-12-23T13:32:26Z</time>
      </trkpt>
      <trkpt lat="45.25585" lon="6.12689">
        <ele>2253</ele>
        <time>2021-12-23T13:32:27Z</time>
      </trkpt>
      <trkpt lat="45.25586" lon="6.12689">
        <ele>2253</ele>
        <time>2021-12-23T13:32:28Z</time>
      </trkpt>
      <trkpt lat="45.25586" lon="6.1269">
        <ele>2250</ele>
        <time>2021-12-23T13:32:29Z</time>
      </trkpt>
      <trkpt lat="45.25586" lon="6.12691">
        <ele>2248</ele>
        <time>2021-12-23T13:32:30Z</time>
      </trkpt>
      <trkpt lat="45.25586" lon="6.12692">
        <ele>2247</ele>
        <time>2021-12-23T13:32:31Z</time>
      </trkpt>
      <trkpt lat="45.25586" lon="6.12693">
        <ele>2246</ele>
        <time>2021-12-23T13:32:32Z</time>
      </trkpt>
      <trkpt lat="45.25586" lon="6.12694">
        <ele>2245</ele>
        <time>2021-12-23T13:32:33Z</time>
      </trkpt>
      <trkpt lat="45.25587" lon="6.12694">
        <ele>2244</ele>
        <time>2021-12-23T13:32:34Z</time>
      </trkpt>
      <trkpt lat="45.25587" lon="6.12695">
        <ele>2243</ele>
        <time>2021-12-23T13:32:35Z</time>
      </trkpt>
      <trkpt lat="45.25587" lon="6.12696">
        <ele>2243</ele>
        <time>2021-12-23T13:32:36Z</time>
      </trkpt>
      <trkpt lat="45.25587" lon="6.12697">
        <ele>2241</ele>
        <time>2021-12-23T13:32:37Z</time>
      </trkpt>
      <trkpt lat="45.25587" lon="6.12725">
        <ele>2236</ele>
        <time>2021-12-23T13:32:39Z</time>
      </trkpt>
      <trkpt lat="45.25584" lon="6.12737">
        <ele>2232</ele>
        <time>2021-12-23T13:32:40Z</time>
      </trkpt>
      <trkpt lat="45.2558" lon="6.12749">
        <ele>2227</ele>
        <time>2021-12-23T13:32:41Z</time>
      </trkpt>
      <trkpt lat="45.25577" lon="6.12761">
        <ele>2224</ele>
        <time>2021-12-23T13:32:42Z</time>
      </trkpt>
      <trkpt lat="45.25574" lon="6.12773">
        <ele>2220</ele>
        <time>2021-12-23T13:32:43Z</time>
      </trkpt>
      <trkpt lat="45.25571" lon="6.12785">
        <ele>2220</ele>
        <time>2021-12-23T13:32:44Z</time>
      </trkpt>
      <trkpt lat="45.25567" lon="6.12797">
        <ele>2217</ele>
        <time>2021-12-23T13:32:45Z</time>
      </trkpt>
      <trkpt lat="45.2557" lon="6.12808">
        <ele>2207</ele>
        <time>2021-12-23T13:32:46Z</time>
      </trkpt>
      <trkpt lat="45.25567" lon="6.12822">
        <ele>2201</ele>
        <time>2021-12-23T13:32:47Z</time>
      </trkpt>
      <trkpt lat="45.25565" lon="6.12836">
        <ele>2195</ele>
        <time>2021-12-23T13:32:48Z</time>
      </trkpt>
      <trkpt lat="45.25561" lon="6.12837">
        <ele>2191</ele>
        <time>2021-12-23T13:32:49Z</time>
      </trkpt>
      <trkpt lat="45.25557" lon="6.12837">
        <ele>2189</ele>
        <time>2021-12-23T13:32:50Z</time>
      </trkpt>
      <trkpt lat="45.25554" lon="6.12838">
        <ele>2188</ele>
        <time>2021-12-23T13:32:51Z</time>
      </trkpt>
      <trkpt lat="45.2555" lon="6.12838">
        <ele>2188</ele>
        <time>2021-12-23T13:32:52Z</time>
      </trkpt>
      <trkpt lat="45.25546" lon="6.12839">
        <ele>2189</ele>
        <time>2021-12-23T13:32:53Z</time>
      </trkpt>
      <trkpt lat="45.25553" lon="6.12837">
        <ele>2190</ele>
        <time>2021-12-23T13:32:54Z</time>
      </trkpt>
      <trkpt lat="45.25559" lon="6.12836">
        <ele>2190</ele>
        <time>2021-12-23T13:32:55Z</time>
      </trkpt>
      <trkpt lat="45.25565" lon="6.12834">
        <ele>2190</ele>
        <time>2021-12-23T13:32:56Z</time>
      </trkpt>
      <trkpt lat="45.25564" lon="6.12834">
        <ele>2189</ele>
        <time>2021-12-23T13:32:58Z</time>
      </trkpt>
      <trkpt lat="45.25564" lon="6.12834">
        <ele>2189</ele>
        <time>2021-12-23T13:32:59Z</time>
      </trkpt>
      <trkpt lat="45.25563" lon="6.12834">
        <ele>2189</ele>
        <time>2021-12-23T13:33:00Z</time>
      </trkpt>
      <trkpt lat="45.25563" lon="6.12833">
        <ele>2189</ele>
        <time>2021-12-23T13:33:01Z</time>
      </trkpt>
      <trkpt lat="45.25562" lon="6.12833">
        <ele>2189</ele>
        <time>2021-12-23T13:33:02Z</time>
      </trkpt>
      <trkpt lat="45.25562" lon="6.12833">
        <ele>2189</ele>
        <time>2021-12-23T13:33:03Z</time>
      </trkpt>
      <trkpt lat="45.25561" lon="6.12833">
        <ele>2189</ele>
        <time>2021-12-23T13:33:04Z</time>
      </trkpt>
      <trkpt lat="45.25561" lon="6.12832">
        <ele>2189</ele>
        <time>2021-12-23T13:33:05Z</time>
      </trkpt>
      <trkpt lat="45.2556" lon="6.12832">
        <ele>2188</ele>
        <time>2021-12-23T13:33:06Z</time>
      </trkpt>
      <trkpt lat="45.2556" lon="6.12832">
        <ele>2188</ele>
        <time>2021-12-23T13:33:07Z</time>
      </trkpt>
      <trkpt lat="45.25559" lon="6.12832">
        <ele>2188</ele>
        <time>2021-12-23T13:33:08Z</time>
      </trkpt>
      <trkpt lat="45.25559" lon="6.12831">
        <ele>2188</ele>
        <time>2021-12-23T13:33:09Z</time>
      </trkpt>
      <trkpt lat="45.25558" lon="6.12831">
        <ele>2189</ele>
        <time>2021-12-23T13:33:10Z</time>
      </trkpt>
      <trkpt lat="45.25551" lon="6.12827">
        <ele>2189</ele>
        <time>2021-12-23T13:33:11Z</time>
      </trkpt>
      <trkpt lat="45.25551" lon="6.12827">
        <ele>2189</ele>
        <time>2021-12-23T13:33:12Z</time>
      </trkpt>
      <trkpt lat="45.25551" lon="6.12827">
        <ele>2189</ele>
        <time>2021-12-23T13:33:13Z</time>
      </trkpt>
      <trkpt lat="45.25552" lon="6.12827">
        <ele>2189</ele>
        <time>2021-12-23T13:33:14Z</time>
      </trkpt>
      <trkpt lat="45.25552" lon="6.12827">
        <ele>2189</ele>
        <time>2021-12-23T13:33:15Z</time>
      </trkpt>
      <trkpt lat="45.25552" lon="6.12827">
        <ele>2188</ele>
        <time>2021-12-23T13:33:17Z</time>
      </trkpt>
      <trkpt lat="45.25552" lon="6.12827">
        <ele>2188</ele>
        <time>2021-12-23T13:33:18Z</time>
      </trkpt>
      <trkpt lat="45.25552" lon="6.12827">
        <ele>2188</ele>
        <time>2021-12-23T13:33:20Z</time>
      </trkpt>
      <trkpt lat="45.25552" lon="6.12827">
        <ele>2188</ele>
        <time>2021-12-23T13:33:21Z</time>
      </trkpt>
      <trkpt lat="45.25553" lon="6.12827">
        <ele>2189</ele>
        <time>2021-12-23T13:33:22Z</time>
      </trkpt>
      <trkpt lat="45.25553" lon="6.12827">
        <ele>2189</ele>
        <time>2021-12-23T13:33:23Z</time>
      </trkpt>
      <trkpt lat="45.25553" lon="6.12827">
        <ele>2188</ele>
        <time>2021-12-23T13:33:24Z</time>
      </trkpt>
      <trkpt lat="45.25553" lon="6.12827">
        <ele>2188</ele>
        <time>2021-12-23T13:33:25Z</time>
      </trkpt>
      <trkpt lat="45.25553" lon="6.12827">
        <ele>2188</ele>
        <time>2021-12-23T13:33:26Z</time>
      </trkpt>
      <trkpt lat="45.25553" lon="6.12827">
        <ele>2188</ele>
        <time>2021-12-23T13:33:27Z</time>
      </trkpt>
      <trkpt lat="45.25553" lon="6.12827">
        <ele>2189</ele>
        <time>2021-12-23T13:33:28Z</time>
      </trkpt>
      <trkpt lat="45.25554" lon="6.12827">
        <ele>2189</ele>
        <time>2021-12-23T13:33:29Z</time>
      </trkpt>
      <trkpt lat="45.25554" lon="6.12827">
        <ele>2188</ele>
        <time>2021-12-23T13:33:30Z</time>
      </trkpt>
      <trkpt lat="45.25554" lon="6.12827">
        <ele>2188</ele>
        <time>2021-12-23T13:33:31Z</time>
      </trkpt>
      <trkpt lat="45.25554" lon="6.12827">
        <ele>2189</ele>
        <time>2021-12-23T13:33:32Z</time>
      </trkpt>
      <trkpt lat="45.25554" lon="6.12827">
        <ele>2190</ele>
        <time>2021-12-23T13:33:33Z</time>
      </trkpt>
      <trkpt lat="45.25554" lon="6.12827">
        <ele>2190</ele>
        <time>2021-12-23T13:33:34Z</time>
      </trkpt>
      <trkpt lat="45.25554" lon="6.12826">
        <ele>2189</ele>
        <time>2021-12-23T13:33:36Z</time>
      </trkpt>
      <trkpt lat="45.25555" lon="6.12826">
        <ele>2189</ele>
        <time>2021-12-23T13:33:37Z</time>
      </trkpt>
      <trkpt lat="45.25555" lon="6.12826">
        <ele>2189</ele>
        <time>2021-12-23T13:33:38Z</time>
      </trkpt>
      <trkpt lat="45.25555" lon="6.12826">
        <ele>2189</ele>
        <time>2021-12-23T13:33:39Z</time>
      </trkpt>
      <trkpt lat="45.25555" lon="6.12826">
        <ele>2189</ele>
        <time>2021-12-23T13:33:40Z</time>
      </trkpt>
      <trkpt lat="45.25555" lon="6.12826">
        <ele>2189</ele>
        <time>2021-12-23T13:33:41Z</time>
      </trkpt>
      <trkpt lat="45.25555" lon="6.12826">
        <ele>2189</ele>
        <time>2021-12-23T13:33:42Z</time>
      </trkpt>
      <trkpt lat="45.25556" lon="6.12826">
        <ele>2189</ele>
        <time>2021-12-23T13:33:43Z</time>
      </trkpt>
      <trkpt lat="45.25556" lon="6.12826">
        <ele>2189</ele>
        <time>2021-12-23T13:33:44Z</time>
      </trkpt>
      <trkpt lat="45.25556" lon="6.12826">
        <ele>2189</ele>
        <time>2021-12-23T13:33:45Z</time>
      </trkpt>
      <trkpt lat="45.25556" lon="6.12826">
        <ele>2189</ele>
        <time>2021-12-23T13:33:46Z</time>
      </trkpt>
      <trkpt lat="45.25556" lon="6.12826">
        <ele>2189</ele>
        <time>2021-12-23T13:33:47Z</time>
      </trkpt>
      <trkpt lat="45.25556" lon="6.12826">
        <ele>2189</ele>
        <time>2021-12-23T13:33:48Z</time>
      </trkpt>
      <trkpt lat="45.25556" lon="6.12826">
        <ele>2189</ele>
        <time>2021-12-23T13:33:49Z</time>
      </trkpt>
      <trkpt lat="45.25557" lon="6.12826">
        <ele>2189</ele>
        <time>2021-12-23T13:33:50Z</time>
      </trkpt>
      <trkpt lat="45.25557" lon="6.12826">
        <ele>2189</ele>
        <time>2021-12-23T13:33:51Z</time>
      </trkpt>
      <trkpt lat="45.25557" lon="6.12826">
        <ele>2188</ele>
        <time>2021-12-23T13:33:52Z</time>
      </trkpt>
      <trkpt lat="45.25557" lon="6.12826">
        <ele>2188</ele>
        <time>2021-12-23T13:33:53Z</time>
      </trkpt>
      <trkpt lat="45.25557" lon="6.12826">
        <ele>2188</ele>
        <time>2021-12-23T13:33:55Z</time>
      </trkpt>
      <trkpt lat="45.25557" lon="6.12826">
        <ele>2188</ele>
        <time>2021-12-23T13:33:56Z</time>
      </trkpt>
      <trkpt lat="45.25557" lon="6.12826">
        <ele>2188</ele>
        <time>2021-12-23T13:33:57Z</time>
      </trkpt>
      <trkpt lat="45.25558" lon="6.12826">
        <ele>2188</ele>
        <time>2021-12-23T13:33:58Z</time>
      </trkpt>
      <trkpt lat="45.25558" lon="6.12826">
        <ele>2188</ele>
        <time>2021-12-23T13:33:59Z</time>
      </trkpt>
      <trkpt lat="45.25558" lon="6.12825">
        <ele>2189</ele>
        <time>2021-12-23T13:34:00Z</time>
      </trkpt>
      <trkpt lat="45.25558" lon="6.12825">
        <ele>2189</ele>
        <time>2021-12-23T13:34:01Z</time>
      </trkpt>
      <trkpt lat="45.25558" lon="6.12825">
        <ele>2189</ele>
        <time>2021-12-23T13:34:02Z</time>
      </trkpt>
      <trkpt lat="45.25558" lon="6.12825">
        <ele>2189</ele>
        <time>2021-12-23T13:34:03Z</time>
      </trkpt>
      <trkpt lat="45.25559" lon="6.12825">
        <ele>2189</ele>
        <time>2021-12-23T13:34:04Z</time>
      </trkpt>
      <trkpt lat="45.25559" lon="6.12825">
        <ele>2189</ele>
        <time>2021-12-23T13:34:05Z</time>
      </trkpt>
      <trkpt lat="45.25559" lon="6.12825">
        <ele>2189</ele>
        <time>2021-12-23T13:34:06Z</time>
      </trkpt>
      <trkpt lat="45.25559" lon="6.12825">
        <ele>2189</ele>
        <time>2021-12-23T13:34:07Z</time>
      </trkpt>
      <trkpt lat="45.25559" lon="6.12825">
        <ele>2189</ele>
        <time>2021-12-23T13:34:08Z</time>
      </trkpt>
      <trkpt lat="45.25559" lon="6.12825">
        <ele>2189</ele>
        <time>2021-12-23T13:34:09Z</time>
      </trkpt>
      <trkpt lat="45.25559" lon="6.12825">
        <ele>2189</ele>
        <time>2021-12-23T13:34:10Z</time>
      </trkpt>
      <trkpt lat="45.2556" lon="6.12825">
        <ele>2189</ele>
        <time>2021-12-23T13:34:11Z</time>
      </trkpt>
      <trkpt lat="45.2556" lon="6.12825">
        <ele>2189</ele>
        <time>2021-12-23T13:34:12Z</time>
      </trkpt>
      <trkpt lat="45.2556" lon="6.12825">
        <ele>2189</ele>
        <time>2021-12-23T13:34:14Z</time>
      </trkpt>
      <trkpt lat="45.2556" lon="6.12825">
        <ele>2189</ele>
        <time>2021-12-23T13:34:15Z</time>
      </trkpt>
      <trkpt lat="45.2556" lon="6.12825">
        <ele>2189</ele>
        <time>2021-12-23T13:34:16Z</time>
      </trkpt>
      <trkpt lat="45.2556" lon="6.12825">
        <ele>2189</ele>
        <time>2021-12-23T13:34:17Z</time>
      </trkpt>
      <trkpt lat="45.2556" lon="6.12825">
        <ele>2189</ele>
        <time>2021-12-23T13:34:18Z</time>
      </trkpt>
      <trkpt lat="45.25561" lon="6.12825">
        <ele>2189</ele>
        <time>2021-12-23T13:34:19Z</time>
      </trkpt>
      <trkpt lat="45.25561" lon="6.12825">
        <ele>2189</ele>
        <time>2021-12-23T13:34:20Z</time>
      </trkpt>
      <trkpt lat="45.25561" lon="6.12825">
        <ele>2189</ele>
        <time>2021-12-23T13:34:21Z</time>
      </trkpt>
      <trkpt lat="45.25561" lon="6.12825">
        <ele>2189</ele>
        <time>2021-12-23T13:34:22Z</time>
      </trkpt>
      <trkpt lat="45.25561" lon="6.12824">
        <ele>2189</ele>
        <time>2021-12-23T13:34:23Z</time>
      </trkpt>
      <trkpt lat="45.25561" lon="6.12825">
        <ele>2189</ele>
        <time>2021-12-23T13:34:24Z</time>
      </trkpt>
      <trkpt lat="45.25562" lon="6.12826">
        <ele>2189</ele>
        <time>2021-12-23T13:34:25Z</time>
      </trkpt>
      <trkpt lat="45.25562" lon="6.12827">
        <ele>2189</ele>
        <time>2021-12-23T13:34:26Z</time>
      </trkpt>
      <trkpt lat="45.25562" lon="6.12828">
        <ele>2189</ele>
        <time>2021-12-23T13:34:27Z</time>
      </trkpt>
      <trkpt lat="45.25562" lon="6.12829">
        <ele>2189</ele>
        <time>2021-12-23T13:34:28Z</time>
      </trkpt>
      <trkpt lat="45.25563" lon="6.1283">
        <ele>2189</ele>
        <time>2021-12-23T13:34:29Z</time>
      </trkpt>
      <trkpt lat="45.25563" lon="6.12831">
        <ele>2189</ele>
        <time>2021-12-23T13:34:30Z</time>
      </trkpt>
      <trkpt lat="45.25563" lon="6.12832">
        <ele>2189</ele>
        <time>2021-12-23T13:34:31Z</time>
      </trkpt>
      <trkpt lat="45.25563" lon="6.12833">
        <ele>2189</ele>
        <time>2021-12-23T13:34:33Z</time>
      </trkpt>
      <trkpt lat="45.25564" lon="6.12834">
        <ele>2189</ele>
        <time>2021-12-23T13:34:34Z</time>
      </trkpt>
      <trkpt lat="45.25564" lon="6.12835">
        <ele>2189</ele>
        <time>2021-12-23T13:34:35Z</time>
      </trkpt>
      <trkpt lat="45.25564" lon="6.12836">
        <ele>2189</ele>
        <time>2021-12-23T13:34:36Z</time>
      </trkpt>
      <trkpt lat="45.25564" lon="6.12837">
        <ele>2189</ele>
        <time>2021-12-23T13:34:37Z</time>
      </trkpt>
      <trkpt lat="45.25566" lon="6.12837">
        <ele>2190</ele>
        <time>2021-12-23T13:34:38Z</time>
      </trkpt>
      <trkpt lat="45.25567" lon="6.12838">
        <ele>2190</ele>
        <time>2021-12-23T13:34:39Z</time>
      </trkpt>
      <trkpt lat="45.25568" lon="6.12838">
        <ele>2190</ele>
        <time>2021-12-23T13:34:40Z</time>
      </trkpt>
      <trkpt lat="45.25569" lon="6.12839">
        <ele>2190</ele>
        <time>2021-12-23T13:34:41Z</time>
      </trkpt>
      <trkpt lat="45.25571" lon="6.12839">
        <ele>2189</ele>
        <time>2021-12-23T13:34:42Z</time>
      </trkpt>
      <trkpt lat="45.25572" lon="6.1284">
        <ele>2189</ele>
        <time>2021-12-23T13:34:43Z</time>
      </trkpt>
      <trkpt lat="45.25573" lon="6.1284">
        <ele>2189</ele>
        <time>2021-12-23T13:34:44Z</time>
      </trkpt>
      <trkpt lat="45.25572" lon="6.1284">
        <ele>2189</ele>
        <time>2021-12-23T13:34:45Z</time>
      </trkpt>
      <trkpt lat="45.25571" lon="6.1284">
        <ele>2189</ele>
        <time>2021-12-23T13:34:46Z</time>
      </trkpt>
      <trkpt lat="45.25571" lon="6.12839">
        <ele>2189</ele>
        <time>2021-12-23T13:34:47Z</time>
      </trkpt>
      <trkpt lat="45.2557" lon="6.12839">
        <ele>2189</ele>
        <time>2021-12-23T13:34:48Z</time>
      </trkpt>
      <trkpt lat="45.25569" lon="6.12839">
        <ele>2189</ele>
        <time>2021-12-23T13:34:49Z</time>
      </trkpt>
      <trkpt lat="45.25568" lon="6.12839">
        <ele>2189</ele>
        <time>2021-12-23T13:34:50Z</time>
      </trkpt>
      <trkpt lat="45.25567" lon="6.12838">
        <ele>2189</ele>
        <time>2021-12-23T13:34:52Z</time>
      </trkpt>
      <trkpt lat="45.25566" lon="6.12838">
        <ele>2189</ele>
        <time>2021-12-23T13:34:53Z</time>
      </trkpt>
      <trkpt lat="45.25565" lon="6.12838">
        <ele>2189</ele>
        <time>2021-12-23T13:34:54Z</time>
      </trkpt>
      <trkpt lat="45.25564" lon="6.12837">
        <ele>2189</ele>
        <time>2021-12-23T13:34:55Z</time>
      </trkpt>
      <trkpt lat="45.25564" lon="6.12837">
        <ele>2189</ele>
        <time>2021-12-23T13:34:56Z</time>
      </trkpt>
      <trkpt lat="45.25563" lon="6.12837">
        <ele>2189</ele>
        <time>2021-12-23T13:34:57Z</time>
      </trkpt>
      <trkpt lat="45.25563" lon="6.12837">
        <ele>2189</ele>
        <time>2021-12-23T13:34:58Z</time>
      </trkpt>
      <trkpt lat="45.25563" lon="6.12837">
        <ele>2189</ele>
        <time>2021-12-23T13:34:59Z</time>
      </trkpt>
      <trkpt lat="45.25562" lon="6.12837">
        <ele>2189</ele>
        <time>2021-12-23T13:35:00Z</time>
      </trkpt>
      <trkpt lat="45.25562" lon="6.12837">
        <ele>2189</ele>
        <time>2021-12-23T13:35:01Z</time>
      </trkpt>
      <trkpt lat="45.25562" lon="6.12837">
        <ele>2189</ele>
        <time>2021-12-23T13:35:02Z</time>
      </trkpt>
      <trkpt lat="45.25562" lon="6.12837">
        <ele>2188</ele>
        <time>2021-12-23T13:35:03Z</time>
      </trkpt>
      <trkpt lat="45.25561" lon="6.12837">
        <ele>2188</ele>
        <time>2021-12-23T13:35:04Z</time>
      </trkpt>
      <trkpt lat="45.25561" lon="6.12837">
        <ele>2188</ele>
        <time>2021-12-23T13:35:05Z</time>
      </trkpt>
      <trkpt lat="45.25561" lon="6.12837">
        <ele>2188</ele>
        <time>2021-12-23T13:35:06Z</time>
      </trkpt>
      <trkpt lat="45.2556" lon="6.12837">
        <ele>2188</ele>
        <time>2021-12-23T13:35:07Z</time>
      </trkpt>
      <trkpt lat="45.2556" lon="6.12837">
        <ele>2188</ele>
        <time>2021-12-23T13:35:08Z</time>
      </trkpt>
      <trkpt lat="45.2556" lon="6.12837">
        <ele>2188</ele>
        <time>2021-12-23T13:35:09Z</time>
      </trkpt>
      <trkpt lat="45.2556" lon="6.12836">
        <ele>2188</ele>
        <time>2021-12-23T13:35:11Z</time>
      </trkpt>
      <trkpt lat="45.25559" lon="6.12836">
        <ele>2188</ele>
        <time>2021-12-23T13:35:12Z</time>
      </trkpt>
      <trkpt lat="45.25559" lon="6.12836">
        <ele>2189</ele>
        <time>2021-12-23T13:35:13Z</time>
      </trkpt>
      <trkpt lat="45.25559" lon="6.12836">
        <ele>2191</ele>
        <time>2021-12-23T13:35:14Z</time>
      </trkpt>
      <trkpt lat="45.25558" lon="6.12836">
        <ele>2191</ele>
        <time>2021-12-23T13:35:15Z</time>
      </trkpt>
      <trkpt lat="45.25558" lon="6.12836">
        <ele>2190</ele>
        <time>2021-12-23T13:35:16Z</time>
      </trkpt>
      <trkpt lat="45.25558" lon="6.12836">
        <ele>2190</ele>
        <time>2021-12-23T13:35:17Z</time>
      </trkpt>
      <trkpt lat="45.25558" lon="6.12836">
        <ele>2190</ele>
        <time>2021-12-23T13:35:18Z</time>
      </trkpt>
      <trkpt lat="45.25558" lon="6.12836">
        <ele>2189</ele>
        <time>2021-12-23T13:35:19Z</time>
      </trkpt>
      <trkpt lat="45.25564" lon="6.12837">
        <ele>2189</ele>
        <time>2021-12-23T13:35:20Z</time>
      </trkpt>
      <trkpt lat="45.2557" lon="6.12838">
        <ele>2189</ele>
        <time>2021-12-23T13:35:21Z</time>
      </trkpt>
      <trkpt lat="45.25576" lon="6.12839">
        <ele>2187</ele>
        <time>2021-12-23T13:35:22Z</time>
      </trkpt>
      <trkpt lat="45.25582" lon="6.1284">
        <ele>2184</ele>
        <time>2021-12-23T13:35:23Z</time>
      </trkpt>
      <trkpt lat="45.25589" lon="6.12841">
        <ele>2184</ele>
        <time>2021-12-23T13:35:24Z</time>
      </trkpt>
      <trkpt lat="45.25595" lon="6.12842">
        <ele>2179</ele>
        <time>2021-12-23T13:35:25Z</time>
      </trkpt>
      <trkpt lat="45.25605" lon="6.12844">
        <ele>2179</ele>
        <time>2021-12-23T13:35:26Z</time>
      </trkpt>
      <trkpt lat="45.25605" lon="6.12844">
        <ele>2174</ele>
        <time>2021-12-23T13:35:27Z</time>
      </trkpt>
      <trkpt lat="45.25622" lon="6.12857">
        <ele>2172</ele>
        <time>2021-12-23T13:35:28Z</time>
      </trkpt>
      <trkpt lat="45.25635" lon="6.12863">
        <ele>2172</ele>
        <time>2021-12-23T13:35:29Z</time>
      </trkpt>
      <trkpt lat="45.2564" lon="6.12865">
        <ele>2170</ele>
        <time>2021-12-23T13:35:30Z</time>
      </trkpt>
      <trkpt lat="45.25652" lon="6.1287">
        <ele>2170</ele>
        <time>2021-12-23T13:35:31Z</time>
      </trkpt>
      <trkpt lat="45.25654" lon="6.12871">
        <ele>2170</ele>
        <time>2021-12-23T13:35:32Z</time>
      </trkpt>
      <trkpt lat="45.25658" lon="6.12873">
        <ele>2169</ele>
        <time>2021-12-23T13:35:33Z</time>
      </trkpt>
      <trkpt lat="45.25668" lon="6.12873">
        <ele>2168</ele>
        <time>2021-12-23T13:35:34Z</time>
      </trkpt>
      <trkpt lat="45.25671" lon="6.12873">
        <ele>2168</ele>
        <time>2021-12-23T13:35:35Z</time>
      </trkpt>
      <trkpt lat="45.25675" lon="6.12872">
        <ele>2167</ele>
        <time>2021-12-23T13:35:36Z</time>
      </trkpt>
      <trkpt lat="45.25684" lon="6.12871">
        <ele>2167</ele>
        <time>2021-12-23T13:35:37Z</time>
      </trkpt>
      <trkpt lat="45.25686" lon="6.12871">
        <ele>2166</ele>
        <time>2021-12-23T13:35:38Z</time>
      </trkpt>
      <trkpt lat="45.25688" lon="6.1287">
        <ele>2166</ele>
        <time>2021-12-23T13:35:39Z</time>
      </trkpt>
      <trkpt lat="45.25693" lon="6.12869">
        <ele>2166</ele>
        <time>2021-12-23T13:35:40Z</time>
      </trkpt>
      <trkpt lat="45.25693" lon="6.12869">
        <ele>2165</ele>
        <time>2021-12-23T13:35:41Z</time>
      </trkpt>
      <trkpt lat="45.25705" lon="6.12866">
        <ele>2165</ele>
        <time>2021-12-23T13:35:42Z</time>
      </trkpt>
      <trkpt lat="45.25705" lon="6.12866">
        <ele>2164</ele>
        <time>2021-12-23T13:35:44Z</time>
      </trkpt>
      <trkpt lat="45.25707" lon="6.12866">
        <ele>2164</ele>
        <time>2021-12-23T13:35:45Z</time>
      </trkpt>
      <trkpt lat="45.2571" lon="6.12865">
        <ele>2164</ele>
        <time>2021-12-23T13:35:46Z</time>
      </trkpt>
      <trkpt lat="45.25712" lon="6.12865">
        <ele>2164</ele>
        <time>2021-12-23T13:35:47Z</time>
      </trkpt>
      <trkpt lat="45.25728" lon="6.12862">
        <ele>2162</ele>
        <time>2021-12-23T13:35:49Z</time>
      </trkpt>
      <trkpt lat="45.25727" lon="6.12862">
        <ele>2162</ele>
        <time>2021-12-23T13:35:50Z</time>
      </trkpt>
      <trkpt lat="45.25727" lon="6.12862">
        <ele>2161</ele>
        <time>2021-12-23T13:35:51Z</time>
      </trkpt>
      <trkpt lat="45.25727" lon="6.12862">
        <ele>2161</ele>
        <time>2021-12-23T13:35:52Z</time>
      </trkpt>
      <trkpt lat="45.25727" lon="6.12861">
        <ele>2160</ele>
        <time>2021-12-23T13:35:53Z</time>
      </trkpt>
      <trkpt lat="45.25726" lon="6.12861">
        <ele>2160</ele>
        <time>2021-12-23T13:35:54Z</time>
      </trkpt>
      <trkpt lat="45.25726" lon="6.12861">
        <ele>2160</ele>
        <time>2021-12-23T13:35:55Z</time>
      </trkpt>
      <trkpt lat="45.25726" lon="6.1286">
        <ele>2160</ele>
        <time>2021-12-23T13:35:56Z</time>
      </trkpt>
      <trkpt lat="45.25726" lon="6.1286">
        <ele>2160</ele>
        <time>2021-12-23T13:35:57Z</time>
      </trkpt>
      <trkpt lat="45.25726" lon="6.1286">
        <ele>2160</ele>
        <time>2021-12-23T13:35:58Z</time>
      </trkpt>
      <trkpt lat="45.25725" lon="6.1286">
        <ele>2160</ele>
        <time>2021-12-23T13:35:59Z</time>
      </trkpt>
      <trkpt lat="45.25725" lon="6.12859">
        <ele>2160</ele>
        <time>2021-12-23T13:36:00Z</time>
      </trkpt>
      <trkpt lat="45.25725" lon="6.12859">
        <ele>2160</ele>
        <time>2021-12-23T13:36:01Z</time>
      </trkpt>
      <trkpt lat="45.25725" lon="6.12859">
        <ele>2160</ele>
        <time>2021-12-23T13:36:02Z</time>
      </trkpt>
      <trkpt lat="45.25724" lon="6.12858">
        <ele>2161</ele>
        <time>2021-12-23T13:36:03Z</time>
      </trkpt>
      <trkpt lat="45.25724" lon="6.12858">
        <ele>2161</ele>
        <time>2021-12-23T13:36:04Z</time>
      </trkpt>
      <trkpt lat="45.25724" lon="6.12858">
        <ele>2161</ele>
        <time>2021-12-23T13:36:05Z</time>
      </trkpt>
      <trkpt lat="45.25724" lon="6.12858">
        <ele>2161</ele>
        <time>2021-12-23T13:36:06Z</time>
      </trkpt>
      <trkpt lat="45.25723" lon="6.12857">
        <ele>2161</ele>
        <time>2021-12-23T13:36:08Z</time>
      </trkpt>
      <trkpt lat="45.25723" lon="6.12857">
        <ele>2161</ele>
        <time>2021-12-23T13:36:09Z</time>
      </trkpt>
      <trkpt lat="45.25723" lon="6.12857">
        <ele>2160</ele>
        <time>2021-12-23T13:36:10Z</time>
      </trkpt>
      <trkpt lat="45.25723" lon="6.12857">
        <ele>2161</ele>
        <time>2021-12-23T13:36:11Z</time>
      </trkpt>
      <trkpt lat="45.25722" lon="6.12856">
        <ele>2161</ele>
        <time>2021-12-23T13:36:12Z</time>
      </trkpt>
      <trkpt lat="45.25722" lon="6.12856">
        <ele>2160</ele>
        <time>2021-12-23T13:36:13Z</time>
      </trkpt>
      <trkpt lat="45.25717" lon="6.12847">
        <ele>2161</ele>
        <time>2021-12-23T13:36:14Z</time>
      </trkpt>
      <trkpt lat="45.25718" lon="6.12844">
        <ele>2161</ele>
        <time>2021-12-23T13:36:15Z</time>
      </trkpt>
      <trkpt lat="45.25718" lon="6.12842">
        <ele>2161</ele>
        <time>2021-12-23T13:36:16Z</time>
      </trkpt>
      <trkpt lat="45.25719" lon="6.12839">
        <ele>2160</ele>
        <time>2021-12-23T13:36:17Z</time>
      </trkpt>
      <trkpt lat="45.25719" lon="6.12837">
        <ele>2160</ele>
        <time>2021-12-23T13:36:18Z</time>
      </trkpt>
      <trkpt lat="45.2572" lon="6.12834">
        <ele>2159</ele>
        <time>2021-12-23T13:36:19Z</time>
      </trkpt>
      <trkpt lat="45.25718" lon="6.12831">
        <ele>2159</ele>
        <time>2021-12-23T13:36:20Z</time>
      </trkpt>
      <trkpt lat="45.25716" lon="6.12827">
        <ele>2158</ele>
        <time>2021-12-23T13:36:21Z</time>
      </trkpt>
      <trkpt lat="45.25714" lon="6.12823">
        <ele>2158</ele>
        <time>2021-12-23T13:36:22Z</time>
      </trkpt>
      <trkpt lat="45.25714" lon="6.12822">
        <ele>2158</ele>
        <time>2021-12-23T13:36:23Z</time>
      </trkpt>
      <trkpt lat="45.25715" lon="6.12821">
        <ele>2158</ele>
        <time>2021-12-23T13:36:24Z</time>
      </trkpt>
      <trkpt lat="45.25715" lon="6.1282">
        <ele>2158</ele>
        <time>2021-12-23T13:36:25Z</time>
      </trkpt>
      <trkpt lat="45.25716" lon="6.12819">
        <ele>2157</ele>
        <time>2021-12-23T13:36:27Z</time>
      </trkpt>
      <trkpt lat="45.25716" lon="6.12818">
        <ele>2157</ele>
        <time>2021-12-23T13:36:28Z</time>
      </trkpt>
      <trkpt lat="45.25716" lon="6.12817">
        <ele>2157</ele>
        <time>2021-12-23T13:36:29Z</time>
      </trkpt>
      <trkpt lat="45.25717" lon="6.12816">
        <ele>2157</ele>
        <time>2021-12-23T13:36:30Z</time>
      </trkpt>
      <trkpt lat="45.25717" lon="6.12815">
        <ele>2157</ele>
        <time>2021-12-23T13:36:31Z</time>
      </trkpt>
      <trkpt lat="45.25717" lon="6.12814">
        <ele>2157</ele>
        <time>2021-12-23T13:36:32Z</time>
      </trkpt>
      <trkpt lat="45.25718" lon="6.12813">
        <ele>2157</ele>
        <time>2021-12-23T13:36:33Z</time>
      </trkpt>
      <trkpt lat="45.25718" lon="6.12812">
        <ele>2156</ele>
        <time>2021-12-23T13:36:34Z</time>
      </trkpt>
      <trkpt lat="45.25721" lon="6.12796">
        <ele>2155</ele>
        <time>2021-12-23T13:36:35Z</time>
      </trkpt>
      <trkpt lat="45.25719" lon="6.12792">
        <ele>2155</ele>
        <time>2021-12-23T13:36:36Z</time>
      </trkpt>
      <trkpt lat="45.25719" lon="6.12779">
        <ele>2154</ele>
        <time>2021-12-23T13:36:37Z</time>
      </trkpt>
      <trkpt lat="45.25723" lon="6.12774">
        <ele>2153</ele>
        <time>2021-12-23T13:36:38Z</time>
      </trkpt>
      <trkpt lat="45.25726" lon="6.12769">
        <ele>2153</ele>
        <time>2021-12-23T13:36:39Z</time>
      </trkpt>
      <trkpt lat="45.25729" lon="6.12764">
        <ele>2151</ele>
        <time>2021-12-23T13:36:40Z</time>
      </trkpt>
      <trkpt lat="45.25728" lon="6.12757">
        <ele>2151</ele>
        <time>2021-12-23T13:36:41Z</time>
      </trkpt>
      <trkpt lat="45.25726" lon="6.12751">
        <ele>2149</ele>
        <time>2021-12-23T13:36:42Z</time>
      </trkpt>
      <trkpt lat="45.25727" lon="6.1275">
        <ele>2149</ele>
        <time>2021-12-23T13:36:43Z</time>
      </trkpt>
      <trkpt lat="45.25727" lon="6.12748">
        <ele>2149</ele>
        <time>2021-12-23T13:36:44Z</time>
      </trkpt>
      <trkpt lat="45.25727" lon="6.12747">
        <ele>2148</ele>
        <time>2021-12-23T13:36:46Z</time>
      </trkpt>
      <trkpt lat="45.25727" lon="6.12746">
        <ele>2148</ele>
        <time>2021-12-23T13:36:47Z</time>
      </trkpt>
      <trkpt lat="45.25727" lon="6.12745">
        <ele>2148</ele>
        <time>2021-12-23T13:36:48Z</time>
      </trkpt>
      <trkpt lat="45.25728" lon="6.12744">
        <ele>2148</ele>
        <time>2021-12-23T13:36:49Z</time>
      </trkpt>
      <trkpt lat="45.25726" lon="6.12733">
        <ele>2148</ele>
        <time>2021-12-23T13:36:50Z</time>
      </trkpt>
      <trkpt lat="45.25723" lon="6.1273">
        <ele>2147</ele>
        <time>2021-12-23T13:36:51Z</time>
      </trkpt>
      <trkpt lat="45.25721" lon="6.12726">
        <ele>2147</ele>
        <time>2021-12-23T13:36:52Z</time>
      </trkpt>
      <trkpt lat="45.25718" lon="6.12723">
        <ele>2147</ele>
        <time>2021-12-23T13:36:53Z</time>
      </trkpt>
      <trkpt lat="45.25719" lon="6.12723">
        <ele>2147</ele>
        <time>2021-12-23T13:36:54Z</time>
      </trkpt>
      <trkpt lat="45.25721" lon="6.12723">
        <ele>2147</ele>
        <time>2021-12-23T13:36:55Z</time>
      </trkpt>
      <trkpt lat="45.25722" lon="6.12723">
        <ele>2145</ele>
        <time>2021-12-23T13:36:56Z</time>
      </trkpt>
      <trkpt lat="45.25723" lon="6.12723">
        <ele>2144</ele>
        <time>2021-12-23T13:36:57Z</time>
      </trkpt>
      <trkpt lat="45.25725" lon="6.12724">
        <ele>2143</ele>
        <time>2021-12-23T13:36:58Z</time>
      </trkpt>
      <trkpt lat="45.25726" lon="6.12724">
        <ele>2140</ele>
        <time>2021-12-23T13:36:59Z</time>
      </trkpt>
      <trkpt lat="45.25727" lon="6.12724">
        <ele>2139</ele>
        <time>2021-12-23T13:37:00Z</time>
      </trkpt>
      <trkpt lat="45.25728" lon="6.12724">
        <ele>2137</ele>
        <time>2021-12-23T13:37:01Z</time>
      </trkpt>
      <trkpt lat="45.2574" lon="6.12727">
        <ele>2135</ele>
        <time>2021-12-23T13:37:02Z</time>
      </trkpt>
      <trkpt lat="45.25741" lon="6.12729">
        <ele>2132</ele>
        <time>2021-12-23T13:37:03Z</time>
      </trkpt>
      <trkpt lat="45.25742" lon="6.12731">
        <ele>2127</ele>
        <time>2021-12-23T13:37:05Z</time>
      </trkpt>
      <trkpt lat="45.25743" lon="6.12732">
        <ele>2127</ele>
        <time>2021-12-23T13:37:06Z</time>
      </trkpt>
      <trkpt lat="45.25745" lon="6.12734">
        <ele>2123</ele>
        <time>2021-12-23T13:37:07Z</time>
      </trkpt>
      <trkpt lat="45.25746" lon="6.12735">
        <ele>2121</ele>
        <time>2021-12-23T13:37:08Z</time>
      </trkpt>
      <trkpt lat="45.25754" lon="6.12741">
        <ele>2118</ele>
        <time>2021-12-23T13:37:09Z</time>
      </trkpt>
      <trkpt lat="45.25754" lon="6.12738">
        <ele>2118</ele>
        <time>2021-12-23T13:37:10Z</time>
      </trkpt>
      <trkpt lat="45.25755" lon="6.12734">
        <ele>2115</ele>
        <time>2021-12-23T13:37:11Z</time>
      </trkpt>
      <trkpt lat="45.25756" lon="6.12732">
        <ele>2115</ele>
        <time>2021-12-23T13:37:12Z</time>
      </trkpt>
      <trkpt lat="45.25756" lon="6.12731">
        <ele>2112</ele>
        <time>2021-12-23T13:37:13Z</time>
      </trkpt>
      <trkpt lat="45.25757" lon="6.12729">
        <ele>2112</ele>
        <time>2021-12-23T13:37:14Z</time>
      </trkpt>
      <trkpt lat="45.25758" lon="6.12728">
        <ele>2113</ele>
        <time>2021-12-23T13:37:15Z</time>
      </trkpt>
      <trkpt lat="45.25759" lon="6.12726">
        <ele>2113</ele>
        <time>2021-12-23T13:37:16Z</time>
      </trkpt>
      <trkpt lat="45.2576" lon="6.12724">
        <ele>2112</ele>
        <time>2021-12-23T13:37:17Z</time>
      </trkpt>
      <trkpt lat="45.25761" lon="6.12724">
        <ele>2111</ele>
        <time>2021-12-23T13:37:18Z</time>
      </trkpt>
      <trkpt lat="45.25762" lon="6.12724">
        <ele>2110</ele>
        <time>2021-12-23T13:37:19Z</time>
      </trkpt>
      <trkpt lat="45.25764" lon="6.12724">
        <ele>2109</ele>
        <time>2021-12-23T13:37:20Z</time>
      </trkpt>
      <trkpt lat="45.25765" lon="6.12723">
        <ele>2108</ele>
        <time>2021-12-23T13:37:21Z</time>
      </trkpt>
      <trkpt lat="45.25773" lon="6.12723">
        <ele>2106</ele>
        <time>2021-12-23T13:37:22Z</time>
      </trkpt>
      <trkpt lat="45.25777" lon="6.12723">
        <ele>2106</ele>
        <time>2021-12-23T13:37:23Z</time>
      </trkpt>
      <trkpt lat="45.2578" lon="6.12723">
        <ele>2100</ele>
        <time>2021-12-23T13:37:24Z</time>
      </trkpt>
      <trkpt lat="45.25803" lon="6.12722">
        <ele>2100</ele>
        <time>2021-12-23T13:37:25Z</time>
      </trkpt>
      <trkpt lat="45.25808" lon="6.1272">
        <ele>2095</ele>
        <time>2021-12-23T13:37:26Z</time>
      </trkpt>
      <trkpt lat="45.25818" lon="6.12716">
        <ele>2089</ele>
        <time>2021-12-23T13:37:27Z</time>
      </trkpt>
      <trkpt lat="45.25818" lon="6.12716">
        <ele>2085</ele>
        <time>2021-12-23T13:37:28Z</time>
      </trkpt>
      <trkpt lat="45.25821" lon="6.12694">
        <ele>2082</ele>
        <time>2021-12-23T13:37:29Z</time>
      </trkpt>
      <trkpt lat="45.25821" lon="6.12694">
        <ele>2079</ele>
        <time>2021-12-23T13:37:30Z</time>
      </trkpt>
      <trkpt lat="45.25822" lon="6.1269">
        <ele>2076</ele>
        <time>2021-12-23T13:37:31Z</time>
      </trkpt>
      <trkpt lat="45.25822" lon="6.12686">
        <ele>2076</ele>
        <time>2021-12-23T13:37:32Z</time>
      </trkpt>
      <trkpt lat="45.25823" lon="6.12682">
        <ele>2074</ele>
        <time>2021-12-23T13:37:33Z</time>
      </trkpt>
      <trkpt lat="45.25835" lon="6.12671">
        <ele>2073</ele>
        <time>2021-12-23T13:37:34Z</time>
      </trkpt>
      <trkpt lat="45.25843" lon="6.12667">
        <ele>2071</ele>
        <time>2021-12-23T13:37:35Z</time>
      </trkpt>
      <trkpt lat="45.25846" lon="6.12665">
        <ele>2071</ele>
        <time>2021-12-23T13:37:36Z</time>
      </trkpt>
      <trkpt lat="45.25848" lon="6.12663">
        <ele>2069</ele>
        <time>2021-12-23T13:37:37Z</time>
      </trkpt>
      <trkpt lat="45.25855" lon="6.12657">
        <ele>2068</ele>
        <time>2021-12-23T13:37:38Z</time>
      </trkpt>
      <trkpt lat="45.25857" lon="6.12655">
        <ele>2068</ele>
        <time>2021-12-23T13:37:39Z</time>
      </trkpt>
      <trkpt lat="45.2586" lon="6.12652">
        <ele>2068</ele>
        <time>2021-12-23T13:37:40Z</time>
      </trkpt>
      <trkpt lat="45.2586" lon="6.12652">
        <ele>2068</ele>
        <time>2021-12-23T13:37:41Z</time>
      </trkpt>
      <trkpt lat="45.2586" lon="6.12651">
        <ele>2068</ele>
        <time>2021-12-23T13:37:43Z</time>
      </trkpt>
      <trkpt lat="45.25861" lon="6.1265">
        <ele>2068</ele>
        <time>2021-12-23T13:37:44Z</time>
      </trkpt>
      <trkpt lat="45.25861" lon="6.12649">
        <ele>2067</ele>
        <time>2021-12-23T13:37:45Z</time>
      </trkpt>
      <trkpt lat="45.25861" lon="6.12648">
        <ele>2068</ele>
        <time>2021-12-23T13:37:46Z</time>
      </trkpt>
      <trkpt lat="45.25862" lon="6.12647">
        <ele>2068</ele>
        <time>2021-12-23T13:37:47Z</time>
      </trkpt>
      <trkpt lat="45.25862" lon="6.12646">
        <ele>2068</ele>
        <time>2021-12-23T13:37:48Z</time>
      </trkpt>
      <trkpt lat="45.25862" lon="6.12645">
        <ele>2067</ele>
        <time>2021-12-23T13:37:49Z</time>
      </trkpt>
      <trkpt lat="45.25863" lon="6.12644">
        <ele>2067</ele>
        <time>2021-12-23T13:37:50Z</time>
      </trkpt>
      <trkpt lat="45.25869" lon="6.12631">
        <ele>2067</ele>
        <time>2021-12-23T13:37:51Z</time>
      </trkpt>
      <trkpt lat="45.25873" lon="6.12625">
        <ele>2066</ele>
        <time>2021-12-23T13:37:52Z</time>
      </trkpt>
      <trkpt lat="45.25877" lon="6.12619">
        <ele>2064</ele>
        <time>2021-12-23T13:37:53Z</time>
      </trkpt>
      <trkpt lat="45.2588" lon="6.12616">
        <ele>2063</ele>
        <time>2021-12-23T13:37:54Z</time>
      </trkpt>
      <trkpt lat="45.25883" lon="6.12612">
        <ele>2062</ele>
        <time>2021-12-23T13:37:55Z</time>
      </trkpt>
      <trkpt lat="45.25889" lon="6.12603">
        <ele>2062</ele>
        <time>2021-12-23T13:37:56Z</time>
      </trkpt>
      <trkpt lat="45.25891" lon="6.126">
        <ele>2061</ele>
        <time>2021-12-23T13:37:57Z</time>
      </trkpt>
      <trkpt lat="45.25892" lon="6.12596">
        <ele>2061</ele>
        <time>2021-12-23T13:37:58Z</time>
      </trkpt>
      <trkpt lat="45.25894" lon="6.12593">
        <ele>2060</ele>
        <time>2021-12-23T13:37:59Z</time>
      </trkpt>
      <trkpt lat="45.25894" lon="6.12593">
        <ele>2060</ele>
        <time>2021-12-23T13:38:00Z</time>
      </trkpt>
      <trkpt lat="45.25897" lon="6.12575">
        <ele>2059</ele>
        <time>2021-12-23T13:38:02Z</time>
      </trkpt>
      <trkpt lat="45.25902" lon="6.12562">
        <ele>2057</ele>
        <time>2021-12-23T13:38:03Z</time>
      </trkpt>
      <trkpt lat="45.25902" lon="6.12562">
        <ele>2056</ele>
        <time>2021-12-23T13:38:04Z</time>
      </trkpt>
      <trkpt lat="45.25905" lon="6.1256">
        <ele>2055</ele>
        <time>2021-12-23T13:38:05Z</time>
      </trkpt>
      <trkpt lat="45.25908" lon="6.12559">
        <ele>2054</ele>
        <time>2021-12-23T13:38:06Z</time>
      </trkpt>
      <trkpt lat="45.25921" lon="6.12548">
        <ele>2053</ele>
        <time>2021-12-23T13:38:07Z</time>
      </trkpt>
      <trkpt lat="45.25927" lon="6.12542">
        <ele>2053</ele>
        <time>2021-12-23T13:38:08Z</time>
      </trkpt>
      <trkpt lat="45.25933" lon="6.12535">
        <ele>2049</ele>
        <time>2021-12-23T13:38:09Z</time>
      </trkpt>
      <trkpt lat="45.2594" lon="6.12528">
        <ele>2047</ele>
        <time>2021-12-23T13:38:10Z</time>
      </trkpt>
      <trkpt lat="45.25943" lon="6.12526">
        <ele>2044</ele>
        <time>2021-12-23T13:38:11Z</time>
      </trkpt>
      <trkpt lat="45.25945" lon="6.12523">
        <ele>2043</ele>
        <time>2021-12-23T13:38:12Z</time>
      </trkpt>
      <trkpt lat="45.25956" lon="6.12514">
        <ele>2042</ele>
        <time>2021-12-23T13:38:13Z</time>
      </trkpt>
      <trkpt lat="45.25961" lon="6.12509">
        <ele>2042</ele>
        <time>2021-12-23T13:38:14Z</time>
      </trkpt>
      <trkpt lat="45.25966" lon="6.12504">
        <ele>2040</ele>
        <time>2021-12-23T13:38:15Z</time>
      </trkpt>
      <trkpt lat="45.25973" lon="6.12498">
        <ele>2039</ele>
        <time>2021-12-23T13:38:16Z</time>
      </trkpt>
      <trkpt lat="45.25975" lon="6.12493">
        <ele>2038</ele>
        <time>2021-12-23T13:38:17Z</time>
      </trkpt>
      <trkpt lat="45.25977" lon="6.12489">
        <ele>2036</ele>
        <time>2021-12-23T13:38:18Z</time>
      </trkpt>
      <trkpt lat="45.25985" lon="6.12479">
        <ele>2035</ele>
        <time>2021-12-23T13:38:19Z</time>
      </trkpt>
      <trkpt lat="45.25988" lon="6.12477">
        <ele>2035</ele>
        <time>2021-12-23T13:38:20Z</time>
      </trkpt>
      <trkpt lat="45.25991" lon="6.12474">
        <ele>2035</ele>
        <time>2021-12-23T13:38:21Z</time>
      </trkpt>
      <trkpt lat="45.25992" lon="6.12469">
        <ele>2035</ele>
        <time>2021-12-23T13:38:22Z</time>
      </trkpt>
      <trkpt lat="45.25994" lon="6.12463">
        <ele>2035</ele>
        <time>2021-12-23T13:38:23Z</time>
      </trkpt>
      <trkpt lat="45.25995" lon="6.12458">
        <ele>2033</ele>
        <time>2021-12-23T13:38:24Z</time>
      </trkpt>
      <trkpt lat="45.25997" lon="6.12454">
        <ele>2033</ele>
        <time>2021-12-23T13:38:25Z</time>
      </trkpt>
      <trkpt lat="45.25999" lon="6.1245">
        <ele>2032</ele>
        <time>2021-12-23T13:38:26Z</time>
      </trkpt>
      <trkpt lat="45.26004" lon="6.12439">
        <ele>2031</ele>
        <time>2021-12-23T13:38:27Z</time>
      </trkpt>
      <trkpt lat="45.26005" lon="6.12436">
        <ele>2030</ele>
        <time>2021-12-23T13:38:28Z</time>
      </trkpt>
      <trkpt lat="45.2601" lon="6.12425">
        <ele>2029</ele>
        <time>2021-12-23T13:38:29Z</time>
      </trkpt>
      <trkpt lat="45.26012" lon="6.12422">
        <ele>2028</ele>
        <time>2021-12-23T13:38:30Z</time>
      </trkpt>
      <trkpt lat="45.26018" lon="6.12412">
        <ele>2027</ele>
        <time>2021-12-23T13:38:31Z</time>
      </trkpt>
      <trkpt lat="45.2602" lon="6.12409">
        <ele>2027</ele>
        <time>2021-12-23T13:38:32Z</time>
      </trkpt>
      <trkpt lat="45.26023" lon="6.12405">
        <ele>2026</ele>
        <time>2021-12-23T13:38:33Z</time>
      </trkpt>
      <trkpt lat="45.26025" lon="6.12402">
        <ele>2026</ele>
        <time>2021-12-23T13:38:34Z</time>
      </trkpt>
      <trkpt lat="45.26027" lon="6.12399">
        <ele>2026</ele>
        <time>2021-12-23T13:38:35Z</time>
      </trkpt>
      <trkpt lat="45.26035" lon="6.12389">
        <ele>2025</ele>
        <time>2021-12-23T13:38:36Z</time>
      </trkpt>
      <trkpt lat="45.26039" lon="6.12386">
        <ele>2025</ele>
        <time>2021-12-23T13:38:37Z</time>
      </trkpt>
      <trkpt lat="45.26043" lon="6.12382">
        <ele>2025</ele>
        <time>2021-12-23T13:38:38Z</time>
      </trkpt>
      <trkpt lat="45.26047" lon="6.12379">
        <ele>2024</ele>
        <time>2021-12-23T13:38:40Z</time>
      </trkpt>
      <trkpt lat="45.26048" lon="6.12377">
        <ele>2024</ele>
        <time>2021-12-23T13:38:41Z</time>
      </trkpt>
      <trkpt lat="45.26049" lon="6.12376">
        <ele>2022</ele>
        <time>2021-12-23T13:38:42Z</time>
      </trkpt>
      <trkpt lat="45.26051" lon="6.12374">
        <ele>2021</ele>
        <time>2021-12-23T13:38:43Z</time>
      </trkpt>
      <trkpt lat="45.26052" lon="6.12373">
        <ele>2019</ele>
        <time>2021-12-23T13:38:44Z</time>
      </trkpt>
      <trkpt lat="45.26053" lon="6.12371">
        <ele>2019</ele>
        <time>2021-12-23T13:38:45Z</time>
      </trkpt>
      <trkpt lat="45.26053" lon="6.12371">
        <ele>2019</ele>
        <time>2021-12-23T13:38:46Z</time>
      </trkpt>
      <trkpt lat="45.26053" lon="6.12371">
        <ele>2021</ele>
        <time>2021-12-23T13:38:47Z</time>
      </trkpt>
      <trkpt lat="45.26052" lon="6.1237">
        <ele>2021</ele>
        <time>2021-12-23T13:38:48Z</time>
      </trkpt>
      <trkpt lat="45.26052" lon="6.1237">
        <ele>2021</ele>
        <time>2021-12-23T13:38:49Z</time>
      </trkpt>
      <trkpt lat="45.26052" lon="6.1237">
        <ele>2021</ele>
        <time>2021-12-23T13:38:50Z</time>
      </trkpt>
      <trkpt lat="45.26052" lon="6.1237">
        <ele>2021</ele>
        <time>2021-12-23T13:38:51Z</time>
      </trkpt>
      <trkpt lat="45.26051" lon="6.12369">
        <ele>2021</ele>
        <time>2021-12-23T13:38:52Z</time>
      </trkpt>
      <trkpt lat="45.26051" lon="6.12369">
        <ele>2021</ele>
        <time>2021-12-23T13:38:53Z</time>
      </trkpt>
      <trkpt lat="45.26051" lon="6.12369">
        <ele>2021</ele>
        <time>2021-12-23T13:38:54Z</time>
      </trkpt>
      <trkpt lat="45.2605" lon="6.12369">
        <ele>2021</ele>
        <time>2021-12-23T13:38:55Z</time>
      </trkpt>
      <trkpt lat="45.2605" lon="6.12369">
        <ele>2021</ele>
        <time>2021-12-23T13:38:56Z</time>
      </trkpt>
      <trkpt lat="45.2605" lon="6.12368">
        <ele>2021</ele>
        <time>2021-12-23T13:38:57Z</time>
      </trkpt>
      <trkpt lat="45.2605" lon="6.12368">
        <ele>2022</ele>
        <time>2021-12-23T13:38:59Z</time>
      </trkpt>
      <trkpt lat="45.26049" lon="6.12368">
        <ele>2022</ele>
        <time>2021-12-23T13:39:00Z</time>
      </trkpt>
      <trkpt lat="45.26049" lon="6.12368">
        <ele>2022</ele>
        <time>2021-12-23T13:39:01Z</time>
      </trkpt>
      <trkpt lat="45.26049" lon="6.12368">
        <ele>2022</ele>
        <time>2021-12-23T13:39:02Z</time>
      </trkpt>
      <trkpt lat="45.26049" lon="6.12367">
        <ele>2021</ele>
        <time>2021-12-23T13:39:03Z</time>
      </trkpt>
      <trkpt lat="45.26048" lon="6.12367">
        <ele>2022</ele>
        <time>2021-12-23T13:39:04Z</time>
      </trkpt>
      <trkpt lat="45.26048" lon="6.12367">
        <ele>2022</ele>
        <time>2021-12-23T13:39:05Z</time>
      </trkpt>
      <trkpt lat="45.26048" lon="6.12367">
        <ele>2021</ele>
        <time>2021-12-23T13:39:06Z</time>
      </trkpt>
      <trkpt lat="45.26048" lon="6.12366">
        <ele>2019</ele>
        <time>2021-12-23T13:39:07Z</time>
      </trkpt>
      <trkpt lat="45.26047" lon="6.12366">
        <ele>2019</ele>
        <time>2021-12-23T13:39:08Z</time>
      </trkpt>
      <trkpt lat="45.26047" lon="6.12366">
        <ele>2019</ele>
        <time>2021-12-23T13:39:09Z</time>
      </trkpt>
      <trkpt lat="45.26047" lon="6.12366">
        <ele>2019</ele>
        <time>2021-12-23T13:39:10Z</time>
      </trkpt>
      <trkpt lat="45.26047" lon="6.12366">
        <ele>2019</ele>
        <time>2021-12-23T13:39:11Z</time>
      </trkpt>
      <trkpt lat="45.26046" lon="6.12365">
        <ele>2021</ele>
        <time>2021-12-23T13:39:12Z</time>
      </trkpt>
      <trkpt lat="45.26046" lon="6.12365">
        <ele>2021</ele>
        <time>2021-12-23T13:39:13Z</time>
      </trkpt>
      <trkpt lat="45.26046" lon="6.12365">
        <ele>2021</ele>
        <time>2021-12-23T13:39:14Z</time>
      </trkpt>
      <trkpt lat="45.26046" lon="6.12365">
        <ele>2021</ele>
        <time>2021-12-23T13:39:15Z</time>
      </trkpt>
      <trkpt lat="45.26045" lon="6.12365">
        <ele>2022</ele>
        <time>2021-12-23T13:39:16Z</time>
      </trkpt>
      <trkpt lat="45.26045" lon="6.12364">
        <ele>2022</ele>
        <time>2021-12-23T13:39:18Z</time>
      </trkpt>
      <trkpt lat="45.26045" lon="6.12364">
        <ele>2022</ele>
        <time>2021-12-23T13:39:19Z</time>
      </trkpt>
      <trkpt lat="45.26045" lon="6.12364">
        <ele>2022</ele>
        <time>2021-12-23T13:39:20Z</time>
      </trkpt>
      <trkpt lat="45.26044" lon="6.12364">
        <ele>2022</ele>
        <time>2021-12-23T13:39:21Z</time>
      </trkpt>
      <trkpt lat="45.26044" lon="6.12364">
        <ele>2022</ele>
        <time>2021-12-23T13:39:22Z</time>
      </trkpt>
      <trkpt lat="45.26044" lon="6.12363">
        <ele>2022</ele>
        <time>2021-12-23T13:39:23Z</time>
      </trkpt>
      <trkpt lat="45.26044" lon="6.12363">
        <ele>2022</ele>
        <time>2021-12-23T13:39:24Z</time>
      </trkpt>
      <trkpt lat="45.26044" lon="6.12363">
        <ele>2022</ele>
        <time>2021-12-23T13:39:25Z</time>
      </trkpt>
      <trkpt lat="45.26044" lon="6.12363">
        <ele>2022</ele>
        <time>2021-12-23T13:39:26Z</time>
      </trkpt>
      <trkpt lat="45.26044" lon="6.12363">
        <ele>2022</ele>
        <time>2021-12-23T13:39:27Z</time>
      </trkpt>
      <trkpt lat="45.26043" lon="6.12363">
        <ele>2022</ele>
        <time>2021-12-23T13:39:28Z</time>
      </trkpt>
      <trkpt lat="45.26043" lon="6.12363">
        <ele>2022</ele>
        <time>2021-12-23T13:39:29Z</time>
      </trkpt>
      <trkpt lat="45.26043" lon="6.12363">
        <ele>2022</ele>
        <time>2021-12-23T13:39:30Z</time>
      </trkpt>
      <trkpt lat="45.26043" lon="6.12363">
        <ele>2022</ele>
        <time>2021-12-23T13:39:31Z</time>
      </trkpt>
      <trkpt lat="45.26043" lon="6.12363">
        <ele>2022</ele>
        <time>2021-12-23T13:39:32Z</time>
      </trkpt>
      <trkpt lat="45.26043" lon="6.12362">
        <ele>2022</ele>
        <time>2021-12-23T13:39:33Z</time>
      </trkpt>
      <trkpt lat="45.26043" lon="6.12362">
        <ele>2022</ele>
        <time>2021-12-23T13:39:34Z</time>
      </trkpt>
      <trkpt lat="45.26042" lon="6.12362">
        <ele>2022</ele>
        <time>2021-12-23T13:39:35Z</time>
      </trkpt>
      <trkpt lat="45.26042" lon="6.12362">
        <ele>2022</ele>
        <time>2021-12-23T13:39:37Z</time>
      </trkpt>
      <trkpt lat="45.26042" lon="6.12362">
        <ele>2022</ele>
        <time>2021-12-23T13:39:38Z</time>
      </trkpt>
      <trkpt lat="45.26042" lon="6.12362">
        <ele>2022</ele>
        <time>2021-12-23T13:39:39Z</time>
      </trkpt>
      <trkpt lat="45.26042" lon="6.12362">
        <ele>2022</ele>
        <time>2021-12-23T13:39:40Z</time>
      </trkpt>
      <trkpt lat="45.26042" lon="6.12362">
        <ele>2022</ele>
        <time>2021-12-23T13:39:41Z</time>
      </trkpt>
      <trkpt lat="45.26042" lon="6.12362">
        <ele>2022</ele>
        <time>2021-12-23T13:39:42Z</time>
      </trkpt>
      <trkpt lat="45.26041" lon="6.12362">
        <ele>2022</ele>
        <time>2021-12-23T13:39:43Z</time>
      </trkpt>
      <trkpt lat="45.26041" lon="6.12361">
        <ele>2022</ele>
        <time>2021-12-23T13:39:44Z</time>
      </trkpt>
      <trkpt lat="45.26041" lon="6.12361">
        <ele>2022</ele>
        <time>2021-12-23T13:39:45Z</time>
      </trkpt>
      <trkpt lat="45.26041" lon="6.12361">
        <ele>2022</ele>
        <time>2021-12-23T13:39:46Z</time>
      </trkpt>
      <trkpt lat="45.26041" lon="6.12361">
        <ele>2022</ele>
        <time>2021-12-23T13:39:47Z</time>
      </trkpt>
      <trkpt lat="45.26041" lon="6.12361">
        <ele>2022</ele>
        <time>2021-12-23T13:39:48Z</time>
      </trkpt>
      <trkpt lat="45.26041" lon="6.12361">
        <ele>2022</ele>
        <time>2021-12-23T13:39:49Z</time>
      </trkpt>
      <trkpt lat="45.2604" lon="6.12361">
        <ele>2022</ele>
        <time>2021-12-23T13:39:50Z</time>
      </trkpt>
      <trkpt lat="45.2604" lon="6.12361">
        <ele>2022</ele>
        <time>2021-12-23T13:39:51Z</time>
      </trkpt>
      <trkpt lat="45.2604" lon="6.12361">
        <ele>2022</ele>
        <time>2021-12-23T13:39:52Z</time>
      </trkpt>
      <trkpt lat="45.2604" lon="6.12361">
        <ele>2021</ele>
        <time>2021-12-23T13:39:53Z</time>
      </trkpt>
      <trkpt lat="45.2604" lon="6.1236">
        <ele>2021</ele>
        <time>2021-12-23T13:39:54Z</time>
      </trkpt>
      <trkpt lat="45.2604" lon="6.1236">
        <ele>2021</ele>
        <time>2021-12-23T13:39:56Z</time>
      </trkpt>
      <trkpt lat="45.2604" lon="6.1236">
        <ele>2021</ele>
        <time>2021-12-23T13:39:57Z</time>
      </trkpt>
      <trkpt lat="45.26039" lon="6.1236">
        <ele>2021</ele>
        <time>2021-12-23T13:39:58Z</time>
      </trkpt>
      <trkpt lat="45.26039" lon="6.1236">
        <ele>2021</ele>
        <time>2021-12-23T13:39:59Z</time>
      </trkpt>
      <trkpt lat="45.26039" lon="6.1236">
        <ele>2022</ele>
        <time>2021-12-23T13:40:00Z</time>
      </trkpt>
      <trkpt lat="45.26039" lon="6.1236">
        <ele>2022</ele>
        <time>2021-12-23T13:40:01Z</time>
      </trkpt>
      <trkpt lat="45.26039" lon="6.1236">
        <ele>2022</ele>
        <time>2021-12-23T13:40:02Z</time>
      </trkpt>
      <trkpt lat="45.26039" lon="6.1236">
        <ele>2022</ele>
        <time>2021-12-23T13:40:03Z</time>
      </trkpt>
      <trkpt lat="45.26039" lon="6.1236">
        <ele>2022</ele>
        <time>2021-12-23T13:40:04Z</time>
      </trkpt>
      <trkpt lat="45.26039" lon="6.12359">
        <ele>2022</ele>
        <time>2021-12-23T13:40:05Z</time>
      </trkpt>
      <trkpt lat="45.26038" lon="6.12359">
        <ele>2021</ele>
        <time>2021-12-23T13:40:06Z</time>
      </trkpt>
      <trkpt lat="45.26038" lon="6.12359">
        <ele>2021</ele>
        <time>2021-12-23T13:40:07Z</time>
      </trkpt>
      <trkpt lat="45.26038" lon="6.12359">
        <ele>2021</ele>
        <time>2021-12-23T13:40:08Z</time>
      </trkpt>
      <trkpt lat="45.26038" lon="6.12359">
        <ele>2022</ele>
        <time>2021-12-23T13:40:09Z</time>
      </trkpt>
      <trkpt lat="45.26038" lon="6.12359">
        <ele>2022</ele>
        <time>2021-12-23T13:40:10Z</time>
      </trkpt>
      <trkpt lat="45.26038" lon="6.12359">
        <ele>2022</ele>
        <time>2021-12-23T13:40:11Z</time>
      </trkpt>
      <trkpt lat="45.26038" lon="6.12359">
        <ele>2022</ele>
        <time>2021-12-23T13:40:12Z</time>
      </trkpt>
      <trkpt lat="45.26037" lon="6.12359">
        <ele>2022</ele>
        <time>2021-12-23T13:40:13Z</time>
      </trkpt>
      <trkpt lat="45.26037" lon="6.12358">
        <ele>2022</ele>
        <time>2021-12-23T13:40:15Z</time>
      </trkpt>
      <trkpt lat="45.26037" lon="6.12358">
        <ele>2022</ele>
        <time>2021-12-23T13:40:16Z</time>
      </trkpt>
      <trkpt lat="45.26037" lon="6.12358">
        <ele>2022</ele>
        <time>2021-12-23T13:40:17Z</time>
      </trkpt>
      <trkpt lat="45.26037" lon="6.12358">
        <ele>2022</ele>
        <time>2021-12-23T13:40:18Z</time>
      </trkpt>
      <trkpt lat="45.26037" lon="6.12358">
        <ele>2022</ele>
        <time>2021-12-23T13:40:19Z</time>
      </trkpt>
      <trkpt lat="45.26037" lon="6.12358">
        <ele>2022</ele>
        <time>2021-12-23T13:40:20Z</time>
      </trkpt>
      <trkpt lat="45.26036" lon="6.12358">
        <ele>2022</ele>
        <time>2021-12-23T13:40:21Z</time>
      </trkpt>
      <trkpt lat="45.26036" lon="6.12358">
        <ele>2022</ele>
        <time>2021-12-23T13:40:22Z</time>
      </trkpt>
      <trkpt lat="45.26036" lon="6.12358">
        <ele>2022</ele>
        <time>2021-12-23T13:40:23Z</time>
      </trkpt>
      <trkpt lat="45.26036" lon="6.12358">
        <ele>2022</ele>
        <time>2021-12-23T13:40:24Z</time>
      </trkpt>
      <trkpt lat="45.26036" lon="6.12357">
        <ele>2022</ele>
        <time>2021-12-23T13:40:25Z</time>
      </trkpt>
      <trkpt lat="45.26036" lon="6.12357">
        <ele>2022</ele>
        <time>2021-12-23T13:40:26Z</time>
      </trkpt>
      <trkpt lat="45.26036" lon="6.12357">
        <ele>2022</ele>
        <time>2021-12-23T13:40:27Z</time>
      </trkpt>
      <trkpt lat="45.26036" lon="6.12357">
        <ele>2022</ele>
        <time>2021-12-23T13:40:28Z</time>
      </trkpt>
      <trkpt lat="45.26037" lon="6.12357">
        <ele>2022</ele>
        <time>2021-12-23T13:40:29Z</time>
      </trkpt>
      <trkpt lat="45.26037" lon="6.12357">
        <ele>2022</ele>
        <time>2021-12-23T13:40:30Z</time>
      </trkpt>
      <trkpt lat="45.26037" lon="6.12357">
        <ele>2022</ele>
        <time>2021-12-23T13:40:31Z</time>
      </trkpt>
      <trkpt lat="45.26037" lon="6.12357">
        <ele>2021</ele>
        <time>2021-12-23T13:40:32Z</time>
      </trkpt>
      <trkpt lat="45.26037" lon="6.12357">
        <ele>2021</ele>
        <time>2021-12-23T13:40:34Z</time>
      </trkpt>
      <trkpt lat="45.26037" lon="6.12357">
        <ele>2021</ele>
        <time>2021-12-23T13:40:35Z</time>
      </trkpt>
      <trkpt lat="45.26038" lon="6.12357">
        <ele>2021</ele>
        <time>2021-12-23T13:40:36Z</time>
      </trkpt>
      <trkpt lat="45.26038" lon="6.12357">
        <ele>2021</ele>
        <time>2021-12-23T13:40:37Z</time>
      </trkpt>
      <trkpt lat="45.26038" lon="6.12356">
        <ele>2021</ele>
        <time>2021-12-23T13:40:38Z</time>
      </trkpt>
      <trkpt lat="45.26038" lon="6.12356">
        <ele>2019</ele>
        <time>2021-12-23T13:40:39Z</time>
      </trkpt>
      <trkpt lat="45.26038" lon="6.12356">
        <ele>2019</ele>
        <time>2021-12-23T13:40:40Z</time>
      </trkpt>
      <trkpt lat="45.26038" lon="6.12356">
        <ele>2021</ele>
        <time>2021-12-23T13:40:41Z</time>
      </trkpt>
      <trkpt lat="45.26039" lon="6.12356">
        <ele>2022</ele>
        <time>2021-12-23T13:40:42Z</time>
      </trkpt>
      <trkpt lat="45.26039" lon="6.12356">
        <ele>2022</ele>
        <time>2021-12-23T13:40:43Z</time>
      </trkpt>
      <trkpt lat="45.26039" lon="6.12356">
        <ele>2021</ele>
        <time>2021-12-23T13:40:44Z</time>
      </trkpt>
      <trkpt lat="45.26039" lon="6.12356">
        <ele>2022</ele>
        <time>2021-12-23T13:40:45Z</time>
      </trkpt>
      <trkpt lat="45.26039" lon="6.12356">
        <ele>2022</ele>
        <time>2021-12-23T13:40:46Z</time>
      </trkpt>
      <trkpt lat="45.2604" lon="6.12356">
        <ele>2022</ele>
        <time>2021-12-23T13:40:47Z</time>
      </trkpt>
      <trkpt lat="45.2604" lon="6.12356">
        <ele>2022</ele>
        <time>2021-12-23T13:40:48Z</time>
      </trkpt>
      <trkpt lat="45.2604" lon="6.12356">
        <ele>2022</ele>
        <time>2021-12-23T13:40:50Z</time>
      </trkpt>
      <trkpt lat="45.2604" lon="6.12355">
        <ele>2021</ele>
        <time>2021-12-23T13:40:51Z</time>
      </trkpt>
      <trkpt lat="45.2604" lon="6.12355">
        <ele>2022</ele>
        <time>2021-12-23T13:40:53Z</time>
      </trkpt>
      <trkpt lat="45.2604" lon="6.12355">
        <ele>2022</ele>
        <time>2021-12-23T13:40:54Z</time>
      </trkpt>
      <trkpt lat="45.26041" lon="6.12355">
        <ele>2022</ele>
        <time>2021-12-23T13:40:55Z</time>
      </trkpt>
      <trkpt lat="45.26041" lon="6.12355">
        <ele>2021</ele>
        <time>2021-12-23T13:40:56Z</time>
      </trkpt>
      <trkpt lat="45.26041" lon="6.12355">
        <ele>2019</ele>
        <time>2021-12-23T13:40:57Z</time>
      </trkpt>
      <trkpt lat="45.26053" lon="6.12351">
        <ele>2017</ele>
        <time>2021-12-23T13:40:58Z</time>
      </trkpt>
      <trkpt lat="45.26061" lon="6.1235">
        <ele>2014</ele>
        <time>2021-12-23T13:40:59Z</time>
      </trkpt>
      <trkpt lat="45.26078" lon="6.12346">
        <ele>2014</ele>
        <time>2021-12-23T13:41:00Z</time>
      </trkpt>
      <trkpt lat="45.2608" lon="6.12345">
        <ele>2010</ele>
        <time>2021-12-23T13:41:01Z</time>
      </trkpt>
      <trkpt lat="45.2609" lon="6.12338">
        <ele>2009</ele>
        <time>2021-12-23T13:41:02Z</time>
      </trkpt>
      <trkpt lat="45.26095" lon="6.12332">
        <ele>2007</ele>
        <time>2021-12-23T13:41:03Z</time>
      </trkpt>
      <trkpt lat="45.26105" lon="6.12321">
        <ele>2006</ele>
        <time>2021-12-23T13:41:04Z</time>
      </trkpt>
      <trkpt lat="45.26111" lon="6.12317">
        <ele>2005</ele>
        <time>2021-12-23T13:41:05Z</time>
      </trkpt>
      <trkpt lat="45.26117" lon="6.12313">
        <ele>2005</ele>
        <time>2021-12-23T13:41:06Z</time>
      </trkpt>
      <trkpt lat="45.26122" lon="6.1231">
        <ele>2005</ele>
        <time>2021-12-23T13:41:07Z</time>
      </trkpt>
      <trkpt lat="45.26128" lon="6.12306">
        <ele>2004</ele>
        <time>2021-12-23T13:41:08Z</time>
      </trkpt>
      <trkpt lat="45.26129" lon="6.12304">
        <ele>2004</ele>
        <time>2021-12-23T13:41:09Z</time>
      </trkpt>
      <trkpt lat="45.26131" lon="6.12302">
        <ele>2004</ele>
        <time>2021-12-23T13:41:10Z</time>
      </trkpt>
      <trkpt lat="45.26132" lon="6.123">
        <ele>2004</ele>
        <time>2021-12-23T13:41:12Z</time>
      </trkpt>
      <trkpt lat="45.26133" lon="6.12298">
        <ele>2004</ele>
        <time>2021-12-23T13:41:13Z</time>
      </trkpt>
      <trkpt lat="45.26135" lon="6.12296">
        <ele>2003</ele>
        <time>2021-12-23T13:41:14Z</time>
      </trkpt>
      <trkpt lat="45.26134" lon="6.12289">
        <ele>2002</ele>
        <time>2021-12-23T13:41:15Z</time>
      </trkpt>
      <trkpt lat="45.26133" lon="6.12283">
        <ele>2001</ele>
        <time>2021-12-23T13:41:16Z</time>
      </trkpt>
      <trkpt lat="45.26142" lon="6.12276">
        <ele>2000</ele>
        <time>2021-12-23T13:41:17Z</time>
      </trkpt>
      <trkpt lat="45.26151" lon="6.12272">
        <ele>2000</ele>
        <time>2021-12-23T13:41:18Z</time>
      </trkpt>
      <trkpt lat="45.26151" lon="6.12272">
        <ele>1995</ele>
        <time>2021-12-23T13:41:19Z</time>
      </trkpt>
      <trkpt lat="45.26152" lon="6.12254">
        <ele>1992</ele>
        <time>2021-12-23T13:41:20Z</time>
      </trkpt>
      <trkpt lat="45.26155" lon="6.12249">
        <ele>1990</ele>
        <time>2021-12-23T13:41:21Z</time>
      </trkpt>
      <trkpt lat="45.26158" lon="6.12245">
        <ele>1988</ele>
        <time>2021-12-23T13:41:22Z</time>
      </trkpt>
      <trkpt lat="45.2616" lon="6.12244">
        <ele>1986</ele>
        <time>2021-12-23T13:41:23Z</time>
      </trkpt>
      <trkpt lat="45.26162" lon="6.12243">
        <ele>1985</ele>
        <time>2021-12-23T13:41:24Z</time>
      </trkpt>
      <trkpt lat="45.2617" lon="6.12242">
        <ele>1984</ele>
        <time>2021-12-23T13:41:25Z</time>
      </trkpt>
      <trkpt lat="45.26173" lon="6.12242">
        <ele>1983</ele>
        <time>2021-12-23T13:41:26Z</time>
      </trkpt>
      <trkpt lat="45.26182" lon="6.12239">
        <ele>1983</ele>
        <time>2021-12-23T13:41:27Z</time>
      </trkpt>
      <trkpt lat="45.26185" lon="6.12236">
        <ele>1982</ele>
        <time>2021-12-23T13:41:28Z</time>
      </trkpt>
      <trkpt lat="45.26188" lon="6.12234">
        <ele>1982</ele>
        <time>2021-12-23T13:41:29Z</time>
      </trkpt>
      <trkpt lat="45.26191" lon="6.12231">
        <ele>1980</ele>
        <time>2021-12-23T13:41:30Z</time>
      </trkpt>
      <trkpt lat="45.26193" lon="6.12229">
        <ele>1976</ele>
        <time>2021-12-23T13:41:31Z</time>
      </trkpt>
      <trkpt lat="45.26195" lon="6.12228">
        <ele>1976</ele>
        <time>2021-12-23T13:41:32Z</time>
      </trkpt>
      <trkpt lat="45.26201" lon="6.12223">
        <ele>1973</ele>
        <time>2021-12-23T13:41:33Z</time>
      </trkpt>
      <trkpt lat="45.26202" lon="6.12222">
        <ele>1971</ele>
        <time>2021-12-23T13:41:34Z</time>
      </trkpt>
      <trkpt lat="45.26204" lon="6.1222">
        <ele>1967</ele>
        <time>2021-12-23T13:41:35Z</time>
      </trkpt>
      <trkpt lat="45.2621" lon="6.12214">
        <ele>1965</ele>
        <time>2021-12-23T13:41:36Z</time>
      </trkpt>
      <trkpt lat="45.26213" lon="6.12212">
        <ele>1963</ele>
        <time>2021-12-23T13:41:37Z</time>
      </trkpt>
      <trkpt lat="45.26219" lon="6.12209">
        <ele>1960</ele>
        <time>2021-12-23T13:41:38Z</time>
      </trkpt>
      <trkpt lat="45.26225" lon="6.12197">
        <ele>1958</ele>
        <time>2021-12-23T13:41:39Z</time>
      </trkpt>
      <trkpt lat="45.26225" lon="6.12197">
        <ele>1953</ele>
        <time>2021-12-23T13:41:41Z</time>
      </trkpt>
      <trkpt lat="45.26236" lon="6.1219">
        <ele>1950</ele>
        <time>2021-12-23T13:41:42Z</time>
      </trkpt>
      <trkpt lat="45.26247" lon="6.12184">
        <ele>1947</ele>
        <time>2021-12-23T13:41:43Z</time>
      </trkpt>
      <trkpt lat="45.26257" lon="6.12179">
        <ele>1944</ele>
        <time>2021-12-23T13:41:44Z</time>
      </trkpt>
      <trkpt lat="45.26258" lon="6.12176">
        <ele>1942</ele>
        <time>2021-12-23T13:41:45Z</time>
      </trkpt>
      <trkpt lat="45.2626" lon="6.12172">
        <ele>1942</ele>
        <time>2021-12-23T13:41:46Z</time>
      </trkpt>
      <trkpt lat="45.26262" lon="6.12169">
        <ele>1939</ele>
        <time>2021-12-23T13:41:47Z</time>
      </trkpt>
      <trkpt lat="45.26265" lon="6.12162">
        <ele>1938</ele>
        <time>2021-12-23T13:41:48Z</time>
      </trkpt>
      <trkpt lat="45.26268" lon="6.12155">
        <ele>1937</ele>
        <time>2021-12-23T13:41:50Z</time>
      </trkpt>
      <trkpt lat="45.26271" lon="6.12148">
        <ele>1937</ele>
        <time>2021-12-23T13:41:51Z</time>
      </trkpt>
      <trkpt lat="45.26274" lon="6.12141">
        <ele>1934</ele>
        <time>2021-12-23T13:41:52Z</time>
      </trkpt>
      <trkpt lat="45.26277" lon="6.12135">
        <ele>1930</ele>
        <time>2021-12-23T13:41:53Z</time>
      </trkpt>
      <trkpt lat="45.26293" lon="6.121">
        <ele>1926</ele>
        <time>2021-12-23T13:41:54Z</time>
      </trkpt>
      <trkpt lat="45.26293" lon="6.121">
        <ele>1912</ele>
        <time>2021-12-23T13:41:56Z</time>
      </trkpt>
      <trkpt lat="45.26298" lon="6.12084">
        <ele>1912</ele>
        <time>2021-12-23T13:41:57Z</time>
      </trkpt>
      <trkpt lat="45.26303" lon="6.12067">
        <ele>1912</ele>
        <time>2021-12-23T13:41:58Z</time>
      </trkpt>
      <trkpt lat="45.26308" lon="6.1205">
        <ele>1906</ele>
        <time>2021-12-23T13:41:59Z</time>
      </trkpt>
      <trkpt lat="45.26312" lon="6.12041">
        <ele>1906</ele>
        <time>2021-12-23T13:42:00Z</time>
      </trkpt>
      <trkpt lat="45.26314" lon="6.12037">
        <ele>1905</ele>
        <time>2021-12-23T13:42:01Z</time>
      </trkpt>
      <trkpt lat="45.26315" lon="6.12032">
        <ele>1905</ele>
        <time>2021-12-23T13:42:02Z</time>
      </trkpt>
      <trkpt lat="45.26315" lon="6.12034">
        <ele>1905</ele>
        <time>2021-12-23T13:42:03Z</time>
      </trkpt>
      <trkpt lat="45.26316" lon="6.12036">
        <ele>1905</ele>
        <time>2021-12-23T13:42:04Z</time>
      </trkpt>
      <trkpt lat="45.26316" lon="6.12037">
        <ele>1905</ele>
        <time>2021-12-23T13:42:05Z</time>
      </trkpt>
      <trkpt lat="45.26317" lon="6.12039">
        <ele>1905</ele>
        <time>2021-12-23T13:42:06Z</time>
      </trkpt>
      <trkpt lat="45.26317" lon="6.12041">
        <ele>1904</ele>
        <time>2021-12-23T13:42:07Z</time>
      </trkpt>
      <trkpt lat="45.26318" lon="6.12042">
        <ele>1904</ele>
        <time>2021-12-23T13:42:09Z</time>
      </trkpt>
      <trkpt lat="45.26318" lon="6.12044">
        <ele>1904</ele>
        <time>2021-12-23T13:42:10Z</time>
      </trkpt>
      <trkpt lat="45.26324" lon="6.12062">
        <ele>1904</ele>
        <time>2021-12-23T13:42:11Z</time>
      </trkpt>
      <trkpt lat="45.26326" lon="6.12068">
        <ele>1904</ele>
        <time>2021-12-23T13:42:12Z</time>
      </trkpt>
      <trkpt lat="45.26328" lon="6.12074">
        <ele>1904</ele>
        <time>2021-12-23T13:42:13Z</time>
      </trkpt>
      <trkpt lat="45.26331" lon="6.1208">
        <ele>1905</ele>
        <time>2021-12-23T13:42:14Z</time>
      </trkpt>
      <trkpt lat="45.26331" lon="6.1208">
        <ele>1905</ele>
        <time>2021-12-23T13:42:15Z</time>
      </trkpt>
      <trkpt lat="45.26331" lon="6.1208">
        <ele>1904</ele>
        <time>2021-12-23T13:42:16Z</time>
      </trkpt>
      <trkpt lat="45.26331" lon="6.1208">
        <ele>1905</ele>
        <time>2021-12-23T13:42:17Z</time>
      </trkpt>
      <trkpt lat="45.26331" lon="6.1208">
        <ele>1905</ele>
        <time>2021-12-23T13:42:18Z</time>
      </trkpt>
      <trkpt lat="45.26331" lon="6.1208">
        <ele>1905</ele>
        <time>2021-12-23T13:42:19Z</time>
      </trkpt>
      <trkpt lat="45.26331" lon="6.1208">
        <ele>1904</ele>
        <time>2021-12-23T13:42:20Z</time>
      </trkpt>
      <trkpt lat="45.26331" lon="6.1208">
        <ele>1902</ele>
        <time>2021-12-23T13:42:21Z</time>
      </trkpt>
      <trkpt lat="45.26331" lon="6.1208">
        <ele>1899</ele>
        <time>2021-12-23T13:42:22Z</time>
      </trkpt>
      <trkpt lat="45.26331" lon="6.1208">
        <ele>1896</ele>
        <time>2021-12-23T13:42:23Z</time>
      </trkpt>
      <trkpt lat="45.26331" lon="6.1208">
        <ele>1892</ele>
        <time>2021-12-23T13:42:24Z</time>
      </trkpt>
      <trkpt lat="45.26331" lon="6.1208">
        <ele>1888</ele>
        <time>2021-12-23T13:42:25Z</time>
      </trkpt>
      <trkpt lat="45.26331" lon="6.1208">
        <ele>1883</ele>
        <time>2021-12-23T13:42:26Z</time>
      </trkpt>
      <trkpt lat="45.2631" lon="6.11968">
        <ele>1879</ele>
        <time>2021-12-23T13:42:28Z</time>
      </trkpt>
      <trkpt lat="45.26315" lon="6.11952">
        <ele>1873</ele>
        <time>2021-12-23T13:42:29Z</time>
      </trkpt>
      <trkpt lat="45.2632" lon="6.11937">
        <ele>1863</ele>
        <time>2021-12-23T13:42:30Z</time>
      </trkpt>
      <trkpt lat="45.2632" lon="6.11937">
        <ele>1859</ele>
        <time>2021-12-23T13:42:31Z</time>
      </trkpt>
      <trkpt lat="45.2632" lon="6.11937">
        <ele>1858</ele>
        <time>2021-12-23T13:42:32Z</time>
      </trkpt>
      <trkpt lat="45.2632" lon="6.11937">
        <ele>1855</ele>
        <time>2021-12-23T13:42:33Z</time>
      </trkpt>
      <trkpt lat="45.2632" lon="6.11937">
        <ele>1852</ele>
        <time>2021-12-23T13:42:34Z</time>
      </trkpt>
      <trkpt lat="45.26265" lon="6.11866">
        <ele>1852</ele>
        <time>2021-12-23T13:42:35Z</time>
      </trkpt>
      <trkpt lat="45.26251" lon="6.11854">
        <ele>1845</ele>
        <time>2021-12-23T13:42:36Z</time>
      </trkpt>
      <trkpt lat="45.26237" lon="6.11842">
        <ele>1842</ele>
        <time>2021-12-23T13:42:37Z</time>
      </trkpt>
      <trkpt lat="45.26224" lon="6.11824">
        <ele>1842</ele>
        <time>2021-12-23T13:42:38Z</time>
      </trkpt>
      <trkpt lat="45.26223" lon="6.11819">
        <ele>1840</ele>
        <time>2021-12-23T13:42:39Z</time>
      </trkpt>
      <trkpt lat="45.26222" lon="6.11808">
        <ele>1840</ele>
        <time>2021-12-23T13:42:40Z</time>
      </trkpt>
      <trkpt lat="45.26218" lon="6.11795">
        <ele>1838</ele>
        <time>2021-12-23T13:42:41Z</time>
      </trkpt>
      <trkpt lat="45.26219" lon="6.11782">
        <ele>1837</ele>
        <time>2021-12-23T13:42:42Z</time>
      </trkpt>
      <trkpt lat="45.26223" lon="6.11772">
        <ele>1836</ele>
        <time>2021-12-23T13:42:43Z</time>
      </trkpt>
      <trkpt lat="45.26227" lon="6.11762">
        <ele>1836</ele>
        <time>2021-12-23T13:42:44Z</time>
      </trkpt>
      <trkpt lat="45.26231" lon="6.11752">
        <ele>1833</ele>
        <time>2021-12-23T13:42:45Z</time>
      </trkpt>
      <trkpt lat="45.26241" lon="6.11736">
        <ele>1833</ele>
        <time>2021-12-23T13:42:46Z</time>
      </trkpt>
      <trkpt lat="45.26245" lon="6.11731">
        <ele>1829</ele>
        <time>2021-12-23T13:42:47Z</time>
      </trkpt>
      <trkpt lat="45.26253" lon="6.11721">
        <ele>1829</ele>
        <time>2021-12-23T13:42:48Z</time>
      </trkpt>
      <trkpt lat="45.26265" lon="6.11704">
        <ele>1829</ele>
        <time>2021-12-23T13:42:49Z</time>
      </trkpt>
      <trkpt lat="45.26268" lon="6.11696">
        <ele>1823</ele>
        <time>2021-12-23T13:42:50Z</time>
      </trkpt>
      <trkpt lat="45.26274" lon="6.11679">
        <ele>1820</ele>
        <time>2021-12-23T13:42:51Z</time>
      </trkpt>
      <trkpt lat="45.26284" lon="6.11656">
        <ele>1820</ele>
        <time>2021-12-23T13:42:52Z</time>
      </trkpt>
      <trkpt lat="45.26287" lon="6.11648">
        <ele>1815</ele>
        <time>2021-12-23T13:42:53Z</time>
      </trkpt>
      <trkpt lat="45.26293" lon="6.11633">
        <ele>1812</ele>
        <time>2021-12-23T13:42:54Z</time>
      </trkpt>
      <trkpt lat="45.26299" lon="6.11618">
        <ele>1809</ele>
        <time>2021-12-23T13:42:55Z</time>
      </trkpt>
      <trkpt lat="45.26304" lon="6.11604">
        <ele>1808</ele>
        <time>2021-12-23T13:42:56Z</time>
      </trkpt>
      <trkpt lat="45.26311" lon="6.11583">
        <ele>1808</ele>
        <time>2021-12-23T13:42:57Z</time>
      </trkpt>
      <trkpt lat="45.26313" lon="6.11576">
        <ele>1805</ele>
        <time>2021-12-23T13:42:58Z</time>
      </trkpt>
      <trkpt lat="45.26318" lon="6.11562">
        <ele>1802</ele>
        <time>2021-12-23T13:42:59Z</time>
      </trkpt>
      <trkpt lat="45.26324" lon="6.11547">
        <ele>1802</ele>
        <time>2021-12-23T13:43:00Z</time>
      </trkpt>
      <trkpt lat="45.26328" lon="6.11536">
        <ele>1802</ele>
        <time>2021-12-23T13:43:01Z</time>
      </trkpt>
      <trkpt lat="45.26328" lon="6.11536">
        <ele>1799</ele>
        <time>2021-12-23T13:43:02Z</time>
      </trkpt>
      <trkpt lat="45.26335" lon="6.11516">
        <ele>1797</ele>
        <time>2021-12-23T13:43:03Z</time>
      </trkpt>
      <trkpt lat="45.26339" lon="6.11506">
        <ele>1796</ele>
        <time>2021-12-23T13:43:04Z</time>
      </trkpt>
      <trkpt lat="45.26342" lon="6.11496">
        <ele>1796</ele>
        <time>2021-12-23T13:43:05Z</time>
      </trkpt>
      <trkpt lat="45.26345" lon="6.11486">
        <ele>1795</ele>
        <time>2021-12-23T13:43:06Z</time>
      </trkpt>
      <trkpt lat="45.26347" lon="6.11476">
        <ele>1795</ele>
        <time>2021-12-23T13:43:07Z</time>
      </trkpt>
      <trkpt lat="45.26349" lon="6.1147">
        <ele>1794</ele>
        <time>2021-12-23T13:43:08Z</time>
      </trkpt>
      <trkpt lat="45.26352" lon="6.11464">
        <ele>1794</ele>
        <time>2021-12-23T13:43:09Z</time>
      </trkpt>
      <trkpt lat="45.26355" lon="6.11458">
        <ele>1793</ele>
        <time>2021-12-23T13:43:10Z</time>
      </trkpt>
      <trkpt lat="45.2636" lon="6.11455">
        <ele>1792</ele>
        <time>2021-12-23T13:43:11Z</time>
      </trkpt>
      <trkpt lat="45.26362" lon="6.11452">
        <ele>1791</ele>
        <time>2021-12-23T13:43:12Z</time>
      </trkpt>
      <trkpt lat="45.26364" lon="6.11449">
        <ele>1791</ele>
        <time>2021-12-23T13:43:13Z</time>
      </trkpt>
      <trkpt lat="45.26366" lon="6.11445">
        <ele>1791</ele>
        <time>2021-12-23T13:43:14Z</time>
      </trkpt>
      <trkpt lat="45.26366" lon="6.11443">
        <ele>1791</ele>
        <time>2021-12-23T13:43:15Z</time>
      </trkpt>
      <trkpt lat="45.26366" lon="6.11441">
        <ele>1791</ele>
        <time>2021-12-23T13:43:16Z</time>
      </trkpt>
      <trkpt lat="45.26366" lon="6.11439">
        <ele>1791</ele>
        <time>2021-12-23T13:43:17Z</time>
      </trkpt>
      <trkpt lat="45.26366" lon="6.11436">
        <ele>1792</ele>
        <time>2021-12-23T13:43:18Z</time>
      </trkpt>
      <trkpt lat="45.26366" lon="6.11434">
        <ele>1792</ele>
        <time>2021-12-23T13:43:19Z</time>
      </trkpt>
      <trkpt lat="45.26366" lon="6.11432">
        <ele>1792</ele>
        <time>2021-12-23T13:43:20Z</time>
      </trkpt>
      <trkpt lat="45.26367" lon="6.11433">
        <ele>1792</ele>
        <time>2021-12-23T13:43:21Z</time>
      </trkpt>
      <trkpt lat="45.26369" lon="6.11433">
        <ele>1792</ele>
        <time>2021-12-23T13:43:22Z</time>
      </trkpt>
      <trkpt lat="45.2637" lon="6.11434">
        <ele>1792</ele>
        <time>2021-12-23T13:43:23Z</time>
      </trkpt>
      <trkpt lat="45.26371" lon="6.11434">
        <ele>1793</ele>
        <time>2021-12-23T13:43:25Z</time>
      </trkpt>
      <trkpt lat="45.26373" lon="6.11435">
        <ele>1794</ele>
        <time>2021-12-23T13:43:26Z</time>
      </trkpt>
      <trkpt lat="45.26374" lon="6.11435">
        <ele>1794</ele>
        <time>2021-12-23T13:43:27Z</time>
      </trkpt>
      <trkpt lat="45.26376" lon="6.11436">
        <ele>1794</ele>
        <time>2021-12-23T13:43:28Z</time>
      </trkpt>
      <trkpt lat="45.26377" lon="6.11436">
        <ele>1794</ele>
        <time>2021-12-23T13:43:29Z</time>
      </trkpt>
      <trkpt lat="45.26378" lon="6.11437">
        <ele>1793</ele>
        <time>2021-12-23T13:43:30Z</time>
      </trkpt>
      <trkpt lat="45.2638" lon="6.11437">
        <ele>1793</ele>
        <time>2021-12-23T13:43:31Z</time>
      </trkpt>
      <trkpt lat="45.26381" lon="6.11438">
        <ele>1793</ele>
        <time>2021-12-23T13:43:33Z</time>
      </trkpt>
      <trkpt lat="45.2638" lon="6.11436">
        <ele>1794</ele>
        <time>2021-12-23T13:43:34Z</time>
      </trkpt>
      <trkpt lat="45.26379" lon="6.11435">
        <ele>1794</ele>
        <time>2021-12-23T13:43:35Z</time>
      </trkpt>
      <trkpt lat="45.26378" lon="6.11434">
        <ele>1793</ele>
        <time>2021-12-23T13:43:36Z</time>
      </trkpt>
      <trkpt lat="45.26377" lon="6.11432">
        <ele>1793</ele>
        <time>2021-12-23T13:43:37Z</time>
      </trkpt>
      <trkpt lat="45.26375" lon="6.11431">
        <ele>1793</ele>
        <time>2021-12-23T13:43:38Z</time>
      </trkpt>
      <trkpt lat="45.26369" lon="6.11423">
        <ele>1793</ele>
        <time>2021-12-23T13:43:39Z</time>
      </trkpt>
      <trkpt lat="45.26368" lon="6.11422">
        <ele>1794</ele>
        <time>2021-12-23T13:43:40Z</time>
      </trkpt>
      <trkpt lat="45.26368" lon="6.11421">
        <ele>1794</ele>
        <time>2021-12-23T13:43:41Z</time>
      </trkpt>
      <trkpt lat="45.26367" lon="6.1142">
        <ele>1793</ele>
        <time>2021-12-23T13:43:42Z</time>
      </trkpt>
      <trkpt lat="45.26361" lon="6.11411">
        <ele>1793</ele>
        <time>2021-12-23T13:43:44Z</time>
      </trkpt>
      <trkpt lat="45.2636" lon="6.1141">
        <ele>1793</ele>
        <time>2021-12-23T13:43:45Z</time>
      </trkpt>
      <trkpt lat="45.2636" lon="6.11409">
        <ele>1793</ele>
        <time>2021-12-23T13:43:46Z</time>
      </trkpt>
      <trkpt lat="45.26359" lon="6.11408">
        <ele>1793</ele>
        <time>2021-12-23T13:43:47Z</time>
      </trkpt>
      <trkpt lat="45.26358" lon="6.11407">
        <ele>1794</ele>
        <time>2021-12-23T13:43:48Z</time>
      </trkpt>
      <trkpt lat="45.26356" lon="6.114">
        <ele>1794</ele>
        <time>2021-12-23T13:43:49Z</time>
      </trkpt>
      <trkpt lat="45.26357" lon="6.114">
        <ele>1793</ele>
        <time>2021-12-23T13:43:50Z</time>
      </trkpt>
      <trkpt lat="45.26357" lon="6.11399">
        <ele>1794</ele>
        <time>2021-12-23T13:43:51Z</time>
      </trkpt>
      <trkpt lat="45.26358" lon="6.11399">
        <ele>1794</ele>
        <time>2021-12-23T13:43:52Z</time>
      </trkpt>
      <trkpt lat="45.26359" lon="6.11398">
        <ele>1794</ele>
        <time>2021-12-23T13:43:53Z</time>
      </trkpt>
      <trkpt lat="45.26359" lon="6.11398">
        <ele>1794</ele>
        <time>2021-12-23T13:43:54Z</time>
      </trkpt>
      <trkpt lat="45.2636" lon="6.11397">
        <ele>1794</ele>
        <time>2021-12-23T13:43:55Z</time>
      </trkpt>
      <trkpt lat="45.26361" lon="6.11397">
        <ele>1794</ele>
        <time>2021-12-23T13:43:56Z</time>
      </trkpt>
      <trkpt lat="45.26361" lon="6.11396">
        <ele>1794</ele>
        <time>2021-12-23T13:43:57Z</time>
      </trkpt>
      <trkpt lat="45.26362" lon="6.11396">
        <ele>1794</ele>
        <time>2021-12-23T13:43:58Z</time>
      </trkpt>
      <trkpt lat="45.26363" lon="6.11395">
        <ele>1794</ele>
        <time>2021-12-23T13:43:59Z</time>
      </trkpt>
      <trkpt lat="45.26364" lon="6.11395">
        <ele>1794</ele>
        <time>2021-12-23T13:44:00Z</time>
      </trkpt>
      <trkpt lat="45.26364" lon="6.11394">
        <ele>1794</ele>
        <time>2021-12-23T13:44:01Z</time>
      </trkpt>
      <trkpt lat="45.26365" lon="6.11392">
        <ele>1793</ele>
        <time>2021-12-23T13:44:03Z</time>
      </trkpt>
      <trkpt lat="45.26366" lon="6.1139">
        <ele>1793</ele>
        <time>2021-12-23T13:44:04Z</time>
      </trkpt>
      <trkpt lat="45.26366" lon="6.11388">
        <ele>1793</ele>
        <time>2021-12-23T13:44:05Z</time>
      </trkpt>
      <trkpt lat="45.26367" lon="6.11386">
        <ele>1793</ele>
        <time>2021-12-23T13:44:06Z</time>
      </trkpt>
      <trkpt lat="45.26368" lon="6.11384">
        <ele>1792</ele>
        <time>2021-12-23T13:44:07Z</time>
      </trkpt>
      <trkpt lat="45.26372" lon="6.11373">
        <ele>1792</ele>
        <time>2021-12-23T13:44:08Z</time>
      </trkpt>
      <trkpt lat="45.26372" lon="6.11371">
        <ele>1792</ele>
        <time>2021-12-23T13:44:09Z</time>
      </trkpt>
      <trkpt lat="45.26373" lon="6.11369">
        <ele>1791</ele>
        <time>2021-12-23T13:44:10Z</time>
      </trkpt>
      <trkpt lat="45.26373" lon="6.11367">
        <ele>1791</ele>
        <time>2021-12-23T13:44:11Z</time>
      </trkpt>
      <trkpt lat="45.26374" lon="6.11365">
        <ele>1791</ele>
        <time>2021-12-23T13:44:12Z</time>
      </trkpt>
      <trkpt lat="45.26381" lon="6.11353">
        <ele>1791</ele>
        <time>2021-12-23T13:44:13Z</time>
      </trkpt>
      <trkpt lat="45.26385" lon="6.1135">
        <ele>1790</ele>
        <time>2021-12-23T13:44:14Z</time>
      </trkpt>
      <trkpt lat="45.26387" lon="6.11348">
        <ele>1789</ele>
        <time>2021-12-23T13:44:15Z</time>
      </trkpt>
      <trkpt lat="45.2639" lon="6.11346">
        <ele>1788</ele>
        <time>2021-12-23T13:44:16Z</time>
      </trkpt>
      <trkpt lat="45.26392" lon="6.11343">
        <ele>1788</ele>
        <time>2021-12-23T13:44:17Z</time>
      </trkpt>
      <trkpt lat="45.26394" lon="6.11341">
        <ele>1787</ele>
        <time>2021-12-23T13:44:18Z</time>
      </trkpt>
      <trkpt lat="45.26397" lon="6.11339">
        <ele>1787</ele>
        <time>2021-12-23T13:44:19Z</time>
      </trkpt>
      <trkpt lat="45.264" lon="6.11337">
        <ele>1787</ele>
        <time>2021-12-23T13:44:20Z</time>
      </trkpt>
      <trkpt lat="45.26403" lon="6.11336">
        <ele>1787</ele>
        <time>2021-12-23T13:44:21Z</time>
      </trkpt>
      <trkpt lat="45.26405" lon="6.11334">
        <ele>1785</ele>
        <time>2021-12-23T13:44:22Z</time>
      </trkpt>
      <trkpt lat="45.2641" lon="6.11332">
        <ele>1785</ele>
        <time>2021-12-23T13:44:23Z</time>
      </trkpt>
      <trkpt lat="45.26415" lon="6.11331">
        <ele>1783</ele>
        <time>2021-12-23T13:44:24Z</time>
      </trkpt>
      <trkpt lat="45.2642" lon="6.11329">
        <ele>1782</ele>
        <time>2021-12-23T13:44:25Z</time>
      </trkpt>
      <trkpt lat="45.26434" lon="6.11325">
        <ele>1782</ele>
        <time>2021-12-23T13:44:26Z</time>
      </trkpt>
      <trkpt lat="45.26434" lon="6.11325">
        <ele>1782</ele>
        <time>2021-12-23T13:44:27Z</time>
      </trkpt>
      <trkpt lat="45.26444" lon="6.1131">
        <ele>1782</ele>
        <time>2021-12-23T13:44:28Z</time>
      </trkpt>
      <trkpt lat="45.26444" lon="6.1131">
        <ele>1782</ele>
        <time>2021-12-23T13:44:30Z</time>
      </trkpt>
      <trkpt lat="45.26446" lon="6.11308">
        <ele>1782</ele>
        <time>2021-12-23T13:44:31Z</time>
      </trkpt>
      <trkpt lat="45.26449" lon="6.11305">
        <ele>1782</ele>
        <time>2021-12-23T13:44:32Z</time>
      </trkpt>
      <trkpt lat="45.26454" lon="6.11299">
        <ele>1781</ele>
        <time>2021-12-23T13:44:33Z</time>
      </trkpt>
      <trkpt lat="45.26455" lon="6.11298">
        <ele>1781</ele>
        <time>2021-12-23T13:44:34Z</time>
      </trkpt>
      <trkpt lat="45.26456" lon="6.11297">
        <ele>1781</ele>
        <time>2021-12-23T13:44:35Z</time>
      </trkpt>
      <trkpt lat="45.26457" lon="6.11296">
        <ele>1781</ele>
        <time>2021-12-23T13:44:36Z</time>
      </trkpt>
      <trkpt lat="45.26462" lon="6.11291">
        <ele>1781</ele>
        <time>2021-12-23T13:44:37Z</time>
      </trkpt>
      <trkpt lat="45.26463" lon="6.1129">
        <ele>1781</ele>
        <time>2021-12-23T13:44:38Z</time>
      </trkpt>
      <trkpt lat="45.26463" lon="6.11289">
        <ele>1781</ele>
        <time>2021-12-23T13:44:39Z</time>
      </trkpt>
      <trkpt lat="45.26464" lon="6.11289">
        <ele>1781</ele>
        <time>2021-12-23T13:44:41Z</time>
      </trkpt>
      <trkpt lat="45.26464" lon="6.11288">
        <ele>1781</ele>
        <time>2021-12-23T13:44:42Z</time>
      </trkpt>
      <trkpt lat="45.26465" lon="6.11287">
        <ele>1780</ele>
        <time>2021-12-23T13:44:43Z</time>
      </trkpt>
      <trkpt lat="45.26465" lon="6.11286">
        <ele>1781</ele>
        <time>2021-12-23T13:44:44Z</time>
      </trkpt>
      <trkpt lat="45.26466" lon="6.11286">
        <ele>1782</ele>
        <time>2021-12-23T13:44:45Z</time>
      </trkpt>
      <trkpt lat="45.26467" lon="6.11285">
        <ele>1783</ele>
        <time>2021-12-23T13:44:46Z</time>
      </trkpt>
      <trkpt lat="45.26467" lon="6.11284">
        <ele>1782</ele>
        <time>2021-12-23T13:44:47Z</time>
      </trkpt>
      <trkpt lat="45.26468" lon="6.11284">
        <ele>1781</ele>
        <time>2021-12-23T13:44:48Z</time>
      </trkpt>
      <trkpt lat="45.26468" lon="6.11283">
        <ele>1782</ele>
        <time>2021-12-23T13:44:49Z</time>
      </trkpt>
      <trkpt lat="45.26469" lon="6.11282">
        <ele>1783</ele>
        <time>2021-12-23T13:44:50Z</time>
      </trkpt>
      <trkpt lat="45.26469" lon="6.11282">
        <ele>1783</ele>
        <time>2021-12-23T13:44:51Z</time>
      </trkpt>
      <trkpt lat="45.26469" lon="6.11282">
        <ele>1782</ele>
        <time>2021-12-23T13:44:52Z</time>
      </trkpt>
      <trkpt lat="45.26469" lon="6.11282">
        <ele>1783</ele>
        <time>2021-12-23T13:44:53Z</time>
      </trkpt>
      <trkpt lat="45.26469" lon="6.11282">
        <ele>1783</ele>
        <time>2021-12-23T13:44:54Z</time>
      </trkpt>
      <trkpt lat="45.26469" lon="6.11282">
        <ele>1783</ele>
        <time>2021-12-23T13:44:55Z</time>
      </trkpt>
      <trkpt lat="45.26469" lon="6.11282">
        <ele>1783</ele>
        <time>2021-12-23T13:44:56Z</time>
      </trkpt>
      <trkpt lat="45.26469" lon="6.11282">
        <ele>1783</ele>
        <time>2021-12-23T13:44:57Z</time>
      </trkpt>
      <trkpt lat="45.26468" lon="6.11268">
        <ele>1783</ele>
        <time>2021-12-23T13:44:58Z</time>
      </trkpt>
      <trkpt lat="45.26468" lon="6.11268">
        <ele>1781</ele>
        <time>2021-12-23T13:45:00Z</time>
      </trkpt>
      <trkpt lat="45.26467" lon="6.11266">
        <ele>1781</ele>
        <time>2021-12-23T13:45:01Z</time>
      </trkpt>
      <trkpt lat="45.26466" lon="6.11263">
        <ele>1782</ele>
        <time>2021-12-23T13:45:02Z</time>
      </trkpt>
      <trkpt lat="45.26465" lon="6.1126">
        <ele>1782</ele>
        <time>2021-12-23T13:45:03Z</time>
      </trkpt>
      <trkpt lat="45.26464" lon="6.11258">
        <ele>1782</ele>
        <time>2021-12-23T13:45:04Z</time>
      </trkpt>
      <trkpt lat="45.26463" lon="6.11255">
        <ele>1782</ele>
        <time>2021-12-23T13:45:05Z</time>
      </trkpt>
      <trkpt lat="45.26464" lon="6.11254">
        <ele>1782</ele>
        <time>2021-12-23T13:45:06Z</time>
      </trkpt>
      <trkpt lat="45.26466" lon="6.11252">
        <ele>1782</ele>
        <time>2021-12-23T13:45:07Z</time>
      </trkpt>
      <trkpt lat="45.26467" lon="6.11251">
        <ele>1782</ele>
        <time>2021-12-23T13:45:08Z</time>
      </trkpt>
      <trkpt lat="45.26468" lon="6.11249">
        <ele>1781</ele>
        <time>2021-12-23T13:45:09Z</time>
      </trkpt>
      <trkpt lat="45.26469" lon="6.11248">
        <ele>1781</ele>
        <time>2021-12-23T13:45:10Z</time>
      </trkpt>
      <trkpt lat="45.2647" lon="6.11246">
        <ele>1782</ele>
        <time>2021-12-23T13:45:11Z</time>
      </trkpt>
      <trkpt lat="45.26471" lon="6.11245">
        <ele>1783</ele>
        <time>2021-12-23T13:45:12Z</time>
      </trkpt>
      <trkpt lat="45.26472" lon="6.11243">
        <ele>1783</ele>
        <time>2021-12-23T13:45:13Z</time>
      </trkpt>
      <trkpt lat="45.26472" lon="6.11241">
        <ele>1782</ele>
        <time>2021-12-23T13:45:14Z</time>
      </trkpt>
      <trkpt lat="45.26472" lon="6.11239">
        <ele>1782</ele>
        <time>2021-12-23T13:45:15Z</time>
      </trkpt>
      <trkpt lat="45.26472" lon="6.11238">
        <ele>1782</ele>
        <time>2021-12-23T13:45:16Z</time>
      </trkpt>
      <trkpt lat="45.26473" lon="6.11236">
        <ele>1782</ele>
        <time>2021-12-23T13:45:17Z</time>
      </trkpt>
      <trkpt lat="45.26473" lon="6.11234">
        <ele>1781</ele>
        <time>2021-12-23T13:45:19Z</time>
      </trkpt>
      <trkpt lat="45.26473" lon="6.11233">
        <ele>1781</ele>
        <time>2021-12-23T13:45:20Z</time>
      </trkpt>
      <trkpt lat="45.26474" lon="6.11231">
        <ele>1781</ele>
        <time>2021-12-23T13:45:21Z</time>
      </trkpt>
      <trkpt lat="45.26474" lon="6.11226">
        <ele>1781</ele>
        <time>2021-12-23T13:45:22Z</time>
      </trkpt>
      <trkpt lat="45.26475" lon="6.11221">
        <ele>1781</ele>
        <time>2021-12-23T13:45:23Z</time>
      </trkpt>
      <trkpt lat="45.26476" lon="6.11216">
        <ele>1780</ele>
        <time>2021-12-23T13:45:24Z</time>
      </trkpt>
      <trkpt lat="45.26476" lon="6.11216">
        <ele>1780</ele>
        <time>2021-12-23T13:45:25Z</time>
      </trkpt>
      <trkpt lat="45.26476" lon="6.11216">
        <ele>1780</ele>
        <time>2021-12-23T13:45:26Z</time>
      </trkpt>
      <trkpt lat="45.26479" lon="6.112">
        <ele>1780</ele>
        <time>2021-12-23T13:45:27Z</time>
      </trkpt>
      <trkpt lat="45.26479" lon="6.112">
        <ele>1779</ele>
        <time>2021-12-23T13:45:29Z</time>
      </trkpt>
      <trkpt lat="45.26479" lon="6.11199">
        <ele>1778</ele>
        <time>2021-12-23T13:45:30Z</time>
      </trkpt>
      <trkpt lat="45.26478" lon="6.11198">
        <ele>1778</ele>
        <time>2021-12-23T13:45:31Z</time>
      </trkpt>
      <trkpt lat="45.26478" lon="6.11198">
        <ele>1778</ele>
        <time>2021-12-23T13:45:32Z</time>
      </trkpt>
      <trkpt lat="45.26478" lon="6.11197">
        <ele>1778</ele>
        <time>2021-12-23T13:45:33Z</time>
      </trkpt>
      <trkpt lat="45.26477" lon="6.11196">
        <ele>1778</ele>
        <time>2021-12-23T13:45:34Z</time>
      </trkpt>
      <trkpt lat="45.26477" lon="6.11195">
        <ele>1777</ele>
        <time>2021-12-23T13:45:35Z</time>
      </trkpt>
      <trkpt lat="45.26477" lon="6.11195">
        <ele>1777</ele>
        <time>2021-12-23T13:45:36Z</time>
      </trkpt>
      <trkpt lat="45.2647" lon="6.1118">
        <ele>1777</ele>
        <time>2021-12-23T13:45:38Z</time>
      </trkpt>
      <trkpt lat="45.26467" lon="6.11176">
        <ele>1777</ele>
        <time>2021-12-23T13:45:39Z</time>
      </trkpt>
      <trkpt lat="45.26464" lon="6.11172">
        <ele>1777</ele>
        <time>2021-12-23T13:45:40Z</time>
      </trkpt>
      <trkpt lat="45.26462" lon="6.11171">
        <ele>1777</ele>
        <time>2021-12-23T13:45:41Z</time>
      </trkpt>
      <trkpt lat="45.2646" lon="6.11169">
        <ele>1776</ele>
        <time>2021-12-23T13:45:42Z</time>
      </trkpt>
      <trkpt lat="45.26458" lon="6.11168">
        <ele>1775</ele>
        <time>2021-12-23T13:45:43Z</time>
      </trkpt>
      <trkpt lat="45.26455" lon="6.11167">
        <ele>1776</ele>
        <time>2021-12-23T13:45:44Z</time>
      </trkpt>
      <trkpt lat="45.26455" lon="6.11166">
        <ele>1776</ele>
        <time>2021-12-23T13:45:45Z</time>
      </trkpt>
      <trkpt lat="45.26454" lon="6.11166">
        <ele>1776</ele>
        <time>2021-12-23T13:45:46Z</time>
      </trkpt>
      <trkpt lat="45.26453" lon="6.11166">
        <ele>1776</ele>
        <time>2021-12-23T13:45:47Z</time>
      </trkpt>
      <trkpt lat="45.26453" lon="6.11165">
        <ele>1777</ele>
        <time>2021-12-23T13:45:48Z</time>
      </trkpt>
      <trkpt lat="45.26452" lon="6.11165">
        <ele>1777</ele>
        <time>2021-12-23T13:45:49Z</time>
      </trkpt>
      <trkpt lat="45.26452" lon="6.11164">
        <ele>1777</ele>
        <time>2021-12-23T13:45:50Z</time>
      </trkpt>
      <trkpt lat="45.26451" lon="6.11164">
        <ele>1778</ele>
        <time>2021-12-23T13:45:51Z</time>
      </trkpt>
      <trkpt lat="45.2645" lon="6.11164">
        <ele>1778</ele>
        <time>2021-12-23T13:45:52Z</time>
      </trkpt>
      <trkpt lat="45.2645" lon="6.11163">
        <ele>1777</ele>
        <time>2021-12-23T13:45:53Z</time>
      </trkpt>
      <trkpt lat="45.26449" lon="6.11163">
        <ele>1776</ele>
        <time>2021-12-23T13:45:54Z</time>
      </trkpt>
      <trkpt lat="45.26448" lon="6.11162">
        <ele>1777</ele>
        <time>2021-12-23T13:45:55Z</time>
      </trkpt>
      <trkpt lat="45.26448" lon="6.11162">
        <ele>1777</ele>
        <time>2021-12-23T13:45:56Z</time>
      </trkpt>
      <trkpt lat="45.26447" lon="6.11161">
        <ele>1778</ele>
        <time>2021-12-23T13:45:57Z</time>
      </trkpt>
      <trkpt lat="45.26446" lon="6.11158">
        <ele>1778</ele>
        <time>2021-12-23T13:45:58Z</time>
      </trkpt>
      <trkpt lat="45.26444" lon="6.11155">
        <ele>1776</ele>
        <time>2021-12-23T13:45:59Z</time>
      </trkpt>
      <trkpt lat="45.26442" lon="6.11151">
        <ele>1776</ele>
        <time>2021-12-23T13:46:00Z</time>
      </trkpt>
      <trkpt lat="45.26441" lon="6.11148">
        <ele>1776</ele>
        <time>2021-12-23T13:46:01Z</time>
      </trkpt>
      <trkpt lat="45.26444" lon="6.11145">
        <ele>1775</ele>
        <time>2021-12-23T13:46:02Z</time>
      </trkpt>
      <trkpt lat="45.26446" lon="6.11142">
        <ele>1773</ele>
        <time>2021-12-23T13:46:03Z</time>
      </trkpt>
      <trkpt lat="45.26456" lon="6.11133">
        <ele>1771</ele>
        <time>2021-12-23T13:46:04Z</time>
      </trkpt>
      <trkpt lat="45.26459" lon="6.11129">
        <ele>1768</ele>
        <time>2021-12-23T13:46:05Z</time>
      </trkpt>
      <trkpt lat="45.26463" lon="6.11125">
        <ele>1765</ele>
        <time>2021-12-23T13:46:06Z</time>
      </trkpt>
      <trkpt lat="45.26461" lon="6.11121">
        <ele>1762</ele>
        <time>2021-12-23T13:46:07Z</time>
      </trkpt>
      <trkpt lat="45.26459" lon="6.11118">
        <ele>1762</ele>
        <time>2021-12-23T13:46:08Z</time>
      </trkpt>
      <trkpt lat="45.26458" lon="6.11114">
        <ele>1761</ele>
        <time>2021-12-23T13:46:09Z</time>
      </trkpt>
      <trkpt lat="45.26455" lon="6.11112">
        <ele>1760</ele>
        <time>2021-12-23T13:46:10Z</time>
      </trkpt>
      <trkpt lat="45.26453" lon="6.11109">
        <ele>1760</ele>
        <time>2021-12-23T13:46:11Z</time>
      </trkpt>
      <trkpt lat="45.26446" lon="6.11101">
        <ele>1760</ele>
        <time>2021-12-23T13:46:12Z</time>
      </trkpt>
      <trkpt lat="45.26444" lon="6.11099">
        <ele>1759</ele>
        <time>2021-12-23T13:46:13Z</time>
      </trkpt>
      <trkpt lat="45.26441" lon="6.11097">
        <ele>1758</ele>
        <time>2021-12-23T13:46:14Z</time>
      </trkpt>
      <trkpt lat="45.26438" lon="6.11092">
        <ele>1758</ele>
        <time>2021-12-23T13:46:16Z</time>
      </trkpt>
      <trkpt lat="45.26434" lon="6.11087">
        <ele>1758</ele>
        <time>2021-12-23T13:46:17Z</time>
      </trkpt>
      <trkpt lat="45.26433" lon="6.11085">
        <ele>1758</ele>
        <time>2021-12-23T13:46:18Z</time>
      </trkpt>
      <trkpt lat="45.26432" lon="6.11083">
        <ele>1757</ele>
        <time>2021-12-23T13:46:19Z</time>
      </trkpt>
      <trkpt lat="45.2643" lon="6.11082">
        <ele>1756</ele>
        <time>2021-12-23T13:46:20Z</time>
      </trkpt>
      <trkpt lat="45.26426" lon="6.11076">
        <ele>1755</ele>
        <time>2021-12-23T13:46:21Z</time>
      </trkpt>
      <trkpt lat="45.26426" lon="6.11076">
        <ele>1755</ele>
        <time>2021-12-23T13:46:22Z</time>
      </trkpt>
      <trkpt lat="45.26426" lon="6.11076">
        <ele>1754</ele>
        <time>2021-12-23T13:46:23Z</time>
      </trkpt>
      <trkpt lat="45.26417" lon="6.11069">
        <ele>1753</ele>
        <time>2021-12-23T13:46:24Z</time>
      </trkpt>
      <trkpt lat="45.26417" lon="6.11069">
        <ele>1753</ele>
        <time>2021-12-23T13:46:26Z</time>
      </trkpt>
      <trkpt lat="45.26417" lon="6.11067">
        <ele>1752</ele>
        <time>2021-12-23T13:46:27Z</time>
      </trkpt>
      <trkpt lat="45.26417" lon="6.11066">
        <ele>1752</ele>
        <time>2021-12-23T13:46:28Z</time>
      </trkpt>
      <trkpt lat="45.26418" lon="6.11064">
        <ele>1752</ele>
        <time>2021-12-23T13:46:29Z</time>
      </trkpt>
      <trkpt lat="45.26418" lon="6.11063">
        <ele>1752</ele>
        <time>2021-12-23T13:46:30Z</time>
      </trkpt>
      <trkpt lat="45.26418" lon="6.11061">
        <ele>1752</ele>
        <time>2021-12-23T13:46:31Z</time>
      </trkpt>
      <trkpt lat="45.26418" lon="6.1106">
        <ele>1751</ele>
        <time>2021-12-23T13:46:32Z</time>
      </trkpt>
      <trkpt lat="45.26418" lon="6.11058">
        <ele>1751</ele>
        <time>2021-12-23T13:46:33Z</time>
      </trkpt>
      <trkpt lat="45.26418" lon="6.11056">
        <ele>1751</ele>
        <time>2021-12-23T13:46:34Z</time>
      </trkpt>
      <trkpt lat="45.26418" lon="6.11055">
        <ele>1749</ele>
        <time>2021-12-23T13:46:35Z</time>
      </trkpt>
      <trkpt lat="45.26416" lon="6.11037">
        <ele>1749</ele>
        <time>2021-12-23T13:46:36Z</time>
      </trkpt>
      <trkpt lat="45.26418" lon="6.11032">
        <ele>1746</ele>
        <time>2021-12-23T13:46:37Z</time>
      </trkpt>
      <trkpt lat="45.26421" lon="6.11026">
        <ele>1741</ele>
        <time>2021-12-23T13:46:38Z</time>
      </trkpt>
      <trkpt lat="45.26425" lon="6.11014">
        <ele>1737</ele>
        <time>2021-12-23T13:46:39Z</time>
      </trkpt>
      <trkpt lat="45.26423" lon="6.11003">
        <ele>1737</ele>
        <time>2021-12-23T13:46:40Z</time>
      </trkpt>
      <trkpt lat="45.26423" lon="6.11003">
        <ele>1730</ele>
        <time>2021-12-23T13:46:41Z</time>
      </trkpt>
      <trkpt lat="45.26426" lon="6.10982">
        <ele>1725</ele>
        <time>2021-12-23T13:46:42Z</time>
      </trkpt>
      <trkpt lat="45.26436" lon="6.10976">
        <ele>1721</ele>
        <time>2021-12-23T13:46:43Z</time>
      </trkpt>
      <trkpt lat="45.26443" lon="6.10971">
        <ele>1716</ele>
        <time>2021-12-23T13:46:44Z</time>
      </trkpt>
      <trkpt lat="45.26447" lon="6.10972">
        <ele>1712</ele>
        <time>2021-12-23T13:46:45Z</time>
      </trkpt>
      <trkpt lat="45.2645" lon="6.10972">
        <ele>1712</ele>
        <time>2021-12-23T13:46:46Z</time>
      </trkpt>
      <trkpt lat="45.26454" lon="6.10973">
        <ele>1708</ele>
        <time>2021-12-23T13:46:47Z</time>
      </trkpt>
      <trkpt lat="45.26454" lon="6.10973">
        <ele>1707</ele>
        <time>2021-12-23T13:46:48Z</time>
      </trkpt>
      <trkpt lat="45.26455" lon="6.10974">
        <ele>1706</ele>
        <time>2021-12-23T13:46:49Z</time>
      </trkpt>
      <trkpt lat="45.26455" lon="6.10974">
        <ele>1706</ele>
        <time>2021-12-23T13:46:50Z</time>
      </trkpt>
      <trkpt lat="45.26456" lon="6.10974">
        <ele>1705</ele>
        <time>2021-12-23T13:46:51Z</time>
      </trkpt>
      <trkpt lat="45.26456" lon="6.10974">
        <ele>1705</ele>
        <time>2021-12-23T13:46:52Z</time>
      </trkpt>
      <trkpt lat="45.26462" lon="6.10975">
        <ele>1704</ele>
        <time>2021-12-23T13:46:54Z</time>
      </trkpt>
      <trkpt lat="45.26462" lon="6.10974">
        <ele>1704</ele>
        <time>2021-12-23T13:46:55Z</time>
      </trkpt>
      <trkpt lat="45.26462" lon="6.10974">
        <ele>1705</ele>
        <time>2021-12-23T13:46:56Z</time>
      </trkpt>
      <trkpt lat="45.26462" lon="6.10973">
        <ele>1706</ele>
        <time>2021-12-23T13:46:57Z</time>
      </trkpt>
      <trkpt lat="45.26462" lon="6.10972">
        <ele>1706</ele>
        <time>2021-12-23T13:46:58Z</time>
      </trkpt>
      <trkpt lat="45.26463" lon="6.10971">
        <ele>1706</ele>
        <time>2021-12-23T13:46:59Z</time>
      </trkpt>
      <trkpt lat="45.26463" lon="6.1097">
        <ele>1705</ele>
        <time>2021-12-23T13:47:00Z</time>
      </trkpt>
      <trkpt lat="45.26463" lon="6.10969">
        <ele>1705</ele>
        <time>2021-12-23T13:47:01Z</time>
      </trkpt>
      <trkpt lat="45.26463" lon="6.10969">
        <ele>1706</ele>
        <time>2021-12-23T13:47:02Z</time>
      </trkpt>
      <trkpt lat="45.26463" lon="6.10968">
        <ele>1706</ele>
        <time>2021-12-23T13:47:03Z</time>
      </trkpt>
      <trkpt lat="45.26464" lon="6.10967">
        <ele>1706</ele>
        <time>2021-12-23T13:47:04Z</time>
      </trkpt>
      <trkpt lat="45.26464" lon="6.10966">
        <ele>1706</ele>
        <time>2021-12-23T13:47:05Z</time>
      </trkpt>
      <trkpt lat="45.26464" lon="6.10965">
        <ele>1706</ele>
        <time>2021-12-23T13:47:06Z</time>
      </trkpt>
      <trkpt lat="45.26464" lon="6.10964">
        <ele>1706</ele>
        <time>2021-12-23T13:47:07Z</time>
      </trkpt>
      <trkpt lat="45.26464" lon="6.10964">
        <ele>1706</ele>
        <time>2021-12-23T13:47:08Z</time>
      </trkpt>
      <trkpt lat="45.26464" lon="6.10963">
        <ele>1706</ele>
        <time>2021-12-23T13:47:09Z</time>
      </trkpt>
      <trkpt lat="45.26465" lon="6.10962">
        <ele>1706</ele>
        <time>2021-12-23T13:47:10Z</time>
      </trkpt>
      <trkpt lat="45.26465" lon="6.10961">
        <ele>1706</ele>
        <time>2021-12-23T13:47:11Z</time>
      </trkpt>
      <trkpt lat="45.26465" lon="6.1096">
        <ele>1706</ele>
        <time>2021-12-23T13:47:13Z</time>
      </trkpt>
      <trkpt lat="45.26465" lon="6.10959">
        <ele>1706</ele>
        <time>2021-12-23T13:47:14Z</time>
      </trkpt>
      <trkpt lat="45.26465" lon="6.10958">
        <ele>1706</ele>
        <time>2021-12-23T13:47:15Z</time>
      </trkpt>
      <trkpt lat="45.26466" lon="6.10958">
        <ele>1705</ele>
        <time>2021-12-23T13:47:16Z</time>
      </trkpt>
      <trkpt lat="45.26466" lon="6.10957">
        <ele>1705</ele>
        <time>2021-12-23T13:47:17Z</time>
      </trkpt>
      <trkpt lat="45.26466" lon="6.10956">
        <ele>1705</ele>
        <time>2021-12-23T13:47:18Z</time>
      </trkpt>
      <trkpt lat="45.26466" lon="6.10955">
        <ele>1705</ele>
        <time>2021-12-23T13:47:19Z</time>
      </trkpt>
      <trkpt lat="45.26466" lon="6.10954">
        <ele>1705</ele>
        <time>2021-12-23T13:47:20Z</time>
      </trkpt>
      <trkpt lat="45.26466" lon="6.10953">
        <ele>1705</ele>
        <time>2021-12-23T13:47:21Z</time>
      </trkpt>
      <trkpt lat="45.26467" lon="6.10953">
        <ele>1705</ele>
        <time>2021-12-23T13:47:22Z</time>
      </trkpt>
      <trkpt lat="45.26467" lon="6.10952">
        <ele>1705</ele>
        <time>2021-12-23T13:47:23Z</time>
      </trkpt>
      <trkpt lat="45.26467" lon="6.10951">
        <ele>1705</ele>
        <time>2021-12-23T13:47:24Z</time>
      </trkpt>
      <trkpt lat="45.26467" lon="6.1095">
        <ele>1705</ele>
        <time>2021-12-23T13:47:25Z</time>
      </trkpt>
      <trkpt lat="45.26467" lon="6.10949">
        <ele>1705</ele>
        <time>2021-12-23T13:47:26Z</time>
      </trkpt>
      <trkpt lat="45.26467" lon="6.10948">
        <ele>1705</ele>
        <time>2021-12-23T13:47:27Z</time>
      </trkpt>
      <trkpt lat="45.26468" lon="6.10948">
        <ele>1705</ele>
        <time>2021-12-23T13:47:28Z</time>
      </trkpt>
      <trkpt lat="45.26468" lon="6.10947">
        <ele>1705</ele>
        <time>2021-12-23T13:47:29Z</time>
      </trkpt>
      <trkpt lat="45.26468" lon="6.10946">
        <ele>1705</ele>
        <time>2021-12-23T13:47:30Z</time>
      </trkpt>
      <trkpt lat="45.26468" lon="6.10945">
        <ele>1705</ele>
        <time>2021-12-23T13:47:32Z</time>
      </trkpt>
      <trkpt lat="45.26468" lon="6.10944">
        <ele>1705</ele>
        <time>2021-12-23T13:47:33Z</time>
      </trkpt>
      <trkpt lat="45.26469" lon="6.10943">
        <ele>1705</ele>
        <time>2021-12-23T13:47:34Z</time>
      </trkpt>
      <trkpt lat="45.26469" lon="6.10942">
        <ele>1705</ele>
        <time>2021-12-23T13:47:35Z</time>
      </trkpt>
      <trkpt lat="45.26469" lon="6.10942">
        <ele>1705</ele>
        <time>2021-12-23T13:47:36Z</time>
      </trkpt>
      <trkpt lat="45.26469" lon="6.10941">
        <ele>1705</ele>
        <time>2021-12-23T13:47:37Z</time>
      </trkpt>
      <trkpt lat="45.26469" lon="6.1094">
        <ele>1704</ele>
        <time>2021-12-23T13:47:38Z</time>
      </trkpt>
      <trkpt lat="45.26469" lon="6.10939">
        <ele>1704</ele>
        <time>2021-12-23T13:47:39Z</time>
      </trkpt>
      <trkpt lat="45.2647" lon="6.10938">
        <ele>1705</ele>
        <time>2021-12-23T13:47:40Z</time>
      </trkpt>
      <trkpt lat="45.2647" lon="6.10937">
        <ele>1705</ele>
        <time>2021-12-23T13:47:41Z</time>
      </trkpt>
      <trkpt lat="45.2647" lon="6.10937">
        <ele>1705</ele>
        <time>2021-12-23T13:47:42Z</time>
      </trkpt>
      <trkpt lat="45.2647" lon="6.10936">
        <ele>1705</ele>
        <time>2021-12-23T13:47:43Z</time>
      </trkpt>
      <trkpt lat="45.2647" lon="6.10935">
        <ele>1706</ele>
        <time>2021-12-23T13:47:44Z</time>
      </trkpt>
      <trkpt lat="45.2647" lon="6.10934">
        <ele>1706</ele>
        <time>2021-12-23T13:47:45Z</time>
      </trkpt>
      <trkpt lat="45.26471" lon="6.10933">
        <ele>1706</ele>
        <time>2021-12-23T13:47:46Z</time>
      </trkpt>
      <trkpt lat="45.26471" lon="6.10932">
        <ele>1705</ele>
        <time>2021-12-23T13:47:47Z</time>
      </trkpt>
      <trkpt lat="45.26471" lon="6.10932">
        <ele>1704</ele>
        <time>2021-12-23T13:47:48Z</time>
      </trkpt>
      <trkpt lat="45.26471" lon="6.10931">
        <ele>1702</ele>
        <time>2021-12-23T13:47:49Z</time>
      </trkpt>
      <trkpt lat="45.26471" lon="6.1093">
        <ele>1702</ele>
        <time>2021-12-23T13:47:50Z</time>
      </trkpt>
      <trkpt lat="45.26472" lon="6.10929">
        <ele>1700</ele>
        <time>2021-12-23T13:47:51Z</time>
      </trkpt>
      <trkpt lat="45.26468" lon="6.10922">
        <ele>1694</ele>
        <time>2021-12-23T13:47:52Z</time>
      </trkpt>
      <trkpt lat="45.26465" lon="6.10905">
        <ele>1692</ele>
        <time>2021-12-23T13:47:53Z</time>
      </trkpt>
      <trkpt lat="45.26463" lon="6.10902">
        <ele>1690</ele>
        <time>2021-12-23T13:47:54Z</time>
      </trkpt>
      <trkpt lat="45.26462" lon="6.10899">
        <ele>1689</ele>
        <time>2021-12-23T13:47:55Z</time>
      </trkpt>
      <trkpt lat="45.2646" lon="6.1089">
        <ele>1688</ele>
        <time>2021-12-23T13:47:56Z</time>
      </trkpt>
      <trkpt lat="45.2646" lon="6.10889">
        <ele>1687</ele>
        <time>2021-12-23T13:47:57Z</time>
      </trkpt>
      <trkpt lat="45.2646" lon="6.10887">
        <ele>1686</ele>
        <time>2021-12-23T13:47:58Z</time>
      </trkpt>
      <trkpt lat="45.2646" lon="6.10885">
        <ele>1685</ele>
        <time>2021-12-23T13:47:59Z</time>
      </trkpt>
      <trkpt lat="45.26463" lon="6.10873">
        <ele>1685</ele>
        <time>2021-12-23T13:48:00Z</time>
      </trkpt>
      <trkpt lat="45.26465" lon="6.1087">
        <ele>1685</ele>
        <time>2021-12-23T13:48:01Z</time>
      </trkpt>
      <trkpt lat="45.26468" lon="6.10866">
        <ele>1682</ele>
        <time>2021-12-23T13:48:02Z</time>
      </trkpt>
      <trkpt lat="45.26478" lon="6.10849">
        <ele>1679</ele>
        <time>2021-12-23T13:48:03Z</time>
      </trkpt>
      <trkpt lat="45.26481" lon="6.10846">
        <ele>1676</ele>
        <time>2021-12-23T13:48:04Z</time>
      </trkpt>
      <trkpt lat="45.26483" lon="6.10843">
        <ele>1675</ele>
        <time>2021-12-23T13:48:05Z</time>
      </trkpt>
      <trkpt lat="45.26487" lon="6.10827">
        <ele>1673</ele>
        <time>2021-12-23T13:48:06Z</time>
      </trkpt>
      <trkpt lat="45.26487" lon="6.10817">
        <ele>1673</ele>
        <time>2021-12-23T13:48:07Z</time>
      </trkpt>
      <trkpt lat="45.26487" lon="6.10806">
        <ele>1669</ele>
        <time>2021-12-23T13:48:08Z</time>
      </trkpt>
      <trkpt lat="45.26484" lon="6.10794">
        <ele>1669</ele>
        <time>2021-12-23T13:48:09Z</time>
      </trkpt>
      <trkpt lat="45.26484" lon="6.1079">
        <ele>1665</ele>
        <time>2021-12-23T13:48:10Z</time>
      </trkpt>
      <trkpt lat="45.26483" lon="6.10783">
        <ele>1665</ele>
        <time>2021-12-23T13:48:11Z</time>
      </trkpt>
      <trkpt lat="45.26482" lon="6.10779">
        <ele>1664</ele>
        <time>2021-12-23T13:48:12Z</time>
      </trkpt>
      <trkpt lat="45.26481" lon="6.10776">
        <ele>1663</ele>
        <time>2021-12-23T13:48:13Z</time>
      </trkpt>
      <trkpt lat="45.26479" lon="6.10765">
        <ele>1662</ele>
        <time>2021-12-23T13:48:14Z</time>
      </trkpt>
      <trkpt lat="45.26477" lon="6.10761">
        <ele>1661</ele>
        <time>2021-12-23T13:48:15Z</time>
      </trkpt>
      <trkpt lat="45.26475" lon="6.10757">
        <ele>1661</ele>
        <time>2021-12-23T13:48:16Z</time>
      </trkpt>
      <trkpt lat="45.26474" lon="6.10753">
        <ele>1660</ele>
        <time>2021-12-23T13:48:17Z</time>
      </trkpt>
      <trkpt lat="45.26472" lon="6.10749">
        <ele>1659</ele>
        <time>2021-12-23T13:48:18Z</time>
      </trkpt>
      <trkpt lat="45.26471" lon="6.10745">
        <ele>1659</ele>
        <time>2021-12-23T13:48:19Z</time>
      </trkpt>
      <trkpt lat="45.2647" lon="6.10741">
        <ele>1658</ele>
        <time>2021-12-23T13:48:20Z</time>
      </trkpt>
      <trkpt lat="45.2647" lon="6.10737">
        <ele>1658</ele>
        <time>2021-12-23T13:48:21Z</time>
      </trkpt>
      <trkpt lat="45.2647" lon="6.10733">
        <ele>1658</ele>
        <time>2021-12-23T13:48:22Z</time>
      </trkpt>
      <trkpt lat="45.26472" lon="6.10718">
        <ele>1657</ele>
        <time>2021-12-23T13:48:23Z</time>
      </trkpt>
      <trkpt lat="45.26474" lon="6.10711">
        <ele>1656</ele>
        <time>2021-12-23T13:48:24Z</time>
      </trkpt>
      <trkpt lat="45.26475" lon="6.10708">
        <ele>1654</ele>
        <time>2021-12-23T13:48:25Z</time>
      </trkpt>
      <trkpt lat="45.26477" lon="6.10705">
        <ele>1652</ele>
        <time>2021-12-23T13:48:26Z</time>
      </trkpt>
      <trkpt lat="45.26478" lon="6.10701">
        <ele>1650</ele>
        <time>2021-12-23T13:48:27Z</time>
      </trkpt>
      <trkpt lat="45.26487" lon="6.10681">
        <ele>1648</ele>
        <time>2021-12-23T13:48:29Z</time>
      </trkpt>
      <trkpt lat="45.26487" lon="6.10681">
        <ele>1646</ele>
        <time>2021-12-23T13:48:30Z</time>
      </trkpt>
      <trkpt lat="45.26489" lon="6.10677">
        <ele>1643</ele>
        <time>2021-12-23T13:48:31Z</time>
      </trkpt>
      <trkpt lat="45.2649" lon="6.10673">
        <ele>1641</ele>
        <time>2021-12-23T13:48:32Z</time>
      </trkpt>
      <trkpt lat="45.26495" lon="6.1066">
        <ele>1641</ele>
        <time>2021-12-23T13:48:33Z</time>
      </trkpt>
      <trkpt lat="45.26497" lon="6.10656">
        <ele>1640</ele>
        <time>2021-12-23T13:48:34Z</time>
      </trkpt>
      <trkpt lat="45.26502" lon="6.10639">
        <ele>1639</ele>
        <time>2021-12-23T13:48:35Z</time>
      </trkpt>
      <trkpt lat="45.26504" lon="6.10629">
        <ele>1639</ele>
        <time>2021-12-23T13:48:36Z</time>
      </trkpt>
      <trkpt lat="45.26505" lon="6.10619">
        <ele>1636</ele>
        <time>2021-12-23T13:48:37Z</time>
      </trkpt>
      <trkpt lat="45.26505" lon="6.10608">
        <ele>1635</ele>
        <time>2021-12-23T13:48:38Z</time>
      </trkpt>
      <trkpt lat="45.26505" lon="6.10604">
        <ele>1634</ele>
        <time>2021-12-23T13:48:39Z</time>
      </trkpt>
      <trkpt lat="45.26505" lon="6.10599">
        <ele>1633</ele>
        <time>2021-12-23T13:48:40Z</time>
      </trkpt>
      <trkpt lat="45.26507" lon="6.10584">
        <ele>1633</ele>
        <time>2021-12-23T13:48:41Z</time>
      </trkpt>
      <trkpt lat="45.26508" lon="6.10578">
        <ele>1632</ele>
        <time>2021-12-23T13:48:42Z</time>
      </trkpt>
      <trkpt lat="45.26509" lon="6.1057">
        <ele>1631</ele>
        <time>2021-12-23T13:48:43Z</time>
      </trkpt>
      <trkpt lat="45.26509" lon="6.10563">
        <ele>1631</ele>
        <time>2021-12-23T13:48:44Z</time>
      </trkpt>
      <trkpt lat="45.26509" lon="6.10556">
        <ele>1630</ele>
        <time>2021-12-23T13:48:45Z</time>
      </trkpt>
      <trkpt lat="45.26509" lon="6.10548">
        <ele>1630</ele>
        <time>2021-12-23T13:48:46Z</time>
      </trkpt>
      <trkpt lat="45.26509" lon="6.10541">
        <ele>1629</ele>
        <time>2021-12-23T13:48:47Z</time>
      </trkpt>
      <trkpt lat="45.26508" lon="6.10534">
        <ele>1628</ele>
        <time>2021-12-23T13:48:48Z</time>
      </trkpt>
      <trkpt lat="45.2651" lon="6.10527">
        <ele>1628</ele>
        <time>2021-12-23T13:48:49Z</time>
      </trkpt>
      <trkpt lat="45.26511" lon="6.1052">
        <ele>1627</ele>
        <time>2021-12-23T13:48:50Z</time>
      </trkpt>
      <trkpt lat="45.26512" lon="6.10517">
        <ele>1627</ele>
        <time>2021-12-23T13:48:51Z</time>
      </trkpt>
      <trkpt lat="45.26512" lon="6.10515">
        <ele>1626</ele>
        <time>2021-12-23T13:48:52Z</time>
      </trkpt>
      <trkpt lat="45.26512" lon="6.10512">
        <ele>1626</ele>
        <time>2021-12-23T13:48:53Z</time>
      </trkpt>
      <trkpt lat="45.26514" lon="6.105">
        <ele>1625</ele>
        <time>2021-12-23T13:48:54Z</time>
      </trkpt>
      <trkpt lat="45.26514" lon="6.10497">
        <ele>1624</ele>
        <time>2021-12-23T13:48:55Z</time>
      </trkpt>
      <trkpt lat="45.26515" lon="6.10493">
        <ele>1624</ele>
        <time>2021-12-23T13:48:56Z</time>
      </trkpt>
      <trkpt lat="45.26516" lon="6.10489">
        <ele>1624</ele>
        <time>2021-12-23T13:48:57Z</time>
      </trkpt>
      <trkpt lat="45.26516" lon="6.10486">
        <ele>1623</ele>
        <time>2021-12-23T13:48:58Z</time>
      </trkpt>
      <trkpt lat="45.26516" lon="6.10482">
        <ele>1623</ele>
        <time>2021-12-23T13:48:59Z</time>
      </trkpt>
      <trkpt lat="45.26517" lon="6.1047">
        <ele>1623</ele>
        <time>2021-12-23T13:49:00Z</time>
      </trkpt>
      <trkpt lat="45.26519" lon="6.10466">
        <ele>1622</ele>
        <time>2021-12-23T13:49:01Z</time>
      </trkpt>
      <trkpt lat="45.2652" lon="6.10462">
        <ele>1622</ele>
        <time>2021-12-23T13:49:02Z</time>
      </trkpt>
      <trkpt lat="45.26521" lon="6.10455">
        <ele>1621</ele>
        <time>2021-12-23T13:49:03Z</time>
      </trkpt>
      <trkpt lat="45.26521" lon="6.10449">
        <ele>1620</ele>
        <time>2021-12-23T13:49:04Z</time>
      </trkpt>
      <trkpt lat="45.26521" lon="6.10449">
        <ele>1619</ele>
        <time>2021-12-23T13:49:05Z</time>
      </trkpt>
      <trkpt lat="45.26524" lon="6.10433">
        <ele>1619</ele>
        <time>2021-12-23T13:49:07Z</time>
      </trkpt>
      <trkpt lat="45.26525" lon="6.10427">
        <ele>1618</ele>
        <time>2021-12-23T13:49:08Z</time>
      </trkpt>
      <trkpt lat="45.26526" lon="6.10422">
        <ele>1617</ele>
        <time>2021-12-23T13:49:09Z</time>
      </trkpt>
      <trkpt lat="45.26527" lon="6.10416">
        <ele>1617</ele>
        <time>2021-12-23T13:49:10Z</time>
      </trkpt>
      <trkpt lat="45.26528" lon="6.1041">
        <ele>1616</ele>
        <time>2021-12-23T13:49:12Z</time>
      </trkpt>
      <trkpt lat="45.26528" lon="6.10397">
        <ele>1615</ele>
        <time>2021-12-23T13:49:13Z</time>
      </trkpt>
      <trkpt lat="45.26529" lon="6.10394">
        <ele>1615</ele>
        <time>2021-12-23T13:49:14Z</time>
      </trkpt>
      <trkpt lat="45.2653" lon="6.10392">
        <ele>1614</ele>
        <time>2021-12-23T13:49:15Z</time>
      </trkpt>
      <trkpt lat="45.26531" lon="6.1039">
        <ele>1614</ele>
        <time>2021-12-23T13:49:16Z</time>
      </trkpt>
      <trkpt lat="45.26534" lon="6.10376">
        <ele>1613</ele>
        <time>2021-12-23T13:49:17Z</time>
      </trkpt>
      <trkpt lat="45.26535" lon="6.1037">
        <ele>1613</ele>
        <time>2021-12-23T13:49:18Z</time>
      </trkpt>
      <trkpt lat="45.26535" lon="6.10367">
        <ele>1613</ele>
        <time>2021-12-23T13:49:19Z</time>
      </trkpt>
      <trkpt lat="45.26535" lon="6.10364">
        <ele>1613</ele>
        <time>2021-12-23T13:49:20Z</time>
      </trkpt>
      <trkpt lat="45.26534" lon="6.1036">
        <ele>1613</ele>
        <time>2021-12-23T13:49:21Z</time>
      </trkpt>
      <trkpt lat="45.26534" lon="6.10357">
        <ele>1613</ele>
        <time>2021-12-23T13:49:22Z</time>
      </trkpt>
      <trkpt lat="45.26534" lon="6.10357">
        <ele>1612</ele>
        <time>2021-12-23T13:49:23Z</time>
      </trkpt>
      <trkpt lat="45.26534" lon="6.10357">
        <ele>1612</ele>
        <time>2021-12-23T13:49:24Z</time>
      </trkpt>
      <trkpt lat="45.26534" lon="6.10357">
        <ele>1612</ele>
        <time>2021-12-23T13:49:26Z</time>
      </trkpt>
      <trkpt lat="45.26541" lon="6.10346">
        <ele>1612</ele>
        <time>2021-12-23T13:49:27Z</time>
      </trkpt>
      <trkpt lat="45.26541" lon="6.10346">
        <ele>1611</ele>
        <time>2021-12-23T13:49:29Z</time>
      </trkpt>
      <trkpt lat="45.26541" lon="6.10344">
        <ele>1611</ele>
        <time>2021-12-23T13:49:30Z</time>
      </trkpt>
      <trkpt lat="45.26542" lon="6.10341">
        <ele>1611</ele>
        <time>2021-12-23T13:49:31Z</time>
      </trkpt>
      <trkpt lat="45.26543" lon="6.10339">
        <ele>1611</ele>
        <time>2021-12-23T13:49:32Z</time>
      </trkpt>
      <trkpt lat="45.26544" lon="6.10331">
        <ele>1611</ele>
        <time>2021-12-23T13:49:33Z</time>
      </trkpt>
      <trkpt lat="45.26543" lon="6.10329">
        <ele>1610</ele>
        <time>2021-12-23T13:49:34Z</time>
      </trkpt>
      <trkpt lat="45.26542" lon="6.10327">
        <ele>1609</ele>
        <time>2021-12-23T13:49:35Z</time>
      </trkpt>
      <trkpt lat="45.26541" lon="6.10326">
        <ele>1608</ele>
        <time>2021-12-23T13:49:36Z</time>
      </trkpt>
      <trkpt lat="45.26539" lon="6.10324">
        <ele>1608</ele>
        <time>2021-12-23T13:49:37Z</time>
      </trkpt>
      <trkpt lat="45.26539" lon="6.10323">
        <ele>1609</ele>
        <time>2021-12-23T13:49:38Z</time>
      </trkpt>
      <trkpt lat="45.26539" lon="6.10321">
        <ele>1609</ele>
        <time>2021-12-23T13:49:39Z</time>
      </trkpt>
      <trkpt lat="45.26539" lon="6.10319">
        <ele>1609</ele>
        <time>2021-12-23T13:49:40Z</time>
      </trkpt>
      <trkpt lat="45.26538" lon="6.10318">
        <ele>1609</ele>
        <time>2021-12-23T13:49:41Z</time>
      </trkpt>
      <trkpt lat="45.26538" lon="6.10316">
        <ele>1608</ele>
        <time>2021-12-23T13:49:42Z</time>
      </trkpt>
      <trkpt lat="45.26539" lon="6.10304">
        <ele>1608</ele>
        <time>2021-12-23T13:49:43Z</time>
      </trkpt>
      <trkpt lat="45.26541" lon="6.103">
        <ele>1607</ele>
        <time>2021-12-23T13:49:45Z</time>
      </trkpt>
      <trkpt lat="45.26543" lon="6.10296">
        <ele>1605</ele>
        <time>2021-12-23T13:49:46Z</time>
      </trkpt>
      <trkpt lat="45.26544" lon="6.10295">
        <ele>1604</ele>
        <time>2021-12-23T13:49:47Z</time>
      </trkpt>
      <trkpt lat="45.26544" lon="6.10293">
        <ele>1604</ele>
        <time>2021-12-23T13:49:48Z</time>
      </trkpt>
      <trkpt lat="45.26545" lon="6.10292">
        <ele>1604</ele>
        <time>2021-12-23T13:49:49Z</time>
      </trkpt>
      <trkpt lat="45.26545" lon="6.1029">
        <ele>1604</ele>
        <time>2021-12-23T13:49:50Z</time>
      </trkpt>
      <trkpt lat="45.26546" lon="6.10289">
        <ele>1604</ele>
        <time>2021-12-23T13:49:51Z</time>
      </trkpt>
      <trkpt lat="45.26546" lon="6.10288">
        <ele>1604</ele>
        <time>2021-12-23T13:49:52Z</time>
      </trkpt>
      <trkpt lat="45.26547" lon="6.10286">
        <ele>1603</ele>
        <time>2021-12-23T13:49:53Z</time>
      </trkpt>
      <trkpt lat="45.26547" lon="6.10285">
        <ele>1601</ele>
        <time>2021-12-23T13:49:54Z</time>
      </trkpt>
      <trkpt lat="45.26548" lon="6.10283">
        <ele>1599</ele>
        <time>2021-12-23T13:49:55Z</time>
      </trkpt>
      <trkpt lat="45.26552" lon="6.10269">
        <ele>1597</ele>
        <time>2021-12-23T13:49:56Z</time>
      </trkpt>
      <trkpt lat="45.26553" lon="6.10267">
        <ele>1595</ele>
        <time>2021-12-23T13:49:57Z</time>
      </trkpt>
      <trkpt lat="45.26554" lon="6.10265">
        <ele>1594</ele>
        <time>2021-12-23T13:49:58Z</time>
      </trkpt>
      <trkpt lat="45.26554" lon="6.10264">
        <ele>1592</ele>
        <time>2021-12-23T13:49:59Z</time>
      </trkpt>
      <trkpt lat="45.26555" lon="6.10262">
        <ele>1592</ele>
        <time>2021-12-23T13:50:00Z</time>
      </trkpt>
      <trkpt lat="45.26555" lon="6.1026">
        <ele>1591</ele>
        <time>2021-12-23T13:50:01Z</time>
      </trkpt>
      <trkpt lat="45.26561" lon="6.10251">
        <ele>1590</ele>
        <time>2021-12-23T13:50:02Z</time>
      </trkpt>
      <trkpt lat="45.26563" lon="6.10253">
        <ele>1592</ele>
        <time>2021-12-23T13:50:04Z</time>
      </trkpt>
      <trkpt lat="45.26565" lon="6.10254">
        <ele>1592</ele>
        <time>2021-12-23T13:50:05Z</time>
      </trkpt>
      <trkpt lat="45.26567" lon="6.10256">
        <ele>1592</ele>
        <time>2021-12-23T13:50:06Z</time>
      </trkpt>
      <trkpt lat="45.26571" lon="6.10253">
        <ele>1591</ele>
        <time>2021-12-23T13:50:07Z</time>
      </trkpt>
      <trkpt lat="45.26575" lon="6.1025">
        <ele>1591</ele>
        <time>2021-12-23T13:50:08Z</time>
      </trkpt>
      <trkpt lat="45.26579" lon="6.10246">
        <ele>1587</ele>
        <time>2021-12-23T13:50:09Z</time>
      </trkpt>
      <trkpt lat="45.26583" lon="6.10247">
        <ele>1585</ele>
        <time>2021-12-23T13:50:10Z</time>
      </trkpt>
      <trkpt lat="45.26587" lon="6.10247">
        <ele>1584</ele>
        <time>2021-12-23T13:50:11Z</time>
      </trkpt>
      <trkpt lat="45.26592" lon="6.10247">
        <ele>1582</ele>
        <time>2021-12-23T13:50:12Z</time>
      </trkpt>
      <trkpt lat="45.26593" lon="6.10244">
        <ele>1579</ele>
        <time>2021-12-23T13:50:13Z</time>
      </trkpt>
      <trkpt lat="45.26595" lon="6.10241">
        <ele>1577</ele>
        <time>2021-12-23T13:50:14Z</time>
      </trkpt>
      <trkpt lat="45.266" lon="6.10231">
        <ele>1576</ele>
        <time>2021-12-23T13:50:15Z</time>
      </trkpt>
      <trkpt lat="45.26603" lon="6.10228">
        <ele>1576</ele>
        <time>2021-12-23T13:50:16Z</time>
      </trkpt>
      <trkpt lat="45.26606" lon="6.10225">
        <ele>1572</ele>
        <time>2021-12-23T13:50:17Z</time>
      </trkpt>
      <trkpt lat="45.26606" lon="6.10225">
        <ele>1570</ele>
        <time>2021-12-23T13:50:18Z</time>
      </trkpt>
      <trkpt lat="45.26606" lon="6.10225">
        <ele>1569</ele>
        <time>2021-12-23T13:50:19Z</time>
      </trkpt>
      <trkpt lat="45.26606" lon="6.10225">
        <ele>1568</ele>
        <time>2021-12-23T13:50:20Z</time>
      </trkpt>
      <trkpt lat="45.26606" lon="6.10225">
        <ele>1567</ele>
        <time>2021-12-23T13:50:21Z</time>
      </trkpt>
      <trkpt lat="45.26612" lon="6.10221">
        <ele>1566</ele>
        <time>2021-12-23T13:50:23Z</time>
      </trkpt>
      <trkpt lat="45.26612" lon="6.10221">
        <ele>1566</ele>
        <time>2021-12-23T13:50:24Z</time>
      </trkpt>
      <trkpt lat="45.26612" lon="6.10222">
        <ele>1566</ele>
        <time>2021-12-23T13:50:25Z</time>
      </trkpt>
      <trkpt lat="45.26611" lon="6.10222">
        <ele>1566</ele>
        <time>2021-12-23T13:50:26Z</time>
      </trkpt>
      <trkpt lat="45.26611" lon="6.10222">
        <ele>1566</ele>
        <time>2021-12-23T13:50:27Z</time>
      </trkpt>
      <trkpt lat="45.26611" lon="6.10222">
        <ele>1566</ele>
        <time>2021-12-23T13:50:28Z</time>
      </trkpt>
      <trkpt lat="45.2661" lon="6.10223">
        <ele>1566</ele>
        <time>2021-12-23T13:50:29Z</time>
      </trkpt>
      <trkpt lat="45.2661" lon="6.10223">
        <ele>1566</ele>
        <time>2021-12-23T13:50:30Z</time>
      </trkpt>
      <trkpt lat="45.2661" lon="6.10223">
        <ele>1566</ele>
        <time>2021-12-23T13:50:31Z</time>
      </trkpt>
      <trkpt lat="45.2661" lon="6.10223">
        <ele>1567</ele>
        <time>2021-12-23T13:50:32Z</time>
      </trkpt>
      <trkpt lat="45.26609" lon="6.10224">
        <ele>1567</ele>
        <time>2021-12-23T13:50:33Z</time>
      </trkpt>
      <trkpt lat="45.26609" lon="6.10224">
        <ele>1566</ele>
        <time>2021-12-23T13:50:34Z</time>
      </trkpt>
      <trkpt lat="45.26609" lon="6.10224">
        <ele>1566</ele>
        <time>2021-12-23T13:50:35Z</time>
      </trkpt>
      <trkpt lat="45.26608" lon="6.10224">
        <ele>1566</ele>
        <time>2021-12-23T13:50:36Z</time>
      </trkpt>
      <trkpt lat="45.26608" lon="6.10224">
        <ele>1566</ele>
        <time>2021-12-23T13:50:37Z</time>
      </trkpt>
      <trkpt lat="45.26608" lon="6.10225">
        <ele>1566</ele>
        <time>2021-12-23T13:50:38Z</time>
      </trkpt>
      <trkpt lat="45.26608" lon="6.10225">
        <ele>1566</ele>
        <time>2021-12-23T13:50:39Z</time>
      </trkpt>
      <trkpt lat="45.26607" lon="6.10225">
        <ele>1566</ele>
        <time>2021-12-23T13:50:40Z</time>
      </trkpt>
      <trkpt lat="45.26607" lon="6.10225">
        <ele>1567</ele>
        <time>2021-12-23T13:50:42Z</time>
      </trkpt>
      <trkpt lat="45.26607" lon="6.10226">
        <ele>1567</ele>
        <time>2021-12-23T13:50:43Z</time>
      </trkpt>
      <trkpt lat="45.26606" lon="6.10226">
        <ele>1567</ele>
        <time>2021-12-23T13:50:44Z</time>
      </trkpt>
      <trkpt lat="45.26606" lon="6.10226">
        <ele>1567</ele>
        <time>2021-12-23T13:50:45Z</time>
      </trkpt>
      <trkpt lat="45.26606" lon="6.10226">
        <ele>1567</ele>
        <time>2021-12-23T13:50:46Z</time>
      </trkpt>
      <trkpt lat="45.26606" lon="6.10227">
        <ele>1567</ele>
        <time>2021-12-23T13:50:47Z</time>
      </trkpt>
      <trkpt lat="45.26605" lon="6.10227">
        <ele>1567</ele>
        <time>2021-12-23T13:50:48Z</time>
      </trkpt>
      <trkpt lat="45.26605" lon="6.10227">
        <ele>1567</ele>
        <time>2021-12-23T13:50:49Z</time>
      </trkpt>
      <trkpt lat="45.26605" lon="6.10227">
        <ele>1567</ele>
        <time>2021-12-23T13:50:50Z</time>
      </trkpt>
      <trkpt lat="45.26604" lon="6.10228">
        <ele>1565</ele>
        <time>2021-12-23T13:50:51Z</time>
      </trkpt>
      <trkpt lat="45.26604" lon="6.10228">
        <ele>1566</ele>
        <time>2021-12-23T13:50:52Z</time>
      </trkpt>
      <trkpt lat="45.26604" lon="6.10228">
        <ele>1566</ele>
        <time>2021-12-23T13:50:53Z</time>
      </trkpt>
      <trkpt lat="45.26604" lon="6.10228">
        <ele>1567</ele>
        <time>2021-12-23T13:50:54Z</time>
      </trkpt>
      <trkpt lat="45.26604" lon="6.10229">
        <ele>1567</ele>
        <time>2021-12-23T13:50:55Z</time>
      </trkpt>
      <trkpt lat="45.26605" lon="6.10229">
        <ele>1567</ele>
        <time>2021-12-23T13:50:56Z</time>
      </trkpt>
      <trkpt lat="45.26606" lon="6.10229">
        <ele>1567</ele>
        <time>2021-12-23T13:50:57Z</time>
      </trkpt>
      <trkpt lat="45.26607" lon="6.1023">
        <ele>1567</ele>
        <time>2021-12-23T13:50:58Z</time>
      </trkpt>
      <trkpt lat="45.26608" lon="6.1023">
        <ele>1567</ele>
        <time>2021-12-23T13:50:59Z</time>
      </trkpt>
      <trkpt lat="45.26609" lon="6.1023">
        <ele>1567</ele>
        <time>2021-12-23T13:51:01Z</time>
      </trkpt>
      <trkpt lat="45.26609" lon="6.1023">
        <ele>1567</ele>
        <time>2021-12-23T13:51:02Z</time>
      </trkpt>
      <trkpt lat="45.2661" lon="6.10231">
        <ele>1567</ele>
        <time>2021-12-23T13:51:03Z</time>
      </trkpt>
      <trkpt lat="45.26611" lon="6.10231">
        <ele>1567</ele>
        <time>2021-12-23T13:51:04Z</time>
      </trkpt>
      <trkpt lat="45.26612" lon="6.10231">
        <ele>1567</ele>
        <time>2021-12-23T13:51:05Z</time>
      </trkpt>
      <trkpt lat="45.26613" lon="6.10232">
        <ele>1567</ele>
        <time>2021-12-23T13:51:06Z</time>
      </trkpt>
      <trkpt lat="45.26614" lon="6.10233">
        <ele>1567</ele>
        <time>2021-12-23T13:51:07Z</time>
      </trkpt>
      <trkpt lat="45.26615" lon="6.10234">
        <ele>1567</ele>
        <time>2021-12-23T13:51:08Z</time>
      </trkpt>
      <trkpt lat="45.26616" lon="6.10235">
        <ele>1566</ele>
        <time>2021-12-23T13:51:09Z</time>
      </trkpt>
      <trkpt lat="45.26617" lon="6.10236">
        <ele>1566</ele>
        <time>2021-12-23T13:51:10Z</time>
      </trkpt>
      <trkpt lat="45.26618" lon="6.10237">
        <ele>1566</ele>
        <time>2021-12-23T13:51:11Z</time>
      </trkpt>
      <trkpt lat="45.26619" lon="6.10238">
        <ele>1566</ele>
        <time>2021-12-23T13:51:12Z</time>
      </trkpt>
      <trkpt lat="45.2662" lon="6.10239">
        <ele>1566</ele>
        <time>2021-12-23T13:51:13Z</time>
      </trkpt>
      <trkpt lat="45.26621" lon="6.1024">
        <ele>1565</ele>
        <time>2021-12-23T13:51:14Z</time>
      </trkpt>
      <trkpt lat="45.2662" lon="6.10242">
        <ele>1565</ele>
        <time>2021-12-23T13:51:15Z</time>
      </trkpt>
      <trkpt lat="45.2662" lon="6.10243">
        <ele>1565</ele>
        <time>2021-12-23T13:51:16Z</time>
      </trkpt>
      <trkpt lat="45.26619" lon="6.10244">
        <ele>1565</ele>
        <time>2021-12-23T13:51:17Z</time>
      </trkpt>
      <trkpt lat="45.26619" lon="6.10245">
        <ele>1565</ele>
        <time>2021-12-23T13:51:18Z</time>
      </trkpt>
      <trkpt lat="45.26618" lon="6.10247">
        <ele>1564</ele>
        <time>2021-12-23T13:51:20Z</time>
      </trkpt>
      <trkpt lat="45.26618" lon="6.10248">
        <ele>1564</ele>
        <time>2021-12-23T13:51:21Z</time>
      </trkpt>
      <trkpt lat="45.26617" lon="6.10249">
        <ele>1564</ele>
        <time>2021-12-23T13:51:22Z</time>
      </trkpt>
      <trkpt lat="45.26617" lon="6.1025">
        <ele>1565</ele>
        <time>2021-12-23T13:51:23Z</time>
      </trkpt>
      <trkpt lat="45.26616" lon="6.10252">
        <ele>1565</ele>
        <time>2021-12-23T13:51:24Z</time>
      </trkpt>
      <trkpt lat="45.26616" lon="6.10253">
        <ele>1565</ele>
        <time>2021-12-23T13:51:25Z</time>
      </trkpt>
      <trkpt lat="45.26615" lon="6.10254">
        <ele>1565</ele>
        <time>2021-12-23T13:51:26Z</time>
      </trkpt>
      <trkpt lat="45.26614" lon="6.10255">
        <ele>1565</ele>
        <time>2021-12-23T13:51:27Z</time>
      </trkpt>
      <trkpt lat="45.26614" lon="6.10257">
        <ele>1565</ele>
        <time>2021-12-23T13:51:28Z</time>
      </trkpt>
      <trkpt lat="45.26613" lon="6.10258">
        <ele>1564</ele>
        <time>2021-12-23T13:51:29Z</time>
      </trkpt>
      <trkpt lat="45.26611" lon="6.10263">
        <ele>1563</ele>
        <time>2021-12-23T13:51:30Z</time>
      </trkpt>
      <trkpt lat="45.26608" lon="6.10268">
        <ele>1562</ele>
        <time>2021-12-23T13:51:31Z</time>
      </trkpt>
      <trkpt lat="45.26607" lon="6.1027">
        <ele>1562</ele>
        <time>2021-12-23T13:51:32Z</time>
      </trkpt>
      <trkpt lat="45.26607" lon="6.10271">
        <ele>1561</ele>
        <time>2021-12-23T13:51:33Z</time>
      </trkpt>
      <trkpt lat="45.26606" lon="6.10273">
        <ele>1561</ele>
        <time>2021-12-23T13:51:34Z</time>
      </trkpt>
      <trkpt lat="45.26605" lon="6.10274">
        <ele>1560</ele>
        <time>2021-12-23T13:51:35Z</time>
      </trkpt>
      <trkpt lat="45.26605" lon="6.10276">
        <ele>1560</ele>
        <time>2021-12-23T13:51:36Z</time>
      </trkpt>
      <trkpt lat="45.26604" lon="6.10277">
        <ele>1560</ele>
        <time>2021-12-23T13:51:37Z</time>
      </trkpt>
      <trkpt lat="45.26604" lon="6.10279">
        <ele>1560</ele>
        <time>2021-12-23T13:51:38Z</time>
      </trkpt>
      <trkpt lat="45.26603" lon="6.1028">
        <ele>1560</ele>
        <time>2021-12-23T13:51:39Z</time>
      </trkpt>
      <trkpt lat="45.26603" lon="6.1028">
        <ele>1560</ele>
        <time>2021-12-23T13:51:40Z</time>
      </trkpt>
      <trkpt lat="45.26604" lon="6.1028">
        <ele>1560</ele>
        <time>2021-12-23T13:51:41Z</time>
      </trkpt>
      <trkpt lat="45.26604" lon="6.10279">
        <ele>1560</ele>
        <time>2021-12-23T13:51:42Z</time>
      </trkpt>
      <trkpt lat="45.26605" lon="6.10279">
        <ele>1560</ele>
        <time>2021-12-23T13:51:43Z</time>
      </trkpt>
      <trkpt lat="45.26605" lon="6.10279">
        <ele>1560</ele>
        <time>2021-12-23T13:51:44Z</time>
      </trkpt>
      <trkpt lat="45.26606" lon="6.10279">
        <ele>1560</ele>
        <time>2021-12-23T13:51:45Z</time>
      </trkpt>
      <trkpt lat="45.26606" lon="6.10278">
        <ele>1560</ele>
        <time>2021-12-23T13:51:46Z</time>
      </trkpt>
      <trkpt lat="45.26607" lon="6.10278">
        <ele>1560</ele>
        <time>2021-12-23T13:51:47Z</time>
      </trkpt>
      <trkpt lat="45.26607" lon="6.10278">
        <ele>1560</ele>
        <time>2021-12-23T13:51:48Z</time>
      </trkpt>
      <trkpt lat="45.26608" lon="6.10277">
        <ele>1560</ele>
        <time>2021-12-23T13:51:49Z</time>
      </trkpt>
      <trkpt lat="45.26608" lon="6.10277">
        <ele>1560</ele>
        <time>2021-12-23T13:51:50Z</time>
      </trkpt>
      <trkpt lat="45.26608" lon="6.10277">
        <ele>1560</ele>
        <time>2021-12-23T13:51:51Z</time>
      </trkpt>
      <trkpt lat="45.26609" lon="6.10277">
        <ele>1560</ele>
        <time>2021-12-23T13:51:52Z</time>
      </trkpt>
      <trkpt lat="45.26609" lon="6.10276">
        <ele>1560</ele>
        <time>2021-12-23T13:51:53Z</time>
      </trkpt>
      <trkpt lat="45.2661" lon="6.10276">
        <ele>1560</ele>
        <time>2021-12-23T13:51:54Z</time>
      </trkpt>
      <trkpt lat="45.2661" lon="6.10276">
        <ele>1560</ele>
        <time>2021-12-23T13:51:55Z</time>
      </trkpt>
      <trkpt lat="45.26611" lon="6.10275">
        <ele>1560</ele>
        <time>2021-12-23T13:51:56Z</time>
      </trkpt>
      <trkpt lat="45.26611" lon="6.10275">
        <ele>1560</ele>
        <time>2021-12-23T13:51:58Z</time>
      </trkpt>
      <trkpt lat="45.26612" lon="6.10275">
        <ele>1558</ele>
        <time>2021-12-23T13:51:59Z</time>
      </trkpt>
      <trkpt lat="45.26614" lon="6.10274">
        <ele>1558</ele>
        <time>2021-12-23T13:52:00Z</time>
      </trkpt>
      <trkpt lat="45.26616" lon="6.10272">
        <ele>1557</ele>
        <time>2021-12-23T13:52:01Z</time>
      </trkpt>
      <trkpt lat="45.26619" lon="6.10271">
        <ele>1556</ele>
        <time>2021-12-23T13:52:02Z</time>
      </trkpt>
      <trkpt lat="45.26621" lon="6.1027">
        <ele>1555</ele>
        <time>2021-12-23T13:52:03Z</time>
      </trkpt>
      <trkpt lat="45.26623" lon="6.10268">
        <ele>1554</ele>
        <time>2021-12-23T13:52:04Z</time>
      </trkpt>
      <trkpt lat="45.26626" lon="6.10267">
        <ele>1554</ele>
        <time>2021-12-23T13:52:05Z</time>
      </trkpt>
      <trkpt lat="45.26628" lon="6.10266">
        <ele>1552</ele>
        <time>2021-12-23T13:52:06Z</time>
      </trkpt>
      <trkpt lat="45.26629" lon="6.10266">
        <ele>1550</ele>
        <time>2021-12-23T13:52:07Z</time>
      </trkpt>
      <trkpt lat="45.26631" lon="6.10267">
        <ele>1549</ele>
        <time>2021-12-23T13:52:08Z</time>
      </trkpt>
      <trkpt lat="45.26632" lon="6.10267">
        <ele>1549</ele>
        <time>2021-12-23T13:52:09Z</time>
      </trkpt>
      <trkpt lat="45.26634" lon="6.10268">
        <ele>1548</ele>
        <time>2021-12-23T13:52:10Z</time>
      </trkpt>
      <trkpt lat="45.26635" lon="6.10268">
        <ele>1547</ele>
        <time>2021-12-23T13:52:11Z</time>
      </trkpt>
      <trkpt lat="45.26642" lon="6.10271">
        <ele>1545</ele>
        <time>2021-12-23T13:52:12Z</time>
      </trkpt>
      <trkpt lat="45.26643" lon="6.10272">
        <ele>1543</ele>
        <time>2021-12-23T13:52:13Z</time>
      </trkpt>
      <trkpt lat="45.26644" lon="6.10273">
        <ele>1542</ele>
        <time>2021-12-23T13:52:14Z</time>
      </trkpt>
      <trkpt lat="45.26644" lon="6.10274">
        <ele>1541</ele>
        <time>2021-12-23T13:52:15Z</time>
      </trkpt>
      <trkpt lat="45.26645" lon="6.10275">
        <ele>1540</ele>
        <time>2021-12-23T13:52:17Z</time>
      </trkpt>
      <trkpt lat="45.26645" lon="6.10276">
        <ele>1540</ele>
        <time>2021-12-23T13:52:18Z</time>
      </trkpt>
      <trkpt lat="45.2665" lon="6.10281">
        <ele>1540</ele>
        <time>2021-12-23T13:52:19Z</time>
      </trkpt>
      <trkpt lat="45.26651" lon="6.1028">
        <ele>1539</ele>
        <time>2021-12-23T13:52:20Z</time>
      </trkpt>
      <trkpt lat="45.26652" lon="6.1028">
        <ele>1538</ele>
        <time>2021-12-23T13:52:21Z</time>
      </trkpt>
      <trkpt lat="45.26653" lon="6.1028">
        <ele>1536</ele>
        <time>2021-12-23T13:52:22Z</time>
      </trkpt>
      <trkpt lat="45.26654" lon="6.10279">
        <ele>1535</ele>
        <time>2021-12-23T13:52:23Z</time>
      </trkpt>
      <trkpt lat="45.26655" lon="6.10279">
        <ele>1535</ele>
        <time>2021-12-23T13:52:24Z</time>
      </trkpt>
      <trkpt lat="45.26665" lon="6.10277">
        <ele>1535</ele>
        <time>2021-12-23T13:52:25Z</time>
      </trkpt>
      <trkpt lat="45.26668" lon="6.10277">
        <ele>1535</ele>
        <time>2021-12-23T13:52:26Z</time>
      </trkpt>
      <trkpt lat="45.26671" lon="6.10278">
        <ele>1534</ele>
        <time>2021-12-23T13:52:27Z</time>
      </trkpt>
      <trkpt lat="45.26675" lon="6.10279">
        <ele>1533</ele>
        <time>2021-12-23T13:52:28Z</time>
      </trkpt>
      <trkpt lat="45.26678" lon="6.10279">
        <ele>1533</ele>
        <time>2021-12-23T13:52:29Z</time>
      </trkpt>
      <trkpt lat="45.26681" lon="6.1028">
        <ele>1530</ele>
        <time>2021-12-23T13:52:30Z</time>
      </trkpt>
      <trkpt lat="45.26687" lon="6.1028">
        <ele>1529</ele>
        <time>2021-12-23T13:52:31Z</time>
      </trkpt>
      <trkpt lat="45.26687" lon="6.1028">
        <ele>1528</ele>
        <time>2021-12-23T13:52:32Z</time>
      </trkpt>
      <trkpt lat="45.26688" lon="6.10278">
        <ele>1527</ele>
        <time>2021-12-23T13:52:33Z</time>
      </trkpt>
      <trkpt lat="45.26689" lon="6.10277">
        <ele>1526</ele>
        <time>2021-12-23T13:52:34Z</time>
      </trkpt>
      <trkpt lat="45.26689" lon="6.10276">
        <ele>1525</ele>
        <time>2021-12-23T13:52:36Z</time>
      </trkpt>
      <trkpt lat="45.2669" lon="6.10275">
        <ele>1525</ele>
        <time>2021-12-23T13:52:37Z</time>
      </trkpt>
      <trkpt lat="45.26691" lon="6.10274">
        <ele>1524</ele>
        <time>2021-12-23T13:52:38Z</time>
      </trkpt>
      <trkpt lat="45.26692" lon="6.10272">
        <ele>1524</ele>
        <time>2021-12-23T13:52:39Z</time>
      </trkpt>
      <trkpt lat="45.26693" lon="6.10271">
        <ele>1524</ele>
        <time>2021-12-23T13:52:40Z</time>
      </trkpt>
      <trkpt lat="45.26694" lon="6.1027">
        <ele>1525</ele>
        <time>2021-12-23T13:52:41Z</time>
      </trkpt>
      <trkpt lat="45.26694" lon="6.10269">
        <ele>1525</ele>
        <time>2021-12-23T13:52:42Z</time>
      </trkpt>
      <trkpt lat="45.26696" lon="6.10267">
        <ele>1525</ele>
        <time>2021-12-23T13:52:43Z</time>
      </trkpt>
      <trkpt lat="45.26697" lon="6.10266">
        <ele>1525</ele>
        <time>2021-12-23T13:52:44Z</time>
      </trkpt>
      <trkpt lat="45.26699" lon="6.10264">
        <ele>1525</ele>
        <time>2021-12-23T13:52:45Z</time>
      </trkpt>
      <trkpt lat="45.267" lon="6.10263">
        <ele>1525</ele>
        <time>2021-12-23T13:52:46Z</time>
      </trkpt>
      <trkpt lat="45.26702" lon="6.10261">
        <ele>1525</ele>
        <time>2021-12-23T13:52:47Z</time>
      </trkpt>
      <trkpt lat="45.267" lon="6.10261">
        <ele>1524</ele>
        <time>2021-12-23T13:52:48Z</time>
      </trkpt>
      <trkpt lat="45.26698" lon="6.10261">
        <ele>1524</ele>
        <time>2021-12-23T13:52:49Z</time>
      </trkpt>
      <trkpt lat="45.26695" lon="6.10261">
        <ele>1524</ele>
        <time>2021-12-23T13:52:50Z</time>
      </trkpt>
      <trkpt lat="45.26693" lon="6.10261">
        <ele>1524</ele>
        <time>2021-12-23T13:52:51Z</time>
      </trkpt>
      <trkpt lat="45.26691" lon="6.10261">
        <ele>1523</ele>
        <time>2021-12-23T13:52:52Z</time>
      </trkpt>
      <trkpt lat="45.26692" lon="6.10259">
        <ele>1522</ele>
        <time>2021-12-23T13:52:53Z</time>
      </trkpt>
      <trkpt lat="45.26692" lon="6.10258">
        <ele>1522</ele>
        <time>2021-12-23T13:52:55Z</time>
      </trkpt>
      <trkpt lat="45.26692" lon="6.10256">
        <ele>1522</ele>
        <time>2021-12-23T13:52:56Z</time>
      </trkpt>
      <trkpt lat="45.26693" lon="6.10254">
        <ele>1522</ele>
        <time>2021-12-23T13:52:57Z</time>
      </trkpt>
      <trkpt lat="45.26693" lon="6.10252">
        <ele>1521</ele>
        <time>2021-12-23T13:52:58Z</time>
      </trkpt>
      <trkpt lat="45.26694" lon="6.10251">
        <ele>1519</ele>
        <time>2021-12-23T13:52:59Z</time>
      </trkpt>
      <trkpt lat="45.26694" lon="6.10249">
        <ele>1519</ele>
        <time>2021-12-23T13:53:00Z</time>
      </trkpt>
      <trkpt lat="45.26694" lon="6.10246">
        <ele>1518</ele>
        <time>2021-12-23T13:53:01Z</time>
      </trkpt>
      <trkpt lat="45.26694" lon="6.10243">
        <ele>1517</ele>
        <time>2021-12-23T13:53:02Z</time>
      </trkpt>
      <trkpt lat="45.26694" lon="6.1024">
        <ele>1516</ele>
        <time>2021-12-23T13:53:03Z</time>
      </trkpt>
      <trkpt lat="45.26694" lon="6.10228">
        <ele>1515</ele>
        <time>2021-12-23T13:53:04Z</time>
      </trkpt>
      <trkpt lat="45.26694" lon="6.10225">
        <ele>1514</ele>
        <time>2021-12-23T13:53:05Z</time>
      </trkpt>
      <trkpt lat="45.26694" lon="6.10222">
        <ele>1513</ele>
        <time>2021-12-23T13:53:06Z</time>
      </trkpt>
      <trkpt lat="45.26695" lon="6.10209">
        <ele>1513</ele>
        <time>2021-12-23T13:53:07Z</time>
      </trkpt>
      <trkpt lat="45.26694" lon="6.10205">
        <ele>1512</ele>
        <time>2021-12-23T13:53:08Z</time>
      </trkpt>
      <trkpt lat="45.26694" lon="6.10201">
        <ele>1512</ele>
        <time>2021-12-23T13:53:09Z</time>
      </trkpt>
      <trkpt lat="45.26696" lon="6.10197">
        <ele>1512</ele>
        <time>2021-12-23T13:53:10Z</time>
      </trkpt>
      <trkpt lat="45.26698" lon="6.10193">
        <ele>1511</ele>
        <time>2021-12-23T13:53:11Z</time>
      </trkpt>
      <trkpt lat="45.267" lon="6.10189">
        <ele>1510</ele>
        <time>2021-12-23T13:53:12Z</time>
      </trkpt>
      <trkpt lat="45.26702" lon="6.10185">
        <ele>1510</ele>
        <time>2021-12-23T13:53:13Z</time>
      </trkpt>
      <trkpt lat="45.26704" lon="6.10181">
        <ele>1509</ele>
        <time>2021-12-23T13:53:14Z</time>
      </trkpt>
      <trkpt lat="45.26706" lon="6.10175">
        <ele>1509</ele>
        <time>2021-12-23T13:53:15Z</time>
      </trkpt>
      <trkpt lat="45.26707" lon="6.10173">
        <ele>1508</ele>
        <time>2021-12-23T13:53:16Z</time>
      </trkpt>
      <trkpt lat="45.26707" lon="6.10172">
        <ele>1507</ele>
        <time>2021-12-23T13:53:17Z</time>
      </trkpt>
      <trkpt lat="45.26707" lon="6.10171">
        <ele>1506</ele>
        <time>2021-12-23T13:53:18Z</time>
      </trkpt>
      <trkpt lat="45.26707" lon="6.1017">
        <ele>1505</ele>
        <time>2021-12-23T13:53:19Z</time>
      </trkpt>
      <trkpt lat="45.26708" lon="6.10169">
        <ele>1504</ele>
        <time>2021-12-23T13:53:20Z</time>
      </trkpt>
      <trkpt lat="45.26708" lon="6.10167">
        <ele>1503</ele>
        <time>2021-12-23T13:53:21Z</time>
      </trkpt>
      <trkpt lat="45.26708" lon="6.10166">
        <ele>1503</ele>
        <time>2021-12-23T13:53:22Z</time>
      </trkpt>
      <trkpt lat="45.26708" lon="6.10165">
        <ele>1503</ele>
        <time>2021-12-23T13:53:23Z</time>
      </trkpt>
      <trkpt lat="45.26708" lon="6.10164">
        <ele>1503</ele>
        <time>2021-12-23T13:53:24Z</time>
      </trkpt>
      <trkpt lat="45.26709" lon="6.10162">
        <ele>1503</ele>
        <time>2021-12-23T13:53:25Z</time>
      </trkpt>
      <trkpt lat="45.2671" lon="6.1016">
        <ele>1502</ele>
        <time>2021-12-23T13:53:26Z</time>
      </trkpt>
      <trkpt lat="45.2671" lon="6.10159">
        <ele>1502</ele>
        <time>2021-12-23T13:53:27Z</time>
      </trkpt>
      <trkpt lat="45.26711" lon="6.10157">
        <ele>1502</ele>
        <time>2021-12-23T13:53:28Z</time>
      </trkpt>
      <trkpt lat="45.26714" lon="6.10147">
        <ele>1502</ele>
        <time>2021-12-23T13:53:29Z</time>
      </trkpt>
      <trkpt lat="45.26714" lon="6.10143">
        <ele>1501</ele>
        <time>2021-12-23T13:53:30Z</time>
      </trkpt>
      <trkpt lat="45.26715" lon="6.1014">
        <ele>1501</ele>
        <time>2021-12-23T13:53:31Z</time>
      </trkpt>
      <trkpt lat="45.26715" lon="6.10136">
        <ele>1501</ele>
        <time>2021-12-23T13:53:32Z</time>
      </trkpt>
      <trkpt lat="45.26715" lon="6.10132">
        <ele>1500</ele>
        <time>2021-12-23T13:53:33Z</time>
      </trkpt>
      <trkpt lat="45.26715" lon="6.10129">
        <ele>1500</ele>
        <time>2021-12-23T13:53:34Z</time>
      </trkpt>
      <trkpt lat="45.26715" lon="6.10127">
        <ele>1500</ele>
        <time>2021-12-23T13:53:35Z</time>
      </trkpt>
      <trkpt lat="45.26716" lon="6.10124">
        <ele>1499</ele>
        <time>2021-12-23T13:53:36Z</time>
      </trkpt>
      <trkpt lat="45.26716" lon="6.10116">
        <ele>1499</ele>
        <time>2021-12-23T13:53:37Z</time>
      </trkpt>
      <trkpt lat="45.26716" lon="6.10115">
        <ele>1498</ele>
        <time>2021-12-23T13:53:38Z</time>
      </trkpt>
      <trkpt lat="45.26716" lon="6.10115">
        <ele>1498</ele>
        <time>2021-12-23T13:53:39Z</time>
      </trkpt>
      <trkpt lat="45.26716" lon="6.10114">
        <ele>1497</ele>
        <time>2021-12-23T13:53:40Z</time>
      </trkpt>
      <trkpt lat="45.26715" lon="6.10114">
        <ele>1497</ele>
        <time>2021-12-23T13:53:41Z</time>
      </trkpt>
      <trkpt lat="45.26715" lon="6.10114">
        <ele>1497</ele>
        <time>2021-12-23T13:53:42Z</time>
      </trkpt>
      <trkpt lat="45.26715" lon="6.10113">
        <ele>1497</ele>
        <time>2021-12-23T13:53:43Z</time>
      </trkpt>
      <trkpt lat="45.26715" lon="6.10113">
        <ele>1497</ele>
        <time>2021-12-23T13:53:44Z</time>
      </trkpt>
      <trkpt lat="45.26715" lon="6.10112">
        <ele>1497</ele>
        <time>2021-12-23T13:53:45Z</time>
      </trkpt>
      <trkpt lat="45.26715" lon="6.10112">
        <ele>1497</ele>
        <time>2021-12-23T13:53:46Z</time>
      </trkpt>
      <trkpt lat="45.26715" lon="6.10111">
        <ele>1499</ele>
        <time>2021-12-23T13:53:47Z</time>
      </trkpt>
      <trkpt lat="45.26714" lon="6.10111">
        <ele>1498</ele>
        <time>2021-12-23T13:53:48Z</time>
      </trkpt>
      <trkpt lat="45.26714" lon="6.1011">
        <ele>1497</ele>
        <time>2021-12-23T13:53:49Z</time>
      </trkpt>
      <trkpt lat="45.26714" lon="6.1011">
        <ele>1497</ele>
        <time>2021-12-23T13:53:50Z</time>
      </trkpt>
      <trkpt lat="45.26714" lon="6.10109">
        <ele>1496</ele>
        <time>2021-12-23T13:53:52Z</time>
      </trkpt>
      <trkpt lat="45.26714" lon="6.10109">
        <ele>1496</ele>
        <time>2021-12-23T13:53:53Z</time>
      </trkpt>
      <trkpt lat="45.26714" lon="6.10108">
        <ele>1496</ele>
        <time>2021-12-23T13:53:54Z</time>
      </trkpt>
      <trkpt lat="45.26714" lon="6.10108">
        <ele>1495</ele>
        <time>2021-12-23T13:53:55Z</time>
      </trkpt>
      <trkpt lat="45.26711" lon="6.10099">
        <ele>1495</ele>
        <time>2021-12-23T13:53:56Z</time>
      </trkpt>
      <trkpt lat="45.26711" lon="6.10099">
        <ele>1494</ele>
        <time>2021-12-23T13:53:57Z</time>
      </trkpt>
      <trkpt lat="45.26711" lon="6.10099">
        <ele>1494</ele>
        <time>2021-12-23T13:53:58Z</time>
      </trkpt>
      <trkpt lat="45.26711" lon="6.10098">
        <ele>1494</ele>
        <time>2021-12-23T13:53:59Z</time>
      </trkpt>
      <trkpt lat="45.26711" lon="6.10098">
        <ele>1494</ele>
        <time>2021-12-23T13:54:00Z</time>
      </trkpt>
      <trkpt lat="45.26711" lon="6.10098">
        <ele>1494</ele>
        <time>2021-12-23T13:54:01Z</time>
      </trkpt>
      <trkpt lat="45.26711" lon="6.10098">
        <ele>1494</ele>
        <time>2021-12-23T13:54:02Z</time>
      </trkpt>
      <trkpt lat="45.26711" lon="6.10098">
        <ele>1494</ele>
        <time>2021-12-23T13:54:03Z</time>
      </trkpt>
      <trkpt lat="45.26711" lon="6.10097">
        <ele>1494</ele>
        <time>2021-12-23T13:54:04Z</time>
      </trkpt>
      <trkpt lat="45.26711" lon="6.10097">
        <ele>1495</ele>
        <time>2021-12-23T13:54:05Z</time>
      </trkpt>
      <trkpt lat="45.26712" lon="6.10097">
        <ele>1495</ele>
        <time>2021-12-23T13:54:06Z</time>
      </trkpt>
      <trkpt lat="45.26712" lon="6.10097">
        <ele>1495</ele>
        <time>2021-12-23T13:54:07Z</time>
      </trkpt>
      <trkpt lat="45.26712" lon="6.10096">
        <ele>1495</ele>
        <time>2021-12-23T13:54:08Z</time>
      </trkpt>
      <trkpt lat="45.26712" lon="6.10096">
        <ele>1493</ele>
        <time>2021-12-23T13:54:09Z</time>
      </trkpt>
      <trkpt lat="45.26712" lon="6.10096">
        <ele>1493</ele>
        <time>2021-12-23T13:54:11Z</time>
      </trkpt>
      <trkpt lat="45.26712" lon="6.10096">
        <ele>1493</ele>
        <time>2021-12-23T13:54:12Z</time>
      </trkpt>
      <trkpt lat="45.26712" lon="6.10096">
        <ele>1493</ele>
        <time>2021-12-23T13:54:13Z</time>
      </trkpt>
      <trkpt lat="45.26712" lon="6.10095">
        <ele>1493</ele>
        <time>2021-12-23T13:54:14Z</time>
      </trkpt>
      <trkpt lat="45.26712" lon="6.10095">
        <ele>1494</ele>
        <time>2021-12-23T13:54:15Z</time>
      </trkpt>
      <trkpt lat="45.26712" lon="6.10095">
        <ele>1494</ele>
        <time>2021-12-23T13:54:16Z</time>
      </trkpt>
      <trkpt lat="45.26712" lon="6.10095">
        <ele>1494</ele>
        <time>2021-12-23T13:54:17Z</time>
      </trkpt>
      <trkpt lat="45.26712" lon="6.10095">
        <ele>1494</ele>
        <time>2021-12-23T13:54:18Z</time>
      </trkpt>
      <trkpt lat="45.26712" lon="6.10094">
        <ele>1494</ele>
        <time>2021-12-23T13:54:19Z</time>
      </trkpt>
      <trkpt lat="45.26712" lon="6.10094">
        <ele>1494</ele>
        <time>2021-12-23T13:54:20Z</time>
      </trkpt>
      <trkpt lat="45.26712" lon="6.10094">
        <ele>1494</ele>
        <time>2021-12-23T13:54:21Z</time>
      </trkpt>
      <trkpt lat="45.26712" lon="6.10094">
        <ele>1494</ele>
        <time>2021-12-23T13:54:22Z</time>
      </trkpt>
      <trkpt lat="45.26712" lon="6.10094">
        <ele>1494</ele>
        <time>2021-12-23T13:54:23Z</time>
      </trkpt>
      <trkpt lat="45.26712" lon="6.10093">
        <ele>1494</ele>
        <time>2021-12-23T13:54:24Z</time>
      </trkpt>
      <trkpt lat="45.26712" lon="6.10093">
        <ele>1494</ele>
        <time>2021-12-23T13:54:25Z</time>
      </trkpt>
      <trkpt lat="45.26712" lon="6.10093">
        <ele>1494</ele>
        <time>2021-12-23T13:54:26Z</time>
      </trkpt>
      <trkpt lat="45.26712" lon="6.10093">
        <ele>1494</ele>
        <time>2021-12-23T13:54:27Z</time>
      </trkpt>
      <trkpt lat="45.26712" lon="6.10093">
        <ele>1494</ele>
        <time>2021-12-23T13:54:28Z</time>
      </trkpt>
      <trkpt lat="45.26712" lon="6.10092">
        <ele>1494</ele>
        <time>2021-12-23T13:54:30Z</time>
      </trkpt>
      <trkpt lat="45.26712" lon="6.10092">
        <ele>1494</ele>
        <time>2021-12-23T13:54:31Z</time>
      </trkpt>
      <trkpt lat="45.26713" lon="6.10092">
        <ele>1493</ele>
        <time>2021-12-23T13:54:32Z</time>
      </trkpt>
      <trkpt lat="45.26713" lon="6.10092">
        <ele>1493</ele>
        <time>2021-12-23T13:54:33Z</time>
      </trkpt>
      <trkpt lat="45.26713" lon="6.10092">
        <ele>1493</ele>
        <time>2021-12-23T13:54:34Z</time>
      </trkpt>
      <trkpt lat="45.26715" lon="6.10083">
        <ele>1493</ele>
        <time>2021-12-23T13:54:35Z</time>
      </trkpt>
      <trkpt lat="45.26715" lon="6.10082">
        <ele>1493</ele>
        <time>2021-12-23T13:54:36Z</time>
      </trkpt>
      <trkpt lat="45.26716" lon="6.10081">
        <ele>1492</ele>
        <time>2021-12-23T13:54:37Z</time>
      </trkpt>
      <trkpt lat="45.26716" lon="6.1008">
        <ele>1492</ele>
        <time>2021-12-23T13:54:38Z</time>
      </trkpt>
      <trkpt lat="45.26716" lon="6.10079">
        <ele>1492</ele>
        <time>2021-12-23T13:54:39Z</time>
      </trkpt>
      <trkpt lat="45.26717" lon="6.10079">
        <ele>1493</ele>
        <time>2021-12-23T13:54:40Z</time>
      </trkpt>
      <trkpt lat="45.26717" lon="6.10078">
        <ele>1493</ele>
        <time>2021-12-23T13:54:41Z</time>
      </trkpt>
      <trkpt lat="45.26718" lon="6.10077">
        <ele>1492</ele>
        <time>2021-12-23T13:54:42Z</time>
      </trkpt>
      <trkpt lat="45.26718" lon="6.10076">
        <ele>1492</ele>
        <time>2021-12-23T13:54:43Z</time>
      </trkpt>
      <trkpt lat="45.26719" lon="6.10075">
        <ele>1492</ele>
        <time>2021-12-23T13:54:44Z</time>
      </trkpt>
      <trkpt lat="45.26719" lon="6.10074">
        <ele>1493</ele>
        <time>2021-12-23T13:54:45Z</time>
      </trkpt>
      <trkpt lat="45.2672" lon="6.10073">
        <ele>1493</ele>
        <time>2021-12-23T13:54:46Z</time>
      </trkpt>
      <trkpt lat="45.2672" lon="6.10073">
        <ele>1493</ele>
        <time>2021-12-23T13:54:47Z</time>
      </trkpt>
      <trkpt lat="45.26721" lon="6.10072">
        <ele>1493</ele>
        <time>2021-12-23T13:54:49Z</time>
      </trkpt>
      <trkpt lat="45.26721" lon="6.10071">
        <ele>1493</ele>
        <time>2021-12-23T13:54:50Z</time>
      </trkpt>
      <trkpt lat="45.26722" lon="6.1007">
        <ele>1493</ele>
        <time>2021-12-23T13:54:51Z</time>
      </trkpt>
      <trkpt lat="45.26722" lon="6.10069">
        <ele>1493</ele>
        <time>2021-12-23T13:54:52Z</time>
      </trkpt>
      <trkpt lat="45.26722" lon="6.10068">
        <ele>1493</ele>
        <time>2021-12-23T13:54:53Z</time>
      </trkpt>
      <trkpt lat="45.26723" lon="6.10067">
        <ele>1493</ele>
        <time>2021-12-23T13:54:54Z</time>
      </trkpt>
      <trkpt lat="45.26723" lon="6.10066">
        <ele>1492</ele>
        <time>2021-12-23T13:54:55Z</time>
      </trkpt>
      <trkpt lat="45.26725" lon="6.10065">
        <ele>1491</ele>
        <time>2021-12-23T13:54:56Z</time>
      </trkpt>
      <trkpt lat="45.26727" lon="6.10064">
        <ele>1491</ele>
        <time>2021-12-23T13:54:57Z</time>
      </trkpt>
      <trkpt lat="45.26729" lon="6.10063">
        <ele>1491</ele>
        <time>2021-12-23T13:54:58Z</time>
      </trkpt>
      <trkpt lat="45.26734" lon="6.1006">
        <ele>1490</ele>
        <time>2021-12-23T13:54:59Z</time>
      </trkpt>
      <trkpt lat="45.26734" lon="6.10059">
        <ele>1490</ele>
        <time>2021-12-23T13:55:00Z</time>
      </trkpt>
      <trkpt lat="45.26734" lon="6.10058">
        <ele>1490</ele>
        <time>2021-12-23T13:55:01Z</time>
      </trkpt>
      <trkpt lat="45.26734" lon="6.10057">
        <ele>1490</ele>
        <time>2021-12-23T13:55:02Z</time>
      </trkpt>
      <trkpt lat="45.26733" lon="6.10056">
        <ele>1490</ele>
        <time>2021-12-23T13:55:03Z</time>
      </trkpt>
      <trkpt lat="45.26733" lon="6.10055">
        <ele>1490</ele>
        <time>2021-12-23T13:55:04Z</time>
      </trkpt>
      <trkpt lat="45.26733" lon="6.10054">
        <ele>1488</ele>
        <time>2021-12-23T13:55:05Z</time>
      </trkpt>
      <trkpt lat="45.26733" lon="6.10053">
        <ele>1489</ele>
        <time>2021-12-23T13:55:06Z</time>
      </trkpt>
      <trkpt lat="45.26733" lon="6.10052">
        <ele>1489</ele>
        <time>2021-12-23T13:55:08Z</time>
      </trkpt>
      <trkpt lat="45.26733" lon="6.10051">
        <ele>1489</ele>
        <time>2021-12-23T13:55:09Z</time>
      </trkpt>
      <trkpt lat="45.26733" lon="6.1005">
        <ele>1490</ele>
        <time>2021-12-23T13:55:10Z</time>
      </trkpt>
      <trkpt lat="45.26733" lon="6.10049">
        <ele>1490</ele>
        <time>2021-12-23T13:55:11Z</time>
      </trkpt>
      <trkpt lat="45.26733" lon="6.10048">
        <ele>1489</ele>
        <time>2021-12-23T13:55:12Z</time>
      </trkpt>
      <trkpt lat="45.26733" lon="6.10047">
        <ele>1489</ele>
        <time>2021-12-23T13:55:13Z</time>
      </trkpt>
      <trkpt lat="45.26734" lon="6.10048">
        <ele>1489</ele>
        <time>2021-12-23T13:55:14Z</time>
      </trkpt>
      <trkpt lat="45.26734" lon="6.10049">
        <ele>1490</ele>
        <time>2021-12-23T13:55:15Z</time>
      </trkpt>
      <trkpt lat="45.26734" lon="6.1005">
        <ele>1490</ele>
        <time>2021-12-23T13:55:16Z</time>
      </trkpt>
      <trkpt lat="45.26735" lon="6.10052">
        <ele>1490</ele>
        <time>2021-12-23T13:55:17Z</time>
      </trkpt>
      <trkpt lat="45.26735" lon="6.10053">
        <ele>1490</ele>
        <time>2021-12-23T13:55:18Z</time>
      </trkpt>
      <trkpt lat="45.26736" lon="6.10054">
        <ele>1490</ele>
        <time>2021-12-23T13:55:19Z</time>
      </trkpt>
      <trkpt lat="45.26736" lon="6.10055">
        <ele>1490</ele>
        <time>2021-12-23T13:55:20Z</time>
      </trkpt>
      <trkpt lat="45.26737" lon="6.10056">
        <ele>1490</ele>
        <time>2021-12-23T13:55:21Z</time>
      </trkpt>
      <trkpt lat="45.26737" lon="6.10057">
        <ele>1490</ele>
        <time>2021-12-23T13:55:22Z</time>
      </trkpt>
      <trkpt lat="45.26738" lon="6.10058">
        <ele>1490</ele>
        <time>2021-12-23T13:55:23Z</time>
      </trkpt>
      <trkpt lat="45.26738" lon="6.10059">
        <ele>1489</ele>
        <time>2021-12-23T13:55:24Z</time>
      </trkpt>
      <trkpt lat="45.26737" lon="6.10061">
        <ele>1489</ele>
        <time>2021-12-23T13:55:25Z</time>
      </trkpt>
      <trkpt lat="45.26735" lon="6.10062">
        <ele>1490</ele>
        <time>2021-12-23T13:55:27Z</time>
      </trkpt>
      <trkpt lat="45.26734" lon="6.10063">
        <ele>1490</ele>
        <time>2021-12-23T13:55:28Z</time>
      </trkpt>
      <trkpt lat="45.26733" lon="6.10064">
        <ele>1490</ele>
        <time>2021-12-23T13:55:29Z</time>
      </trkpt>
      <trkpt lat="45.26731" lon="6.10066">
        <ele>1490</ele>
        <time>2021-12-23T13:55:30Z</time>
      </trkpt>
      <trkpt lat="45.2673" lon="6.10067">
        <ele>1490</ele>
        <time>2021-12-23T13:55:31Z</time>
      </trkpt>
      <trkpt lat="45.26729" lon="6.10066">
        <ele>1490</ele>
        <time>2021-12-23T13:55:32Z</time>
      </trkpt>
      <trkpt lat="45.26729" lon="6.10066">
        <ele>1490</ele>
        <time>2021-12-23T13:55:33Z</time>
      </trkpt>
      <trkpt lat="45.26728" lon="6.10065">
        <ele>1491</ele>
        <time>2021-12-23T13:55:34Z</time>
      </trkpt>
      <trkpt lat="45.26727" lon="6.10064">
        <ele>1491</ele>
        <time>2021-12-23T13:55:35Z</time>
      </trkpt>
      <trkpt lat="45.26727" lon="6.10064">
        <ele>1491</ele>
        <time>2021-12-23T13:55:36Z</time>
      </trkpt>
      <trkpt lat="45.26726" lon="6.10063">
        <ele>1490</ele>
        <time>2021-12-23T13:55:37Z</time>
      </trkpt>
      <trkpt lat="45.26725" lon="6.10062">
        <ele>1489</ele>
        <time>2021-12-23T13:55:38Z</time>
      </trkpt>
      <trkpt lat="45.26725" lon="6.10062">
        <ele>1491</ele>
        <time>2021-12-23T13:55:39Z</time>
      </trkpt>
      <trkpt lat="45.26724" lon="6.10061">
        <ele>1491</ele>
        <time>2021-12-23T13:55:40Z</time>
      </trkpt>
      <trkpt lat="45.26723" lon="6.1006">
        <ele>1491</ele>
        <time>2021-12-23T13:55:41Z</time>
      </trkpt>
      <trkpt lat="45.26723" lon="6.1006">
        <ele>1491</ele>
        <time>2021-12-23T13:55:42Z</time>
      </trkpt>
      <trkpt lat="45.26722" lon="6.10059">
        <ele>1491</ele>
        <time>2021-12-23T13:55:43Z</time>
      </trkpt>
      <trkpt lat="45.26721" lon="6.10059">
        <ele>1491</ele>
        <time>2021-12-23T13:55:44Z</time>
      </trkpt>
      <trkpt lat="45.26721" lon="6.10058">
        <ele>1491</ele>
        <time>2021-12-23T13:55:45Z</time>
      </trkpt>
      <trkpt lat="45.26721" lon="6.10059">
        <ele>1491</ele>
        <time>2021-12-23T13:55:46Z</time>
      </trkpt>
      <trkpt lat="45.26721" lon="6.10059">
        <ele>1492</ele>
        <time>2021-12-23T13:55:47Z</time>
      </trkpt>
      <trkpt lat="45.26721" lon="6.1006">
        <ele>1492</ele>
        <time>2021-12-23T13:55:48Z</time>
      </trkpt>
      <trkpt lat="45.26721" lon="6.1006">
        <ele>1492</ele>
        <time>2021-12-23T13:55:50Z</time>
      </trkpt>
      <trkpt lat="45.26721" lon="6.10061">
        <ele>1492</ele>
        <time>2021-12-23T13:55:51Z</time>
      </trkpt>
      <trkpt lat="45.26721" lon="6.10061">
        <ele>1491</ele>
        <time>2021-12-23T13:55:52Z</time>
      </trkpt>
      <trkpt lat="45.2672" lon="6.10062">
        <ele>1491</ele>
        <time>2021-12-23T13:55:53Z</time>
      </trkpt>
      <trkpt lat="45.2672" lon="6.10063">
        <ele>1491</ele>
        <time>2021-12-23T13:55:54Z</time>
      </trkpt>
      <trkpt lat="45.2672" lon="6.10063">
        <ele>1491</ele>
        <time>2021-12-23T13:55:55Z</time>
      </trkpt>
      <trkpt lat="45.2672" lon="6.10064">
        <ele>1491</ele>
        <time>2021-12-23T13:55:56Z</time>
      </trkpt>
      <trkpt lat="45.2672" lon="6.10064">
        <ele>1491</ele>
        <time>2021-12-23T13:55:57Z</time>
      </trkpt>
      <trkpt lat="45.2672" lon="6.10065">
        <ele>1491</ele>
        <time>2021-12-23T13:55:58Z</time>
      </trkpt>
      <trkpt lat="45.2672" lon="6.10066">
        <ele>1491</ele>
        <time>2021-12-23T13:55:59Z</time>
      </trkpt>
      <trkpt lat="45.2672" lon="6.10066">
        <ele>1491</ele>
        <time>2021-12-23T13:56:00Z</time>
      </trkpt>
      <trkpt lat="45.2672" lon="6.10067">
        <ele>1491</ele>
        <time>2021-12-23T13:56:01Z</time>
      </trkpt>
      <trkpt lat="45.2672" lon="6.10067">
        <ele>1491</ele>
        <time>2021-12-23T13:56:02Z</time>
      </trkpt>
      <trkpt lat="45.2672" lon="6.10068">
        <ele>1491</ele>
        <time>2021-12-23T13:56:03Z</time>
      </trkpt>
      <trkpt lat="45.2672" lon="6.10069">
        <ele>1491</ele>
        <time>2021-12-23T13:56:05Z</time>
      </trkpt>
      <trkpt lat="45.2672" lon="6.10069">
        <ele>1491</ele>
        <time>2021-12-23T13:56:06Z</time>
      </trkpt>
      <trkpt lat="45.2672" lon="6.1007">
        <ele>1491</ele>
        <time>2021-12-23T13:56:07Z</time>
      </trkpt>
      <trkpt lat="45.2672" lon="6.1007">
        <ele>1491</ele>
        <time>2021-12-23T13:56:08Z</time>
      </trkpt>
      <trkpt lat="45.2672" lon="6.10071">
        <ele>1491</ele>
        <time>2021-12-23T13:56:09Z</time>
      </trkpt>
      <trkpt lat="45.2672" lon="6.10071">
        <ele>1490</ele>
        <time>2021-12-23T13:56:10Z</time>
      </trkpt>
      <trkpt lat="45.2672" lon="6.10071">
        <ele>1491</ele>
        <time>2021-12-23T13:56:11Z</time>
      </trkpt>
      <trkpt lat="45.26721" lon="6.10071">
        <ele>1491</ele>
        <time>2021-12-23T13:56:12Z</time>
      </trkpt>
      <trkpt lat="45.26721" lon="6.10071">
        <ele>1491</ele>
        <time>2021-12-23T13:56:13Z</time>
      </trkpt>
      <trkpt lat="45.26721" lon="6.10071">
        <ele>1491</ele>
        <time>2021-12-23T13:56:14Z</time>
      </trkpt>
      <trkpt lat="45.26721" lon="6.10071">
        <ele>1491</ele>
        <time>2021-12-23T13:56:15Z</time>
      </trkpt>
      <trkpt lat="45.26721" lon="6.10071">
        <ele>1491</ele>
        <time>2021-12-23T13:56:16Z</time>
      </trkpt>
      <trkpt lat="45.26722" lon="6.10071">
        <ele>1491</ele>
        <time>2021-12-23T13:56:17Z</time>
      </trkpt>
      <trkpt lat="45.26722" lon="6.10071">
        <ele>1492</ele>
        <time>2021-12-23T13:56:18Z</time>
      </trkpt>
      <trkpt lat="45.26722" lon="6.10071">
        <ele>1492</ele>
        <time>2021-12-23T13:56:19Z</time>
      </trkpt>
      <trkpt lat="45.26722" lon="6.10071">
        <ele>1492</ele>
        <time>2021-12-23T13:56:20Z</time>
      </trkpt>
      <trkpt lat="45.26722" lon="6.10071">
        <ele>1492</ele>
        <time>2021-12-23T13:56:21Z</time>
      </trkpt>
      <trkpt lat="45.26723" lon="6.10071">
        <ele>1491</ele>
        <time>2021-12-23T13:56:22Z</time>
      </trkpt>
      <trkpt lat="45.26723" lon="6.10071">
        <ele>1492</ele>
        <time>2021-12-23T13:56:24Z</time>
      </trkpt>
      <trkpt lat="45.26723" lon="6.10071">
        <ele>1492</ele>
        <time>2021-12-23T13:56:25Z</time>
      </trkpt>
      <trkpt lat="45.26723" lon="6.10071">
        <ele>1492</ele>
        <time>2021-12-23T13:56:26Z</time>
      </trkpt>
      <trkpt lat="45.26724" lon="6.10071">
        <ele>1492</ele>
        <time>2021-12-23T13:56:27Z</time>
      </trkpt>
      <trkpt lat="45.26724" lon="6.10071">
        <ele>1492</ele>
        <time>2021-12-23T13:56:28Z</time>
      </trkpt>
      <trkpt lat="45.26724" lon="6.10071">
        <ele>1492</ele>
        <time>2021-12-23T13:56:29Z</time>
      </trkpt>
      <trkpt lat="45.26724" lon="6.10071">
        <ele>1491</ele>
        <time>2021-12-23T13:56:30Z</time>
      </trkpt>
      <trkpt lat="45.26724" lon="6.10071">
        <ele>1490</ele>
        <time>2021-12-23T13:56:31Z</time>
      </trkpt>
      <trkpt lat="45.26725" lon="6.10071">
        <ele>1491</ele>
        <time>2021-12-23T13:56:32Z</time>
      </trkpt>
      <trkpt lat="45.26725" lon="6.10071">
        <ele>1491</ele>
        <time>2021-12-23T13:56:33Z</time>
      </trkpt>
      <trkpt lat="45.26725" lon="6.10071">
        <ele>1491</ele>
        <time>2021-12-23T13:56:34Z</time>
      </trkpt>
      <trkpt lat="45.26725" lon="6.10071">
        <ele>1491</ele>
        <time>2021-12-23T13:56:35Z</time>
      </trkpt>
      <trkpt lat="45.26726" lon="6.10071">
        <ele>1490</ele>
        <time>2021-12-23T13:56:36Z</time>
      </trkpt>
      <trkpt lat="45.26733" lon="6.10068">
        <ele>1490</ele>
        <time>2021-12-23T13:56:37Z</time>
      </trkpt>
      <trkpt lat="45.26735" lon="6.10066">
        <ele>1490</ele>
        <time>2021-12-23T13:56:38Z</time>
      </trkpt>
      <trkpt lat="45.26737" lon="6.10065">
        <ele>1490</ele>
        <time>2021-12-23T13:56:39Z</time>
      </trkpt>
      <trkpt lat="45.26739" lon="6.10063">
        <ele>1490</ele>
        <time>2021-12-23T13:56:40Z</time>
      </trkpt>
      <trkpt lat="45.26742" lon="6.10061">
        <ele>1490</ele>
        <time>2021-12-23T13:56:41Z</time>
      </trkpt>
      <trkpt lat="45.26745" lon="6.10058">
        <ele>1490</ele>
        <time>2021-12-23T13:56:43Z</time>
      </trkpt>
      <trkpt lat="45.26748" lon="6.10056">
        <ele>1490</ele>
        <time>2021-12-23T13:56:44Z</time>
      </trkpt>
      <trkpt lat="45.2675" lon="6.10054">
        <ele>1490</ele>
        <time>2021-12-23T13:56:45Z</time>
      </trkpt>
      <trkpt lat="45.26753" lon="6.10052">
        <ele>1490</ele>
        <time>2021-12-23T13:56:46Z</time>
      </trkpt>
      <trkpt lat="45.26756" lon="6.1005">
        <ele>1489</ele>
        <time>2021-12-23T13:56:47Z</time>
      </trkpt>
      <trkpt lat="45.26757" lon="6.10049">
        <ele>1488</ele>
        <time>2021-12-23T13:56:48Z</time>
      </trkpt>
      <trkpt lat="45.26759" lon="6.10048">
        <ele>1488</ele>
        <time>2021-12-23T13:56:49Z</time>
      </trkpt>
      <trkpt lat="45.2676" lon="6.10047">
        <ele>1488</ele>
        <time>2021-12-23T13:56:50Z</time>
      </trkpt>
      <trkpt lat="45.26762" lon="6.10046">
        <ele>1487</ele>
        <time>2021-12-23T13:56:51Z</time>
      </trkpt>
      <trkpt lat="45.26763" lon="6.10045">
        <ele>1486</ele>
        <time>2021-12-23T13:56:52Z</time>
      </trkpt>
      <trkpt lat="45.26765" lon="6.10044">
        <ele>1487</ele>
        <time>2021-12-23T13:56:53Z</time>
      </trkpt>
      <trkpt lat="45.26768" lon="6.10042">
        <ele>1487</ele>
        <time>2021-12-23T13:56:54Z</time>
      </trkpt>
      <trkpt lat="45.26771" lon="6.1004">
        <ele>1486</ele>
        <time>2021-12-23T13:56:55Z</time>
      </trkpt>
      <trkpt lat="45.26773" lon="6.10038">
        <ele>1486</ele>
        <time>2021-12-23T13:56:56Z</time>
      </trkpt>
      <trkpt lat="45.26782" lon="6.10031">
        <ele>1486</ele>
        <time>2021-12-23T13:56:57Z</time>
      </trkpt>
      <trkpt lat="45.26782" lon="6.10031">
        <ele>1486</ele>
        <time>2021-12-23T13:56:58Z</time>
      </trkpt>
      <trkpt lat="45.26786" lon="6.10029">
        <ele>1486</ele>
        <time>2021-12-23T13:56:59Z</time>
      </trkpt>
      <trkpt lat="45.26789" lon="6.10027">
        <ele>1484</ele>
        <time>2021-12-23T13:57:00Z</time>
      </trkpt>
      <trkpt lat="45.26805" lon="6.10017">
        <ele>1483</ele>
        <time>2021-12-23T13:57:02Z</time>
      </trkpt>
      <trkpt lat="45.26807" lon="6.10015">
        <ele>1482</ele>
        <time>2021-12-23T13:57:03Z</time>
      </trkpt>
      <trkpt lat="45.26812" lon="6.10012">
        <ele>1480</ele>
        <time>2021-12-23T13:57:04Z</time>
      </trkpt>
      <trkpt lat="45.26821" lon="6.10003">
        <ele>1479</ele>
        <time>2021-12-23T13:57:05Z</time>
      </trkpt>
      <trkpt lat="45.26821" lon="6.10003">
        <ele>1478</ele>
        <time>2021-12-23T13:57:06Z</time>
      </trkpt>
      <trkpt lat="45.26824" lon="6.09998">
        <ele>1478</ele>
        <time>2021-12-23T13:57:07Z</time>
      </trkpt>
      <trkpt lat="45.26828" lon="6.09994">
        <ele>1478</ele>
        <time>2021-12-23T13:57:08Z</time>
      </trkpt>
      <trkpt lat="45.2683" lon="6.0999">
        <ele>1478</ele>
        <time>2021-12-23T13:57:09Z</time>
      </trkpt>
      <trkpt lat="45.26833" lon="6.09987">
        <ele>1476</ele>
        <time>2021-12-23T13:57:10Z</time>
      </trkpt>
      <trkpt lat="45.26836" lon="6.09984">
        <ele>1476</ele>
        <time>2021-12-23T13:57:11Z</time>
      </trkpt>
      <trkpt lat="45.26839" lon="6.0998">
        <ele>1476</ele>
        <time>2021-12-23T13:57:12Z</time>
      </trkpt>
      <trkpt lat="45.26842" lon="6.09977">
        <ele>1475</ele>
        <time>2021-12-23T13:57:13Z</time>
      </trkpt>
      <trkpt lat="45.26845" lon="6.09976">
        <ele>1474</ele>
        <time>2021-12-23T13:57:14Z</time>
      </trkpt>
      <trkpt lat="45.26848" lon="6.09975">
        <ele>1474</ele>
        <time>2021-12-23T13:57:15Z</time>
      </trkpt>
      <trkpt lat="45.26854" lon="6.09972">
        <ele>1473</ele>
        <time>2021-12-23T13:57:16Z</time>
      </trkpt>
      <trkpt lat="45.26854" lon="6.09971">
        <ele>1473</ele>
        <time>2021-12-23T13:57:17Z</time>
      </trkpt>
      <trkpt lat="45.26855" lon="6.0997">
        <ele>1473</ele>
        <time>2021-12-23T13:57:18Z</time>
      </trkpt>
      <trkpt lat="45.26855" lon="6.09969">
        <ele>1473</ele>
        <time>2021-12-23T13:57:19Z</time>
      </trkpt>
      <trkpt lat="45.26855" lon="6.09967">
        <ele>1473</ele>
        <time>2021-12-23T13:57:21Z</time>
      </trkpt>
      <trkpt lat="45.26855" lon="6.09966">
        <ele>1473</ele>
        <time>2021-12-23T13:57:22Z</time>
      </trkpt>
      <trkpt lat="45.26856" lon="6.09965">
        <ele>1473</ele>
        <time>2021-12-23T13:57:23Z</time>
      </trkpt>
      <trkpt lat="45.26856" lon="6.09964">
        <ele>1473</ele>
        <time>2021-12-23T13:57:24Z</time>
      </trkpt>
      <trkpt lat="45.26856" lon="6.09963">
        <ele>1473</ele>
        <time>2021-12-23T13:57:25Z</time>
      </trkpt>
      <trkpt lat="45.26857" lon="6.09961">
        <ele>1474</ele>
        <time>2021-12-23T13:57:26Z</time>
      </trkpt>
      <trkpt lat="45.26857" lon="6.09961">
        <ele>1475</ele>
        <time>2021-12-23T13:57:27Z</time>
      </trkpt>
      <trkpt lat="45.26857" lon="6.09961">
        <ele>1474</ele>
        <time>2021-12-23T13:57:28Z</time>
      </trkpt>
      <trkpt lat="45.26857" lon="6.09961">
        <ele>1474</ele>
        <time>2021-12-23T13:57:29Z</time>
      </trkpt>
      <trkpt lat="45.26858" lon="6.09961">
        <ele>1474</ele>
        <time>2021-12-23T13:57:30Z</time>
      </trkpt>
      <trkpt lat="45.26858" lon="6.0996">
        <ele>1474</ele>
        <time>2021-12-23T13:57:31Z</time>
      </trkpt>
      <trkpt lat="45.26858" lon="6.0996">
        <ele>1474</ele>
        <time>2021-12-23T13:57:32Z</time>
      </trkpt>
      <trkpt lat="45.26858" lon="6.0996">
        <ele>1474</ele>
        <time>2021-12-23T13:57:33Z</time>
      </trkpt>
      <trkpt lat="45.26859" lon="6.0996">
        <ele>1474</ele>
        <time>2021-12-23T13:57:34Z</time>
      </trkpt>
      <trkpt lat="45.26859" lon="6.0996">
        <ele>1474</ele>
        <time>2021-12-23T13:57:35Z</time>
      </trkpt>
      <trkpt lat="45.26859" lon="6.0996">
        <ele>1474</ele>
        <time>2021-12-23T13:57:36Z</time>
      </trkpt>
      <trkpt lat="45.2686" lon="6.09959">
        <ele>1475</ele>
        <time>2021-12-23T13:57:37Z</time>
      </trkpt>
      <trkpt lat="45.2686" lon="6.09959">
        <ele>1475</ele>
        <time>2021-12-23T13:57:38Z</time>
      </trkpt>
      <trkpt lat="45.2686" lon="6.09959">
        <ele>1476</ele>
        <time>2021-12-23T13:57:40Z</time>
      </trkpt>
      <trkpt lat="45.2686" lon="6.09959">
        <ele>1476</ele>
        <time>2021-12-23T13:57:41Z</time>
      </trkpt>
      <trkpt lat="45.26861" lon="6.09959">
        <ele>1476</ele>
        <time>2021-12-23T13:57:42Z</time>
      </trkpt>
      <trkpt lat="45.26861" lon="6.09958">
        <ele>1475</ele>
        <time>2021-12-23T13:57:43Z</time>
      </trkpt>
      <trkpt lat="45.26861" lon="6.09958">
        <ele>1475</ele>
        <time>2021-12-23T13:57:44Z</time>
      </trkpt>
      <trkpt lat="45.26861" lon="6.09958">
        <ele>1476</ele>
        <time>2021-12-23T13:57:45Z</time>
      </trkpt>
      <trkpt lat="45.26862" lon="6.09958">
        <ele>1476</ele>
        <time>2021-12-23T13:57:46Z</time>
      </trkpt>
      <trkpt lat="45.26862" lon="6.09958">
        <ele>1476</ele>
        <time>2021-12-23T13:57:47Z</time>
      </trkpt>
      <trkpt lat="45.26862" lon="6.09958">
        <ele>1475</ele>
        <time>2021-12-23T13:57:48Z</time>
      </trkpt>
      <trkpt lat="45.26862" lon="6.09957">
        <ele>1475</ele>
        <time>2021-12-23T13:57:49Z</time>
      </trkpt>
      <trkpt lat="45.26863" lon="6.09957">
        <ele>1475</ele>
        <time>2021-12-23T13:57:50Z</time>
      </trkpt>
      <trkpt lat="45.26872" lon="6.09953">
        <ele>1475</ele>
        <time>2021-12-23T13:57:51Z</time>
      </trkpt>
      <trkpt lat="45.26876" lon="6.09953">
        <ele>1475</ele>
        <time>2021-12-23T13:57:52Z</time>
      </trkpt>
      <trkpt lat="45.26879" lon="6.09953">
        <ele>1475</ele>
        <time>2021-12-23T13:57:53Z</time>
      </trkpt>
      <trkpt lat="45.26883" lon="6.09953">
        <ele>1474</ele>
        <time>2021-12-23T13:57:54Z</time>
      </trkpt>
      <trkpt lat="45.26884" lon="6.09952">
        <ele>1474</ele>
        <time>2021-12-23T13:57:55Z</time>
      </trkpt>
      <trkpt lat="45.26885" lon="6.09951">
        <ele>1474</ele>
        <time>2021-12-23T13:57:56Z</time>
      </trkpt>
      <trkpt lat="45.26886" lon="6.09949">
        <ele>1473</ele>
        <time>2021-12-23T13:57:57Z</time>
      </trkpt>
      <trkpt lat="45.26896" lon="6.09938">
        <ele>1472</ele>
        <time>2021-12-23T13:57:59Z</time>
      </trkpt>
      <trkpt lat="45.269" lon="6.09935">
        <ele>1472</ele>
        <time>2021-12-23T13:58:00Z</time>
      </trkpt>
      <trkpt lat="45.26903" lon="6.09932">
        <ele>1471</ele>
        <time>2021-12-23T13:58:01Z</time>
      </trkpt>
      <trkpt lat="45.26906" lon="6.0993">
        <ele>1471</ele>
        <time>2021-12-23T13:58:02Z</time>
      </trkpt>
      <trkpt lat="45.26909" lon="6.09928">
        <ele>1470</ele>
        <time>2021-12-23T13:58:03Z</time>
      </trkpt>
      <trkpt lat="45.26912" lon="6.09925">
        <ele>1469</ele>
        <time>2021-12-23T13:58:04Z</time>
      </trkpt>
      <trkpt lat="45.26914" lon="6.09923">
        <ele>1469</ele>
        <time>2021-12-23T13:58:05Z</time>
      </trkpt>
      <trkpt lat="45.26917" lon="6.09921">
        <ele>1469</ele>
        <time>2021-12-23T13:58:06Z</time>
      </trkpt>
      <trkpt lat="45.2692" lon="6.09918">
        <ele>1469</ele>
        <time>2021-12-23T13:58:07Z</time>
      </trkpt>
      <trkpt lat="45.26921" lon="6.0991">
        <ele>1469</ele>
        <time>2021-12-23T13:58:08Z</time>
      </trkpt>
      <trkpt lat="45.26923" lon="6.09907">
        <ele>1467</ele>
        <time>2021-12-23T13:58:09Z</time>
      </trkpt>
      <trkpt lat="45.2693" lon="6.09899">
        <ele>1465</ele>
        <time>2021-12-23T13:58:10Z</time>
      </trkpt>
      <trkpt lat="45.26931" lon="6.09896">
        <ele>1464</ele>
        <time>2021-12-23T13:58:11Z</time>
      </trkpt>
      <trkpt lat="45.26938" lon="6.09884">
        <ele>1463</ele>
        <time>2021-12-23T13:58:12Z</time>
      </trkpt>
      <trkpt lat="45.26941" lon="6.0988">
        <ele>1463</ele>
        <time>2021-12-23T13:58:13Z</time>
      </trkpt>
      <trkpt lat="45.26942" lon="6.09877">
        <ele>1463</ele>
        <time>2021-12-23T13:58:14Z</time>
      </trkpt>
      <trkpt lat="45.26942" lon="6.09874">
        <ele>1463</ele>
        <time>2021-12-23T13:58:15Z</time>
      </trkpt>
      <trkpt lat="45.26943" lon="6.09872">
        <ele>1463</ele>
        <time>2021-12-23T13:58:16Z</time>
      </trkpt>
      <trkpt lat="45.26943" lon="6.09869">
        <ele>1463</ele>
        <time>2021-12-23T13:58:17Z</time>
      </trkpt>
      <trkpt lat="45.26944" lon="6.09866">
        <ele>1462</ele>
        <time>2021-12-23T13:58:18Z</time>
      </trkpt>
      <trkpt lat="45.26945" lon="6.09863">
        <ele>1462</ele>
        <time>2021-12-23T13:58:19Z</time>
      </trkpt>
      <trkpt lat="45.26947" lon="6.0986">
        <ele>1460</ele>
        <time>2021-12-23T13:58:20Z</time>
      </trkpt>
      <trkpt lat="45.26949" lon="6.09856">
        <ele>1460</ele>
        <time>2021-12-23T13:58:21Z</time>
      </trkpt>
      <trkpt lat="45.26954" lon="6.09842">
        <ele>1460</ele>
        <time>2021-12-23T13:58:22Z</time>
      </trkpt>
      <trkpt lat="45.26954" lon="6.09838">
        <ele>1459</ele>
        <time>2021-12-23T13:58:23Z</time>
      </trkpt>
      <trkpt lat="45.26954" lon="6.09827">
        <ele>1458</ele>
        <time>2021-12-23T13:58:24Z</time>
      </trkpt>
      <trkpt lat="45.26955" lon="6.09826">
        <ele>1458</ele>
        <time>2021-12-23T13:58:25Z</time>
      </trkpt>
      <trkpt lat="45.26956" lon="6.09824">
        <ele>1458</ele>
        <time>2021-12-23T13:58:26Z</time>
      </trkpt>
      <trkpt lat="45.26957" lon="6.09823">
        <ele>1458</ele>
        <time>2021-12-23T13:58:27Z</time>
      </trkpt>
      <trkpt lat="45.26962" lon="6.09812">
        <ele>1458</ele>
        <time>2021-12-23T13:58:28Z</time>
      </trkpt>
      <trkpt lat="45.26962" lon="6.09808">
        <ele>1458</ele>
        <time>2021-12-23T13:58:29Z</time>
      </trkpt>
      <trkpt lat="45.26963" lon="6.09804">
        <ele>1458</ele>
        <time>2021-12-23T13:58:30Z</time>
      </trkpt>
      <trkpt lat="45.26963" lon="6.098">
        <ele>1457</ele>
        <time>2021-12-23T13:58:31Z</time>
      </trkpt>
      <trkpt lat="45.26965" lon="6.09799">
        <ele>1457</ele>
        <time>2021-12-23T13:58:32Z</time>
      </trkpt>
      <trkpt lat="45.26966" lon="6.09797">
        <ele>1457</ele>
        <time>2021-12-23T13:58:33Z</time>
      </trkpt>
      <trkpt lat="45.26968" lon="6.09796">
        <ele>1456</ele>
        <time>2021-12-23T13:58:34Z</time>
      </trkpt>
      <trkpt lat="45.26973" lon="6.09789">
        <ele>1456</ele>
        <time>2021-12-23T13:58:35Z</time>
      </trkpt>
      <trkpt lat="45.26974" lon="6.09787">
        <ele>1456</ele>
        <time>2021-12-23T13:58:37Z</time>
      </trkpt>
      <trkpt lat="45.26975" lon="6.09785">
        <ele>1456</ele>
        <time>2021-12-23T13:58:38Z</time>
      </trkpt>
      <trkpt lat="45.26976" lon="6.09782">
        <ele>1455</ele>
        <time>2021-12-23T13:58:39Z</time>
      </trkpt>
      <trkpt lat="45.26977" lon="6.0978">
        <ele>1455</ele>
        <time>2021-12-23T13:58:40Z</time>
      </trkpt>
      <trkpt lat="45.26978" lon="6.09778">
        <ele>1455</ele>
        <time>2021-12-23T13:58:41Z</time>
      </trkpt>
      <trkpt lat="45.26979" lon="6.09776">
        <ele>1454</ele>
        <time>2021-12-23T13:58:42Z</time>
      </trkpt>
      <trkpt lat="45.26979" lon="6.09773">
        <ele>1454</ele>
        <time>2021-12-23T13:58:43Z</time>
      </trkpt>
      <trkpt lat="45.26985" lon="6.09752">
        <ele>1453</ele>
        <time>2021-12-23T13:58:44Z</time>
      </trkpt>
      <trkpt lat="45.26985" lon="6.09749">
        <ele>1453</ele>
        <time>2021-12-23T13:58:45Z</time>
      </trkpt>
      <trkpt lat="45.26984" lon="6.09746">
        <ele>1453</ele>
        <time>2021-12-23T13:58:46Z</time>
      </trkpt>
      <trkpt lat="45.26983" lon="6.09743">
        <ele>1454</ele>
        <time>2021-12-23T13:58:47Z</time>
      </trkpt>
      <trkpt lat="45.26983" lon="6.09743">
        <ele>1454</ele>
        <time>2021-12-23T13:58:48Z</time>
      </trkpt>
      <trkpt lat="45.26984" lon="6.09743">
        <ele>1454</ele>
        <time>2021-12-23T13:58:49Z</time>
      </trkpt>
      <trkpt lat="45.26984" lon="6.09743">
        <ele>1454</ele>
        <time>2021-12-23T13:58:50Z</time>
      </trkpt>
      <trkpt lat="45.26985" lon="6.09743">
        <ele>1454</ele>
        <time>2021-12-23T13:58:51Z</time>
      </trkpt>
      <trkpt lat="45.26986" lon="6.09744">
        <ele>1455</ele>
        <time>2021-12-23T13:58:52Z</time>
      </trkpt>
      <trkpt lat="45.26986" lon="6.09744">
        <ele>1455</ele>
        <time>2021-12-23T13:58:53Z</time>
      </trkpt>
      <trkpt lat="45.26987" lon="6.09744">
        <ele>1455</ele>
        <time>2021-12-23T13:58:54Z</time>
      </trkpt>
      <trkpt lat="45.26987" lon="6.09744">
        <ele>1455</ele>
        <time>2021-12-23T13:58:56Z</time>
      </trkpt>
      <trkpt lat="45.26988" lon="6.09744">
        <ele>1455</ele>
        <time>2021-12-23T13:58:57Z</time>
      </trkpt>
      <trkpt lat="45.26988" lon="6.09744">
        <ele>1455</ele>
        <time>2021-12-23T13:58:58Z</time>
      </trkpt>
      <trkpt lat="45.26989" lon="6.09744">
        <ele>1455</ele>
        <time>2021-12-23T13:58:59Z</time>
      </trkpt>
      <trkpt lat="45.26989" lon="6.09745">
        <ele>1455</ele>
        <time>2021-12-23T13:59:00Z</time>
      </trkpt>
      <trkpt lat="45.2699" lon="6.09745">
        <ele>1455</ele>
        <time>2021-12-23T13:59:01Z</time>
      </trkpt>
      <trkpt lat="45.2699" lon="6.09745">
        <ele>1455</ele>
        <time>2021-12-23T13:59:02Z</time>
      </trkpt>
      <trkpt lat="45.26991" lon="6.09745">
        <ele>1456</ele>
        <time>2021-12-23T13:59:03Z</time>
      </trkpt>
      <trkpt lat="45.26992" lon="6.09745">
        <ele>1456</ele>
        <time>2021-12-23T13:59:04Z</time>
      </trkpt>
      <trkpt lat="45.26992" lon="6.09745">
        <ele>1456</ele>
        <time>2021-12-23T13:59:05Z</time>
      </trkpt>
      <trkpt lat="45.26992" lon="6.09745">
        <ele>1455</ele>
        <time>2021-12-23T13:59:06Z</time>
      </trkpt>
      <trkpt lat="45.26992" lon="6.09744">
        <ele>1455</ele>
        <time>2021-12-23T13:59:07Z</time>
      </trkpt>
      <trkpt lat="45.26992" lon="6.09744">
        <ele>1455</ele>
        <time>2021-12-23T13:59:08Z</time>
      </trkpt>
      <trkpt lat="45.26992" lon="6.09744">
        <ele>1455</ele>
        <time>2021-12-23T13:59:09Z</time>
      </trkpt>
      <trkpt lat="45.26992" lon="6.09743">
        <ele>1455</ele>
        <time>2021-12-23T13:59:10Z</time>
      </trkpt>
      <trkpt lat="45.26992" lon="6.09743">
        <ele>1455</ele>
        <time>2021-12-23T13:59:11Z</time>
      </trkpt>
      <trkpt lat="45.26992" lon="6.09743">
        <ele>1456</ele>
        <time>2021-12-23T13:59:12Z</time>
      </trkpt>
      <trkpt lat="45.26992" lon="6.09742">
        <ele>1456</ele>
        <time>2021-12-23T13:59:13Z</time>
      </trkpt>
      <trkpt lat="45.26992" lon="6.09742">
        <ele>1455</ele>
        <time>2021-12-23T13:59:15Z</time>
      </trkpt>
      <trkpt lat="45.26992" lon="6.09742">
        <ele>1456</ele>
        <time>2021-12-23T13:59:16Z</time>
      </trkpt>
      <trkpt lat="45.26992" lon="6.09741">
        <ele>1456</ele>
        <time>2021-12-23T13:59:17Z</time>
      </trkpt>
      <trkpt lat="45.26992" lon="6.09741">
        <ele>1456</ele>
        <time>2021-12-23T13:59:18Z</time>
      </trkpt>
      <trkpt lat="45.26992" lon="6.09741">
        <ele>1456</ele>
        <time>2021-12-23T13:59:19Z</time>
      </trkpt>
      <trkpt lat="45.26992" lon="6.0974">
        <ele>1457</ele>
        <time>2021-12-23T13:59:20Z</time>
      </trkpt>
      <trkpt lat="45.26992" lon="6.0974">
        <ele>1457</ele>
        <time>2021-12-23T13:59:21Z</time>
      </trkpt>
      <trkpt lat="45.26992" lon="6.0974">
        <ele>1457</ele>
        <time>2021-12-23T13:59:22Z</time>
      </trkpt>
      <trkpt lat="45.26993" lon="6.09739">
        <ele>1457</ele>
        <time>2021-12-23T13:59:23Z</time>
      </trkpt>
      <trkpt lat="45.26993" lon="6.09739">
        <ele>1457</ele>
        <time>2021-12-23T13:59:24Z</time>
      </trkpt>
      <trkpt lat="45.26993" lon="6.09739">
        <ele>1457</ele>
        <time>2021-12-23T13:59:25Z</time>
      </trkpt>
      <trkpt lat="45.26993" lon="6.09738">
        <ele>1457</ele>
        <time>2021-12-23T13:59:26Z</time>
      </trkpt>
      <trkpt lat="45.26993" lon="6.09738">
        <ele>1457</ele>
        <time>2021-12-23T13:59:27Z</time>
      </trkpt>
      <trkpt lat="45.26993" lon="6.09738">
        <ele>1456</ele>
        <time>2021-12-23T13:59:28Z</time>
      </trkpt>
      <trkpt lat="45.26993" lon="6.09737">
        <ele>1456</ele>
        <time>2021-12-23T13:59:29Z</time>
      </trkpt>
      <trkpt lat="45.26993" lon="6.09737">
        <ele>1456</ele>
        <time>2021-12-23T13:59:30Z</time>
      </trkpt>
      <trkpt lat="45.26993" lon="6.09736">
        <ele>1456</ele>
        <time>2021-12-23T13:59:31Z</time>
      </trkpt>
      <trkpt lat="45.26993" lon="6.09736">
        <ele>1456</ele>
        <time>2021-12-23T13:59:32Z</time>
      </trkpt>
      <trkpt lat="45.26993" lon="6.09736">
        <ele>1456</ele>
        <time>2021-12-23T13:59:34Z</time>
      </trkpt>
      <trkpt lat="45.26993" lon="6.09735">
        <ele>1456</ele>
        <time>2021-12-23T13:59:35Z</time>
      </trkpt>
      <trkpt lat="45.26993" lon="6.09735">
        <ele>1456</ele>
        <time>2021-12-23T13:59:36Z</time>
      </trkpt>
      <trkpt lat="45.26993" lon="6.09735">
        <ele>1456</ele>
        <time>2021-12-23T13:59:37Z</time>
      </trkpt>
      <trkpt lat="45.26993" lon="6.09734">
        <ele>1456</ele>
        <time>2021-12-23T13:59:38Z</time>
      </trkpt>
      <trkpt lat="45.26993" lon="6.09734">
        <ele>1456</ele>
        <time>2021-12-23T13:59:39Z</time>
      </trkpt>
      <trkpt lat="45.26993" lon="6.09734">
        <ele>1456</ele>
        <time>2021-12-23T13:59:40Z</time>
      </trkpt>
      <trkpt lat="45.26994" lon="6.09733">
        <ele>1456</ele>
        <time>2021-12-23T13:59:41Z</time>
      </trkpt>
      <trkpt lat="45.26994" lon="6.09733">
        <ele>1456</ele>
        <time>2021-12-23T13:59:42Z</time>
      </trkpt>
      <trkpt lat="45.26994" lon="6.09733">
        <ele>1456</ele>
        <time>2021-12-23T13:59:43Z</time>
      </trkpt>
      <trkpt lat="45.26994" lon="6.09732">
        <ele>1456</ele>
        <time>2021-12-23T13:59:44Z</time>
      </trkpt>
      <trkpt lat="45.26994" lon="6.09732">
        <ele>1456</ele>
        <time>2021-12-23T13:59:45Z</time>
      </trkpt>
      <trkpt lat="45.26994" lon="6.09732">
        <ele>1456</ele>
        <time>2021-12-23T13:59:46Z</time>
      </trkpt>
      <trkpt lat="45.26994" lon="6.09732">
        <ele>1456</ele>
        <time>2021-12-23T13:59:47Z</time>
      </trkpt>
      <trkpt lat="45.26994" lon="6.09732">
        <ele>1456</ele>
        <time>2021-12-23T13:59:48Z</time>
      </trkpt>
      <trkpt lat="45.26995" lon="6.09733">
        <ele>1456</ele>
        <time>2021-12-23T13:59:49Z</time>
      </trkpt>
      <trkpt lat="45.26995" lon="6.09733">
        <ele>1456</ele>
        <time>2021-12-23T13:59:50Z</time>
      </trkpt>
      <trkpt lat="45.26995" lon="6.09733">
        <ele>1456</ele>
        <time>2021-12-23T13:59:51Z</time>
      </trkpt>
      <trkpt lat="45.26996" lon="6.09734">
        <ele>1456</ele>
        <time>2021-12-23T13:59:53Z</time>
      </trkpt>
      <trkpt lat="45.26996" lon="6.09734">
        <ele>1456</ele>
        <time>2021-12-23T13:59:54Z</time>
      </trkpt>
      <trkpt lat="45.26996" lon="6.09734">
        <ele>1456</ele>
        <time>2021-12-23T13:59:55Z</time>
      </trkpt>
      <trkpt lat="45.26996" lon="6.09735">
        <ele>1456</ele>
        <time>2021-12-23T13:59:56Z</time>
      </trkpt>
      <trkpt lat="45.26997" lon="6.09735">
        <ele>1456</ele>
        <time>2021-12-23T13:59:57Z</time>
      </trkpt>
      <trkpt lat="45.26997" lon="6.09735">
        <ele>1456</ele>
        <time>2021-12-23T13:59:58Z</time>
      </trkpt>
      <trkpt lat="45.26997" lon="6.09736">
        <ele>1456</ele>
        <time>2021-12-23T13:59:59Z</time>
      </trkpt>
      <trkpt lat="45.26997" lon="6.09736">
        <ele>1456</ele>
        <time>2021-12-23T14:00:00Z</time>
      </trkpt>
      <trkpt lat="45.26998" lon="6.09736">
        <ele>1456</ele>
        <time>2021-12-23T14:00:01Z</time>
      </trkpt>
      <trkpt lat="45.26998" lon="6.09737">
        <ele>1456</ele>
        <time>2021-12-23T14:00:02Z</time>
      </trkpt>
      <trkpt lat="45.26998" lon="6.09737">
        <ele>1456</ele>
        <time>2021-12-23T14:00:03Z</time>
      </trkpt>
      <trkpt lat="45.26999" lon="6.09737">
        <ele>1456</ele>
        <time>2021-12-23T14:00:04Z</time>
      </trkpt>
      <trkpt lat="45.26999" lon="6.09737">
        <ele>1456</ele>
        <time>2021-12-23T14:00:05Z</time>
      </trkpt>
      <trkpt lat="45.26999" lon="6.09738">
        <ele>1455</ele>
        <time>2021-12-23T14:00:06Z</time>
      </trkpt>
      <trkpt lat="45.26999" lon="6.09738">
        <ele>1455</ele>
        <time>2021-12-23T14:00:07Z</time>
      </trkpt>
      <trkpt lat="45.27" lon="6.09738">
        <ele>1455</ele>
        <time>2021-12-23T14:00:08Z</time>
      </trkpt>
      <trkpt lat="45.27" lon="6.09739">
        <ele>1456</ele>
        <time>2021-12-23T14:00:09Z</time>
      </trkpt>
      <trkpt lat="45.27" lon="6.09739">
        <ele>1456</ele>
        <time>2021-12-23T14:00:10Z</time>
      </trkpt>
      <trkpt lat="45.27001" lon="6.09739">
        <ele>1456</ele>
        <time>2021-12-23T14:00:12Z</time>
      </trkpt>
      <trkpt lat="45.27001" lon="6.0974">
        <ele>1456</ele>
        <time>2021-12-23T14:00:13Z</time>
      </trkpt>
      <trkpt lat="45.27001" lon="6.0974">
        <ele>1456</ele>
        <time>2021-12-23T14:00:14Z</time>
      </trkpt>
      <trkpt lat="45.27002" lon="6.09739">
        <ele>1456</ele>
        <time>2021-12-23T14:00:15Z</time>
      </trkpt>
      <trkpt lat="45.27003" lon="6.09738">
        <ele>1456</ele>
        <time>2021-12-23T14:00:16Z</time>
      </trkpt>
      <trkpt lat="45.27004" lon="6.09737">
        <ele>1455</ele>
        <time>2021-12-23T14:00:17Z</time>
      </trkpt>
      <trkpt lat="45.27004" lon="6.09736">
        <ele>1455</ele>
        <time>2021-12-23T14:00:18Z</time>
      </trkpt>
      <trkpt lat="45.27005" lon="6.09735">
        <ele>1455</ele>
        <time>2021-12-23T14:00:19Z</time>
      </trkpt>
      <trkpt lat="45.27011" lon="6.09727">
        <ele>1455</ele>
        <time>2021-12-23T14:00:20Z</time>
      </trkpt>
      <trkpt lat="45.27012" lon="6.09724">
        <ele>1455</ele>
        <time>2021-12-23T14:00:21Z</time>
      </trkpt>
      <trkpt lat="45.27014" lon="6.09721">
        <ele>1455</ele>
        <time>2021-12-23T14:00:22Z</time>
      </trkpt>
      <trkpt lat="45.27015" lon="6.09718">
        <ele>1454</ele>
        <time>2021-12-23T14:00:23Z</time>
      </trkpt>
      <trkpt lat="45.27017" lon="6.09714">
        <ele>1453</ele>
        <time>2021-12-23T14:00:24Z</time>
      </trkpt>
      <trkpt lat="45.2702" lon="6.0971">
        <ele>1452</ele>
        <time>2021-12-23T14:00:25Z</time>
      </trkpt>
      <trkpt lat="45.27026" lon="6.09699">
        <ele>1451</ele>
        <time>2021-12-23T14:00:26Z</time>
      </trkpt>
      <trkpt lat="45.27028" lon="6.09696">
        <ele>1450</ele>
        <time>2021-12-23T14:00:27Z</time>
      </trkpt>
      <trkpt lat="45.27033" lon="6.09682">
        <ele>1449</ele>
        <time>2021-12-23T14:00:28Z</time>
      </trkpt>
      <trkpt lat="45.27032" lon="6.09675">
        <ele>1449</ele>
        <time>2021-12-23T14:00:29Z</time>
      </trkpt>
      <trkpt lat="45.27032" lon="6.09668">
        <ele>1449</ele>
        <time>2021-12-23T14:00:30Z</time>
      </trkpt>
      <trkpt lat="45.27034" lon="6.09665">
        <ele>1448</ele>
        <time>2021-12-23T14:00:31Z</time>
      </trkpt>
      <trkpt lat="45.27035" lon="6.09662">
        <ele>1448</ele>
        <time>2021-12-23T14:00:32Z</time>
      </trkpt>
      <trkpt lat="45.27037" lon="6.09659">
        <ele>1448</ele>
        <time>2021-12-23T14:00:33Z</time>
      </trkpt>
      <trkpt lat="45.27039" lon="6.09655">
        <ele>1448</ele>
        <time>2021-12-23T14:00:34Z</time>
      </trkpt>
      <trkpt lat="45.27047" lon="6.09641">
        <ele>1448</ele>
        <time>2021-12-23T14:00:35Z</time>
      </trkpt>
      <trkpt lat="45.27048" lon="6.09639">
        <ele>1448</ele>
        <time>2021-12-23T14:00:36Z</time>
      </trkpt>
      <trkpt lat="45.2705" lon="6.09637">
        <ele>1447</ele>
        <time>2021-12-23T14:00:37Z</time>
      </trkpt>
      <trkpt lat="45.27052" lon="6.09636">
        <ele>1447</ele>
        <time>2021-12-23T14:00:38Z</time>
      </trkpt>
      <trkpt lat="45.27053" lon="6.09634">
        <ele>1447</ele>
        <time>2021-12-23T14:00:39Z</time>
      </trkpt>
      <trkpt lat="45.27054" lon="6.09633">
        <ele>1447</ele>
        <time>2021-12-23T14:00:40Z</time>
      </trkpt>
      <trkpt lat="45.27055" lon="6.09632">
        <ele>1447</ele>
        <time>2021-12-23T14:00:41Z</time>
      </trkpt>
      <trkpt lat="45.27055" lon="6.0963">
        <ele>1446</ele>
        <time>2021-12-23T14:00:42Z</time>
      </trkpt>
      <trkpt lat="45.27056" lon="6.09629">
        <ele>1446</ele>
        <time>2021-12-23T14:00:43Z</time>
      </trkpt>
      <trkpt lat="45.27057" lon="6.09627">
        <ele>1445</ele>
        <time>2021-12-23T14:00:44Z</time>
      </trkpt>
      <trkpt lat="45.27057" lon="6.09626">
        <ele>1446</ele>
        <time>2021-12-23T14:00:45Z</time>
      </trkpt>
      <trkpt lat="45.27058" lon="6.09625">
        <ele>1447</ele>
        <time>2021-12-23T14:00:46Z</time>
      </trkpt>
      <trkpt lat="45.27064" lon="6.09615">
        <ele>1447</ele>
        <time>2021-12-23T14:00:47Z</time>
      </trkpt>
      <trkpt lat="45.27065" lon="6.09614">
        <ele>1447</ele>
        <time>2021-12-23T14:00:48Z</time>
      </trkpt>
      <trkpt lat="45.27067" lon="6.09613">
        <ele>1447</ele>
        <time>2021-12-23T14:00:50Z</time>
      </trkpt>
      <trkpt lat="45.27068" lon="6.09613">
        <ele>1447</ele>
        <time>2021-12-23T14:00:51Z</time>
      </trkpt>
      <trkpt lat="45.2707" lon="6.09612">
        <ele>1447</ele>
        <time>2021-12-23T14:00:52Z</time>
      </trkpt>
      <trkpt lat="45.27072" lon="6.09612">
        <ele>1447</ele>
        <time>2021-12-23T14:00:53Z</time>
      </trkpt>
      <trkpt lat="45.27073" lon="6.09611">
        <ele>1446</ele>
        <time>2021-12-23T14:00:54Z</time>
      </trkpt>
      <trkpt lat="45.27075" lon="6.09608">
        <ele>1444</ele>
        <time>2021-12-23T14:00:55Z</time>
      </trkpt>
      <trkpt lat="45.27078" lon="6.09606">
        <ele>1443</ele>
        <time>2021-12-23T14:00:56Z</time>
      </trkpt>
      <trkpt lat="45.2708" lon="6.09603">
        <ele>1442</ele>
        <time>2021-12-23T14:00:57Z</time>
      </trkpt>
      <trkpt lat="45.27082" lon="6.096">
        <ele>1441</ele>
        <time>2021-12-23T14:00:58Z</time>
      </trkpt>
      <trkpt lat="45.27093" lon="6.09587">
        <ele>1440</ele>
        <time>2021-12-23T14:00:59Z</time>
      </trkpt>
      <trkpt lat="45.27093" lon="6.09585">
        <ele>1440</ele>
        <time>2021-12-23T14:01:00Z</time>
      </trkpt>
      <trkpt lat="45.27094" lon="6.09583">
        <ele>1439</ele>
        <time>2021-12-23T14:01:01Z</time>
      </trkpt>
      <trkpt lat="45.27095" lon="6.09581">
        <ele>1439</ele>
        <time>2021-12-23T14:01:02Z</time>
      </trkpt>
      <trkpt lat="45.271" lon="6.09569">
        <ele>1439</ele>
        <time>2021-12-23T14:01:03Z</time>
      </trkpt>
      <trkpt lat="45.27102" lon="6.09563">
        <ele>1439</ele>
        <time>2021-12-23T14:01:04Z</time>
      </trkpt>
      <trkpt lat="45.27104" lon="6.09557">
        <ele>1439</ele>
        <time>2021-12-23T14:01:05Z</time>
      </trkpt>
      <trkpt lat="45.27105" lon="6.09552">
        <ele>1438</ele>
        <time>2021-12-23T14:01:06Z</time>
      </trkpt>
      <trkpt lat="45.27108" lon="6.09542">
        <ele>1437</ele>
        <time>2021-12-23T14:01:07Z</time>
      </trkpt>
      <trkpt lat="45.27116" lon="6.09533">
        <ele>1433</ele>
        <time>2021-12-23T14:01:09Z</time>
      </trkpt>
      <trkpt lat="45.27121" lon="6.09528">
        <ele>1432</ele>
        <time>2021-12-23T14:01:10Z</time>
      </trkpt>
      <trkpt lat="45.27127" lon="6.09524">
        <ele>1430</ele>
        <time>2021-12-23T14:01:11Z</time>
      </trkpt>
      <trkpt lat="45.27132" lon="6.09519">
        <ele>1429</ele>
        <time>2021-12-23T14:01:12Z</time>
      </trkpt>
      <trkpt lat="45.27137" lon="6.09515">
        <ele>1429</ele>
        <time>2021-12-23T14:01:13Z</time>
      </trkpt>
      <trkpt lat="45.27142" lon="6.0951">
        <ele>1426</ele>
        <time>2021-12-23T14:01:14Z</time>
      </trkpt>
      <trkpt lat="45.27143" lon="6.09502">
        <ele>1425</ele>
        <time>2021-12-23T14:01:15Z</time>
      </trkpt>
      <trkpt lat="45.27145" lon="6.09494">
        <ele>1423</ele>
        <time>2021-12-23T14:01:16Z</time>
      </trkpt>
      <trkpt lat="45.27146" lon="6.09486">
        <ele>1422</ele>
        <time>2021-12-23T14:01:17Z</time>
      </trkpt>
      <trkpt lat="45.27148" lon="6.09478">
        <ele>1419</ele>
        <time>2021-12-23T14:01:18Z</time>
      </trkpt>
      <trkpt lat="45.27149" lon="6.0947">
        <ele>1419</ele>
        <time>2021-12-23T14:01:19Z</time>
      </trkpt>
      <trkpt lat="45.27151" lon="6.09462">
        <ele>1419</ele>
        <time>2021-12-23T14:01:20Z</time>
      </trkpt>
      <trkpt lat="45.27151" lon="6.09464">
        <ele>1419</ele>
        <time>2021-12-23T14:01:21Z</time>
      </trkpt>
      <trkpt lat="45.27152" lon="6.09466">
        <ele>1419</ele>
        <time>2021-12-23T14:01:22Z</time>
      </trkpt>
      <trkpt lat="45.27152" lon="6.09468">
        <ele>1420</ele>
        <time>2021-12-23T14:01:23Z</time>
      </trkpt>
      <trkpt lat="45.27153" lon="6.0947">
        <ele>1420</ele>
        <time>2021-12-23T14:01:24Z</time>
      </trkpt>
      <trkpt lat="45.27153" lon="6.09472">
        <ele>1420</ele>
        <time>2021-12-23T14:01:25Z</time>
      </trkpt>
      <trkpt lat="45.27154" lon="6.09474">
        <ele>1420</ele>
        <time>2021-12-23T14:01:26Z</time>
      </trkpt>
      <trkpt lat="45.27154" lon="6.09474">
        <ele>1420</ele>
        <time>2021-12-23T14:01:28Z</time>
      </trkpt>
      <trkpt lat="45.27154" lon="6.09474">
        <ele>1420</ele>
        <time>2021-12-23T14:01:29Z</time>
      </trkpt>
      <trkpt lat="45.27154" lon="6.09474">
        <ele>1420</ele>
        <time>2021-12-23T14:01:30Z</time>
      </trkpt>
      <trkpt lat="45.27154" lon="6.09474">
        <ele>1420</ele>
        <time>2021-12-23T14:01:31Z</time>
      </trkpt>
      <trkpt lat="45.27155" lon="6.09474">
        <ele>1420</ele>
        <time>2021-12-23T14:01:32Z</time>
      </trkpt>
      <trkpt lat="45.27155" lon="6.09473">
        <ele>1420</ele>
        <time>2021-12-23T14:01:33Z</time>
      </trkpt>
      <trkpt lat="45.27155" lon="6.09473">
        <ele>1420</ele>
        <time>2021-12-23T14:01:34Z</time>
      </trkpt>
      <trkpt lat="45.27155" lon="6.09473">
        <ele>1420</ele>
        <time>2021-12-23T14:01:35Z</time>
      </trkpt>
      <trkpt lat="45.27155" lon="6.09473">
        <ele>1420</ele>
        <time>2021-12-23T14:01:36Z</time>
      </trkpt>
      <trkpt lat="45.27155" lon="6.09473">
        <ele>1420</ele>
        <time>2021-12-23T14:01:37Z</time>
      </trkpt>
      <trkpt lat="45.27155" lon="6.09472">
        <ele>1420</ele>
        <time>2021-12-23T14:01:38Z</time>
      </trkpt>
      <trkpt lat="45.27156" lon="6.09472">
        <ele>1420</ele>
        <time>2021-12-23T14:01:39Z</time>
      </trkpt>
      <trkpt lat="45.27156" lon="6.09472">
        <ele>1420</ele>
        <time>2021-12-23T14:01:40Z</time>
      </trkpt>
      <trkpt lat="45.27156" lon="6.09472">
        <ele>1420</ele>
        <time>2021-12-23T14:01:41Z</time>
      </trkpt>
      <trkpt lat="45.27156" lon="6.09472">
        <ele>1420</ele>
        <time>2021-12-23T14:01:42Z</time>
      </trkpt>
      <trkpt lat="45.27156" lon="6.09472">
        <ele>1420</ele>
        <time>2021-12-23T14:01:43Z</time>
      </trkpt>
      <trkpt lat="45.27156" lon="6.09471">
        <ele>1420</ele>
        <time>2021-12-23T14:01:44Z</time>
      </trkpt>
      <trkpt lat="45.27157" lon="6.09471">
        <ele>1420</ele>
        <time>2021-12-23T14:01:45Z</time>
      </trkpt>
      <trkpt lat="45.27157" lon="6.09471">
        <ele>1420</ele>
        <time>2021-12-23T14:01:47Z</time>
      </trkpt>
      <trkpt lat="45.27157" lon="6.09471">
        <ele>1420</ele>
        <time>2021-12-23T14:01:48Z</time>
      </trkpt>
      <trkpt lat="45.27157" lon="6.09471">
        <ele>1420</ele>
        <time>2021-12-23T14:01:49Z</time>
      </trkpt>
      <trkpt lat="45.27157" lon="6.0947">
        <ele>1420</ele>
        <time>2021-12-23T14:01:50Z</time>
      </trkpt>
      <trkpt lat="45.27157" lon="6.0947">
        <ele>1420</ele>
        <time>2021-12-23T14:01:51Z</time>
      </trkpt>
      <trkpt lat="45.27157" lon="6.0947">
        <ele>1421</ele>
        <time>2021-12-23T14:01:52Z</time>
      </trkpt>
      <trkpt lat="45.27158" lon="6.0947">
        <ele>1421</ele>
        <time>2021-12-23T14:01:53Z</time>
      </trkpt>
      <trkpt lat="45.27158" lon="6.0947">
        <ele>1421</ele>
        <time>2021-12-23T14:01:54Z</time>
      </trkpt>
      <trkpt lat="45.27158" lon="6.0947">
        <ele>1420</ele>
        <time>2021-12-23T14:01:55Z</time>
      </trkpt>
      <trkpt lat="45.27162" lon="6.09464">
        <ele>1420</ele>
        <time>2021-12-23T14:01:56Z</time>
      </trkpt>
      <trkpt lat="45.27163" lon="6.09464">
        <ele>1420</ele>
        <time>2021-12-23T14:01:57Z</time>
      </trkpt>
      <trkpt lat="45.27163" lon="6.09464">
        <ele>1420</ele>
        <time>2021-12-23T14:01:58Z</time>
      </trkpt>
      <trkpt lat="45.27163" lon="6.09463">
        <ele>1419</ele>
        <time>2021-12-23T14:01:59Z</time>
      </trkpt>
      <trkpt lat="45.27164" lon="6.09463">
        <ele>1419</ele>
        <time>2021-12-23T14:02:00Z</time>
      </trkpt>
      <trkpt lat="45.27164" lon="6.09463">
        <ele>1419</ele>
        <time>2021-12-23T14:02:01Z</time>
      </trkpt>
      <trkpt lat="45.27164" lon="6.09463">
        <ele>1419</ele>
        <time>2021-12-23T14:02:02Z</time>
      </trkpt>
      <trkpt lat="45.27164" lon="6.09462">
        <ele>1419</ele>
        <time>2021-12-23T14:02:03Z</time>
      </trkpt>
      <trkpt lat="45.27165" lon="6.09462">
        <ele>1419</ele>
        <time>2021-12-23T14:02:04Z</time>
      </trkpt>
      <trkpt lat="45.27165" lon="6.09462">
        <ele>1419</ele>
        <time>2021-12-23T14:02:06Z</time>
      </trkpt>
      <trkpt lat="45.27165" lon="6.09461">
        <ele>1419</ele>
        <time>2021-12-23T14:02:07Z</time>
      </trkpt>
      <trkpt lat="45.27166" lon="6.09461">
        <ele>1419</ele>
        <time>2021-12-23T14:02:08Z</time>
      </trkpt>
      <trkpt lat="45.27166" lon="6.09461">
        <ele>1419</ele>
        <time>2021-12-23T14:02:09Z</time>
      </trkpt>
      <trkpt lat="45.27166" lon="6.09461">
        <ele>1419</ele>
        <time>2021-12-23T14:02:10Z</time>
      </trkpt>
      <trkpt lat="45.27166" lon="6.0946">
        <ele>1419</ele>
        <time>2021-12-23T14:02:11Z</time>
      </trkpt>
      <trkpt lat="45.27169" lon="6.09451">
        <ele>1418</ele>
        <time>2021-12-23T14:02:12Z</time>
      </trkpt>
      <trkpt lat="45.27167" lon="6.09445">
        <ele>1418</ele>
        <time>2021-12-23T14:02:13Z</time>
      </trkpt>
      <trkpt lat="45.27165" lon="6.0944">
        <ele>1418</ele>
        <time>2021-12-23T14:02:14Z</time>
      </trkpt>
      <trkpt lat="45.27164" lon="6.09435">
        <ele>1418</ele>
        <time>2021-12-23T14:02:15Z</time>
      </trkpt>
      <trkpt lat="45.27162" lon="6.09429">
        <ele>1418</ele>
        <time>2021-12-23T14:02:16Z</time>
      </trkpt>
      <trkpt lat="45.2716" lon="6.09424">
        <ele>1418</ele>
        <time>2021-12-23T14:02:17Z</time>
      </trkpt>
      <trkpt lat="45.27159" lon="6.09419">
        <ele>1417</ele>
        <time>2021-12-23T14:02:19Z</time>
      </trkpt>
      <trkpt lat="45.2716" lon="6.09417">
        <ele>1417</ele>
        <time>2021-12-23T14:02:20Z</time>
      </trkpt>
      <trkpt lat="45.27161" lon="6.09415">
        <ele>1416</ele>
        <time>2021-12-23T14:02:21Z</time>
      </trkpt>
      <trkpt lat="45.27162" lon="6.09413">
        <ele>1416</ele>
        <time>2021-12-23T14:02:22Z</time>
      </trkpt>
      <trkpt lat="45.27164" lon="6.09411">
        <ele>1416</ele>
        <time>2021-12-23T14:02:23Z</time>
      </trkpt>
      <trkpt lat="45.27174" lon="6.09396">
        <ele>1414</ele>
        <time>2021-12-23T14:02:25Z</time>
      </trkpt>
      <trkpt lat="45.27175" lon="6.09393">
        <ele>1413</ele>
        <time>2021-12-23T14:02:26Z</time>
      </trkpt>
      <trkpt lat="45.27177" lon="6.0939">
        <ele>1412</ele>
        <time>2021-12-23T14:02:27Z</time>
      </trkpt>
      <trkpt lat="45.27182" lon="6.0938">
        <ele>1412</ele>
        <time>2021-12-23T14:02:28Z</time>
      </trkpt>
      <trkpt lat="45.27183" lon="6.09376">
        <ele>1412</ele>
        <time>2021-12-23T14:02:29Z</time>
      </trkpt>
      <trkpt lat="45.27184" lon="6.09371">
        <ele>1412</ele>
        <time>2021-12-23T14:02:30Z</time>
      </trkpt>
      <trkpt lat="45.27187" lon="6.09356">
        <ele>1411</ele>
        <time>2021-12-23T14:02:31Z</time>
      </trkpt>
      <trkpt lat="45.27189" lon="6.09351">
        <ele>1410</ele>
        <time>2021-12-23T14:02:32Z</time>
      </trkpt>
      <trkpt lat="45.27191" lon="6.09345">
        <ele>1410</ele>
        <time>2021-12-23T14:02:33Z</time>
      </trkpt>
      <trkpt lat="45.27189" lon="6.09343">
        <ele>1410</ele>
        <time>2021-12-23T14:02:34Z</time>
      </trkpt>
      <trkpt lat="45.27186" lon="6.09341">
        <ele>1410</ele>
        <time>2021-12-23T14:02:35Z</time>
      </trkpt>
      <trkpt lat="45.27183" lon="6.09339">
        <ele>1410</ele>
        <time>2021-12-23T14:02:36Z</time>
      </trkpt>
      <trkpt lat="45.2718" lon="6.09337">
        <ele>1410</ele>
        <time>2021-12-23T14:02:37Z</time>
      </trkpt>
      <trkpt lat="45.27178" lon="6.09335">
        <ele>1410</ele>
        <time>2021-12-23T14:02:38Z</time>
      </trkpt>
      <trkpt lat="45.27178" lon="6.09333">
        <ele>1411</ele>
        <time>2021-12-23T14:02:39Z</time>
      </trkpt>
      <trkpt lat="45.27177" lon="6.0933">
        <ele>1411</ele>
        <time>2021-12-23T14:02:40Z</time>
      </trkpt>
      <trkpt lat="45.27177" lon="6.09328">
        <ele>1411</ele>
        <time>2021-12-23T14:02:41Z</time>
      </trkpt>
      <trkpt lat="45.27177" lon="6.09326">
        <ele>1411</ele>
        <time>2021-12-23T14:02:42Z</time>
      </trkpt>
      <trkpt lat="45.27177" lon="6.09324">
        <ele>1411</ele>
        <time>2021-12-23T14:02:43Z</time>
      </trkpt>
      <trkpt lat="45.27177" lon="6.09322">
        <ele>1408</ele>
        <time>2021-12-23T14:02:44Z</time>
      </trkpt>
      <trkpt lat="45.27178" lon="6.09319">
        <ele>1408</ele>
        <time>2021-12-23T14:02:45Z</time>
      </trkpt>
      <trkpt lat="45.2718" lon="6.09317">
        <ele>1406</ele>
        <time>2021-12-23T14:02:46Z</time>
      </trkpt>
      <trkpt lat="45.27181" lon="6.09315">
        <ele>1405</ele>
        <time>2021-12-23T14:02:47Z</time>
      </trkpt>
      <trkpt lat="45.27182" lon="6.09313">
        <ele>1405</ele>
        <time>2021-12-23T14:02:48Z</time>
      </trkpt>
      <trkpt lat="45.27185" lon="6.09305">
        <ele>1404</ele>
        <time>2021-12-23T14:02:49Z</time>
      </trkpt>
      <trkpt lat="45.27184" lon="6.09306">
        <ele>1404</ele>
        <time>2021-12-23T14:02:50Z</time>
      </trkpt>
      <trkpt lat="45.27183" lon="6.09307">
        <ele>1404</ele>
        <time>2021-12-23T14:02:51Z</time>
      </trkpt>
      <trkpt lat="45.27181" lon="6.09308">
        <ele>1404</ele>
        <time>2021-12-23T14:02:52Z</time>
      </trkpt>
      <trkpt lat="45.2718" lon="6.09309">
        <ele>1404</ele>
        <time>2021-12-23T14:02:53Z</time>
      </trkpt>
      <trkpt lat="45.27178" lon="6.09309">
        <ele>1405</ele>
        <time>2021-12-23T14:02:54Z</time>
      </trkpt>
      <trkpt lat="45.27178" lon="6.09309">
        <ele>1405</ele>
        <time>2021-12-23T14:02:55Z</time>
      </trkpt>
      <trkpt lat="45.27178" lon="6.09309">
        <ele>1404</ele>
        <time>2021-12-23T14:02:56Z</time>
      </trkpt>
      <trkpt lat="45.27178" lon="6.09308">
        <ele>1403</ele>
        <time>2021-12-23T14:02:57Z</time>
      </trkpt>
      <trkpt lat="45.27177" lon="6.09308">
        <ele>1401</ele>
        <time>2021-12-23T14:02:58Z</time>
      </trkpt>
      <trkpt lat="45.27177" lon="6.09307">
        <ele>1397</ele>
        <time>2021-12-23T14:02:59Z</time>
      </trkpt>
      <trkpt lat="45.27177" lon="6.09307">
        <ele>1396</ele>
        <time>2021-12-23T14:03:00Z</time>
      </trkpt>
      <trkpt lat="45.27177" lon="6.09307">
        <ele>1395</ele>
        <time>2021-12-23T14:03:01Z</time>
      </trkpt>
      <trkpt lat="45.27176" lon="6.09306">
        <ele>1394</ele>
        <time>2021-12-23T14:03:03Z</time>
      </trkpt>
      <trkpt lat="45.27176" lon="6.09306">
        <ele>1394</ele>
        <time>2021-12-23T14:03:04Z</time>
      </trkpt>
      <trkpt lat="45.27176" lon="6.09305">
        <ele>1394</ele>
        <time>2021-12-23T14:03:05Z</time>
      </trkpt>
      <trkpt lat="45.27173" lon="6.09301">
        <ele>1394</ele>
        <time>2021-12-23T14:03:06Z</time>
      </trkpt>
      <trkpt lat="45.27173" lon="6.09301">
        <ele>1394</ele>
        <time>2021-12-23T14:03:07Z</time>
      </trkpt>
      <trkpt lat="45.27172" lon="6.093">
        <ele>1394</ele>
        <time>2021-12-23T14:03:08Z</time>
      </trkpt>
      <trkpt lat="45.27172" lon="6.093">
        <ele>1394</ele>
        <time>2021-12-23T14:03:09Z</time>
      </trkpt>
      <trkpt lat="45.27172" lon="6.093">
        <ele>1394</ele>
        <time>2021-12-23T14:03:10Z</time>
      </trkpt>
      <trkpt lat="45.27171" lon="6.09299">
        <ele>1394</ele>
        <time>2021-12-23T14:03:11Z</time>
      </trkpt>
      <trkpt lat="45.27171" lon="6.09299">
        <ele>1394</ele>
        <time>2021-12-23T14:03:12Z</time>
      </trkpt>
      <trkpt lat="45.27171" lon="6.09299">
        <ele>1394</ele>
        <time>2021-12-23T14:03:13Z</time>
      </trkpt>
      <trkpt lat="45.2717" lon="6.09299">
        <ele>1394</ele>
        <time>2021-12-23T14:03:14Z</time>
      </trkpt>
      <trkpt lat="45.2717" lon="6.09298">
        <ele>1394</ele>
        <time>2021-12-23T14:03:15Z</time>
      </trkpt>
      <trkpt lat="45.2717" lon="6.09298">
        <ele>1393</ele>
        <time>2021-12-23T14:03:16Z</time>
      </trkpt>
      <trkpt lat="45.27169" lon="6.09298">
        <ele>1393</ele>
        <time>2021-12-23T14:03:17Z</time>
      </trkpt>
      <trkpt lat="45.27169" lon="6.09297">
        <ele>1393</ele>
        <time>2021-12-23T14:03:18Z</time>
      </trkpt>
      <trkpt lat="45.27169" lon="6.09297">
        <ele>1393</ele>
        <time>2021-12-23T14:03:20Z</time>
      </trkpt>
      <trkpt lat="45.27168" lon="6.09297">
        <ele>1393</ele>
        <time>2021-12-23T14:03:22Z</time>
      </trkpt>
      <trkpt lat="45.27168" lon="6.09296">
        <ele>1393</ele>
        <time>2021-12-23T14:03:23Z</time>
      </trkpt>
      <trkpt lat="45.27167" lon="6.09296">
        <ele>1393</ele>
        <time>2021-12-23T14:03:24Z</time>
      </trkpt>
      <trkpt lat="45.27167" lon="6.09296">
        <ele>1393</ele>
        <time>2021-12-23T14:03:25Z</time>
      </trkpt>
      <trkpt lat="45.27167" lon="6.09295">
        <ele>1393</ele>
        <time>2021-12-23T14:03:26Z</time>
      </trkpt>
      <trkpt lat="45.27166" lon="6.09295">
        <ele>1393</ele>
        <time>2021-12-23T14:03:27Z</time>
      </trkpt>
      <trkpt lat="45.27166" lon="6.09295">
        <ele>1393</ele>
        <time>2021-12-23T14:03:28Z</time>
      </trkpt>
      <trkpt lat="45.27166" lon="6.09295">
        <ele>1393</ele>
        <time>2021-12-23T14:03:29Z</time>
      </trkpt>
      <trkpt lat="45.27165" lon="6.09294">
        <ele>1393</ele>
        <time>2021-12-23T14:03:30Z</time>
      </trkpt>
      <trkpt lat="45.27165" lon="6.09294">
        <ele>1393</ele>
        <time>2021-12-23T14:03:31Z</time>
      </trkpt>
      <trkpt lat="45.27165" lon="6.09294">
        <ele>1393</ele>
        <time>2021-12-23T14:03:32Z</time>
      </trkpt>
      <trkpt lat="45.27164" lon="6.09293">
        <ele>1393</ele>
        <time>2021-12-23T14:03:33Z</time>
      </trkpt>
      <trkpt lat="45.27164" lon="6.09293">
        <ele>1393</ele>
        <time>2021-12-23T14:03:34Z</time>
      </trkpt>
      <trkpt lat="45.27163" lon="6.09293">
        <ele>1393</ele>
        <time>2021-12-23T14:03:35Z</time>
      </trkpt>
      <trkpt lat="45.27163" lon="6.09292">
        <ele>1393</ele>
        <time>2021-12-23T14:03:36Z</time>
      </trkpt>
      <trkpt lat="45.27163" lon="6.09292">
        <ele>1393</ele>
        <time>2021-12-23T14:03:37Z</time>
      </trkpt>
      <trkpt lat="45.27162" lon="6.09292">
        <ele>1393</ele>
        <time>2021-12-23T14:03:38Z</time>
      </trkpt>
      <trkpt lat="45.27161" lon="6.0929">
        <ele>1393</ele>
        <time>2021-12-23T14:03:39Z</time>
      </trkpt>
      <trkpt lat="45.27161" lon="6.09287">
        <ele>1393</ele>
        <time>2021-12-23T14:03:41Z</time>
      </trkpt>
      <trkpt lat="45.2716" lon="6.09285">
        <ele>1393</ele>
        <time>2021-12-23T14:03:42Z</time>
      </trkpt>
      <trkpt lat="45.27159" lon="6.09283">
        <ele>1392</ele>
        <time>2021-12-23T14:03:43Z</time>
      </trkpt>
      <trkpt lat="45.27158" lon="6.09281">
        <ele>1391</ele>
        <time>2021-12-23T14:03:44Z</time>
      </trkpt>
      <trkpt lat="45.2716" lon="6.09278">
        <ele>1391</ele>
        <time>2021-12-23T14:03:45Z</time>
      </trkpt>
      <trkpt lat="45.27161" lon="6.09274">
        <ele>1391</ele>
        <time>2021-12-23T14:03:46Z</time>
      </trkpt>
      <trkpt lat="45.27163" lon="6.09271">
        <ele>1391</ele>
        <time>2021-12-23T14:03:47Z</time>
      </trkpt>
      <trkpt lat="45.27163" lon="6.09267">
        <ele>1391</ele>
        <time>2021-12-23T14:03:48Z</time>
      </trkpt>
      <trkpt lat="45.27163" lon="6.09264">
        <ele>1390</ele>
        <time>2021-12-23T14:03:49Z</time>
      </trkpt>
      <trkpt lat="45.27163" lon="6.09261">
        <ele>1389</ele>
        <time>2021-12-23T14:03:50Z</time>
      </trkpt>
      <trkpt lat="45.27164" lon="6.09257">
        <ele>1388</ele>
        <time>2021-12-23T14:03:51Z</time>
      </trkpt>
      <trkpt lat="45.27166" lon="6.09243">
        <ele>1387</ele>
        <time>2021-12-23T14:03:52Z</time>
      </trkpt>
      <trkpt lat="45.27167" lon="6.09241">
        <ele>1386</ele>
        <time>2021-12-23T14:03:53Z</time>
      </trkpt>
      <trkpt lat="45.27169" lon="6.0924">
        <ele>1386</ele>
        <time>2021-12-23T14:03:54Z</time>
      </trkpt>
      <trkpt lat="45.27175" lon="6.09235">
        <ele>1386</ele>
        <time>2021-12-23T14:03:55Z</time>
      </trkpt>
      <trkpt lat="45.27175" lon="6.09233">
        <ele>1386</ele>
        <time>2021-12-23T14:03:56Z</time>
      </trkpt>
      <trkpt lat="45.27176" lon="6.09231">
        <ele>1386</ele>
        <time>2021-12-23T14:03:57Z</time>
      </trkpt>
      <trkpt lat="45.27177" lon="6.09229">
        <ele>1386</ele>
        <time>2021-12-23T14:03:58Z</time>
      </trkpt>
      <trkpt lat="45.27177" lon="6.09227">
        <ele>1386</ele>
        <time>2021-12-23T14:04:00Z</time>
      </trkpt>
      <trkpt lat="45.27178" lon="6.09225">
        <ele>1386</ele>
        <time>2021-12-23T14:04:01Z</time>
      </trkpt>
      <trkpt lat="45.27179" lon="6.09223">
        <ele>1386</ele>
        <time>2021-12-23T14:04:02Z</time>
      </trkpt>
      <trkpt lat="45.27179" lon="6.09222">
        <ele>1383</ele>
        <time>2021-12-23T14:04:03Z</time>
      </trkpt>
      <trkpt lat="45.27183" lon="6.09216">
        <ele>1383</ele>
        <time>2021-12-23T14:04:04Z</time>
      </trkpt>
      <trkpt lat="45.27186" lon="6.0921">
        <ele>1383</ele>
        <time>2021-12-23T14:04:05Z</time>
      </trkpt>
      <trkpt lat="45.27189" lon="6.09204">
        <ele>1382</ele>
        <time>2021-12-23T14:04:06Z</time>
      </trkpt>
      <trkpt lat="45.2719" lon="6.09202">
        <ele>1382</ele>
        <time>2021-12-23T14:04:07Z</time>
      </trkpt>
      <trkpt lat="45.2719" lon="6.092">
        <ele>1381</ele>
        <time>2021-12-23T14:04:08Z</time>
      </trkpt>
      <trkpt lat="45.27191" lon="6.09197">
        <ele>1380</ele>
        <time>2021-12-23T14:04:09Z</time>
      </trkpt>
      <trkpt lat="45.27192" lon="6.09195">
        <ele>1380</ele>
        <time>2021-12-23T14:04:10Z</time>
      </trkpt>
      <trkpt lat="45.27192" lon="6.09193">
        <ele>1379</ele>
        <time>2021-12-23T14:04:11Z</time>
      </trkpt>
      <trkpt lat="45.27193" lon="6.09191">
        <ele>1378</ele>
        <time>2021-12-23T14:04:12Z</time>
      </trkpt>
      <trkpt lat="45.27197" lon="6.09172">
        <ele>1377</ele>
        <time>2021-12-23T14:04:13Z</time>
      </trkpt>
      <trkpt lat="45.27197" lon="6.09165">
        <ele>1377</ele>
        <time>2021-12-23T14:04:14Z</time>
      </trkpt>
      <trkpt lat="45.27197" lon="6.09159">
        <ele>1377</ele>
        <time>2021-12-23T14:04:15Z</time>
      </trkpt>
      <trkpt lat="45.27198" lon="6.09153">
        <ele>1377</ele>
        <time>2021-12-23T14:04:16Z</time>
      </trkpt>
      <trkpt lat="45.27198" lon="6.09146">
        <ele>1376</ele>
        <time>2021-12-23T14:04:17Z</time>
      </trkpt>
      <trkpt lat="45.27199" lon="6.09138">
        <ele>1376</ele>
        <time>2021-12-23T14:04:18Z</time>
      </trkpt>
      <trkpt lat="45.27199" lon="6.09138">
        <ele>1373</ele>
        <time>2021-12-23T14:04:19Z</time>
      </trkpt>
      <trkpt lat="45.27202" lon="6.09132">
        <ele>1373</ele>
        <time>2021-12-23T14:04:20Z</time>
      </trkpt>
      <trkpt lat="45.27205" lon="6.09126">
        <ele>1372</ele>
        <time>2021-12-23T14:04:21Z</time>
      </trkpt>
      <trkpt lat="45.27207" lon="6.09119">
        <ele>1371</ele>
        <time>2021-12-23T14:04:22Z</time>
      </trkpt>
      <trkpt lat="45.27208" lon="6.09116">
        <ele>1369</ele>
        <time>2021-12-23T14:04:23Z</time>
      </trkpt>
      <trkpt lat="45.2721" lon="6.09113">
        <ele>1369</ele>
        <time>2021-12-23T14:04:24Z</time>
      </trkpt>
      <trkpt lat="45.27211" lon="6.09109">
        <ele>1369</ele>
        <time>2021-12-23T14:04:25Z</time>
      </trkpt>
      <trkpt lat="45.27212" lon="6.09106">
        <ele>1369</ele>
        <time>2021-12-23T14:04:26Z</time>
      </trkpt>
      <trkpt lat="45.27213" lon="6.09103">
        <ele>1369</ele>
        <time>2021-12-23T14:04:27Z</time>
      </trkpt>
      <trkpt lat="45.27214" lon="6.09099">
        <ele>1369</ele>
        <time>2021-12-23T14:04:28Z</time>
      </trkpt>
      <trkpt lat="45.27215" lon="6.09096">
        <ele>1369</ele>
        <time>2021-12-23T14:04:29Z</time>
      </trkpt>
      <trkpt lat="45.27214" lon="6.09095">
        <ele>1369</ele>
        <time>2021-12-23T14:04:30Z</time>
      </trkpt>
      <trkpt lat="45.27214" lon="6.09095">
        <ele>1368</ele>
        <time>2021-12-23T14:04:31Z</time>
      </trkpt>
      <trkpt lat="45.27213" lon="6.09094">
        <ele>1367</ele>
        <time>2021-12-23T14:04:32Z</time>
      </trkpt>
      <trkpt lat="45.27212" lon="6.09094">
        <ele>1367</ele>
        <time>2021-12-23T14:04:33Z</time>
      </trkpt>
      <trkpt lat="45.27212" lon="6.09094">
        <ele>1366</ele>
        <time>2021-12-23T14:04:34Z</time>
      </trkpt>
      <trkpt lat="45.27211" lon="6.09093">
        <ele>1366</ele>
        <time>2021-12-23T14:04:35Z</time>
      </trkpt>
      <trkpt lat="45.2721" lon="6.09093">
        <ele>1366</ele>
        <time>2021-12-23T14:04:36Z</time>
      </trkpt>
      <trkpt lat="45.27209" lon="6.09092">
        <ele>1367</ele>
        <time>2021-12-23T14:04:38Z</time>
      </trkpt>
      <trkpt lat="45.27209" lon="6.09092">
        <ele>1367</ele>
        <time>2021-12-23T14:04:39Z</time>
      </trkpt>
      <trkpt lat="45.27208" lon="6.09092">
        <ele>1367</ele>
        <time>2021-12-23T14:04:40Z</time>
      </trkpt>
      <trkpt lat="45.27207" lon="6.09091">
        <ele>1366</ele>
        <time>2021-12-23T14:04:41Z</time>
      </trkpt>
      <trkpt lat="45.272" lon="6.09087">
        <ele>1366</ele>
        <time>2021-12-23T14:04:42Z</time>
      </trkpt>
      <trkpt lat="45.27201" lon="6.09087">
        <ele>1366</ele>
        <time>2021-12-23T14:04:43Z</time>
      </trkpt>
      <trkpt lat="45.27202" lon="6.09087">
        <ele>1366</ele>
        <time>2021-12-23T14:04:44Z</time>
      </trkpt>
      <trkpt lat="45.27202" lon="6.09088">
        <ele>1366</ele>
        <time>2021-12-23T14:04:45Z</time>
      </trkpt>
      <trkpt lat="45.27203" lon="6.09088">
        <ele>1367</ele>
        <time>2021-12-23T14:04:46Z</time>
      </trkpt>
      <trkpt lat="45.27204" lon="6.09088">
        <ele>1367</ele>
        <time>2021-12-23T14:04:47Z</time>
      </trkpt>
      <trkpt lat="45.27204" lon="6.09088">
        <ele>1368</ele>
        <time>2021-12-23T14:04:48Z</time>
      </trkpt>
      <trkpt lat="45.27205" lon="6.09089">
        <ele>1368</ele>
        <time>2021-12-23T14:04:49Z</time>
      </trkpt>
      <trkpt lat="45.27211" lon="6.09086">
        <ele>1368</ele>
        <time>2021-12-23T14:04:50Z</time>
      </trkpt>
      <trkpt lat="45.27211" lon="6.09082">
        <ele>1368</ele>
        <time>2021-12-23T14:04:51Z</time>
      </trkpt>
      <trkpt lat="45.27212" lon="6.09077">
        <ele>1367</ele>
        <time>2021-12-23T14:04:52Z</time>
      </trkpt>
      <trkpt lat="45.27213" lon="6.09075">
        <ele>1366</ele>
        <time>2021-12-23T14:04:53Z</time>
      </trkpt>
      <trkpt lat="45.27215" lon="6.09074">
        <ele>1366</ele>
        <time>2021-12-23T14:04:54Z</time>
      </trkpt>
      <trkpt lat="45.27217" lon="6.09072">
        <ele>1366</ele>
        <time>2021-12-23T14:04:55Z</time>
      </trkpt>
      <trkpt lat="45.27218" lon="6.09071">
        <ele>1366</ele>
        <time>2021-12-23T14:04:56Z</time>
      </trkpt>
      <trkpt lat="45.2722" lon="6.09069">
        <ele>1366</ele>
        <time>2021-12-23T14:04:57Z</time>
      </trkpt>
      <trkpt lat="45.2722" lon="6.09068">
        <ele>1366</ele>
        <time>2021-12-23T14:04:58Z</time>
      </trkpt>
      <trkpt lat="45.2722" lon="6.09068">
        <ele>1366</ele>
        <time>2021-12-23T14:04:59Z</time>
      </trkpt>
      <trkpt lat="45.27221" lon="6.09067">
        <ele>1366</ele>
        <time>2021-12-23T14:05:00Z</time>
      </trkpt>
      <trkpt lat="45.27221" lon="6.09066">
        <ele>1366</ele>
        <time>2021-12-23T14:05:01Z</time>
      </trkpt>
      <trkpt lat="45.27221" lon="6.09065">
        <ele>1366</ele>
        <time>2021-12-23T14:05:02Z</time>
      </trkpt>
      <trkpt lat="45.27221" lon="6.09064">
        <ele>1366</ele>
        <time>2021-12-23T14:05:03Z</time>
      </trkpt>
      <trkpt lat="45.27221" lon="6.09063">
        <ele>1366</ele>
        <time>2021-12-23T14:05:04Z</time>
      </trkpt>
      <trkpt lat="45.27221" lon="6.09063">
        <ele>1366</ele>
        <time>2021-12-23T14:05:05Z</time>
      </trkpt>
      <trkpt lat="45.27222" lon="6.09062">
        <ele>1366</ele>
        <time>2021-12-23T14:05:06Z</time>
      </trkpt>
      <trkpt lat="45.27222" lon="6.09061">
        <ele>1366</ele>
        <time>2021-12-23T14:05:07Z</time>
      </trkpt>
      <trkpt lat="45.27222" lon="6.0906">
        <ele>1366</ele>
        <time>2021-12-23T14:05:08Z</time>
      </trkpt>
      <trkpt lat="45.27222" lon="6.09059">
        <ele>1366</ele>
        <time>2021-12-23T14:05:09Z</time>
      </trkpt>
      <trkpt lat="45.27222" lon="6.09059">
        <ele>1366</ele>
        <time>2021-12-23T14:05:10Z</time>
      </trkpt>
      <trkpt lat="45.27223" lon="6.09058">
        <ele>1366</ele>
        <time>2021-12-23T14:05:11Z</time>
      </trkpt>
      <trkpt lat="45.27223" lon="6.09057">
        <ele>1365</ele>
        <time>2021-12-23T14:05:12Z</time>
      </trkpt>
      <trkpt lat="45.27225" lon="6.09052">
        <ele>1364</ele>
        <time>2021-12-23T14:05:13Z</time>
      </trkpt>
      <trkpt lat="45.27227" lon="6.09047">
        <ele>1363</ele>
        <time>2021-12-23T14:05:14Z</time>
      </trkpt>
      <trkpt lat="45.27229" lon="6.09042">
        <ele>1363</ele>
        <time>2021-12-23T14:05:15Z</time>
      </trkpt>
      <trkpt lat="45.27231" lon="6.09036">
        <ele>1362</ele>
        <time>2021-12-23T14:05:16Z</time>
      </trkpt>
      <trkpt lat="45.27233" lon="6.09031">
        <ele>1362</ele>
        <time>2021-12-23T14:05:17Z</time>
      </trkpt>
      <trkpt lat="45.27233" lon="6.09028">
        <ele>1361</ele>
        <time>2021-12-23T14:05:18Z</time>
      </trkpt>
      <trkpt lat="45.27233" lon="6.09026">
        <ele>1361</ele>
        <time>2021-12-23T14:05:19Z</time>
      </trkpt>
      <trkpt lat="45.27233" lon="6.09024">
        <ele>1361</ele>
        <time>2021-12-23T14:05:20Z</time>
      </trkpt>
      <trkpt lat="45.27235" lon="6.09008">
        <ele>1361</ele>
        <time>2021-12-23T14:05:21Z</time>
      </trkpt>
      <trkpt lat="45.27235" lon="6.09">
        <ele>1361</ele>
        <time>2021-12-23T14:05:22Z</time>
      </trkpt>
      <trkpt lat="45.27236" lon="6.08992">
        <ele>1361</ele>
        <time>2021-12-23T14:05:23Z</time>
      </trkpt>
      <trkpt lat="45.27237" lon="6.08984">
        <ele>1358</ele>
        <time>2021-12-23T14:05:24Z</time>
      </trkpt>
      <trkpt lat="45.27241" lon="6.08976">
        <ele>1355</ele>
        <time>2021-12-23T14:05:25Z</time>
      </trkpt>
      <trkpt lat="45.27243" lon="6.08972">
        <ele>1354</ele>
        <time>2021-12-23T14:05:26Z</time>
      </trkpt>
      <trkpt lat="45.27245" lon="6.08969">
        <ele>1354</ele>
        <time>2021-12-23T14:05:27Z</time>
      </trkpt>
      <trkpt lat="45.27251" lon="6.08952">
        <ele>1353</ele>
        <time>2021-12-23T14:05:28Z</time>
      </trkpt>
      <trkpt lat="45.27253" lon="6.08943">
        <ele>1353</ele>
        <time>2021-12-23T14:05:29Z</time>
      </trkpt>
      <trkpt lat="45.27255" lon="6.08933">
        <ele>1351</ele>
        <time>2021-12-23T14:05:30Z</time>
      </trkpt>
      <trkpt lat="45.27259" lon="6.08922">
        <ele>1348</ele>
        <time>2021-12-23T14:05:31Z</time>
      </trkpt>
      <trkpt lat="45.27261" lon="6.08916">
        <ele>1347</ele>
        <time>2021-12-23T14:05:32Z</time>
      </trkpt>
      <trkpt lat="45.27263" lon="6.0891">
        <ele>1347</ele>
        <time>2021-12-23T14:05:33Z</time>
      </trkpt>
      <trkpt lat="45.27275" lon="6.08881">
        <ele>1346</ele>
        <time>2021-12-23T14:05:35Z</time>
      </trkpt>
      <trkpt lat="45.27276" lon="6.08878">
        <ele>1346</ele>
        <time>2021-12-23T14:05:36Z</time>
      </trkpt>
      <trkpt lat="45.2728" lon="6.08871">
        <ele>1346</ele>
        <time>2021-12-23T14:05:37Z</time>
      </trkpt>
      <trkpt lat="45.27281" lon="6.08867">
        <ele>1346</ele>
        <time>2021-12-23T14:05:38Z</time>
      </trkpt>
      <trkpt lat="45.27282" lon="6.08864">
        <ele>1344</ele>
        <time>2021-12-23T14:05:39Z</time>
      </trkpt>
      <trkpt lat="45.27287" lon="6.08851">
        <ele>1342</ele>
        <time>2021-12-23T14:05:40Z</time>
      </trkpt>
      <trkpt lat="45.27289" lon="6.08846">
        <ele>1341</ele>
        <time>2021-12-23T14:05:41Z</time>
      </trkpt>
      <trkpt lat="45.2729" lon="6.0884">
        <ele>1341</ele>
        <time>2021-12-23T14:05:42Z</time>
      </trkpt>
      <trkpt lat="45.2729" lon="6.08836">
        <ele>1340</ele>
        <time>2021-12-23T14:05:43Z</time>
      </trkpt>
      <trkpt lat="45.2729" lon="6.08831">
        <ele>1339</ele>
        <time>2021-12-23T14:05:44Z</time>
      </trkpt>
      <trkpt lat="45.2729" lon="6.08826">
        <ele>1338</ele>
        <time>2021-12-23T14:05:45Z</time>
      </trkpt>
      <trkpt lat="45.27291" lon="6.08819">
        <ele>1337</ele>
        <time>2021-12-23T14:05:46Z</time>
      </trkpt>
      <trkpt lat="45.27292" lon="6.08811">
        <ele>1337</ele>
        <time>2021-12-23T14:05:47Z</time>
      </trkpt>
      <trkpt lat="45.27294" lon="6.08803">
        <ele>1335</ele>
        <time>2021-12-23T14:05:48Z</time>
      </trkpt>
      <trkpt lat="45.27295" lon="6.08796">
        <ele>1335</ele>
        <time>2021-12-23T14:05:49Z</time>
      </trkpt>
      <trkpt lat="45.27297" lon="6.08794">
        <ele>1335</ele>
        <time>2021-12-23T14:05:50Z</time>
      </trkpt>
      <trkpt lat="45.27299" lon="6.08792">
        <ele>1334</ele>
        <time>2021-12-23T14:05:51Z</time>
      </trkpt>
      <trkpt lat="45.273" lon="6.0879">
        <ele>1335</ele>
        <time>2021-12-23T14:05:52Z</time>
      </trkpt>
      <trkpt lat="45.27302" lon="6.08788">
        <ele>1335</ele>
        <time>2021-12-23T14:05:54Z</time>
      </trkpt>
      <trkpt lat="45.27304" lon="6.08786">
        <ele>1335</ele>
        <time>2021-12-23T14:05:55Z</time>
      </trkpt>
      <trkpt lat="45.27312" lon="6.08769">
        <ele>1334</ele>
        <time>2021-12-23T14:05:56Z</time>
      </trkpt>
      <trkpt lat="45.27311" lon="6.08762">
        <ele>1334</ele>
        <time>2021-12-23T14:05:57Z</time>
      </trkpt>
      <trkpt lat="45.2731" lon="6.08755">
        <ele>1334</ele>
        <time>2021-12-23T14:05:58Z</time>
      </trkpt>
      <trkpt lat="45.27312" lon="6.08751">
        <ele>1334</ele>
        <time>2021-12-23T14:05:59Z</time>
      </trkpt>
      <trkpt lat="45.27315" lon="6.08748">
        <ele>1334</ele>
        <time>2021-12-23T14:06:00Z</time>
      </trkpt>
      <trkpt lat="45.27317" lon="6.08745">
        <ele>1334</ele>
        <time>2021-12-23T14:06:01Z</time>
      </trkpt>
      <trkpt lat="45.27318" lon="6.08742">
        <ele>1333</ele>
        <time>2021-12-23T14:06:02Z</time>
      </trkpt>
      <trkpt lat="45.27319" lon="6.08739">
        <ele>1333</ele>
        <time>2021-12-23T14:06:03Z</time>
      </trkpt>
      <trkpt lat="45.27321" lon="6.08736">
        <ele>1334</ele>
        <time>2021-12-23T14:06:04Z</time>
      </trkpt>
      <trkpt lat="45.27322" lon="6.08734">
        <ele>1334</ele>
        <time>2021-12-23T14:06:05Z</time>
      </trkpt>
      <trkpt lat="45.27324" lon="6.08731">
        <ele>1334</ele>
        <time>2021-12-23T14:06:06Z</time>
      </trkpt>
      <trkpt lat="45.27325" lon="6.08729">
        <ele>1334</ele>
        <time>2021-12-23T14:06:07Z</time>
      </trkpt>
      <trkpt lat="45.27326" lon="6.08727">
        <ele>1334</ele>
        <time>2021-12-23T14:06:08Z</time>
      </trkpt>
      <trkpt lat="45.27328" lon="6.08725">
        <ele>1334</ele>
        <time>2021-12-23T14:06:09Z</time>
      </trkpt>
      <trkpt lat="45.27329" lon="6.08723">
        <ele>1334</ele>
        <time>2021-12-23T14:06:10Z</time>
      </trkpt>
      <trkpt lat="45.27331" lon="6.08718">
        <ele>1334</ele>
        <time>2021-12-23T14:06:11Z</time>
      </trkpt>
      <trkpt lat="45.27333" lon="6.08712">
        <ele>1334</ele>
        <time>2021-12-23T14:06:13Z</time>
      </trkpt>
      <trkpt lat="45.27335" lon="6.08707">
        <ele>1334</ele>
        <time>2021-12-23T14:06:14Z</time>
      </trkpt>
      <trkpt lat="45.27337" lon="6.08702">
        <ele>1331</ele>
        <time>2021-12-23T14:06:15Z</time>
      </trkpt>
      <trkpt lat="45.27338" lon="6.08696">
        <ele>1330</ele>
        <time>2021-12-23T14:06:16Z</time>
      </trkpt>
      <trkpt lat="45.2734" lon="6.08688">
        <ele>1330</ele>
        <time>2021-12-23T14:06:17Z</time>
      </trkpt>
      <trkpt lat="45.27343" lon="6.0868">
        <ele>1330</ele>
        <time>2021-12-23T14:06:18Z</time>
      </trkpt>
      <trkpt lat="45.27345" lon="6.08672">
        <ele>1329</ele>
        <time>2021-12-23T14:06:19Z</time>
      </trkpt>
      <trkpt lat="45.27346" lon="6.08668">
        <ele>1327</ele>
        <time>2021-12-23T14:06:20Z</time>
      </trkpt>
      <trkpt lat="45.27347" lon="6.08663">
        <ele>1324</ele>
        <time>2021-12-23T14:06:21Z</time>
      </trkpt>
      <trkpt lat="45.27349" lon="6.08649">
        <ele>1324</ele>
        <time>2021-12-23T14:06:22Z</time>
      </trkpt>
      <trkpt lat="45.27349" lon="6.08643">
        <ele>1324</ele>
        <time>2021-12-23T14:06:23Z</time>
      </trkpt>
      <trkpt lat="45.27349" lon="6.08637">
        <ele>1324</ele>
        <time>2021-12-23T14:06:24Z</time>
      </trkpt>
      <trkpt lat="45.27349" lon="6.08631">
        <ele>1323</ele>
        <time>2021-12-23T14:06:25Z</time>
      </trkpt>
      <trkpt lat="45.27348" lon="6.08623">
        <ele>1322</ele>
        <time>2021-12-23T14:06:26Z</time>
      </trkpt>
      <trkpt lat="45.27348" lon="6.08614">
        <ele>1320</ele>
        <time>2021-12-23T14:06:27Z</time>
      </trkpt>
      <trkpt lat="45.27349" lon="6.08605">
        <ele>1319</ele>
        <time>2021-12-23T14:06:28Z</time>
      </trkpt>
      <trkpt lat="45.27349" lon="6.08595">
        <ele>1318</ele>
        <time>2021-12-23T14:06:29Z</time>
      </trkpt>
      <trkpt lat="45.27349" lon="6.08586">
        <ele>1317</ele>
        <time>2021-12-23T14:06:30Z</time>
      </trkpt>
      <trkpt lat="45.27349" lon="6.08577">
        <ele>1315</ele>
        <time>2021-12-23T14:06:32Z</time>
      </trkpt>
      <trkpt lat="45.27351" lon="6.08571">
        <ele>1315</ele>
        <time>2021-12-23T14:06:33Z</time>
      </trkpt>
      <trkpt lat="45.27354" lon="6.08565">
        <ele>1315</ele>
        <time>2021-12-23T14:06:34Z</time>
      </trkpt>
      <trkpt lat="45.27356" lon="6.0856">
        <ele>1314</ele>
        <time>2021-12-23T14:06:35Z</time>
      </trkpt>
      <trkpt lat="45.27359" lon="6.08557">
        <ele>1313</ele>
        <time>2021-12-23T14:06:36Z</time>
      </trkpt>
      <trkpt lat="45.27361" lon="6.08554">
        <ele>1313</ele>
        <time>2021-12-23T14:06:37Z</time>
      </trkpt>
      <trkpt lat="45.27363" lon="6.08552">
        <ele>1312</ele>
        <time>2021-12-23T14:06:38Z</time>
      </trkpt>
      <trkpt lat="45.27365" lon="6.08549">
        <ele>1312</ele>
        <time>2021-12-23T14:06:39Z</time>
      </trkpt>
      <trkpt lat="45.27368" lon="6.08546">
        <ele>1311</ele>
        <time>2021-12-23T14:06:40Z</time>
      </trkpt>
      <trkpt lat="45.27382" lon="6.08532">
        <ele>1309</ele>
        <time>2021-12-23T14:06:41Z</time>
      </trkpt>
      <trkpt lat="45.27386" lon="6.08532">
        <ele>1309</ele>
        <time>2021-12-23T14:06:42Z</time>
      </trkpt>
      <trkpt lat="45.27389" lon="6.08531">
        <ele>1306</ele>
        <time>2021-12-23T14:06:43Z</time>
      </trkpt>
      <trkpt lat="45.27389" lon="6.08531">
        <ele>1306</ele>
        <time>2021-12-23T14:06:44Z</time>
      </trkpt>
      <trkpt lat="45.27388" lon="6.08531">
        <ele>1305</ele>
        <time>2021-12-23T14:06:45Z</time>
      </trkpt>
      <trkpt lat="45.27388" lon="6.08531">
        <ele>1304</ele>
        <time>2021-12-23T14:06:46Z</time>
      </trkpt>
      <trkpt lat="45.27388" lon="6.0853">
        <ele>1305</ele>
        <time>2021-12-23T14:06:47Z</time>
      </trkpt>
      <trkpt lat="45.27388" lon="6.0853">
        <ele>1305</ele>
        <time>2021-12-23T14:06:48Z</time>
      </trkpt>
      <trkpt lat="45.27388" lon="6.0853">
        <ele>1304</ele>
        <time>2021-12-23T14:06:49Z</time>
      </trkpt>
      <trkpt lat="45.27387" lon="6.0853">
        <ele>1304</ele>
        <time>2021-12-23T14:06:51Z</time>
      </trkpt>
      <trkpt lat="45.27387" lon="6.0853">
        <ele>1304</ele>
        <time>2021-12-23T14:06:52Z</time>
      </trkpt>
      <trkpt lat="45.27387" lon="6.0853">
        <ele>1304</ele>
        <time>2021-12-23T14:06:53Z</time>
      </trkpt>
      <trkpt lat="45.27387" lon="6.0853">
        <ele>1304</ele>
        <time>2021-12-23T14:06:54Z</time>
      </trkpt>
      <trkpt lat="45.27386" lon="6.08529">
        <ele>1304</ele>
        <time>2021-12-23T14:06:55Z</time>
      </trkpt>
      <trkpt lat="45.27386" lon="6.08529">
        <ele>1304</ele>
        <time>2021-12-23T14:06:56Z</time>
      </trkpt>
      <trkpt lat="45.27386" lon="6.08529">
        <ele>1304</ele>
        <time>2021-12-23T14:06:57Z</time>
      </trkpt>
      <trkpt lat="45.27386" lon="6.08529">
        <ele>1304</ele>
        <time>2021-12-23T14:06:58Z</time>
      </trkpt>
      <trkpt lat="45.27385" lon="6.08529">
        <ele>1303</ele>
        <time>2021-12-23T14:06:59Z</time>
      </trkpt>
      <trkpt lat="45.27385" lon="6.08529">
        <ele>1303</ele>
        <time>2021-12-23T14:07:00Z</time>
      </trkpt>
      <trkpt lat="45.27385" lon="6.08529">
        <ele>1303</ele>
        <time>2021-12-23T14:07:01Z</time>
      </trkpt>
      <trkpt lat="45.27385" lon="6.08528">
        <ele>1303</ele>
        <time>2021-12-23T14:07:02Z</time>
      </trkpt>
      <trkpt lat="45.27384" lon="6.08528">
        <ele>1303</ele>
        <time>2021-12-23T14:07:03Z</time>
      </trkpt>
      <trkpt lat="45.27384" lon="6.08528">
        <ele>1303</ele>
        <time>2021-12-23T14:07:04Z</time>
      </trkpt>
      <trkpt lat="45.27384" lon="6.08528">
        <ele>1304</ele>
        <time>2021-12-23T14:07:05Z</time>
      </trkpt>
      <trkpt lat="45.27384" lon="6.08528">
        <ele>1304</ele>
        <time>2021-12-23T14:07:06Z</time>
      </trkpt>
      <trkpt lat="45.27383" lon="6.08528">
        <ele>1304</ele>
        <time>2021-12-23T14:07:07Z</time>
      </trkpt>
      <trkpt lat="45.27383" lon="6.08528">
        <ele>1304</ele>
        <time>2021-12-23T14:07:08Z</time>
      </trkpt>
      <trkpt lat="45.27383" lon="6.08528">
        <ele>1303</ele>
        <time>2021-12-23T14:07:10Z</time>
      </trkpt>
      <trkpt lat="45.27383" lon="6.08527">
        <ele>1303</ele>
        <time>2021-12-23T14:07:11Z</time>
      </trkpt>
      <trkpt lat="45.27382" lon="6.08527">
        <ele>1303</ele>
        <time>2021-12-23T14:07:12Z</time>
      </trkpt>
      <trkpt lat="45.27382" lon="6.08527">
        <ele>1304</ele>
        <time>2021-12-23T14:07:13Z</time>
      </trkpt>
      <trkpt lat="45.27382" lon="6.08527">
        <ele>1304</ele>
        <time>2021-12-23T14:07:14Z</time>
      </trkpt>
      <trkpt lat="45.27382" lon="6.08527">
        <ele>1304</ele>
        <time>2021-12-23T14:07:15Z</time>
      </trkpt>
      <trkpt lat="45.27381" lon="6.08527">
        <ele>1303</ele>
        <time>2021-12-23T14:07:16Z</time>
      </trkpt>
      <trkpt lat="45.27378" lon="6.08527">
        <ele>1303</ele>
        <time>2021-12-23T14:07:17Z</time>
      </trkpt>
      <trkpt lat="45.27375" lon="6.08528">
        <ele>1302</ele>
        <time>2021-12-23T14:07:18Z</time>
      </trkpt>
      <trkpt lat="45.27372" lon="6.08529">
        <ele>1302</ele>
        <time>2021-12-23T14:07:19Z</time>
      </trkpt>
      <trkpt lat="45.2737" lon="6.08528">
        <ele>1302</ele>
        <time>2021-12-23T14:07:20Z</time>
      </trkpt>
      <trkpt lat="45.27368" lon="6.08527">
        <ele>1299</ele>
        <time>2021-12-23T14:07:21Z</time>
      </trkpt>
      <trkpt lat="45.27366" lon="6.08525">
        <ele>1298</ele>
        <time>2021-12-23T14:07:22Z</time>
      </trkpt>
      <trkpt lat="45.27364" lon="6.08524">
        <ele>1298</ele>
        <time>2021-12-23T14:07:23Z</time>
      </trkpt>
      <trkpt lat="45.27364" lon="6.08524">
        <ele>1299</ele>
        <time>2021-12-23T14:07:24Z</time>
      </trkpt>
      <trkpt lat="45.27364" lon="6.08524">
        <ele>1299</ele>
        <time>2021-12-23T14:07:25Z</time>
      </trkpt>
      <trkpt lat="45.27364" lon="6.08524">
        <ele>1299</ele>
        <time>2021-12-23T14:07:26Z</time>
      </trkpt>
      <trkpt lat="45.27364" lon="6.08524">
        <ele>1299</ele>
        <time>2021-12-23T14:07:27Z</time>
      </trkpt>
      <trkpt lat="45.27368" lon="6.08509">
        <ele>1298</ele>
        <time>2021-12-23T14:07:29Z</time>
      </trkpt>
      <trkpt lat="45.27371" lon="6.08508">
        <ele>1298</ele>
        <time>2021-12-23T14:07:30Z</time>
      </trkpt>
      <trkpt lat="45.27374" lon="6.08507">
        <ele>1298</ele>
        <time>2021-12-23T14:07:31Z</time>
      </trkpt>
      <trkpt lat="45.27376" lon="6.08506">
        <ele>1296</ele>
        <time>2021-12-23T14:07:32Z</time>
      </trkpt>
      <trkpt lat="45.27377" lon="6.08505">
        <ele>1296</ele>
        <time>2021-12-23T14:07:33Z</time>
      </trkpt>
      <trkpt lat="45.27377" lon="6.08505">
        <ele>1296</ele>
        <time>2021-12-23T14:07:34Z</time>
      </trkpt>
      <trkpt lat="45.27377" lon="6.08505">
        <ele>1296</ele>
        <time>2021-12-23T14:07:35Z</time>
      </trkpt>
      <trkpt lat="45.27377" lon="6.08504">
        <ele>1296</ele>
        <time>2021-12-23T14:07:36Z</time>
      </trkpt>
      <trkpt lat="45.27377" lon="6.08504">
        <ele>1295</ele>
        <time>2021-12-23T14:07:37Z</time>
      </trkpt>
      <trkpt lat="45.27377" lon="6.08504">
        <ele>1295</ele>
        <time>2021-12-23T14:07:38Z</time>
      </trkpt>
      <trkpt lat="45.27377" lon="6.08503">
        <ele>1295</ele>
        <time>2021-12-23T14:07:39Z</time>
      </trkpt>
      <trkpt lat="45.27378" lon="6.08503">
        <ele>1295</ele>
        <time>2021-12-23T14:07:40Z</time>
      </trkpt>
      <trkpt lat="45.27378" lon="6.08502">
        <ele>1296</ele>
        <time>2021-12-23T14:07:41Z</time>
      </trkpt>
      <trkpt lat="45.27378" lon="6.08502">
        <ele>1296</ele>
        <time>2021-12-23T14:07:42Z</time>
      </trkpt>
      <trkpt lat="45.27378" lon="6.08502">
        <ele>1296</ele>
        <time>2021-12-23T14:07:43Z</time>
      </trkpt>
      <trkpt lat="45.27378" lon="6.08501">
        <ele>1295</ele>
        <time>2021-12-23T14:07:44Z</time>
      </trkpt>
      <trkpt lat="45.27378" lon="6.08501">
        <ele>1295</ele>
        <time>2021-12-23T14:07:45Z</time>
      </trkpt>
      <trkpt lat="45.27378" lon="6.08501">
        <ele>1294</ele>
        <time>2021-12-23T14:07:46Z</time>
      </trkpt>
      <trkpt lat="45.27378" lon="6.085">
        <ele>1293</ele>
        <time>2021-12-23T14:07:48Z</time>
      </trkpt>
      <trkpt lat="45.27379" lon="6.085">
        <ele>1292</ele>
        <time>2021-12-23T14:07:49Z</time>
      </trkpt>
      <trkpt lat="45.27379" lon="6.08499">
        <ele>1292</ele>
        <time>2021-12-23T14:07:50Z</time>
      </trkpt>
      <trkpt lat="45.27379" lon="6.08499">
        <ele>1292</ele>
        <time>2021-12-23T14:07:51Z</time>
      </trkpt>
      <trkpt lat="45.27379" lon="6.08499">
        <ele>1292</ele>
        <time>2021-12-23T14:07:52Z</time>
      </trkpt>
      <trkpt lat="45.27379" lon="6.08498">
        <ele>1291</ele>
        <time>2021-12-23T14:07:53Z</time>
      </trkpt>
      <trkpt lat="45.27379" lon="6.08498">
        <ele>1291</ele>
        <time>2021-12-23T14:07:54Z</time>
      </trkpt>
      <trkpt lat="45.27379" lon="6.08498">
        <ele>1291</ele>
        <time>2021-12-23T14:07:55Z</time>
      </trkpt>
      <trkpt lat="45.27379" lon="6.08497">
        <ele>1290</ele>
        <time>2021-12-23T14:07:56Z</time>
      </trkpt>
      <trkpt lat="45.2738" lon="6.08497">
        <ele>1290</ele>
        <time>2021-12-23T14:07:57Z</time>
      </trkpt>
      <trkpt lat="45.2738" lon="6.08497">
        <ele>1290</ele>
        <time>2021-12-23T14:07:58Z</time>
      </trkpt>
      <trkpt lat="45.27379" lon="6.08495">
        <ele>1290</ele>
        <time>2021-12-23T14:07:59Z</time>
      </trkpt>
      <trkpt lat="45.27379" lon="6.08494">
        <ele>1290</ele>
        <time>2021-12-23T14:08:00Z</time>
      </trkpt>
      <trkpt lat="45.27379" lon="6.08493">
        <ele>1290</ele>
        <time>2021-12-23T14:08:01Z</time>
      </trkpt>
      <trkpt lat="45.27379" lon="6.08492">
        <ele>1290</ele>
        <time>2021-12-23T14:08:02Z</time>
      </trkpt>
      <trkpt lat="45.27379" lon="6.08491">
        <ele>1290</ele>
        <time>2021-12-23T14:08:03Z</time>
      </trkpt>
      <trkpt lat="45.27378" lon="6.0849">
        <ele>1290</ele>
        <time>2021-12-23T14:08:04Z</time>
      </trkpt>
      <trkpt lat="45.27378" lon="6.08489">
        <ele>1290</ele>
        <time>2021-12-23T14:08:05Z</time>
      </trkpt>
      <trkpt lat="45.27378" lon="6.08488">
        <ele>1290</ele>
        <time>2021-12-23T14:08:07Z</time>
      </trkpt>
      <trkpt lat="45.27378" lon="6.08487">
        <ele>1290</ele>
        <time>2021-12-23T14:08:08Z</time>
      </trkpt>
      <trkpt lat="45.27377" lon="6.08486">
        <ele>1290</ele>
        <time>2021-12-23T14:08:09Z</time>
      </trkpt>
      <trkpt lat="45.27377" lon="6.08485">
        <ele>1289</ele>
        <time>2021-12-23T14:08:10Z</time>
      </trkpt>
      <trkpt lat="45.27377" lon="6.08484">
        <ele>1289</ele>
        <time>2021-12-23T14:08:11Z</time>
      </trkpt>
      <trkpt lat="45.27377" lon="6.08483">
        <ele>1289</ele>
        <time>2021-12-23T14:08:12Z</time>
      </trkpt>
      <trkpt lat="45.27376" lon="6.08482">
        <ele>1288</ele>
        <time>2021-12-23T14:08:13Z</time>
      </trkpt>
      <trkpt lat="45.27376" lon="6.08481">
        <ele>1287</ele>
        <time>2021-12-23T14:08:14Z</time>
      </trkpt>
      <trkpt lat="45.27376" lon="6.0848">
        <ele>1287</ele>
        <time>2021-12-23T14:08:15Z</time>
      </trkpt>
      <trkpt lat="45.27377" lon="6.08481">
        <ele>1287</ele>
        <time>2021-12-23T14:08:16Z</time>
      </trkpt>
      <trkpt lat="45.27378" lon="6.08481">
        <ele>1287</ele>
        <time>2021-12-23T14:08:17Z</time>
      </trkpt>
      <trkpt lat="45.27379" lon="6.08481">
        <ele>1288</ele>
        <time>2021-12-23T14:08:18Z</time>
      </trkpt>
      <trkpt lat="45.2738" lon="6.08482">
        <ele>1288</ele>
        <time>2021-12-23T14:08:19Z</time>
      </trkpt>
      <trkpt lat="45.27382" lon="6.08482">
        <ele>1288</ele>
        <time>2021-12-23T14:08:20Z</time>
      </trkpt>
      <trkpt lat="45.27383" lon="6.08482">
        <ele>1288</ele>
        <time>2021-12-23T14:08:21Z</time>
      </trkpt>
      <trkpt lat="45.27384" lon="6.08482">
        <ele>1288</ele>
        <time>2021-12-23T14:08:22Z</time>
      </trkpt>
      <trkpt lat="45.27385" lon="6.08483">
        <ele>1287</ele>
        <time>2021-12-23T14:08:23Z</time>
      </trkpt>
      <trkpt lat="45.27385" lon="6.08481">
        <ele>1286</ele>
        <time>2021-12-23T14:08:24Z</time>
      </trkpt>
      <trkpt lat="45.27385" lon="6.0848">
        <ele>1285</ele>
        <time>2021-12-23T14:08:26Z</time>
      </trkpt>
      <trkpt lat="45.27386" lon="6.08478">
        <ele>1285</ele>
        <time>2021-12-23T14:08:27Z</time>
      </trkpt>
      <trkpt lat="45.27386" lon="6.08477">
        <ele>1285</ele>
        <time>2021-12-23T14:08:28Z</time>
      </trkpt>
      <trkpt lat="45.27386" lon="6.08475">
        <ele>1284</ele>
        <time>2021-12-23T14:08:29Z</time>
      </trkpt>
      <trkpt lat="45.27387" lon="6.08474">
        <ele>1283</ele>
        <time>2021-12-23T14:08:30Z</time>
      </trkpt>
      <trkpt lat="45.27387" lon="6.08472">
        <ele>1282</ele>
        <time>2021-12-23T14:08:31Z</time>
      </trkpt>
      <trkpt lat="45.27387" lon="6.08471">
        <ele>1281</ele>
        <time>2021-12-23T14:08:32Z</time>
      </trkpt>
      <trkpt lat="45.27388" lon="6.08471">
        <ele>1280</ele>
        <time>2021-12-23T14:08:33Z</time>
      </trkpt>
      <trkpt lat="45.27388" lon="6.0847">
        <ele>1280</ele>
        <time>2021-12-23T14:08:34Z</time>
      </trkpt>
      <trkpt lat="45.27389" lon="6.0847">
        <ele>1280</ele>
        <time>2021-12-23T14:08:35Z</time>
      </trkpt>
      <trkpt lat="45.27389" lon="6.0847">
        <ele>1280</ele>
        <time>2021-12-23T14:08:36Z</time>
      </trkpt>
      <trkpt lat="45.27389" lon="6.0847">
        <ele>1279</ele>
        <time>2021-12-23T14:08:37Z</time>
      </trkpt>
      <trkpt lat="45.2739" lon="6.0847">
        <ele>1279</ele>
        <time>2021-12-23T14:08:38Z</time>
      </trkpt>
      <trkpt lat="45.2739" lon="6.0847">
        <ele>1279</ele>
        <time>2021-12-23T14:08:39Z</time>
      </trkpt>
      <trkpt lat="45.27391" lon="6.08469">
        <ele>1278</ele>
        <time>2021-12-23T14:08:40Z</time>
      </trkpt>
      <trkpt lat="45.27391" lon="6.08469">
        <ele>1278</ele>
        <time>2021-12-23T14:08:41Z</time>
      </trkpt>
      <trkpt lat="45.27392" lon="6.08469">
        <ele>1278</ele>
        <time>2021-12-23T14:08:42Z</time>
      </trkpt>
      <trkpt lat="45.27392" lon="6.08469">
        <ele>1277</ele>
        <time>2021-12-23T14:08:43Z</time>
      </trkpt>
      <trkpt lat="45.27392" lon="6.08469">
        <ele>1276</ele>
        <time>2021-12-23T14:08:45Z</time>
      </trkpt>
      <trkpt lat="45.27393" lon="6.08469">
        <ele>1276</ele>
        <time>2021-12-23T14:08:46Z</time>
      </trkpt>
      <trkpt lat="45.27393" lon="6.08468">
        <ele>1275</ele>
        <time>2021-12-23T14:08:47Z</time>
      </trkpt>
      <trkpt lat="45.27394" lon="6.08468">
        <ele>1275</ele>
        <time>2021-12-23T14:08:48Z</time>
      </trkpt>
      <trkpt lat="45.27394" lon="6.08468">
        <ele>1275</ele>
        <time>2021-12-23T14:08:49Z</time>
      </trkpt>
      <trkpt lat="45.27394" lon="6.08468">
        <ele>1275</ele>
        <time>2021-12-23T14:08:50Z</time>
      </trkpt>
      <trkpt lat="45.27394" lon="6.08467">
        <ele>1275</ele>
        <time>2021-12-23T14:08:51Z</time>
      </trkpt>
      <trkpt lat="45.27394" lon="6.08467">
        <ele>1275</ele>
        <time>2021-12-23T14:08:52Z</time>
      </trkpt>
      <trkpt lat="45.27394" lon="6.08466">
        <ele>1275</ele>
        <time>2021-12-23T14:08:53Z</time>
      </trkpt>
      <trkpt lat="45.27394" lon="6.08466">
        <ele>1275</ele>
        <time>2021-12-23T14:08:54Z</time>
      </trkpt>
      <trkpt lat="45.27394" lon="6.08465">
        <ele>1274</ele>
        <time>2021-12-23T14:08:55Z</time>
      </trkpt>
      <trkpt lat="45.27394" lon="6.08465">
        <ele>1274</ele>
        <time>2021-12-23T14:08:56Z</time>
      </trkpt>
      <trkpt lat="45.27394" lon="6.08465">
        <ele>1274</ele>
        <time>2021-12-23T14:08:57Z</time>
      </trkpt>
      <trkpt lat="45.27394" lon="6.08464">
        <ele>1274</ele>
        <time>2021-12-23T14:08:58Z</time>
      </trkpt>
      <trkpt lat="45.27394" lon="6.08464">
        <ele>1273</ele>
        <time>2021-12-23T14:08:59Z</time>
      </trkpt>
      <trkpt lat="45.27394" lon="6.08463">
        <ele>1273</ele>
        <time>2021-12-23T14:09:00Z</time>
      </trkpt>
      <trkpt lat="45.27394" lon="6.08463">
        <ele>1273</ele>
        <time>2021-12-23T14:09:01Z</time>
      </trkpt>
      <trkpt lat="45.27394" lon="6.08462">
        <ele>1273</ele>
        <time>2021-12-23T14:09:02Z</time>
      </trkpt>
      <trkpt lat="45.27394" lon="6.08451">
        <ele>1273</ele>
        <time>2021-12-23T14:09:04Z</time>
      </trkpt>
      <trkpt lat="45.27394" lon="6.0845">
        <ele>1272</ele>
        <time>2021-12-23T14:09:05Z</time>
      </trkpt>
      <trkpt lat="45.27395" lon="6.0845">
        <ele>1272</ele>
        <time>2021-12-23T14:09:06Z</time>
      </trkpt>
      <trkpt lat="45.27396" lon="6.0845">
        <ele>1272</ele>
        <time>2021-12-23T14:09:07Z</time>
      </trkpt>
      <trkpt lat="45.27397" lon="6.08449">
        <ele>1273</ele>
        <time>2021-12-23T14:09:08Z</time>
      </trkpt>
      <trkpt lat="45.27397" lon="6.08449">
        <ele>1273</ele>
        <time>2021-12-23T14:09:09Z</time>
      </trkpt>
      <trkpt lat="45.27398" lon="6.08449">
        <ele>1272</ele>
        <time>2021-12-23T14:09:10Z</time>
      </trkpt>
      <trkpt lat="45.27399" lon="6.08448">
        <ele>1272</ele>
        <time>2021-12-23T14:09:11Z</time>
      </trkpt>
      <trkpt lat="45.274" lon="6.08448">
        <ele>1271</ele>
        <time>2021-12-23T14:09:12Z</time>
      </trkpt>
      <trkpt lat="45.274" lon="6.08448">
        <ele>1271</ele>
        <time>2021-12-23T14:09:13Z</time>
      </trkpt>
      <trkpt lat="45.27401" lon="6.08447">
        <ele>1271</ele>
        <time>2021-12-23T14:09:14Z</time>
      </trkpt>
      <trkpt lat="45.27402" lon="6.08447">
        <ele>1272</ele>
        <time>2021-12-23T14:09:15Z</time>
      </trkpt>
      <trkpt lat="45.27402" lon="6.08447">
        <ele>1272</ele>
        <time>2021-12-23T14:09:16Z</time>
      </trkpt>
      <trkpt lat="45.27401" lon="6.08447">
        <ele>1272</ele>
        <time>2021-12-23T14:09:17Z</time>
      </trkpt>
      <trkpt lat="45.27401" lon="6.08447">
        <ele>1271</ele>
        <time>2021-12-23T14:09:18Z</time>
      </trkpt>
      <trkpt lat="45.27401" lon="6.08447">
        <ele>1270</ele>
        <time>2021-12-23T14:09:19Z</time>
      </trkpt>
      <trkpt lat="45.27401" lon="6.08447">
        <ele>1271</ele>
        <time>2021-12-23T14:09:20Z</time>
      </trkpt>
      <trkpt lat="45.274" lon="6.08447">
        <ele>1271</ele>
        <time>2021-12-23T14:09:21Z</time>
      </trkpt>
      <trkpt lat="45.274" lon="6.08447">
        <ele>1271</ele>
        <time>2021-12-23T14:09:23Z</time>
      </trkpt>
      <trkpt lat="45.274" lon="6.08447">
        <ele>1271</ele>
        <time>2021-12-23T14:09:24Z</time>
      </trkpt>
      <trkpt lat="45.274" lon="6.08447">
        <ele>1271</ele>
        <time>2021-12-23T14:09:25Z</time>
      </trkpt>
      <trkpt lat="45.27399" lon="6.08447">
        <ele>1271</ele>
        <time>2021-12-23T14:09:26Z</time>
      </trkpt>
      <trkpt lat="45.27399" lon="6.08447">
        <ele>1270</ele>
        <time>2021-12-23T14:09:27Z</time>
      </trkpt>
      <trkpt lat="45.27399" lon="6.08447">
        <ele>1270</ele>
        <time>2021-12-23T14:09:28Z</time>
      </trkpt>
      <trkpt lat="45.27398" lon="6.08447">
        <ele>1270</ele>
        <time>2021-12-23T14:09:29Z</time>
      </trkpt>
      <trkpt lat="45.27398" lon="6.08447">
        <ele>1270</ele>
        <time>2021-12-23T14:09:30Z</time>
      </trkpt>
      <trkpt lat="45.27398" lon="6.08447">
        <ele>1270</ele>
        <time>2021-12-23T14:09:31Z</time>
      </trkpt>
      <trkpt lat="45.27398" lon="6.08447">
        <ele>1270</ele>
        <time>2021-12-23T14:09:32Z</time>
      </trkpt>
      <trkpt lat="45.27397" lon="6.08447">
        <ele>1270</ele>
        <time>2021-12-23T14:09:33Z</time>
      </trkpt>
      <trkpt lat="45.27397" lon="6.08447">
        <ele>1270</ele>
        <time>2021-12-23T14:09:34Z</time>
      </trkpt>
      <trkpt lat="45.27397" lon="6.08447">
        <ele>1270</ele>
        <time>2021-12-23T14:09:35Z</time>
      </trkpt>
      <trkpt lat="45.27397" lon="6.08447">
        <ele>1270</ele>
        <time>2021-12-23T14:09:36Z</time>
      </trkpt>
      <trkpt lat="45.27396" lon="6.08447">
        <ele>1270</ele>
        <time>2021-12-23T14:09:37Z</time>
      </trkpt>
      <trkpt lat="45.27396" lon="6.08447">
        <ele>1270</ele>
        <time>2021-12-23T14:09:38Z</time>
      </trkpt>
      <trkpt lat="45.27396" lon="6.08447">
        <ele>1270</ele>
        <time>2021-12-23T14:09:39Z</time>
      </trkpt>
      <trkpt lat="45.27396" lon="6.08447">
        <ele>1270</ele>
        <time>2021-12-23T14:09:40Z</time>
      </trkpt>
      <trkpt lat="45.27395" lon="6.08447">
        <ele>1270</ele>
        <time>2021-12-23T14:09:42Z</time>
      </trkpt>
      <trkpt lat="45.27395" lon="6.08447">
        <ele>1270</ele>
        <time>2021-12-23T14:09:43Z</time>
      </trkpt>
      <trkpt lat="45.27395" lon="6.08446">
        <ele>1271</ele>
        <time>2021-12-23T14:09:44Z</time>
      </trkpt>
      <trkpt lat="45.27395" lon="6.08446">
        <ele>1271</ele>
        <time>2021-12-23T14:09:45Z</time>
      </trkpt>
      <trkpt lat="45.27394" lon="6.08446">
        <ele>1271</ele>
        <time>2021-12-23T14:09:46Z</time>
      </trkpt>
      <trkpt lat="45.27394" lon="6.08446">
        <ele>1271</ele>
        <time>2021-12-23T14:09:47Z</time>
      </trkpt>
      <trkpt lat="45.27394" lon="6.08446">
        <ele>1271</ele>
        <time>2021-12-23T14:09:48Z</time>
      </trkpt>
      <trkpt lat="45.27394" lon="6.08446">
        <ele>1271</ele>
        <time>2021-12-23T14:09:49Z</time>
      </trkpt>
      <trkpt lat="45.27393" lon="6.08446">
        <ele>1271</ele>
        <time>2021-12-23T14:09:50Z</time>
      </trkpt>
      <trkpt lat="45.27393" lon="6.08446">
        <ele>1271</ele>
        <time>2021-12-23T14:09:51Z</time>
      </trkpt>
      <trkpt lat="45.27393" lon="6.08446">
        <ele>1271</ele>
        <time>2021-12-23T14:09:52Z</time>
      </trkpt>
      <trkpt lat="45.27393" lon="6.08446">
        <ele>1270</ele>
        <time>2021-12-23T14:09:53Z</time>
      </trkpt>
      <trkpt lat="45.27392" lon="6.08446">
        <ele>1270</ele>
        <time>2021-12-23T14:09:54Z</time>
      </trkpt>
      <trkpt lat="45.27392" lon="6.08446">
        <ele>1271</ele>
        <time>2021-12-23T14:09:55Z</time>
      </trkpt>
      <trkpt lat="45.27392" lon="6.08446">
        <ele>1271</ele>
        <time>2021-12-23T14:09:56Z</time>
      </trkpt>
      <trkpt lat="45.27392" lon="6.08446">
        <ele>1272</ele>
        <time>2021-12-23T14:09:57Z</time>
      </trkpt>
      <trkpt lat="45.27391" lon="6.08446">
        <ele>1272</ele>
        <time>2021-12-23T14:09:58Z</time>
      </trkpt>
      <trkpt lat="45.27391" lon="6.08446">
        <ele>1270</ele>
        <time>2021-12-23T14:09:59Z</time>
      </trkpt>
      <trkpt lat="45.27391" lon="6.08446">
        <ele>1270</ele>
        <time>2021-12-23T14:10:01Z</time>
      </trkpt>
      <trkpt lat="45.27391" lon="6.08446">
        <ele>1270</ele>
        <time>2021-12-23T14:10:02Z</time>
      </trkpt>
      <trkpt lat="45.27391" lon="6.08445">
        <ele>1270</ele>
        <time>2021-12-23T14:10:03Z</time>
      </trkpt>
      <trkpt lat="45.27392" lon="6.08445">
        <ele>1270</ele>
        <time>2021-12-23T14:10:04Z</time>
      </trkpt>
      <trkpt lat="45.27393" lon="6.08444">
        <ele>1270</ele>
        <time>2021-12-23T14:10:05Z</time>
      </trkpt>
      <trkpt lat="45.27394" lon="6.08443">
        <ele>1270</ele>
        <time>2021-12-23T14:10:06Z</time>
      </trkpt>
      <trkpt lat="45.27395" lon="6.08442">
        <ele>1270</ele>
        <time>2021-12-23T14:10:07Z</time>
      </trkpt>
      <trkpt lat="45.27395" lon="6.08442">
        <ele>1270</ele>
        <time>2021-12-23T14:10:08Z</time>
      </trkpt>
      <trkpt lat="45.27396" lon="6.08441">
        <ele>1271</ele>
        <time>2021-12-23T14:10:09Z</time>
      </trkpt>
      <trkpt lat="45.27397" lon="6.0844">
        <ele>1271</ele>
        <time>2021-12-23T14:10:10Z</time>
      </trkpt>
      <trkpt lat="45.27398" lon="6.08439">
        <ele>1271</ele>
        <time>2021-12-23T14:10:11Z</time>
      </trkpt>
      <trkpt lat="45.27398" lon="6.08439">
        <ele>1271</ele>
        <time>2021-12-23T14:10:12Z</time>
      </trkpt>
      <trkpt lat="45.27399" lon="6.08438">
        <ele>1271</ele>
        <time>2021-12-23T14:10:13Z</time>
      </trkpt>
      <trkpt lat="45.27399" lon="6.08438">
        <ele>1271</ele>
        <time>2021-12-23T14:10:14Z</time>
      </trkpt>
      <trkpt lat="45.27398" lon="6.08438">
        <ele>1271</ele>
        <time>2021-12-23T14:10:15Z</time>
      </trkpt>
      <trkpt lat="45.27398" lon="6.08438">
        <ele>1271</ele>
        <time>2021-12-23T14:10:16Z</time>
      </trkpt>
      <trkpt lat="45.27397" lon="6.08438">
        <ele>1271</ele>
        <time>2021-12-23T14:10:17Z</time>
      </trkpt>
      <trkpt lat="45.27397" lon="6.08439">
        <ele>1271</ele>
        <time>2021-12-23T14:10:18Z</time>
      </trkpt>
      <trkpt lat="45.27396" lon="6.08439">
        <ele>1271</ele>
        <time>2021-12-23T14:10:20Z</time>
      </trkpt>
      <trkpt lat="45.27395" lon="6.08439">
        <ele>1271</ele>
        <time>2021-12-23T14:10:21Z</time>
      </trkpt>
      <trkpt lat="45.27395" lon="6.08439">
        <ele>1271</ele>
        <time>2021-12-23T14:10:22Z</time>
      </trkpt>
      <trkpt lat="45.27394" lon="6.08439">
        <ele>1271</ele>
        <time>2021-12-23T14:10:23Z</time>
      </trkpt>
      <trkpt lat="45.27394" lon="6.08439">
        <ele>1271</ele>
        <time>2021-12-23T14:10:24Z</time>
      </trkpt>
      <trkpt lat="45.27393" lon="6.08439">
        <ele>1271</ele>
        <time>2021-12-23T14:10:25Z</time>
      </trkpt>
      <trkpt lat="45.27393" lon="6.0844">
        <ele>1271</ele>
        <time>2021-12-23T14:10:26Z</time>
      </trkpt>
      <trkpt lat="45.27392" lon="6.0844">
        <ele>1271</ele>
        <time>2021-12-23T14:10:27Z</time>
      </trkpt>
      <trkpt lat="45.27392" lon="6.0844">
        <ele>1270</ele>
        <time>2021-12-23T14:10:28Z</time>
      </trkpt>
      <trkpt lat="45.27391" lon="6.0844">
        <ele>1270</ele>
        <time>2021-12-23T14:10:29Z</time>
      </trkpt>
      <trkpt lat="45.27391" lon="6.0844">
        <ele>1270</ele>
        <time>2021-12-23T14:10:30Z</time>
      </trkpt>
      <trkpt lat="45.2739" lon="6.0844">
        <ele>1270</ele>
        <time>2021-12-23T14:10:31Z</time>
      </trkpt>
      <trkpt lat="45.2739" lon="6.08441">
        <ele>1270</ele>
        <time>2021-12-23T14:10:32Z</time>
      </trkpt>
      <trkpt lat="45.2739" lon="6.08442">
        <ele>1270</ele>
        <time>2021-12-23T14:10:33Z</time>
      </trkpt>
      <trkpt lat="45.2739" lon="6.08444">
        <ele>1270</ele>
        <time>2021-12-23T14:10:34Z</time>
      </trkpt>
      <trkpt lat="45.2739" lon="6.08445">
        <ele>1270</ele>
        <time>2021-12-23T14:10:35Z</time>
      </trkpt>
      <trkpt lat="45.2739" lon="6.08447">
        <ele>1270</ele>
        <time>2021-12-23T14:10:36Z</time>
      </trkpt>
      <trkpt lat="45.2739" lon="6.08449">
        <ele>1270</ele>
        <time>2021-12-23T14:10:37Z</time>
      </trkpt>
      <trkpt lat="45.27391" lon="6.0845">
        <ele>1270</ele>
        <time>2021-12-23T14:10:39Z</time>
      </trkpt>
      <trkpt lat="45.27391" lon="6.08452">
        <ele>1270</ele>
        <time>2021-12-23T14:10:40Z</time>
      </trkpt>
      <trkpt lat="45.27391" lon="6.08454">
        <ele>1270</ele>
        <time>2021-12-23T14:10:41Z</time>
      </trkpt>
      <trkpt lat="45.27391" lon="6.08453">
        <ele>1270</ele>
        <time>2021-12-23T14:10:42Z</time>
      </trkpt>
      <trkpt lat="45.27391" lon="6.08453">
        <ele>1270</ele>
        <time>2021-12-23T14:10:43Z</time>
      </trkpt>
      <trkpt lat="45.27391" lon="6.08453">
        <ele>1270</ele>
        <time>2021-12-23T14:10:44Z</time>
      </trkpt>
      <trkpt lat="45.27391" lon="6.08453">
        <ele>1270</ele>
        <time>2021-12-23T14:10:45Z</time>
      </trkpt>
      <trkpt lat="45.27391" lon="6.08453">
        <ele>1270</ele>
        <time>2021-12-23T14:10:46Z</time>
      </trkpt>
      <trkpt lat="45.27391" lon="6.08452">
        <ele>1270</ele>
        <time>2021-12-23T14:10:47Z</time>
      </trkpt>
      <trkpt lat="45.27392" lon="6.08452">
        <ele>1270</ele>
        <time>2021-12-23T14:10:48Z</time>
      </trkpt>
      <trkpt lat="45.27392" lon="6.08452">
        <ele>1270</ele>
        <time>2021-12-23T14:10:50Z</time>
      </trkpt>
      <trkpt lat="45.27392" lon="6.08452">
        <ele>1270</ele>
        <time>2021-12-23T14:10:51Z</time>
      </trkpt>
      <trkpt lat="45.27392" lon="6.08451">
        <ele>1270</ele>
        <time>2021-12-23T14:10:52Z</time>
      </trkpt>
      <trkpt lat="45.27392" lon="6.08451">
        <ele>1270</ele>
        <time>2021-12-23T14:10:53Z</time>
      </trkpt>
      <trkpt lat="45.27392" lon="6.08451">
        <ele>1270</ele>
        <time>2021-12-23T14:10:54Z</time>
      </trkpt>
      <trkpt lat="45.27392" lon="6.08451">
        <ele>1270</ele>
        <time>2021-12-23T14:10:55Z</time>
      </trkpt>
      <trkpt lat="45.27392" lon="6.08451">
        <ele>1270</ele>
        <time>2021-12-23T14:10:56Z</time>
      </trkpt>
      <trkpt lat="45.27392" lon="6.0845">
        <ele>1271</ele>
        <time>2021-12-23T14:10:58Z</time>
      </trkpt>
      <trkpt lat="45.27392" lon="6.0845">
        <ele>1271</ele>
        <time>2021-12-23T14:10:59Z</time>
      </trkpt>
      <trkpt lat="45.27393" lon="6.0845">
        <ele>1271</ele>
        <time>2021-12-23T14:11:00Z</time>
      </trkpt>
      <trkpt lat="45.27393" lon="6.0845">
        <ele>1271</ele>
        <time>2021-12-23T14:11:01Z</time>
      </trkpt>
      <trkpt lat="45.27393" lon="6.0845">
        <ele>1271</ele>
        <time>2021-12-23T14:11:02Z</time>
      </trkpt>
      <trkpt lat="45.27393" lon="6.08449">
        <ele>1271</ele>
        <time>2021-12-23T14:11:03Z</time>
      </trkpt>
      <trkpt lat="45.27393" lon="6.08449">
        <ele>1271</ele>
        <time>2021-12-23T14:11:04Z</time>
      </trkpt>
      <trkpt lat="45.27393" lon="6.08449">
        <ele>1271</ele>
        <time>2021-12-23T14:11:05Z</time>
      </trkpt>
      <trkpt lat="45.27393" lon="6.08449">
        <ele>1271</ele>
        <time>2021-12-23T14:11:06Z</time>
      </trkpt>
      <trkpt lat="45.27393" lon="6.08448">
        <ele>1271</ele>
        <time>2021-12-23T14:11:07Z</time>
      </trkpt>
      <trkpt lat="45.27393" lon="6.08448">
        <ele>1271</ele>
        <time>2021-12-23T14:11:08Z</time>
      </trkpt>
      <trkpt lat="45.27393" lon="6.08448">
        <ele>1270</ele>
        <time>2021-12-23T14:11:09Z</time>
      </trkpt>
      <trkpt lat="45.27394" lon="6.08448">
        <ele>1270</ele>
        <time>2021-12-23T14:11:10Z</time>
      </trkpt>
      <trkpt lat="45.27394" lon="6.08448">
        <ele>1270</ele>
        <time>2021-12-23T14:11:11Z</time>
      </trkpt>
      <trkpt lat="45.27394" lon="6.08447">
        <ele>1270</ele>
        <time>2021-12-23T14:11:12Z</time>
      </trkpt>
      <trkpt lat="45.27394" lon="6.08447">
        <ele>1270</ele>
        <time>2021-12-23T14:11:13Z</time>
      </trkpt>
      <trkpt lat="45.27397" lon="6.08439">
        <ele>1270</ele>
        <time>2021-12-23T14:11:14Z</time>
      </trkpt>
      <trkpt lat="45.27397" lon="6.08438">
        <ele>1270</ele>
        <time>2021-12-23T14:11:15Z</time>
      </trkpt>
      <trkpt lat="45.27397" lon="6.08437">
        <ele>1270</ele>
        <time>2021-12-23T14:11:17Z</time>
      </trkpt>
      <trkpt lat="45.27398" lon="6.08436">
        <ele>1269</ele>
        <time>2021-12-23T14:11:18Z</time>
      </trkpt>
      <trkpt lat="45.27398" lon="6.08435">
        <ele>1269</ele>
        <time>2021-12-23T14:11:19Z</time>
      </trkpt>
      <trkpt lat="45.27398" lon="6.08434">
        <ele>1269</ele>
        <time>2021-12-23T14:11:20Z</time>
      </trkpt>
      <trkpt lat="45.27398" lon="6.08433">
        <ele>1269</ele>
        <time>2021-12-23T14:11:21Z</time>
      </trkpt>
      <trkpt lat="45.27398" lon="6.08431">
        <ele>1269</ele>
        <time>2021-12-23T14:11:22Z</time>
      </trkpt>
      <trkpt lat="45.274" lon="6.08422">
        <ele>1269</ele>
        <time>2021-12-23T14:11:23Z</time>
      </trkpt>
      <trkpt lat="45.274" lon="6.08421">
        <ele>1269</ele>
        <time>2021-12-23T14:11:24Z</time>
      </trkpt>
      <trkpt lat="45.27401" lon="6.0842">
        <ele>1268</ele>
        <time>2021-12-23T14:11:25Z</time>
      </trkpt>
      <trkpt lat="45.27401" lon="6.08419">
        <ele>1268</ele>
        <time>2021-12-23T14:11:26Z</time>
      </trkpt>
      <trkpt lat="45.27401" lon="6.08418">
        <ele>1268</ele>
        <time>2021-12-23T14:11:27Z</time>
      </trkpt>
      <trkpt lat="45.27402" lon="6.08418">
        <ele>1268</ele>
        <time>2021-12-23T14:11:28Z</time>
      </trkpt>
      <trkpt lat="45.27402" lon="6.08417">
        <ele>1268</ele>
        <time>2021-12-23T14:11:29Z</time>
      </trkpt>
      <trkpt lat="45.27402" lon="6.08416">
        <ele>1268</ele>
        <time>2021-12-23T14:11:30Z</time>
      </trkpt>
      <trkpt lat="45.27403" lon="6.08415">
        <ele>1268</ele>
        <time>2021-12-23T14:11:31Z</time>
      </trkpt>
      <trkpt lat="45.27403" lon="6.08415">
        <ele>1268</ele>
        <time>2021-12-23T14:11:32Z</time>
      </trkpt>
      <trkpt lat="45.27403" lon="6.08414">
        <ele>1268</ele>
        <time>2021-12-23T14:11:33Z</time>
      </trkpt>
      <trkpt lat="45.27404" lon="6.08413">
        <ele>1268</ele>
        <time>2021-12-23T14:11:34Z</time>
      </trkpt>
      <trkpt lat="45.27404" lon="6.08412">
        <ele>1268</ele>
        <time>2021-12-23T14:11:35Z</time>
      </trkpt>
      <trkpt lat="45.27404" lon="6.08411">
        <ele>1268</ele>
        <time>2021-12-23T14:11:36Z</time>
      </trkpt>
      <trkpt lat="45.27405" lon="6.08412">
        <ele>1268</ele>
        <time>2021-12-23T14:11:37Z</time>
      </trkpt>
      <trkpt lat="45.27405" lon="6.08413">
        <ele>1268</ele>
        <time>2021-12-23T14:11:38Z</time>
      </trkpt>
      <trkpt lat="45.27405" lon="6.08414">
        <ele>1268</ele>
        <time>2021-12-23T14:11:39Z</time>
      </trkpt>
      <trkpt lat="45.27405" lon="6.08415">
        <ele>1268</ele>
        <time>2021-12-23T14:11:40Z</time>
      </trkpt>
      <trkpt lat="45.27406" lon="6.08417">
        <ele>1268</ele>
        <time>2021-12-23T14:11:41Z</time>
      </trkpt>
      <trkpt lat="45.27406" lon="6.08418">
        <ele>1268</ele>
        <time>2021-12-23T14:11:42Z</time>
      </trkpt>
      <trkpt lat="45.27406" lon="6.08419">
        <ele>1268</ele>
        <time>2021-12-23T14:11:43Z</time>
      </trkpt>
      <trkpt lat="45.27406" lon="6.0842">
        <ele>1268</ele>
        <time>2021-12-23T14:11:44Z</time>
      </trkpt>
      <trkpt lat="45.27407" lon="6.08421">
        <ele>1268</ele>
        <time>2021-12-23T14:11:45Z</time>
      </trkpt>
      <trkpt lat="45.27407" lon="6.08422">
        <ele>1268</ele>
        <time>2021-12-23T14:11:46Z</time>
      </trkpt>
      <trkpt lat="45.27407" lon="6.08423">
        <ele>1268</ele>
        <time>2021-12-23T14:11:47Z</time>
      </trkpt>
      <trkpt lat="45.27407" lon="6.08424">
        <ele>1268</ele>
        <time>2021-12-23T14:11:48Z</time>
      </trkpt>
      <trkpt lat="45.27408" lon="6.08425">
        <ele>1268</ele>
        <time>2021-12-23T14:11:49Z</time>
      </trkpt>
      <trkpt lat="45.27408" lon="6.08425">
        <ele>1268</ele>
        <time>2021-12-23T14:11:50Z</time>
      </trkpt>
      <trkpt lat="45.27407" lon="6.08425">
        <ele>1268</ele>
        <time>2021-12-23T14:11:51Z</time>
      </trkpt>
      <trkpt lat="45.27407" lon="6.08425">
        <ele>1268</ele>
        <time>2021-12-23T14:11:52Z</time>
      </trkpt>
      <trkpt lat="45.27407" lon="6.08426">
        <ele>1268</ele>
        <time>2021-12-23T14:11:53Z</time>
      </trkpt>
      <trkpt lat="45.27407" lon="6.08426">
        <ele>1268</ele>
        <time>2021-12-23T14:11:55Z</time>
      </trkpt>
      <trkpt lat="45.27407" lon="6.08426">
        <ele>1268</ele>
        <time>2021-12-23T14:11:56Z</time>
      </trkpt>
      <trkpt lat="45.27407" lon="6.08426">
        <ele>1268</ele>
        <time>2021-12-23T14:11:57Z</time>
      </trkpt>
      <trkpt lat="45.27407" lon="6.08426">
        <ele>1268</ele>
        <time>2021-12-23T14:11:58Z</time>
      </trkpt>
      <trkpt lat="45.27407" lon="6.08427">
        <ele>1268</ele>
        <time>2021-12-23T14:11:59Z</time>
      </trkpt>
      <trkpt lat="45.27407" lon="6.08427">
        <ele>1268</ele>
        <time>2021-12-23T14:12:00Z</time>
      </trkpt>
      <trkpt lat="45.27407" lon="6.08427">
        <ele>1268</ele>
        <time>2021-12-23T14:12:01Z</time>
      </trkpt>
      <trkpt lat="45.27407" lon="6.08427">
        <ele>1268</ele>
        <time>2021-12-23T14:12:02Z</time>
      </trkpt>
      <trkpt lat="45.27407" lon="6.08427">
        <ele>1268</ele>
        <time>2021-12-23T14:12:03Z</time>
      </trkpt>
      <trkpt lat="45.27407" lon="6.08428">
        <ele>1268</ele>
        <time>2021-12-23T14:12:04Z</time>
      </trkpt>
      <trkpt lat="45.27406" lon="6.08428">
        <ele>1268</ele>
        <time>2021-12-23T14:12:05Z</time>
      </trkpt>
      <trkpt lat="45.27406" lon="6.08428">
        <ele>1268</ele>
        <time>2021-12-23T14:12:06Z</time>
      </trkpt>
      <trkpt lat="45.27406" lon="6.08428">
        <ele>1268</ele>
        <time>2021-12-23T14:12:07Z</time>
      </trkpt>
      <trkpt lat="45.27406" lon="6.08428">
        <ele>1268</ele>
        <time>2021-12-23T14:12:08Z</time>
      </trkpt>
      <trkpt lat="45.27406" lon="6.08429">
        <ele>1268</ele>
        <time>2021-12-23T14:12:09Z</time>
      </trkpt>
      <trkpt lat="45.27406" lon="6.08429">
        <ele>1268</ele>
        <time>2021-12-23T14:12:10Z</time>
      </trkpt>
      <trkpt lat="45.27406" lon="6.08429">
        <ele>1268</ele>
        <time>2021-12-23T14:12:11Z</time>
      </trkpt>
      <trkpt lat="45.27406" lon="6.08429">
        <ele>1268</ele>
        <time>2021-12-23T14:12:12Z</time>
      </trkpt>
      <trkpt lat="45.27406" lon="6.08429">
        <ele>1268</ele>
        <time>2021-12-23T14:12:14Z</time>
      </trkpt>
      <trkpt lat="45.27406" lon="6.0843">
        <ele>1268</ele>
        <time>2021-12-23T14:12:15Z</time>
      </trkpt>
      <trkpt lat="45.27406" lon="6.0843">
        <ele>1268</ele>
        <time>2021-12-23T14:12:16Z</time>
      </trkpt>
      <trkpt lat="45.27406" lon="6.0843">
        <ele>1268</ele>
        <time>2021-12-23T14:12:17Z</time>
      </trkpt>
      <trkpt lat="45.27406" lon="6.0843">
        <ele>1268</ele>
        <time>2021-12-23T14:12:18Z</time>
      </trkpt>
      <trkpt lat="45.27405" lon="6.0843">
        <ele>1268</ele>
        <time>2021-12-23T14:12:19Z</time>
      </trkpt>
      <trkpt lat="45.27405" lon="6.08431">
        <ele>1268</ele>
        <time>2021-12-23T14:12:20Z</time>
      </trkpt>
      <trkpt lat="45.27405" lon="6.08431">
        <ele>1269</ele>
        <time>2021-12-23T14:12:21Z</time>
      </trkpt>
      <trkpt lat="45.27405" lon="6.08431">
        <ele>1269</ele>
        <time>2021-12-23T14:12:22Z</time>
      </trkpt>
      <trkpt lat="45.27405" lon="6.08431">
        <ele>1269</ele>
        <time>2021-12-23T14:12:23Z</time>
      </trkpt>
      <trkpt lat="45.27405" lon="6.08431">
        <ele>1269</ele>
        <time>2021-12-23T14:12:24Z</time>
      </trkpt>
      <trkpt lat="45.27405" lon="6.08432">
        <ele>1269</ele>
        <time>2021-12-23T14:12:25Z</time>
      </trkpt>
      <trkpt lat="45.27405" lon="6.08432">
        <ele>1268</ele>
        <time>2021-12-23T14:12:26Z</time>
      </trkpt>
      <trkpt lat="45.27405" lon="6.08432">
        <ele>1268</ele>
        <time>2021-12-23T14:12:27Z</time>
      </trkpt>
      <trkpt lat="45.27405" lon="6.08432">
        <ele>1268</ele>
        <time>2021-12-23T14:12:28Z</time>
      </trkpt>
      <trkpt lat="45.27405" lon="6.08433">
        <ele>1268</ele>
        <time>2021-12-23T14:12:29Z</time>
      </trkpt>
      <trkpt lat="45.27405" lon="6.08433">
        <ele>1268</ele>
        <time>2021-12-23T14:12:30Z</time>
      </trkpt>
      <trkpt lat="45.27405" lon="6.08433">
        <ele>1268</ele>
        <time>2021-12-23T14:12:31Z</time>
      </trkpt>
      <trkpt lat="45.27404" lon="6.08433">
        <ele>1268</ele>
        <time>2021-12-23T14:12:33Z</time>
      </trkpt>
      <trkpt lat="45.27404" lon="6.08433">
        <ele>1268</ele>
        <time>2021-12-23T14:12:34Z</time>
      </trkpt>
      <trkpt lat="45.27404" lon="6.08434">
        <ele>1268</ele>
        <time>2021-12-23T14:12:35Z</time>
      </trkpt>
      <trkpt lat="45.27404" lon="6.08434">
        <ele>1268</ele>
        <time>2021-12-23T14:12:36Z</time>
      </trkpt>
      <trkpt lat="45.27404" lon="6.08434">
        <ele>1268</ele>
        <time>2021-12-23T14:12:37Z</time>
      </trkpt>
      <trkpt lat="45.27404" lon="6.08434">
        <ele>1268</ele>
        <time>2021-12-23T14:12:38Z</time>
      </trkpt>
      <trkpt lat="45.27404" lon="6.08434">
        <ele>1268</ele>
        <time>2021-12-23T14:12:39Z</time>
      </trkpt>
      <trkpt lat="45.27404" lon="6.08435">
        <ele>1268</ele>
        <time>2021-12-23T14:12:40Z</time>
      </trkpt>
      <trkpt lat="45.27404" lon="6.08435">
        <ele>1268</ele>
        <time>2021-12-23T14:12:41Z</time>
      </trkpt>
      <trkpt lat="45.27404" lon="6.08435">
        <ele>1269</ele>
        <time>2021-12-23T14:12:42Z</time>
      </trkpt>
      <trkpt lat="45.27404" lon="6.08435">
        <ele>1269</ele>
        <time>2021-12-23T14:12:43Z</time>
      </trkpt>
      <trkpt lat="45.27404" lon="6.08435">
        <ele>1269</ele>
        <time>2021-12-23T14:12:44Z</time>
      </trkpt>
      <trkpt lat="45.27404" lon="6.08436">
        <ele>1269</ele>
        <time>2021-12-23T14:12:45Z</time>
      </trkpt>
      <trkpt lat="45.27403" lon="6.08436">
        <ele>1269</ele>
        <time>2021-12-23T14:12:46Z</time>
      </trkpt>
      <trkpt lat="45.27403" lon="6.08436">
        <ele>1268</ele>
        <time>2021-12-23T14:12:47Z</time>
      </trkpt>
      <trkpt lat="45.27404" lon="6.08437">
        <ele>1268</ele>
        <time>2021-12-23T14:12:48Z</time>
      </trkpt>
      <trkpt lat="45.27404" lon="6.08437">
        <ele>1268</ele>
        <time>2021-12-23T14:12:49Z</time>
      </trkpt>
      <trkpt lat="45.27404" lon="6.08438">
        <ele>1268</ele>
        <time>2021-12-23T14:12:50Z</time>
      </trkpt>
      <trkpt lat="45.27404" lon="6.08438">
        <ele>1269</ele>
        <time>2021-12-23T14:12:52Z</time>
      </trkpt>
      <trkpt lat="45.27405" lon="6.08439">
        <ele>1269</ele>
        <time>2021-12-23T14:12:53Z</time>
      </trkpt>
      <trkpt lat="45.27405" lon="6.0844">
        <ele>1269</ele>
        <time>2021-12-23T14:12:54Z</time>
      </trkpt>
      <trkpt lat="45.27405" lon="6.0844">
        <ele>1268</ele>
        <time>2021-12-23T14:12:55Z</time>
      </trkpt>
      <trkpt lat="45.27405" lon="6.08441">
        <ele>1268</ele>
        <time>2021-12-23T14:12:56Z</time>
      </trkpt>
      <trkpt lat="45.27406" lon="6.08442">
        <ele>1268</ele>
        <time>2021-12-23T14:12:57Z</time>
      </trkpt>
      <trkpt lat="45.27406" lon="6.08442">
        <ele>1268</ele>
        <time>2021-12-23T14:12:58Z</time>
      </trkpt>
      <trkpt lat="45.27406" lon="6.08443">
        <ele>1269</ele>
        <time>2021-12-23T14:12:59Z</time>
      </trkpt>
      <trkpt lat="45.27406" lon="6.08443">
        <ele>1269</ele>
        <time>2021-12-23T14:13:00Z</time>
      </trkpt>
      <trkpt lat="45.27407" lon="6.08444">
        <ele>1269</ele>
        <time>2021-12-23T14:13:01Z</time>
      </trkpt>
      <trkpt lat="45.27407" lon="6.08445">
        <ele>1269</ele>
        <time>2021-12-23T14:13:02Z</time>
      </trkpt>
      <trkpt lat="45.27407" lon="6.08445">
        <ele>1269</ele>
        <time>2021-12-23T14:13:03Z</time>
      </trkpt>
      <trkpt lat="45.27407" lon="6.08446">
        <ele>1268</ele>
        <time>2021-12-23T14:13:04Z</time>
      </trkpt>
      <trkpt lat="45.27408" lon="6.08446">
        <ele>1268</ele>
        <time>2021-12-23T14:13:05Z</time>
      </trkpt>
      <trkpt lat="45.27408" lon="6.08447">
        <ele>1268</ele>
        <time>2021-12-23T14:13:06Z</time>
      </trkpt>
      <trkpt lat="45.27408" lon="6.08448">
        <ele>1268</ele>
        <time>2021-12-23T14:13:07Z</time>
      </trkpt>
      <trkpt lat="45.27408" lon="6.08448">
        <ele>1268</ele>
        <time>2021-12-23T14:13:08Z</time>
      </trkpt>
      <trkpt lat="45.27409" lon="6.08448">
        <ele>1268</ele>
        <time>2021-12-23T14:13:09Z</time>
      </trkpt>
      <trkpt lat="45.27409" lon="6.08448">
        <ele>1268</ele>
        <time>2021-12-23T14:13:11Z</time>
      </trkpt>
      <trkpt lat="45.27409" lon="6.08448">
        <ele>1268</ele>
        <time>2021-12-23T14:13:12Z</time>
      </trkpt>
      <trkpt lat="45.2741" lon="6.08447">
        <ele>1268</ele>
        <time>2021-12-23T14:13:13Z</time>
      </trkpt>
      <trkpt lat="45.2741" lon="6.08447">
        <ele>1268</ele>
        <time>2021-12-23T14:13:14Z</time>
      </trkpt>
      <trkpt lat="45.2741" lon="6.08447">
        <ele>1268</ele>
        <time>2021-12-23T14:13:15Z</time>
      </trkpt>
      <trkpt lat="45.2741" lon="6.08447">
        <ele>1268</ele>
        <time>2021-12-23T14:13:16Z</time>
      </trkpt>
      <trkpt lat="45.27411" lon="6.08447">
        <ele>1268</ele>
        <time>2021-12-23T14:13:17Z</time>
      </trkpt>
      <trkpt lat="45.27411" lon="6.08447">
        <ele>1268</ele>
        <time>2021-12-23T14:13:18Z</time>
      </trkpt>
      <trkpt lat="45.27411" lon="6.08447">
        <ele>1268</ele>
        <time>2021-12-23T14:13:19Z</time>
      </trkpt>
      <trkpt lat="45.27412" lon="6.08447">
        <ele>1268</ele>
        <time>2021-12-23T14:13:20Z</time>
      </trkpt>
      <trkpt lat="45.27412" lon="6.08447">
        <ele>1268</ele>
        <time>2021-12-23T14:13:21Z</time>
      </trkpt>
      <trkpt lat="45.27412" lon="6.08447">
        <ele>1268</ele>
        <time>2021-12-23T14:13:22Z</time>
      </trkpt>
      <trkpt lat="45.27413" lon="6.08447">
        <ele>1268</ele>
        <time>2021-12-23T14:13:23Z</time>
      </trkpt>
      <trkpt lat="45.27413" lon="6.08447">
        <ele>1268</ele>
        <time>2021-12-23T14:13:24Z</time>
      </trkpt>
      <trkpt lat="45.27413" lon="6.08447">
        <ele>1268</ele>
        <time>2021-12-23T14:13:25Z</time>
      </trkpt>
      <trkpt lat="45.27414" lon="6.08447">
        <ele>1268</ele>
        <time>2021-12-23T14:13:26Z</time>
      </trkpt>
      <trkpt lat="45.27414" lon="6.08447">
        <ele>1268</ele>
        <time>2021-12-23T14:13:27Z</time>
      </trkpt>
      <trkpt lat="45.27414" lon="6.08447">
        <ele>1268</ele>
        <time>2021-12-23T14:13:28Z</time>
      </trkpt>
      <trkpt lat="45.27414" lon="6.08447">
        <ele>1268</ele>
        <time>2021-12-23T14:13:30Z</time>
      </trkpt>
      <trkpt lat="45.27415" lon="6.08447">
        <ele>1268</ele>
        <time>2021-12-23T14:13:31Z</time>
      </trkpt>
      <trkpt lat="45.27415" lon="6.08447">
        <ele>1268</ele>
        <time>2021-12-23T14:13:32Z</time>
      </trkpt>
      <trkpt lat="45.27415" lon="6.08447">
        <ele>1268</ele>
        <time>2021-12-23T14:13:33Z</time>
      </trkpt>
      <trkpt lat="45.27416" lon="6.08447">
        <ele>1268</ele>
        <time>2021-12-23T14:13:34Z</time>
      </trkpt>
      <trkpt lat="45.27416" lon="6.08447">
        <ele>1268</ele>
        <time>2021-12-23T14:13:35Z</time>
      </trkpt>
      <trkpt lat="45.27416" lon="6.08447">
        <ele>1268</ele>
        <time>2021-12-23T14:13:36Z</time>
      </trkpt>
      <trkpt lat="45.27417" lon="6.08447">
        <ele>1268</ele>
        <time>2021-12-23T14:13:37Z</time>
      </trkpt>
      <trkpt lat="45.27417" lon="6.08446">
        <ele>1268</ele>
        <time>2021-12-23T14:13:38Z</time>
      </trkpt>
      <trkpt lat="45.27417" lon="6.08446">
        <ele>1268</ele>
        <time>2021-12-23T14:13:39Z</time>
      </trkpt>
      <trkpt lat="45.27417" lon="6.08446">
        <ele>1268</ele>
        <time>2021-12-23T14:13:40Z</time>
      </trkpt>
      <trkpt lat="45.27417" lon="6.08446">
        <ele>1268</ele>
        <time>2021-12-23T14:13:41Z</time>
      </trkpt>
      <trkpt lat="45.27417" lon="6.08446">
        <ele>1268</ele>
        <time>2021-12-23T14:13:42Z</time>
      </trkpt>
      <trkpt lat="45.27416" lon="6.08446">
        <ele>1268</ele>
        <time>2021-12-23T14:13:43Z</time>
      </trkpt>
      <trkpt lat="45.27416" lon="6.08445">
        <ele>1268</ele>
        <time>2021-12-23T14:13:44Z</time>
      </trkpt>
      <trkpt lat="45.27416" lon="6.08445">
        <ele>1268</ele>
        <time>2021-12-23T14:13:45Z</time>
      </trkpt>
      <trkpt lat="45.27415" lon="6.08445">
        <ele>1268</ele>
        <time>2021-12-23T14:13:46Z</time>
      </trkpt>
      <trkpt lat="45.27415" lon="6.08445">
        <ele>1268</ele>
        <time>2021-12-23T14:13:47Z</time>
      </trkpt>
      <trkpt lat="45.27415" lon="6.08444">
        <ele>1268</ele>
        <time>2021-12-23T14:13:49Z</time>
      </trkpt>
      <trkpt lat="45.27414" lon="6.08444">
        <ele>1268</ele>
        <time>2021-12-23T14:13:50Z</time>
      </trkpt>
      <trkpt lat="45.27414" lon="6.08444">
        <ele>1268</ele>
        <time>2021-12-23T14:13:51Z</time>
      </trkpt>
      <trkpt lat="45.27414" lon="6.08444">
        <ele>1268</ele>
        <time>2021-12-23T14:13:52Z</time>
      </trkpt>
      <trkpt lat="45.27413" lon="6.08443">
        <ele>1268</ele>
        <time>2021-12-23T14:13:53Z</time>
      </trkpt>
      <trkpt lat="45.27413" lon="6.08443">
        <ele>1268</ele>
        <time>2021-12-23T14:13:54Z</time>
      </trkpt>
      <trkpt lat="45.27413" lon="6.08443">
        <ele>1268</ele>
        <time>2021-12-23T14:13:55Z</time>
      </trkpt>
      <trkpt lat="45.27412" lon="6.08442">
        <ele>1268</ele>
        <time>2021-12-23T14:13:56Z</time>
      </trkpt>
      <trkpt lat="45.27406" lon="6.08438">
        <ele>1268</ele>
        <time>2021-12-23T14:13:57Z</time>
      </trkpt>
      <trkpt lat="45.27405" lon="6.08438">
        <ele>1268</ele>
        <time>2021-12-23T14:13:58Z</time>
      </trkpt>
      <trkpt lat="45.27405" lon="6.08438">
        <ele>1268</ele>
        <time>2021-12-23T14:13:59Z</time>
      </trkpt>
      <trkpt lat="45.27404" lon="6.08438">
        <ele>1268</ele>
        <time>2021-12-23T14:14:00Z</time>
      </trkpt>
      <trkpt lat="45.27403" lon="6.08438">
        <ele>1268</ele>
        <time>2021-12-23T14:14:01Z</time>
      </trkpt>
      <trkpt lat="45.27402" lon="6.08437">
        <ele>1268</ele>
        <time>2021-12-23T14:14:02Z</time>
      </trkpt>
      <trkpt lat="45.27402" lon="6.08437">
        <ele>1268</ele>
        <time>2021-12-23T14:14:03Z</time>
      </trkpt>
      <trkpt lat="45.27401" lon="6.08437">
        <ele>1268</ele>
        <time>2021-12-23T14:14:04Z</time>
      </trkpt>
      <trkpt lat="45.274" lon="6.08437">
        <ele>1268</ele>
        <time>2021-12-23T14:14:05Z</time>
      </trkpt>
      <trkpt lat="45.27399" lon="6.08437">
        <ele>1268</ele>
        <time>2021-12-23T14:14:06Z</time>
      </trkpt>
      <trkpt lat="45.27399" lon="6.08436">
        <ele>1268</ele>
        <time>2021-12-23T14:14:07Z</time>
      </trkpt>
      <trkpt lat="45.27398" lon="6.08436">
        <ele>1268</ele>
        <time>2021-12-23T14:14:08Z</time>
      </trkpt>
      <trkpt lat="45.27397" lon="6.08435">
        <ele>1268</ele>
        <time>2021-12-23T14:14:09Z</time>
      </trkpt>
      <trkpt lat="45.27397" lon="6.08435">
        <ele>1268</ele>
        <time>2021-12-23T14:14:10Z</time>
      </trkpt>
      <trkpt lat="45.27396" lon="6.08434">
        <ele>1268</ele>
        <time>2021-12-23T14:14:11Z</time>
      </trkpt>
      <trkpt lat="45.27396" lon="6.08433">
        <ele>1268</ele>
        <time>2021-12-23T14:14:12Z</time>
      </trkpt>
      <trkpt lat="45.27395" lon="6.08432">
        <ele>1268</ele>
        <time>2021-12-23T14:14:13Z</time>
      </trkpt>
      <trkpt lat="45.27394" lon="6.08432">
        <ele>1268</ele>
        <time>2021-12-23T14:14:14Z</time>
      </trkpt>
      <trkpt lat="45.27394" lon="6.08431">
        <ele>1268</ele>
        <time>2021-12-23T14:14:15Z</time>
      </trkpt>
      <trkpt lat="45.27393" lon="6.0843">
        <ele>1268</ele>
        <time>2021-12-23T14:14:16Z</time>
      </trkpt>
      <trkpt lat="45.27393" lon="6.08429">
        <ele>1268</ele>
        <time>2021-12-23T14:14:17Z</time>
      </trkpt>
      <trkpt lat="45.27392" lon="6.08428">
        <ele>1268</ele>
        <time>2021-12-23T14:14:18Z</time>
      </trkpt>
      <trkpt lat="45.27392" lon="6.08428">
        <ele>1268</ele>
        <time>2021-12-23T14:14:19Z</time>
      </trkpt>
      <trkpt lat="45.27391" lon="6.08427">
        <ele>1268</ele>
        <time>2021-12-23T14:14:20Z</time>
      </trkpt>
      <trkpt lat="45.27392" lon="6.08427">
        <ele>1268</ele>
        <time>2021-12-23T14:14:21Z</time>
      </trkpt>
      <trkpt lat="45.27392" lon="6.08428">
        <ele>1268</ele>
        <time>2021-12-23T14:14:22Z</time>
      </trkpt>
      <trkpt lat="45.27393" lon="6.08428">
        <ele>1268</ele>
        <time>2021-12-23T14:14:23Z</time>
      </trkpt>
      <trkpt lat="45.27393" lon="6.08429">
        <ele>1268</ele>
        <time>2021-12-23T14:14:24Z</time>
      </trkpt>
      <trkpt lat="45.27394" lon="6.08429">
        <ele>1268</ele>
        <time>2021-12-23T14:14:25Z</time>
      </trkpt>
      <trkpt lat="45.27394" lon="6.08429">
        <ele>1268</ele>
        <time>2021-12-23T14:14:27Z</time>
      </trkpt>
      <trkpt lat="45.27395" lon="6.0843">
        <ele>1268</ele>
        <time>2021-12-23T14:14:28Z</time>
      </trkpt>
      <trkpt lat="45.27395" lon="6.0843">
        <ele>1268</ele>
        <time>2021-12-23T14:14:29Z</time>
      </trkpt>
      <trkpt lat="45.27396" lon="6.08431">
        <ele>1268</ele>
        <time>2021-12-23T14:14:30Z</time>
      </trkpt>
      <trkpt lat="45.27397" lon="6.08431">
        <ele>1268</ele>
        <time>2021-12-23T14:14:31Z</time>
      </trkpt>
      <trkpt lat="45.27397" lon="6.08432">
        <ele>1268</ele>
        <time>2021-12-23T14:14:32Z</time>
      </trkpt>
      <trkpt lat="45.27398" lon="6.08432">
        <ele>1268</ele>
        <time>2021-12-23T14:14:33Z</time>
      </trkpt>
      <trkpt lat="45.27398" lon="6.08432">
        <ele>1268</ele>
        <time>2021-12-23T14:14:34Z</time>
      </trkpt>
      <trkpt lat="45.27399" lon="6.08433">
        <ele>1268</ele>
        <time>2021-12-23T14:14:35Z</time>
      </trkpt>
      <trkpt lat="45.27399" lon="6.08433">
        <ele>1268</ele>
        <time>2021-12-23T14:14:36Z</time>
      </trkpt>
      <trkpt lat="45.274" lon="6.08434">
        <ele>1268</ele>
        <time>2021-12-23T14:14:37Z</time>
      </trkpt>
      <trkpt lat="45.27401" lon="6.08434">
        <ele>1268</ele>
        <time>2021-12-23T14:14:38Z</time>
      </trkpt>
      <trkpt lat="45.27401" lon="6.08435">
        <ele>1268</ele>
        <time>2021-12-23T14:14:39Z</time>
      </trkpt>
      <trkpt lat="45.27402" lon="6.08435">
        <ele>1268</ele>
        <time>2021-12-23T14:14:40Z</time>
      </trkpt>
      <trkpt lat="45.27402" lon="6.08435">
        <ele>1268</ele>
        <time>2021-12-23T14:14:41Z</time>
      </trkpt>
      <trkpt lat="45.27402" lon="6.08436">
        <ele>1268</ele>
        <time>2021-12-23T14:14:42Z</time>
      </trkpt>
      <trkpt lat="45.27402" lon="6.08436">
        <ele>1268</ele>
        <time>2021-12-23T14:14:43Z</time>
      </trkpt>
      <trkpt lat="45.27403" lon="6.08437">
        <ele>1268</ele>
        <time>2021-12-23T14:14:44Z</time>
      </trkpt>
      <trkpt lat="45.27403" lon="6.08437">
        <ele>1268</ele>
        <time>2021-12-23T14:14:46Z</time>
      </trkpt>
      <trkpt lat="45.27403" lon="6.08438">
        <ele>1268</ele>
        <time>2021-12-23T14:14:47Z</time>
      </trkpt>
      <trkpt lat="45.27403" lon="6.08438">
        <ele>1268</ele>
        <time>2021-12-23T14:14:48Z</time>
      </trkpt>
      <trkpt lat="45.27404" lon="6.08438">
        <ele>1268</ele>
        <time>2021-12-23T14:14:49Z</time>
      </trkpt>
      <trkpt lat="45.27404" lon="6.08439">
        <ele>1268</ele>
        <time>2021-12-23T14:14:50Z</time>
      </trkpt>
      <trkpt lat="45.27404" lon="6.08439">
        <ele>1268</ele>
        <time>2021-12-23T14:14:51Z</time>
      </trkpt>
      <trkpt lat="45.27404" lon="6.0844">
        <ele>1268</ele>
        <time>2021-12-23T14:14:52Z</time>
      </trkpt>
      <trkpt lat="45.27405" lon="6.0844">
        <ele>1268</ele>
        <time>2021-12-23T14:14:53Z</time>
      </trkpt>
      <trkpt lat="45.27405" lon="6.0844">
        <ele>1268</ele>
        <time>2021-12-23T14:14:54Z</time>
      </trkpt>
      <trkpt lat="45.27405" lon="6.08441">
        <ele>1268</ele>
        <time>2021-12-23T14:14:55Z</time>
      </trkpt>
      <trkpt lat="45.27405" lon="6.08441">
        <ele>1268</ele>
        <time>2021-12-23T14:14:56Z</time>
      </trkpt>
      <trkpt lat="45.27405" lon="6.08442">
        <ele>1268</ele>
        <time>2021-12-23T14:14:57Z</time>
      </trkpt>
      <trkpt lat="45.27406" lon="6.08442">
        <ele>1268</ele>
        <time>2021-12-23T14:14:58Z</time>
      </trkpt>
      <trkpt lat="45.27406" lon="6.08442">
        <ele>1268</ele>
        <time>2021-12-23T14:14:59Z</time>
      </trkpt>
      <trkpt lat="45.27406" lon="6.08443">
        <ele>1268</ele>
        <time>2021-12-23T14:15:00Z</time>
      </trkpt>
      <trkpt lat="45.27406" lon="6.08443">
        <ele>1268</ele>
        <time>2021-12-23T14:15:01Z</time>
      </trkpt>
      <trkpt lat="45.27407" lon="6.08444">
        <ele>1268</ele>
        <time>2021-12-23T14:15:02Z</time>
      </trkpt>
      <trkpt lat="45.27407" lon="6.08444">
        <ele>1268</ele>
        <time>2021-12-23T14:15:03Z</time>
      </trkpt>
      <trkpt lat="45.27407" lon="6.08444">
        <ele>1268</ele>
        <time>2021-12-23T14:15:05Z</time>
      </trkpt>
      <trkpt lat="45.27407" lon="6.08445">
        <ele>1268</ele>
        <time>2021-12-23T14:15:06Z</time>
      </trkpt>
      <trkpt lat="45.27407" lon="6.08445">
        <ele>1268</ele>
        <time>2021-12-23T14:15:07Z</time>
      </trkpt>
      <trkpt lat="45.27408" lon="6.08446">
        <ele>1268</ele>
        <time>2021-12-23T14:15:08Z</time>
      </trkpt>
      <trkpt lat="45.27408" lon="6.08446">
        <ele>1268</ele>
        <time>2021-12-23T14:15:09Z</time>
      </trkpt>
      <trkpt lat="45.27408" lon="6.08446">
        <ele>1268</ele>
        <time>2021-12-23T14:15:10Z</time>
      </trkpt>
      <trkpt lat="45.27408" lon="6.08445">
        <ele>1268</ele>
        <time>2021-12-23T14:15:11Z</time>
      </trkpt>
      <trkpt lat="45.27408" lon="6.08444">
        <ele>1268</ele>
        <time>2021-12-23T14:15:12Z</time>
      </trkpt>
      <trkpt lat="45.27408" lon="6.08443">
        <ele>1268</ele>
        <time>2021-12-23T14:15:13Z</time>
      </trkpt>
      <trkpt lat="45.27408" lon="6.08442">
        <ele>1268</ele>
        <time>2021-12-23T14:15:14Z</time>
      </trkpt>
      <trkpt lat="45.27409" lon="6.08441">
        <ele>1268</ele>
        <time>2021-12-23T14:15:15Z</time>
      </trkpt>
      <trkpt lat="45.27409" lon="6.0844">
        <ele>1268</ele>
        <time>2021-12-23T14:15:16Z</time>
      </trkpt>
      <trkpt lat="45.27409" lon="6.08439">
        <ele>1267</ele>
        <time>2021-12-23T14:15:17Z</time>
      </trkpt>
      <trkpt lat="45.27409" lon="6.08438">
        <ele>1267</ele>
        <time>2021-12-23T14:15:18Z</time>
      </trkpt>
      <trkpt lat="45.27409" lon="6.08437">
        <ele>1267</ele>
        <time>2021-12-23T14:15:19Z</time>
      </trkpt>
      <trkpt lat="45.27409" lon="6.08436">
        <ele>1267</ele>
        <time>2021-12-23T14:15:20Z</time>
      </trkpt>
      <trkpt lat="45.27409" lon="6.08435">
        <ele>1267</ele>
        <time>2021-12-23T14:15:21Z</time>
      </trkpt>
      <trkpt lat="45.27409" lon="6.08434">
        <ele>1267</ele>
        <time>2021-12-23T14:15:22Z</time>
      </trkpt>
      <trkpt lat="45.27409" lon="6.08433">
        <ele>1267</ele>
        <time>2021-12-23T14:15:24Z</time>
      </trkpt>
      <trkpt lat="45.27409" lon="6.08432">
        <ele>1267</ele>
        <time>2021-12-23T14:15:25Z</time>
      </trkpt>
      <trkpt lat="45.27409" lon="6.08431">
        <ele>1268</ele>
        <time>2021-12-23T14:15:26Z</time>
      </trkpt>
      <trkpt lat="45.27409" lon="6.0843">
        <ele>1268</ele>
        <time>2021-12-23T14:15:27Z</time>
      </trkpt>
      <trkpt lat="45.2741" lon="6.0843">
        <ele>1268</ele>
        <time>2021-12-23T14:15:28Z</time>
      </trkpt>
      <trkpt lat="45.2741" lon="6.08429">
        <ele>1268</ele>
        <time>2021-12-23T14:15:29Z</time>
      </trkpt>
      <trkpt lat="45.2741" lon="6.08428">
        <ele>1267</ele>
        <time>2021-12-23T14:15:30Z</time>
      </trkpt>
      <trkpt lat="45.2741" lon="6.08428">
        <ele>1267</ele>
        <time>2021-12-23T14:15:31Z</time>
      </trkpt>
      <trkpt lat="45.2741" lon="6.08427">
        <ele>1267</ele>
        <time>2021-12-23T14:15:32Z</time>
      </trkpt>
      <trkpt lat="45.27411" lon="6.08427">
        <ele>1267</ele>
        <time>2021-12-23T14:15:33Z</time>
      </trkpt>
      <trkpt lat="45.27411" lon="6.08426">
        <ele>1267</ele>
        <time>2021-12-23T14:15:34Z</time>
      </trkpt>
      <trkpt lat="45.27411" lon="6.08425">
        <ele>1267</ele>
        <time>2021-12-23T14:15:35Z</time>
      </trkpt>
      <trkpt lat="45.27411" lon="6.08425">
        <ele>1267</ele>
        <time>2021-12-23T14:15:36Z</time>
      </trkpt>
      <trkpt lat="45.27411" lon="6.08424">
        <ele>1267</ele>
        <time>2021-12-23T14:15:37Z</time>
      </trkpt>
      <trkpt lat="45.27412" lon="6.08424">
        <ele>1267</ele>
        <time>2021-12-23T14:15:38Z</time>
      </trkpt>
      <trkpt lat="45.27412" lon="6.08423">
        <ele>1267</ele>
        <time>2021-12-23T14:15:39Z</time>
      </trkpt>
      <trkpt lat="45.27412" lon="6.08422">
        <ele>1267</ele>
        <time>2021-12-23T14:15:40Z</time>
      </trkpt>
      <trkpt lat="45.27412" lon="6.08422">
        <ele>1267</ele>
        <time>2021-12-23T14:15:41Z</time>
      </trkpt>
      <trkpt lat="45.27412" lon="6.08421">
        <ele>1266</ele>
        <time>2021-12-23T14:15:43Z</time>
      </trkpt>
      <trkpt lat="45.27413" lon="6.0842">
        <ele>1265</ele>
        <time>2021-12-23T14:15:44Z</time>
      </trkpt>
      <trkpt lat="45.27413" lon="6.0842">
        <ele>1264</ele>
        <time>2021-12-23T14:15:45Z</time>
      </trkpt>
      <trkpt lat="45.27413" lon="6.08419">
        <ele>1263</ele>
        <time>2021-12-23T14:15:46Z</time>
      </trkpt>
      <trkpt lat="45.27413" lon="6.08419">
        <ele>1263</ele>
        <time>2021-12-23T14:15:47Z</time>
      </trkpt>
      <trkpt lat="45.27414" lon="6.08418">
        <ele>1262</ele>
        <time>2021-12-23T14:15:48Z</time>
      </trkpt>
      <trkpt lat="45.27415" lon="6.08417">
        <ele>1262</ele>
        <time>2021-12-23T14:15:49Z</time>
      </trkpt>
      <trkpt lat="45.27416" lon="6.08416">
        <ele>1261</ele>
        <time>2021-12-23T14:15:50Z</time>
      </trkpt>
      <trkpt lat="45.27417" lon="6.08416">
        <ele>1261</ele>
        <time>2021-12-23T14:15:51Z</time>
      </trkpt>
      <trkpt lat="45.27418" lon="6.08415">
        <ele>1260</ele>
        <time>2021-12-23T14:15:52Z</time>
      </trkpt>
      <trkpt lat="45.27419" lon="6.08414">
        <ele>1260</ele>
        <time>2021-12-23T14:15:53Z</time>
      </trkpt>
      <trkpt lat="45.2742" lon="6.08413">
        <ele>1259</ele>
        <time>2021-12-23T14:15:54Z</time>
      </trkpt>
      <trkpt lat="45.27421" lon="6.08413">
        <ele>1259</ele>
        <time>2021-12-23T14:15:55Z</time>
      </trkpt>
      <trkpt lat="45.2742" lon="6.08411">
        <ele>1258</ele>
        <time>2021-12-23T14:15:56Z</time>
      </trkpt>
      <trkpt lat="45.2742" lon="6.0841">
        <ele>1257</ele>
        <time>2021-12-23T14:15:57Z</time>
      </trkpt>
      <trkpt lat="45.27419" lon="6.08409">
        <ele>1256</ele>
        <time>2021-12-23T14:15:58Z</time>
      </trkpt>
      <trkpt lat="45.27419" lon="6.08408">
        <ele>1255</ele>
        <time>2021-12-23T14:15:59Z</time>
      </trkpt>
      <trkpt lat="45.27418" lon="6.08407">
        <ele>1255</ele>
        <time>2021-12-23T14:16:00Z</time>
      </trkpt>
      <trkpt lat="45.27418" lon="6.08406">
        <ele>1254</ele>
        <time>2021-12-23T14:16:02Z</time>
      </trkpt>
      <trkpt lat="45.27417" lon="6.08405">
        <ele>1254</ele>
        <time>2021-12-23T14:16:03Z</time>
      </trkpt>
      <trkpt lat="45.27416" lon="6.08404">
        <ele>1252</ele>
        <time>2021-12-23T14:16:04Z</time>
      </trkpt>
      <trkpt lat="45.27416" lon="6.08403">
        <ele>1251</ele>
        <time>2021-12-23T14:16:05Z</time>
      </trkpt>
      <trkpt lat="45.27416" lon="6.08402">
        <ele>1251</ele>
        <time>2021-12-23T14:16:06Z</time>
      </trkpt>
      <trkpt lat="45.27417" lon="6.08401">
        <ele>1251</ele>
        <time>2021-12-23T14:16:07Z</time>
      </trkpt>
      <trkpt lat="45.27417" lon="6.084">
        <ele>1251</ele>
        <time>2021-12-23T14:16:08Z</time>
      </trkpt>
      <trkpt lat="45.27418" lon="6.08399">
        <ele>1251</ele>
        <time>2021-12-23T14:16:09Z</time>
      </trkpt>
      <trkpt lat="45.27418" lon="6.08398">
        <ele>1251</ele>
        <time>2021-12-23T14:16:10Z</time>
      </trkpt>
      <trkpt lat="45.27419" lon="6.08397">
        <ele>1251</ele>
        <time>2021-12-23T14:16:11Z</time>
      </trkpt>
      <trkpt lat="45.27419" lon="6.08396">
        <ele>1251</ele>
        <time>2021-12-23T14:16:12Z</time>
      </trkpt>
      <trkpt lat="45.2742" lon="6.08395">
        <ele>1251</ele>
        <time>2021-12-23T14:16:13Z</time>
      </trkpt>
      <trkpt lat="45.2742" lon="6.08394">
        <ele>1251</ele>
        <time>2021-12-23T14:16:14Z</time>
      </trkpt>
      <trkpt lat="45.27421" lon="6.08392">
        <ele>1251</ele>
        <time>2021-12-23T14:16:15Z</time>
      </trkpt>
      <trkpt lat="45.27421" lon="6.08393">
        <ele>1251</ele>
        <time>2021-12-23T14:16:16Z</time>
      </trkpt>
      <trkpt lat="45.27422" lon="6.08393">
        <ele>1250</ele>
        <time>2021-12-23T14:16:17Z</time>
      </trkpt>
      <trkpt lat="45.27423" lon="6.08393">
        <ele>1250</ele>
        <time>2021-12-23T14:16:18Z</time>
      </trkpt>
      <trkpt lat="45.27424" lon="6.08393">
        <ele>1250</ele>
        <time>2021-12-23T14:16:19Z</time>
      </trkpt>
      <trkpt lat="45.27425" lon="6.08393">
        <ele>1250</ele>
        <time>2021-12-23T14:16:21Z</time>
      </trkpt>
      <trkpt lat="45.27425" lon="6.08393">
        <ele>1250</ele>
        <time>2021-12-23T14:16:22Z</time>
      </trkpt>
      <trkpt lat="45.27426" lon="6.08393">
        <ele>1250</ele>
        <time>2021-12-23T14:16:23Z</time>
      </trkpt>
      <trkpt lat="45.27427" lon="6.08394">
        <ele>1250</ele>
        <time>2021-12-23T14:16:24Z</time>
      </trkpt>
      <trkpt lat="45.27428" lon="6.08394">
        <ele>1249</ele>
        <time>2021-12-23T14:16:25Z</time>
      </trkpt>
      <trkpt lat="45.27429" lon="6.08394">
        <ele>1249</ele>
        <time>2021-12-23T14:16:26Z</time>
      </trkpt>
      <trkpt lat="45.27429" lon="6.08394">
        <ele>1248</ele>
        <time>2021-12-23T14:16:27Z</time>
      </trkpt>
      <trkpt lat="45.2743" lon="6.08394">
        <ele>1248</ele>
        <time>2021-12-23T14:16:28Z</time>
      </trkpt>
      <trkpt lat="45.27431" lon="6.08391">
        <ele>1247</ele>
        <time>2021-12-23T14:16:29Z</time>
      </trkpt>
      <trkpt lat="45.27431" lon="6.08388">
        <ele>1246</ele>
        <time>2021-12-23T14:16:30Z</time>
      </trkpt>
      <trkpt lat="45.27432" lon="6.08385">
        <ele>1246</ele>
        <time>2021-12-23T14:16:31Z</time>
      </trkpt>
      <trkpt lat="45.27432" lon="6.08382">
        <ele>1246</ele>
        <time>2021-12-23T14:16:32Z</time>
      </trkpt>
      <trkpt lat="45.27433" lon="6.08379">
        <ele>1245</ele>
        <time>2021-12-23T14:16:33Z</time>
      </trkpt>
      <trkpt lat="45.27434" lon="6.08376">
        <ele>1244</ele>
        <time>2021-12-23T14:16:34Z</time>
      </trkpt>
      <trkpt lat="45.27434" lon="6.08373">
        <ele>1244</ele>
        <time>2021-12-23T14:16:35Z</time>
      </trkpt>
      <trkpt lat="45.27435" lon="6.0837">
        <ele>1242</ele>
        <time>2021-12-23T14:16:36Z</time>
      </trkpt>
      <trkpt lat="45.27436" lon="6.08367">
        <ele>1241</ele>
        <time>2021-12-23T14:16:37Z</time>
      </trkpt>
      <trkpt lat="45.27437" lon="6.08365">
        <ele>1241</ele>
        <time>2021-12-23T14:16:38Z</time>
      </trkpt>
      <trkpt lat="45.27438" lon="6.08363">
        <ele>1241</ele>
        <time>2021-12-23T14:16:40Z</time>
      </trkpt>
      <trkpt lat="45.27439" lon="6.08361">
        <ele>1241</ele>
        <time>2021-12-23T14:16:41Z</time>
      </trkpt>
      <trkpt lat="45.27439" lon="6.08358">
        <ele>1241</ele>
        <time>2021-12-23T14:16:42Z</time>
      </trkpt>
      <trkpt lat="45.2744" lon="6.08356">
        <ele>1240</ele>
        <time>2021-12-23T14:16:43Z</time>
      </trkpt>
      <trkpt lat="45.27441" lon="6.08353">
        <ele>1239</ele>
        <time>2021-12-23T14:16:44Z</time>
      </trkpt>
      <trkpt lat="45.27442" lon="6.08351">
        <ele>1239</ele>
        <time>2021-12-23T14:16:45Z</time>
      </trkpt>
      <trkpt lat="45.27442" lon="6.08348">
        <ele>1238</ele>
        <time>2021-12-23T14:16:47Z</time>
      </trkpt>
      <trkpt lat="45.27443" lon="6.08346">
        <ele>1238</ele>
        <time>2021-12-23T14:16:48Z</time>
      </trkpt>
      <trkpt lat="45.27444" lon="6.08345">
        <ele>1238</ele>
        <time>2021-12-23T14:16:49Z</time>
      </trkpt>
      <trkpt lat="45.27444" lon="6.08343">
        <ele>1237</ele>
        <time>2021-12-23T14:16:50Z</time>
      </trkpt>
      <trkpt lat="45.27445" lon="6.08342">
        <ele>1236</ele>
        <time>2021-12-23T14:16:51Z</time>
      </trkpt>
      <trkpt lat="45.27445" lon="6.08341">
        <ele>1236</ele>
        <time>2021-12-23T14:16:52Z</time>
      </trkpt>
      <trkpt lat="45.27446" lon="6.08339">
        <ele>1235</ele>
        <time>2021-12-23T14:16:53Z</time>
      </trkpt>
      <trkpt lat="45.27447" lon="6.08338">
        <ele>1235</ele>
        <time>2021-12-23T14:16:54Z</time>
      </trkpt>
      <trkpt lat="45.27447" lon="6.08337">
        <ele>1235</ele>
        <time>2021-12-23T14:16:55Z</time>
      </trkpt>
      <trkpt lat="45.27448" lon="6.08335">
        <ele>1234</ele>
        <time>2021-12-23T14:16:56Z</time>
      </trkpt>
      <trkpt lat="45.27449" lon="6.08334">
        <ele>1234</ele>
        <time>2021-12-23T14:16:57Z</time>
      </trkpt>
      <trkpt lat="45.2745" lon="6.08332">
        <ele>1233</ele>
        <time>2021-12-23T14:16:59Z</time>
      </trkpt>
      <trkpt lat="45.27451" lon="6.08331">
        <ele>1233</ele>
        <time>2021-12-23T14:17:00Z</time>
      </trkpt>
      <trkpt lat="45.27451" lon="6.08329">
        <ele>1232</ele>
        <time>2021-12-23T14:17:01Z</time>
      </trkpt>
      <trkpt lat="45.27452" lon="6.08327">
        <ele>1232</ele>
        <time>2021-12-23T14:17:02Z</time>
      </trkpt>
      <trkpt lat="45.27453" lon="6.08326">
        <ele>1232</ele>
        <time>2021-12-23T14:17:03Z</time>
      </trkpt>
      <trkpt lat="45.27454" lon="6.08324">
        <ele>1232</ele>
        <time>2021-12-23T14:17:04Z</time>
      </trkpt>
      <trkpt lat="45.27455" lon="6.08323">
        <ele>1231</ele>
        <time>2021-12-23T14:17:05Z</time>
      </trkpt>
      <trkpt lat="45.27455" lon="6.08321">
        <ele>1230</ele>
        <time>2021-12-23T14:17:06Z</time>
      </trkpt>
      <trkpt lat="45.27455" lon="6.08319">
        <ele>1230</ele>
        <time>2021-12-23T14:17:07Z</time>
      </trkpt>
      <trkpt lat="45.27455" lon="6.08317">
        <ele>1229</ele>
        <time>2021-12-23T14:17:08Z</time>
      </trkpt>
      <trkpt lat="45.27455" lon="6.08315">
        <ele>1229</ele>
        <time>2021-12-23T14:17:09Z</time>
      </trkpt>
      <trkpt lat="45.27455" lon="6.08313">
        <ele>1228</ele>
        <time>2021-12-23T14:17:10Z</time>
      </trkpt>
      <trkpt lat="45.27455" lon="6.08312">
        <ele>1228</ele>
        <time>2021-12-23T14:17:11Z</time>
      </trkpt>
      <trkpt lat="45.27455" lon="6.0831">
        <ele>1227</ele>
        <time>2021-12-23T14:17:12Z</time>
      </trkpt>
      <trkpt lat="45.27455" lon="6.08308">
        <ele>1226</ele>
        <time>2021-12-23T14:17:13Z</time>
      </trkpt>
      <trkpt lat="45.27455" lon="6.08306">
        <ele>1225</ele>
        <time>2021-12-23T14:17:14Z</time>
      </trkpt>
      <trkpt lat="45.27455" lon="6.08304">
        <ele>1224</ele>
        <time>2021-12-23T14:17:15Z</time>
      </trkpt>
      <trkpt lat="45.27455" lon="6.08303">
        <ele>1223</ele>
        <time>2021-12-23T14:17:16Z</time>
      </trkpt>
      <trkpt lat="45.27454" lon="6.08301">
        <ele>1223</ele>
        <time>2021-12-23T14:17:17Z</time>
      </trkpt>
      <trkpt lat="45.27454" lon="6.08299">
        <ele>1222</ele>
        <time>2021-12-23T14:17:18Z</time>
      </trkpt>
      <trkpt lat="45.27449" lon="6.08294">
        <ele>1221</ele>
        <time>2021-12-23T14:17:19Z</time>
      </trkpt>
      <trkpt lat="45.27449" lon="6.08295">
        <ele>1221</ele>
        <time>2021-12-23T14:17:20Z</time>
      </trkpt>
      <trkpt lat="45.2745" lon="6.08296">
        <ele>1221</ele>
        <time>2021-12-23T14:17:21Z</time>
      </trkpt>
      <trkpt lat="45.2745" lon="6.08297">
        <ele>1221</ele>
        <time>2021-12-23T14:17:22Z</time>
      </trkpt>
      <trkpt lat="45.27451" lon="6.08297">
        <ele>1221</ele>
        <time>2021-12-23T14:17:23Z</time>
      </trkpt>
      <trkpt lat="45.27451" lon="6.08298">
        <ele>1221</ele>
        <time>2021-12-23T14:17:24Z</time>
      </trkpt>
      <trkpt lat="45.27452" lon="6.08299">
        <ele>1221</ele>
        <time>2021-12-23T14:17:25Z</time>
      </trkpt>
      <trkpt lat="45.27452" lon="6.08299">
        <ele>1221</ele>
        <time>2021-12-23T14:17:26Z</time>
      </trkpt>
      <trkpt lat="45.27453" lon="6.083">
        <ele>1221</ele>
        <time>2021-12-23T14:17:27Z</time>
      </trkpt>
      <trkpt lat="45.27456" lon="6.08304">
        <ele>1220</ele>
        <time>2021-12-23T14:17:28Z</time>
      </trkpt>
      <trkpt lat="45.27456" lon="6.08303">
        <ele>1220</ele>
        <time>2021-12-23T14:17:29Z</time>
      </trkpt>
      <trkpt lat="45.27456" lon="6.08302">
        <ele>1219</ele>
        <time>2021-12-23T14:17:30Z</time>
      </trkpt>
      <trkpt lat="45.27456" lon="6.08301">
        <ele>1219</ele>
        <time>2021-12-23T14:17:31Z</time>
      </trkpt>
      <trkpt lat="45.27456" lon="6.083">
        <ele>1219</ele>
        <time>2021-12-23T14:17:32Z</time>
      </trkpt>
      <trkpt lat="45.27456" lon="6.08299">
        <ele>1218</ele>
        <time>2021-12-23T14:17:33Z</time>
      </trkpt>
      <trkpt lat="45.27456" lon="6.08298">
        <ele>1218</ele>
        <time>2021-12-23T14:17:34Z</time>
      </trkpt>
      <trkpt lat="45.27455" lon="6.08297">
        <ele>1218</ele>
        <time>2021-12-23T14:17:35Z</time>
      </trkpt>
      <trkpt lat="45.27455" lon="6.08296">
        <ele>1218</ele>
        <time>2021-12-23T14:17:37Z</time>
      </trkpt>
      <trkpt lat="45.27455" lon="6.08295">
        <ele>1218</ele>
        <time>2021-12-23T14:17:38Z</time>
      </trkpt>
      <trkpt lat="45.27455" lon="6.08294">
        <ele>1218</ele>
        <time>2021-12-23T14:17:39Z</time>
      </trkpt>
      <trkpt lat="45.27455" lon="6.08293">
        <ele>1218</ele>
        <time>2021-12-23T14:17:40Z</time>
      </trkpt>
      <trkpt lat="45.27455" lon="6.08292">
        <ele>1218</ele>
        <time>2021-12-23T14:17:41Z</time>
      </trkpt>
      <trkpt lat="45.27455" lon="6.08292">
        <ele>1217</ele>
        <time>2021-12-23T14:17:42Z</time>
      </trkpt>
      <trkpt lat="45.27455" lon="6.08292">
        <ele>1216</ele>
        <time>2021-12-23T14:17:43Z</time>
      </trkpt>
      <trkpt lat="45.27455" lon="6.08291">
        <ele>1215</ele>
        <time>2021-12-23T14:17:44Z</time>
      </trkpt>
      <trkpt lat="45.27455" lon="6.08291">
        <ele>1215</ele>
        <time>2021-12-23T14:17:45Z</time>
      </trkpt>
      <trkpt lat="45.27455" lon="6.08291">
        <ele>1215</ele>
        <time>2021-12-23T14:17:46Z</time>
      </trkpt>
      <trkpt lat="45.27455" lon="6.08291">
        <ele>1215</ele>
        <time>2021-12-23T14:17:47Z</time>
      </trkpt>
      <trkpt lat="45.27455" lon="6.0829">
        <ele>1214</ele>
        <time>2021-12-23T14:17:48Z</time>
      </trkpt>
      <trkpt lat="45.27455" lon="6.0829">
        <ele>1214</ele>
        <time>2021-12-23T14:17:49Z</time>
      </trkpt>
      <trkpt lat="45.27455" lon="6.0829">
        <ele>1214</ele>
        <time>2021-12-23T14:17:50Z</time>
      </trkpt>
      <trkpt lat="45.27455" lon="6.08289">
        <ele>1214</ele>
        <time>2021-12-23T14:17:51Z</time>
      </trkpt>
      <trkpt lat="45.27455" lon="6.08289">
        <ele>1214</ele>
        <time>2021-12-23T14:17:52Z</time>
      </trkpt>
      <trkpt lat="45.27455" lon="6.08289">
        <ele>1214</ele>
        <time>2021-12-23T14:17:53Z</time>
      </trkpt>
      <trkpt lat="45.27455" lon="6.08288">
        <ele>1214</ele>
        <time>2021-12-23T14:17:54Z</time>
      </trkpt>
      <trkpt lat="45.27455" lon="6.08288">
        <ele>1214</ele>
        <time>2021-12-23T14:17:56Z</time>
      </trkpt>
      <trkpt lat="45.27455" lon="6.08288">
        <ele>1214</ele>
        <time>2021-12-23T14:17:57Z</time>
      </trkpt>
      <trkpt lat="45.27455" lon="6.08287">
        <ele>1214</ele>
        <time>2021-12-23T14:17:58Z</time>
      </trkpt>
      <trkpt lat="45.27455" lon="6.08287">
        <ele>1213</ele>
        <time>2021-12-23T14:17:59Z</time>
      </trkpt>
      <trkpt lat="45.27455" lon="6.08287">
        <ele>1213</ele>
        <time>2021-12-23T14:18:00Z</time>
      </trkpt>
      <trkpt lat="45.27455" lon="6.08287">
        <ele>1213</ele>
        <time>2021-12-23T14:18:01Z</time>
      </trkpt>
      <trkpt lat="45.27455" lon="6.08286">
        <ele>1213</ele>
        <time>2021-12-23T14:18:02Z</time>
      </trkpt>
      <trkpt lat="45.27455" lon="6.08286">
        <ele>1213</ele>
        <time>2021-12-23T14:18:03Z</time>
      </trkpt>
      <trkpt lat="45.27455" lon="6.08286">
        <ele>1213</ele>
        <time>2021-12-23T14:18:04Z</time>
      </trkpt>
      <trkpt lat="45.27455" lon="6.08285">
        <ele>1213</ele>
        <time>2021-12-23T14:18:05Z</time>
      </trkpt>
      <trkpt lat="45.27455" lon="6.08285">
        <ele>1213</ele>
        <time>2021-12-23T14:18:06Z</time>
      </trkpt>
      <trkpt lat="45.27455" lon="6.08285">
        <ele>1213</ele>
        <time>2021-12-23T14:18:07Z</time>
      </trkpt>
      <trkpt lat="45.27455" lon="6.08284">
        <ele>1213</ele>
        <time>2021-12-23T14:18:08Z</time>
      </trkpt>
      <trkpt lat="45.27455" lon="6.08284">
        <ele>1213</ele>
        <time>2021-12-23T14:18:09Z</time>
      </trkpt>
      <trkpt lat="45.27455" lon="6.08284">
        <ele>1213</ele>
        <time>2021-12-23T14:18:10Z</time>
      </trkpt>
      <trkpt lat="45.27455" lon="6.08283">
        <ele>1213</ele>
        <time>2021-12-23T14:18:11Z</time>
      </trkpt>
      <trkpt lat="45.27455" lon="6.08283">
        <ele>1213</ele>
        <time>2021-12-23T14:18:12Z</time>
      </trkpt>
      <trkpt lat="45.27455" lon="6.08283">
        <ele>1212</ele>
        <time>2021-12-23T14:18:13Z</time>
      </trkpt>
      <trkpt lat="45.27455" lon="6.08283">
        <ele>1210</ele>
        <time>2021-12-23T14:18:15Z</time>
      </trkpt>
      <trkpt lat="45.27455" lon="6.08282">
        <ele>1210</ele>
        <time>2021-12-23T14:18:16Z</time>
      </trkpt>
      <trkpt lat="45.27455" lon="6.08282">
        <ele>1209</ele>
        <time>2021-12-23T14:18:17Z</time>
      </trkpt>
      <trkpt lat="45.27454" lon="6.08282">
        <ele>1208</ele>
        <time>2021-12-23T14:18:18Z</time>
      </trkpt>
      <trkpt lat="45.27452" lon="6.08282">
        <ele>1206</ele>
        <time>2021-12-23T14:18:20Z</time>
      </trkpt>
      <trkpt lat="45.27451" lon="6.08282">
        <ele>1205</ele>
        <time>2021-12-23T14:18:21Z</time>
      </trkpt>
      <trkpt lat="45.27445" lon="6.08282">
        <ele>1204</ele>
        <time>2021-12-23T14:18:22Z</time>
      </trkpt>
      <trkpt lat="45.27444" lon="6.08281">
        <ele>1204</ele>
        <time>2021-12-23T14:18:23Z</time>
      </trkpt>
      <trkpt lat="45.27443" lon="6.0828">
        <ele>1203</ele>
        <time>2021-12-23T14:18:24Z</time>
      </trkpt>
      <trkpt lat="45.27443" lon="6.08279">
        <ele>1203</ele>
        <time>2021-12-23T14:18:25Z</time>
      </trkpt>
      <trkpt lat="45.27442" lon="6.08278">
        <ele>1203</ele>
        <time>2021-12-23T14:18:26Z</time>
      </trkpt>
      <trkpt lat="45.27441" lon="6.08278">
        <ele>1203</ele>
        <time>2021-12-23T14:18:27Z</time>
      </trkpt>
      <trkpt lat="45.2744" lon="6.08277">
        <ele>1202</ele>
        <time>2021-12-23T14:18:28Z</time>
      </trkpt>
      <trkpt lat="45.2744" lon="6.08276">
        <ele>1201</ele>
        <time>2021-12-23T14:18:29Z</time>
      </trkpt>
      <trkpt lat="45.27428" lon="6.08266">
        <ele>1200</ele>
        <time>2021-12-23T14:18:30Z</time>
      </trkpt>
      <trkpt lat="45.27423" lon="6.08264">
        <ele>1200</ele>
        <time>2021-12-23T14:18:31Z</time>
      </trkpt>
      <trkpt lat="45.27417" lon="6.08262">
        <ele>1197</ele>
        <time>2021-12-23T14:18:32Z</time>
      </trkpt>
      <trkpt lat="45.27415" lon="6.08261">
        <ele>1196</ele>
        <time>2021-12-23T14:18:34Z</time>
      </trkpt>
      <trkpt lat="45.27413" lon="6.08259">
        <ele>1195</ele>
        <time>2021-12-23T14:18:35Z</time>
      </trkpt>
      <trkpt lat="45.27407" lon="6.08254">
        <ele>1194</ele>
        <time>2021-12-23T14:18:36Z</time>
      </trkpt>
      <trkpt lat="45.27407" lon="6.08252">
        <ele>1194</ele>
        <time>2021-12-23T14:18:37Z</time>
      </trkpt>
      <trkpt lat="45.27406" lon="6.08249">
        <ele>1194</ele>
        <time>2021-12-23T14:18:38Z</time>
      </trkpt>
      <trkpt lat="45.27405" lon="6.08247">
        <ele>1194</ele>
        <time>2021-12-23T14:18:39Z</time>
      </trkpt>
      <trkpt lat="45.27405" lon="6.08244">
        <ele>1194</ele>
        <time>2021-12-23T14:18:40Z</time>
      </trkpt>
      <trkpt lat="45.27406" lon="6.0824">
        <ele>1194</ele>
        <time>2021-12-23T14:18:41Z</time>
      </trkpt>
      <trkpt lat="45.27407" lon="6.08236">
        <ele>1194</ele>
        <time>2021-12-23T14:18:42Z</time>
      </trkpt>
      <trkpt lat="45.27408" lon="6.08232">
        <ele>1194</ele>
        <time>2021-12-23T14:18:43Z</time>
      </trkpt>
      <trkpt lat="45.27409" lon="6.08229">
        <ele>1193</ele>
        <time>2021-12-23T14:18:44Z</time>
      </trkpt>
      <trkpt lat="45.2741" lon="6.08227">
        <ele>1192</ele>
        <time>2021-12-23T14:18:45Z</time>
      </trkpt>
      <trkpt lat="45.27411" lon="6.08224">
        <ele>1191</ele>
        <time>2021-12-23T14:18:46Z</time>
      </trkpt>
      <trkpt lat="45.27412" lon="6.08222">
        <ele>1191</ele>
        <time>2021-12-23T14:18:47Z</time>
      </trkpt>
      <trkpt lat="45.27413" lon="6.08219">
        <ele>1191</ele>
        <time>2021-12-23T14:18:48Z</time>
      </trkpt>
      <trkpt lat="45.27414" lon="6.08217">
        <ele>1189</ele>
        <time>2021-12-23T14:18:49Z</time>
      </trkpt>
      <trkpt lat="45.27413" lon="6.08216">
        <ele>1189</ele>
        <time>2021-12-23T14:18:50Z</time>
      </trkpt>
      <trkpt lat="45.27412" lon="6.08215">
        <ele>1189</ele>
        <time>2021-12-23T14:18:51Z</time>
      </trkpt>
      <trkpt lat="45.27411" lon="6.08215">
        <ele>1188</ele>
        <time>2021-12-23T14:18:53Z</time>
      </trkpt>
      <trkpt lat="45.2741" lon="6.08214">
        <ele>1188</ele>
        <time>2021-12-23T14:18:54Z</time>
      </trkpt>
      <trkpt lat="45.27408" lon="6.08213">
        <ele>1188</ele>
        <time>2021-12-23T14:18:55Z</time>
      </trkpt>
      <trkpt lat="45.27407" lon="6.08213">
        <ele>1188</ele>
        <time>2021-12-23T14:18:56Z</time>
      </trkpt>
      <trkpt lat="45.27406" lon="6.08212">
        <ele>1188</ele>
        <time>2021-12-23T14:18:57Z</time>
      </trkpt>
      <trkpt lat="45.27406" lon="6.0821">
        <ele>1188</ele>
        <time>2021-12-23T14:18:58Z</time>
      </trkpt>
      <trkpt lat="45.27405" lon="6.08209">
        <ele>1188</ele>
        <time>2021-12-23T14:18:59Z</time>
      </trkpt>
      <trkpt lat="45.27405" lon="6.08207">
        <ele>1188</ele>
        <time>2021-12-23T14:19:00Z</time>
      </trkpt>
      <trkpt lat="45.27405" lon="6.08206">
        <ele>1188</ele>
        <time>2021-12-23T14:19:01Z</time>
      </trkpt>
      <trkpt lat="45.27404" lon="6.08204">
        <ele>1188</ele>
        <time>2021-12-23T14:19:02Z</time>
      </trkpt>
      <trkpt lat="45.27404" lon="6.08203">
        <ele>1188</ele>
        <time>2021-12-23T14:19:03Z</time>
      </trkpt>
      <trkpt lat="45.27404" lon="6.08201">
        <ele>1188</ele>
        <time>2021-12-23T14:19:04Z</time>
      </trkpt>
      <trkpt lat="45.27404" lon="6.082">
        <ele>1188</ele>
        <time>2021-12-23T14:19:05Z</time>
      </trkpt>
      <trkpt lat="45.27403" lon="6.08198">
        <ele>1188</ele>
        <time>2021-12-23T14:19:06Z</time>
      </trkpt>
      <trkpt lat="45.27403" lon="6.08198">
        <ele>1187</ele>
        <time>2021-12-23T14:19:07Z</time>
      </trkpt>
      <trkpt lat="45.27403" lon="6.08198">
        <ele>1186</ele>
        <time>2021-12-23T14:19:08Z</time>
      </trkpt>
      <trkpt lat="45.27403" lon="6.08198">
        <ele>1186</ele>
        <time>2021-12-23T14:19:09Z</time>
      </trkpt>
      <trkpt lat="45.27403" lon="6.08198">
        <ele>1186</ele>
        <time>2021-12-23T14:19:10Z</time>
      </trkpt>
      <trkpt lat="45.27412" lon="6.08196">
        <ele>1186</ele>
        <time>2021-12-23T14:19:12Z</time>
      </trkpt>
      <trkpt lat="45.27412" lon="6.08195">
        <ele>1186</ele>
        <time>2021-12-23T14:19:13Z</time>
      </trkpt>
      <trkpt lat="45.27412" lon="6.08195">
        <ele>1185</ele>
        <time>2021-12-23T14:19:14Z</time>
      </trkpt>
      <trkpt lat="45.27412" lon="6.08194">
        <ele>1185</ele>
        <time>2021-12-23T14:19:15Z</time>
      </trkpt>
      <trkpt lat="45.27412" lon="6.08193">
        <ele>1185</ele>
        <time>2021-12-23T14:19:16Z</time>
      </trkpt>
      <trkpt lat="45.27412" lon="6.08193">
        <ele>1185</ele>
        <time>2021-12-23T14:19:17Z</time>
      </trkpt>
      <trkpt lat="45.27413" lon="6.08192">
        <ele>1185</ele>
        <time>2021-12-23T14:19:18Z</time>
      </trkpt>
      <trkpt lat="45.27413" lon="6.08191">
        <ele>1185</ele>
        <time>2021-12-23T14:19:19Z</time>
      </trkpt>
      <trkpt lat="45.27413" lon="6.08191">
        <ele>1185</ele>
        <time>2021-12-23T14:19:20Z</time>
      </trkpt>
      <trkpt lat="45.27413" lon="6.0819">
        <ele>1185</ele>
        <time>2021-12-23T14:19:21Z</time>
      </trkpt>
      <trkpt lat="45.27413" lon="6.08189">
        <ele>1185</ele>
        <time>2021-12-23T14:19:22Z</time>
      </trkpt>
      <trkpt lat="45.27413" lon="6.08188">
        <ele>1185</ele>
        <time>2021-12-23T14:19:23Z</time>
      </trkpt>
      <trkpt lat="45.27413" lon="6.08188">
        <ele>1186</ele>
        <time>2021-12-23T14:19:24Z</time>
      </trkpt>
      <trkpt lat="45.27413" lon="6.08187">
        <ele>1186</ele>
        <time>2021-12-23T14:19:25Z</time>
      </trkpt>
      <trkpt lat="45.27414" lon="6.08178">
        <ele>1186</ele>
        <time>2021-12-23T14:19:26Z</time>
      </trkpt>
      <trkpt lat="45.27415" lon="6.08178">
        <ele>1186</ele>
        <time>2021-12-23T14:19:27Z</time>
      </trkpt>
      <trkpt lat="45.27416" lon="6.08177">
        <ele>1186</ele>
        <time>2021-12-23T14:19:28Z</time>
      </trkpt>
      <trkpt lat="45.27417" lon="6.08177">
        <ele>1186</ele>
        <time>2021-12-23T14:19:29Z</time>
      </trkpt>
      <trkpt lat="45.27418" lon="6.08177">
        <ele>1186</ele>
        <time>2021-12-23T14:19:31Z</time>
      </trkpt>
      <trkpt lat="45.27419" lon="6.08177">
        <ele>1185</ele>
        <time>2021-12-23T14:19:32Z</time>
      </trkpt>
      <trkpt lat="45.2742" lon="6.08177">
        <ele>1185</ele>
        <time>2021-12-23T14:19:33Z</time>
      </trkpt>
      <trkpt lat="45.27421" lon="6.08177">
        <ele>1185</ele>
        <time>2021-12-23T14:19:34Z</time>
      </trkpt>
      <trkpt lat="45.27422" lon="6.08177">
        <ele>1185</ele>
        <time>2021-12-23T14:19:35Z</time>
      </trkpt>
      <trkpt lat="45.27423" lon="6.08177">
        <ele>1185</ele>
        <time>2021-12-23T14:19:36Z</time>
      </trkpt>
      <trkpt lat="45.27424" lon="6.08176">
        <ele>1185</ele>
        <time>2021-12-23T14:19:37Z</time>
      </trkpt>
      <trkpt lat="45.27425" lon="6.08175">
        <ele>1185</ele>
        <time>2021-12-23T14:19:38Z</time>
      </trkpt>
      <trkpt lat="45.27425" lon="6.08174">
        <ele>1185</ele>
        <time>2021-12-23T14:19:39Z</time>
      </trkpt>
      <trkpt lat="45.27426" lon="6.08174">
        <ele>1185</ele>
        <time>2021-12-23T14:19:40Z</time>
      </trkpt>
      <trkpt lat="45.27427" lon="6.08173">
        <ele>1185</ele>
        <time>2021-12-23T14:19:41Z</time>
      </trkpt>
      <trkpt lat="45.27428" lon="6.08172">
        <ele>1185</ele>
        <time>2021-12-23T14:19:42Z</time>
      </trkpt>
      <trkpt lat="45.27428" lon="6.08172">
        <ele>1185</ele>
        <time>2021-12-23T14:19:43Z</time>
      </trkpt>
      <trkpt lat="45.27429" lon="6.08171">
        <ele>1184</ele>
        <time>2021-12-23T14:19:44Z</time>
      </trkpt>
      <trkpt lat="45.2743" lon="6.0817">
        <ele>1183</ele>
        <time>2021-12-23T14:19:45Z</time>
      </trkpt>
      <trkpt lat="45.2743" lon="6.0817">
        <ele>1182</ele>
        <time>2021-12-23T14:19:46Z</time>
      </trkpt>
      <trkpt lat="45.27437" lon="6.08162">
        <ele>1182</ele>
        <time>2021-12-23T14:19:47Z</time>
      </trkpt>
      <trkpt lat="45.27436" lon="6.08162">
        <ele>1182</ele>
        <time>2021-12-23T14:19:48Z</time>
      </trkpt>
      <trkpt lat="45.27435" lon="6.08162">
        <ele>1183</ele>
        <time>2021-12-23T14:19:50Z</time>
      </trkpt>
      <trkpt lat="45.27434" lon="6.08161">
        <ele>1183</ele>
        <time>2021-12-23T14:19:51Z</time>
      </trkpt>
      <trkpt lat="45.27433" lon="6.08161">
        <ele>1182</ele>
        <time>2021-12-23T14:19:52Z</time>
      </trkpt>
      <trkpt lat="45.27432" lon="6.0816">
        <ele>1181</ele>
        <time>2021-12-23T14:19:53Z</time>
      </trkpt>
      <trkpt lat="45.27431" lon="6.0816">
        <ele>1181</ele>
        <time>2021-12-23T14:19:54Z</time>
      </trkpt>
      <trkpt lat="45.27431" lon="6.0816">
        <ele>1181</ele>
        <time>2021-12-23T14:19:55Z</time>
      </trkpt>
      <trkpt lat="45.2743" lon="6.08159">
        <ele>1181</ele>
        <time>2021-12-23T14:19:56Z</time>
      </trkpt>
      <trkpt lat="45.27429" lon="6.08159">
        <ele>1181</ele>
        <time>2021-12-23T14:19:57Z</time>
      </trkpt>
      <trkpt lat="45.27429" lon="6.08158">
        <ele>1181</ele>
        <time>2021-12-23T14:19:58Z</time>
      </trkpt>
      <trkpt lat="45.27429" lon="6.08157">
        <ele>1181</ele>
        <time>2021-12-23T14:19:59Z</time>
      </trkpt>
      <trkpt lat="45.2743" lon="6.08157">
        <ele>1181</ele>
        <time>2021-12-23T14:20:00Z</time>
      </trkpt>
      <trkpt lat="45.2743" lon="6.08156">
        <ele>1181</ele>
        <time>2021-12-23T14:20:01Z</time>
      </trkpt>
      <trkpt lat="45.2743" lon="6.08155">
        <ele>1181</ele>
        <time>2021-12-23T14:20:02Z</time>
      </trkpt>
      <trkpt lat="45.2743" lon="6.08154">
        <ele>1181</ele>
        <time>2021-12-23T14:20:03Z</time>
      </trkpt>
      <trkpt lat="45.27431" lon="6.08153">
        <ele>1180</ele>
        <time>2021-12-23T14:20:04Z</time>
      </trkpt>
      <trkpt lat="45.27431" lon="6.08152">
        <ele>1180</ele>
        <time>2021-12-23T14:20:05Z</time>
      </trkpt>
      <trkpt lat="45.27433" lon="6.08142">
        <ele>1180</ele>
        <time>2021-12-23T14:20:06Z</time>
      </trkpt>
      <trkpt lat="45.27433" lon="6.08139">
        <ele>1180</ele>
        <time>2021-12-23T14:20:07Z</time>
      </trkpt>
      <trkpt lat="45.27434" lon="6.08135">
        <ele>1180</ele>
        <time>2021-12-23T14:20:09Z</time>
      </trkpt>
      <trkpt lat="45.27434" lon="6.08132">
        <ele>1180</ele>
        <time>2021-12-23T14:20:10Z</time>
      </trkpt>
      <trkpt lat="45.27434" lon="6.08131">
        <ele>1180</ele>
        <time>2021-12-23T14:20:11Z</time>
      </trkpt>
      <trkpt lat="45.27435" lon="6.0813">
        <ele>1180</ele>
        <time>2021-12-23T14:20:12Z</time>
      </trkpt>
      <trkpt lat="45.27436" lon="6.08129">
        <ele>1180</ele>
        <time>2021-12-23T14:20:13Z</time>
      </trkpt>
      <trkpt lat="45.27436" lon="6.08129">
        <ele>1179</ele>
        <time>2021-12-23T14:20:14Z</time>
      </trkpt>
      <trkpt lat="45.27437" lon="6.08128">
        <ele>1179</ele>
        <time>2021-12-23T14:20:15Z</time>
      </trkpt>
      <trkpt lat="45.27438" lon="6.08127">
        <ele>1179</ele>
        <time>2021-12-23T14:20:16Z</time>
      </trkpt>
      <trkpt lat="45.27443" lon="6.08119">
        <ele>1178</ele>
        <time>2021-12-23T14:20:17Z</time>
      </trkpt>
      <trkpt lat="45.27443" lon="6.08116">
        <ele>1177</ele>
        <time>2021-12-23T14:20:18Z</time>
      </trkpt>
      <trkpt lat="45.27444" lon="6.08113">
        <ele>1177</ele>
        <time>2021-12-23T14:20:19Z</time>
      </trkpt>
      <trkpt lat="45.27448" lon="6.08104">
        <ele>1176</ele>
        <time>2021-12-23T14:20:20Z</time>
      </trkpt>
      <trkpt lat="45.27449" lon="6.08102">
        <ele>1176</ele>
        <time>2021-12-23T14:20:21Z</time>
      </trkpt>
      <trkpt lat="45.2745" lon="6.08101">
        <ele>1176</ele>
        <time>2021-12-23T14:20:22Z</time>
      </trkpt>
      <trkpt lat="45.27451" lon="6.08099">
        <ele>1177</ele>
        <time>2021-12-23T14:20:23Z</time>
      </trkpt>
      <trkpt lat="45.27454" lon="6.08091">
        <ele>1177</ele>
        <time>2021-12-23T14:20:24Z</time>
      </trkpt>
      <trkpt lat="45.27454" lon="6.08088">
        <ele>1177</ele>
        <time>2021-12-23T14:20:25Z</time>
      </trkpt>
      <trkpt lat="45.27454" lon="6.08085">
        <ele>1177</ele>
        <time>2021-12-23T14:20:26Z</time>
      </trkpt>
      <trkpt lat="45.27454" lon="6.08082">
        <ele>1177</ele>
        <time>2021-12-23T14:20:28Z</time>
      </trkpt>
      <trkpt lat="45.27454" lon="6.08079">
        <ele>1177</ele>
        <time>2021-12-23T14:20:29Z</time>
      </trkpt>
      <trkpt lat="45.27454" lon="6.08076">
        <ele>1178</ele>
        <time>2021-12-23T14:20:30Z</time>
      </trkpt>
      <trkpt lat="45.27456" lon="6.08075">
        <ele>1178</ele>
        <time>2021-12-23T14:20:31Z</time>
      </trkpt>
      <trkpt lat="45.27457" lon="6.08075">
        <ele>1178</ele>
        <time>2021-12-23T14:20:32Z</time>
      </trkpt>
      <trkpt lat="45.27458" lon="6.08074">
        <ele>1178</ele>
        <time>2021-12-23T14:20:33Z</time>
      </trkpt>
      <trkpt lat="45.27459" lon="6.08073">
        <ele>1178</ele>
        <time>2021-12-23T14:20:34Z</time>
      </trkpt>
      <trkpt lat="45.2746" lon="6.08072">
        <ele>1178</ele>
        <time>2021-12-23T14:20:35Z</time>
      </trkpt>
      <trkpt lat="45.27462" lon="6.08071">
        <ele>1178</ele>
        <time>2021-12-23T14:20:36Z</time>
      </trkpt>
      <trkpt lat="45.27463" lon="6.08071">
        <ele>1177</ele>
        <time>2021-12-23T14:20:37Z</time>
      </trkpt>
      <trkpt lat="45.27464" lon="6.0807">
        <ele>1177</ele>
        <time>2021-12-23T14:20:38Z</time>
      </trkpt>
      <trkpt lat="45.27465" lon="6.08069">
        <ele>1177</ele>
        <time>2021-12-23T14:20:39Z</time>
      </trkpt>
      <trkpt lat="45.27466" lon="6.08068">
        <ele>1177</ele>
        <time>2021-12-23T14:20:40Z</time>
      </trkpt>
      <trkpt lat="45.27468" lon="6.08067">
        <ele>1178</ele>
        <time>2021-12-23T14:20:41Z</time>
      </trkpt>
      <trkpt lat="45.27469" lon="6.08066">
        <ele>1178</ele>
        <time>2021-12-23T14:20:42Z</time>
      </trkpt>
      <trkpt lat="45.2747" lon="6.08066">
        <ele>1178</ele>
        <time>2021-12-23T14:20:44Z</time>
      </trkpt>
      <trkpt lat="45.2747" lon="6.08066">
        <ele>1178</ele>
        <time>2021-12-23T14:20:45Z</time>
      </trkpt>
      <trkpt lat="45.27464" lon="6.08055">
        <ele>1177</ele>
        <time>2021-12-23T14:20:47Z</time>
      </trkpt>
      <trkpt lat="45.27465" lon="6.08054">
        <ele>1177</ele>
        <time>2021-12-23T14:20:48Z</time>
      </trkpt>
      <trkpt lat="45.27466" lon="6.08053">
        <ele>1177</ele>
        <time>2021-12-23T14:20:49Z</time>
      </trkpt>
      <trkpt lat="45.27466" lon="6.08052">
        <ele>1177</ele>
        <time>2021-12-23T14:20:50Z</time>
      </trkpt>
      <trkpt lat="45.27467" lon="6.08051">
        <ele>1177</ele>
        <time>2021-12-23T14:20:51Z</time>
      </trkpt>
      <trkpt lat="45.27468" lon="6.0805">
        <ele>1177</ele>
        <time>2021-12-23T14:20:52Z</time>
      </trkpt>
      <trkpt lat="45.27469" lon="6.08049">
        <ele>1178</ele>
        <time>2021-12-23T14:20:53Z</time>
      </trkpt>
      <trkpt lat="45.2747" lon="6.08047">
        <ele>1178</ele>
        <time>2021-12-23T14:20:54Z</time>
      </trkpt>
      <trkpt lat="45.2747" lon="6.08046">
        <ele>1177</ele>
        <time>2021-12-23T14:20:55Z</time>
      </trkpt>
      <trkpt lat="45.27478" lon="6.08034">
        <ele>1177</ele>
        <time>2021-12-23T14:20:56Z</time>
      </trkpt>
      <trkpt lat="45.27479" lon="6.08031">
        <ele>1177</ele>
        <time>2021-12-23T14:20:57Z</time>
      </trkpt>
      <trkpt lat="45.27481" lon="6.08028">
        <ele>1177</ele>
        <time>2021-12-23T14:20:58Z</time>
      </trkpt>
      <trkpt lat="45.27482" lon="6.08025">
        <ele>1176</ele>
        <time>2021-12-23T14:20:59Z</time>
      </trkpt>
      <trkpt lat="45.27485" lon="6.0802">
        <ele>1176</ele>
        <time>2021-12-23T14:21:00Z</time>
      </trkpt>
      <trkpt lat="45.27488" lon="6.08016">
        <ele>1176</ele>
        <time>2021-12-23T14:21:01Z</time>
      </trkpt>
      <trkpt lat="45.2749" lon="6.08015">
        <ele>1176</ele>
        <time>2021-12-23T14:21:02Z</time>
      </trkpt>
      <trkpt lat="45.27492" lon="6.08014">
        <ele>1176</ele>
        <time>2021-12-23T14:21:03Z</time>
      </trkpt>
      <trkpt lat="45.27494" lon="6.08013">
        <ele>1176</ele>
        <time>2021-12-23T14:21:04Z</time>
      </trkpt>
      <trkpt lat="45.27495" lon="6.08013">
        <ele>1176</ele>
        <time>2021-12-23T14:21:06Z</time>
      </trkpt>
      <trkpt lat="45.27497" lon="6.08012">
        <ele>1175</ele>
        <time>2021-12-23T14:21:07Z</time>
      </trkpt>
      <trkpt lat="45.27508" lon="6.08007">
        <ele>1175</ele>
        <time>2021-12-23T14:21:08Z</time>
      </trkpt>
      <trkpt lat="45.2751" lon="6.08006">
        <ele>1175</ele>
        <time>2021-12-23T14:21:09Z</time>
      </trkpt>
      <trkpt lat="45.27512" lon="6.08005">
        <ele>1175</ele>
        <time>2021-12-23T14:21:10Z</time>
      </trkpt>
      <trkpt lat="45.27515" lon="6.08004">
        <ele>1175</ele>
        <time>2021-12-23T14:21:11Z</time>
      </trkpt>
      <trkpt lat="45.27516" lon="6.08004">
        <ele>1175</ele>
        <time>2021-12-23T14:21:12Z</time>
      </trkpt>
      <trkpt lat="45.27517" lon="6.08004">
        <ele>1175</ele>
        <time>2021-12-23T14:21:13Z</time>
      </trkpt>
      <trkpt lat="45.27518" lon="6.08003">
        <ele>1175</ele>
        <time>2021-12-23T14:21:14Z</time>
      </trkpt>
      <trkpt lat="45.27519" lon="6.08003">
        <ele>1174</ele>
        <time>2021-12-23T14:21:15Z</time>
      </trkpt>
      <trkpt lat="45.2752" lon="6.08002">
        <ele>1174</ele>
        <time>2021-12-23T14:21:16Z</time>
      </trkpt>
      <trkpt lat="45.27522" lon="6.08002">
        <ele>1174</ele>
        <time>2021-12-23T14:21:17Z</time>
      </trkpt>
      <trkpt lat="45.27523" lon="6.08002">
        <ele>1174</ele>
        <time>2021-12-23T14:21:18Z</time>
      </trkpt>
      <trkpt lat="45.27524" lon="6.08001">
        <ele>1173</ele>
        <time>2021-12-23T14:21:19Z</time>
      </trkpt>
      <trkpt lat="45.27525" lon="6.08001">
        <ele>1173</ele>
        <time>2021-12-23T14:21:20Z</time>
      </trkpt>
      <trkpt lat="45.27527" lon="6.08">
        <ele>1173</ele>
        <time>2021-12-23T14:21:21Z</time>
      </trkpt>
      <trkpt lat="45.27529" lon="6.08">
        <ele>1173</ele>
        <time>2021-12-23T14:21:22Z</time>
      </trkpt>
      <trkpt lat="45.2753" lon="6.07999">
        <ele>1173</ele>
        <time>2021-12-23T14:21:23Z</time>
      </trkpt>
      <trkpt lat="45.27532" lon="6.07999">
        <ele>1173</ele>
        <time>2021-12-23T14:21:24Z</time>
      </trkpt>
      <trkpt lat="45.27534" lon="6.07998">
        <ele>1173</ele>
        <time>2021-12-23T14:21:25Z</time>
      </trkpt>
      <trkpt lat="45.27535" lon="6.07997">
        <ele>1173</ele>
        <time>2021-12-23T14:21:26Z</time>
      </trkpt>
      <trkpt lat="45.27537" lon="6.07995">
        <ele>1173</ele>
        <time>2021-12-23T14:21:27Z</time>
      </trkpt>
      <trkpt lat="45.27539" lon="6.07993">
        <ele>1173</ele>
        <time>2021-12-23T14:21:28Z</time>
      </trkpt>
      <trkpt lat="45.2754" lon="6.07992">
        <ele>1173</ele>
        <time>2021-12-23T14:21:29Z</time>
      </trkpt>
      <trkpt lat="45.27542" lon="6.0799">
        <ele>1172</ele>
        <time>2021-12-23T14:21:30Z</time>
      </trkpt>
      <trkpt lat="45.27543" lon="6.07989">
        <ele>1171</ele>
        <time>2021-12-23T14:21:31Z</time>
      </trkpt>
      <trkpt lat="45.27555" lon="6.07976">
        <ele>1171</ele>
        <time>2021-12-23T14:21:32Z</time>
      </trkpt>
      <trkpt lat="45.27556" lon="6.07973">
        <ele>1171</ele>
        <time>2021-12-23T14:21:33Z</time>
      </trkpt>
      <trkpt lat="45.27561" lon="6.07967">
        <ele>1171</ele>
        <time>2021-12-23T14:21:34Z</time>
      </trkpt>
      <trkpt lat="45.27562" lon="6.07967">
        <ele>1171</ele>
        <time>2021-12-23T14:21:35Z</time>
      </trkpt>
      <trkpt lat="45.27564" lon="6.07968">
        <ele>1171</ele>
        <time>2021-12-23T14:21:36Z</time>
      </trkpt>
      <trkpt lat="45.27566" lon="6.07968">
        <ele>1171</ele>
        <time>2021-12-23T14:21:37Z</time>
      </trkpt>
      <trkpt lat="45.27567" lon="6.07968">
        <ele>1171</ele>
        <time>2021-12-23T14:21:38Z</time>
      </trkpt>
      <trkpt lat="45.27569" lon="6.07968">
        <ele>1171</ele>
        <time>2021-12-23T14:21:39Z</time>
      </trkpt>
      <trkpt lat="45.2757" lon="6.07969">
        <ele>1171</ele>
        <time>2021-12-23T14:21:40Z</time>
      </trkpt>
      <trkpt lat="45.27577" lon="6.07966">
        <ele>1170</ele>
        <time>2021-12-23T14:21:41Z</time>
      </trkpt>
      <trkpt lat="45.27583" lon="6.07963">
        <ele>1170</ele>
        <time>2021-12-23T14:21:42Z</time>
      </trkpt>
      <trkpt lat="45.27589" lon="6.07961">
        <ele>1170</ele>
        <time>2021-12-23T14:21:44Z</time>
      </trkpt>
      <trkpt lat="45.27591" lon="6.0796">
        <ele>1170</ele>
        <time>2021-12-23T14:21:45Z</time>
      </trkpt>
      <trkpt lat="45.27593" lon="6.07959">
        <ele>1168</ele>
        <time>2021-12-23T14:21:46Z</time>
      </trkpt>
      <trkpt lat="45.27595" lon="6.07958">
        <ele>1167</ele>
        <time>2021-12-23T14:21:47Z</time>
      </trkpt>
      <trkpt lat="45.27597" lon="6.07958">
        <ele>1167</ele>
        <time>2021-12-23T14:21:48Z</time>
      </trkpt>
      <trkpt lat="45.27608" lon="6.07952">
        <ele>1167</ele>
        <time>2021-12-23T14:21:49Z</time>
      </trkpt>
      <trkpt lat="45.2761" lon="6.0795">
        <ele>1167</ele>
        <time>2021-12-23T14:21:50Z</time>
      </trkpt>
      <trkpt lat="45.27612" lon="6.07948">
        <ele>1167</ele>
        <time>2021-12-23T14:21:51Z</time>
      </trkpt>
      <trkpt lat="45.27614" lon="6.07946">
        <ele>1166</ele>
        <time>2021-12-23T14:21:52Z</time>
      </trkpt>
      <trkpt lat="45.27617" lon="6.07946">
        <ele>1166</ele>
        <time>2021-12-23T14:21:53Z</time>
      </trkpt>
      <trkpt lat="45.2762" lon="6.07945">
        <ele>1166</ele>
        <time>2021-12-23T14:21:54Z</time>
      </trkpt>
      <trkpt lat="45.27627" lon="6.07944">
        <ele>1166</ele>
        <time>2021-12-23T14:21:55Z</time>
      </trkpt>
      <trkpt lat="45.2763" lon="6.07943">
        <ele>1166</ele>
        <time>2021-12-23T14:21:56Z</time>
      </trkpt>
      <trkpt lat="45.27632" lon="6.07942">
        <ele>1165</ele>
        <time>2021-12-23T14:21:57Z</time>
      </trkpt>
      <trkpt lat="45.27635" lon="6.07941">
        <ele>1165</ele>
        <time>2021-12-23T14:21:58Z</time>
      </trkpt>
      <trkpt lat="45.27639" lon="6.07938">
        <ele>1165</ele>
        <time>2021-12-23T14:21:59Z</time>
      </trkpt>
      <trkpt lat="45.27642" lon="6.07936">
        <ele>1165</ele>
        <time>2021-12-23T14:22:00Z</time>
      </trkpt>
      <trkpt lat="45.27646" lon="6.07933">
        <ele>1165</ele>
        <time>2021-12-23T14:22:01Z</time>
      </trkpt>
      <trkpt lat="45.2765" lon="6.0793">
        <ele>1165</ele>
        <time>2021-12-23T14:22:02Z</time>
      </trkpt>
      <trkpt lat="45.27654" lon="6.07928">
        <ele>1163</ele>
        <time>2021-12-23T14:22:03Z</time>
      </trkpt>
      <trkpt lat="45.27659" lon="6.07926">
        <ele>1163</ele>
        <time>2021-12-23T14:22:04Z</time>
      </trkpt>
      <trkpt lat="45.27659" lon="6.07926">
        <ele>1161</ele>
        <time>2021-12-23T14:22:05Z</time>
      </trkpt>
      <trkpt lat="45.27662" lon="6.07923">
        <ele>1161</ele>
        <time>2021-12-23T14:22:06Z</time>
      </trkpt>
      <trkpt lat="45.27666" lon="6.07921">
        <ele>1160</ele>
        <time>2021-12-23T14:22:07Z</time>
      </trkpt>
      <trkpt lat="45.27669" lon="6.07919">
        <ele>1160</ele>
        <time>2021-12-23T14:22:08Z</time>
      </trkpt>
      <trkpt lat="45.27683" lon="6.07911">
        <ele>1159</ele>
        <time>2021-12-23T14:22:09Z</time>
      </trkpt>
      <trkpt lat="45.27687" lon="6.07911">
        <ele>1158</ele>
        <time>2021-12-23T14:22:10Z</time>
      </trkpt>
      <trkpt lat="45.277" lon="6.07911">
        <ele>1158</ele>
        <time>2021-12-23T14:22:11Z</time>
      </trkpt>
      <trkpt lat="45.27704" lon="6.07911">
        <ele>1158</ele>
        <time>2021-12-23T14:22:12Z</time>
      </trkpt>
      <trkpt lat="45.27709" lon="6.07911">
        <ele>1157</ele>
        <time>2021-12-23T14:22:13Z</time>
      </trkpt>
      <trkpt lat="45.27716" lon="6.07912">
        <ele>1156</ele>
        <time>2021-12-23T14:22:14Z</time>
      </trkpt>
      <trkpt lat="45.27724" lon="6.07912">
        <ele>1154</ele>
        <time>2021-12-23T14:22:15Z</time>
      </trkpt>
      <trkpt lat="45.27731" lon="6.07913">
        <ele>1153</ele>
        <time>2021-12-23T14:22:16Z</time>
      </trkpt>
      <trkpt lat="45.27735" lon="6.07913">
        <ele>1153</ele>
        <time>2021-12-23T14:22:17Z</time>
      </trkpt>
      <trkpt lat="45.27739" lon="6.07913">
        <ele>1152</ele>
        <time>2021-12-23T14:22:18Z</time>
      </trkpt>
      <trkpt lat="45.27752" lon="6.07913">
        <ele>1151</ele>
        <time>2021-12-23T14:22:19Z</time>
      </trkpt>
      <trkpt lat="45.27757" lon="6.07914">
        <ele>1151</ele>
        <time>2021-12-23T14:22:20Z</time>
      </trkpt>
      <trkpt lat="45.27762" lon="6.07914">
        <ele>1150</ele>
        <time>2021-12-23T14:22:21Z</time>
      </trkpt>
      <trkpt lat="45.27766" lon="6.07914">
        <ele>1148</ele>
        <time>2021-12-23T14:22:22Z</time>
      </trkpt>
      <trkpt lat="45.27771" lon="6.07914">
        <ele>1148</ele>
        <time>2021-12-23T14:22:23Z</time>
      </trkpt>
      <trkpt lat="45.27785" lon="6.07916">
        <ele>1148</ele>
        <time>2021-12-23T14:22:24Z</time>
      </trkpt>
      <trkpt lat="45.27791" lon="6.07919">
        <ele>1147</ele>
        <time>2021-12-23T14:22:25Z</time>
      </trkpt>
      <trkpt lat="45.27802" lon="6.07926">
        <ele>1146</ele>
        <time>2021-12-23T14:22:26Z</time>
      </trkpt>
      <trkpt lat="45.27809" lon="6.0793">
        <ele>1145</ele>
        <time>2021-12-23T14:22:27Z</time>
      </trkpt>
      <trkpt lat="45.27816" lon="6.07934">
        <ele>1145</ele>
        <time>2021-12-23T14:22:28Z</time>
      </trkpt>
      <trkpt lat="45.27823" lon="6.07938">
        <ele>1145</ele>
        <time>2021-12-23T14:22:29Z</time>
      </trkpt>
      <trkpt lat="45.2783" lon="6.0794">
        <ele>1143</ele>
        <time>2021-12-23T14:22:30Z</time>
      </trkpt>
      <trkpt lat="45.27833" lon="6.07941">
        <ele>1142</ele>
        <time>2021-12-23T14:22:31Z</time>
      </trkpt>
      <trkpt lat="45.27836" lon="6.07943">
        <ele>1141</ele>
        <time>2021-12-23T14:22:32Z</time>
      </trkpt>
      <trkpt lat="45.2785" lon="6.07945">
        <ele>1141</ele>
        <time>2021-12-23T14:22:33Z</time>
      </trkpt>
      <trkpt lat="45.27858" lon="6.07943">
        <ele>1141</ele>
        <time>2021-12-23T14:22:34Z</time>
      </trkpt>
      <trkpt lat="45.27865" lon="6.07941">
        <ele>1139</ele>
        <time>2021-12-23T14:22:35Z</time>
      </trkpt>
      <trkpt lat="45.27874" lon="6.07937">
        <ele>1137</ele>
        <time>2021-12-23T14:22:36Z</time>
      </trkpt>
      <trkpt lat="45.27874" lon="6.07937">
        <ele>1135</ele>
        <time>2021-12-23T14:22:37Z</time>
      </trkpt>
      <trkpt lat="45.27876" lon="6.07938">
        <ele>1134</ele>
        <time>2021-12-23T14:22:38Z</time>
      </trkpt>
      <trkpt lat="45.27878" lon="6.07938">
        <ele>1133</ele>
        <time>2021-12-23T14:22:39Z</time>
      </trkpt>
      <trkpt lat="45.27894" lon="6.07937">
        <ele>1131</ele>
        <time>2021-12-23T14:22:41Z</time>
      </trkpt>
      <trkpt lat="45.27902" lon="6.07934">
        <ele>1131</ele>
        <time>2021-12-23T14:22:42Z</time>
      </trkpt>
      <trkpt lat="45.2791" lon="6.0793">
        <ele>1129</ele>
        <time>2021-12-23T14:22:43Z</time>
      </trkpt>
      <trkpt lat="45.27917" lon="6.07929">
        <ele>1127</ele>
        <time>2021-12-23T14:22:44Z</time>
      </trkpt>
      <trkpt lat="45.2792" lon="6.07929">
        <ele>1126</ele>
        <time>2021-12-23T14:22:45Z</time>
      </trkpt>
      <trkpt lat="45.27928" lon="6.07923">
        <ele>1126</ele>
        <time>2021-12-23T14:22:46Z</time>
      </trkpt>
      <trkpt lat="45.27931" lon="6.07918">
        <ele>1126</ele>
        <time>2021-12-23T14:22:47Z</time>
      </trkpt>
      <trkpt lat="45.27934" lon="6.07913">
        <ele>1125</ele>
        <time>2021-12-23T14:22:48Z</time>
      </trkpt>
      <trkpt lat="45.27936" lon="6.07907">
        <ele>1125</ele>
        <time>2021-12-23T14:22:49Z</time>
      </trkpt>
      <trkpt lat="45.27939" lon="6.07902">
        <ele>1124</ele>
        <time>2021-12-23T14:22:50Z</time>
      </trkpt>
      <trkpt lat="45.27946" lon="6.07897">
        <ele>1122</ele>
        <time>2021-12-23T14:22:51Z</time>
      </trkpt>
      <trkpt lat="45.27954" lon="6.07892">
        <ele>1119</ele>
        <time>2021-12-23T14:22:52Z</time>
      </trkpt>
      <trkpt lat="45.27969" lon="6.07881">
        <ele>1118</ele>
        <time>2021-12-23T14:22:53Z</time>
      </trkpt>
      <trkpt lat="45.27975" lon="6.07874">
        <ele>1117</ele>
        <time>2021-12-23T14:22:54Z</time>
      </trkpt>
      <trkpt lat="45.27981" lon="6.07867">
        <ele>1117</ele>
        <time>2021-12-23T14:22:55Z</time>
      </trkpt>
      <trkpt lat="45.27987" lon="6.07859">
        <ele>1115</ele>
        <time>2021-12-23T14:22:56Z</time>
      </trkpt>
      <trkpt lat="45.27994" lon="6.07856">
        <ele>1114</ele>
        <time>2021-12-23T14:22:57Z</time>
      </trkpt>
      <trkpt lat="45.27997" lon="6.07855">
        <ele>1113</ele>
        <time>2021-12-23T14:22:58Z</time>
      </trkpt>
      <trkpt lat="45.28" lon="6.07854">
        <ele>1113</ele>
        <time>2021-12-23T14:22:59Z</time>
      </trkpt>
      <trkpt lat="45.28003" lon="6.07852">
        <ele>1111</ele>
        <time>2021-12-23T14:23:00Z</time>
      </trkpt>
      <trkpt lat="45.28015" lon="6.07848">
        <ele>1110</ele>
        <time>2021-12-23T14:23:01Z</time>
      </trkpt>
      <trkpt lat="45.28019" lon="6.07842">
        <ele>1110</ele>
        <time>2021-12-23T14:23:02Z</time>
      </trkpt>
      <trkpt lat="45.28023" lon="6.07837">
        <ele>1110</ele>
        <time>2021-12-23T14:23:03Z</time>
      </trkpt>
      <trkpt lat="45.28026" lon="6.07831">
        <ele>1109</ele>
        <time>2021-12-23T14:23:04Z</time>
      </trkpt>
      <trkpt lat="45.2803" lon="6.07825">
        <ele>1107</ele>
        <time>2021-12-23T14:23:05Z</time>
      </trkpt>
      <trkpt lat="45.2803" lon="6.07824">
        <ele>1105</ele>
        <time>2021-12-23T14:23:06Z</time>
      </trkpt>
      <trkpt lat="45.2803" lon="6.07823">
        <ele>1104</ele>
        <time>2021-12-23T14:23:07Z</time>
      </trkpt>
      <trkpt lat="45.28029" lon="6.07822">
        <ele>1103</ele>
        <time>2021-12-23T14:23:08Z</time>
      </trkpt>
      <trkpt lat="45.28029" lon="6.07821">
        <ele>1102</ele>
        <time>2021-12-23T14:23:09Z</time>
      </trkpt>
      <trkpt lat="45.28029" lon="6.0782">
        <ele>1102</ele>
        <time>2021-12-23T14:23:10Z</time>
      </trkpt>
      <trkpt lat="45.28028" lon="6.07819">
        <ele>1102</ele>
        <time>2021-12-23T14:23:11Z</time>
      </trkpt>
      <trkpt lat="45.28028" lon="6.07818">
        <ele>1102</ele>
        <time>2021-12-23T14:23:12Z</time>
      </trkpt>
      <trkpt lat="45.28028" lon="6.07817">
        <ele>1102</ele>
        <time>2021-12-23T14:23:13Z</time>
      </trkpt>
      <trkpt lat="45.28028" lon="6.07816">
        <ele>1102</ele>
        <time>2021-12-23T14:23:14Z</time>
      </trkpt>
      <trkpt lat="45.28028" lon="6.07816">
        <ele>1102</ele>
        <time>2021-12-23T14:23:15Z</time>
      </trkpt>
      <trkpt lat="45.28028" lon="6.07816">
        <ele>1102</ele>
        <time>2021-12-23T14:23:16Z</time>
      </trkpt>
      <trkpt lat="45.28028" lon="6.07816">
        <ele>1102</ele>
        <time>2021-12-23T14:23:17Z</time>
      </trkpt>
      <trkpt lat="45.28028" lon="6.07816">
        <ele>1102</ele>
        <time>2021-12-23T14:23:19Z</time>
      </trkpt>
      <trkpt lat="45.28028" lon="6.07815">
        <ele>1101</ele>
        <time>2021-12-23T14:23:20Z</time>
      </trkpt>
      <trkpt lat="45.28028" lon="6.07815">
        <ele>1101</ele>
        <time>2021-12-23T14:23:21Z</time>
      </trkpt>
      <trkpt lat="45.28028" lon="6.07815">
        <ele>1101</ele>
        <time>2021-12-23T14:23:22Z</time>
      </trkpt>
      <trkpt lat="45.28028" lon="6.07815">
        <ele>1101</ele>
        <time>2021-12-23T14:23:23Z</time>
      </trkpt>
      <trkpt lat="45.28028" lon="6.07815">
        <ele>1101</ele>
        <time>2021-12-23T14:23:24Z</time>
      </trkpt>
      <trkpt lat="45.28028" lon="6.07815">
        <ele>1100</ele>
        <time>2021-12-23T14:23:25Z</time>
      </trkpt>
      <trkpt lat="45.28029" lon="6.07815">
        <ele>1100</ele>
        <time>2021-12-23T14:23:26Z</time>
      </trkpt>
      <trkpt lat="45.28029" lon="6.07815">
        <ele>1100</ele>
        <time>2021-12-23T14:23:27Z</time>
      </trkpt>
      <trkpt lat="45.28029" lon="6.07814">
        <ele>1101</ele>
        <time>2021-12-23T14:23:28Z</time>
      </trkpt>
      <trkpt lat="45.28029" lon="6.07814">
        <ele>1101</ele>
        <time>2021-12-23T14:23:29Z</time>
      </trkpt>
      <trkpt lat="45.28029" lon="6.07814">
        <ele>1101</ele>
        <time>2021-12-23T14:23:30Z</time>
      </trkpt>
      <trkpt lat="45.28029" lon="6.07814">
        <ele>1101</ele>
        <time>2021-12-23T14:23:31Z</time>
      </trkpt>
      <trkpt lat="45.28029" lon="6.07814">
        <ele>1101</ele>
        <time>2021-12-23T14:23:32Z</time>
      </trkpt>
      <trkpt lat="45.28029" lon="6.07814">
        <ele>1101</ele>
        <time>2021-12-23T14:23:33Z</time>
      </trkpt>
      <trkpt lat="45.28029" lon="6.07814">
        <ele>1101</ele>
        <time>2021-12-23T14:23:34Z</time>
      </trkpt>
      <trkpt lat="45.28029" lon="6.07814">
        <ele>1101</ele>
        <time>2021-12-23T14:23:35Z</time>
      </trkpt>
      <trkpt lat="45.28029" lon="6.07814">
        <ele>1101</ele>
        <time>2021-12-23T14:23:36Z</time>
      </trkpt>
      <trkpt lat="45.28029" lon="6.07813">
        <ele>1101</ele>
        <time>2021-12-23T14:23:38Z</time>
      </trkpt>
      <trkpt lat="45.28029" lon="6.07813">
        <ele>1101</ele>
        <time>2021-12-23T14:23:39Z</time>
      </trkpt>
      <trkpt lat="45.2803" lon="6.07813">
        <ele>1101</ele>
        <time>2021-12-23T14:23:40Z</time>
      </trkpt>
      <trkpt lat="45.2803" lon="6.07813">
        <ele>1101</ele>
        <time>2021-12-23T14:23:41Z</time>
      </trkpt>
      <trkpt lat="45.2803" lon="6.07813">
        <ele>1101</ele>
        <time>2021-12-23T14:23:42Z</time>
      </trkpt>
      <trkpt lat="45.2803" lon="6.07813">
        <ele>1101</ele>
        <time>2021-12-23T14:23:43Z</time>
      </trkpt>
      <trkpt lat="45.2803" lon="6.07813">
        <ele>1101</ele>
        <time>2021-12-23T14:23:44Z</time>
      </trkpt>
      <trkpt lat="45.2803" lon="6.07813">
        <ele>1101</ele>
        <time>2021-12-23T14:23:45Z</time>
      </trkpt>
      <trkpt lat="45.2803" lon="6.07812">
        <ele>1102</ele>
        <time>2021-12-23T14:23:46Z</time>
      </trkpt>
      <trkpt lat="45.2803" lon="6.07812">
        <ele>1102</ele>
        <time>2021-12-23T14:23:47Z</time>
      </trkpt>
      <trkpt lat="45.2803" lon="6.07812">
        <ele>1101</ele>
        <time>2021-12-23T14:23:48Z</time>
      </trkpt>
      <trkpt lat="45.2803" lon="6.07812">
        <ele>1101</ele>
        <time>2021-12-23T14:23:49Z</time>
      </trkpt>
      <trkpt lat="45.2803" lon="6.07812">
        <ele>1101</ele>
        <time>2021-12-23T14:23:50Z</time>
      </trkpt>
      <trkpt lat="45.2803" lon="6.07812">
        <ele>1102</ele>
        <time>2021-12-23T14:23:51Z</time>
      </trkpt>
      <trkpt lat="45.2803" lon="6.07812">
        <ele>1102</ele>
        <time>2021-12-23T14:23:52Z</time>
      </trkpt>
      <trkpt lat="45.28031" lon="6.07812">
        <ele>1102</ele>
        <time>2021-12-23T14:23:53Z</time>
      </trkpt>
      <trkpt lat="45.28031" lon="6.07812">
        <ele>1102</ele>
        <time>2021-12-23T14:23:54Z</time>
      </trkpt>
      <trkpt lat="45.28031" lon="6.07811">
        <ele>1102</ele>
        <time>2021-12-23T14:23:55Z</time>
      </trkpt>
      <trkpt lat="45.28031" lon="6.07811">
        <ele>1102</ele>
        <time>2021-12-23T14:23:57Z</time>
      </trkpt>
      <trkpt lat="45.28031" lon="6.07811">
        <ele>1102</ele>
        <time>2021-12-23T14:23:58Z</time>
      </trkpt>
      <trkpt lat="45.28031" lon="6.07811">
        <ele>1102</ele>
        <time>2021-12-23T14:23:59Z</time>
      </trkpt>
      <trkpt lat="45.28031" lon="6.07811">
        <ele>1102</ele>
        <time>2021-12-23T14:24:00Z</time>
      </trkpt>
      <trkpt lat="45.28031" lon="6.07811">
        <ele>1102</ele>
        <time>2021-12-23T14:24:01Z</time>
      </trkpt>
      <trkpt lat="45.28031" lon="6.07811">
        <ele>1102</ele>
        <time>2021-12-23T14:24:02Z</time>
      </trkpt>
      <trkpt lat="45.28031" lon="6.07811">
        <ele>1102</ele>
        <time>2021-12-23T14:24:03Z</time>
      </trkpt>
      <trkpt lat="45.28031" lon="6.0781">
        <ele>1102</ele>
        <time>2021-12-23T14:24:04Z</time>
      </trkpt>
      <trkpt lat="45.28031" lon="6.0781">
        <ele>1102</ele>
        <time>2021-12-23T14:24:05Z</time>
      </trkpt>
      <trkpt lat="45.28031" lon="6.0781">
        <ele>1102</ele>
        <time>2021-12-23T14:24:06Z</time>
      </trkpt>
      <trkpt lat="45.28032" lon="6.0781">
        <ele>1102</ele>
        <time>2021-12-23T14:24:07Z</time>
      </trkpt>
      <trkpt lat="45.28032" lon="6.0781">
        <ele>1102</ele>
        <time>2021-12-23T14:24:08Z</time>
      </trkpt>
      <trkpt lat="45.28032" lon="6.0781">
        <ele>1102</ele>
        <time>2021-12-23T14:24:09Z</time>
      </trkpt>
      <trkpt lat="45.28032" lon="6.0781">
        <ele>1102</ele>
        <time>2021-12-23T14:24:10Z</time>
      </trkpt>
      <trkpt lat="45.28032" lon="6.0781">
        <ele>1102</ele>
        <time>2021-12-23T14:24:11Z</time>
      </trkpt>
      <trkpt lat="45.28032" lon="6.0781">
        <ele>1102</ele>
        <time>2021-12-23T14:24:12Z</time>
      </trkpt>
      <trkpt lat="45.28032" lon="6.07809">
        <ele>1102</ele>
        <time>2021-12-23T14:24:13Z</time>
      </trkpt>
      <trkpt lat="45.28032" lon="6.07809">
        <ele>1102</ele>
        <time>2021-12-23T14:24:14Z</time>
      </trkpt>
      <trkpt lat="45.28032" lon="6.07809">
        <ele>1102</ele>
        <time>2021-12-23T14:24:16Z</time>
      </trkpt>
      <trkpt lat="45.28032" lon="6.07809">
        <ele>1101</ele>
        <time>2021-12-23T14:24:17Z</time>
      </trkpt>
      <trkpt lat="45.28032" lon="6.07809">
        <ele>1101</ele>
        <time>2021-12-23T14:24:18Z</time>
      </trkpt>
      <trkpt lat="45.28032" lon="6.07809">
        <ele>1101</ele>
        <time>2021-12-23T14:24:19Z</time>
      </trkpt>
      <trkpt lat="45.28032" lon="6.07809">
        <ele>1101</ele>
        <time>2021-12-23T14:24:20Z</time>
      </trkpt>
      <trkpt lat="45.28033" lon="6.07809">
        <ele>1101</ele>
        <time>2021-12-23T14:24:21Z</time>
      </trkpt>
      <trkpt lat="45.28033" lon="6.07808">
        <ele>1102</ele>
        <time>2021-12-23T14:24:22Z</time>
      </trkpt>
      <trkpt lat="45.28033" lon="6.07808">
        <ele>1103</ele>
        <time>2021-12-23T14:24:23Z</time>
      </trkpt>
      <trkpt lat="45.28033" lon="6.07808">
        <ele>1103</ele>
        <time>2021-12-23T14:24:24Z</time>
      </trkpt>
      <trkpt lat="45.28033" lon="6.07808">
        <ele>1103</ele>
        <time>2021-12-23T14:24:25Z</time>
      </trkpt>
      <trkpt lat="45.28033" lon="6.07808">
        <ele>1103</ele>
        <time>2021-12-23T14:24:26Z</time>
      </trkpt>
      <trkpt lat="45.28033" lon="6.07808">
        <ele>1103</ele>
        <time>2021-12-23T14:24:27Z</time>
      </trkpt>
      <trkpt lat="45.28033" lon="6.07808">
        <ele>1103</ele>
        <time>2021-12-23T14:24:28Z</time>
      </trkpt>
      <trkpt lat="45.28033" lon="6.07808">
        <ele>1103</ele>
        <time>2021-12-23T14:24:29Z</time>
      </trkpt>
      <trkpt lat="45.28033" lon="6.07808">
        <ele>1103</ele>
        <time>2021-12-23T14:24:30Z</time>
      </trkpt>
      <trkpt lat="45.28033" lon="6.07807">
        <ele>1103</ele>
        <time>2021-12-23T14:24:31Z</time>
      </trkpt>
      <trkpt lat="45.28033" lon="6.07807">
        <ele>1102</ele>
        <time>2021-12-23T14:24:32Z</time>
      </trkpt>
      <trkpt lat="45.28033" lon="6.07807">
        <ele>1102</ele>
        <time>2021-12-23T14:24:33Z</time>
      </trkpt>
      <trkpt lat="45.28034" lon="6.07807">
        <ele>1101</ele>
        <time>2021-12-23T14:24:35Z</time>
      </trkpt>
      <trkpt lat="45.28034" lon="6.07807">
        <ele>1101</ele>
        <time>2021-12-23T14:24:36Z</time>
      </trkpt>
      <trkpt lat="45.28034" lon="6.07807">
        <ele>1101</ele>
        <time>2021-12-23T14:24:37Z</time>
      </trkpt>
      <trkpt lat="45.28034" lon="6.07807">
        <ele>1101</ele>
        <time>2021-12-23T14:24:38Z</time>
      </trkpt>
      <trkpt lat="45.28034" lon="6.07807">
        <ele>1101</ele>
        <time>2021-12-23T14:24:39Z</time>
      </trkpt>
      <trkpt lat="45.28034" lon="6.07806">
        <ele>1101</ele>
        <time>2021-12-23T14:24:40Z</time>
      </trkpt>
      <trkpt lat="45.28034" lon="6.07806">
        <ele>1101</ele>
        <time>2021-12-23T14:24:41Z</time>
      </trkpt>
      <trkpt lat="45.28034" lon="6.07807">
        <ele>1101</ele>
        <time>2021-12-23T14:24:42Z</time>
      </trkpt>
      <trkpt lat="45.28034" lon="6.07807">
        <ele>1101</ele>
        <time>2021-12-23T14:24:43Z</time>
      </trkpt>
      <trkpt lat="45.28034" lon="6.07808">
        <ele>1101</ele>
        <time>2021-12-23T14:24:44Z</time>
      </trkpt>
      <trkpt lat="45.28034" lon="6.07808">
        <ele>1101</ele>
        <time>2021-12-23T14:24:45Z</time>
      </trkpt>
      <trkpt lat="45.28034" lon="6.07808">
        <ele>1100</ele>
        <time>2021-12-23T14:24:46Z</time>
      </trkpt>
      <trkpt lat="45.28034" lon="6.07809">
        <ele>1100</ele>
        <time>2021-12-23T14:24:47Z</time>
      </trkpt>
      <trkpt lat="45.28034" lon="6.07809">
        <ele>1100</ele>
        <time>2021-12-23T14:24:48Z</time>
      </trkpt>
      <trkpt lat="45.28034" lon="6.07809">
        <ele>1100</ele>
        <time>2021-12-23T14:24:49Z</time>
      </trkpt>
      <trkpt lat="45.28034" lon="6.0781">
        <ele>1100</ele>
        <time>2021-12-23T14:24:50Z</time>
      </trkpt>
      <trkpt lat="45.28035" lon="6.0781">
        <ele>1100</ele>
        <time>2021-12-23T14:24:51Z</time>
      </trkpt>
      <trkpt lat="45.28035" lon="6.0781">
        <ele>1100</ele>
        <time>2021-12-23T14:24:52Z</time>
      </trkpt>
      <trkpt lat="45.28035" lon="6.07811">
        <ele>1100</ele>
        <time>2021-12-23T14:24:54Z</time>
      </trkpt>
      <trkpt lat="45.28035" lon="6.07811">
        <ele>1100</ele>
        <time>2021-12-23T14:24:55Z</time>
      </trkpt>
      <trkpt lat="45.28035" lon="6.07812">
        <ele>1100</ele>
        <time>2021-12-23T14:24:56Z</time>
      </trkpt>
      <trkpt lat="45.28035" lon="6.07812">
        <ele>1100</ele>
        <time>2021-12-23T14:24:57Z</time>
      </trkpt>
      <trkpt lat="45.28035" lon="6.07812">
        <ele>1100</ele>
        <time>2021-12-23T14:24:58Z</time>
      </trkpt>
      <trkpt lat="45.28035" lon="6.07813">
        <ele>1100</ele>
        <time>2021-12-23T14:24:59Z</time>
      </trkpt>
      <trkpt lat="45.28035" lon="6.07813">
        <ele>1101</ele>
        <time>2021-12-23T14:25:00Z</time>
      </trkpt>
      <trkpt lat="45.28035" lon="6.07813">
        <ele>1101</ele>
        <time>2021-12-23T14:25:01Z</time>
      </trkpt>
      <trkpt lat="45.28035" lon="6.07814">
        <ele>1100</ele>
        <time>2021-12-23T14:25:02Z</time>
      </trkpt>
      <trkpt lat="45.28035" lon="6.07814">
        <ele>1100</ele>
        <time>2021-12-23T14:25:03Z</time>
      </trkpt>
      <trkpt lat="45.28035" lon="6.07815">
        <ele>1100</ele>
        <time>2021-12-23T14:25:04Z</time>
      </trkpt>
      <trkpt lat="45.28035" lon="6.07815">
        <ele>1100</ele>
        <time>2021-12-23T14:25:05Z</time>
      </trkpt>
      <trkpt lat="45.28035" lon="6.07815">
        <ele>1100</ele>
        <time>2021-12-23T14:25:06Z</time>
      </trkpt>
      <trkpt lat="45.28035" lon="6.07816">
        <ele>1100</ele>
        <time>2021-12-23T14:25:07Z</time>
      </trkpt>
      <trkpt lat="45.28035" lon="6.07816">
        <ele>1100</ele>
        <time>2021-12-23T14:25:08Z</time>
      </trkpt>
      <trkpt lat="45.28035" lon="6.07816">
        <ele>1100</ele>
        <time>2021-12-23T14:25:09Z</time>
      </trkpt>
      <trkpt lat="45.28036" lon="6.07817">
        <ele>1100</ele>
        <time>2021-12-23T14:25:10Z</time>
      </trkpt>
      <trkpt lat="45.28036" lon="6.07817">
        <ele>1100</ele>
        <time>2021-12-23T14:25:11Z</time>
      </trkpt>
      <trkpt lat="45.28036" lon="6.07818">
        <ele>1100</ele>
        <time>2021-12-23T14:25:13Z</time>
      </trkpt>
      <trkpt lat="45.28036" lon="6.07818">
        <ele>1100</ele>
        <time>2021-12-23T14:25:14Z</time>
      </trkpt>
      <trkpt lat="45.28036" lon="6.07818">
        <ele>1100</ele>
        <time>2021-12-23T14:25:15Z</time>
      </trkpt>
      <trkpt lat="45.28036" lon="6.07819">
        <ele>1099</ele>
        <time>2021-12-23T14:25:16Z</time>
      </trkpt>
      <trkpt lat="45.28036" lon="6.07819">
        <ele>1099</ele>
        <time>2021-12-23T14:25:17Z</time>
      </trkpt>
      <trkpt lat="45.28037" lon="6.07817">
        <ele>1099</ele>
        <time>2021-12-23T14:25:18Z</time>
      </trkpt>
      <trkpt lat="45.28038" lon="6.07816">
        <ele>1099</ele>
        <time>2021-12-23T14:25:19Z</time>
      </trkpt>
      <trkpt lat="45.28039" lon="6.07814">
        <ele>1099</ele>
        <time>2021-12-23T14:25:20Z</time>
      </trkpt>
      <trkpt lat="45.2804" lon="6.07813">
        <ele>1099</ele>
        <time>2021-12-23T14:25:21Z</time>
      </trkpt>
      <trkpt lat="45.28041" lon="6.07811">
        <ele>1099</ele>
        <time>2021-12-23T14:25:22Z</time>
      </trkpt>
      <trkpt lat="45.28043" lon="6.07809">
        <ele>1099</ele>
        <time>2021-12-23T14:25:23Z</time>
      </trkpt>
      <trkpt lat="45.28043" lon="6.07809">
        <ele>1099</ele>
        <time>2021-12-23T14:25:24Z</time>
      </trkpt>
      <trkpt lat="45.28043" lon="6.07808">
        <ele>1099</ele>
        <time>2021-12-23T14:25:25Z</time>
      </trkpt>
      <trkpt lat="45.28044" lon="6.07808">
        <ele>1099</ele>
        <time>2021-12-23T14:25:26Z</time>
      </trkpt>
      <trkpt lat="45.28044" lon="6.07807">
        <ele>1099</ele>
        <time>2021-12-23T14:25:27Z</time>
      </trkpt>
      <trkpt lat="45.28044" lon="6.07806">
        <ele>1099</ele>
        <time>2021-12-23T14:25:28Z</time>
      </trkpt>
      <trkpt lat="45.28045" lon="6.07806">
        <ele>1099</ele>
        <time>2021-12-23T14:25:29Z</time>
      </trkpt>
      <trkpt lat="45.28045" lon="6.07805">
        <ele>1099</ele>
        <time>2021-12-23T14:25:30Z</time>
      </trkpt>
      <trkpt lat="45.28046" lon="6.07805">
        <ele>1099</ele>
        <time>2021-12-23T14:25:32Z</time>
      </trkpt>
      <trkpt lat="45.28046" lon="6.07804">
        <ele>1098</ele>
        <time>2021-12-23T14:25:33Z</time>
      </trkpt>
      <trkpt lat="45.28046" lon="6.07803">
        <ele>1098</ele>
        <time>2021-12-23T14:25:34Z</time>
      </trkpt>
      <trkpt lat="45.28047" lon="6.07803">
        <ele>1098</ele>
        <time>2021-12-23T14:25:35Z</time>
      </trkpt>
      <trkpt lat="45.28047" lon="6.07802">
        <ele>1098</ele>
        <time>2021-12-23T14:25:36Z</time>
      </trkpt>
      <trkpt lat="45.28048" lon="6.07801">
        <ele>1098</ele>
        <time>2021-12-23T14:25:37Z</time>
      </trkpt>
      <trkpt lat="45.28048" lon="6.07801">
        <ele>1097</ele>
        <time>2021-12-23T14:25:38Z</time>
      </trkpt>
      <trkpt lat="45.28048" lon="6.078">
        <ele>1097</ele>
        <time>2021-12-23T14:25:39Z</time>
      </trkpt>
      <trkpt lat="45.28049" lon="6.078">
        <ele>1097</ele>
        <time>2021-12-23T14:25:40Z</time>
      </trkpt>
      <trkpt lat="45.28051" lon="6.078">
        <ele>1097</ele>
        <time>2021-12-23T14:25:41Z</time>
      </trkpt>
      <trkpt lat="45.28052" lon="6.07801">
        <ele>1097</ele>
        <time>2021-12-23T14:25:42Z</time>
      </trkpt>
      <trkpt lat="45.28054" lon="6.07802">
        <ele>1097</ele>
        <time>2021-12-23T14:25:43Z</time>
      </trkpt>
      <trkpt lat="45.28056" lon="6.07803">
        <ele>1097</ele>
        <time>2021-12-23T14:25:44Z</time>
      </trkpt>
      <trkpt lat="45.28058" lon="6.07804">
        <ele>1097</ele>
        <time>2021-12-23T14:25:45Z</time>
      </trkpt>
      <trkpt lat="45.2806" lon="6.07803">
        <ele>1096</ele>
        <time>2021-12-23T14:25:46Z</time>
      </trkpt>
      <trkpt lat="45.28061" lon="6.07803">
        <ele>1096</ele>
        <time>2021-12-23T14:25:47Z</time>
      </trkpt>
      <trkpt lat="45.28063" lon="6.07803">
        <ele>1095</ele>
        <time>2021-12-23T14:25:48Z</time>
      </trkpt>
      <trkpt lat="45.28064" lon="6.07802">
        <ele>1095</ele>
        <time>2021-12-23T14:25:50Z</time>
      </trkpt>
      <trkpt lat="45.28066" lon="6.07802">
        <ele>1095</ele>
        <time>2021-12-23T14:25:51Z</time>
      </trkpt>
      <trkpt lat="45.28067" lon="6.07802">
        <ele>1094</ele>
        <time>2021-12-23T14:25:52Z</time>
      </trkpt>
      <trkpt lat="45.28069" lon="6.07799">
        <ele>1093</ele>
        <time>2021-12-23T14:25:53Z</time>
      </trkpt>
      <trkpt lat="45.2807" lon="6.07796">
        <ele>1093</ele>
        <time>2021-12-23T14:25:54Z</time>
      </trkpt>
      <trkpt lat="45.28072" lon="6.07793">
        <ele>1093</ele>
        <time>2021-12-23T14:25:55Z</time>
      </trkpt>
      <trkpt lat="45.28073" lon="6.0779">
        <ele>1093</ele>
        <time>2021-12-23T14:25:56Z</time>
      </trkpt>
      <trkpt lat="45.28074" lon="6.07789">
        <ele>1094</ele>
        <time>2021-12-23T14:25:57Z</time>
      </trkpt>
      <trkpt lat="45.28074" lon="6.07788">
        <ele>1094</ele>
        <time>2021-12-23T14:25:58Z</time>
      </trkpt>
      <trkpt lat="45.28075" lon="6.07787">
        <ele>1093</ele>
        <time>2021-12-23T14:25:59Z</time>
      </trkpt>
      <trkpt lat="45.28075" lon="6.07786">
        <ele>1093</ele>
        <time>2021-12-23T14:26:00Z</time>
      </trkpt>
      <trkpt lat="45.28076" lon="6.07785">
        <ele>1093</ele>
        <time>2021-12-23T14:26:01Z</time>
      </trkpt>
      <trkpt lat="45.28077" lon="6.07784">
        <ele>1093</ele>
        <time>2021-12-23T14:26:02Z</time>
      </trkpt>
      <trkpt lat="45.28077" lon="6.07783">
        <ele>1092</ele>
        <time>2021-12-23T14:26:03Z</time>
      </trkpt>
      <trkpt lat="45.28078" lon="6.07782">
        <ele>1092</ele>
        <time>2021-12-23T14:26:05Z</time>
      </trkpt>
      <trkpt lat="45.28079" lon="6.07781">
        <ele>1091</ele>
        <time>2021-12-23T14:26:06Z</time>
      </trkpt>
      <trkpt lat="45.28079" lon="6.0778">
        <ele>1091</ele>
        <time>2021-12-23T14:26:07Z</time>
      </trkpt>
      <trkpt lat="45.2808" lon="6.07778">
        <ele>1091</ele>
        <time>2021-12-23T14:26:08Z</time>
      </trkpt>
      <trkpt lat="45.2808" lon="6.07776">
        <ele>1091</ele>
        <time>2021-12-23T14:26:10Z</time>
      </trkpt>
      <trkpt lat="45.28081" lon="6.07774">
        <ele>1091</ele>
        <time>2021-12-23T14:26:11Z</time>
      </trkpt>
      <trkpt lat="45.28082" lon="6.07772">
        <ele>1091</ele>
        <time>2021-12-23T14:26:12Z</time>
      </trkpt>
      <trkpt lat="45.28082" lon="6.07771">
        <ele>1091</ele>
        <time>2021-12-23T14:26:13Z</time>
      </trkpt>
      <trkpt lat="45.28083" lon="6.07769">
        <ele>1091</ele>
        <time>2021-12-23T14:26:14Z</time>
      </trkpt>
      <trkpt lat="45.28083" lon="6.07767">
        <ele>1091</ele>
        <time>2021-12-23T14:26:15Z</time>
      </trkpt>
      <trkpt lat="45.28084" lon="6.07765">
        <ele>1091</ele>
        <time>2021-12-23T14:26:16Z</time>
      </trkpt>
      <trkpt lat="45.28085" lon="6.07763">
        <ele>1091</ele>
        <time>2021-12-23T14:26:17Z</time>
      </trkpt>
      <trkpt lat="45.28086" lon="6.07761">
        <ele>1091</ele>
        <time>2021-12-23T14:26:18Z</time>
      </trkpt>
      <trkpt lat="45.28086" lon="6.07759">
        <ele>1091</ele>
        <time>2021-12-23T14:26:19Z</time>
      </trkpt>
      <trkpt lat="45.28087" lon="6.07758">
        <ele>1091</ele>
        <time>2021-12-23T14:26:20Z</time>
      </trkpt>
      <trkpt lat="45.28088" lon="6.07756">
        <ele>1091</ele>
        <time>2021-12-23T14:26:21Z</time>
      </trkpt>
      <trkpt lat="45.28088" lon="6.07756">
        <ele>1091</ele>
        <time>2021-12-23T14:26:22Z</time>
      </trkpt>
      <trkpt lat="45.28088" lon="6.07756">
        <ele>1090</ele>
        <time>2021-12-23T14:26:23Z</time>
      </trkpt>
      <trkpt lat="45.28088" lon="6.07756">
        <ele>1089</ele>
        <time>2021-12-23T14:26:24Z</time>
      </trkpt>
      <trkpt lat="45.28088" lon="6.07756">
        <ele>1089</ele>
        <time>2021-12-23T14:26:25Z</time>
      </trkpt>
      <trkpt lat="45.28088" lon="6.07756">
        <ele>1089</ele>
        <time>2021-12-23T14:26:26Z</time>
      </trkpt>
      <trkpt lat="45.28088" lon="6.07756">
        <ele>1089</ele>
        <time>2021-12-23T14:26:27Z</time>
      </trkpt>
      <trkpt lat="45.28094" lon="6.07744">
        <ele>1088</ele>
        <time>2021-12-23T14:26:29Z</time>
      </trkpt>
      <trkpt lat="45.28095" lon="6.07743">
        <ele>1088</ele>
        <time>2021-12-23T14:26:30Z</time>
      </trkpt>
      <trkpt lat="45.28096" lon="6.07741">
        <ele>1088</ele>
        <time>2021-12-23T14:26:31Z</time>
      </trkpt>
      <trkpt lat="45.28097" lon="6.0774">
        <ele>1088</ele>
        <time>2021-12-23T14:26:32Z</time>
      </trkpt>
      <trkpt lat="45.28098" lon="6.07738">
        <ele>1088</ele>
        <time>2021-12-23T14:26:33Z</time>
      </trkpt>
      <trkpt lat="45.28099" lon="6.07737">
        <ele>1088</ele>
        <time>2021-12-23T14:26:34Z</time>
      </trkpt>
      <trkpt lat="45.281" lon="6.07736">
        <ele>1088</ele>
        <time>2021-12-23T14:26:35Z</time>
      </trkpt>
      <trkpt lat="45.28101" lon="6.07734">
        <ele>1088</ele>
        <time>2021-12-23T14:26:36Z</time>
      </trkpt>
      <trkpt lat="45.28101" lon="6.07734">
        <ele>1087</ele>
        <time>2021-12-23T14:26:37Z</time>
      </trkpt>
      <trkpt lat="45.28102" lon="6.07733">
        <ele>1087</ele>
        <time>2021-12-23T14:26:38Z</time>
      </trkpt>
      <trkpt lat="45.28102" lon="6.07733">
        <ele>1087</ele>
        <time>2021-12-23T14:26:39Z</time>
      </trkpt>
      <trkpt lat="45.28102" lon="6.07732">
        <ele>1087</ele>
        <time>2021-12-23T14:26:40Z</time>
      </trkpt>
      <trkpt lat="45.28103" lon="6.07732">
        <ele>1087</ele>
        <time>2021-12-23T14:26:41Z</time>
      </trkpt>
      <trkpt lat="45.28103" lon="6.07732">
        <ele>1087</ele>
        <time>2021-12-23T14:26:42Z</time>
      </trkpt>
      <trkpt lat="45.28103" lon="6.07731">
        <ele>1087</ele>
        <time>2021-12-23T14:26:43Z</time>
      </trkpt>
      <trkpt lat="45.28104" lon="6.07731">
        <ele>1087</ele>
        <time>2021-12-23T14:26:44Z</time>
      </trkpt>
      <trkpt lat="45.28104" lon="6.0773">
        <ele>1087</ele>
        <time>2021-12-23T14:26:45Z</time>
      </trkpt>
      <trkpt lat="45.28105" lon="6.0773">
        <ele>1087</ele>
        <time>2021-12-23T14:26:46Z</time>
      </trkpt>
      <trkpt lat="45.28105" lon="6.07729">
        <ele>1087</ele>
        <time>2021-12-23T14:26:48Z</time>
      </trkpt>
      <trkpt lat="45.28105" lon="6.07729">
        <ele>1087</ele>
        <time>2021-12-23T14:26:49Z</time>
      </trkpt>
      <trkpt lat="45.28106" lon="6.07729">
        <ele>1087</ele>
        <time>2021-12-23T14:26:50Z</time>
      </trkpt>
      <trkpt lat="45.28106" lon="6.07728">
        <ele>1087</ele>
        <time>2021-12-23T14:26:51Z</time>
      </trkpt>
      <trkpt lat="45.28107" lon="6.07728">
        <ele>1087</ele>
        <time>2021-12-23T14:26:52Z</time>
      </trkpt>
      <trkpt lat="45.28107" lon="6.07727">
        <ele>1087</ele>
        <time>2021-12-23T14:26:53Z</time>
      </trkpt>
      <trkpt lat="45.28107" lon="6.07727">
        <ele>1087</ele>
        <time>2021-12-23T14:26:54Z</time>
      </trkpt>
      <trkpt lat="45.28108" lon="6.07726">
        <ele>1087</ele>
        <time>2021-12-23T14:26:55Z</time>
      </trkpt>
      <trkpt lat="45.28108" lon="6.07726">
        <ele>1087</ele>
        <time>2021-12-23T14:26:56Z</time>
      </trkpt>
      <trkpt lat="45.28109" lon="6.07725">
        <ele>1087</ele>
        <time>2021-12-23T14:26:57Z</time>
      </trkpt>
      <trkpt lat="45.28109" lon="6.07724">
        <ele>1087</ele>
        <time>2021-12-23T14:26:58Z</time>
      </trkpt>
      <trkpt lat="45.28109" lon="6.07723">
        <ele>1087</ele>
        <time>2021-12-23T14:26:59Z</time>
      </trkpt>
      <trkpt lat="45.2811" lon="6.07722">
        <ele>1087</ele>
        <time>2021-12-23T14:27:00Z</time>
      </trkpt>
      <trkpt lat="45.2811" lon="6.0772">
        <ele>1087</ele>
        <time>2021-12-23T14:27:01Z</time>
      </trkpt>
      <trkpt lat="45.2811" lon="6.07719">
        <ele>1087</ele>
        <time>2021-12-23T14:27:02Z</time>
      </trkpt>
      <trkpt lat="45.28111" lon="6.07718">
        <ele>1087</ele>
        <time>2021-12-23T14:27:03Z</time>
      </trkpt>
      <trkpt lat="45.28111" lon="6.07717">
        <ele>1087</ele>
        <time>2021-12-23T14:27:04Z</time>
      </trkpt>
      <trkpt lat="45.28111" lon="6.07716">
        <ele>1087</ele>
        <time>2021-12-23T14:27:05Z</time>
      </trkpt>
      <trkpt lat="45.28112" lon="6.07715">
        <ele>1087</ele>
        <time>2021-12-23T14:27:06Z</time>
      </trkpt>
      <trkpt lat="45.28112" lon="6.07714">
        <ele>1087</ele>
        <time>2021-12-23T14:27:07Z</time>
      </trkpt>
      <trkpt lat="45.28113" lon="6.07712">
        <ele>1087</ele>
        <time>2021-12-23T14:27:08Z</time>
      </trkpt>
      <trkpt lat="45.28113" lon="6.0771">
        <ele>1087</ele>
        <time>2021-12-23T14:27:09Z</time>
      </trkpt>
      <trkpt lat="45.28114" lon="6.07708">
        <ele>1087</ele>
        <time>2021-12-23T14:27:10Z</time>
      </trkpt>
      <trkpt lat="45.28114" lon="6.07706">
        <ele>1086</ele>
        <time>2021-12-23T14:27:11Z</time>
      </trkpt>
      <trkpt lat="45.28115" lon="6.07704">
        <ele>1086</ele>
        <time>2021-12-23T14:27:12Z</time>
      </trkpt>
      <trkpt lat="45.28116" lon="6.07702">
        <ele>1086</ele>
        <time>2021-12-23T14:27:13Z</time>
      </trkpt>
      <trkpt lat="45.28116" lon="6.077">
        <ele>1086</ele>
        <time>2021-12-23T14:27:14Z</time>
      </trkpt>
      <trkpt lat="45.28116" lon="6.077">
        <ele>1086</ele>
        <time>2021-12-23T14:27:15Z</time>
      </trkpt>
      <trkpt lat="45.28117" lon="6.07699">
        <ele>1086</ele>
        <time>2021-12-23T14:27:16Z</time>
      </trkpt>
      <trkpt lat="45.28117" lon="6.07699">
        <ele>1086</ele>
        <time>2021-12-23T14:27:17Z</time>
      </trkpt>
      <trkpt lat="45.28117" lon="6.07699">
        <ele>1086</ele>
        <time>2021-12-23T14:27:18Z</time>
      </trkpt>
      <trkpt lat="45.28117" lon="6.07698">
        <ele>1085</ele>
        <time>2021-12-23T14:27:19Z</time>
      </trkpt>
      <trkpt lat="45.28117" lon="6.07698">
        <ele>1085</ele>
        <time>2021-12-23T14:27:20Z</time>
      </trkpt>
      <trkpt lat="45.28117" lon="6.07697">
        <ele>1085</ele>
        <time>2021-12-23T14:27:21Z</time>
      </trkpt>
      <trkpt lat="45.28118" lon="6.07697">
        <ele>1085</ele>
        <time>2021-12-23T14:27:22Z</time>
      </trkpt>
      <trkpt lat="45.28118" lon="6.07697">
        <ele>1084</ele>
        <time>2021-12-23T14:27:23Z</time>
      </trkpt>
      <trkpt lat="45.28118" lon="6.07696">
        <ele>1084</ele>
        <time>2021-12-23T14:27:24Z</time>
      </trkpt>
      <trkpt lat="45.28122" lon="6.07687">
        <ele>1084</ele>
        <time>2021-12-23T14:27:26Z</time>
      </trkpt>
      <trkpt lat="45.28123" lon="6.07685">
        <ele>1084</ele>
        <time>2021-12-23T14:27:27Z</time>
      </trkpt>
      <trkpt lat="45.28124" lon="6.07684">
        <ele>1084</ele>
        <time>2021-12-23T14:27:28Z</time>
      </trkpt>
      <trkpt lat="45.28124" lon="6.07682">
        <ele>1084</ele>
        <time>2021-12-23T14:27:29Z</time>
      </trkpt>
      <trkpt lat="45.28125" lon="6.07681">
        <ele>1084</ele>
        <time>2021-12-23T14:27:30Z</time>
      </trkpt>
      <trkpt lat="45.28126" lon="6.07679">
        <ele>1084</ele>
        <time>2021-12-23T14:27:31Z</time>
      </trkpt>
      <trkpt lat="45.28127" lon="6.07678">
        <ele>1084</ele>
        <time>2021-12-23T14:27:32Z</time>
      </trkpt>
      <trkpt lat="45.28127" lon="6.07676">
        <ele>1083</ele>
        <time>2021-12-23T14:27:33Z</time>
      </trkpt>
      <trkpt lat="45.28127" lon="6.07674">
        <ele>1083</ele>
        <time>2021-12-23T14:27:34Z</time>
      </trkpt>
      <trkpt lat="45.28127" lon="6.07672">
        <ele>1083</ele>
        <time>2021-12-23T14:27:35Z</time>
      </trkpt>
      <trkpt lat="45.28127" lon="6.0767">
        <ele>1083</ele>
        <time>2021-12-23T14:27:36Z</time>
      </trkpt>
      <trkpt lat="45.28128" lon="6.07668">
        <ele>1083</ele>
        <time>2021-12-23T14:27:37Z</time>
      </trkpt>
      <trkpt lat="45.28128" lon="6.07665">
        <ele>1083</ele>
        <time>2021-12-23T14:27:38Z</time>
      </trkpt>
      <trkpt lat="45.28128" lon="6.07663">
        <ele>1083</ele>
        <time>2021-12-23T14:27:39Z</time>
      </trkpt>
      <trkpt lat="45.28128" lon="6.07663">
        <ele>1083</ele>
        <time>2021-12-23T14:27:40Z</time>
      </trkpt>
      <trkpt lat="45.28128" lon="6.07663">
        <ele>1083</ele>
        <time>2021-12-23T14:27:41Z</time>
      </trkpt>
      <trkpt lat="45.28128" lon="6.07663">
        <ele>1083</ele>
        <time>2021-12-23T14:27:42Z</time>
      </trkpt>
      <trkpt lat="45.28128" lon="6.07663">
        <ele>1083</ele>
        <time>2021-12-23T14:27:43Z</time>
      </trkpt>
      <trkpt lat="45.28128" lon="6.07663">
        <ele>1082</ele>
        <time>2021-12-23T14:27:45Z</time>
      </trkpt>
      <trkpt lat="45.28128" lon="6.07663">
        <ele>1082</ele>
        <time>2021-12-23T14:27:46Z</time>
      </trkpt>
      <trkpt lat="45.28135" lon="6.07652">
        <ele>1082</ele>
        <time>2021-12-23T14:27:47Z</time>
      </trkpt>
      <trkpt lat="45.28135" lon="6.07652">
        <ele>1082</ele>
        <time>2021-12-23T14:27:49Z</time>
      </trkpt>
      <trkpt lat="45.28135" lon="6.07651">
        <ele>1082</ele>
        <time>2021-12-23T14:27:50Z</time>
      </trkpt>
      <trkpt lat="45.28135" lon="6.0765">
        <ele>1082</ele>
        <time>2021-12-23T14:27:51Z</time>
      </trkpt>
      <trkpt lat="45.28136" lon="6.07649">
        <ele>1082</ele>
        <time>2021-12-23T14:27:52Z</time>
      </trkpt>
      <trkpt lat="45.28136" lon="6.07648">
        <ele>1082</ele>
        <time>2021-12-23T14:27:53Z</time>
      </trkpt>
      <trkpt lat="45.28136" lon="6.07647">
        <ele>1081</ele>
        <time>2021-12-23T14:27:54Z</time>
      </trkpt>
      <trkpt lat="45.28136" lon="6.07646">
        <ele>1081</ele>
        <time>2021-12-23T14:27:55Z</time>
      </trkpt>
      <trkpt lat="45.28136" lon="6.07645">
        <ele>1081</ele>
        <time>2021-12-23T14:27:56Z</time>
      </trkpt>
      <trkpt lat="45.28137" lon="6.07644">
        <ele>1081</ele>
        <time>2021-12-23T14:27:57Z</time>
      </trkpt>
      <trkpt lat="45.28139" lon="6.07634">
        <ele>1081</ele>
        <time>2021-12-23T14:27:58Z</time>
      </trkpt>
      <trkpt lat="45.28139" lon="6.07634">
        <ele>1081</ele>
        <time>2021-12-23T14:27:59Z</time>
      </trkpt>
      <trkpt lat="45.28139" lon="6.07633">
        <ele>1081</ele>
        <time>2021-12-23T14:28:00Z</time>
      </trkpt>
      <trkpt lat="45.28139" lon="6.07632">
        <ele>1081</ele>
        <time>2021-12-23T14:28:01Z</time>
      </trkpt>
      <trkpt lat="45.2814" lon="6.07632">
        <ele>1081</ele>
        <time>2021-12-23T14:28:02Z</time>
      </trkpt>
      <trkpt lat="45.2814" lon="6.07631">
        <ele>1080</ele>
        <time>2021-12-23T14:28:04Z</time>
      </trkpt>
      <trkpt lat="45.2814" lon="6.0763">
        <ele>1080</ele>
        <time>2021-12-23T14:28:05Z</time>
      </trkpt>
      <trkpt lat="45.28141" lon="6.0763">
        <ele>1080</ele>
        <time>2021-12-23T14:28:06Z</time>
      </trkpt>
      <trkpt lat="45.28141" lon="6.07629">
        <ele>1080</ele>
        <time>2021-12-23T14:28:07Z</time>
      </trkpt>
      <trkpt lat="45.28145" lon="6.07621">
        <ele>1080</ele>
        <time>2021-12-23T14:28:08Z</time>
      </trkpt>
      <trkpt lat="45.28146" lon="6.07619">
        <ele>1080</ele>
        <time>2021-12-23T14:28:09Z</time>
      </trkpt>
      <trkpt lat="45.28147" lon="6.07617">
        <ele>1080</ele>
        <time>2021-12-23T14:28:10Z</time>
      </trkpt>
      <trkpt lat="45.28148" lon="6.07616">
        <ele>1080</ele>
        <time>2021-12-23T14:28:11Z</time>
      </trkpt>
      <trkpt lat="45.28149" lon="6.07614">
        <ele>1080</ele>
        <time>2021-12-23T14:28:12Z</time>
      </trkpt>
      <trkpt lat="45.2815" lon="6.07612">
        <ele>1080</ele>
        <time>2021-12-23T14:28:13Z</time>
      </trkpt>
      <trkpt lat="45.2815" lon="6.07611">
        <ele>1080</ele>
        <time>2021-12-23T14:28:14Z</time>
      </trkpt>
      <trkpt lat="45.28151" lon="6.0761">
        <ele>1079</ele>
        <time>2021-12-23T14:28:15Z</time>
      </trkpt>
      <trkpt lat="45.28151" lon="6.07608">
        <ele>1079</ele>
        <time>2021-12-23T14:28:16Z</time>
      </trkpt>
      <trkpt lat="45.28152" lon="6.07607">
        <ele>1079</ele>
        <time>2021-12-23T14:28:17Z</time>
      </trkpt>
      <trkpt lat="45.28152" lon="6.07606">
        <ele>1079</ele>
        <time>2021-12-23T14:28:18Z</time>
      </trkpt>
      <trkpt lat="45.28153" lon="6.07605">
        <ele>1079</ele>
        <time>2021-12-23T14:28:19Z</time>
      </trkpt>
      <trkpt lat="45.28153" lon="6.07604">
        <ele>1079</ele>
        <time>2021-12-23T14:28:20Z</time>
      </trkpt>
      <trkpt lat="45.28154" lon="6.07603">
        <ele>1079</ele>
        <time>2021-12-23T14:28:21Z</time>
      </trkpt>
      <trkpt lat="45.28154" lon="6.07602">
        <ele>1079</ele>
        <time>2021-12-23T14:28:23Z</time>
      </trkpt>
      <trkpt lat="45.28155" lon="6.07601">
        <ele>1078</ele>
        <time>2021-12-23T14:28:24Z</time>
      </trkpt>
      <trkpt lat="45.28155" lon="6.07599">
        <ele>1079</ele>
        <time>2021-12-23T14:28:25Z</time>
      </trkpt>
      <trkpt lat="45.28156" lon="6.07597">
        <ele>1079</ele>
        <time>2021-12-23T14:28:26Z</time>
      </trkpt>
      <trkpt lat="45.28156" lon="6.07595">
        <ele>1079</ele>
        <time>2021-12-23T14:28:27Z</time>
      </trkpt>
      <trkpt lat="45.28157" lon="6.07593">
        <ele>1078</ele>
        <time>2021-12-23T14:28:28Z</time>
      </trkpt>
      <trkpt lat="45.28157" lon="6.07591">
        <ele>1078</ele>
        <time>2021-12-23T14:28:29Z</time>
      </trkpt>
      <trkpt lat="45.28158" lon="6.07589">
        <ele>1078</ele>
        <time>2021-12-23T14:28:30Z</time>
      </trkpt>
      <trkpt lat="45.28158" lon="6.07586">
        <ele>1078</ele>
        <time>2021-12-23T14:28:31Z</time>
      </trkpt>
      <trkpt lat="45.28158" lon="6.07584">
        <ele>1078</ele>
        <time>2021-12-23T14:28:32Z</time>
      </trkpt>
      <trkpt lat="45.28158" lon="6.07582">
        <ele>1078</ele>
        <time>2021-12-23T14:28:33Z</time>
      </trkpt>
      <trkpt lat="45.28158" lon="6.0758">
        <ele>1078</ele>
        <time>2021-12-23T14:28:34Z</time>
      </trkpt>
      <trkpt lat="45.28158" lon="6.07578">
        <ele>1078</ele>
        <time>2021-12-23T14:28:35Z</time>
      </trkpt>
      <trkpt lat="45.28159" lon="6.07575">
        <ele>1077</ele>
        <time>2021-12-23T14:28:36Z</time>
      </trkpt>
      <trkpt lat="45.28159" lon="6.07575">
        <ele>1077</ele>
        <time>2021-12-23T14:28:37Z</time>
      </trkpt>
      <trkpt lat="45.28159" lon="6.07574">
        <ele>1077</ele>
        <time>2021-12-23T14:28:38Z</time>
      </trkpt>
      <trkpt lat="45.28159" lon="6.07573">
        <ele>1077</ele>
        <time>2021-12-23T14:28:39Z</time>
      </trkpt>
      <trkpt lat="45.2816" lon="6.07572">
        <ele>1076</ele>
        <time>2021-12-23T14:28:40Z</time>
      </trkpt>
      <trkpt lat="45.2816" lon="6.07571">
        <ele>1076</ele>
        <time>2021-12-23T14:28:42Z</time>
      </trkpt>
      <trkpt lat="45.2816" lon="6.0757">
        <ele>1076</ele>
        <time>2021-12-23T14:28:43Z</time>
      </trkpt>
      <trkpt lat="45.2816" lon="6.0757">
        <ele>1076</ele>
        <time>2021-12-23T14:28:44Z</time>
      </trkpt>
      <trkpt lat="45.28161" lon="6.07569">
        <ele>1076</ele>
        <time>2021-12-23T14:28:45Z</time>
      </trkpt>
      <trkpt lat="45.28164" lon="6.07561">
        <ele>1076</ele>
        <time>2021-12-23T14:28:46Z</time>
      </trkpt>
      <trkpt lat="45.28165" lon="6.07561">
        <ele>1076</ele>
        <time>2021-12-23T14:28:47Z</time>
      </trkpt>
      <trkpt lat="45.28166" lon="6.0756">
        <ele>1076</ele>
        <time>2021-12-23T14:28:48Z</time>
      </trkpt>
      <trkpt lat="45.28166" lon="6.07559">
        <ele>1076</ele>
        <time>2021-12-23T14:28:49Z</time>
      </trkpt>
      <trkpt lat="45.28167" lon="6.07558">
        <ele>1076</ele>
        <time>2021-12-23T14:28:50Z</time>
      </trkpt>
      <trkpt lat="45.28168" lon="6.07557">
        <ele>1076</ele>
        <time>2021-12-23T14:28:51Z</time>
      </trkpt>
      <trkpt lat="45.28169" lon="6.07556">
        <ele>1076</ele>
        <time>2021-12-23T14:28:52Z</time>
      </trkpt>
      <trkpt lat="45.2817" lon="6.07555">
        <ele>1076</ele>
        <time>2021-12-23T14:28:53Z</time>
      </trkpt>
      <trkpt lat="45.2817" lon="6.07553">
        <ele>1076</ele>
        <time>2021-12-23T14:28:54Z</time>
      </trkpt>
      <trkpt lat="45.28171" lon="6.07552">
        <ele>1076</ele>
        <time>2021-12-23T14:28:55Z</time>
      </trkpt>
      <trkpt lat="45.28171" lon="6.0755">
        <ele>1076</ele>
        <time>2021-12-23T14:28:56Z</time>
      </trkpt>
      <trkpt lat="45.28171" lon="6.07549">
        <ele>1075</ele>
        <time>2021-12-23T14:28:57Z</time>
      </trkpt>
      <trkpt lat="45.28171" lon="6.07547">
        <ele>1075</ele>
        <time>2021-12-23T14:28:58Z</time>
      </trkpt>
      <trkpt lat="45.28172" lon="6.07545">
        <ele>1075</ele>
        <time>2021-12-23T14:28:59Z</time>
      </trkpt>
      <trkpt lat="45.28172" lon="6.07544">
        <ele>1075</ele>
        <time>2021-12-23T14:29:00Z</time>
      </trkpt>
      <trkpt lat="45.28172" lon="6.07542">
        <ele>1075</ele>
        <time>2021-12-23T14:29:01Z</time>
      </trkpt>
      <trkpt lat="45.28172" lon="6.07541">
        <ele>1075</ele>
        <time>2021-12-23T14:29:02Z</time>
      </trkpt>
      <trkpt lat="45.28173" lon="6.07539">
        <ele>1075</ele>
        <time>2021-12-23T14:29:03Z</time>
      </trkpt>
      <trkpt lat="45.28173" lon="6.07537">
        <ele>1075</ele>
        <time>2021-12-23T14:29:04Z</time>
      </trkpt>
      <trkpt lat="45.28173" lon="6.07535">
        <ele>1075</ele>
        <time>2021-12-23T14:29:05Z</time>
      </trkpt>
      <trkpt lat="45.28174" lon="6.07533">
        <ele>1075</ele>
        <time>2021-12-23T14:29:06Z</time>
      </trkpt>
      <trkpt lat="45.28174" lon="6.07532">
        <ele>1075</ele>
        <time>2021-12-23T14:29:07Z</time>
      </trkpt>
      <trkpt lat="45.28174" lon="6.0753">
        <ele>1075</ele>
        <time>2021-12-23T14:29:08Z</time>
      </trkpt>
      <trkpt lat="45.28174" lon="6.07528">
        <ele>1074</ele>
        <time>2021-12-23T14:29:09Z</time>
      </trkpt>
      <trkpt lat="45.28175" lon="6.07526">
        <ele>1074</ele>
        <time>2021-12-23T14:29:10Z</time>
      </trkpt>
      <trkpt lat="45.28176" lon="6.07524">
        <ele>1074</ele>
        <time>2021-12-23T14:29:11Z</time>
      </trkpt>
      <trkpt lat="45.28176" lon="6.07523">
        <ele>1074</ele>
        <time>2021-12-23T14:29:12Z</time>
      </trkpt>
      <trkpt lat="45.28177" lon="6.07521">
        <ele>1074</ele>
        <time>2021-12-23T14:29:13Z</time>
      </trkpt>
      <trkpt lat="45.28178" lon="6.07519">
        <ele>1074</ele>
        <time>2021-12-23T14:29:14Z</time>
      </trkpt>
      <trkpt lat="45.28178" lon="6.07517">
        <ele>1074</ele>
        <time>2021-12-23T14:29:15Z</time>
      </trkpt>
      <trkpt lat="45.28179" lon="6.07516">
        <ele>1074</ele>
        <time>2021-12-23T14:29:16Z</time>
      </trkpt>
      <trkpt lat="45.28179" lon="6.07514">
        <ele>1074</ele>
        <time>2021-12-23T14:29:17Z</time>
      </trkpt>
      <trkpt lat="45.2818" lon="6.07511">
        <ele>1074</ele>
        <time>2021-12-23T14:29:18Z</time>
      </trkpt>
      <trkpt lat="45.2818" lon="6.07509">
        <ele>1073</ele>
        <time>2021-12-23T14:29:20Z</time>
      </trkpt>
      <trkpt lat="45.28181" lon="6.07507">
        <ele>1073</ele>
        <time>2021-12-23T14:29:21Z</time>
      </trkpt>
      <trkpt lat="45.28181" lon="6.07505">
        <ele>1073</ele>
        <time>2021-12-23T14:29:22Z</time>
      </trkpt>
      <trkpt lat="45.28182" lon="6.07503">
        <ele>1073</ele>
        <time>2021-12-23T14:29:23Z</time>
      </trkpt>
      <trkpt lat="45.28182" lon="6.07501">
        <ele>1073</ele>
        <time>2021-12-23T14:29:24Z</time>
      </trkpt>
      <trkpt lat="45.28183" lon="6.07499">
        <ele>1073</ele>
        <time>2021-12-23T14:29:25Z</time>
      </trkpt>
      <trkpt lat="45.28183" lon="6.07498">
        <ele>1073</ele>
        <time>2021-12-23T14:29:26Z</time>
      </trkpt>
      <trkpt lat="45.28184" lon="6.07496">
        <ele>1073</ele>
        <time>2021-12-23T14:29:27Z</time>
      </trkpt>
      <trkpt lat="45.28185" lon="6.07495">
        <ele>1072</ele>
        <time>2021-12-23T14:29:28Z</time>
      </trkpt>
      <trkpt lat="45.28185" lon="6.07493">
        <ele>1072</ele>
        <time>2021-12-23T14:29:29Z</time>
      </trkpt>
      <trkpt lat="45.28186" lon="6.07491">
        <ele>1073</ele>
        <time>2021-12-23T14:29:30Z</time>
      </trkpt>
      <trkpt lat="45.28187" lon="6.0749">
        <ele>1073</ele>
        <time>2021-12-23T14:29:31Z</time>
      </trkpt>
      <trkpt lat="45.28187" lon="6.07489">
        <ele>1072</ele>
        <time>2021-12-23T14:29:32Z</time>
      </trkpt>
      <trkpt lat="45.28188" lon="6.07488">
        <ele>1072</ele>
        <time>2021-12-23T14:29:33Z</time>
      </trkpt>
      <trkpt lat="45.28189" lon="6.07487">
        <ele>1072</ele>
        <time>2021-12-23T14:29:34Z</time>
      </trkpt>
      <trkpt lat="45.2819" lon="6.07486">
        <ele>1072</ele>
        <time>2021-12-23T14:29:35Z</time>
      </trkpt>
      <trkpt lat="45.2819" lon="6.07485">
        <ele>1072</ele>
        <time>2021-12-23T14:29:36Z</time>
      </trkpt>
      <trkpt lat="45.28191" lon="6.07483">
        <ele>1071</ele>
        <time>2021-12-23T14:29:37Z</time>
      </trkpt>
      <trkpt lat="45.28192" lon="6.07482">
        <ele>1071</ele>
        <time>2021-12-23T14:29:39Z</time>
      </trkpt>
      <trkpt lat="45.28193" lon="6.07481">
        <ele>1071</ele>
        <time>2021-12-23T14:29:40Z</time>
      </trkpt>
      <trkpt lat="45.28193" lon="6.0748">
        <ele>1071</ele>
        <time>2021-12-23T14:29:41Z</time>
      </trkpt>
      <trkpt lat="45.28194" lon="6.07479">
        <ele>1071</ele>
        <time>2021-12-23T14:29:42Z</time>
      </trkpt>
      <trkpt lat="45.28194" lon="6.07477">
        <ele>1071</ele>
        <time>2021-12-23T14:29:43Z</time>
      </trkpt>
      <trkpt lat="45.28195" lon="6.07476">
        <ele>1071</ele>
        <time>2021-12-23T14:29:44Z</time>
      </trkpt>
      <trkpt lat="45.28195" lon="6.07475">
        <ele>1071</ele>
        <time>2021-12-23T14:29:45Z</time>
      </trkpt>
      <trkpt lat="45.28196" lon="6.07473">
        <ele>1071</ele>
        <time>2021-12-23T14:29:46Z</time>
      </trkpt>
      <trkpt lat="45.28196" lon="6.07472">
        <ele>1071</ele>
        <time>2021-12-23T14:29:47Z</time>
      </trkpt>
      <trkpt lat="45.28197" lon="6.07471">
        <ele>1071</ele>
        <time>2021-12-23T14:29:48Z</time>
      </trkpt>
      <trkpt lat="45.28197" lon="6.0747">
        <ele>1071</ele>
        <time>2021-12-23T14:29:49Z</time>
      </trkpt>
      <trkpt lat="45.28198" lon="6.07468">
        <ele>1071</ele>
        <time>2021-12-23T14:29:50Z</time>
      </trkpt>
      <trkpt lat="45.28198" lon="6.07468">
        <ele>1071</ele>
        <time>2021-12-23T14:29:51Z</time>
      </trkpt>
      <trkpt lat="45.28198" lon="6.07468">
        <ele>1071</ele>
        <time>2021-12-23T14:29:52Z</time>
      </trkpt>
      <trkpt lat="45.28198" lon="6.07468">
        <ele>1071</ele>
        <time>2021-12-23T14:29:53Z</time>
      </trkpt>
      <trkpt lat="45.28198" lon="6.07468">
        <ele>1071</ele>
        <time>2021-12-23T14:29:54Z</time>
      </trkpt>
      <trkpt lat="45.28198" lon="6.07468">
        <ele>1071</ele>
        <time>2021-12-23T14:29:55Z</time>
      </trkpt>
      <trkpt lat="45.28198" lon="6.07468">
        <ele>1071</ele>
        <time>2021-12-23T14:29:56Z</time>
      </trkpt>
      <trkpt lat="45.282" lon="6.07453">
        <ele>1070</ele>
        <time>2021-12-23T14:29:58Z</time>
      </trkpt>
      <trkpt lat="45.28201" lon="6.07452">
        <ele>1070</ele>
        <time>2021-12-23T14:29:59Z</time>
      </trkpt>
      <trkpt lat="45.28202" lon="6.07451">
        <ele>1070</ele>
        <time>2021-12-23T14:30:00Z</time>
      </trkpt>
      <trkpt lat="45.28202" lon="6.07451">
        <ele>1070</ele>
        <time>2021-12-23T14:30:01Z</time>
      </trkpt>
      <trkpt lat="45.28203" lon="6.0745">
        <ele>1070</ele>
        <time>2021-12-23T14:30:02Z</time>
      </trkpt>
      <trkpt lat="45.28203" lon="6.07449">
        <ele>1070</ele>
        <time>2021-12-23T14:30:03Z</time>
      </trkpt>
      <trkpt lat="45.28204" lon="6.07448">
        <ele>1070</ele>
        <time>2021-12-23T14:30:04Z</time>
      </trkpt>
      <trkpt lat="45.28205" lon="6.07447">
        <ele>1070</ele>
        <time>2021-12-23T14:30:05Z</time>
      </trkpt>
      <trkpt lat="45.28205" lon="6.07446">
        <ele>1070</ele>
        <time>2021-12-23T14:30:06Z</time>
      </trkpt>
      <trkpt lat="45.28206" lon="6.07445">
        <ele>1070</ele>
        <time>2021-12-23T14:30:07Z</time>
      </trkpt>
      <trkpt lat="45.28206" lon="6.07444">
        <ele>1070</ele>
        <time>2021-12-23T14:30:08Z</time>
      </trkpt>
      <trkpt lat="45.28207" lon="6.07443">
        <ele>1070</ele>
        <time>2021-12-23T14:30:09Z</time>
      </trkpt>
      <trkpt lat="45.28208" lon="6.07443">
        <ele>1070</ele>
        <time>2021-12-23T14:30:10Z</time>
      </trkpt>
      <trkpt lat="45.28208" lon="6.07442">
        <ele>1070</ele>
        <time>2021-12-23T14:30:11Z</time>
      </trkpt>
      <trkpt lat="45.28209" lon="6.07442">
        <ele>1070</ele>
        <time>2021-12-23T14:30:12Z</time>
      </trkpt>
      <trkpt lat="45.28209" lon="6.07441">
        <ele>1070</ele>
        <time>2021-12-23T14:30:13Z</time>
      </trkpt>
      <trkpt lat="45.2821" lon="6.0744">
        <ele>1070</ele>
        <time>2021-12-23T14:30:14Z</time>
      </trkpt>
      <trkpt lat="45.2821" lon="6.0744">
        <ele>1070</ele>
        <time>2021-12-23T14:30:15Z</time>
      </trkpt>
      <trkpt lat="45.28211" lon="6.07439">
        <ele>1069</ele>
        <time>2021-12-23T14:30:17Z</time>
      </trkpt>
      <trkpt lat="45.28211" lon="6.07438">
        <ele>1069</ele>
        <time>2021-12-23T14:30:18Z</time>
      </trkpt>
      <trkpt lat="45.28217" lon="6.07433">
        <ele>1069</ele>
        <time>2021-12-23T14:30:19Z</time>
      </trkpt>
      <trkpt lat="45.28218" lon="6.07433">
        <ele>1069</ele>
        <time>2021-12-23T14:30:20Z</time>
      </trkpt>
      <trkpt lat="45.28219" lon="6.07432">
        <ele>1069</ele>
        <time>2021-12-23T14:30:21Z</time>
      </trkpt>
      <trkpt lat="45.2822" lon="6.07431">
        <ele>1069</ele>
        <time>2021-12-23T14:30:22Z</time>
      </trkpt>
      <trkpt lat="45.28221" lon="6.07431">
        <ele>1069</ele>
        <time>2021-12-23T14:30:23Z</time>
      </trkpt>
      <trkpt lat="45.28222" lon="6.0743">
        <ele>1069</ele>
        <time>2021-12-23T14:30:24Z</time>
      </trkpt>
      <trkpt lat="45.28223" lon="6.0743">
        <ele>1069</ele>
        <time>2021-12-23T14:30:25Z</time>
      </trkpt>
      <trkpt lat="45.28224" lon="6.07429">
        <ele>1069</ele>
        <time>2021-12-23T14:30:26Z</time>
      </trkpt>
      <trkpt lat="45.28225" lon="6.07429">
        <ele>1069</ele>
        <time>2021-12-23T14:30:27Z</time>
      </trkpt>
      <trkpt lat="45.28225" lon="6.07429">
        <ele>1069</ele>
        <time>2021-12-23T14:30:28Z</time>
      </trkpt>
      <trkpt lat="45.28225" lon="6.07429">
        <ele>1069</ele>
        <time>2021-12-23T14:30:29Z</time>
      </trkpt>
      <trkpt lat="45.28225" lon="6.07429">
        <ele>1069</ele>
        <time>2021-12-23T14:30:30Z</time>
      </trkpt>
      <trkpt lat="45.28225" lon="6.07429">
        <ele>1069</ele>
        <time>2021-12-23T14:30:31Z</time>
      </trkpt>
      <trkpt lat="45.28225" lon="6.07429">
        <ele>1069</ele>
        <time>2021-12-23T14:30:32Z</time>
      </trkpt>
      <trkpt lat="45.28225" lon="6.07429">
        <ele>1070</ele>
        <time>2021-12-23T14:30:33Z</time>
      </trkpt>
      <trkpt lat="45.28225" lon="6.07429">
        <ele>1070</ele>
        <time>2021-12-23T14:30:34Z</time>
      </trkpt>
      <trkpt lat="45.28225" lon="6.07429">
        <ele>1070</ele>
        <time>2021-12-23T14:30:36Z</time>
      </trkpt>
      <trkpt lat="45.28225" lon="6.07429">
        <ele>1070</ele>
        <time>2021-12-23T14:30:37Z</time>
      </trkpt>
      <trkpt lat="45.28225" lon="6.07429">
        <ele>1070</ele>
        <time>2021-12-23T14:30:38Z</time>
      </trkpt>
      <trkpt lat="45.28225" lon="6.07429">
        <ele>1069</ele>
        <time>2021-12-23T14:30:39Z</time>
      </trkpt>
      <trkpt lat="45.28225" lon="6.07429">
        <ele>1070</ele>
        <time>2021-12-23T14:30:40Z</time>
      </trkpt>
      <trkpt lat="45.28225" lon="6.07429">
        <ele>1070</ele>
        <time>2021-12-23T14:30:41Z</time>
      </trkpt>
      <trkpt lat="45.28225" lon="6.07429">
        <ele>1070</ele>
        <time>2021-12-23T14:30:42Z</time>
      </trkpt>
      <trkpt lat="45.28225" lon="6.07429">
        <ele>1070</ele>
        <time>2021-12-23T14:30:43Z</time>
      </trkpt>
      <trkpt lat="45.28225" lon="6.07429">
        <ele>1070</ele>
        <time>2021-12-23T14:30:44Z</time>
      </trkpt>
      <trkpt lat="45.28225" lon="6.07429">
        <ele>1070</ele>
        <time>2021-12-23T14:30:45Z</time>
      </trkpt>
      <trkpt lat="45.28225" lon="6.07429">
        <ele>1071</ele>
        <time>2021-12-23T14:30:46Z</time>
      </trkpt>
      <trkpt lat="45.28225" lon="6.07429">
        <ele>1071</ele>
        <time>2021-12-23T14:30:47Z</time>
      </trkpt>
      <trkpt lat="45.28225" lon="6.07429">
        <ele>1071</ele>
        <time>2021-12-23T14:30:48Z</time>
      </trkpt>
      <trkpt lat="45.28225" lon="6.07429">
        <ele>1071</ele>
        <time>2021-12-23T14:30:49Z</time>
      </trkpt>
      <trkpt lat="45.28225" lon="6.07429">
        <ele>1071</ele>
        <time>2021-12-23T14:30:50Z</time>
      </trkpt>
      <trkpt lat="45.28225" lon="6.07429">
        <ele>1070</ele>
        <time>2021-12-23T14:30:51Z</time>
      </trkpt>
      <trkpt lat="45.28225" lon="6.07429">
        <ele>1070</ele>
        <time>2021-12-23T14:30:52Z</time>
      </trkpt>
      <trkpt lat="45.28225" lon="6.07429">
        <ele>1070</ele>
        <time>2021-12-23T14:30:53Z</time>
      </trkpt>
      <trkpt lat="45.28225" lon="6.07429">
        <ele>1070</ele>
        <time>2021-12-23T14:30:55Z</time>
      </trkpt>
    </trkseg>
  </trk>
</gpx>